<?xml version='1.0' encoding='UTF-8'?><gpx version="1.1" creator="JPX - https://github.com/jenetics/jpx" xmlns="http://www.topografix.com/GPX/1/1"><trk><trkseg><trkpt lat="42.29773613048836" lon="14.292916119990474"><ele>120.0</ele><time>2026-04-12T08:25:57Z</time></trkpt><trkpt lat="42.29768037297832" lon="14.29286512389538"><ele>120.0</ele><time>2026-04-12T08:25:58Z</time></trkpt><trkpt lat="42.29761537392015" lon="14.292798150300158"><ele>120.0</ele><time>2026-04-12T08:25:59Z</time></trkpt><trkpt lat="42.29753833171331" lon="14.292718474370872"><ele>120.0</ele><time>2026-04-12T08:26:00Z</time></trkpt><trkpt lat="42.297457162978944" lon="14.292633787036413"><ele>120.0</ele><time>2026-04-12T08:26:01Z</time></trkpt><trkpt lat="42.29737318473504" lon="14.292540537047266"><ele>120.0</ele><time>2026-04-12T08:26:02Z</time></trkpt><trkpt lat="42.297279164285676" lon="14.292450432690632"><ele>120.0</ele><time>2026-04-12T08:26:03Z</time></trkpt><trkpt lat="42.297183020262416" lon="14.292357203767825"><ele>120.0</ele><time>2026-04-12T08:26:04Z</time></trkpt><trkpt lat="42.297079618706206" lon="14.292235111480734"><ele>120.0</ele><time>2026-04-12T08:26:05Z</time></trkpt><trkpt lat="42.29695928126707" lon="14.292116883906711"><ele>125.0</ele><time>2026-04-12T08:26:06Z</time></trkpt><trkpt lat="42.296824253189314" lon="14.2920169455678"><ele>130.0</ele><time>2026-04-12T08:26:07Z</time></trkpt><trkpt lat="42.29668521523032" lon="14.291898923657605"><ele>135.0</ele><time>2026-04-12T08:26:08Z</time></trkpt><trkpt lat="42.296544346889604" lon="14.29180680761026"><ele>135.0</ele><time>2026-04-12T08:26:09Z</time></trkpt><trkpt lat="42.29643596354854" lon="14.291716182960998"><ele>135.0</ele><time>2026-04-12T08:26:10Z</time></trkpt><trkpt lat="42.29632424359728" lon="14.291676605607929"><ele>135.0</ele><time>2026-04-12T08:26:11Z</time></trkpt><trkpt lat="42.2962304253831" lon="14.291619999678185"><ele>135.0</ele><time>2026-04-12T08:26:12Z</time></trkpt><trkpt lat="42.29618355282838" lon="14.291514936514519"><ele>135.0</ele><time>2026-04-12T08:26:14Z</time></trkpt><trkpt lat="42.296240869904565" lon="14.291422458686574"><ele>134.6</ele><time>2026-04-12T08:26:16Z</time></trkpt><trkpt lat="42.2962811108349" lon="14.291330064088083"><ele>134.2</ele><time>2026-04-12T08:26:17Z</time></trkpt><trkpt lat="42.29632548198141" lon="14.291177937427275"><ele>133.8</ele><time>2026-04-12T08:26:18Z</time></trkpt><trkpt lat="42.29637098235531" lon="14.291022178186173"><ele>133.4</ele><time>2026-04-12T08:26:19Z</time></trkpt><trkpt lat="42.296417684524634" lon="14.290874414061035"><ele>133.0</ele><time>2026-04-12T08:26:20Z</time></trkpt><trkpt lat="42.29646952557539" lon="14.290724215229613"><ele>140.5</ele><time>2026-04-12T08:26:21Z</time></trkpt><trkpt lat="42.296473173044745" lon="14.290525274619096"><ele>148.0</ele><time>2026-04-12T08:26:22Z</time></trkpt><trkpt lat="42.29655208408315" lon="14.290371622440471"><ele>155.5</ele><time>2026-04-12T08:26:23Z</time></trkpt><trkpt lat="42.2966389042536" lon="14.290261150855276"><ele>163.0</ele><time>2026-04-12T08:26:24Z</time></trkpt><trkpt lat="42.2967153952245" lon="14.29014243307404"><ele>163.0</ele><time>2026-04-12T08:26:25Z</time></trkpt><trkpt lat="42.29675617972693" lon="14.290029942418178"><ele>163.0</ele><time>2026-04-12T08:26:26Z</time></trkpt><trkpt lat="42.29678524180542" lon="14.289902153768132"><ele>163.0</ele><time>2026-04-12T08:26:27Z</time></trkpt><trkpt lat="42.29685091325239" lon="14.289788753086471"><ele>163.0</ele><time>2026-04-12T08:26:28Z</time></trkpt><trkpt lat="42.29691752071931" lon="14.289678596556291"><ele>163.0</ele><time>2026-04-12T08:26:29Z</time></trkpt><trkpt lat="42.29699496822445" lon="14.289578740839513"><ele>166.25</ele><time>2026-04-12T08:26:30Z</time></trkpt><trkpt lat="42.297062644942876" lon="14.289451010394167"><ele>169.5</ele><time>2026-04-12T08:26:31Z</time></trkpt><trkpt lat="42.297116489903175" lon="14.289313755521942"><ele>172.75</ele><time>2026-04-12T08:26:32Z</time></trkpt><trkpt lat="42.29717536055917" lon="14.28918230628936"><ele>176.0</ele><time>2026-04-12T08:26:33Z</time></trkpt><trkpt lat="42.29725277736538" lon="14.289079919024639"><ele>177.60000000000002</ele><time>2026-04-12T08:26:34Z</time></trkpt><trkpt lat="42.29730391248048" lon="14.289027222088832"><ele>179.2</ele><time>2026-04-12T08:26:35Z</time></trkpt><trkpt lat="42.29744388765512" lon="14.289083285153938"><ele>180.8</ele><time>2026-04-12T08:26:39Z</time></trkpt><trkpt lat="42.29739792634072" lon="14.288987411448039"><ele>182.39999999999998</ele><time>2026-04-12T08:26:43.999Z</time></trkpt><trkpt lat="42.29732194286077" lon="14.288957868015785"><ele>184.0</ele><time>2026-04-12T08:26:44.999Z</time></trkpt><trkpt lat="42.297203733034436" lon="14.288901469948462"><ele>185.25</ele><time>2026-04-12T08:26:45.999Z</time></trkpt><trkpt lat="42.297113705536894" lon="14.288850550440372"><ele>186.5</ele><time>2026-04-12T08:26:46.999Z</time></trkpt><trkpt lat="42.296997843658005" lon="14.288801781060647"><ele>187.75</ele><time>2026-04-12T08:26:47.999Z</time></trkpt><trkpt lat="42.29688287434099" lon="14.288741304205052"><ele>189.0</ele><time>2026-04-12T08:26:48.999Z</time></trkpt><trkpt lat="42.2967536110226" lon="14.288707515249031"><ele>189.0</ele><time>2026-04-12T08:26:49.999Z</time></trkpt><trkpt lat="42.29659265744042" lon="14.288680386688656"><ele>189.0</ele><time>2026-04-12T08:26:50.999Z</time></trkpt><trkpt lat="42.296449620485504" lon="14.288657333046265"><ele>189.0</ele><time>2026-04-12T08:26:51.999Z</time></trkpt><trkpt lat="42.29632135366226" lon="14.288648172802061"><ele>189.0</ele><time>2026-04-12T08:26:52.999Z</time></trkpt><trkpt lat="42.29619801100348" lon="14.288636894879746"><ele>184.25</ele><time>2026-04-12T08:26:53.999Z</time></trkpt><trkpt lat="42.29608771834358" lon="14.288594863463182"><ele>179.5</ele><time>2026-04-12T08:26:54.999Z</time></trkpt><trkpt lat="42.29597431773475" lon="14.288504957988385"><ele>174.75</ele><time>2026-04-12T08:26:55.999Z</time></trkpt><trkpt lat="42.29587017956676" lon="14.288381860537038"><ele>170.0</ele><time>2026-04-12T08:26:56.999Z</time></trkpt><trkpt lat="42.29578294221284" lon="14.288224805792764"><ele>172.75</ele><time>2026-04-12T08:26:57.999Z</time></trkpt><trkpt lat="42.29571595789987" lon="14.288062840476773"><ele>175.5</ele><time>2026-04-12T08:26:58.999Z</time></trkpt><trkpt lat="42.295659166065604" lon="14.287926567101294"><ele>178.25</ele><time>2026-04-12T08:26:59.999Z</time></trkpt><trkpt lat="42.29558551292788" lon="14.287832029839093"><ele>181.0</ele><time>2026-04-12T08:27:00.999Z</time></trkpt><trkpt lat="42.2954885841862" lon="14.287786010855898"><ele>174.25</ele><time>2026-04-12T08:27:01.999Z</time></trkpt><trkpt lat="42.29538285395246" lon="14.287732226794697"><ele>167.5</ele><time>2026-04-12T08:27:02.999Z</time></trkpt><trkpt lat="42.295280949817" lon="14.287640471060921"><ele>160.75</ele><time>2026-04-12T08:27:03.999Z</time></trkpt><trkpt lat="42.295202493451434" lon="14.287512939183094"><ele>154.0</ele><time>2026-04-12T08:27:04.999Z</time></trkpt><trkpt lat="42.2951022452172" lon="14.287371396935363"><ele>156.5</ele><time>2026-04-12T08:27:05.999Z</time></trkpt><trkpt lat="42.29499741242645" lon="14.28723455718436"><ele>159.0</ele><time>2026-04-12T08:27:06.999Z</time></trkpt><trkpt lat="42.29490449915419" lon="14.28709800623971"><ele>161.5</ele><time>2026-04-12T08:27:07.999Z</time></trkpt><trkpt lat="42.29485348076397" lon="14.286929827126542"><ele>164.0</ele><time>2026-04-12T08:27:08.999Z</time></trkpt><trkpt lat="42.294801027819794" lon="14.286736376367033"><ele>159.0</ele><time>2026-04-12T08:27:09.999Z</time></trkpt><trkpt lat="42.29471162913528" lon="14.286551353466152"><ele>154.0</ele><time>2026-04-12T08:27:10.999Z</time></trkpt><trkpt lat="42.29462929575689" lon="14.286364083705347"><ele>149.0</ele><time>2026-04-12T08:27:11.999Z</time></trkpt><trkpt lat="42.29453148777544" lon="14.286202696288717"><ele>149.0</ele><time>2026-04-12T08:27:12.999Z</time></trkpt><trkpt lat="42.29443744187275" lon="14.28607961650697"><ele>149.0</ele><time>2026-04-12T08:27:13.999Z</time></trkpt><trkpt lat="42.29432187648579" lon="14.285974437583185"><ele>149.0</ele><time>2026-04-12T08:27:14.999Z</time></trkpt><trkpt lat="42.294178530131546" lon="14.285879133905167"><ele>149.0</ele><time>2026-04-12T08:27:15.999Z</time></trkpt><trkpt lat="42.29404011602155" lon="14.285781106278057"><ele>147.5</ele><time>2026-04-12T08:27:16.999Z</time></trkpt><trkpt lat="42.29391714295728" lon="14.285695918314525"><ele>146.0</ele><time>2026-04-12T08:27:17.999Z</time></trkpt><trkpt lat="42.293822637667276" lon="14.285611098921022"><ele>144.5</ele><time>2026-04-12T08:27:18.999Z</time></trkpt><trkpt lat="42.29368537763594" lon="14.285540308642453"><ele>143.0</ele><time>2026-04-12T08:27:19.999Z</time></trkpt><trkpt lat="42.29355836238513" lon="14.285459997744244"><ele>143.0</ele><time>2026-04-12T08:27:20.999Z</time></trkpt><trkpt lat="42.29347610092909" lon="14.285284373746999"><ele>143.0</ele><time>2026-04-12T08:27:21.999Z</time></trkpt><trkpt lat="42.293375062516574" lon="14.285158675731802"><ele>143.0</ele><time>2026-04-12T08:27:22.999Z</time></trkpt><trkpt lat="42.2933006594718" lon="14.285054296155048"><ele>143.0</ele><time>2026-04-12T08:27:23.999Z</time></trkpt><trkpt lat="42.293217996490284" lon="14.284972623899236"><ele>143.0</ele><time>2026-04-12T08:27:24.999Z</time></trkpt><trkpt lat="42.293097030490316" lon="14.28487706074436"><ele>143.0</ele><time>2026-04-12T08:27:25.999Z</time></trkpt><trkpt lat="42.29298096249897" lon="14.284783415257802"><ele>143.0</ele><time>2026-04-12T08:27:26.999Z</time></trkpt><trkpt lat="42.29287148233117" lon="14.284694173503656"><ele>143.0</ele><time>2026-04-12T08:27:27.999Z</time></trkpt><trkpt lat="42.292745868124875" lon="14.284628875879115"><ele>141.0</ele><time>2026-04-12T08:27:28.999Z</time></trkpt><trkpt lat="42.292630810622576" lon="14.28456166859013"><ele>139.0</ele><time>2026-04-12T08:27:29.999Z</time></trkpt><trkpt lat="42.292518760685674" lon="14.284462354786159"><ele>137.0</ele><time>2026-04-12T08:27:30.999Z</time></trkpt><trkpt lat="42.2924168020901" lon="14.284333490958806"><ele>135.0</ele><time>2026-04-12T08:27:32Z</time></trkpt><trkpt lat="42.29230209860778" lon="14.28421776638877"><ele>134.6</ele><time>2026-04-12T08:27:33Z</time></trkpt><trkpt lat="42.29221537489902" lon="14.284084530015488"><ele>134.2</ele><time>2026-04-12T08:27:34Z</time></trkpt><trkpt lat="42.29213260044822" lon="14.283968295863911"><ele>133.8</ele><time>2026-04-12T08:27:35Z</time></trkpt><trkpt lat="42.29207486287688" lon="14.28387452360231"><ele>133.4</ele><time>2026-04-12T08:27:36Z</time></trkpt><trkpt lat="42.29202457967694" lon="14.283809627075698"><ele>133.0</ele><time>2026-04-12T08:27:37Z</time></trkpt><trkpt lat="42.29195425021856" lon="14.28374550315072"><ele>136.25</ele><time>2026-04-12T08:27:38Z</time></trkpt><trkpt lat="42.29184656164241" lon="14.283668968547994"><ele>139.5</ele><time>2026-04-12T08:27:39Z</time></trkpt><trkpt lat="42.29173522955031" lon="14.283550764079928"><ele>142.75</ele><time>2026-04-12T08:27:40Z</time></trkpt><trkpt lat="42.29161771284852" lon="14.283423271952518"><ele>146.0</ele><time>2026-04-12T08:27:41Z</time></trkpt><trkpt lat="42.29150821201856" lon="14.283308835515843"><ele>145.0</ele><time>2026-04-12T08:27:42Z</time></trkpt><trkpt lat="42.291391127546326" lon="14.2832094892471"><ele>144.0</ele><time>2026-04-12T08:27:43Z</time></trkpt><trkpt lat="42.29127710516613" lon="14.283095611205113"><ele>143.0</ele><time>2026-04-12T08:27:44Z</time></trkpt><trkpt lat="42.29116705136819" lon="14.282951587978737"><ele>142.0</ele><time>2026-04-12T08:27:45Z</time></trkpt><trkpt lat="42.29109604486055" lon="14.282801296621377"><ele>144.0</ele><time>2026-04-12T08:27:46Z</time></trkpt><trkpt lat="42.29108645885302" lon="14.28263140349496"><ele>146.0</ele><time>2026-04-12T08:27:47Z</time></trkpt><trkpt lat="42.291091615965705" lon="14.282434472143672"><ele>148.0</ele><time>2026-04-12T08:27:48Z</time></trkpt><trkpt lat="42.29107591959591" lon="14.282277032012757"><ele>150.0</ele><time>2026-04-12T08:27:49Z</time></trkpt><trkpt lat="42.291003505413194" lon="14.28215413883673"><ele>154.0</ele><time>2026-04-12T08:27:50Z</time></trkpt><trkpt lat="42.29090978568028" lon="14.282020973888207"><ele>158.0</ele><time>2026-04-12T08:27:51Z</time></trkpt><trkpt lat="42.29083230193975" lon="14.281851128067137"><ele>162.0</ele><time>2026-04-12T08:27:52Z</time></trkpt><trkpt lat="42.2907644337986" lon="14.281694606635984"><ele>166.0</ele><time>2026-04-12T08:27:53Z</time></trkpt><trkpt lat="42.29075209133301" lon="14.281573333988126"><ele>169.25</ele><time>2026-04-12T08:27:54Z</time></trkpt><trkpt lat="42.29076289185415" lon="14.281406230444102"><ele>172.5</ele><time>2026-04-12T08:27:55Z</time></trkpt><trkpt lat="42.29077192482897" lon="14.281208110772834"><ele>175.75</ele><time>2026-04-12T08:27:56Z</time></trkpt><trkpt lat="42.2907915522668" lon="14.281004013374234"><ele>179.0</ele><time>2026-04-12T08:27:57Z</time></trkpt><trkpt lat="42.290807050846944" lon="14.280776599613693"><ele>182.5</ele><time>2026-04-12T08:27:58Z</time></trkpt><trkpt lat="42.290791470182" lon="14.280570664879424"><ele>186.0</ele><time>2026-04-12T08:27:59Z</time></trkpt><trkpt lat="42.29077182044172" lon="14.280410827287415"><ele>189.5</ele><time>2026-04-12T08:28:00Z</time></trkpt><trkpt lat="42.29072533523023" lon="14.28026432332135"><ele>193.0</ele><time>2026-04-12T08:28:01Z</time></trkpt><trkpt lat="42.29066302905991" lon="14.280130122869902"><ele>193.0</ele><time>2026-04-12T08:28:02Z</time></trkpt><trkpt lat="42.29057156543528" lon="14.279974662897946"><ele>193.0</ele><time>2026-04-12T08:28:03Z</time></trkpt><trkpt lat="42.290491016402065" lon="14.27983975198357"><ele>193.0</ele><time>2026-04-12T08:28:04Z</time></trkpt><trkpt lat="42.29044953154399" lon="14.279676682944372"><ele>193.0</ele><time>2026-04-12T08:28:05Z</time></trkpt><trkpt lat="42.29043089032673" lon="14.279496798244157"><ele>193.0</ele><time>2026-04-12T08:28:06Z</time></trkpt><trkpt lat="42.29041283507948" lon="14.279312886330278"><ele>193.0</ele><time>2026-04-12T08:28:07Z</time></trkpt><trkpt lat="42.29037890884306" lon="14.279199143493164"><ele>193.0</ele><time>2026-04-12T08:28:08Z</time></trkpt><trkpt lat="42.29033623227884" lon="14.279119725134581"><ele>193.0</ele><time>2026-04-12T08:28:09Z</time></trkpt><trkpt lat="42.290236953839894" lon="14.279056340228403"><ele>193.0</ele><time>2026-04-12T08:28:10Z</time></trkpt><trkpt lat="42.29008679233251" lon="14.279006847267954"><ele>195.0</ele><time>2026-04-12T08:28:11Z</time></trkpt><trkpt lat="42.28999012646031" lon="14.278906824516088"><ele>197.0</ele><time>2026-04-12T08:28:12Z</time></trkpt><trkpt lat="42.28994037857572" lon="14.278796459233469"><ele>199.0</ele><time>2026-04-12T08:28:13Z</time></trkpt><trkpt lat="42.289928108838126" lon="14.278633151635415"><ele>201.0</ele><time>2026-04-12T08:28:14Z</time></trkpt><trkpt lat="42.28987572746921" lon="14.278450159912458"><ele>201.0</ele><time>2026-04-12T08:28:15Z</time></trkpt><trkpt lat="42.289827435648775" lon="14.278262150727917"><ele>201.0</ele><time>2026-04-12T08:28:16Z</time></trkpt><trkpt lat="42.28979561560676" lon="14.278066893967344"><ele>201.0</ele><time>2026-04-12T08:28:17Z</time></trkpt><trkpt lat="42.28976313353296" lon="14.277865796549511"><ele>201.0</ele><time>2026-04-12T08:28:18Z</time></trkpt><trkpt lat="42.28971760494529" lon="14.277674299706328"><ele>200.33333333333331</ele><time>2026-04-12T08:28:19Z</time></trkpt><trkpt lat="42.28965607147561" lon="14.277485384187782"><ele>199.66666666666666</ele><time>2026-04-12T08:28:20Z</time></trkpt><trkpt lat="42.289604116234486" lon="14.277256794623554"><ele>199.0</ele><time>2026-04-12T08:28:21Z</time></trkpt><trkpt lat="42.28956476795964" lon="14.277034789434119"><ele>202.0</ele><time>2026-04-12T08:28:22Z</time></trkpt><trkpt lat="42.28954552165633" lon="14.27681443704804"><ele>205.0</ele><time>2026-04-12T08:28:23Z</time></trkpt><trkpt lat="42.28954586193561" lon="14.276590749594027"><ele>208.0</ele><time>2026-04-12T08:28:24Z</time></trkpt><trkpt lat="42.28952584492332" lon="14.276358696854382"><ele>209.2</ele><time>2026-04-12T08:28:25Z</time></trkpt><trkpt lat="42.28948843192357" lon="14.276150365349103"><ele>210.4</ele><time>2026-04-12T08:28:26Z</time></trkpt><trkpt lat="42.28947023994282" lon="14.276003126268206"><ele>211.59999999999997</ele><time>2026-04-12T08:28:27Z</time></trkpt><trkpt lat="42.28946285239947" lon="14.275903109310782"><ele>212.79999999999998</ele><time>2026-04-12T08:28:28Z</time></trkpt><trkpt lat="42.289383359125566" lon="14.275857296883538"><ele>214.0</ele><time>2026-04-12T08:28:30Z</time></trkpt><trkpt lat="42.28931790033729" lon="14.27590612699351"><ele>214.0</ele><time>2026-04-12T08:28:31Z</time></trkpt><trkpt lat="42.2892263005539" lon="14.275928436206378"><ele>213.99999999999997</ele><time>2026-04-12T08:28:32Z</time></trkpt><trkpt lat="42.28909870073692" lon="14.27591273045561"><ele>213.99999999999997</ele><time>2026-04-12T08:28:33Z</time></trkpt><trkpt lat="42.28898888916096" lon="14.275899687554752"><ele>214.0</ele><time>2026-04-12T08:28:34Z</time></trkpt><trkpt lat="42.28892271453209" lon="14.275883374936683"><ele>214.0</ele><time>2026-04-12T08:28:35Z</time></trkpt><trkpt lat="42.288865766821736" lon="14.27584399854017"><ele>214.5</ele><time>2026-04-12T08:28:36Z</time></trkpt><trkpt lat="42.28878165375509" lon="14.275778576765589"><ele>215.0</ele><time>2026-04-12T08:28:37Z</time></trkpt><trkpt lat="42.28867669160514" lon="14.275713637932988"><ele>215.5</ele><time>2026-04-12T08:28:38Z</time></trkpt><trkpt lat="42.28854894685178" lon="14.2756120893021"><ele>216.0</ele><time>2026-04-12T08:28:39Z</time></trkpt><trkpt lat="42.28844703519513" lon="14.27551242529063"><ele>216.0</ele><time>2026-04-12T08:28:40Z</time></trkpt><trkpt lat="42.28835571397" lon="14.275463488595086"><ele>216.00000000000003</ele><time>2026-04-12T08:28:41Z</time></trkpt><trkpt lat="42.28827267653768" lon="14.275407649788672"><ele>216.00000000000003</ele><time>2026-04-12T08:28:42Z</time></trkpt><trkpt lat="42.28817432155806" lon="14.275409871539294"><ele>216.0</ele><time>2026-04-12T08:28:43Z</time></trkpt><trkpt lat="42.28805384078806" lon="14.275454754067288"><ele>216.0</ele><time>2026-04-12T08:28:44Z</time></trkpt><trkpt lat="42.2879183943872" lon="14.275488228895945"><ele>213.60000000000002</ele><time>2026-04-12T08:28:45Z</time></trkpt><trkpt lat="42.28780745601725" lon="14.275515690481662"><ele>211.20000000000002</ele><time>2026-04-12T08:28:46Z</time></trkpt><trkpt lat="42.28770404006893" lon="14.2755503549009"><ele>208.8</ele><time>2026-04-12T08:28:47Z</time></trkpt><trkpt lat="42.28760720177959" lon="14.275482693034462"><ele>206.39999999999998</ele><time>2026-04-12T08:28:47.999Z</time></trkpt><trkpt lat="42.28755289609074" lon="14.275408884006962"><ele>204.0</ele><time>2026-04-12T08:28:48.999Z</time></trkpt><trkpt lat="42.287490967545075" lon="14.275330997051281"><ele>204.0</ele><time>2026-04-12T08:28:49.999Z</time></trkpt><trkpt lat="42.287452792833754" lon="14.27517442610183"><ele>204.0</ele><time>2026-04-12T08:28:50.999Z</time></trkpt><trkpt lat="42.28740256624336" lon="14.274994996551941"><ele>204.0</ele><time>2026-04-12T08:28:51.999Z</time></trkpt><trkpt lat="42.2873298497832" lon="14.274813312510712"><ele>204.0</ele><time>2026-04-12T08:28:52.999Z</time></trkpt><trkpt lat="42.28730473099046" lon="14.274698729691766"><ele>204.25</ele><time>2026-04-12T08:28:53.999Z</time></trkpt><trkpt lat="42.287230408834844" lon="14.274653783764279"><ele>204.5</ele><time>2026-04-12T08:28:54.999Z</time></trkpt><trkpt lat="42.28707371365099" lon="14.274655400210282"><ele>204.75</ele><time>2026-04-12T08:28:56.999Z</time></trkpt><trkpt lat="42.28695354441237" lon="14.27469963469693"><ele>205.0</ele><time>2026-04-12T08:28:57.999Z</time></trkpt><trkpt lat="42.28683567819466" lon="14.274753131402283"><ele>204.2</ele><time>2026-04-12T08:28:58.999Z</time></trkpt><trkpt lat="42.286721249239584" lon="14.274771247280167"><ele>203.4</ele><time>2026-04-12T08:28:59.999Z</time></trkpt><trkpt lat="42.286622107952965" lon="14.274793333425318"><ele>202.60000000000002</ele><time>2026-04-12T08:29:00.999Z</time></trkpt><trkpt lat="42.28653085716651" lon="14.27480963286172"><ele>201.8</ele><time>2026-04-12T08:29:01.999Z</time></trkpt><trkpt lat="42.28646235716763" lon="14.274828289919927"><ele>201.0</ele><time>2026-04-12T08:29:02.999Z</time></trkpt><trkpt lat="42.2863363987943" lon="14.274723552689442"><ele>201.0</ele><time>2026-04-12T08:29:04.999Z</time></trkpt><trkpt lat="42.28624666672036" lon="14.274604937262827"><ele>201.0</ele><time>2026-04-12T08:29:05.999Z</time></trkpt><trkpt lat="42.286174357067715" lon="14.274485098903956"><ele>201.0</ele><time>2026-04-12T08:29:06.999Z</time></trkpt><trkpt lat="42.28612473123917" lon="14.274354821785769"><ele>201.0</ele><time>2026-04-12T08:29:07.999Z</time></trkpt><trkpt lat="42.2860583921144" lon="14.274210543164871"><ele>201.0</ele><time>2026-04-12T08:29:08.999Z</time></trkpt><trkpt lat="42.28604070776734" lon="14.274088477325291"><ele>201.0</ele><time>2026-04-12T08:29:09.999Z</time></trkpt><trkpt lat="42.28606057574015" lon="14.273960348255711"><ele>201.0</ele><time>2026-04-12T08:29:10.999Z</time></trkpt><trkpt lat="42.28610634511046" lon="14.273816967319929"><ele>201.0</ele><time>2026-04-12T08:29:11.999Z</time></trkpt><trkpt lat="42.28615787991565" lon="14.273665812404715"><ele>201.0</ele><time>2026-04-12T08:29:12.999Z</time></trkpt><trkpt lat="42.28615716637502" lon="14.273546042654269"><ele>204.25</ele><time>2026-04-12T08:29:14.999Z</time></trkpt><trkpt lat="42.28613807000911" lon="14.273416492301667"><ele>207.5</ele><time>2026-04-12T08:29:15.999Z</time></trkpt><trkpt lat="42.28607262079495" lon="14.27328488521572"><ele>210.75</ele><time>2026-04-12T08:29:16.999Z</time></trkpt><trkpt lat="42.28596448556739" lon="14.273175536390472"><ele>214.0</ele><time>2026-04-12T08:29:17.999Z</time></trkpt><trkpt lat="42.285861375240636" lon="14.273046318437567"><ele>213.25</ele><time>2026-04-12T08:29:18.999Z</time></trkpt><trkpt lat="42.28577320824656" lon="14.272921473893405"><ele>212.5</ele><time>2026-04-12T08:29:19.999Z</time></trkpt><trkpt lat="42.285690793737984" lon="14.27279401735996"><ele>211.75</ele><time>2026-04-12T08:29:20.999Z</time></trkpt><trkpt lat="42.2856084724861" lon="14.27267745446096"><ele>211.0</ele><time>2026-04-12T08:29:21.999Z</time></trkpt><trkpt lat="42.2855045425611" lon="14.272582684883005"><ele>211.0</ele><time>2026-04-12T08:29:22.999Z</time></trkpt><trkpt lat="42.28542054323891" lon="14.272482106450452"><ele>211.0</ele><time>2026-04-12T08:29:23.999Z</time></trkpt><trkpt lat="42.285371742729104" lon="14.272346268152337"><ele>211.0</ele><time>2026-04-12T08:29:24.999Z</time></trkpt><trkpt lat="42.28534985515226" lon="14.27214528219449"><ele>211.0</ele><time>2026-04-12T08:29:25.999Z</time></trkpt><trkpt lat="42.28532295667819" lon="14.271952078098058"><ele>214.0</ele><time>2026-04-12T08:29:26.999Z</time></trkpt><trkpt lat="42.28530748765565" lon="14.271768233204456"><ele>217.0</ele><time>2026-04-12T08:29:27.999Z</time></trkpt><trkpt lat="42.285294507058005" lon="14.271566409323556"><ele>220.0</ele><time>2026-04-12T08:29:28.999Z</time></trkpt><trkpt lat="42.285304355382834" lon="14.271371470469742"><ele>223.0</ele><time>2026-04-12T08:29:29.999Z</time></trkpt><trkpt lat="42.285306695518216" lon="14.271161752092764"><ele>225.75</ele><time>2026-04-12T08:29:30.999Z</time></trkpt><trkpt lat="42.285291582732036" lon="14.270979541459049"><ele>228.5</ele><time>2026-04-12T08:29:31.999Z</time></trkpt><trkpt lat="42.2852806482343" lon="14.270830101181664"><ele>231.25</ele><time>2026-04-12T08:29:32.999Z</time></trkpt><trkpt lat="42.28527063038733" lon="14.270671155460796"><ele>234.0</ele><time>2026-04-12T08:29:33.999Z</time></trkpt><trkpt lat="42.28525232421279" lon="14.270486528805439"><ele>236.25</ele><time>2026-04-12T08:29:34.999Z</time></trkpt><trkpt lat="42.28526138203747" lon="14.270287882710962"><ele>238.5</ele><time>2026-04-12T08:29:35.999Z</time></trkpt><trkpt lat="42.285270445041036" lon="14.2700773245755"><ele>240.75</ele><time>2026-04-12T08:29:36.999Z</time></trkpt><trkpt lat="42.28528591117408" lon="14.26989796273562"><ele>243.0</ele><time>2026-04-12T08:29:38Z</time></trkpt><trkpt lat="42.28533730745045" lon="14.269707324434796"><ele>245.66666666666669</ele><time>2026-04-12T08:29:39.001Z</time></trkpt><trkpt lat="42.28537450031945" lon="14.269500953866737"><ele>248.33333333333334</ele><time>2026-04-12T08:29:40Z</time></trkpt><trkpt lat="42.28542153423881" lon="14.26931431322123"><ele>251.0</ele><time>2026-04-12T08:29:41Z</time></trkpt><trkpt lat="42.28545823528381" lon="14.269097294820469"><ele>254.25</ele><time>2026-04-12T08:29:42.001Z</time></trkpt><trkpt lat="42.285513524258754" lon="14.268907157309174"><ele>257.5</ele><time>2026-04-12T08:29:43Z</time></trkpt><trkpt lat="42.28554293099134" lon="14.268720295797399"><ele>260.75</ele><time>2026-04-12T08:29:44Z</time></trkpt><trkpt lat="42.28556082976401" lon="14.26853431286479"><ele>264.0</ele><time>2026-04-12T08:29:45Z</time></trkpt><trkpt lat="42.28556431992099" lon="14.26836677805487"><ele>264.0</ele><time>2026-04-12T08:29:46Z</time></trkpt><trkpt lat="42.28558400644309" lon="14.268199584754635"><ele>264.0</ele><time>2026-04-12T08:29:47Z</time></trkpt><trkpt lat="42.28561488453163" lon="14.26810155317698"><ele>264.0</ele><time>2026-04-12T08:29:48Z</time></trkpt><trkpt lat="42.28558715030079" lon="14.268024019033573"><ele>264.0</ele><time>2026-04-12T08:29:51Z</time></trkpt><trkpt lat="42.28555368657475" lon="14.26787362184079"><ele>264.0</ele><time>2026-04-12T08:29:52Z</time></trkpt><trkpt lat="42.285502140851214" lon="14.26774420653167"><ele>267.75</ele><time>2026-04-12T08:29:53Z</time></trkpt><trkpt lat="42.285422580216924" lon="14.267594764720405"><ele>271.5</ele><time>2026-04-12T08:29:54Z</time></trkpt><trkpt lat="42.28533119477984" lon="14.267438377497703"><ele>275.25</ele><time>2026-04-12T08:29:55Z</time></trkpt><trkpt lat="42.28523918722403" lon="14.267301446538863"><ele>279.0</ele><time>2026-04-12T08:29:56Z</time></trkpt><trkpt lat="42.28514093475606" lon="14.267158149515131"><ele>280.2</ele><time>2026-04-12T08:29:57Z</time></trkpt><trkpt lat="42.285035429569625" lon="14.267023056465034"><ele>281.4</ele><time>2026-04-12T08:29:58Z</time></trkpt><trkpt lat="42.28493003944243" lon="14.266930577626086"><ele>282.6</ele><time>2026-04-12T08:29:59Z</time></trkpt><trkpt lat="42.28485645344462" lon="14.26685507628875"><ele>283.8</ele><time>2026-04-12T08:30:00Z</time></trkpt><trkpt lat="42.284809101106596" lon="14.266781903851225"><ele>285.0</ele><time>2026-04-12T08:30:01Z</time></trkpt><trkpt lat="42.28476030987343" lon="14.266705476254726"><ele>285.0</ele><time>2026-04-12T08:30:02Z</time></trkpt><trkpt lat="42.28474833482527" lon="14.266552592543448"><ele>285.0</ele><time>2026-04-12T08:30:04Z</time></trkpt><trkpt lat="42.28479282466224" lon="14.266441302342068"><ele>285.0</ele><time>2026-04-12T08:30:05Z</time></trkpt><trkpt lat="42.28486005535379" lon="14.266315178554462"><ele>285.0</ele><time>2026-04-12T08:30:06Z</time></trkpt><trkpt lat="42.28493803369806" lon="14.266184896415805"><ele>285.0</ele><time>2026-04-12T08:30:07Z</time></trkpt><trkpt lat="42.284993953187474" lon="14.266068153852911"><ele>284.8333333333333</ele><time>2026-04-12T08:30:08Z</time></trkpt><trkpt lat="42.28504446484976" lon="14.265975909437318"><ele>284.6666666666667</ele><time>2026-04-12T08:30:09Z</time></trkpt><trkpt lat="42.2850890064573" lon="14.265885690643168"><ele>284.5</ele><time>2026-04-12T08:30:10Z</time></trkpt><trkpt lat="42.285132940322015" lon="14.265798319682087"><ele>284.33333333333337</ele><time>2026-04-12T08:30:11Z</time></trkpt><trkpt lat="42.28518316721014" lon="14.265718926573172"><ele>284.1666666666667</ele><time>2026-04-12T08:30:12Z</time></trkpt><trkpt lat="42.285247729652816" lon="14.265628861094156"><ele>284.0</ele><time>2026-04-12T08:30:13Z</time></trkpt><trkpt lat="42.285311766959445" lon="14.265533869692916"><ele>282.6666666666667</ele><time>2026-04-12T08:30:14Z</time></trkpt><trkpt lat="42.28536978826128" lon="14.265446023268542"><ele>281.33333333333337</ele><time>2026-04-12T08:30:15Z</time></trkpt><trkpt lat="42.28541935515801" lon="14.265355126031068"><ele>280.0</ele><time>2026-04-12T08:30:16Z</time></trkpt><trkpt lat="42.285467996456056" lon="14.265268046833093"><ele>278.6666666666667</ele><time>2026-04-12T08:30:17Z</time></trkpt><trkpt lat="42.28552547871865" lon="14.265197513117037"><ele>277.3333333333333</ele><time>2026-04-12T08:30:18Z</time></trkpt><trkpt lat="42.28558419425529" lon="14.26513458638092"><ele>276.0</ele><time>2026-04-12T08:30:19Z</time></trkpt><trkpt lat="42.2856590279952" lon="14.265109677632074"><ele>274.2</ele><time>2026-04-12T08:30:20Z</time></trkpt><trkpt lat="42.28572310744799" lon="14.265074935179767"><ele>272.40000000000003</ele><time>2026-04-12T08:30:21Z</time></trkpt><trkpt lat="42.28579585924685" lon="14.264982057257681"><ele>270.6</ele><time>2026-04-12T08:30:23Z</time></trkpt><trkpt lat="42.285755561604844" lon="14.264813747128402"><ele>268.8</ele><time>2026-04-12T08:30:25Z</time></trkpt><trkpt lat="42.28571645123847" lon="14.264692749780469"><ele>267.0</ele><time>2026-04-12T08:30:26Z</time></trkpt><trkpt lat="42.28566261951436" lon="14.264548627302586"><ele>265.5</ele><time>2026-04-12T08:30:27Z</time></trkpt><trkpt lat="42.285598734508035" lon="14.264413767597828"><ele>264.0</ele><time>2026-04-12T08:30:28Z</time></trkpt><trkpt lat="42.28553061634103" lon="14.264289647700334"><ele>262.5</ele><time>2026-04-12T08:30:29Z</time></trkpt><trkpt lat="42.28546491931735" lon="14.26415976622505"><ele>261.0</ele><time>2026-04-12T08:30:30Z</time></trkpt><trkpt lat="42.285404273166314" lon="14.264024902285122"><ele>260.6</ele><time>2026-04-12T08:30:31Z</time></trkpt><trkpt lat="42.285340955536114" lon="14.263887504599138"><ele>260.20000000000005</ele><time>2026-04-12T08:30:32Z</time></trkpt><trkpt lat="42.28528005739012" lon="14.263749509079794"><ele>259.79999999999995</ele><time>2026-04-12T08:30:33Z</time></trkpt><trkpt lat="42.28523411428337" lon="14.263623644532869"><ele>259.4</ele><time>2026-04-12T08:30:34Z</time></trkpt><trkpt lat="42.28520867772146" lon="14.263497969192827"><ele>259.0</ele><time>2026-04-12T08:30:35Z</time></trkpt><trkpt lat="42.285202528817095" lon="14.263354762514409"><ele>259.0</ele><time>2026-04-12T08:30:36Z</time></trkpt><trkpt lat="42.285252212377785" lon="14.263211132953572"><ele>259.0</ele><time>2026-04-12T08:30:37Z</time></trkpt><trkpt lat="42.2852754846016" lon="14.26306115114066"><ele>259.0</ele><time>2026-04-12T08:30:38Z</time></trkpt><trkpt lat="42.28531204482341" lon="14.262947501682705"><ele>259.0</ele><time>2026-04-12T08:30:39Z</time></trkpt><trkpt lat="42.28531860304445" lon="14.262834533347124"><ele>259.0</ele><time>2026-04-12T08:30:40Z</time></trkpt><trkpt lat="42.28529092925955" lon="14.262710920127118"><ele>258.0</ele><time>2026-04-12T08:30:41Z</time></trkpt><trkpt lat="42.28524216719262" lon="14.262578732256955"><ele>257.0</ele><time>2026-04-12T08:30:42Z</time></trkpt><trkpt lat="42.285161179609595" lon="14.262436307247034"><ele>256.0</ele><time>2026-04-12T08:30:43Z</time></trkpt><trkpt lat="42.28508279757003" lon="14.262298165368204"><ele>255.0</ele><time>2026-04-12T08:30:44Z</time></trkpt><trkpt lat="42.28501279069601" lon="14.262159144877826"><ele>256.75</ele><time>2026-04-12T08:30:45Z</time></trkpt><trkpt lat="42.28494008710902" lon="14.262016674810734"><ele>258.5</ele><time>2026-04-12T08:30:46Z</time></trkpt><trkpt lat="42.28486338983563" lon="14.26186711971269"><ele>260.25</ele><time>2026-04-12T08:30:47Z</time></trkpt><trkpt lat="42.28478775319992" lon="14.2617176399967"><ele>262.0</ele><time>2026-04-12T08:30:48Z</time></trkpt><trkpt lat="42.28472062189243" lon="14.261587034075843"><ele>262.0</ele><time>2026-04-12T08:30:49Z</time></trkpt><trkpt lat="42.2846562585432" lon="14.261457437970778"><ele>262.0</ele><time>2026-04-12T08:30:50Z</time></trkpt><trkpt lat="42.284596135062785" lon="14.261326747774465"><ele>262.0</ele><time>2026-04-12T08:30:50.999Z</time></trkpt><trkpt lat="42.284548783677074" lon="14.261202862353999"><ele>262.0</ele><time>2026-04-12T08:30:51.999Z</time></trkpt><trkpt lat="42.284515690247375" lon="14.261074610241996"><ele>262.0</ele><time>2026-04-12T08:30:52.999Z</time></trkpt><trkpt lat="42.28450572477617" lon="14.260945896422507"><ele>259.6</ele><time>2026-04-12T08:30:53.999Z</time></trkpt><trkpt lat="42.28453598939386" lon="14.260821870047858"><ele>257.2</ele><time>2026-04-12T08:30:54.999Z</time></trkpt><trkpt lat="42.28460037493681" lon="14.260731993939988"><ele>254.8</ele><time>2026-04-12T08:30:55.999Z</time></trkpt><trkpt lat="42.28469502113945" lon="14.260684510029872"><ele>252.4</ele><time>2026-04-12T08:30:56.999Z</time></trkpt><trkpt lat="42.284807244116465" lon="14.260668575244384"><ele>250.0</ele><time>2026-04-12T08:30:57.999Z</time></trkpt><trkpt lat="42.28494761563378" lon="14.260621536693437"><ele>248.75</ele><time>2026-04-12T08:30:58.999Z</time></trkpt><trkpt lat="42.285097738295505" lon="14.26061468942737"><ele>247.5</ele><time>2026-04-12T08:30:59.999Z</time></trkpt><trkpt lat="42.2852475249526" lon="14.260595272467466"><ele>246.25</ele><time>2026-04-12T08:31:00.999Z</time></trkpt><trkpt lat="42.285379745504784" lon="14.260572540243162"><ele>245.0</ele><time>2026-04-12T08:31:01.999Z</time></trkpt><trkpt lat="42.28549527533156" lon="14.260561625374324"><ele>244.75</ele><time>2026-04-12T08:31:02.999Z</time></trkpt><trkpt lat="42.28562021371812" lon="14.26054373420181"><ele>244.5</ele><time>2026-04-12T08:31:03.999Z</time></trkpt><trkpt lat="42.28575103089426" lon="14.26053679811381"><ele>244.25</ele><time>2026-04-12T08:31:04.999Z</time></trkpt><trkpt lat="42.28588450461415" lon="14.260557705264835"><ele>244.0</ele><time>2026-04-12T08:31:05.999Z</time></trkpt><trkpt lat="42.286002617126464" lon="14.260633569077612"><ele>244.0</ele><time>2026-04-12T08:31:06.999Z</time></trkpt><trkpt lat="42.28612910052905" lon="14.260693281613111"><ele>244.0</ele><time>2026-04-12T08:31:07.999Z</time></trkpt><trkpt lat="42.286256837744915" lon="14.26072814415547"><ele>244.0</ele><time>2026-04-12T08:31:08.999Z</time></trkpt><trkpt lat="42.286381557310136" lon="14.260752642887732"><ele>244.0</ele><time>2026-04-12T08:31:09.999Z</time></trkpt><trkpt lat="42.28651167685413" lon="14.260768230916753"><ele>244.79999999999998</ele><time>2026-04-12T08:31:10.999Z</time></trkpt><trkpt lat="42.28663139192874" lon="14.260731731582675"><ele>245.59999999999997</ele><time>2026-04-12T08:31:11.999Z</time></trkpt><trkpt lat="42.28672943433214" lon="14.26069288230915"><ele>246.4</ele><time>2026-04-12T08:31:12.999Z</time></trkpt><trkpt lat="42.28681332441516" lon="14.26063406275223"><ele>247.2</ele><time>2026-04-12T08:31:13.999Z</time></trkpt><trkpt lat="42.286885425290585" lon="14.260550320378847"><ele>248.0</ele><time>2026-04-12T08:31:14.999Z</time></trkpt><trkpt lat="42.28692868231787" lon="14.260434551492594"><ele>250.50000000000003</ele><time>2026-04-12T08:31:15.999Z</time></trkpt><trkpt lat="42.286936447753305" lon="14.260302219971901"><ele>253.0</ele><time>2026-04-12T08:31:16.999Z</time></trkpt><trkpt lat="42.28690897645069" lon="14.260174383742308"><ele>255.5</ele><time>2026-04-12T08:31:17.999Z</time></trkpt><trkpt lat="42.286881053536646" lon="14.260084897377977"><ele>258.0</ele><time>2026-04-12T08:31:18.999Z</time></trkpt><trkpt lat="42.286847196119076" lon="14.260005891329342"><ele>260.5</ele><time>2026-04-12T08:31:19.999Z</time></trkpt><trkpt lat="42.28680462912275" lon="14.259916254064478"><ele>263.0</ele><time>2026-04-12T08:31:20.999Z</time></trkpt><trkpt lat="42.286746161808196" lon="14.259823453435677"><ele>264.25</ele><time>2026-04-12T08:31:21.999Z</time></trkpt><trkpt lat="42.28667369754994" lon="14.259692097706225"><ele>265.5</ele><time>2026-04-12T08:31:22.999Z</time></trkpt><trkpt lat="42.28656314245646" lon="14.259578730732631"><ele>266.75</ele><time>2026-04-12T08:31:23.999Z</time></trkpt><trkpt lat="42.28642421516064" lon="14.259492878558397"><ele>268.0</ele><time>2026-04-12T08:31:24.999Z</time></trkpt><trkpt lat="42.28627763951155" lon="14.259402677824454"><ele>268.0</ele><time>2026-04-12T08:31:25.999Z</time></trkpt><trkpt lat="42.28613072711396" lon="14.259317752487785"><ele>268.0</ele><time>2026-04-12T08:31:26.999Z</time></trkpt><trkpt lat="42.28598539002401" lon="14.259216067502766"><ele>268.0</ele><time>2026-04-12T08:31:27.999Z</time></trkpt><trkpt lat="42.28584321132972" lon="14.259088543288298"><ele>272.0</ele><time>2026-04-12T08:31:28.999Z</time></trkpt><trkpt lat="42.28574430757225" lon="14.258926238920456"><ele>276.0</ele><time>2026-04-12T08:31:29.999Z</time></trkpt><trkpt lat="42.28566305403438" lon="14.25880603247829"><ele>280.0</ele><time>2026-04-12T08:31:30.999Z</time></trkpt><trkpt lat="42.28561958497488" lon="14.258675476806125"><ele>284.0</ele><time>2026-04-12T08:31:31.999Z</time></trkpt><trkpt lat="42.28562101639046" lon="14.258564275039003"><ele>284.0</ele><time>2026-04-12T08:31:32.999Z</time></trkpt><trkpt lat="42.28566183717535" lon="14.258464554261998"><ele>284.0</ele><time>2026-04-12T08:31:33.999Z</time></trkpt><trkpt lat="42.285730916251346" lon="14.258376281222517"><ele>284.0</ele><time>2026-04-12T08:31:34.999Z</time></trkpt><trkpt lat="42.28584406772411" lon="14.25835399918674"><ele>284.0</ele><time>2026-04-12T08:31:35.999Z</time></trkpt><trkpt lat="42.28595145875649" lon="14.258368358910552"><ele>284.0</ele><time>2026-04-12T08:31:36.999Z</time></trkpt><trkpt lat="42.286053035454835" lon="14.258433212630624"><ele>284.0</ele><time>2026-04-12T08:31:37.999Z</time></trkpt><trkpt lat="42.28616346908115" lon="14.258521676876462"><ele>284.0</ele><time>2026-04-12T08:31:38.999Z</time></trkpt><trkpt lat="42.28627615136325" lon="14.258601437942223"><ele>284.0</ele><time>2026-04-12T08:31:39.999Z</time></trkpt><trkpt lat="42.28638728089919" lon="14.258708640587423"><ele>284.0</ele><time>2026-04-12T08:31:40.999Z</time></trkpt><trkpt lat="42.286522004761714" lon="14.25880908745574"><ele>285.33333333333337</ele><time>2026-04-12T08:31:41.999Z</time></trkpt><trkpt lat="42.286673068597146" lon="14.25890679351096"><ele>286.6666666666667</ele><time>2026-04-12T08:31:42.999Z</time></trkpt><trkpt lat="42.28684018624013" lon="14.259008538823899"><ele>288.0</ele><time>2026-04-12T08:31:44Z</time></trkpt><trkpt lat="42.287005740556054" lon="14.259110226000994"><ele>287.6666666666667</ele><time>2026-04-12T08:31:45Z</time></trkpt><trkpt lat="42.28717517144062" lon="14.259207948923562"><ele>287.33333333333337</ele><time>2026-04-12T08:31:46Z</time></trkpt><trkpt lat="42.28732998022441" lon="14.259296448388218"><ele>287.0</ele><time>2026-04-12T08:31:47Z</time></trkpt><trkpt lat="42.2874716861106" lon="14.25936800363081"><ele>287.0</ele><time>2026-04-12T08:31:48Z</time></trkpt><trkpt lat="42.28761856405349" lon="14.259415489908422"><ele>287.0</ele><time>2026-04-12T08:31:49Z</time></trkpt><trkpt lat="42.28775939168157" lon="14.259409333227628"><ele>287.0</ele><time>2026-04-12T08:31:50Z</time></trkpt><trkpt lat="42.28791617944147" lon="14.259355161918238"><ele>287.0</ele><time>2026-04-12T08:31:51Z</time></trkpt><trkpt lat="42.28806993432129" lon="14.259267887784882"><ele>287.0</ele><time>2026-04-12T08:31:52Z</time></trkpt><trkpt lat="42.28820473781479" lon="14.259171574692461"><ele>287.0</ele><time>2026-04-12T08:31:53Z</time></trkpt><trkpt lat="42.288312416976645" lon="14.25907855011271"><ele>287.0</ele><time>2026-04-12T08:31:54Z</time></trkpt><trkpt lat="42.28840854951513" lon="14.258957790483041"><ele>291.0</ele><time>2026-04-12T08:31:55Z</time></trkpt><trkpt lat="42.28851930063601" lon="14.25881711100308"><ele>295.0</ele><time>2026-04-12T08:31:56Z</time></trkpt><trkpt lat="42.28863816560081" lon="14.258670980493875"><ele>299.0</ele><time>2026-04-12T08:31:57Z</time></trkpt><trkpt lat="42.28875827406463" lon="14.25853470222947"><ele>299.0</ele><time>2026-04-12T08:31:58Z</time></trkpt><trkpt lat="42.28885673604255" lon="14.258413734448826"><ele>299.0</ele><time>2026-04-12T08:31:59Z</time></trkpt><trkpt lat="42.288940249463714" lon="14.258301055414709"><ele>299.0</ele><time>2026-04-12T08:32:00Z</time></trkpt><trkpt lat="42.28900302807642" lon="14.258191793104368"><ele>299.0</ele><time>2026-04-12T08:32:01Z</time></trkpt><trkpt lat="42.289051693029755" lon="14.258096795460371"><ele>299.0</ele><time>2026-04-12T08:32:02Z</time></trkpt><trkpt lat="42.28910179814324" lon="14.258037252821145"><ele>298.4</ele><time>2026-04-12T08:32:03Z</time></trkpt><trkpt lat="42.289164896704676" lon="14.25799354383515"><ele>297.79999999999995</ele><time>2026-04-12T08:32:05Z</time></trkpt><trkpt lat="42.28910782714897" lon="14.257853302826028"><ele>297.20000000000005</ele><time>2026-04-12T08:32:12Z</time></trkpt><trkpt lat="42.28901631198302" lon="14.257782859485994"><ele>296.6</ele><time>2026-04-12T08:32:13Z</time></trkpt><trkpt lat="42.2889472054222" lon="14.257685712884301"><ele>296.0</ele><time>2026-04-12T08:32:14Z</time></trkpt><trkpt lat="42.288843318003394" lon="14.25760030219103"><ele>297.5</ele><time>2026-04-12T08:32:15Z</time></trkpt><trkpt lat="42.288742145006196" lon="14.257484845246049"><ele>299.0</ele><time>2026-04-12T08:32:16Z</time></trkpt><trkpt lat="42.288639316601014" lon="14.25736781332646"><ele>300.5</ele><time>2026-04-12T08:32:17Z</time></trkpt><trkpt lat="42.28853994486186" lon="14.25726040593042"><ele>302.0</ele><time>2026-04-12T08:32:18Z</time></trkpt><trkpt lat="42.28844102095134" lon="14.257160327135935"><ele>302.0</ele><time>2026-04-12T08:32:19Z</time></trkpt><trkpt lat="42.288318493407836" lon="14.25707113929287"><ele>302.0</ele><time>2026-04-12T08:32:20Z</time></trkpt><trkpt lat="42.288169901432276" lon="14.256995740112023"><ele>302.0</ele><time>2026-04-12T08:32:21Z</time></trkpt><trkpt lat="42.288012875369894" lon="14.256895283194527"><ele>303.0</ele><time>2026-04-12T08:32:22Z</time></trkpt><trkpt lat="42.28784411152567" lon="14.256808655771703"><ele>304.0</ele><time>2026-04-12T08:32:23Z</time></trkpt><trkpt lat="42.28768228809278" lon="14.25672453566289"><ele>305.0</ele><time>2026-04-12T08:32:24Z</time></trkpt><trkpt lat="42.28751110054825" lon="14.256650909804607"><ele>305.0</ele><time>2026-04-12T08:32:25Z</time></trkpt><trkpt lat="42.28734284118055" lon="14.256536545197909"><ele>305.0</ele><time>2026-04-12T08:32:26Z</time></trkpt><trkpt lat="42.28717971861464" lon="14.256393316452868"><ele>305.0</ele><time>2026-04-12T08:32:27Z</time></trkpt><trkpt lat="42.28702051824457" lon="14.25622672298491"><ele>306.6666666666667</ele><time>2026-04-12T08:32:28Z</time></trkpt><trkpt lat="42.28685985825506" lon="14.256057223660592"><ele>308.3333333333333</ele><time>2026-04-12T08:32:29Z</time></trkpt><trkpt lat="42.286699782139124" lon="14.255893006678814"><ele>310.0</ele><time>2026-04-12T08:32:30Z</time></trkpt><trkpt lat="42.28655469789201" lon="14.255751063969461"><ele>311.0</ele><time>2026-04-12T08:32:31Z</time></trkpt><trkpt lat="42.28640040454103" lon="14.255599433874755"><ele>312.0</ele><time>2026-04-12T08:32:32Z</time></trkpt><trkpt lat="42.28623992139144" lon="14.25544846963821"><ele>313.0</ele><time>2026-04-12T08:32:33Z</time></trkpt><trkpt lat="42.28606901937857" lon="14.255309135282493"><ele>313.0</ele><time>2026-04-12T08:32:34Z</time></trkpt><trkpt lat="42.285888308648154" lon="14.255186025554286"><ele>313.0</ele><time>2026-04-12T08:32:35Z</time></trkpt><trkpt lat="42.285706071909786" lon="14.255062835497073"><ele>313.0</ele><time>2026-04-12T08:32:36Z</time></trkpt><trkpt lat="42.28552502701554" lon="14.254934293615579"><ele>313.0</ele><time>2026-04-12T08:32:37Z</time></trkpt><trkpt lat="42.28534317330123" lon="14.254806694291844"><ele>313.0</ele><time>2026-04-12T08:32:38Z</time></trkpt><trkpt lat="42.28516023530189" lon="14.254672422919743"><ele>313.0</ele><time>2026-04-12T08:32:39Z</time></trkpt><trkpt lat="42.28497834614335" lon="14.254545073050265"><ele>313.3333333333333</ele><time>2026-04-12T08:32:40Z</time></trkpt><trkpt lat="42.28479297711115" lon="14.254418574312073"><ele>313.6666666666667</ele><time>2026-04-12T08:32:41Z</time></trkpt><trkpt lat="42.284609873713144" lon="14.25429749781603"><ele>314.0</ele><time>2026-04-12T08:32:42Z</time></trkpt><trkpt lat="42.28444476979555" lon="14.254193030902163"><ele>314.0</ele><time>2026-04-12T08:32:43Z</time></trkpt><trkpt lat="42.28428185766942" lon="14.254098499588924"><ele>314.0</ele><time>2026-04-12T08:32:44Z</time></trkpt><trkpt lat="42.284131380338145" lon="14.25402962216055"><ele>314.0</ele><time>2026-04-12T08:32:45Z</time></trkpt><trkpt lat="42.28399315518156" lon="14.253970546721094"><ele>314.0</ele><time>2026-04-12T08:32:46Z</time></trkpt><trkpt lat="42.28387577658518" lon="14.253900910544232"><ele>314.0</ele><time>2026-04-12T08:32:47Z</time></trkpt><trkpt lat="42.28376705768932" lon="14.25383941316511"><ele>314.0</ele><time>2026-04-12T08:32:48Z</time></trkpt><trkpt lat="42.28365755362372" lon="14.25378302745256"><ele>314.0</ele><time>2026-04-12T08:32:49Z</time></trkpt><trkpt lat="42.283558522496335" lon="14.253701924502815"><ele>314.0</ele><time>2026-04-12T08:32:50Z</time></trkpt><trkpt lat="42.283452386975426" lon="14.253634666338543"><ele>314.0</ele><time>2026-04-12T08:32:51Z</time></trkpt><trkpt lat="42.28334985639836" lon="14.253591493993907"><ele>314.0</ele><time>2026-04-12T08:32:52Z</time></trkpt><trkpt lat="42.28325095076074" lon="14.253521691553429"><ele>314.0</ele><time>2026-04-12T08:32:53Z</time></trkpt><trkpt lat="42.28313380336861" lon="14.253450597325912"><ele>313.33333333333337</ele><time>2026-04-12T08:32:53.999Z</time></trkpt><trkpt lat="42.283000374296705" lon="14.253383663547297"><ele>312.6666666666667</ele><time>2026-04-12T08:32:54.999Z</time></trkpt><trkpt lat="42.2828459593489" lon="14.253277844124243"><ele>312.0</ele><time>2026-04-12T08:32:55.999Z</time></trkpt><trkpt lat="42.28268007400044" lon="14.25318708881886"><ele>312.3333333333333</ele><time>2026-04-12T08:32:56.999Z</time></trkpt><trkpt lat="42.28250982651248" lon="14.253102252843894"><ele>312.66666666666663</ele><time>2026-04-12T08:32:57.999Z</time></trkpt><trkpt lat="42.28231790054835" lon="14.253036069774533"><ele>313.0</ele><time>2026-04-12T08:32:58.999Z</time></trkpt><trkpt lat="42.2821323663539" lon="14.252952205885169"><ele>313.0</ele><time>2026-04-12T08:32:59.999Z</time></trkpt><trkpt lat="42.28194623289235" lon="14.252871849477522"><ele>313.0</ele><time>2026-04-12T08:33:00.999Z</time></trkpt><trkpt lat="42.28175358284959" lon="14.252792572262706"><ele>313.0</ele><time>2026-04-12T08:33:01.999Z</time></trkpt><trkpt lat="42.2815546968312" lon="14.252725339739753"><ele>314.0</ele><time>2026-04-12T08:33:02.999Z</time></trkpt><trkpt lat="42.281358067223664" lon="14.252635454726146"><ele>315.0</ele><time>2026-04-12T08:33:03.999Z</time></trkpt><trkpt lat="42.28115570141373" lon="14.252557413867676"><ele>316.0</ele><time>2026-04-12T08:33:04.999Z</time></trkpt><trkpt lat="42.28095356079652" lon="14.252477737107355"><ele>316.0</ele><time>2026-04-12T08:33:05.999Z</time></trkpt><trkpt lat="42.28074932357942" lon="14.25240060143241"><ele>316.0</ele><time>2026-04-12T08:33:06.999Z</time></trkpt><trkpt lat="42.2805460518012" lon="14.252320357157826"><ele>316.0</ele><time>2026-04-12T08:33:07.999Z</time></trkpt><trkpt lat="42.28034112583792" lon="14.252232936105342"><ele>316.0</ele><time>2026-04-12T08:33:08.999Z</time></trkpt><trkpt lat="42.280135117489245" lon="14.252144280615898"><ele>316.0</ele><time>2026-04-12T08:33:09.999Z</time></trkpt><trkpt lat="42.2799320455788" lon="14.252046290119381"><ele>316.0</ele><time>2026-04-12T08:33:10.999Z</time></trkpt><trkpt lat="42.279730579177375" lon="14.251939610473595"><ele>317.0</ele><time>2026-04-12T08:33:11.999Z</time></trkpt><trkpt lat="42.27952978256106" lon="14.251831376183091"><ele>318.0</ele><time>2026-04-12T08:33:12.999Z</time></trkpt><trkpt lat="42.27932871930331" lon="14.251722116372887"><ele>319.0</ele><time>2026-04-12T08:33:13.999Z</time></trkpt><trkpt lat="42.27912807943871" lon="14.251614347405768"><ele>320.0</ele><time>2026-04-12T08:33:14.999Z</time></trkpt><trkpt lat="42.27892755933034" lon="14.251517170447926"><ele>321.0</ele><time>2026-04-12T08:33:15.999Z</time></trkpt><trkpt lat="42.27872516423305" lon="14.251434146976262"><ele>322.0</ele><time>2026-04-12T08:33:16.999Z</time></trkpt><trkpt lat="42.27851943496215" lon="14.251355052125225"><ele>322.3333333333333</ele><time>2026-04-12T08:33:17.999Z</time></trkpt><trkpt lat="42.278311462268924" lon="14.251279031783804"><ele>322.6666666666667</ele><time>2026-04-12T08:33:18.999Z</time></trkpt><trkpt lat="42.27810479357585" lon="14.251201847948726"><ele>323.0</ele><time>2026-04-12T08:33:19.999Z</time></trkpt><trkpt lat="42.2778958025082" lon="14.251124292845653"><ele>324.33333333333337</ele><time>2026-04-12T08:33:20.999Z</time></trkpt><trkpt lat="42.2776876444674" lon="14.251044662178831"><ele>325.6666666666667</ele><time>2026-04-12T08:33:21.999Z</time></trkpt><trkpt lat="42.27748242456698" lon="14.250972077607457"><ele>327.0</ele><time>2026-04-12T08:33:22.999Z</time></trkpt><trkpt lat="42.27730300028476" lon="14.250920569653717"><ele>328.0</ele><time>2026-04-12T08:33:23.999Z</time></trkpt><trkpt lat="42.27713718800355" lon="14.250892068747817"><ele>329.0</ele><time>2026-04-12T08:33:24.999Z</time></trkpt><trkpt lat="42.27699258749193" lon="14.250881194020629"><ele>330.0</ele><time>2026-04-12T08:33:25.999Z</time></trkpt><trkpt lat="42.27687150064421" lon="14.250856672725025"><ele>331.0</ele><time>2026-04-12T08:33:26.999Z</time></trkpt><trkpt lat="42.27677591447564" lon="14.250770264302327"><ele>331.0</ele><time>2026-04-12T08:33:27.999Z</time></trkpt><trkpt lat="42.27666028533314" lon="14.250662399093196"><ele>331.0</ele><time>2026-04-12T08:33:28.999Z</time></trkpt><trkpt lat="42.276528562243676" lon="14.250555503095832"><ele>331.0</ele><time>2026-04-12T08:33:29.999Z</time></trkpt><trkpt lat="42.276409081337775" lon="14.250414344173906"><ele>330.5</ele><time>2026-04-12T08:33:30.999Z</time></trkpt><trkpt lat="42.27632528979585" lon="14.250252426185437"><ele>330.0</ele><time>2026-04-12T08:33:31.999Z</time></trkpt><trkpt lat="42.27625030418728" lon="14.250108492096656"><ele>329.5</ele><time>2026-04-12T08:33:32.999Z</time></trkpt><trkpt lat="42.276184795156965" lon="14.249965651564032"><ele>329.0</ele><time>2026-04-12T08:33:33.999Z</time></trkpt><trkpt lat="42.276116863456664" lon="14.249836659944279"><ele>327.0</ele><time>2026-04-12T08:33:34.999Z</time></trkpt><trkpt lat="42.27602827135897" lon="14.249728139784832"><ele>325.0</ele><time>2026-04-12T08:33:35.999Z</time></trkpt><trkpt lat="42.27590168966555" lon="14.24964319000359"><ele>323.0</ele><time>2026-04-12T08:33:36.999Z</time></trkpt><trkpt lat="42.27574615867935" lon="14.249576025586355"><ele>321.0</ele><time>2026-04-12T08:33:37.999Z</time></trkpt><trkpt lat="42.275599766292466" lon="14.24948907552648"><ele>321.0</ele><time>2026-04-12T08:33:38.999Z</time></trkpt><trkpt lat="42.275451599909985" lon="14.249428860832085"><ele>321.0</ele><time>2026-04-12T08:33:39.999Z</time></trkpt><trkpt lat="42.275327127308095" lon="14.249330754205946"><ele>321.0</ele><time>2026-04-12T08:33:40.999Z</time></trkpt><trkpt lat="42.27521929449488" lon="14.249219949798446"><ele>321.0</ele><time>2026-04-12T08:33:41.999Z</time></trkpt><trkpt lat="42.27509829372485" lon="14.249132542913348"><ele>321.0</ele><time>2026-04-12T08:33:42.999Z</time></trkpt><trkpt lat="42.2749531375448" lon="14.24906245431715"><ele>321.0</ele><time>2026-04-12T08:33:43.999Z</time></trkpt><trkpt lat="42.27480839238052" lon="14.248967290824591"><ele>321.0</ele><time>2026-04-12T08:33:44.999Z</time></trkpt><trkpt lat="42.274657442519576" lon="14.248889666521265"><ele>312.6666666666667</ele><time>2026-04-12T08:33:45.999Z</time></trkpt><trkpt lat="42.27450049873266" lon="14.248812424857295"><ele>304.33333333333337</ele><time>2026-04-12T08:33:46.999Z</time></trkpt><trkpt lat="42.274340624349676" lon="14.248740614290055"><ele>296.0</ele><time>2026-04-12T08:33:47.999Z</time></trkpt><trkpt lat="42.2741831522776" lon="14.24867535371817"><ele>296.0</ele><time>2026-04-12T08:33:48.999Z</time></trkpt><trkpt lat="42.27403255586347" lon="14.248599354114148"><ele>296.0</ele><time>2026-04-12T08:33:50Z</time></trkpt><trkpt lat="42.273880853704654" lon="14.248530743932065"><ele>296.0</ele><time>2026-04-12T08:33:51Z</time></trkpt><trkpt lat="42.27373722951708" lon="14.248426386596362"><ele>300.0</ele><time>2026-04-12T08:33:52Z</time></trkpt><trkpt lat="42.27359377283439" lon="14.248314435947327"><ele>304.0</ele><time>2026-04-12T08:33:53Z</time></trkpt><trkpt lat="42.27345305350608" lon="14.248197754394058"><ele>308.0</ele><time>2026-04-12T08:33:54Z</time></trkpt><trkpt lat="42.27334064119877" lon="14.248081029238639"><ele>307.25</ele><time>2026-04-12T08:33:55Z</time></trkpt><trkpt lat="42.27323515339375" lon="14.247953931393084"><ele>306.5</ele><time>2026-04-12T08:33:56Z</time></trkpt><trkpt lat="42.27316445539697" lon="14.247782084151375"><ele>305.75</ele><time>2026-04-12T08:33:57Z</time></trkpt><trkpt lat="42.27311213444927" lon="14.247600653974693"><ele>305.0</ele><time>2026-04-12T08:33:58Z</time></trkpt><trkpt lat="42.273064089604" lon="14.24739589209381"><ele>297.6666666666667</ele><time>2026-04-12T08:33:59Z</time></trkpt><trkpt lat="42.273027365813924" lon="14.247180059197406"><ele>290.3333333333333</ele><time>2026-04-12T08:34:00Z</time></trkpt><trkpt lat="42.27299379115381" lon="14.246963536840289"><ele>283.0</ele><time>2026-04-12T08:34:01Z</time></trkpt><trkpt lat="42.27296344300503" lon="14.246767822130028"><ele>283.0</ele><time>2026-04-12T08:34:02Z</time></trkpt><trkpt lat="42.27293092717546" lon="14.246590949635461"><ele>283.0</ele><time>2026-04-12T08:34:03Z</time></trkpt><trkpt lat="42.27288897012969" lon="14.246441839170819"><ele>283.0</ele><time>2026-04-12T08:34:04Z</time></trkpt><trkpt lat="42.272875628378735" lon="14.24630950273965"><ele>283.0</ele><time>2026-04-12T08:34:05Z</time></trkpt><trkpt lat="42.27287057602023" lon="14.24621032309834"><ele>283.0</ele><time>2026-04-12T08:34:06Z</time></trkpt><trkpt lat="42.272894003001475" lon="14.246090721134326"><ele>281.4</ele><time>2026-04-12T08:34:08Z</time></trkpt><trkpt lat="42.27284195340912" lon="14.24602591482461"><ele>279.8</ele><time>2026-04-12T08:34:09Z</time></trkpt><trkpt lat="42.27278398354763" lon="14.245917452428149"><ele>278.2</ele><time>2026-04-12T08:34:11Z</time></trkpt><trkpt lat="42.272694571196695" lon="14.245756454932453"><ele>276.6</ele><time>2026-04-12T08:34:13Z</time></trkpt><trkpt lat="42.27262592961926" lon="14.24567357475612"><ele>275.0</ele><time>2026-04-12T08:34:14Z</time></trkpt><trkpt lat="42.27255612522407" lon="14.245550480576673"><ele>275.0</ele><time>2026-04-12T08:34:15Z</time></trkpt><trkpt lat="42.27249422991372" lon="14.245395574604157"><ele>275.0</ele><time>2026-04-12T08:34:16Z</time></trkpt><trkpt lat="42.27242408291461" lon="14.245251656030183"><ele>275.0</ele><time>2026-04-12T08:34:17Z</time></trkpt><trkpt lat="42.27235243609465" lon="14.245101391927939"><ele>275.0</ele><time>2026-04-12T08:34:18Z</time></trkpt><trkpt lat="42.27227332785922" lon="14.24494306510564"><ele>275.25</ele><time>2026-04-12T08:34:19Z</time></trkpt><trkpt lat="42.272179886129805" lon="14.24479731894966"><ele>275.5</ele><time>2026-04-12T08:34:20Z</time></trkpt><trkpt lat="42.272092597010236" lon="14.244647300996887"><ele>275.75</ele><time>2026-04-12T08:34:21Z</time></trkpt><trkpt lat="42.271980811879224" lon="14.244501131138732"><ele>276.0</ele><time>2026-04-12T08:34:22Z</time></trkpt><trkpt lat="42.27184980438456" lon="14.244392045860632"><ele>277.25</ele><time>2026-04-12T08:34:23Z</time></trkpt><trkpt lat="42.271718883732646" lon="14.244332840367901"><ele>278.5</ele><time>2026-04-12T08:34:24Z</time></trkpt><trkpt lat="42.2715718080518" lon="14.244300987612018"><ele>279.75</ele><time>2026-04-12T08:34:25Z</time></trkpt><trkpt lat="42.27141293921228" lon="14.244284060618371"><ele>281.0</ele><time>2026-04-12T08:34:26Z</time></trkpt><trkpt lat="42.271279831186476" lon="14.244218205943698"><ele>281.0</ele><time>2026-04-12T08:34:27Z</time></trkpt><trkpt lat="42.271160313115665" lon="14.24413556590875"><ele>281.0</ele><time>2026-04-12T08:34:28Z</time></trkpt><trkpt lat="42.27101786354734" lon="14.244046173549394"><ele>281.0</ele><time>2026-04-12T08:34:29Z</time></trkpt><trkpt lat="42.27088137874481" lon="14.243917448754377"><ele>283.33333333333337</ele><time>2026-04-12T08:34:30Z</time></trkpt><trkpt lat="42.27072623458788" lon="14.243807064859425"><ele>285.6666666666667</ele><time>2026-04-12T08:34:31Z</time></trkpt><trkpt lat="42.270576325502525" lon="14.243707498894505"><ele>288.0</ele><time>2026-04-12T08:34:32Z</time></trkpt><trkpt lat="42.27045638387465" lon="14.243539189923313"><ele>288.0</ele><time>2026-04-12T08:34:33Z</time></trkpt><trkpt lat="42.27031892615182" lon="14.243391136344362"><ele>288.0</ele><time>2026-04-12T08:34:34Z</time></trkpt><trkpt lat="42.27018337483736" lon="14.243217833923474"><ele>288.0</ele><time>2026-04-12T08:34:35Z</time></trkpt><trkpt lat="42.27003602269814" lon="14.243049305686947"><ele>289.6666666666667</ele><time>2026-04-12T08:34:36Z</time></trkpt><trkpt lat="42.26987612245734" lon="14.242892562908667"><ele>291.33333333333337</ele><time>2026-04-12T08:34:37Z</time></trkpt><trkpt lat="42.26971197566381" lon="14.24273628062385"><ele>293.0</ele><time>2026-04-12T08:34:38Z</time></trkpt><trkpt lat="42.2695435576204" lon="14.242580369144855"><ele>293.0</ele><time>2026-04-12T08:34:39Z</time></trkpt><trkpt lat="42.269406310042534" lon="14.242426595194845"><ele>293.0</ele><time>2026-04-12T08:34:40Z</time></trkpt><trkpt lat="42.26927716386527" lon="14.242311926930862"><ele>293.0</ele><time>2026-04-12T08:34:41Z</time></trkpt><trkpt lat="42.26916432901944" lon="14.242193447492541"><ele>295.0</ele><time>2026-04-12T08:34:42Z</time></trkpt><trkpt lat="42.26908613997185" lon="14.242039468364998"><ele>297.0</ele><time>2026-04-12T08:34:43Z</time></trkpt><trkpt lat="42.26900769870255" lon="14.24187688981997"><ele>299.0</ele><time>2026-04-12T08:34:44Z</time></trkpt><trkpt lat="42.268920094664196" lon="14.241724506761646"><ele>301.0</ele><time>2026-04-12T08:34:45Z</time></trkpt><trkpt lat="42.26887854583626" lon="14.241582009818902"><ele>301.25</ele><time>2026-04-12T08:34:46Z</time></trkpt><trkpt lat="42.268844822438325" lon="14.241495201040228"><ele>301.5</ele><time>2026-04-12T08:34:47Z</time></trkpt><trkpt lat="42.2687835770346" lon="14.241337537750438"><ele>301.75</ele><time>2026-04-12T08:34:49Z</time></trkpt><trkpt lat="42.268737867846056" lon="14.241243465452987"><ele>302.0</ele><time>2026-04-12T08:34:50Z</time></trkpt><trkpt lat="42.26833196508811" lon="14.241397078178666"><ele>304.0</ele><time>2026-04-12T08:34:51Z</time></trkpt><trkpt lat="42.26818331344999" lon="14.241341866739656"><ele>306.0</ele><time>2026-04-12T08:34:52Z</time></trkpt><trkpt lat="42.26804593142302" lon="14.241257767682793"><ele>308.0</ele><time>2026-04-12T08:34:53Z</time></trkpt><trkpt lat="42.267923974806315" lon="14.241179941463331"><ele>310.0</ele><time>2026-04-12T08:34:54Z</time></trkpt><trkpt lat="42.267815394066666" lon="14.241085951900326"><ele>310.0</ele><time>2026-04-12T08:34:55Z</time></trkpt><trkpt lat="42.26773319991456" lon="14.24096099550637"><ele>310.0</ele><time>2026-04-12T08:34:56Z</time></trkpt><trkpt lat="42.26763455574878" lon="14.240799057749635"><ele>310.0</ele><time>2026-04-12T08:34:57Z</time></trkpt><trkpt lat="42.267534415003524" lon="14.240633987285484"><ele>310.0</ele><time>2026-04-12T08:34:57.999Z</time></trkpt><trkpt lat="42.26747021921427" lon="14.240444416310917"><ele>311.25</ele><time>2026-04-12T08:34:58.999Z</time></trkpt><trkpt lat="42.26740402438414" lon="14.24024143425945"><ele>312.5</ele><time>2026-04-12T08:34:59.999Z</time></trkpt><trkpt lat="42.26731380039737" lon="14.240070640404614"><ele>313.75</ele><time>2026-04-12T08:35:00.999Z</time></trkpt><trkpt lat="42.26723837601703" lon="14.239943164408468"><ele>315.0</ele><time>2026-04-12T08:35:01.999Z</time></trkpt><trkpt lat="42.26718871339178" lon="14.239811372053257"><ele>319.0</ele><time>2026-04-12T08:35:02.999Z</time></trkpt><trkpt lat="42.267177882386314" lon="14.239628203899146"><ele>323.0</ele><time>2026-04-12T08:35:03.999Z</time></trkpt><trkpt lat="42.26716183237056" lon="14.239443702495924"><ele>327.0</ele><time>2026-04-12T08:35:04.999Z</time></trkpt><trkpt lat="42.2671284789892" lon="14.239272856886913"><ele>331.0</ele><time>2026-04-12T08:35:05.999Z</time></trkpt><trkpt lat="42.26709382392938" lon="14.239132410414722"><ele>331.0</ele><time>2026-04-12T08:35:06.999Z</time></trkpt><trkpt lat="42.267041724321246" lon="14.239018680568616"><ele>331.0</ele><time>2026-04-12T08:35:07.999Z</time></trkpt><trkpt lat="42.26699122645776" lon="14.238909581968995"><ele>331.0</ele><time>2026-04-12T08:35:08.999Z</time></trkpt><trkpt lat="42.26694375565203" lon="14.238829193351876"><ele>331.0</ele><time>2026-04-12T08:35:09.999Z</time></trkpt><trkpt lat="42.26688347819041" lon="14.238727357285903"><ele>331.0</ele><time>2026-04-12T08:35:10.999Z</time></trkpt><trkpt lat="42.266809922432216" lon="14.238666330333434"><ele>331.25</ele><time>2026-04-12T08:35:11.999Z</time></trkpt><trkpt lat="42.26671750847112" lon="14.238599879352483"><ele>331.5</ele><time>2026-04-12T08:35:12.999Z</time></trkpt><trkpt lat="42.26662825113973" lon="14.238510677271309"><ele>331.75</ele><time>2026-04-12T08:35:13.999Z</time></trkpt><trkpt lat="42.26652467657671" lon="14.238380346611304"><ele>332.0</ele><time>2026-04-12T08:35:14.999Z</time></trkpt><trkpt lat="42.266447834280996" lon="14.238265147033816"><ele>333.25</ele><time>2026-04-12T08:35:15.999Z</time></trkpt><trkpt lat="42.26637088690888" lon="14.238167652776896"><ele>334.5</ele><time>2026-04-12T08:35:16.999Z</time></trkpt><trkpt lat="42.266275472085404" lon="14.238076595310181"><ele>335.75</ele><time>2026-04-12T08:35:17.999Z</time></trkpt><trkpt lat="42.2661833609025" lon="14.237982883093375"><ele>337.0</ele><time>2026-04-12T08:35:18.999Z</time></trkpt><trkpt lat="42.266088160888714" lon="14.237898024713441"><ele>337.0</ele><time>2026-04-12T08:35:19.999Z</time></trkpt><trkpt lat="42.26598358488512" lon="14.23781429049022"><ele>337.0</ele><time>2026-04-12T08:35:20.999Z</time></trkpt><trkpt lat="42.26586759389419" lon="14.237742771017652"><ele>337.0</ele><time>2026-04-12T08:35:21.999Z</time></trkpt><trkpt lat="42.26575437556567" lon="14.237672137481605"><ele>337.0</ele><time>2026-04-12T08:35:22.999Z</time></trkpt><trkpt lat="42.26565214258489" lon="14.237581378839819"><ele>339.5</ele><time>2026-04-12T08:35:23.999Z</time></trkpt><trkpt lat="42.26555359990828" lon="14.237456926916648"><ele>342.0</ele><time>2026-04-12T08:35:24.999Z</time></trkpt><trkpt lat="42.26549097073436" lon="14.237341877494115"><ele>344.5</ele><time>2026-04-12T08:35:25.999Z</time></trkpt><trkpt lat="42.26542189761431" lon="14.237188220900684"><ele>347.0</ele><time>2026-04-12T08:35:26.999Z</time></trkpt><trkpt lat="42.26536259775237" lon="14.237036053942905"><ele>347.0</ele><time>2026-04-12T08:35:27.999Z</time></trkpt><trkpt lat="42.26530896202303" lon="14.23689001466773"><ele>347.0</ele><time>2026-04-12T08:35:28.999Z</time></trkpt><trkpt lat="42.26525796559377" lon="14.236748765389349"><ele>347.0</ele><time>2026-04-12T08:35:29.999Z</time></trkpt><trkpt lat="42.26520138378932" lon="14.236619387811277"><ele>347.0</ele><time>2026-04-12T08:35:30.999Z</time></trkpt><trkpt lat="42.26514087475125" lon="14.236500092598831"><ele>346.20000000000005</ele><time>2026-04-12T08:35:31.999Z</time></trkpt><trkpt lat="42.265084936876775" lon="14.236393412292042"><ele>345.4</ele><time>2026-04-12T08:35:32.999Z</time></trkpt><trkpt lat="42.26502670484296" lon="14.236267781588511"><ele>344.6</ele><time>2026-04-12T08:35:33.999Z</time></trkpt><trkpt lat="42.264967341920446" lon="14.236161503920437"><ele>343.79999999999995</ele><time>2026-04-12T08:35:34.999Z</time></trkpt><trkpt lat="42.264893474215675" lon="14.236080293268275"><ele>343.0</ele><time>2026-04-12T08:35:35.999Z</time></trkpt><trkpt lat="42.264814588938556" lon="14.236027029661761"><ele>340.4</ele><time>2026-04-12T08:35:36.999Z</time></trkpt><trkpt lat="42.26474338565826" lon="14.23599759230072"><ele>337.79999999999995</ele><time>2026-04-12T08:35:37.999Z</time></trkpt><trkpt lat="42.264669681267485" lon="14.236048305730343"><ele>335.2</ele><time>2026-04-12T08:35:39.999Z</time></trkpt><trkpt lat="42.26460990652356" lon="14.236110114197873"><ele>332.6</ele><time>2026-04-12T08:35:40.999Z</time></trkpt><trkpt lat="42.264533863591616" lon="14.236210495718234"><ele>330.0</ele><time>2026-04-12T08:35:41.999Z</time></trkpt><trkpt lat="42.264447987776165" lon="14.236344317914101"><ele>330.0</ele><time>2026-04-12T08:35:42.999Z</time></trkpt><trkpt lat="42.26433427739705" lon="14.236452943584238"><ele>330.0</ele><time>2026-04-12T08:35:43.999Z</time></trkpt><trkpt lat="42.26421763769662" lon="14.23653441596629"><ele>330.0</ele><time>2026-04-12T08:35:44.999Z</time></trkpt><trkpt lat="42.26409114849928" lon="14.236588351465675"><ele>330.0</ele><time>2026-04-12T08:35:45.999Z</time></trkpt><trkpt lat="42.26397724683734" lon="14.236668122952945"><ele>333.75</ele><time>2026-04-12T08:35:46.999Z</time></trkpt><trkpt lat="42.26385456479524" lon="14.236762950645"><ele>337.5</ele><time>2026-04-12T08:35:47.999Z</time></trkpt><trkpt lat="42.26374060593554" lon="14.236833006442755"><ele>341.25</ele><time>2026-04-12T08:35:48.999Z</time></trkpt><trkpt lat="42.26364884436704" lon="14.23683795258301"><ele>345.0</ele><time>2026-04-12T08:35:49.999Z</time></trkpt><trkpt lat="42.2635280855722" lon="14.236774693889288"><ele>345.0</ele><time>2026-04-12T08:35:50.999Z</time></trkpt><trkpt lat="42.263392514151015" lon="14.236732146246174"><ele>345.0</ele><time>2026-04-12T08:35:51.999Z</time></trkpt><trkpt lat="42.26325870015847" lon="14.23672513473108"><ele>345.0</ele><time>2026-04-12T08:35:52.999Z</time></trkpt><trkpt lat="42.263144696438644" lon="14.236783820250475"><ele>345.0</ele><time>2026-04-12T08:35:53.999Z</time></trkpt><trkpt lat="42.263004213783326" lon="14.236878202366357"><ele>344.3333333333333</ele><time>2026-04-12T08:35:54.999Z</time></trkpt><trkpt lat="42.26284619644026" lon="14.23697830658703"><ele>343.66666666666663</ele><time>2026-04-12T08:35:56Z</time></trkpt><trkpt lat="42.26268217708937" lon="14.237050767792887"><ele>343.0</ele><time>2026-04-12T08:35:57Z</time></trkpt><trkpt lat="42.26251128657501" lon="14.237113144862624"><ele>343.0</ele><time>2026-04-12T08:35:58Z</time></trkpt><trkpt lat="42.262370563425414" lon="14.23716179105164"><ele>343.0</ele><time>2026-04-12T08:35:59Z</time></trkpt><trkpt lat="42.26220769384793" lon="14.237195508122452"><ele>343.0</ele><time>2026-04-12T08:36:00Z</time></trkpt><trkpt lat="42.26203330906649" lon="14.237196508045386"><ele>340.3333333333333</ele><time>2026-04-12T08:36:01Z</time></trkpt><trkpt lat="42.26187324835745" lon="14.237232897943763"><ele>337.6666666666667</ele><time>2026-04-12T08:36:02Z</time></trkpt><trkpt lat="42.261735211879575" lon="14.237287685246343"><ele>335.0</ele><time>2026-04-12T08:36:03Z</time></trkpt><trkpt lat="42.26159039840245" lon="14.237331138153046"><ele>338.5</ele><time>2026-04-12T08:36:04Z</time></trkpt><trkpt lat="42.26144781749854" lon="14.237381041305776"><ele>342.0</ele><time>2026-04-12T08:36:05Z</time></trkpt><trkpt lat="42.26133711947189" lon="14.23742457650347"><ele>345.5</ele><time>2026-04-12T08:36:06Z</time></trkpt><trkpt lat="42.26125058495199" lon="14.237487423372583"><ele>349.0</ele><time>2026-04-12T08:36:07Z</time></trkpt><trkpt lat="42.26113272228545" lon="14.237538899231362"><ele>349.0</ele><time>2026-04-12T08:36:08Z</time></trkpt><trkpt lat="42.261046001730755" lon="14.237559562640444"><ele>349.0</ele><time>2026-04-12T08:36:09Z</time></trkpt><trkpt lat="42.2609844641221" lon="14.23763061777421"><ele>349.0</ele><time>2026-04-12T08:36:10Z</time></trkpt><trkpt lat="42.2608977282293" lon="14.237807976723944"><ele>349.0</ele><time>2026-04-12T08:36:11Z</time></trkpt><trkpt lat="42.26083158340446" lon="14.237984565750928"><ele>349.25</ele><time>2026-04-12T08:36:12Z</time></trkpt><trkpt lat="42.26076134240334" lon="14.238163387505326"><ele>349.5</ele><time>2026-04-12T08:36:13Z</time></trkpt><trkpt lat="42.26068548167464" lon="14.238342532086456"><ele>349.75</ele><time>2026-04-12T08:36:14Z</time></trkpt><trkpt lat="42.26062218777778" lon="14.238509312064135"><ele>350.0</ele><time>2026-04-12T08:36:15Z</time></trkpt><trkpt lat="42.26056280632309" lon="14.238673119708102"><ele>350.0</ele><time>2026-04-12T08:36:16Z</time></trkpt><trkpt lat="42.260496223483536" lon="14.238836636371998"><ele>350.0</ele><time>2026-04-12T08:36:17Z</time></trkpt><trkpt lat="42.26042066676328" lon="14.23896517857942"><ele>350.0</ele><time>2026-04-12T08:36:18Z</time></trkpt><trkpt lat="42.26031854129443" lon="14.23906264064623"><ele>350.0</ele><time>2026-04-12T08:36:19Z</time></trkpt><trkpt lat="42.260181890938874" lon="14.239161779793484"><ele>351.2</ele><time>2026-04-12T08:36:20Z</time></trkpt><trkpt lat="42.26005348761497" lon="14.239248056133906"><ele>352.4</ele><time>2026-04-12T08:36:21Z</time></trkpt><trkpt lat="42.25996288941541" lon="14.239302411637029"><ele>353.6</ele><time>2026-04-12T08:36:22Z</time></trkpt><trkpt lat="42.25987869989797" lon="14.239315492438479"><ele>354.8</ele><time>2026-04-12T08:36:23Z</time></trkpt><trkpt lat="42.259768918806095" lon="14.239250129667129"><ele>356.0</ele><time>2026-04-12T08:36:24Z</time></trkpt><trkpt lat="42.25964867363348" lon="14.239174449803135"><ele>357.25</ele><time>2026-04-12T08:36:25Z</time></trkpt><trkpt lat="42.259533258152814" lon="14.239140921009508"><ele>358.5</ele><time>2026-04-12T08:36:26Z</time></trkpt><trkpt lat="42.25942168971953" lon="14.239132977790629"><ele>359.75</ele><time>2026-04-12T08:36:27Z</time></trkpt><trkpt lat="42.25931338301042" lon="14.239116790485971"><ele>361.0</ele><time>2026-04-12T08:36:28Z</time></trkpt><trkpt lat="42.25920236709083" lon="14.239173847042139"><ele>361.0</ele><time>2026-04-12T08:36:30Z</time></trkpt><trkpt lat="42.259086992679514" lon="14.23917400903584"><ele>361.0</ele><time>2026-04-12T08:36:31Z</time></trkpt><trkpt lat="42.258955804114514" lon="14.239177307884038"><ele>361.0</ele><time>2026-04-12T08:36:32Z</time></trkpt><trkpt lat="42.25881731427681" lon="14.239148333444914"><ele>361.0</ele><time>2026-04-12T08:36:33Z</time></trkpt><trkpt lat="42.2586990420629" lon="14.239148653837614"><ele>362.6</ele><time>2026-04-12T08:36:34Z</time></trkpt><trkpt lat="42.258602815045165" lon="14.23917243868181"><ele>364.20000000000005</ele><time>2026-04-12T08:36:35Z</time></trkpt><trkpt lat="42.258518846266014" lon="14.23920604141713"><ele>365.79999999999995</ele><time>2026-04-12T08:36:36Z</time></trkpt><trkpt lat="42.25844455343013" lon="14.23928126688942"><ele>367.4</ele><time>2026-04-12T08:36:37Z</time></trkpt><trkpt lat="42.25836131569587" lon="14.239343917116969"><ele>369.0</ele><time>2026-04-12T08:36:38Z</time></trkpt><trkpt lat="42.258271099507944" lon="14.239410148323051"><ele>369.0</ele><time>2026-04-12T08:36:39Z</time></trkpt><trkpt lat="42.258172662779145" lon="14.23948642845866"><ele>369.0</ele><time>2026-04-12T08:36:40Z</time></trkpt><trkpt lat="42.25806694504215" lon="14.239575932851487"><ele>369.0</ele><time>2026-04-12T08:36:41Z</time></trkpt><trkpt lat="42.25796229075846" lon="14.239686250039405"><ele>369.0</ele><time>2026-04-12T08:36:42Z</time></trkpt><trkpt lat="42.25786328762692" lon="14.239798699705815"><ele>367.6</ele><time>2026-04-12T08:36:43Z</time></trkpt><trkpt lat="42.25776530088868" lon="14.239934955897455"><ele>366.2</ele><time>2026-04-12T08:36:44Z</time></trkpt><trkpt lat="42.25767953560144" lon="14.24001594295972"><ele>364.8</ele><time>2026-04-12T08:36:45Z</time></trkpt><trkpt lat="42.25758647858273" lon="14.240044010937082"><ele>363.40000000000003</ele><time>2026-04-12T08:36:46Z</time></trkpt><trkpt lat="42.25750218756558" lon="14.24006765477036"><ele>362.0</ele><time>2026-04-12T08:36:47Z</time></trkpt><trkpt lat="42.25740305100058" lon="14.240058720697842"><ele>360.75</ele><time>2026-04-12T08:36:48Z</time></trkpt><trkpt lat="42.25728410279632" lon="14.240005920403565"><ele>359.5</ele><time>2026-04-12T08:36:49Z</time></trkpt><trkpt lat="42.257190991268565" lon="14.239912275735104"><ele>358.25</ele><time>2026-04-12T08:36:50Z</time></trkpt><trkpt lat="42.25711149760182" lon="14.239802142207587"><ele>357.0</ele><time>2026-04-12T08:36:51Z</time></trkpt><trkpt lat="42.25700835729173" lon="14.239704378305886"><ele>357.0</ele><time>2026-04-12T08:36:52Z</time></trkpt><trkpt lat="42.25690709982869" lon="14.239628980555368"><ele>357.0</ele><time>2026-04-12T08:36:53Z</time></trkpt><trkpt lat="42.25681912129104" lon="14.23956338629612"><ele>357.0</ele><time>2026-04-12T08:36:54Z</time></trkpt><trkpt lat="42.2567417661739" lon="14.239546706324013"><ele>357.0</ele><time>2026-04-12T08:36:55Z</time></trkpt><trkpt lat="42.25667135808259" lon="14.239512021392606"><ele>357.0</ele><time>2026-04-12T08:36:56Z</time></trkpt><trkpt lat="42.256606671755584" lon="14.239458268135097"><ele>357.0</ele><time>2026-04-12T08:36:57Z</time></trkpt><trkpt lat="42.256538492638384" lon="14.239376591083484"><ele>353.0</ele><time>2026-04-12T08:36:58Z</time></trkpt><trkpt lat="42.25643574049218" lon="14.239284013745138"><ele>349.0</ele><time>2026-04-12T08:36:59Z</time></trkpt><trkpt lat="42.25629008768981" lon="14.239170836593663"><ele>345.0</ele><time>2026-04-12T08:36:59.999Z</time></trkpt><trkpt lat="42.25615422874802" lon="14.239060277212335"><ele>344.75</ele><time>2026-04-12T08:37:00.999Z</time></trkpt><trkpt lat="42.25601524286026" lon="14.238933387411668"><ele>344.5</ele><time>2026-04-12T08:37:01.999Z</time></trkpt><trkpt lat="42.2558927468" lon="14.238821223289927"><ele>344.25</ele><time>2026-04-12T08:37:02.999Z</time></trkpt><trkpt lat="42.25580064100221" lon="14.238733769079408"><ele>344.0</ele><time>2026-04-12T08:37:03.999Z</time></trkpt><trkpt lat="42.25571823753152" lon="14.238659470524"><ele>344.0</ele><time>2026-04-12T08:37:04.999Z</time></trkpt><trkpt lat="42.25563576372467" lon="14.23862185538352"><ele>344.0</ele><time>2026-04-12T08:37:05.999Z</time></trkpt><trkpt lat="42.25554856240775" lon="14.238651933309816"><ele>344.0</ele><time>2026-04-12T08:37:06.999Z</time></trkpt><trkpt lat="42.25550543758836" lon="14.23848261391097"><ele>344.0</ele><time>2026-04-12T08:37:08.999Z</time></trkpt><trkpt lat="42.25544921728759" lon="14.238337189669322"><ele>344.0</ele><time>2026-04-12T08:37:09.999Z</time></trkpt><trkpt lat="42.255364663118364" lon="14.23821138413152"><ele>344.25</ele><time>2026-04-12T08:37:10.999Z</time></trkpt><trkpt lat="42.255257944973756" lon="14.238137205448446"><ele>344.5</ele><time>2026-04-12T08:37:11.999Z</time></trkpt><trkpt lat="42.255105875743105" lon="14.238115689469131"><ele>344.75</ele><time>2026-04-12T08:37:12.999Z</time></trkpt><trkpt lat="42.25494320173959" lon="14.238108026115292"><ele>345.0</ele><time>2026-04-12T08:37:13.999Z</time></trkpt><trkpt lat="42.25477099694391" lon="14.238063036920975"><ele>339.0</ele><time>2026-04-12T08:37:14.999Z</time></trkpt><trkpt lat="42.254608239679726" lon="14.23803229074633"><ele>333.0</ele><time>2026-04-12T08:37:15.999Z</time></trkpt><trkpt lat="42.25445293616163" lon="14.23801890961764"><ele>327.0</ele><time>2026-04-12T08:37:16.999Z</time></trkpt><trkpt lat="42.25429035133115" lon="14.237963650634484"><ele>327.0</ele><time>2026-04-12T08:37:17.999Z</time></trkpt><trkpt lat="42.25413355729998" lon="14.237841687980008"><ele>327.0</ele><time>2026-04-12T08:37:18.999Z</time></trkpt><trkpt lat="42.253973954138566" lon="14.237698041070857"><ele>327.0</ele><time>2026-04-12T08:37:19.999Z</time></trkpt><trkpt lat="42.25382056700224" lon="14.237546437767481"><ele>328.0</ele><time>2026-04-12T08:37:20.999Z</time></trkpt><trkpt lat="42.253677853915484" lon="14.23738981924049"><ele>329.0</ele><time>2026-04-12T08:37:21.999Z</time></trkpt><trkpt lat="42.253557117645585" lon="14.237230742409885"><ele>330.0</ele><time>2026-04-12T08:37:22.999Z</time></trkpt><trkpt lat="42.253478994051775" lon="14.237061599015943"><ele>330.0</ele><time>2026-04-12T08:37:23.999Z</time></trkpt><trkpt lat="42.25340972221208" lon="14.236859761637715"><ele>330.0</ele><time>2026-04-12T08:37:24.999Z</time></trkpt><trkpt lat="42.253326171066085" lon="14.236640012364369"><ele>330.0</ele><time>2026-04-12T08:37:25.999Z</time></trkpt><trkpt lat="42.25325606191759" lon="14.236391222132495"><ele>330.6666666666667</ele><time>2026-04-12T08:37:26.999Z</time></trkpt><trkpt lat="42.253178816708335" lon="14.236146463589703"><ele>331.33333333333337</ele><time>2026-04-12T08:37:27.999Z</time></trkpt><trkpt lat="42.25310687221553" lon="14.235926761160528"><ele>332.0</ele><time>2026-04-12T08:37:28.999Z</time></trkpt><trkpt lat="42.25304162278813" lon="14.235717169368607"><ele>326.0</ele><time>2026-04-12T08:37:29.999Z</time></trkpt><trkpt lat="42.25297973953766" lon="14.235529135446056"><ele>320.0</ele><time>2026-04-12T08:37:30.999Z</time></trkpt><trkpt lat="42.25289271422336" lon="14.235378292385988"><ele>314.0</ele><time>2026-04-12T08:37:31.999Z</time></trkpt><trkpt lat="42.25277109317311" lon="14.235241513167121"><ele>314.0</ele><time>2026-04-12T08:37:32.999Z</time></trkpt><trkpt lat="42.252612844132145" lon="14.23514192345328"><ele>314.0</ele><time>2026-04-12T08:37:33.999Z</time></trkpt><trkpt lat="42.252456009979774" lon="14.235032633922923"><ele>314.0</ele><time>2026-04-12T08:37:34.999Z</time></trkpt><trkpt lat="42.252301482340066" lon="14.234940196252419"><ele>315.33333333333337</ele><time>2026-04-12T08:37:35.999Z</time></trkpt><trkpt lat="42.25217818965713" lon="14.234771626035744"><ele>316.6666666666667</ele><time>2026-04-12T08:37:36.999Z</time></trkpt><trkpt lat="42.25206144581205" lon="14.234586964420812"><ele>318.0</ele><time>2026-04-12T08:37:37.999Z</time></trkpt><trkpt lat="42.25195079463257" lon="14.234402244568798"><ele>318.0</ele><time>2026-04-12T08:37:38.999Z</time></trkpt><trkpt lat="42.25186427518783" lon="14.23423779841892"><ele>318.0</ele><time>2026-04-12T08:37:39.999Z</time></trkpt><trkpt lat="42.25180122300718" lon="14.234092010693951"><ele>318.0</ele><time>2026-04-12T08:37:40.999Z</time></trkpt><trkpt lat="42.25176879218366" lon="14.233958004513632"><ele>318.0</ele><time>2026-04-12T08:37:41.999Z</time></trkpt><trkpt lat="42.25176599935952" lon="14.233814415762707"><ele>314.6</ele><time>2026-04-12T08:37:42.999Z</time></trkpt><trkpt lat="42.25180678219994" lon="14.233689781370181"><ele>311.20000000000005</ele><time>2026-04-12T08:37:43.999Z</time></trkpt><trkpt lat="42.251872255332366" lon="14.233611208560733"><ele>307.8</ele><time>2026-04-12T08:37:44.999Z</time></trkpt><trkpt lat="42.25195128650791" lon="14.233597194158744"><ele>304.40000000000003</ele><time>2026-04-12T08:37:45.999Z</time></trkpt><trkpt lat="42.25203886568804" lon="14.233648697748439"><ele>301.0</ele><time>2026-04-12T08:37:46.999Z</time></trkpt><trkpt lat="42.25212134620707" lon="14.233750241382722"><ele>301.0</ele><time>2026-04-12T08:37:47.999Z</time></trkpt><trkpt lat="42.252187000092434" lon="14.233889151766228"><ele>301.0</ele><time>2026-04-12T08:37:48.999Z</time></trkpt><trkpt lat="42.252247760229814" lon="14.234047073979527"><ele>301.0</ele><time>2026-04-12T08:37:49.999Z</time></trkpt><trkpt lat="42.25232400447751" lon="14.23419496092742"><ele>301.0</ele><time>2026-04-12T08:37:50.999Z</time></trkpt><trkpt lat="42.25243192305522" lon="14.234319629338477"><ele>299.75</ele><time>2026-04-12T08:37:51.999Z</time></trkpt><trkpt lat="42.252559848977675" lon="14.234402234713468"><ele>298.5</ele><time>2026-04-12T08:37:52.999Z</time></trkpt><trkpt lat="42.25270474090356" lon="14.234438191957125"><ele>297.25</ele><time>2026-04-12T08:37:53.999Z</time></trkpt><trkpt lat="42.25285992996164" lon="14.234449556246108"><ele>296.0</ele><time>2026-04-12T08:37:54.999Z</time></trkpt><trkpt lat="42.25298859081834" lon="14.234445248903027"><ele>296.0</ele><time>2026-04-12T08:37:55.999Z</time></trkpt><trkpt lat="42.25308528980474" lon="14.23444054366896"><ele>296.0</ele><time>2026-04-12T08:37:56.999Z</time></trkpt><trkpt lat="42.25316184234884" lon="14.234435086381996"><ele>296.0</ele><time>2026-04-12T08:37:57.999Z</time></trkpt><trkpt lat="42.25303829267165" lon="14.23426821593748"><ele>296.0</ele><time>2026-04-12T08:38:06Z</time></trkpt><trkpt lat="42.25298145060082" lon="14.234221816708445"><ele>296.0</ele><time>2026-04-12T08:38:07Z</time></trkpt><trkpt lat="42.25287566689286" lon="14.234197226240846"><ele>296.0</ele><time>2026-04-12T08:38:09Z</time></trkpt><trkpt lat="42.252774116462646" lon="14.234207988990008"><ele>296.0</ele><time>2026-04-12T08:38:11Z</time></trkpt><trkpt lat="42.252704392254934" lon="14.23424308673458"><ele>296.0</ele><time>2026-04-12T08:38:12Z</time></trkpt><trkpt lat="42.252642432298984" lon="14.234263428269552"><ele>296.0</ele><time>2026-04-12T08:38:13Z</time></trkpt><trkpt lat="42.25258496649366" lon="14.23434533964977"><ele>296.0</ele><time>2026-04-12T08:38:14Z</time></trkpt><trkpt lat="42.2525189608642" lon="14.234325901911022"><ele>296.0</ele><time>2026-04-12T08:38:16Z</time></trkpt><trkpt lat="42.25244535398376" lon="14.234281727113714"><ele>296.0</ele><time>2026-04-12T08:38:18Z</time></trkpt><trkpt lat="42.25239113539616" lon="14.23422082410177"><ele>296.0</ele><time>2026-04-12T08:38:19Z</time></trkpt><trkpt lat="42.25232506711103" lon="14.234133827928536"><ele>296.0</ele><time>2026-04-12T08:38:20Z</time></trkpt><trkpt lat="42.25226256079171" lon="14.233978221727853"><ele>296.0</ele><time>2026-04-12T08:38:25Z</time></trkpt><trkpt lat="42.252222112849836" lon="14.23388149157823"><ele>296.0</ele><time>2026-04-12T08:38:26Z</time></trkpt><trkpt lat="42.25217551658255" lon="14.233778995140536"><ele>297.0</ele><time>2026-04-12T08:38:28Z</time></trkpt><trkpt lat="42.25209635084072" lon="14.233642772088054"><ele>298.0</ele><time>2026-04-12T08:38:30Z</time></trkpt><trkpt lat="42.252016879277" lon="14.23355082982473"><ele>299.0</ele><time>2026-04-12T08:38:31Z</time></trkpt><trkpt lat="42.25193560338601" lon="14.233510780018593"><ele>300.0</ele><time>2026-04-12T08:38:32Z</time></trkpt><trkpt lat="42.251852170127535" lon="14.233453139125213"><ele>301.0</ele><time>2026-04-12T08:38:33Z</time></trkpt><trkpt lat="42.25173423284932" lon="14.233510707287465"><ele>301.0</ele><time>2026-04-12T08:38:35Z</time></trkpt><trkpt lat="42.251667824349845" lon="14.233529887602206"><ele>301.0</ele><time>2026-04-12T08:38:36Z</time></trkpt><trkpt lat="42.25156513071374" lon="14.23351997024107"><ele>301.0</ele><time>2026-04-12T08:38:37Z</time></trkpt><trkpt lat="42.251434681933524" lon="14.23288283372748"><ele>299.0</ele><time>2026-04-12T08:38:38Z</time></trkpt><trkpt lat="42.251336820150044" lon="14.23276133842248"><ele>297.0</ele><time>2026-04-12T08:38:39Z</time></trkpt><trkpt lat="42.251261055026724" lon="14.23267130027783"><ele>295.0</ele><time>2026-04-12T08:38:40Z</time></trkpt><trkpt lat="42.251187630825484" lon="14.232559468203174"><ele>293.0</ele><time>2026-04-12T08:38:41Z</time></trkpt><trkpt lat="42.251126477851884" lon="14.232432931265363"><ele>293.0</ele><time>2026-04-12T08:38:42Z</time></trkpt><trkpt lat="42.251075528629414" lon="14.232327631070401"><ele>293.0</ele><time>2026-04-12T08:38:43Z</time></trkpt><trkpt lat="42.251019978651996" lon="14.232237343882861"><ele>293.0</ele><time>2026-04-12T08:38:44Z</time></trkpt><trkpt lat="42.25093454304724" lon="14.232145140992454"><ele>293.0</ele><time>2026-04-12T08:38:45Z</time></trkpt><trkpt lat="42.250826923392346" lon="14.23205671344586"><ele>293.0</ele><time>2026-04-12T08:38:46Z</time></trkpt><trkpt lat="42.25070397092987" lon="14.231973254544982"><ele>288.8</ele><time>2026-04-12T08:38:47Z</time></trkpt><trkpt lat="42.25061508259101" lon="14.23191828450135"><ele>284.6</ele><time>2026-04-12T08:38:48Z</time></trkpt><trkpt lat="42.25051924665082" lon="14.231897903911108"><ele>280.4</ele><time>2026-04-12T08:38:49Z</time></trkpt><trkpt lat="42.25042032104025" lon="14.23192300715445"><ele>276.2</ele><time>2026-04-12T08:38:50Z</time></trkpt><trkpt lat="42.25029081561706" lon="14.231948729359557"><ele>272.0</ele><time>2026-04-12T08:38:51Z</time></trkpt><trkpt lat="42.25016665638645" lon="14.23197964786636"><ele>272.0</ele><time>2026-04-12T08:38:52Z</time></trkpt><trkpt lat="42.25003477709986" lon="14.232008794791914"><ele>272.0</ele><time>2026-04-12T08:38:53Z</time></trkpt><trkpt lat="42.24991564346364" lon="14.232025701844563"><ele>272.0</ele><time>2026-04-12T08:38:54Z</time></trkpt><trkpt lat="42.249816721186285" lon="14.232057611487347"><ele>272.0</ele><time>2026-04-12T08:38:55Z</time></trkpt><trkpt lat="42.24974290034468" lon="14.232101936380086"><ele>272.0</ele><time>2026-04-12T08:38:56Z</time></trkpt><trkpt lat="42.24969586898203" lon="14.232177456319608"><ele>274.0</ele><time>2026-04-12T08:38:57Z</time></trkpt><trkpt lat="42.24964630529907" lon="14.232254523721565"><ele>276.0</ele><time>2026-04-12T08:38:58Z</time></trkpt><trkpt lat="42.24958708248984" lon="14.232285363247886"><ele>278.0</ele><time>2026-04-12T08:38:59Z</time></trkpt><trkpt lat="42.24949167993013" lon="14.232329006167772"><ele>280.0</ele><time>2026-04-12T08:39:00Z</time></trkpt><trkpt lat="42.24938089838652" lon="14.232382510291462"><ele>282.0</ele><time>2026-04-12T08:39:01Z</time></trkpt><trkpt lat="42.249263935151525" lon="14.232417940060715"><ele>282.0</ele><time>2026-04-12T08:39:02Z</time></trkpt><trkpt lat="42.24915510181896" lon="14.232428247613162"><ele>282.0</ele><time>2026-04-12T08:39:03Z</time></trkpt><trkpt lat="42.24905787623242" lon="14.23243810847666"><ele>282.0</ele><time>2026-04-12T08:39:04Z</time></trkpt><trkpt lat="42.2489536912921" lon="14.232441574284717"><ele>282.0</ele><time>2026-04-12T08:39:04.999Z</time></trkpt><trkpt lat="42.2488465371471" lon="14.232440251106343"><ele>282.0</ele><time>2026-04-12T08:39:05.999Z</time></trkpt><trkpt lat="42.24875315492629" lon="14.232444554763264"><ele>280.2</ele><time>2026-04-12T08:39:06.999Z</time></trkpt><trkpt lat="42.248666930868026" lon="14.232473941815229"><ele>278.4</ele><time>2026-04-12T08:39:07.999Z</time></trkpt><trkpt lat="42.24859112924342" lon="14.232533202236649"><ele>276.6</ele><time>2026-04-12T08:39:08.999Z</time></trkpt><trkpt lat="42.24849205854451" lon="14.232603194815765"><ele>274.8</ele><time>2026-04-12T08:39:09.999Z</time></trkpt><trkpt lat="42.248395387177716" lon="14.232626811418148"><ele>273.0</ele><time>2026-04-12T08:39:10.999Z</time></trkpt><trkpt lat="42.248291316968114" lon="14.232631158928248"><ele>273.0</ele><time>2026-04-12T08:39:11.999Z</time></trkpt><trkpt lat="42.248190346344" lon="14.232638441688982"><ele>273.0</ele><time>2026-04-12T08:39:12.999Z</time></trkpt><trkpt lat="42.2481022877624" lon="14.23265528551124"><ele>273.0</ele><time>2026-04-12T08:39:13.999Z</time></trkpt><trkpt lat="42.248016009865665" lon="14.232667928432761"><ele>273.0</ele><time>2026-04-12T08:39:14.999Z</time></trkpt><trkpt lat="42.24794347075586" lon="14.232684099204286"><ele>273.0</ele><time>2026-04-12T08:39:15.999Z</time></trkpt><trkpt lat="42.24787025082091" lon="14.23269842131478"><ele>273.0</ele><time>2026-04-12T08:39:16.999Z</time></trkpt><trkpt lat="42.24780174441964" lon="14.23275699103058"><ele>270.6</ele><time>2026-04-12T08:39:17.999Z</time></trkpt><trkpt lat="42.247717571249034" lon="14.232850722475009"><ele>268.20000000000005</ele><time>2026-04-12T08:39:18.999Z</time></trkpt><trkpt lat="42.24764060891422" lon="14.232944430408997"><ele>265.8</ele><time>2026-04-12T08:39:19.999Z</time></trkpt><trkpt lat="42.24757779452714" lon="14.232997555786406"><ele>263.40000000000003</ele><time>2026-04-12T08:39:21.999Z</time></trkpt><trkpt lat="42.247585157093496" lon="14.232862951650652"><ele>261.0</ele><time>2026-04-12T08:39:23.999Z</time></trkpt><trkpt lat="42.24760098568038" lon="14.232780416138175"><ele>261.0</ele><time>2026-04-12T08:39:25.999Z</time></trkpt><trkpt lat="42.24763659030927" lon="14.232690582595517"><ele>261.0</ele><time>2026-04-12T08:39:28.999Z</time></trkpt><trkpt lat="42.24767883809696" lon="14.232626519459684"><ele>261.0</ele><time>2026-04-12T08:39:31.999Z</time></trkpt><trkpt lat="42.247692047427776" lon="14.232522094536748"><ele>261.0</ele><time>2026-04-12T08:39:34.999Z</time></trkpt><trkpt lat="42.247728966064344" lon="14.23242366023857"><ele>261.0</ele><time>2026-04-12T08:39:37.999Z</time></trkpt><trkpt lat="42.2477645588637" lon="14.232352155244127"><ele>261.0</ele><time>2026-04-12T08:39:40.999Z</time></trkpt><trkpt lat="42.24784809718783" lon="14.232376814733252"><ele>261.0</ele><time>2026-04-12T08:39:44.999Z</time></trkpt><trkpt lat="42.247785426675655" lon="14.232488886856807"><ele>261.0</ele><time>2026-04-12T08:39:46.999Z</time></trkpt><trkpt lat="42.247727434879735" lon="14.232544440762542"><ele>261.0</ele><time>2026-04-12T08:39:47.999Z</time></trkpt><trkpt lat="42.24766102424543" lon="14.232655728457779"><ele>261.0</ele><time>2026-04-12T08:39:49.999Z</time></trkpt><trkpt lat="42.24758616588099" lon="14.23279556840783"><ele>261.0</ele><time>2026-04-12T08:39:51.999Z</time></trkpt><trkpt lat="42.24757463507189" lon="14.232886635355385"><ele>261.0</ele><time>2026-04-12T08:39:52.999Z</time></trkpt><trkpt lat="42.24760139851473" lon="14.233015932972853"><ele>261.0</ele><time>2026-04-12T08:39:54.999Z</time></trkpt><trkpt lat="42.24752663341797" lon="14.23309188608278"><ele>261.0</ele><time>2026-04-12T08:39:57.999Z</time></trkpt><trkpt lat="42.24745799550947" lon="14.233053181531954"><ele>261.0</ele><time>2026-04-12T08:39:59.999Z</time></trkpt><trkpt lat="42.24739931689063" lon="14.232998155139347"><ele>261.0</ele><time>2026-04-12T08:40:01.999Z</time></trkpt><trkpt lat="42.24738630381406" lon="14.232899714175213"><ele>261.0</ele><time>2026-04-12T08:40:03.999Z</time></trkpt><trkpt lat="42.247338985587916" lon="14.232722034425212"><ele>261.0</ele><time>2026-04-12T08:40:05.998Z</time></trkpt><trkpt lat="42.24730511866814" lon="14.232598576644376"><ele>261.0</ele><time>2026-04-12T08:40:06.998Z</time></trkpt><trkpt lat="42.2472751589893" lon="14.232482146277585"><ele>261.0</ele><time>2026-04-12T08:40:08Z</time></trkpt><trkpt lat="42.24723786790279" lon="14.232356432189604"><ele>261.0</ele><time>2026-04-12T08:40:09Z</time></trkpt><trkpt lat="42.247196244202094" lon="14.232229573169635"><ele>261.0</ele><time>2026-04-12T08:40:10Z</time></trkpt><trkpt lat="42.247157329272085" lon="14.232108686595756"><ele>255.33333333333334</ele><time>2026-04-12T08:40:11Z</time></trkpt><trkpt lat="42.24712075229108" lon="14.23199150179657"><ele>249.66666666666669</ele><time>2026-04-12T08:40:12Z</time></trkpt><trkpt lat="42.247101404519704" lon="14.231899883296219"><ele>244.0</ele><time>2026-04-12T08:40:13Z</time></trkpt><trkpt lat="42.2470803548203" lon="14.231804758921854"><ele>238.33333333333334</ele><time>2026-04-12T08:40:14Z</time></trkpt><trkpt lat="42.24705756889641" lon="14.231721212396646"><ele>232.66666666666669</ele><time>2026-04-12T08:40:15Z</time></trkpt><trkpt lat="42.247036879112336" lon="14.231633086553048"><ele>227.0</ele><time>2026-04-12T08:40:16Z</time></trkpt><trkpt lat="42.247018280790066" lon="14.231529340074449"><ele>227.0</ele><time>2026-04-12T08:40:18Z</time></trkpt><trkpt lat="42.24692570748127" lon="14.231558111381846"><ele>227.0</ele><time>2026-04-12T08:40:21Z</time></trkpt><trkpt lat="42.24679636741606" lon="14.231612227941218"><ele>227.0</ele><time>2026-04-12T08:40:23Z</time></trkpt><trkpt lat="42.24672124418681" lon="14.231672252036068"><ele>227.0</ele><time>2026-04-12T08:40:24Z</time></trkpt><trkpt lat="42.24666174181316" lon="14.23170155344881"><ele>227.0</ele><time>2026-04-12T08:40:25Z</time></trkpt><trkpt lat="42.246584924638675" lon="14.23165167063702"><ele>227.0</ele><time>2026-04-12T08:40:26Z</time></trkpt><trkpt lat="42.24666163035822" lon="14.231566651707416"><ele>227.0</ele><time>2026-04-12T08:40:32Z</time></trkpt><trkpt lat="42.24659640553443" lon="14.231638423417454"><ele>227.0</ele><time>2026-04-12T08:40:37Z</time></trkpt><trkpt lat="42.246494650379596" lon="14.231755844696915"><ele>227.0</ele><time>2026-04-12T08:40:39Z</time></trkpt><trkpt lat="42.246430846744055" lon="14.231827795369174"><ele>227.0</ele><time>2026-04-12T08:40:40Z</time></trkpt><trkpt lat="42.2463588370898" lon="14.231914221382995"><ele>225.25</ele><time>2026-04-12T08:40:41Z</time></trkpt><trkpt lat="42.24629370009029" lon="14.231994908377015"><ele>223.5</ele><time>2026-04-12T08:40:42Z</time></trkpt><trkpt lat="42.24622867583593" lon="14.232082774868047"><ele>221.75</ele><time>2026-04-12T08:40:43Z</time></trkpt><trkpt lat="42.24615114045742" lon="14.232187547893181"><ele>220.0</ele><time>2026-04-12T08:40:45Z</time></trkpt><trkpt lat="42.24807124419743" lon="14.230683139624388"><ele>219.33333333333331</ele><time>2026-04-12T08:40:46Z</time></trkpt><trkpt lat="42.24801302552286" lon="14.230722867444076"><ele>218.66666666666666</ele><time>2026-04-12T08:40:47Z</time></trkpt><trkpt lat="42.24794464081131" lon="14.23075295304745"><ele>218.0</ele><time>2026-04-12T08:40:49Z</time></trkpt><trkpt lat="42.24790319968285" lon="14.23064327927725"><ele>217.33333333333331</ele><time>2026-04-12T08:40:53Z</time></trkpt><trkpt lat="42.24788237208743" lon="14.230537022432888"><ele>216.66666666666666</ele><time>2026-04-12T08:40:54Z</time></trkpt><trkpt lat="42.24787409718898" lon="14.230451327411545"><ele>216.0</ele><time>2026-04-12T08:40:55Z</time></trkpt><trkpt lat="42.24788878246422" lon="14.230291667457939"><ele>214.33333333333331</ele><time>2026-04-12T08:40:57Z</time></trkpt><trkpt lat="42.247928677121536" lon="14.230188752315259"><ele>212.66666666666666</ele><time>2026-04-12T08:40:58Z</time></trkpt><trkpt lat="42.24797752004094" lon="14.23007597690972"><ele>211.0</ele><time>2026-04-12T08:40:59Z</time></trkpt><trkpt lat="42.247158225755534" lon="14.230722125568185"><ele>210.25</ele><time>2026-04-12T08:41:02Z</time></trkpt><trkpt lat="42.247211863289586" lon="14.230633568893957"><ele>209.5</ele><time>2026-04-12T08:41:03Z</time></trkpt><trkpt lat="42.24736671604939" lon="14.230467363902177"><ele>208.75</ele><time>2026-04-12T08:41:05Z</time></trkpt><trkpt lat="42.24747462893816" lon="14.230379166158365"><ele>208.0</ele><time>2026-04-12T08:41:06Z</time></trkpt><trkpt lat="42.24760859162675" lon="14.230260977963148"><ele>207.4</ele><time>2026-04-12T08:41:07Z</time></trkpt><trkpt lat="42.24770806462391" lon="14.230230341817824"><ele>206.8</ele><time>2026-04-12T08:41:09.999Z</time></trkpt><trkpt lat="42.247766975999205" lon="14.230178750135899"><ele>206.2</ele><time>2026-04-12T08:41:10.999Z</time></trkpt><trkpt lat="42.24783424515965" lon="14.230123959345411"><ele>205.6</ele><time>2026-04-12T08:41:11.999Z</time></trkpt><trkpt lat="42.24790075148667" lon="14.230071896730362"><ele>205.0</ele><time>2026-04-12T08:41:12.999Z</time></trkpt><trkpt lat="42.24801821414339" lon="14.229998204965838"><ele>204.99999999999997</ele><time>2026-04-12T08:41:14.999Z</time></trkpt><trkpt lat="42.24807969168186" lon="14.229954695627066"><ele>205.0</ele><time>2026-04-12T08:41:16.999Z</time></trkpt><trkpt lat="42.24814964809442" lon="14.229951522784008"><ele>205.0</ele><time>2026-04-12T08:41:20.999Z</time></trkpt><trkpt lat="42.24822209310129" lon="14.229867585909238"><ele>205.0</ele><time>2026-04-12T08:41:24.999Z</time></trkpt><trkpt lat="42.24827414994423" lon="14.229788531823985"><ele>204.99999999999997</ele><time>2026-04-12T08:41:27.999Z</time></trkpt><trkpt lat="42.24832366523498" lon="14.229720768803233"><ele>205.0</ele><time>2026-04-12T08:41:30.999Z</time></trkpt><trkpt lat="42.248271437349665" lon="14.22978422942986"><ele>202.0</ele><time>2026-04-12T08:41:40.999Z</time></trkpt><trkpt lat="42.2483420449166" lon="14.229715519624657"><ele>199.0</ele><time>2026-04-12T08:41:56.999Z</time></trkpt><trkpt lat="42.24873385842859" lon="14.229459993180795"><ele>199.0</ele><time>2026-04-12T08:41:57.999Z</time></trkpt><trkpt lat="42.24883981019771" lon="14.22947802648885"><ele>199.0</ele><time>2026-04-12T08:42:10.998Z</time></trkpt><trkpt lat="42.24890704242163" lon="14.229600221489068"><ele>199.0</ele><time>2026-04-12T08:42:18Z</time></trkpt><trkpt lat="42.24894383909639" lon="14.229707527942185"><ele>199.0</ele><time>2026-04-12T08:42:20Z</time></trkpt><trkpt lat="42.24903474678877" lon="14.229589304912947"><ele>199.0</ele><time>2026-04-12T08:42:23Z</time></trkpt><trkpt lat="42.24908087251134" lon="14.22947907467248"><ele>200.25</ele><time>2026-04-12T08:42:24Z</time></trkpt><trkpt lat="42.249131650197775" lon="14.229335895936083"><ele>201.5</ele><time>2026-04-12T08:42:25Z</time></trkpt><trkpt lat="42.249194558209645" lon="14.229200568734354"><ele>202.75</ele><time>2026-04-12T08:42:26Z</time></trkpt><trkpt lat="42.249270469202905" lon="14.22905659009781"><ele>204.0</ele><time>2026-04-12T08:42:27Z</time></trkpt><trkpt lat="42.249367312149204" lon="14.22891868870451"><ele>201.25</ele><time>2026-04-12T08:42:28Z</time></trkpt><trkpt lat="42.24944910488482" lon="14.228778648429016"><ele>198.5</ele><time>2026-04-12T08:42:29Z</time></trkpt><trkpt lat="42.249518998436805" lon="14.228625311876826"><ele>195.75</ele><time>2026-04-12T08:42:30Z</time></trkpt><trkpt lat="42.24960976223487" lon="14.228468195028647"><ele>193.0</ele><time>2026-04-12T08:42:31Z</time></trkpt><trkpt lat="42.2497104250016" lon="14.228310280772718"><ele>192.33333333333331</ele><time>2026-04-12T08:42:32Z</time></trkpt><trkpt lat="42.249831898492594" lon="14.228177391190655"><ele>191.66666666666666</ele><time>2026-04-12T08:42:33Z</time></trkpt><trkpt lat="42.249962084278486" lon="14.22806112650794"><ele>191.0</ele><time>2026-04-12T08:42:34Z</time></trkpt><trkpt lat="42.25010570942536" lon="14.227948359072816"><ele>191.0</ele><time>2026-04-12T08:42:35Z</time></trkpt><trkpt lat="42.25026534295797" lon="14.227835259175945"><ele>191.0</ele><time>2026-04-12T08:42:36Z</time></trkpt><trkpt lat="42.250433847124164" lon="14.227722903353058"><ele>191.0</ele><time>2026-04-12T08:42:37Z</time></trkpt><trkpt lat="42.25059825178311" lon="14.227604658889508"><ele>190.33333333333331</ele><time>2026-04-12T08:42:38Z</time></trkpt><trkpt lat="42.25075865775488" lon="14.227469238016816"><ele>189.66666666666666</ele><time>2026-04-12T08:42:39Z</time></trkpt><trkpt lat="42.2509113971919" lon="14.22731936671098"><ele>189.0</ele><time>2026-04-12T08:42:40Z</time></trkpt><trkpt lat="42.25106085012403" lon="14.227149904499385"><ele>189.0</ele><time>2026-04-12T08:42:41Z</time></trkpt><trkpt lat="42.25120430884149" lon="14.226968331252433"><ele>189.0</ele><time>2026-04-12T08:42:42Z</time></trkpt><trkpt lat="42.25134803919913" lon="14.226777619055252"><ele>189.0</ele><time>2026-04-12T08:42:43Z</time></trkpt><trkpt lat="42.251494564993884" lon="14.226582299088339"><ele>187.0</ele><time>2026-04-12T08:42:44Z</time></trkpt><trkpt lat="42.251659794178885" lon="14.22641994257018"><ele>185.0</ele><time>2026-04-12T08:42:45Z</time></trkpt><trkpt lat="42.25181078396498" lon="14.226251954870992"><ele>183.0</ele><time>2026-04-12T08:42:46Z</time></trkpt><trkpt lat="42.25192594187667" lon="14.226127538995506"><ele>183.0</ele><time>2026-04-12T08:42:47Z</time></trkpt><trkpt lat="42.252059010779966" lon="14.22601605653581"><ele>183.0</ele><time>2026-04-12T08:42:48Z</time></trkpt><trkpt lat="42.252218370405565" lon="14.225903028237173"><ele>183.0</ele><time>2026-04-12T08:42:49Z</time></trkpt><trkpt lat="42.25238931293931" lon="14.225794801242271"><ele>181.33333333333334</ele><time>2026-04-12T08:42:50Z</time></trkpt><trkpt lat="42.25257168392909" lon="14.225701156323062"><ele>179.66666666666669</ele><time>2026-04-12T08:42:51Z</time></trkpt><trkpt lat="42.25276083129414" lon="14.225610186802552"><ele>178.0</ele><time>2026-04-12T08:42:52Z</time></trkpt><trkpt lat="42.252956568952534" lon="14.225517235442867"><ele>174.66666666666669</ele><time>2026-04-12T08:42:53Z</time></trkpt><trkpt lat="42.2531535973132" lon="14.225422233897408"><ele>171.33333333333334</ele><time>2026-04-12T08:42:54Z</time></trkpt><trkpt lat="42.25334847156524" lon="14.225320354823033"><ele>168.0</ele><time>2026-04-12T08:42:55Z</time></trkpt><trkpt lat="42.253537307164386" lon="14.225218798743798"><ele>168.0</ele><time>2026-04-12T08:42:56Z</time></trkpt><trkpt lat="42.25372849314011" lon="14.2251158221284"><ele>168.0</ele><time>2026-04-12T08:42:57Z</time></trkpt><trkpt lat="42.25392022484765" lon="14.225015196882199"><ele>168.0</ele><time>2026-04-12T08:42:58Z</time></trkpt><trkpt lat="42.25410957726027" lon="14.224920280060127"><ele>168.0</ele><time>2026-04-12T08:42:59Z</time></trkpt><trkpt lat="42.25429227852349" lon="14.224843191419854"><ele>168.0</ele><time>2026-04-12T08:43:00Z</time></trkpt><trkpt lat="42.254471684767395" lon="14.224793149764869"><ele>168.0</ele><time>2026-04-12T08:43:01Z</time></trkpt><trkpt lat="42.25466363819145" lon="14.224807179933208"><ele>164.33333333333334</ele><time>2026-04-12T08:43:02Z</time></trkpt><trkpt lat="42.25486283081814" lon="14.224791528611638"><ele>160.66666666666669</ele><time>2026-04-12T08:43:03Z</time></trkpt><trkpt lat="42.255068386980454" lon="14.224805271302317"><ele>157.0</ele><time>2026-04-12T08:43:04Z</time></trkpt><trkpt lat="42.2552729380644" lon="14.22480806292926"><ele>157.0</ele><time>2026-04-12T08:43:05Z</time></trkpt><trkpt lat="42.255469301181385" lon="14.22480547654689"><ele>157.0</ele><time>2026-04-12T08:43:06Z</time></trkpt><trkpt lat="42.25563315172859" lon="14.224806484557568"><ele>157.0</ele><time>2026-04-12T08:43:07Z</time></trkpt><trkpt lat="42.25577839136086" lon="14.224848339939914"><ele>159.0</ele><time>2026-04-12T08:43:08Z</time></trkpt><trkpt lat="42.255911624458044" lon="14.224901427489431"><ele>161.0</ele><time>2026-04-12T08:43:09Z</time></trkpt><trkpt lat="42.256026072201244" lon="14.224946049298426"><ele>163.0</ele><time>2026-04-12T08:43:10Z</time></trkpt><trkpt lat="42.256122378869854" lon="14.224951711313603"><ele>165.0</ele><time>2026-04-12T08:43:11Z</time></trkpt><trkpt lat="42.25620362696526" lon="14.224960548038691"><ele>167.0</ele><time>2026-04-12T08:43:11.999Z</time></trkpt><trkpt lat="42.25628078260195" lon="14.224936754878092"><ele>167.0</ele><time>2026-04-12T08:43:12.999Z</time></trkpt><trkpt lat="42.25636988670688" lon="14.22484978771589"><ele>167.0</ele><time>2026-04-12T08:43:13.999Z</time></trkpt><trkpt lat="42.256447478135854" lon="14.22472796293763"><ele>167.0</ele><time>2026-04-12T08:43:14.999Z</time></trkpt><trkpt lat="42.2565179473547" lon="14.224587907250774"><ele>167.0</ele><time>2026-04-12T08:43:15.999Z</time></trkpt><trkpt lat="42.25659551484392" lon="14.224443984418851"><ele>166.2</ele><time>2026-04-12T08:43:16.999Z</time></trkpt><trkpt lat="42.25670106093212" lon="14.224338247400249"><ele>165.39999999999998</ele><time>2026-04-12T08:43:17.999Z</time></trkpt><trkpt lat="42.25679081510952" lon="14.224288087470303"><ele>164.60000000000002</ele><time>2026-04-12T08:43:18.999Z</time></trkpt><trkpt lat="42.256870480606224" lon="14.224273920863885"><ele>163.8</ele><time>2026-04-12T08:43:19.999Z</time></trkpt><trkpt lat="42.256954118256026" lon="14.224251119392623"><ele>163.0</ele><time>2026-04-12T08:43:20.999Z</time></trkpt><trkpt lat="42.25703255319269" lon="14.224033949416775"><ele>162.0</ele><time>2026-04-12T08:43:21.999Z</time></trkpt><trkpt lat="42.2571549743658" lon="14.223942521093559"><ele>161.0</ele><time>2026-04-12T08:43:22.999Z</time></trkpt><trkpt lat="42.25729121656763" lon="14.22385878064831"><ele>160.0</ele><time>2026-04-12T08:43:23.999Z</time></trkpt><trkpt lat="42.25742360128461" lon="14.223777997381376"><ele>159.0</ele><time>2026-04-12T08:43:24.999Z</time></trkpt><trkpt lat="42.25754400926788" lon="14.223706504383918"><ele>159.0</ele><time>2026-04-12T08:43:25.999Z</time></trkpt><trkpt lat="42.257654383353945" lon="14.223645844691635"><ele>159.0</ele><time>2026-04-12T08:43:26.999Z</time></trkpt><trkpt lat="42.25773440309654" lon="14.223565324813817"><ele>159.0</ele><time>2026-04-12T08:43:27.999Z</time></trkpt><trkpt lat="42.25777228997347" lon="14.22346789911059"><ele>159.0</ele><time>2026-04-12T08:43:28.999Z</time></trkpt><trkpt lat="42.25777039300758" lon="14.223343764884465"><ele>159.0</ele><time>2026-04-12T08:43:29.999Z</time></trkpt><trkpt lat="42.257726364959126" lon="14.223180319413041"><ele>158.33333333333334</ele><time>2026-04-12T08:43:30.999Z</time></trkpt><trkpt lat="42.257660380534205" lon="14.223011454677135"><ele>157.66666666666669</ele><time>2026-04-12T08:43:31.999Z</time></trkpt><trkpt lat="42.25758744995083" lon="14.222815256300056"><ele>157.0</ele><time>2026-04-12T08:43:32.999Z</time></trkpt><trkpt lat="42.2575163876185" lon="14.222611818201411"><ele>157.0</ele><time>2026-04-12T08:43:33.999Z</time></trkpt><trkpt lat="42.25743917617388" lon="14.222401377428822"><ele>157.0</ele><time>2026-04-12T08:43:34.999Z</time></trkpt><trkpt lat="42.25736842582889" lon="14.222186109820681"><ele>157.0</ele><time>2026-04-12T08:43:35.999Z</time></trkpt><trkpt lat="42.25729286720639" lon="14.221976087884633"><ele>158.0</ele><time>2026-04-12T08:43:36.999Z</time></trkpt><trkpt lat="42.25722268895646" lon="14.221768584851217"><ele>159.0</ele><time>2026-04-12T08:43:37.999Z</time></trkpt><trkpt lat="42.25716969542385" lon="14.22159046411585"><ele>160.0</ele><time>2026-04-12T08:43:38.999Z</time></trkpt><trkpt lat="42.2571503745889" lon="14.221427143052148"><ele>161.0</ele><time>2026-04-12T08:43:39.999Z</time></trkpt><trkpt lat="42.25717691131596" lon="14.221274388686034"><ele>162.25</ele><time>2026-04-12T08:43:40.999Z</time></trkpt><trkpt lat="42.25724227648255" lon="14.221121013405087"><ele>163.5</ele><time>2026-04-12T08:43:41.999Z</time></trkpt><trkpt lat="42.25733645159258" lon="14.220990823500117"><ele>164.75</ele><time>2026-04-12T08:43:42.999Z</time></trkpt><trkpt lat="42.25747505460981" lon="14.220924523794917"><ele>166.0</ele><time>2026-04-12T08:43:43.999Z</time></trkpt><trkpt lat="42.257607648275595" lon="14.220832057672604"><ele>166.0</ele><time>2026-04-12T08:43:44.999Z</time></trkpt><trkpt lat="42.257756236558706" lon="14.220778593375565"><ele>166.0</ele><time>2026-04-12T08:43:45.999Z</time></trkpt><trkpt lat="42.257890695029964" lon="14.220712211186646"><ele>166.0</ele><time>2026-04-12T08:43:46.999Z</time></trkpt><trkpt lat="42.25799260228061" lon="14.220643892660963"><ele>166.0</ele><time>2026-04-12T08:43:47.999Z</time></trkpt><trkpt lat="42.25806697831154" lon="14.220565938043157"><ele>168.8</ele><time>2026-04-12T08:43:48.999Z</time></trkpt><trkpt lat="42.25809613159929" lon="14.22045801475181"><ele>171.60000000000002</ele><time>2026-04-12T08:43:49.999Z</time></trkpt><trkpt lat="42.25807937123857" lon="14.22035679532407"><ele>174.4</ele><time>2026-04-12T08:43:50.999Z</time></trkpt><trkpt lat="42.25803373791337" lon="14.220237513387062"><ele>177.2</ele><time>2026-04-12T08:43:51.999Z</time></trkpt><trkpt lat="42.2579422644412" lon="14.220155930592956"><ele>180.0</ele><time>2026-04-12T08:43:52.999Z</time></trkpt><trkpt lat="42.257823868394766" lon="14.220118253513345"><ele>180.0</ele><time>2026-04-12T08:43:53.999Z</time></trkpt><trkpt lat="42.2576834038197" lon="14.220096079874917"><ele>180.0</ele><time>2026-04-12T08:43:54.999Z</time></trkpt><trkpt lat="42.25754605740704" lon="14.220059190293872"><ele>180.0</ele><time>2026-04-12T08:43:55.999Z</time></trkpt><trkpt lat="42.257392829189925" lon="14.220037101271368"><ele>180.0</ele><time>2026-04-12T08:43:56.999Z</time></trkpt><trkpt lat="42.2572341512506" lon="14.220007208835655"><ele>179.5</ele><time>2026-04-12T08:43:57.999Z</time></trkpt><trkpt lat="42.25707725111434" lon="14.219968897719758"><ele>179.0</ele><time>2026-04-12T08:43:58.999Z</time></trkpt><trkpt lat="42.256945054743404" lon="14.219924122702903"><ele>178.5</ele><time>2026-04-12T08:43:59.999Z</time></trkpt><trkpt lat="42.25683866148999" lon="14.219852206502562"><ele>178.0</ele><time>2026-04-12T08:44:00.999Z</time></trkpt><trkpt lat="42.256777519631534" lon="14.219751413687352"><ele>180.4</ele><time>2026-04-12T08:44:01.999Z</time></trkpt><trkpt lat="42.25674487981003" lon="14.219666155255036"><ele>182.8</ele><time>2026-04-12T08:44:02.999Z</time></trkpt><trkpt lat="42.256622005037684" lon="14.219603793462584"><ele>185.2</ele><time>2026-04-12T08:44:04.999Z</time></trkpt><trkpt lat="42.25652695800948" lon="14.219614707905086"><ele>187.6</ele><time>2026-04-12T08:44:05.999Z</time></trkpt><trkpt lat="42.256407244889886" lon="14.219633531230407"><ele>190.0</ele><time>2026-04-12T08:44:06.999Z</time></trkpt><trkpt lat="42.256296874638416" lon="14.219587881943777"><ele>190.0</ele><time>2026-04-12T08:44:07.999Z</time></trkpt><trkpt lat="42.25621846849862" lon="14.219518117048219"><ele>190.0</ele><time>2026-04-12T08:44:08.999Z</time></trkpt><trkpt lat="42.25617191522552" lon="14.21942189876762"><ele>190.0</ele><time>2026-04-12T08:44:09.999Z</time></trkpt><trkpt lat="42.25612194399424" lon="14.219364568046661"><ele>190.0</ele><time>2026-04-12T08:44:10.999Z</time></trkpt><trkpt lat="42.25603954494462" lon="14.219372217878055"><ele>190.0</ele><time>2026-04-12T08:44:11.999Z</time></trkpt><trkpt lat="42.2559534321125" lon="14.219410785303415"><ele>190.0</ele><time>2026-04-12T08:44:12.998Z</time></trkpt><trkpt lat="42.25589526349392" lon="14.219480960884892"><ele>190.0</ele><time>2026-04-12T08:44:13.998Z</time></trkpt><trkpt lat="42.255871849550054" lon="14.219584727810814"><ele>190.0</ele><time>2026-04-12T08:44:14.998Z</time></trkpt><trkpt lat="42.255926313200554" lon="14.219728920572551"><ele>190.0</ele><time>2026-04-12T08:44:15.998Z</time></trkpt><trkpt lat="42.255934716671945" lon="14.219877424135367"><ele>190.0</ele><time>2026-04-12T08:44:16.998Z</time></trkpt><trkpt lat="42.25591978871547" lon="14.220048614252825"><ele>190.0</ele><time>2026-04-12T08:44:17.998Z</time></trkpt><trkpt lat="42.25589382793971" lon="14.220234046324874"><ele>187.25</ele><time>2026-04-12T08:44:18.998Z</time></trkpt><trkpt lat="42.25586683542742" lon="14.220444935336058"><ele>184.5</ele><time>2026-04-12T08:44:20Z</time></trkpt><trkpt lat="42.25582914444892" lon="14.2206499806552"><ele>181.75</ele><time>2026-04-12T08:44:21Z</time></trkpt><trkpt lat="42.255785499779925" lon="14.220813777510141"><ele>179.0</ele><time>2026-04-12T08:44:22Z</time></trkpt><trkpt lat="42.25572854028135" lon="14.220915040430784"><ele>178.5</ele><time>2026-04-12T08:44:23Z</time></trkpt><trkpt lat="42.255661552968604" lon="14.22097765664958"><ele>178.0</ele><time>2026-04-12T08:44:24Z</time></trkpt><trkpt lat="42.25555189510013" lon="14.221041658581115"><ele>177.5</ele><time>2026-04-12T08:44:25Z</time></trkpt><trkpt lat="42.255412907627296" lon="14.221126218216098"><ele>177.0</ele><time>2026-04-12T08:44:26Z</time></trkpt><trkpt lat="42.25526239754532" lon="14.221217955646171"><ele>177.0</ele><time>2026-04-12T08:44:27Z</time></trkpt><trkpt lat="42.255102003646016" lon="14.221315717448062"><ele>177.0</ele><time>2026-04-12T08:44:28Z</time></trkpt><trkpt lat="42.254949406296674" lon="14.221414504832188"><ele>177.0</ele><time>2026-04-12T08:44:29Z</time></trkpt><trkpt lat="42.254822184089214" lon="14.22149913885477"><ele>175.39999999999998</ele><time>2026-04-12T08:44:30Z</time></trkpt><trkpt lat="42.25471807185343" lon="14.221558873225113"><ele>173.79999999999998</ele><time>2026-04-12T08:44:31Z</time></trkpt><trkpt lat="42.254623148215565" lon="14.221567057514077"><ele>172.2</ele><time>2026-04-12T08:44:32Z</time></trkpt><trkpt lat="42.254542274171" lon="14.221516934265884"><ele>170.6</ele><time>2026-04-12T08:44:33Z</time></trkpt><trkpt lat="42.25445365041056" lon="14.221446098029968"><ele>169.0</ele><time>2026-04-12T08:44:34Z</time></trkpt><trkpt lat="42.2543871743384" lon="14.221306373636066"><ele>169.0</ele><time>2026-04-12T08:44:35Z</time></trkpt><trkpt lat="42.25430966394303" lon="14.221200544424052"><ele>169.0</ele><time>2026-04-12T08:44:36Z</time></trkpt><trkpt lat="42.25426637487342" lon="14.221114390858103"><ele>169.0</ele><time>2026-04-12T08:44:37Z</time></trkpt><trkpt lat="42.25420889414148" lon="14.221062446583527"><ele>169.0</ele><time>2026-04-12T08:44:38Z</time></trkpt><trkpt lat="42.2541276082334" lon="14.221107346652323"><ele>169.0</ele><time>2026-04-12T08:44:39Z</time></trkpt><trkpt lat="42.25403313860527" lon="14.221136500000284"><ele>169.0</ele><time>2026-04-12T08:44:40Z</time></trkpt><trkpt lat="42.253949891078776" lon="14.22115470049247"><ele>169.2</ele><time>2026-04-12T08:44:41Z</time></trkpt><trkpt lat="42.253888444017576" lon="14.22112585937666"><ele>169.39999999999998</ele><time>2026-04-12T08:44:42Z</time></trkpt><trkpt lat="42.25385472013054" lon="14.221011610440693"><ele>169.6</ele><time>2026-04-12T08:44:43Z</time></trkpt><trkpt lat="42.25379538406792" lon="14.220896747218212"><ele>169.8</ele><time>2026-04-12T08:44:44Z</time></trkpt><trkpt lat="42.2537167507289" lon="14.220776758558783"><ele>170.0</ele><time>2026-04-12T08:44:45Z</time></trkpt><trkpt lat="42.253647890112056" lon="14.220651139349904"><ele>170.25</ele><time>2026-04-12T08:44:46Z</time></trkpt><trkpt lat="42.253581886201886" lon="14.220563967286152"><ele>170.5</ele><time>2026-04-12T08:44:47Z</time></trkpt><trkpt lat="42.253451493635396" lon="14.220572036872838"><ele>170.75</ele><time>2026-04-12T08:44:48Z</time></trkpt><trkpt lat="42.253313619131454" lon="14.220586217766842"><ele>171.0</ele><time>2026-04-12T08:44:49Z</time></trkpt><trkpt lat="42.25317472960111" lon="14.220576637544037"><ele>172.5</ele><time>2026-04-12T08:44:50Z</time></trkpt><trkpt lat="42.25303145850908" lon="14.22057454217359"><ele>174.0</ele><time>2026-04-12T08:44:51Z</time></trkpt><trkpt lat="42.25287461462687" lon="14.220571143910322"><ele>175.5</ele><time>2026-04-12T08:44:52Z</time></trkpt><trkpt lat="42.252727969736625" lon="14.220562869114477"><ele>177.0</ele><time>2026-04-12T08:44:53Z</time></trkpt><trkpt lat="42.25265962468291" lon="14.220563273434536"><ele>177.0</ele><time>2026-04-12T08:44:54Z</time></trkpt><trkpt lat="42.25257915556528" lon="14.220518021359634"><ele>177.0</ele><time>2026-04-12T08:44:59Z</time></trkpt><trkpt lat="42.25245522531693" lon="14.220491690125574"><ele>177.0</ele><time>2026-04-12T08:45:00Z</time></trkpt><trkpt lat="42.252308728035985" lon="14.220443595821157"><ele>177.0</ele><time>2026-04-12T08:45:01Z</time></trkpt><trkpt lat="42.25219749046316" lon="14.220399301279695"><ele>178.6</ele><time>2026-04-12T08:45:02Z</time></trkpt><trkpt lat="42.252105984417994" lon="14.220358173354468"><ele>180.2</ele><time>2026-04-12T08:45:03Z</time></trkpt><trkpt lat="42.25200871739426" lon="14.22031445604027"><ele>181.8</ele><time>2026-04-12T08:45:04Z</time></trkpt><trkpt lat="42.25190985102658" lon="14.220270019848673"><ele>183.4</ele><time>2026-04-12T08:45:05Z</time></trkpt><trkpt lat="42.2517903493779" lon="14.220216308919388"><ele>185.0</ele><time>2026-04-12T08:45:06Z</time></trkpt><trkpt lat="42.251665870998316" lon="14.220160364538044"><ele>185.0</ele><time>2026-04-12T08:45:07Z</time></trkpt><trkpt lat="42.251574725108014" lon="14.220081965403034"><ele>185.0</ele><time>2026-04-12T08:45:08Z</time></trkpt><trkpt lat="42.25149106329353" lon="14.220034623550776"><ele>185.0</ele><time>2026-04-12T08:45:09Z</time></trkpt><trkpt lat="42.25142840660672" lon="14.219998650510899"><ele>185.0</ele><time>2026-04-12T08:45:10Z</time></trkpt><trkpt lat="42.25138403137341" lon="14.218967607443357"><ele>187.5</ele><time>2026-04-12T08:45:11Z</time></trkpt><trkpt lat="42.25126768210878" lon="14.218837562069318"><ele>190.0</ele><time>2026-04-12T08:45:12Z</time></trkpt><trkpt lat="42.25115724233358" lon="14.218704964257407"><ele>192.5</ele><time>2026-04-12T08:45:13Z</time></trkpt><trkpt lat="42.25105319220001" lon="14.218572583497387"><ele>195.0</ele><time>2026-04-12T08:45:13.999Z</time></trkpt><trkpt lat="42.250953565774765" lon="14.218447977476275"><ele>195.0</ele><time>2026-04-12T08:45:14.999Z</time></trkpt><trkpt lat="42.2508498506611" lon="14.218319791978807"><ele>195.0</ele><time>2026-04-12T08:45:15.999Z</time></trkpt><trkpt lat="42.250742294891914" lon="14.218180326095753"><ele>195.0</ele><time>2026-04-12T08:45:16.999Z</time></trkpt><trkpt lat="42.250631811542675" lon="14.218042285324595"><ele>195.0</ele><time>2026-04-12T08:45:17.999Z</time></trkpt><trkpt lat="42.250521008103455" lon="14.217901894094263"><ele>197.75</ele><time>2026-04-12T08:45:18.999Z</time></trkpt><trkpt lat="42.250429191463574" lon="14.217787619238344"><ele>200.5</ele><time>2026-04-12T08:45:19.999Z</time></trkpt><trkpt lat="42.25032651592644" lon="14.217659149302053"><ele>203.25</ele><time>2026-04-12T08:45:20.999Z</time></trkpt><trkpt lat="42.250260226050074" lon="14.217612903740694"><ele>206.0</ele><time>2026-04-12T08:45:21.999Z</time></trkpt><trkpt lat="42.25014583590232" lon="14.21762153560817"><ele>206.0</ele><time>2026-04-12T08:45:23.999Z</time></trkpt><trkpt lat="42.25014444079084" lon="14.217768048097637"><ele>206.0</ele><time>2026-04-12T08:45:24.999Z</time></trkpt><trkpt lat="42.25009948144175" lon="14.217856581955118"><ele>206.0</ele><time>2026-04-12T08:45:26.999Z</time></trkpt><trkpt lat="42.250055874169014" lon="14.217953658569096"><ele>206.0</ele><time>2026-04-12T08:45:27.999Z</time></trkpt><trkpt lat="42.24998622597686" lon="14.218047294612589"><ele>206.0</ele><time>2026-04-12T08:45:28.999Z</time></trkpt><trkpt lat="42.24991088628403" lon="14.218140015116257"><ele>205.60000000000002</ele><time>2026-04-12T08:45:29.999Z</time></trkpt><trkpt lat="42.24984921994778" lon="14.21823851943092"><ele>205.2</ele><time>2026-04-12T08:45:30.999Z</time></trkpt><trkpt lat="42.24982418396402" lon="14.218388139054456"><ele>204.8</ele><time>2026-04-12T08:45:31.999Z</time></trkpt><trkpt lat="42.249778068869645" lon="14.21852284890782"><ele>204.39999999999998</ele><time>2026-04-12T08:45:32.999Z</time></trkpt><trkpt lat="42.24973188635362" lon="14.218651054572819"><ele>204.0</ele><time>2026-04-12T08:45:33.999Z</time></trkpt><trkpt lat="42.24969414504099" lon="14.218773482692312"><ele>206.79999999999998</ele><time>2026-04-12T08:45:34.999Z</time></trkpt><trkpt lat="42.24966695137541" lon="14.218901091786735"><ele>209.6</ele><time>2026-04-12T08:45:35.999Z</time></trkpt><trkpt lat="42.2496369740141" lon="14.219052807555192"><ele>212.4</ele><time>2026-04-12T08:45:36.999Z</time></trkpt><trkpt lat="42.249563693827085" lon="14.219168117156286"><ele>215.2</ele><time>2026-04-12T08:45:37.999Z</time></trkpt><trkpt lat="42.24951513431293" lon="14.219267629917967"><ele>218.0</ele><time>2026-04-12T08:45:38.999Z</time></trkpt><trkpt lat="42.24946156422114" lon="14.219380297624316"><ele>218.0</ele><time>2026-04-12T08:45:39.999Z</time></trkpt><trkpt lat="42.249422580097566" lon="14.219479178220082"><ele>218.0</ele><time>2026-04-12T08:45:40.999Z</time></trkpt><trkpt lat="42.24939444540395" lon="14.219565647895786"><ele>218.0</ele><time>2026-04-12T08:45:41.999Z</time></trkpt><trkpt lat="42.24930412711564" lon="14.219577005424638"><ele>218.0</ele><time>2026-04-12T08:45:44.999Z</time></trkpt><trkpt lat="42.249196801100496" lon="14.219537373899172"><ele>218.0</ele><time>2026-04-12T08:45:46.999Z</time></trkpt><trkpt lat="42.249103196320256" lon="14.219484225392724"><ele>218.00000000000003</ele><time>2026-04-12T08:45:47.999Z</time></trkpt><trkpt lat="42.24900641220209" lon="14.21944261270916"><ele>218.0</ele><time>2026-04-12T08:45:48.999Z</time></trkpt><trkpt lat="42.24894045675027" lon="14.219421026151712"><ele>218.0</ele><time>2026-04-12T08:45:49.999Z</time></trkpt><trkpt lat="42.24889171082275" lon="14.21935721525687"><ele>218.0</ele><time>2026-04-12T08:45:50.999Z</time></trkpt><trkpt lat="42.24884087625823" lon="14.219276260327593"><ele>218.00000000000003</ele><time>2026-04-12T08:45:51.999Z</time></trkpt><trkpt lat="42.2488153178526" lon="14.219145684744149"><ele>218.0</ele><time>2026-04-12T08:45:52.999Z</time></trkpt><trkpt lat="42.24880595493501" lon="14.218968974028325"><ele>218.33333333333334</ele><time>2026-04-12T08:45:53.999Z</time></trkpt><trkpt lat="42.2488494018347" lon="14.21879123458207"><ele>218.66666666666669</ele><time>2026-04-12T08:45:54.999Z</time></trkpt><trkpt lat="42.24888976626713" lon="14.21856415870383"><ele>219.0</ele><time>2026-04-12T08:45:55.999Z</time></trkpt><trkpt lat="42.24886566254587" lon="14.218376431842097"><ele>219.0</ele><time>2026-04-12T08:45:56.999Z</time></trkpt><trkpt lat="42.248811891546815" lon="14.218214398331632"><ele>219.0</ele><time>2026-04-12T08:45:57.999Z</time></trkpt><trkpt lat="42.24874621449534" lon="14.21811819829623"><ele>219.0</ele><time>2026-04-12T08:45:58.999Z</time></trkpt><trkpt lat="42.24872645225214" lon="14.217968048424103"><ele>219.0</ele><time>2026-04-12T08:45:59.999Z</time></trkpt><trkpt lat="42.24869228192918" lon="14.217808670356593"><ele>223.0</ele><time>2026-04-12T08:46:00.999Z</time></trkpt><trkpt lat="42.24865682350056" lon="14.217616454144535"><ele>227.0</ele><time>2026-04-12T08:46:01.999Z</time></trkpt><trkpt lat="42.24862914916861" lon="14.217436550343105"><ele>231.0</ele><time>2026-04-12T08:46:02.999Z</time></trkpt><trkpt lat="42.24860390943241" lon="14.217256023930364"><ele>235.0</ele><time>2026-04-12T08:46:03.999Z</time></trkpt><trkpt lat="42.24857873904237" lon="14.217075782591957"><ele>238.75</ele><time>2026-04-12T08:46:04.999Z</time></trkpt><trkpt lat="42.2485180941002" lon="14.216897511725424"><ele>242.5</ele><time>2026-04-12T08:46:05.999Z</time></trkpt><trkpt lat="42.248438515008715" lon="14.216730102604172"><ele>246.25</ele><time>2026-04-12T08:46:06.999Z</time></trkpt><trkpt lat="42.24838178814731" lon="14.216557339137097"><ele>250.0</ele><time>2026-04-12T08:46:07.999Z</time></trkpt><trkpt lat="42.24834388684216" lon="14.216408916011277"><ele>252.75</ele><time>2026-04-12T08:46:08.999Z</time></trkpt><trkpt lat="42.2483053014249" lon="14.216258352635473"><ele>255.5</ele><time>2026-04-12T08:46:09.999Z</time></trkpt><trkpt lat="42.24825434696099" lon="14.216084470517675"><ele>258.25</ele><time>2026-04-12T08:46:10.999Z</time></trkpt><trkpt lat="42.2482133011353" lon="14.215941524561515"><ele>261.0</ele><time>2026-04-12T08:46:11.999Z</time></trkpt><trkpt lat="42.248182833318445" lon="14.215813289647844"><ele>261.0</ele><time>2026-04-12T08:46:12.999Z</time></trkpt><trkpt lat="42.24813385041336" lon="14.215679937408629"><ele>261.0</ele><time>2026-04-12T08:46:13.998Z</time></trkpt><trkpt lat="42.24805815982566" lon="14.215535040188245"><ele>261.0</ele><time>2026-04-12T08:46:14.998Z</time></trkpt><trkpt lat="42.247980678345286" lon="14.215374123479409"><ele>261.0</ele><time>2026-04-12T08:46:15.998Z</time></trkpt><trkpt lat="42.247922630807054" lon="14.215217843833344"><ele>261.6</ele><time>2026-04-12T08:46:16.998Z</time></trkpt><trkpt lat="42.24787985827312" lon="14.215067805859027"><ele>262.20000000000005</ele><time>2026-04-12T08:46:17.998Z</time></trkpt><trkpt lat="42.247845578809375" lon="14.21493263516571"><ele>262.79999999999995</ele><time>2026-04-12T08:46:18.998Z</time></trkpt><trkpt lat="42.24784502116998" lon="14.21480549735477"><ele>263.4</ele><time>2026-04-12T08:46:19.998Z</time></trkpt><trkpt lat="42.247868974567844" lon="14.214673227723324"><ele>264.0</ele><time>2026-04-12T08:46:20.998Z</time></trkpt><trkpt lat="42.247897031758214" lon="14.21452489668958"><ele>264.0</ele><time>2026-04-12T08:46:21.998Z</time></trkpt><trkpt lat="42.24789153808885" lon="14.214396423831268"><ele>264.0</ele><time>2026-04-12T08:46:22.998Z</time></trkpt><trkpt lat="42.247868632486274" lon="14.21428325313928"><ele>264.0</ele><time>2026-04-12T08:46:23.998Z</time></trkpt><trkpt lat="42.24782341297179" lon="14.214134746176121"><ele>264.0</ele><time>2026-04-12T08:46:25Z</time></trkpt><trkpt lat="42.247783380861485" lon="14.213996324150148"><ele>264.0</ele><time>2026-04-12T08:46:26Z</time></trkpt><trkpt lat="42.24774518727191" lon="14.213869823985684"><ele>265.6666666666667</ele><time>2026-04-12T08:46:27Z</time></trkpt><trkpt lat="42.24769170262618" lon="14.213743726650447"><ele>267.3333333333333</ele><time>2026-04-12T08:46:28Z</time></trkpt><trkpt lat="42.247626079151466" lon="14.213647315512347"><ele>269.0</ele><time>2026-04-12T08:46:29Z</time></trkpt><trkpt lat="42.24757224039382" lon="14.213592470436204"><ele>270.66666666666663</ele><time>2026-04-12T08:46:30Z</time></trkpt><trkpt lat="42.24756818957307" lon="14.213505728631732"><ele>272.3333333333333</ele><time>2026-04-12T08:46:31Z</time></trkpt><trkpt lat="42.247565356013965" lon="14.213395594666558"><ele>274.0</ele><time>2026-04-12T08:46:32Z</time></trkpt><trkpt lat="42.247545694606735" lon="14.213234388519313"><ele>274.5</ele><time>2026-04-12T08:46:33Z</time></trkpt><trkpt lat="42.24751224732344" lon="14.213052793467758"><ele>275.0</ele><time>2026-04-12T08:46:34Z</time></trkpt><trkpt lat="42.24748992538121" lon="14.212877256635894"><ele>275.5</ele><time>2026-04-12T08:46:35Z</time></trkpt><trkpt lat="42.24748410493454" lon="14.212698606428873"><ele>276.0</ele><time>2026-04-12T08:46:36Z</time></trkpt><trkpt lat="42.2474774871843" lon="14.21251914278949"><ele>276.0</ele><time>2026-04-12T08:46:37Z</time></trkpt><trkpt lat="42.24746979354756" lon="14.212342480430275"><ele>276.0</ele><time>2026-04-12T08:46:38Z</time></trkpt><trkpt lat="42.24743889515424" lon="14.212150455726976"><ele>276.0</ele><time>2026-04-12T08:46:39Z</time></trkpt><trkpt lat="42.24739736161972" lon="14.211965388675525"><ele>276.0</ele><time>2026-04-12T08:46:40Z</time></trkpt><trkpt lat="42.247350691017644" lon="14.211795034305752"><ele>277.0</ele><time>2026-04-12T08:46:41Z</time></trkpt><trkpt lat="42.24729750194295" lon="14.211639995682292"><ele>278.0</ele><time>2026-04-12T08:46:42Z</time></trkpt><trkpt lat="42.24722816963276" lon="14.211522177391823"><ele>279.0</ele><time>2026-04-12T08:46:43Z</time></trkpt><trkpt lat="42.247175916928384" lon="14.211444048831627"><ele>280.0</ele><time>2026-04-12T08:46:44Z</time></trkpt><trkpt lat="42.2472618868555" lon="14.211211453846229"><ele>282.4</ele><time>2026-04-12T08:46:46Z</time></trkpt><trkpt lat="42.24733521661685" lon="14.211066105224202"><ele>284.8</ele><time>2026-04-12T08:46:47Z</time></trkpt><trkpt lat="42.24735219274578" lon="14.210976893773484"><ele>287.2</ele><time>2026-04-12T08:46:48Z</time></trkpt><trkpt lat="42.24735059927067" lon="14.210840974175387"><ele>289.6</ele><time>2026-04-12T08:46:49Z</time></trkpt><trkpt lat="42.247319616062704" lon="14.21064659501121"><ele>292.0</ele><time>2026-04-12T08:46:50Z</time></trkpt><trkpt lat="42.247290997303935" lon="14.210502115473627"><ele>293.0</ele><time>2026-04-12T08:46:51Z</time></trkpt><trkpt lat="42.24727646270105" lon="14.210394686281754"><ele>294.0</ele><time>2026-04-12T08:46:52Z</time></trkpt><trkpt lat="42.24728182147628" lon="14.210267113882665"><ele>295.0</ele><time>2026-04-12T08:46:53Z</time></trkpt><trkpt lat="42.24730314326333" lon="14.210165340543332"><ele>296.0</ele><time>2026-04-12T08:46:54Z</time></trkpt><trkpt lat="42.247335098229875" lon="14.210057667266199"><ele>297.0</ele><time>2026-04-12T08:46:55Z</time></trkpt><trkpt lat="42.247349487070295" lon="14.209865831216147"><ele>301.5</ele><time>2026-04-12T08:46:56Z</time></trkpt><trkpt lat="42.24735880042571" lon="14.20969230482664"><ele>306.0</ele><time>2026-04-12T08:46:57Z</time></trkpt><trkpt lat="42.24736991227101" lon="14.20954216289115"><ele>310.5</ele><time>2026-04-12T08:46:58Z</time></trkpt><trkpt lat="42.24736270977882" lon="14.209410095907081"><ele>315.0</ele><time>2026-04-12T08:46:59Z</time></trkpt><trkpt lat="42.247324360567404" lon="14.209265686679693"><ele>315.0</ele><time>2026-04-12T08:47:00Z</time></trkpt><trkpt lat="42.24728031548573" lon="14.209120554368521"><ele>315.0</ele><time>2026-04-12T08:47:01Z</time></trkpt><trkpt lat="42.24726068711624" lon="14.20899605044367"><ele>315.0</ele><time>2026-04-12T08:47:02Z</time></trkpt><trkpt lat="42.24722001023328" lon="14.208908292697842"><ele>315.0</ele><time>2026-04-12T08:47:03Z</time></trkpt><trkpt lat="42.24715409396337" lon="14.208852907985467"><ele>315.0</ele><time>2026-04-12T08:47:04Z</time></trkpt><trkpt lat="42.24705878174511" lon="14.208908069893369"><ele>318.2</ele><time>2026-04-12T08:47:05Z</time></trkpt><trkpt lat="42.24695134301723" lon="14.208944240842904"><ele>321.4</ele><time>2026-04-12T08:47:06Z</time></trkpt><trkpt lat="42.246842489607175" lon="14.208953147394926"><ele>324.6</ele><time>2026-04-12T08:47:07Z</time></trkpt><trkpt lat="42.246769438153905" lon="14.208925207097042"><ele>327.8</ele><time>2026-04-12T08:47:08Z</time></trkpt><trkpt lat="42.24673184432335" lon="14.208809867214336"><ele>331.0</ele><time>2026-04-12T08:47:09Z</time></trkpt><trkpt lat="42.24671939974023" lon="14.20869884887164"><ele>331.0</ele><time>2026-04-12T08:47:10Z</time></trkpt><trkpt lat="42.246696869111" lon="14.208566062602971"><ele>331.0</ele><time>2026-04-12T08:47:11Z</time></trkpt><trkpt lat="42.246646589446065" lon="14.208460932760142"><ele>331.0</ele><time>2026-04-12T08:47:12Z</time></trkpt><trkpt lat="42.24658108801111" lon="14.208367548452275"><ele>331.0</ele><time>2026-04-12T08:47:13Z</time></trkpt><trkpt lat="42.24649794041804" lon="14.208262666820445"><ele>331.0</ele><time>2026-04-12T08:47:14Z</time></trkpt><trkpt lat="42.24641973699287" lon="14.208153824894822"><ele>330.75</ele><time>2026-04-12T08:47:15Z</time></trkpt><trkpt lat="42.2463665909167" lon="14.208044564062218"><ele>330.5</ele><time>2026-04-12T08:47:16Z</time></trkpt><trkpt lat="42.24634316548418" lon="14.207903437685358"><ele>330.25</ele><time>2026-04-12T08:47:17Z</time></trkpt><trkpt lat="42.246302756261265" lon="14.207710774921885"><ele>330.0</ele><time>2026-04-12T08:47:17.999Z</time></trkpt><trkpt lat="42.246266387169" lon="14.2075511156074"><ele>330.0</ele><time>2026-04-12T08:47:18.999Z</time></trkpt><trkpt lat="42.24626119710462" lon="14.207420233817343"><ele>330.0</ele><time>2026-04-12T08:47:19.999Z</time></trkpt><trkpt lat="42.246263397437914" lon="14.207277909626669"><ele>330.0</ele><time>2026-04-12T08:47:20.999Z</time></trkpt><trkpt lat="42.24623833562125" lon="14.207112982357973"><ele>330.0</ele><time>2026-04-12T08:47:21.999Z</time></trkpt><trkpt lat="42.246213219850056" lon="14.207012351468126"><ele>330.0</ele><time>2026-04-12T08:47:22.999Z</time></trkpt><trkpt lat="42.246194087783486" lon="14.206873492994683"><ele>332.8</ele><time>2026-04-12T08:47:23.999Z</time></trkpt><trkpt lat="42.246176293990146" lon="14.206720212129918"><ele>335.6</ele><time>2026-04-12T08:47:24.999Z</time></trkpt><trkpt lat="42.246173592431205" lon="14.206578188778085"><ele>338.4</ele><time>2026-04-12T08:47:25.999Z</time></trkpt><trkpt lat="42.24617962145373" lon="14.20645358698517"><ele>341.2</ele><time>2026-04-12T08:47:26.999Z</time></trkpt><trkpt lat="42.24620617427835" lon="14.206349197972907"><ele>344.0</ele><time>2026-04-12T08:47:27.999Z</time></trkpt><trkpt lat="42.24625643307573" lon="14.206240208550744"><ele>345.6666666666667</ele><time>2026-04-12T08:47:28.999Z</time></trkpt><trkpt lat="42.24630376696107" lon="14.206141267415484"><ele>347.33333333333337</ele><time>2026-04-12T08:47:29.999Z</time></trkpt><trkpt lat="42.24635522721869" lon="14.206050574401774"><ele>349.0</ele><time>2026-04-12T08:47:30.999Z</time></trkpt><trkpt lat="42.24640825375363" lon="14.205966819295181"><ele>350.6666666666667</ele><time>2026-04-12T08:47:31.999Z</time></trkpt><trkpt lat="42.246470777636226" lon="14.2058719421616"><ele>352.3333333333333</ele><time>2026-04-12T08:47:32.999Z</time></trkpt><trkpt lat="42.24650103512925" lon="14.205789696370719"><ele>354.0</ele><time>2026-04-12T08:47:33.999Z</time></trkpt><trkpt lat="42.24650409590854" lon="14.20567895723208"><ele>357.8333333333333</ele><time>2026-04-12T08:47:34.999Z</time></trkpt><trkpt lat="42.24644671920679" lon="14.205596009604355"><ele>361.6666666666667</ele><time>2026-04-12T08:47:35.999Z</time></trkpt><trkpt lat="42.24638350257255" lon="14.205538792928078"><ele>365.5</ele><time>2026-04-12T08:47:36.999Z</time></trkpt><trkpt lat="42.24630513336854" lon="14.205477826677276"><ele>369.33333333333337</ele><time>2026-04-12T08:47:37.999Z</time></trkpt><trkpt lat="42.24624113230102" lon="14.205394974756612"><ele>373.1666666666667</ele><time>2026-04-12T08:47:38.999Z</time></trkpt><trkpt lat="42.24616822835641" lon="14.205300770015612"><ele>377.0</ele><time>2026-04-12T08:47:39.999Z</time></trkpt><trkpt lat="42.246107898850006" lon="14.205188193157252"><ele>377.0</ele><time>2026-04-12T08:47:40.999Z</time></trkpt><trkpt lat="42.246029455049566" lon="14.205092741002112"><ele>377.0</ele><time>2026-04-12T08:47:41.999Z</time></trkpt><trkpt lat="42.24597001149996" lon="14.205007893963048"><ele>377.0</ele><time>2026-04-12T08:47:42.999Z</time></trkpt><trkpt lat="42.24589252901461" lon="14.204830721438967"><ele>377.0</ele><time>2026-04-12T08:47:44.999Z</time></trkpt><trkpt lat="42.245848096070915" lon="14.204693941856783"><ele>377.8</ele><time>2026-04-12T08:47:45.999Z</time></trkpt><trkpt lat="42.245850413155644" lon="14.204575197685598"><ele>378.6</ele><time>2026-04-12T08:47:46.999Z</time></trkpt><trkpt lat="42.245882764218244" lon="14.204446971238225"><ele>379.40000000000003</ele><time>2026-04-12T08:47:47.999Z</time></trkpt><trkpt lat="42.2459564219325" lon="14.204322054374332"><ele>380.20000000000005</ele><time>2026-04-12T08:47:48.999Z</time></trkpt><trkpt lat="42.24602209273488" lon="14.204174081638472"><ele>381.0</ele><time>2026-04-12T08:47:49.999Z</time></trkpt><trkpt lat="42.24604410006415" lon="14.204008780710778"><ele>382.75</ele><time>2026-04-12T08:47:50.999Z</time></trkpt><trkpt lat="42.24608245631477" lon="14.203852485073172"><ele>384.5</ele><time>2026-04-12T08:47:51.999Z</time></trkpt><trkpt lat="42.24609128483641" lon="14.203672468715755"><ele>386.25</ele><time>2026-04-12T08:47:52.999Z</time></trkpt><trkpt lat="42.24606928520121" lon="14.203487178045496"><ele>388.0</ele><time>2026-04-12T08:47:53.999Z</time></trkpt><trkpt lat="42.246041749859025" lon="14.203316190414428"><ele>389.5</ele><time>2026-04-12T08:47:54.999Z</time></trkpt><trkpt lat="42.245995568844776" lon="14.203143037275739"><ele>391.0</ele><time>2026-04-12T08:47:55.999Z</time></trkpt><trkpt lat="42.245920782017556" lon="14.202980172982818"><ele>392.5</ele><time>2026-04-12T08:47:56.999Z</time></trkpt><trkpt lat="42.245857246804356" lon="14.202856322677391"><ele>394.0</ele><time>2026-04-12T08:47:57.999Z</time></trkpt><trkpt lat="42.24572043270784" lon="14.202742556587102"><ele>394.0</ele><time>2026-04-12T08:47:59.999Z</time></trkpt><trkpt lat="42.2456289254464" lon="14.202718816275656"><ele>394.0</ele><time>2026-04-12T08:48:00.999Z</time></trkpt><trkpt lat="42.245567362534935" lon="14.202650683653147"><ele>394.0</ele><time>2026-04-12T08:48:01.999Z</time></trkpt><trkpt lat="42.24552533125002" lon="14.20252864545369"><ele>394.0</ele><time>2026-04-12T08:48:02.999Z</time></trkpt><trkpt lat="42.24545970779781" lon="14.202405963043127"><ele>394.0</ele><time>2026-04-12T08:48:03.999Z</time></trkpt><trkpt lat="42.245443272386204" lon="14.202309298551244"><ele>396.0</ele><time>2026-04-12T08:48:04.999Z</time></trkpt><trkpt lat="42.24533488046402" lon="14.20249289850482"><ele>398.0</ele><time>2026-04-12T08:48:08.999Z</time></trkpt><trkpt lat="42.24530033992151" lon="14.202641216360018"><ele>400.0</ele><time>2026-04-12T08:48:09.999Z</time></trkpt><trkpt lat="42.24523267001581" lon="14.202778429562585"><ele>402.0</ele><time>2026-04-12T08:48:10.999Z</time></trkpt><trkpt lat="42.245119747781516" lon="14.202856127909344"><ele>402.0</ele><time>2026-04-12T08:48:11.999Z</time></trkpt><trkpt lat="42.244983505153634" lon="14.202920240663259"><ele>402.0</ele><time>2026-04-12T08:48:12.999Z</time></trkpt><trkpt lat="42.24481948530375" lon="14.202985064715907"><ele>402.0</ele><time>2026-04-12T08:48:13.999Z</time></trkpt><trkpt lat="42.24469487319382" lon="14.20306197271757"><ele>401.5</ele><time>2026-04-12T08:48:14.999Z</time></trkpt><trkpt lat="42.24458488217617" lon="14.203140916208254"><ele>401.0</ele><time>2026-04-12T08:48:15.999Z</time></trkpt><trkpt lat="42.24451089402014" lon="14.203238027804167"><ele>400.5</ele><time>2026-04-12T08:48:16.999Z</time></trkpt><trkpt lat="42.24445411070339" lon="14.203392586944512"><ele>400.0</ele><time>2026-04-12T08:48:17.999Z</time></trkpt><trkpt lat="42.24441562963411" lon="14.203590676159445"><ele>400.0</ele><time>2026-04-12T08:48:18.998Z</time></trkpt><trkpt lat="42.24439312457422" lon="14.203807067551839"><ele>400.0</ele><time>2026-04-12T08:48:19.998Z</time></trkpt><trkpt lat="42.24434663511578" lon="14.204029219968039"><ele>400.0</ele><time>2026-04-12T08:48:20.998Z</time></trkpt><trkpt lat="42.244307510121665" lon="14.204222161886102"><ele>398.75</ele><time>2026-04-12T08:48:21.998Z</time></trkpt><trkpt lat="42.244242663684965" lon="14.204381107767837"><ele>397.5</ele><time>2026-04-12T08:48:22.998Z</time></trkpt><trkpt lat="42.24414936087849" lon="14.204523962147759"><ele>396.25</ele><time>2026-04-12T08:48:23.998Z</time></trkpt><trkpt lat="42.24402206391963" lon="14.204676897835535"><ele>395.0</ele><time>2026-04-12T08:48:24.998Z</time></trkpt><trkpt lat="42.243886605036614" lon="14.204831807868375"><ele>395.0</ele><time>2026-04-12T08:48:25.998Z</time></trkpt><trkpt lat="42.24377171120168" lon="14.205004201200898"><ele>395.0</ele><time>2026-04-12T08:48:26.998Z</time></trkpt><trkpt lat="42.24366583421937" lon="14.20518572080156"><ele>395.0</ele><time>2026-04-12T08:48:27.998Z</time></trkpt><trkpt lat="42.24359484447737" lon="14.20540913011303"><ele>395.0</ele><time>2026-04-12T08:48:28.998Z</time></trkpt><trkpt lat="42.243547961503886" lon="14.205604726495203"><ele>395.0</ele><time>2026-04-12T08:48:30Z</time></trkpt><trkpt lat="42.24348321464229" lon="14.205783629492268"><ele>395.0</ele><time>2026-04-12T08:48:31Z</time></trkpt><trkpt lat="42.24337794288064" lon="14.205940147949839"><ele>396.3333333333333</ele><time>2026-04-12T08:48:32Z</time></trkpt><trkpt lat="42.24324553602777" lon="14.20606496158591"><ele>397.66666666666663</ele><time>2026-04-12T08:48:33Z</time></trkpt><trkpt lat="42.24309738290369" lon="14.20618021910242"><ele>399.0</ele><time>2026-04-12T08:48:34Z</time></trkpt><trkpt lat="42.24295508902094" lon="14.206298225675626"><ele>399.0</ele><time>2026-04-12T08:48:35Z</time></trkpt><trkpt lat="42.24280715931745" lon="14.206407988854808"><ele>399.0</ele><time>2026-04-12T08:48:36Z</time></trkpt><trkpt lat="42.242660369682326" lon="14.206534117571877"><ele>399.0</ele><time>2026-04-12T08:48:37Z</time></trkpt><trkpt lat="42.24253054907137" lon="14.20666492639631"><ele>392.0</ele><time>2026-04-12T08:48:38Z</time></trkpt><trkpt lat="42.24240324684173" lon="14.206767617616057"><ele>385.0</ele><time>2026-04-12T08:48:39Z</time></trkpt><trkpt lat="42.24226945130426" lon="14.206849595507418"><ele>378.0</ele><time>2026-04-12T08:48:40Z</time></trkpt><trkpt lat="42.24211371655268" lon="14.206888784428685"><ele>378.0</ele><time>2026-04-12T08:48:41Z</time></trkpt><trkpt lat="42.24195302741993" lon="14.20691557171331"><ele>378.0</ele><time>2026-04-12T08:48:42Z</time></trkpt><trkpt lat="42.241786839267014" lon="14.206928959527831"><ele>378.0</ele><time>2026-04-12T08:48:43Z</time></trkpt><trkpt lat="42.24161536325887" lon="14.206935889950001"><ele>375.0</ele><time>2026-04-12T08:48:44Z</time></trkpt><trkpt lat="42.241446759238066" lon="14.206943695285153"><ele>372.0</ele><time>2026-04-12T08:48:45Z</time></trkpt><trkpt lat="42.241277722575305" lon="14.206933968156228"><ele>369.0</ele><time>2026-04-12T08:48:46Z</time></trkpt><trkpt lat="42.24111360668996" lon="14.206899016170048"><ele>369.0</ele><time>2026-04-12T08:48:47Z</time></trkpt><trkpt lat="42.24096005158784" lon="14.206840675982514"><ele>369.0</ele><time>2026-04-12T08:48:48Z</time></trkpt><trkpt lat="42.240820470832695" lon="14.20679163294751"><ele>369.0</ele><time>2026-04-12T08:48:49Z</time></trkpt><trkpt lat="42.24069229717388" lon="14.206747489086366"><ele>369.0</ele><time>2026-04-12T08:48:50Z</time></trkpt><trkpt lat="42.24055840090578" lon="14.206799035638895"><ele>366.75</ele><time>2026-04-12T08:48:51Z</time></trkpt><trkpt lat="42.24043542069346" lon="14.206907364793118"><ele>364.5</ele><time>2026-04-12T08:48:52Z</time></trkpt><trkpt lat="42.24031293215589" lon="14.206960850295186"><ele>362.25</ele><time>2026-04-12T08:48:53Z</time></trkpt><trkpt lat="42.24020762010667" lon="14.206935792274317"><ele>360.0</ele><time>2026-04-12T08:48:54Z</time></trkpt><trkpt lat="42.24011749743816" lon="14.206882394890544"><ele>360.0</ele><time>2026-04-12T08:48:55Z</time></trkpt><trkpt lat="42.240034996790044" lon="14.206847528056567"><ele>360.0</ele><time>2026-04-12T08:48:56Z</time></trkpt><trkpt lat="42.23996410737387" lon="14.206839689539235"><ele>360.0</ele><time>2026-04-12T08:48:57Z</time></trkpt><trkpt lat="42.239877922956005" lon="14.206788649475168"><ele>360.0</ele><time>2026-04-12T08:48:59Z</time></trkpt><trkpt lat="42.23981625529043" lon="14.206729916344361"><ele>360.0</ele><time>2026-04-12T08:49:00Z</time></trkpt><trkpt lat="42.23974119740833" lon="14.20665843008233"><ele>360.0</ele><time>2026-04-12T08:49:01Z</time></trkpt><trkpt lat="42.23965704887291" lon="14.206576373014961"><ele>359.0</ele><time>2026-04-12T08:49:02Z</time></trkpt><trkpt lat="42.23957403482997" lon="14.206493597400163"><ele>358.0</ele><time>2026-04-12T08:49:03Z</time></trkpt><trkpt lat="42.239479252339244" lon="14.20639572662289"><ele>357.0</ele><time>2026-04-12T08:49:04Z</time></trkpt><trkpt lat="42.23937643475071" lon="14.206284048626024"><ele>356.0</ele><time>2026-04-12T08:49:05Z</time></trkpt><trkpt lat="42.239289994013255" lon="14.206170189621329"><ele>356.0</ele><time>2026-04-12T08:49:06Z</time></trkpt><trkpt lat="42.239222966396326" lon="14.206057309185615"><ele>356.0</ele><time>2026-04-12T08:49:07Z</time></trkpt><trkpt lat="42.23915910739806" lon="14.205928946820327"><ele>356.0</ele><time>2026-04-12T08:49:08Z</time></trkpt><trkpt lat="42.239083111887865" lon="14.205787317744688"><ele>356.0</ele><time>2026-04-12T08:49:09Z</time></trkpt><trkpt lat="42.239013646181604" lon="14.205624732241311"><ele>353.25</ele><time>2026-04-12T08:49:10Z</time></trkpt><trkpt lat="42.23893726673048" lon="14.205460146581197"><ele>350.5</ele><time>2026-04-12T08:49:11Z</time></trkpt><trkpt lat="42.238848309002485" lon="14.205308334299096"><ele>347.75</ele><time>2026-04-12T08:49:12Z</time></trkpt><trkpt lat="42.23876494909887" lon="14.205190676594368"><ele>345.0</ele><time>2026-04-12T08:49:13Z</time></trkpt><trkpt lat="42.2386969605686" lon="14.20507281064156"><ele>345.0</ele><time>2026-04-12T08:49:14Z</time></trkpt><trkpt lat="42.23862124945297" lon="14.20497192495854"><ele>345.0</ele><time>2026-04-12T08:49:15Z</time></trkpt><trkpt lat="42.23854229244366" lon="14.204882978236984"><ele>345.0</ele><time>2026-04-12T08:49:16Z</time></trkpt><trkpt lat="42.238497125013154" lon="14.20480681702464"><ele>345.0</ele><time>2026-04-12T08:49:17Z</time></trkpt><trkpt lat="42.23843361071366" lon="14.204696688753359"><ele>345.0</ele><time>2026-04-12T08:49:18Z</time></trkpt><trkpt lat="42.238361615695915" lon="14.204558815670213"><ele>346.6</ele><time>2026-04-12T08:49:19Z</time></trkpt><trkpt lat="42.23831079929761" lon="14.204446327592473"><ele>348.2</ele><time>2026-04-12T08:49:20Z</time></trkpt><trkpt lat="42.238273931941244" lon="14.20433089110936"><ele>349.79999999999995</ele><time>2026-04-12T08:49:20.999Z</time></trkpt><trkpt lat="42.23822999937834" lon="14.204192993807862"><ele>351.4</ele><time>2026-04-12T08:49:21.999Z</time></trkpt><trkpt lat="42.23818092975464" lon="14.204055488830875"><ele>353.0</ele><time>2026-04-12T08:49:22.999Z</time></trkpt><trkpt lat="42.23811478532582" lon="14.203953507012057"><ele>349.0</ele><time>2026-04-12T08:49:23.999Z</time></trkpt><trkpt lat="42.23806897392436" lon="14.203856500497995"><ele>345.0</ele><time>2026-04-12T08:49:24.999Z</time></trkpt><trkpt lat="42.238012783052575" lon="14.203790851586291"><ele>341.0</ele><time>2026-04-12T08:49:25.999Z</time></trkpt><trkpt lat="42.237981507908614" lon="14.203696039915428"><ele>337.0</ele><time>2026-04-12T08:49:26.999Z</time></trkpt><trkpt lat="42.23805995899083" lon="14.203512015217871"><ele>333.0</ele><time>2026-04-12T08:49:27.999Z</time></trkpt><trkpt lat="42.238070042821256" lon="14.203391120601419"><ele>333.0</ele><time>2026-04-12T08:49:28.999Z</time></trkpt><trkpt lat="42.238049317627805" lon="14.203289916271808"><ele>333.0</ele><time>2026-04-12T08:49:29.999Z</time></trkpt><trkpt lat="42.23798409247331" lon="14.203213651155068"><ele>333.0</ele><time>2026-04-12T08:49:30.999Z</time></trkpt><trkpt lat="42.23789006583704" lon="14.203143763807926"><ele>333.0</ele><time>2026-04-12T08:49:31.999Z</time></trkpt><trkpt lat="42.237818933913445" lon="14.203066755391944"><ele>333.0</ele><time>2026-04-12T08:49:32.999Z</time></trkpt><trkpt lat="42.23777536792874" lon="14.202950309646022"><ele>333.4</ele><time>2026-04-12T08:49:33.999Z</time></trkpt><trkpt lat="42.237743049594286" lon="14.20281774952157"><ele>333.79999999999995</ele><time>2026-04-12T08:49:34.999Z</time></trkpt><trkpt lat="42.237682540209725" lon="14.202692125484422"><ele>334.2</ele><time>2026-04-12T08:49:35.999Z</time></trkpt><trkpt lat="42.237605338507386" lon="14.202598895042902"><ele>334.6</ele><time>2026-04-12T08:49:36.999Z</time></trkpt><trkpt lat="42.23755334452934" lon="14.202492734727095"><ele>335.0</ele><time>2026-04-12T08:49:37.999Z</time></trkpt><trkpt lat="42.23751539244412" lon="14.202374231332872"><ele>336.2</ele><time>2026-04-12T08:49:38.999Z</time></trkpt><trkpt lat="42.23749253471419" lon="14.202259944306952"><ele>337.4</ele><time>2026-04-12T08:49:39.999Z</time></trkpt><trkpt lat="42.237470150778265" lon="14.202147253608231"><ele>338.6</ele><time>2026-04-12T08:49:40.999Z</time></trkpt><trkpt lat="42.237454012627246" lon="14.202011355702126"><ele>339.8</ele><time>2026-04-12T08:49:41.999Z</time></trkpt><trkpt lat="42.23742309063133" lon="14.201872135867891"><ele>341.0</ele><time>2026-04-12T08:49:42.999Z</time></trkpt><trkpt lat="42.23738029352828" lon="14.201698681121329"><ele>341.0</ele><time>2026-04-12T08:49:43.999Z</time></trkpt><trkpt lat="42.23733766944532" lon="14.20151957346914"><ele>341.0</ele><time>2026-04-12T08:49:44.999Z</time></trkpt><trkpt lat="42.23732598197679" lon="14.201357846994293"><ele>341.0</ele><time>2026-04-12T08:49:45.999Z</time></trkpt><trkpt lat="42.237302892073444" lon="14.201215314345122"><ele>341.0</ele><time>2026-04-12T08:49:46.999Z</time></trkpt><trkpt lat="42.237290351295265" lon="14.201110358376727"><ele>341.0</ele><time>2026-04-12T08:49:47.999Z</time></trkpt><trkpt lat="42.23730204609321" lon="14.20100802550084"><ele>341.6</ele><time>2026-04-12T08:49:48.999Z</time></trkpt><trkpt lat="42.237322798059715" lon="14.200884540631804"><ele>342.20000000000005</ele><time>2026-04-12T08:49:49.999Z</time></trkpt><trkpt lat="42.23734044553575" lon="14.200732628013292"><ele>342.79999999999995</ele><time>2026-04-12T08:49:50.999Z</time></trkpt><trkpt lat="42.23735478142107" lon="14.200576113701619"><ele>343.4</ele><time>2026-04-12T08:49:51.999Z</time></trkpt><trkpt lat="42.23736697745739" lon="14.200436807612768"><ele>344.0</ele><time>2026-04-12T08:49:52.999Z</time></trkpt><trkpt lat="42.23738128846605" lon="14.200292082287516"><ele>344.6666666666667</ele><time>2026-04-12T08:49:53.999Z</time></trkpt><trkpt lat="42.23740565178212" lon="14.200148100186329"><ele>345.33333333333337</ele><time>2026-04-12T08:49:54.999Z</time></trkpt><trkpt lat="42.237426967528584" lon="14.200005184757705"><ele>346.0</ele><time>2026-04-12T08:49:55.999Z</time></trkpt><trkpt lat="42.23744361737656" lon="14.199896385066527"><ele>346.6666666666667</ele><time>2026-04-12T08:49:56.999Z</time></trkpt><trkpt lat="42.237456037853974" lon="14.199808596034883"><ele>347.3333333333333</ele><time>2026-04-12T08:49:57.999Z</time></trkpt><trkpt lat="42.23745275550252" lon="14.199722526691088"><ele>348.0</ele><time>2026-04-12T08:55:17Z</time></trkpt><trkpt lat="42.23735145465838" lon="14.199675931201037"><ele>345.0</ele><time>2026-04-12T08:55:19Z</time></trkpt><trkpt lat="42.23727815710728" lon="14.199650716635812"><ele>342.0</ele><time>2026-04-12T08:55:19.999Z</time></trkpt><trkpt lat="42.23720514247205" lon="14.199620948231486"><ele>339.0</ele><time>2026-04-12T08:55:20.999Z</time></trkpt><trkpt lat="42.23714326804195" lon="14.199596050496364"><ele>336.0</ele><time>2026-04-12T08:55:21.999Z</time></trkpt><trkpt lat="42.23707761700171" lon="14.19956459031721"><ele>333.0</ele><time>2026-04-12T08:55:22.999Z</time></trkpt><trkpt lat="42.23700859913023" lon="14.199542173271245"><ele>330.0</ele><time>2026-04-12T08:55:23.999Z</time></trkpt><trkpt lat="42.23693674662242" lon="14.19951494298445"><ele>327.0</ele><time>2026-04-12T08:55:24.999Z</time></trkpt><trkpt lat="42.236859612263466" lon="14.199496778767383"><ele>327.0</ele><time>2026-04-12T08:55:25.999Z</time></trkpt><trkpt lat="42.23676633889121" lon="14.199458886178915"><ele>327.0</ele><time>2026-04-12T08:55:26.999Z</time></trkpt><trkpt lat="42.23666427305424" lon="14.19941661924905"><ele>327.0</ele><time>2026-04-12T08:55:27.999Z</time></trkpt><trkpt lat="42.23655816978102" lon="14.199378096540789"><ele>327.0</ele><time>2026-04-12T08:55:28.999Z</time></trkpt><trkpt lat="42.23646565149954" lon="14.1993453620833"><ele>327.0</ele><time>2026-04-12T08:55:29.999Z</time></trkpt><trkpt lat="42.236380022004006" lon="14.199312608397808"><ele>322.20000000000005</ele><time>2026-04-12T08:55:30.999Z</time></trkpt><trkpt lat="42.236304086172396" lon="14.199283053462853"><ele>317.40000000000003</ele><time>2026-04-12T08:55:31.999Z</time></trkpt><trkpt lat="42.236236391206546" lon="14.199260512857627"><ele>312.6</ele><time>2026-04-12T08:55:32.999Z</time></trkpt><trkpt lat="42.23612304198107" lon="14.199258473831364"><ele>307.8</ele><time>2026-04-12T08:55:34.999Z</time></trkpt><trkpt lat="42.23607718826889" lon="14.199399914151634"><ele>303.0</ele><time>2026-04-12T08:55:36.999Z</time></trkpt><trkpt lat="42.2360521676151" lon="14.19953780358664"><ele>303.0</ele><time>2026-04-12T08:55:37.999Z</time></trkpt><trkpt lat="42.236015695687676" lon="14.199684731743918"><ele>303.0</ele><time>2026-04-12T08:55:38.999Z</time></trkpt><trkpt lat="42.235976594800135" lon="14.199831992596987"><ele>303.0</ele><time>2026-04-12T08:55:39.999Z</time></trkpt><trkpt lat="42.23595081239268" lon="14.1999522818784"><ele>303.0</ele><time>2026-04-12T08:55:40.999Z</time></trkpt><trkpt lat="42.23593088525363" lon="14.200043549875794"><ele>303.0</ele><time>2026-04-12T08:55:41.999Z</time></trkpt><trkpt lat="42.23583356932687" lon="14.200146529772095"><ele>303.2</ele><time>2026-04-12T08:55:43.999Z</time></trkpt><trkpt lat="42.23574571654733" lon="14.20013574477206"><ele>303.4</ele><time>2026-04-12T08:55:44.999Z</time></trkpt><trkpt lat="42.235654468831434" lon="14.20009323594259"><ele>303.59999999999997</ele><time>2026-04-12T08:55:45.999Z</time></trkpt><trkpt lat="42.23558236192865" lon="14.20005443405204"><ele>303.8</ele><time>2026-04-12T08:55:46.999Z</time></trkpt><trkpt lat="42.23547256896756" lon="14.19998967513311"><ele>304.0</ele><time>2026-04-12T08:55:47.999Z</time></trkpt><trkpt lat="42.23536353176349" lon="14.199935622595948"><ele>300.8</ele><time>2026-04-12T08:55:48.999Z</time></trkpt><trkpt lat="42.235269849662274" lon="14.199887393457805"><ele>297.59999999999997</ele><time>2026-04-12T08:55:49.999Z</time></trkpt><trkpt lat="42.23517886298516" lon="14.199828160459008"><ele>294.4</ele><time>2026-04-12T08:55:50.999Z</time></trkpt><trkpt lat="42.235084263436256" lon="14.199763157688409"><ele>291.2</ele><time>2026-04-12T08:55:51.999Z</time></trkpt><trkpt lat="42.2350037987216" lon="14.199677104589615"><ele>288.0</ele><time>2026-04-12T08:55:52.999Z</time></trkpt><trkpt lat="42.23489805886822" lon="14.199548306421546"><ele>285.75</ele><time>2026-04-12T08:55:53.999Z</time></trkpt><trkpt lat="42.23479881692409" lon="14.199441237064587"><ele>283.5</ele><time>2026-04-12T08:55:54.999Z</time></trkpt><trkpt lat="42.23470638236986" lon="14.199339577123103"><ele>281.25</ele><time>2026-04-12T08:55:55.999Z</time></trkpt><trkpt lat="42.234617560608775" lon="14.199231819296488"><ele>279.0</ele><time>2026-04-12T08:55:56.999Z</time></trkpt><trkpt lat="42.23455030706424" lon="14.199137824309867"><ele>279.0</ele><time>2026-04-12T08:55:57.999Z</time></trkpt><trkpt lat="42.23449348354054" lon="14.199034474437902"><ele>279.0</ele><time>2026-04-12T08:55:58.999Z</time></trkpt><trkpt lat="42.234432072124754" lon="14.198921750359172"><ele>279.0</ele><time>2026-04-12T08:55:59.999Z</time></trkpt><trkpt lat="42.23436379648365" lon="14.198831048240217"><ele>279.0</ele><time>2026-04-12T08:56:00.999Z</time></trkpt><trkpt lat="42.23428371089358" lon="14.198761268463906"><ele>279.0</ele><time>2026-04-12T08:56:01.999Z</time></trkpt><trkpt lat="42.2341985259836" lon="14.198695492478743"><ele>278.2</ele><time>2026-04-12T08:56:02.999Z</time></trkpt><trkpt lat="42.23411776980547" lon="14.19861744541051"><ele>277.4</ele><time>2026-04-12T08:56:03.999Z</time></trkpt><trkpt lat="42.234048996943336" lon="14.198539306290414"><ele>276.6</ele><time>2026-04-12T08:56:04.999Z</time></trkpt><trkpt lat="42.23399536676415" lon="14.198471487992537"><ele>275.8</ele><time>2026-04-12T08:56:05.999Z</time></trkpt><trkpt lat="42.233931913679754" lon="14.198404674416764"><ele>275.0</ele><time>2026-04-12T08:56:06.999Z</time></trkpt><trkpt lat="42.23381452863237" lon="14.198471658198201"><ele>274.0</ele><time>2026-04-12T08:56:08.999Z</time></trkpt><trkpt lat="42.23373596808854" lon="14.19857825927963"><ele>273.0</ele><time>2026-04-12T08:56:09.999Z</time></trkpt><trkpt lat="42.23367241537139" lon="14.19861362449229"><ele>272.0</ele><time>2026-04-12T08:56:10.999Z</time></trkpt><trkpt lat="42.233589158621214" lon="14.198585750605192"><ele>271.0</ele><time>2026-04-12T08:56:11.999Z</time></trkpt><trkpt lat="42.2334875421148" lon="14.198507581774756"><ele>270.0</ele><time>2026-04-12T08:56:12.999Z</time></trkpt><trkpt lat="42.23337857302201" lon="14.198395755276662"><ele>270.0</ele><time>2026-04-12T08:56:13.999Z</time></trkpt><trkpt lat="42.23327279014996" lon="14.19826251903126"><ele>270.0</ele><time>2026-04-12T08:56:14.999Z</time></trkpt><trkpt lat="42.233188126760815" lon="14.198127515584705"><ele>270.0</ele><time>2026-04-12T08:56:15.999Z</time></trkpt><trkpt lat="42.23313323038371" lon="14.198013766231721"><ele>270.0</ele><time>2026-04-12T08:56:16.999Z</time></trkpt><trkpt lat="42.23310783415698" lon="14.197912242974358"><ele>269.5</ele><time>2026-04-12T08:56:17.999Z</time></trkpt><trkpt lat="42.23308633747315" lon="14.197816454841735"><ele>269.0</ele><time>2026-04-12T08:56:18.999Z</time></trkpt><trkpt lat="42.23302434606085" lon="14.197790768640754"><ele>268.5</ele><time>2026-04-12T08:56:29.998Z</time></trkpt><trkpt lat="42.23292474043135" lon="14.197754071990635"><ele>268.0</ele><time>2026-04-12T08:56:31.998Z</time></trkpt><trkpt lat="42.23291611262197" lon="14.197658349631155"><ele>267.5</ele><time>2026-04-12T08:56:33.998Z</time></trkpt><trkpt lat="42.23292253866903" lon="14.197564591746339"><ele>267.0</ele><time>2026-04-12T08:57:45.999Z</time></trkpt><trkpt lat="42.23293896312533" lon="14.197467885648173"><ele>267.6</ele><time>2026-04-12T08:57:46.999Z</time></trkpt><trkpt lat="42.23297045386321" lon="14.197299949850779"><ele>268.2</ele><time>2026-04-12T08:57:48.999Z</time></trkpt><trkpt lat="42.23296462050606" lon="14.197201375009238"><ele>268.8</ele><time>2026-04-12T08:57:49.999Z</time></trkpt><trkpt lat="42.23295139321612" lon="14.197065363840617"><ele>269.4</ele><time>2026-04-12T08:57:50.999Z</time></trkpt><trkpt lat="42.23292776541968" lon="14.196929050307645"><ele>270.0</ele><time>2026-04-12T08:57:51.999Z</time></trkpt><trkpt lat="42.23287940777747" lon="14.196786653022174"><ele>270.0</ele><time>2026-04-12T08:57:52.999Z</time></trkpt><trkpt lat="42.23284998429519" lon="14.196627104216047"><ele>270.0</ele><time>2026-04-12T08:57:53.999Z</time></trkpt><trkpt lat="42.232822084394094" lon="14.196486003099198"><ele>270.0</ele><time>2026-04-12T08:57:54.999Z</time></trkpt><trkpt lat="42.23280835417605" lon="14.196364046765613"><ele>270.0</ele><time>2026-04-12T08:57:55.999Z</time></trkpt><trkpt lat="42.232787706343366" lon="14.196241349439392"><ele>270.0</ele><time>2026-04-12T08:57:56.999Z</time></trkpt><trkpt lat="42.23275616187414" lon="14.196122724832277"><ele>270.2</ele><time>2026-04-12T08:57:57.999Z</time></trkpt><trkpt lat="42.23268736145904" lon="14.196012302438412"><ele>270.4</ele><time>2026-04-12T08:57:58.999Z</time></trkpt><trkpt lat="42.232578875718744" lon="14.195950262848816"><ele>270.6</ele><time>2026-04-12T08:57:59.999Z</time></trkpt><trkpt lat="42.23248742023673" lon="14.195933643345025"><ele>270.8</ele><time>2026-04-12T08:58:00.999Z</time></trkpt><trkpt lat="42.232368959850604" lon="14.195960784981548"><ele>271.0</ele><time>2026-04-12T08:58:01.999Z</time></trkpt><trkpt lat="42.23225232054936" lon="14.196020613242444"><ele>271.6</ele><time>2026-04-12T08:58:02.999Z</time></trkpt><trkpt lat="42.232140775653264" lon="14.196057331548163"><ele>272.20000000000005</ele><time>2026-04-12T08:58:03.999Z</time></trkpt><trkpt lat="42.232048329224185" lon="14.196075069034706"><ele>272.79999999999995</ele><time>2026-04-12T08:58:04.999Z</time></trkpt><trkpt lat="42.23193664257061" lon="14.196102214115328"><ele>273.4</ele><time>2026-04-12T08:58:05.999Z</time></trkpt><trkpt lat="42.231821361451935" lon="14.196127352186739"><ele>274.0</ele><time>2026-04-12T08:58:06.999Z</time></trkpt><trkpt lat="42.23169227991911" lon="14.196145431472704"><ele>274.0</ele><time>2026-04-12T08:58:07.999Z</time></trkpt><trkpt lat="42.231596660095974" lon="14.19614508696754"><ele>274.0</ele><time>2026-04-12T08:58:08.999Z</time></trkpt><trkpt lat="42.2314969323729" lon="14.196156751119577"><ele>274.0</ele><time>2026-04-12T08:58:09.999Z</time></trkpt><trkpt lat="42.231392857810036" lon="14.19613461243982"><ele>274.0</ele><time>2026-04-12T08:58:10.999Z</time></trkpt><trkpt lat="42.231271570057864" lon="14.196129951145974"><ele>274.0</ele><time>2026-04-12T08:58:11.999Z</time></trkpt><trkpt lat="42.231162493038916" lon="14.196121716388324"><ele>274.5</ele><time>2026-04-12T08:58:12.999Z</time></trkpt><trkpt lat="42.23103283895301" lon="14.19610205063334"><ele>275.0</ele><time>2026-04-12T08:58:13.999Z</time></trkpt><trkpt lat="42.23089426241186" lon="14.19606628970959"><ele>275.5</ele><time>2026-04-12T08:58:14.999Z</time></trkpt><trkpt lat="42.23075580129061" lon="14.196012657934508"><ele>276.0</ele><time>2026-04-12T08:58:15.999Z</time></trkpt><trkpt lat="42.23062985718429" lon="14.195942298566825"><ele>276.0</ele><time>2026-04-12T08:58:16.999Z</time></trkpt><trkpt lat="42.23052459180139" lon="14.195860720796476"><ele>276.0</ele><time>2026-04-12T08:58:17.999Z</time></trkpt><trkpt lat="42.23043823677809" lon="14.195758418795789"><ele>276.0</ele><time>2026-04-12T08:58:18.999Z</time></trkpt><trkpt lat="42.23033355949189" lon="14.195619188209376"><ele>276.0</ele><time>2026-04-12T08:58:19.999Z</time></trkpt><trkpt lat="42.23018296024204" lon="14.195527828291128"><ele>277.0</ele><time>2026-04-12T08:58:20.999Z</time></trkpt><trkpt lat="42.23004073903381" lon="14.195500730112942"><ele>278.0</ele><time>2026-04-12T08:58:21.999Z</time></trkpt><trkpt lat="42.22992749441221" lon="14.195468667586445"><ele>279.0</ele><time>2026-04-12T08:58:22.999Z</time></trkpt><trkpt lat="42.22983778213979" lon="14.195414983644845"><ele>280.0</ele><time>2026-04-12T08:58:23.999Z</time></trkpt><trkpt lat="42.22976560213536" lon="14.195349985199032"><ele>281.0</ele><time>2026-04-12T08:58:24.999Z</time></trkpt><trkpt lat="42.22973852080102" lon="14.195245887381706"><ele>281.0</ele><time>2026-04-12T08:58:25.999Z</time></trkpt><trkpt lat="42.22971599899224" lon="14.195099669305359"><ele>281.0</ele><time>2026-04-12T08:58:26.999Z</time></trkpt><trkpt lat="42.22963803936008" lon="14.194925831338832"><ele>281.0</ele><time>2026-04-12T08:58:27.999Z</time></trkpt><trkpt lat="42.22950900604775" lon="14.194811324347242"><ele>281.0</ele><time>2026-04-12T08:58:28.999Z</time></trkpt><trkpt lat="42.22941036169361" lon="14.19465889613341"><ele>283.0</ele><time>2026-04-12T08:58:29.999Z</time></trkpt><trkpt lat="42.22931479322889" lon="14.194507248231846"><ele>285.0</ele><time>2026-04-12T08:58:30.999Z</time></trkpt><trkpt lat="42.2292267847017" lon="14.194338880756282"><ele>287.0</ele><time>2026-04-12T08:58:31.999Z</time></trkpt><trkpt lat="42.22912374908026" lon="14.19419228603217"><ele>287.0</ele><time>2026-04-12T08:58:32.999Z</time></trkpt><trkpt lat="42.229022824984334" lon="14.194058793841318"><ele>287.0</ele><time>2026-04-12T08:58:33.999Z</time></trkpt><trkpt lat="42.22891665332571" lon="14.193930831849093"><ele>287.0</ele><time>2026-04-12T08:58:34.999Z</time></trkpt><trkpt lat="42.22881480338275" lon="14.193851924765067"><ele>287.0</ele><time>2026-04-12T08:58:35.998Z</time></trkpt><trkpt lat="42.228727554242404" lon="14.193766836315646"><ele>288.8</ele><time>2026-04-12T08:58:36.998Z</time></trkpt><trkpt lat="42.228624601805144" lon="14.19371130350864"><ele>290.6</ele><time>2026-04-12T08:58:37.998Z</time></trkpt><trkpt lat="42.228525228039544" lon="14.193701300720075"><ele>292.40000000000003</ele><time>2026-04-12T08:58:38.998Z</time></trkpt><trkpt lat="42.22840737598638" lon="14.193689053099662"><ele>294.2</ele><time>2026-04-12T08:58:39.998Z</time></trkpt><trkpt lat="42.22831727333933" lon="14.193666281262825"><ele>296.0</ele><time>2026-04-12T08:58:40.998Z</time></trkpt><trkpt lat="42.2282218351337" lon="14.193583797728792"><ele>294.75</ele><time>2026-04-12T08:58:41.998Z</time></trkpt><trkpt lat="42.22814321375441" lon="14.193463637065141"><ele>293.5</ele><time>2026-04-12T08:58:42.998Z</time></trkpt><trkpt lat="42.22804270313689" lon="14.193348695221378"><ele>292.25</ele><time>2026-04-12T08:58:43.998Z</time></trkpt><trkpt lat="42.22791595579479" lon="14.193252609926047"><ele>291.0</ele><time>2026-04-12T08:58:44.998Z</time></trkpt><trkpt lat="42.22780154857515" lon="14.193148459535962"><ele>294.3333333333333</ele><time>2026-04-12T08:58:45.998Z</time></trkpt><trkpt lat="42.22766633345807" lon="14.193033381860937"><ele>297.66666666666663</ele><time>2026-04-12T08:58:46.998Z</time></trkpt><trkpt lat="42.22753279566165" lon="14.192925317513023"><ele>301.0</ele><time>2026-04-12T08:58:47.998Z</time></trkpt><trkpt lat="42.22740350941968" lon="14.192817123123355"><ele>300.75</ele><time>2026-04-12T08:58:48.998Z</time></trkpt><trkpt lat="42.22728135522212" lon="14.1927098609585"><ele>300.5</ele><time>2026-04-12T08:58:49.998Z</time></trkpt><trkpt lat="42.22718400476728" lon="14.19262176889022"><ele>300.25</ele><time>2026-04-12T08:58:50.998Z</time></trkpt><trkpt lat="42.22709289808616" lon="14.192561215030388"><ele>300.0</ele><time>2026-04-12T08:58:51.998Z</time></trkpt><trkpt lat="42.2269764050722" lon="14.19252458872327"><ele>300.0</ele><time>2026-04-12T08:58:52.998Z</time></trkpt><trkpt lat="42.226828728672885" lon="14.192507796859564"><ele>300.0</ele><time>2026-04-12T08:58:53.998Z</time></trkpt><trkpt lat="42.22667280255587" lon="14.1924933538728"><ele>300.0</ele><time>2026-04-12T08:58:54.998Z</time></trkpt><trkpt lat="42.22651029405958" lon="14.192469534744971"><ele>300.5</ele><time>2026-04-12T08:58:55.998Z</time></trkpt><trkpt lat="42.22634954652284" lon="14.192482069886841"><ele>301.0</ele><time>2026-04-12T08:58:56.998Z</time></trkpt><trkpt lat="42.226197196809146" lon="14.19250454015921"><ele>301.5</ele><time>2026-04-12T08:58:57.998Z</time></trkpt><trkpt lat="42.22608208749267" lon="14.192552373927569"><ele>302.0</ele><time>2026-04-12T08:58:58.998Z</time></trkpt><trkpt lat="42.225967367602095" lon="14.192618528937333"><ele>302.0</ele><time>2026-04-12T08:59:00Z</time></trkpt><trkpt lat="42.22585254068988" lon="14.192668446871444"><ele>302.0</ele><time>2026-04-12T08:59:01Z</time></trkpt><trkpt lat="42.225735444719824" lon="14.192713467192489"><ele>302.0</ele><time>2026-04-12T08:59:02Z</time></trkpt><trkpt lat="42.22561550121084" lon="14.192754720914653"><ele>302.0</ele><time>2026-04-12T08:59:03Z</time></trkpt><trkpt lat="42.225485498682986" lon="14.192779851948664"><ele>302.75</ele><time>2026-04-12T08:59:04Z</time></trkpt><trkpt lat="42.2253490307209" lon="14.1927963896017"><ele>303.5</ele><time>2026-04-12T08:59:05Z</time></trkpt><trkpt lat="42.225211636825954" lon="14.192809933227604"><ele>304.25</ele><time>2026-04-12T08:59:06Z</time></trkpt><trkpt lat="42.225077104084555" lon="14.192809524051139"><ele>305.0</ele><time>2026-04-12T08:59:07Z</time></trkpt><trkpt lat="42.22494162779749" lon="14.192822985506334"><ele>305.0</ele><time>2026-04-12T08:59:08Z</time></trkpt><trkpt lat="42.22481897236225" lon="14.192852663550761"><ele>305.0</ele><time>2026-04-12T08:59:09Z</time></trkpt><trkpt lat="42.22469331180587" lon="14.192863865602156"><ele>305.0</ele><time>2026-04-12T08:59:10Z</time></trkpt><trkpt lat="42.22456606444976" lon="14.192878449686308"><ele>305.0</ele><time>2026-04-12T08:59:11Z</time></trkpt><trkpt lat="42.22444668883065" lon="14.19288873367075"><ele>305.4</ele><time>2026-04-12T08:59:12Z</time></trkpt><trkpt lat="42.224342182143204" lon="14.192893225323957"><ele>305.8</ele><time>2026-04-12T08:59:13Z</time></trkpt><trkpt lat="42.22424467038426" lon="14.192881970045633"><ele>306.2</ele><time>2026-04-12T08:59:14Z</time></trkpt><trkpt lat="42.224154579755606" lon="14.192825045227565"><ele>306.6</ele><time>2026-04-12T08:59:15Z</time></trkpt><trkpt lat="42.224083586257606" lon="14.192738514187933"><ele>307.0</ele><time>2026-04-12T08:59:16Z</time></trkpt><trkpt lat="42.22400053322349" lon="14.192644545426374"><ele>308.0</ele><time>2026-04-12T08:59:17Z</time></trkpt><trkpt lat="42.22391732045358" lon="14.192566531225243"><ele>309.0</ele><time>2026-04-12T08:59:18Z</time></trkpt><trkpt lat="42.223832053199104" lon="14.192484282609852"><ele>310.0</ele><time>2026-04-12T08:59:19Z</time></trkpt><trkpt lat="42.22376045645564" lon="14.192425537418647"><ele>311.0</ele><time>2026-04-12T08:59:20Z</time></trkpt><trkpt lat="42.22369144893426" lon="14.19238585068972"><ele>312.0</ele><time>2026-04-12T08:59:21Z</time></trkpt><trkpt lat="42.22359982767809" lon="14.19239030087618"><ele>312.0</ele><time>2026-04-12T08:59:23Z</time></trkpt><trkpt lat="42.22351409856986" lon="14.19244733850087"><ele>312.0</ele><time>2026-04-12T08:59:26Z</time></trkpt><trkpt lat="42.22342122905873" lon="14.192502460916073"><ele>312.0</ele><time>2026-04-12T08:59:28Z</time></trkpt><trkpt lat="42.22332367156284" lon="14.192542982659022"><ele>312.0</ele><time>2026-04-12T08:59:29Z</time></trkpt><trkpt lat="42.22326176104797" lon="14.1925620511599"><ele>312.0</ele><time>2026-04-12T08:59:31Z</time></trkpt><trkpt lat="42.22319501269104" lon="14.19259310067739"><ele>312.0</ele><time>2026-04-12T09:01:34Z</time></trkpt><trkpt lat="42.22311887251426" lon="14.192615528059447"><ele>312.5</ele><time>2026-04-12T09:01:35Z</time></trkpt><trkpt lat="42.22301716992188" lon="14.19264161069589"><ele>313.0</ele><time>2026-04-12T09:01:36Z</time></trkpt><trkpt lat="42.22287956669551" lon="14.192674861493613"><ele>313.5</ele><time>2026-04-12T09:01:37Z</time></trkpt><trkpt lat="42.22272518266019" lon="14.192679090261544"><ele>314.0</ele><time>2026-04-12T09:01:38Z</time></trkpt><trkpt lat="42.22255303940664" lon="14.192685428579939"><ele>314.0</ele><time>2026-04-12T09:01:39Z</time></trkpt><trkpt lat="42.222422171750914" lon="14.19267551523533"><ele>314.0</ele><time>2026-04-12T09:01:40Z</time></trkpt><trkpt lat="42.222275062788924" lon="14.19264932012472"><ele>314.0</ele><time>2026-04-12T09:01:41Z</time></trkpt><trkpt lat="42.222116593063035" lon="14.192591732741416"><ele>314.0</ele><time>2026-04-12T09:01:42Z</time></trkpt><trkpt lat="42.221940389312714" lon="14.1925542449213"><ele>315.33333333333337</ele><time>2026-04-12T09:01:43Z</time></trkpt><trkpt lat="42.221762033962314" lon="14.192517625781756"><ele>316.6666666666667</ele><time>2026-04-12T09:01:44Z</time></trkpt><trkpt lat="42.22162149680692" lon="14.192419758420177"><ele>318.0</ele><time>2026-04-12T09:01:45Z</time></trkpt><trkpt lat="42.221500850080005" lon="14.192330891230952"><ele>319.4</ele><time>2026-04-12T09:01:45.999Z</time></trkpt><trkpt lat="42.22139031766243" lon="14.192238718094915"><ele>320.8</ele><time>2026-04-12T09:01:46.999Z</time></trkpt><trkpt lat="42.22131350638354" lon="14.192175833980889"><ele>322.2</ele><time>2026-04-12T09:01:47.999Z</time></trkpt><trkpt lat="42.2212384558076" lon="14.192119725638854"><ele>323.6</ele><time>2026-04-12T09:01:48.999Z</time></trkpt><trkpt lat="42.22116059391062" lon="14.192081157720242"><ele>325.0</ele><time>2026-04-12T09:01:50.999Z</time></trkpt><trkpt lat="42.22117085070947" lon="14.19225652547479"><ele>325.0</ele><time>2026-04-12T09:01:53.999Z</time></trkpt><trkpt lat="42.221253860243344" lon="14.192320298076547"><ele>325.0</ele><time>2026-04-12T09:01:54.999Z</time></trkpt><trkpt lat="42.2213458923533" lon="14.192390474476108"><ele>325.0</ele><time>2026-04-12T09:01:55.999Z</time></trkpt><trkpt lat="42.221435713877646" lon="14.192484956078893"><ele>325.0</ele><time>2026-04-12T09:01:56.999Z</time></trkpt><trkpt lat="42.22152819242984" lon="14.192592429140436"><ele>325.0</ele><time>2026-04-12T09:01:57.999Z</time></trkpt><trkpt lat="42.22163284238403" lon="14.192708876385185"><ele>323.25</ele><time>2026-04-12T09:01:58.999Z</time></trkpt><trkpt lat="42.221748006241164" lon="14.192828089671163"><ele>321.5</ele><time>2026-04-12T09:01:59.999Z</time></trkpt><trkpt lat="42.22186987380212" lon="14.192942820013867"><ele>319.75</ele><time>2026-04-12T09:02:00.999Z</time></trkpt><trkpt lat="42.22198376719883" lon="14.193053013051903"><ele>318.0</ele><time>2026-04-12T09:02:01.999Z</time></trkpt><trkpt lat="42.222088330377936" lon="14.193151735297054"><ele>318.0</ele><time>2026-04-12T09:02:02.999Z</time></trkpt><trkpt lat="42.22218808612107" lon="14.19324451951702"><ele>318.0</ele><time>2026-04-12T09:02:03.999Z</time></trkpt><trkpt lat="42.22229905013898" lon="14.193342471942728"><ele>318.0</ele><time>2026-04-12T09:02:04.999Z</time></trkpt><trkpt lat="42.22241929039742" lon="14.193437495156628"><ele>318.0</ele><time>2026-04-12T09:02:05.999Z</time></trkpt><trkpt lat="42.2225470439247" lon="14.193527246427706"><ele>316.0</ele><time>2026-04-12T09:02:06.999Z</time></trkpt><trkpt lat="42.222672812489186" lon="14.193609536680611"><ele>314.0</ele><time>2026-04-12T09:02:07.999Z</time></trkpt><trkpt lat="42.222793598564195" lon="14.19369403095915"><ele>312.0</ele><time>2026-04-12T09:02:08.999Z</time></trkpt><trkpt lat="42.22291362321979" lon="14.193775879390074"><ele>310.0</ele><time>2026-04-12T09:02:09.999Z</time></trkpt><trkpt lat="42.22303915468614" lon="14.193859759156851"><ele>309.0</ele><time>2026-04-12T09:02:10.999Z</time></trkpt><trkpt lat="42.223154783735886" lon="14.193939326108728"><ele>308.0</ele><time>2026-04-12T09:02:11.999Z</time></trkpt><trkpt lat="42.223274860294694" lon="14.194008893410524"><ele>307.0</ele><time>2026-04-12T09:02:12.999Z</time></trkpt><trkpt lat="42.223394663525106" lon="14.194075321172454"><ele>306.0</ele><time>2026-04-12T09:02:13.999Z</time></trkpt><trkpt lat="42.223518380463496" lon="14.19412775106793"><ele>305.5</ele><time>2026-04-12T09:02:14.999Z</time></trkpt><trkpt lat="42.22363248373929" lon="14.194192795513505"><ele>305.0</ele><time>2026-04-12T09:02:15.999Z</time></trkpt><trkpt lat="42.223728471023115" lon="14.194253195875296"><ele>304.5</ele><time>2026-04-12T09:02:16.999Z</time></trkpt><trkpt lat="42.22381558485259" lon="14.194351965918774"><ele>304.0</ele><time>2026-04-12T09:02:17.999Z</time></trkpt><trkpt lat="42.22390097833498" lon="14.194447811648278"><ele>304.0</ele><time>2026-04-12T09:02:18.999Z</time></trkpt><trkpt lat="42.22397737984458" lon="14.194535157342447"><ele>304.0</ele><time>2026-04-12T09:02:19.999Z</time></trkpt><trkpt lat="42.22406359453599" lon="14.194600197707496"><ele>304.0</ele><time>2026-04-12T09:02:20.999Z</time></trkpt><trkpt lat="42.224144184974755" lon="14.194666447104717"><ele>304.0</ele><time>2026-04-12T09:02:21.999Z</time></trkpt><trkpt lat="42.224237042584015" lon="14.194712164241995"><ele>304.0</ele><time>2026-04-12T09:02:22.999Z</time></trkpt><trkpt lat="42.224316926064745" lon="14.194785336432204"><ele>303.66666666666663</ele><time>2026-04-12T09:02:23.999Z</time></trkpt><trkpt lat="42.22440968434258" lon="14.194823927548828"><ele>303.3333333333333</ele><time>2026-04-12T09:02:24.999Z</time></trkpt><trkpt lat="42.22449093717083" lon="14.19488564896101"><ele>303.0</ele><time>2026-04-12T09:02:25.999Z</time></trkpt><trkpt lat="42.22458102374198" lon="14.194919420987413"><ele>302.6666666666667</ele><time>2026-04-12T09:02:26.999Z</time></trkpt><trkpt lat="42.224653511892285" lon="14.194930907883503"><ele>302.33333333333337</ele><time>2026-04-12T09:02:27.999Z</time></trkpt><trkpt lat="42.224742062999134" lon="14.194944385037992"><ele>302.0</ele><time>2026-04-12T09:02:28.999Z</time></trkpt><trkpt lat="42.224845478570295" lon="14.19495347517586"><ele>300.2</ele><time>2026-04-12T09:02:29.999Z</time></trkpt><trkpt lat="42.22496199751401" lon="14.194961298609146"><ele>298.4</ele><time>2026-04-12T09:02:30.999Z</time></trkpt><trkpt lat="42.2250899648351" lon="14.1949801432116"><ele>296.6</ele><time>2026-04-12T09:02:31.999Z</time></trkpt><trkpt lat="42.22517208603097" lon="14.194992482941563"><ele>294.8</ele><time>2026-04-12T09:02:32.999Z</time></trkpt><trkpt lat="42.22526923985182" lon="14.195060218444494"><ele>293.0</ele><time>2026-04-12T09:02:34.999Z</time></trkpt><trkpt lat="42.22532486766693" lon="14.19513764553141"><ele>293.0</ele><time>2026-04-12T09:02:35.999Z</time></trkpt><trkpt lat="42.225367810623794" lon="14.19523674088089"><ele>293.0</ele><time>2026-04-12T09:02:36.999Z</time></trkpt><trkpt lat="42.22537834823965" lon="14.195360138569118"><ele>293.0</ele><time>2026-04-12T09:02:37.999Z</time></trkpt><trkpt lat="42.22541871534129" lon="14.195470190233285"><ele>293.0</ele><time>2026-04-12T09:02:38.999Z</time></trkpt><trkpt lat="42.225445327737994" lon="14.195559747145031"><ele>293.0</ele><time>2026-04-12T09:02:39.999Z</time></trkpt><trkpt lat="42.22548439058738" lon="14.195641574037273"><ele>293.0</ele><time>2026-04-12T09:02:40.999Z</time></trkpt><trkpt lat="42.225555633306016" lon="14.195682748291864"><ele>293.0</ele><time>2026-04-12T09:02:41.999Z</time></trkpt><trkpt lat="42.225645180027996" lon="14.195664108051607"><ele>293.0</ele><time>2026-04-12T09:02:42.999Z</time></trkpt><trkpt lat="42.225729854846016" lon="14.19568828818999"><ele>293.0</ele><time>2026-04-12T09:02:43.999Z</time></trkpt><trkpt lat="42.22580650745727" lon="14.195757007251897"><ele>293.0</ele><time>2026-04-12T09:02:44.999Z</time></trkpt><trkpt lat="42.22586732342168" lon="14.195809927400008"><ele>293.0</ele><time>2026-04-12T09:02:45.999Z</time></trkpt><trkpt lat="42.22588457308421" lon="14.19590769639387"><ele>293.0</ele><time>2026-04-12T09:02:46.999Z</time></trkpt><trkpt lat="42.225899628321976" lon="14.19600617321975"><ele>294.4</ele><time>2026-04-12T09:02:47.999Z</time></trkpt><trkpt lat="42.225918703115696" lon="14.196109789258815"><ele>295.8</ele><time>2026-04-12T09:02:48.999Z</time></trkpt><trkpt lat="42.22595192930465" lon="14.196244003227767"><ele>297.2</ele><time>2026-04-12T09:02:49.999Z</time></trkpt><trkpt lat="42.225982322681396" lon="14.19638119330249"><ele>298.6</ele><time>2026-04-12T09:02:50.999Z</time></trkpt><trkpt lat="42.22600724699107" lon="14.196501975528557"><ele>300.0</ele><time>2026-04-12T09:02:51.998Z</time></trkpt><trkpt lat="42.22603157336825" lon="14.196626807317301"><ele>302.6</ele><time>2026-04-12T09:02:52.998Z</time></trkpt><trkpt lat="42.22606992657511" lon="14.196715567394648"><ele>305.2</ele><time>2026-04-12T09:02:53.998Z</time></trkpt><trkpt lat="42.226126719683926" lon="14.19680351763309"><ele>307.8</ele><time>2026-04-12T09:02:54.998Z</time></trkpt><trkpt lat="42.22621137385445" lon="14.196873344665848"><ele>310.4</ele><time>2026-04-12T09:02:55.998Z</time></trkpt><trkpt lat="42.226310748726966" lon="14.19696607599936"><ele>313.0</ele><time>2026-04-12T09:02:56.998Z</time></trkpt><trkpt lat="42.22642352135568" lon="14.197053635769203"><ele>313.75</ele><time>2026-04-12T09:02:57.998Z</time></trkpt><trkpt lat="42.22651992255182" lon="14.19712744351684"><ele>314.5</ele><time>2026-04-12T09:02:58.998Z</time></trkpt><trkpt lat="42.22659588316566" lon="14.197262502784035"><ele>315.25</ele><time>2026-04-12T09:02:59.998Z</time></trkpt><trkpt lat="42.226686016481004" lon="14.197378029581612"><ele>316.0</ele><time>2026-04-12T09:03:00.998Z</time></trkpt><trkpt lat="42.22677201109344" lon="14.197482417480433"><ele>316.0</ele><time>2026-04-12T09:03:01.998Z</time></trkpt><trkpt lat="42.22686851951992" lon="14.197569334919514"><ele>316.0</ele><time>2026-04-12T09:03:02.998Z</time></trkpt><trkpt lat="42.22697664743429" lon="14.197663274221695"><ele>316.0</ele><time>2026-04-12T09:03:03.998Z</time></trkpt><trkpt lat="42.22709876130056" lon="14.197754884963476"><ele>316.0</ele><time>2026-04-12T09:03:04.998Z</time></trkpt><trkpt lat="42.227194939115144" lon="14.197864490295553"><ele>316.0</ele><time>2026-04-12T09:03:05.998Z</time></trkpt><trkpt lat="42.227259327885136" lon="14.197984232346176"><ele>316.0</ele><time>2026-04-12T09:03:06.998Z</time></trkpt><trkpt lat="42.22730471114113" lon="14.198122556926217"><ele>316.0</ele><time>2026-04-12T09:03:07.998Z</time></trkpt><trkpt lat="42.22733370606199" lon="14.19826635770111"><ele>316.0</ele><time>2026-04-12T09:03:08.998Z</time></trkpt><trkpt lat="42.227362832490535" lon="14.198446502649176"><ele>315.8</ele><time>2026-04-12T09:03:09.998Z</time></trkpt><trkpt lat="42.22738494453103" lon="14.198589911604643"><ele>315.6</ele><time>2026-04-12T09:03:11Z</time></trkpt><trkpt lat="42.22740667673491" lon="14.19873533598494"><ele>315.4</ele><time>2026-04-12T09:03:12Z</time></trkpt><trkpt lat="42.227428003920615" lon="14.198878049971905"><ele>315.2</ele><time>2026-04-12T09:03:13Z</time></trkpt><trkpt lat="42.22744328131724" lon="14.199016538780757"><ele>315.0</ele><time>2026-04-12T09:03:14Z</time></trkpt><trkpt lat="42.22746679947188" lon="14.19913766050071"><ele>314.3333333333333</ele><time>2026-04-12T09:03:15Z</time></trkpt><trkpt lat="42.22748248447489" lon="14.199242620790896"><ele>313.6666666666667</ele><time>2026-04-12T09:03:16Z</time></trkpt><trkpt lat="42.22748839143361" lon="14.1993390498997"><ele>313.0</ele><time>2026-04-12T09:03:17Z</time></trkpt><trkpt lat="42.22754366422098" lon="14.199433106275483"><ele>312.33333333333337</ele><time>2026-04-12T09:03:18Z</time></trkpt><trkpt lat="42.2275812873579" lon="14.199556310291905"><ele>311.6666666666667</ele><time>2026-04-12T09:03:19Z</time></trkpt><trkpt lat="42.227625771087496" lon="14.199666502952068"><ele>311.0</ele><time>2026-04-12T09:03:20Z</time></trkpt><trkpt lat="42.22766843319188" lon="14.199766104436579"><ele>310.6</ele><time>2026-04-12T09:03:21Z</time></trkpt><trkpt lat="42.22771716382701" lon="14.199838811695534"><ele>310.20000000000005</ele><time>2026-04-12T09:03:22Z</time></trkpt><trkpt lat="42.22770357335749" lon="14.199939939187322"><ele>309.79999999999995</ele><time>2026-04-12T09:03:23Z</time></trkpt><trkpt lat="42.22766172626809" lon="14.20005025074594"><ele>309.4</ele><time>2026-04-12T09:03:24Z</time></trkpt><trkpt lat="42.22763651841965" lon="14.200190250753039"><ele>309.0</ele><time>2026-04-12T09:03:25Z</time></trkpt><trkpt lat="42.22758151377163" lon="14.20033385350484"><ele>309.0</ele><time>2026-04-12T09:03:26Z</time></trkpt><trkpt lat="42.22752192002022" lon="14.200477572429383"><ele>309.0</ele><time>2026-04-12T09:03:27Z</time></trkpt><trkpt lat="42.227462356276696" lon="14.200612896809329"><ele>309.0</ele><time>2026-04-12T09:03:28Z</time></trkpt><trkpt lat="42.22740869678694" lon="14.200733634292915"><ele>309.0</ele><time>2026-04-12T09:03:29Z</time></trkpt><trkpt lat="42.227365026420884" lon="14.200830816645032"><ele>309.0</ele><time>2026-04-12T09:03:30Z</time></trkpt><trkpt lat="42.22731168049143" lon="14.200949530563014"><ele>308.3333333333333</ele><time>2026-04-12T09:03:32Z</time></trkpt><trkpt lat="42.227391216174695" lon="14.201036742899593"><ele>307.6666666666667</ele><time>2026-04-12T09:03:36Z</time></trkpt><trkpt lat="42.22745337904648" lon="14.20110564569147"><ele>307.0</ele><time>2026-04-12T09:03:38Z</time></trkpt><trkpt lat="42.22749552432283" lon="14.20118921258401"><ele>306.33333333333337</ele><time>2026-04-12T09:03:39Z</time></trkpt><trkpt lat="42.2275437052723" lon="14.201271821866193"><ele>305.6666666666667</ele><time>2026-04-12T09:03:40Z</time></trkpt><trkpt lat="42.22751840194685" lon="14.201390733788617"><ele>305.0</ele><time>2026-04-12T09:03:41Z</time></trkpt><trkpt lat="42.22746664312001" lon="14.201496479030617"><ele>303.6666666666667</ele><time>2026-04-12T09:03:42Z</time></trkpt><trkpt lat="42.22740361330616" lon="14.20158659307122"><ele>302.3333333333333</ele><time>2026-04-12T09:03:43Z</time></trkpt><trkpt lat="42.227138220832124" lon="14.201529026218683"><ele>301.0</ele><time>2026-04-12T09:03:44Z</time></trkpt><trkpt lat="42.22706560558003" lon="14.201667150082637"><ele>303.8</ele><time>2026-04-12T09:03:45Z</time></trkpt><trkpt lat="42.22700222939032" lon="14.201785459951946"><ele>306.6</ele><time>2026-04-12T09:03:46Z</time></trkpt><trkpt lat="42.22694331567364" lon="14.201894091807823"><ele>309.4</ele><time>2026-04-12T09:03:47Z</time></trkpt><trkpt lat="42.22687308849863" lon="14.202012918853372"><ele>312.2</ele><time>2026-04-12T09:03:48Z</time></trkpt><trkpt lat="42.226799362746604" lon="14.202140036542"><ele>315.0</ele><time>2026-04-12T09:03:49Z</time></trkpt><trkpt lat="42.22673581099305" lon="14.202248508647001"><ele>315.0</ele><time>2026-04-12T09:03:50Z</time></trkpt><trkpt lat="42.22666746357176" lon="14.202363636670137"><ele>315.0</ele><time>2026-04-12T09:03:50.999Z</time></trkpt><trkpt lat="42.226601218828264" lon="14.202469135188124"><ele>315.0</ele><time>2026-04-12T09:03:51.999Z</time></trkpt><trkpt lat="42.226554498371264" lon="14.202542537719541"><ele>315.0</ele><time>2026-04-12T09:03:52.999Z</time></trkpt><trkpt lat="42.22650298379404" lon="14.202621016065264"><ele>315.0</ele><time>2026-04-12T09:03:53.999Z</time></trkpt><trkpt lat="42.22644916105793" lon="14.202703010646752"><ele>315.0</ele><time>2026-04-12T09:03:54.999Z</time></trkpt><trkpt lat="42.226369676643614" lon="14.202822851752408"><ele>315.0</ele><time>2026-04-12T09:03:56.999Z</time></trkpt><trkpt lat="42.226306047811796" lon="14.202915354712855"><ele>315.0</ele><time>2026-04-12T09:03:57.999Z</time></trkpt><trkpt lat="42.226234077006346" lon="14.203015695902883"><ele>315.0</ele><time>2026-04-12T09:03:58.999Z</time></trkpt><trkpt lat="42.22616785797527" lon="14.203105942297444"><ele>315.0</ele><time>2026-04-12T09:03:59.999Z</time></trkpt><trkpt lat="42.226110615807386" lon="14.203183226713339"><ele>315.0</ele><time>2026-04-12T09:04:00.999Z</time></trkpt><trkpt lat="42.22603887224723" lon="14.203277361121156"><ele>313.75</ele><time>2026-04-12T09:04:01.999Z</time></trkpt><trkpt lat="42.226072553356026" lon="14.203539013256052"><ele>312.5</ele><time>2026-04-12T09:04:02.999Z</time></trkpt><trkpt lat="42.22601282703846" lon="14.203649347033593"><ele>311.25</ele><time>2026-04-12T09:04:03.999Z</time></trkpt><trkpt lat="42.22594542585476" lon="14.203741980184724"><ele>310.0</ele><time>2026-04-12T09:04:04.999Z</time></trkpt><trkpt lat="42.22585986549885" lon="14.203826107242973"><ele>310.0</ele><time>2026-04-12T09:04:05.999Z</time></trkpt><trkpt lat="42.22576560089669" lon="14.203898370048442"><ele>310.0</ele><time>2026-04-12T09:04:06.999Z</time></trkpt><trkpt lat="42.225673449356506" lon="14.20396457022928"><ele>310.0</ele><time>2026-04-12T09:04:07.999Z</time></trkpt><trkpt lat="42.22557682148734" lon="14.204013485578873"><ele>310.0</ele><time>2026-04-12T09:04:08.999Z</time></trkpt><trkpt lat="42.22550247957915" lon="14.204065230194672"><ele>310.0</ele><time>2026-04-12T09:04:09.999Z</time></trkpt><trkpt lat="42.225425978994735" lon="14.204143661465896"><ele>309.6</ele><time>2026-04-12T09:04:10.999Z</time></trkpt><trkpt lat="42.22537013436094" lon="14.20422450072662"><ele>309.2</ele><time>2026-04-12T09:04:11.999Z</time></trkpt><trkpt lat="42.225292276015175" lon="14.204282553682354"><ele>308.8</ele><time>2026-04-12T09:04:12.999Z</time></trkpt><trkpt lat="42.225172244165385" lon="14.204333561086527"><ele>308.4</ele><time>2026-04-12T09:04:13.999Z</time></trkpt><trkpt lat="42.22507162331551" lon="14.204383142031503"><ele>308.0</ele><time>2026-04-12T09:04:14.999Z</time></trkpt><trkpt lat="42.22497699750216" lon="14.204423956499735"><ele>308.0</ele><time>2026-04-12T09:04:15.999Z</time></trkpt><trkpt lat="42.224920072861025" lon="14.204478848150524"><ele>308.0</ele><time>2026-04-12T09:04:16.999Z</time></trkpt><trkpt lat="42.22482837458107" lon="14.20457229817173"><ele>308.0</ele><time>2026-04-12T09:04:17.999Z</time></trkpt><trkpt lat="42.22473662039436" lon="14.204630862067871"><ele>308.0</ele><time>2026-04-12T09:04:18.999Z</time></trkpt><trkpt lat="42.22467812862106" lon="14.204679611407773"><ele>308.0</ele><time>2026-04-12T09:04:19.999Z</time></trkpt><trkpt lat="42.224580733068294" lon="14.20474702772968"><ele>308.8</ele><time>2026-04-12T09:04:20.999Z</time></trkpt><trkpt lat="42.224473759724795" lon="14.204826315436208"><ele>309.6</ele><time>2026-04-12T09:04:21.999Z</time></trkpt><trkpt lat="42.22439171441312" lon="14.2049040257353"><ele>310.4</ele><time>2026-04-12T09:04:22.999Z</time></trkpt><trkpt lat="42.224303723548886" lon="14.204960671600912"><ele>311.2</ele><time>2026-04-12T09:04:23.999Z</time></trkpt><trkpt lat="42.22420490727906" lon="14.20500026622981"><ele>312.0</ele><time>2026-04-12T09:04:24.999Z</time></trkpt><trkpt lat="42.22414585043564" lon="14.205049358900839"><ele>312.0</ele><time>2026-04-12T09:04:25.999Z</time></trkpt><trkpt lat="42.224084052525" lon="14.205074393508308"><ele>312.0</ele><time>2026-04-12T09:04:26.999Z</time></trkpt><trkpt lat="42.22402348630352" lon="14.205127635504825"><ele>312.0</ele><time>2026-04-12T09:04:27.999Z</time></trkpt><trkpt lat="42.2239368516618" lon="14.20521533776163"><ele>312.0</ele><time>2026-04-12T09:04:28.999Z</time></trkpt><trkpt lat="42.22383543654613" lon="14.205267943865241"><ele>312.0</ele><time>2026-04-12T09:04:29.999Z</time></trkpt><trkpt lat="42.22373124021804" lon="14.20531618468054"><ele>312.2</ele><time>2026-04-12T09:04:30.999Z</time></trkpt><trkpt lat="42.22365374254288" lon="14.205391777576368"><ele>312.4</ele><time>2026-04-12T09:04:31.999Z</time></trkpt><trkpt lat="42.223573291798" lon="14.205488787346596"><ele>312.6</ele><time>2026-04-12T09:04:32.999Z</time></trkpt><trkpt lat="42.22348293291918" lon="14.205541452228038"><ele>312.8</ele><time>2026-04-12T09:04:33.999Z</time></trkpt><trkpt lat="42.2233817956168" lon="14.205598002455893"><ele>313.0</ele><time>2026-04-12T09:04:34.999Z</time></trkpt><trkpt lat="42.223272939344234" lon="14.205667452466793"><ele>313.0</ele><time>2026-04-12T09:04:35.999Z</time></trkpt><trkpt lat="42.22317743328487" lon="14.2057564217363"><ele>313.0</ele><time>2026-04-12T09:04:36.999Z</time></trkpt><trkpt lat="42.22308751066102" lon="14.205819152222764"><ele>313.0</ele><time>2026-04-12T09:04:37.999Z</time></trkpt><trkpt lat="42.22300157276979" lon="14.205896311070376"><ele>313.0</ele><time>2026-04-12T09:04:38.999Z</time></trkpt><trkpt lat="42.22292088847172" lon="14.205990732591983"><ele>313.0</ele><time>2026-04-12T09:04:39.999Z</time></trkpt><trkpt lat="42.22283498903618" lon="14.20611017148579"><ele>315.2</ele><time>2026-04-12T09:04:40.999Z</time></trkpt><trkpt lat="42.22274874897961" lon="14.206229646962182"><ele>317.4</ele><time>2026-04-12T09:04:41.999Z</time></trkpt><trkpt lat="42.22266917536102" lon="14.206307588342566"><ele>319.59999999999997</ele><time>2026-04-12T09:04:42.999Z</time></trkpt><trkpt lat="42.222605100942324" lon="14.206364855448248"><ele>321.8</ele><time>2026-04-12T09:04:43.999Z</time></trkpt><trkpt lat="42.22251872910822" lon="14.206425324574317"><ele>324.0</ele><time>2026-04-12T09:04:44.999Z</time></trkpt><trkpt lat="42.2224261256821" lon="14.206488675109728"><ele>323.79999999999995</ele><time>2026-04-12T09:04:45.999Z</time></trkpt><trkpt lat="42.222342020648625" lon="14.206556607572269"><ele>323.59999999999997</ele><time>2026-04-12T09:04:46.999Z</time></trkpt><trkpt lat="42.222256765786426" lon="14.206629403537741"><ele>323.4</ele><time>2026-04-12T09:04:47.999Z</time></trkpt><trkpt lat="42.222180265632986" lon="14.20669086761853"><ele>323.2</ele><time>2026-04-12T09:04:48.999Z</time></trkpt><trkpt lat="42.22209517241047" lon="14.206750076041615"><ele>323.0</ele><time>2026-04-12T09:04:49.999Z</time></trkpt><trkpt lat="42.22200773993122" lon="14.206841581262317"><ele>323.0</ele><time>2026-04-12T09:04:50.999Z</time></trkpt><trkpt lat="42.2219195088944" lon="14.206915601178949"><ele>323.0</ele><time>2026-04-12T09:04:51.999Z</time></trkpt><trkpt lat="42.221842277231104" lon="14.20698039337396"><ele>323.0</ele><time>2026-04-12T09:04:52.999Z</time></trkpt><trkpt lat="42.22175629217975" lon="14.207052529135304"><ele>323.0</ele><time>2026-04-12T09:04:53.999Z</time></trkpt><trkpt lat="42.22166501691618" lon="14.20712910294935"><ele>323.0</ele><time>2026-04-12T09:04:54.998Z</time></trkpt><trkpt lat="42.221559554273725" lon="14.207217763820095"><ele>324.75</ele><time>2026-04-12T09:04:55.998Z</time></trkpt><trkpt lat="42.22143577912759" lon="14.207321871939252"><ele>326.5</ele><time>2026-04-12T09:04:56.998Z</time></trkpt><trkpt lat="42.22132201986863" lon="14.207417582483158"><ele>328.25</ele><time>2026-04-12T09:04:57.998Z</time></trkpt><trkpt lat="42.22120603160352" lon="14.207506553727598"><ele>330.0</ele><time>2026-04-12T09:04:58.998Z</time></trkpt><trkpt lat="42.221095738532696" lon="14.207611673793977"><ele>330.0</ele><time>2026-04-12T09:04:59.998Z</time></trkpt><trkpt lat="42.22098412728161" lon="14.207695765250644"><ele>330.0</ele><time>2026-04-12T09:05:00.998Z</time></trkpt><trkpt lat="42.22086269763102" lon="14.207793950206488"><ele>330.0</ele><time>2026-04-12T09:05:01.998Z</time></trkpt><trkpt lat="42.220728160098744" lon="14.207896818964555"><ele>330.0</ele><time>2026-04-12T09:05:02.998Z</time></trkpt><trkpt lat="42.22060536863259" lon="14.208020513705494"><ele>331.0</ele><time>2026-04-12T09:05:03.998Z</time></trkpt><trkpt lat="42.22047208678686" lon="14.208132892190271"><ele>332.0</ele><time>2026-04-12T09:05:04.998Z</time></trkpt><trkpt lat="42.22033675284597" lon="14.208246669799463"><ele>333.0</ele><time>2026-04-12T09:05:05.998Z</time></trkpt><trkpt lat="42.22020821263483" lon="14.208348880256514"><ele>333.0</ele><time>2026-04-12T09:05:06.998Z</time></trkpt><trkpt lat="42.22010645134316" lon="14.20851091423593"><ele>333.0</ele><time>2026-04-12T09:05:07.998Z</time></trkpt><trkpt lat="42.21998180834956" lon="14.208597812832995"><ele>333.0</ele><time>2026-04-12T09:05:08.998Z</time></trkpt><trkpt lat="42.21984671949846" lon="14.208687788794917"><ele>333.0</ele><time>2026-04-12T09:05:09.998Z</time></trkpt><trkpt lat="42.2197123687839" lon="14.208765557372578"><ele>335.0</ele><time>2026-04-12T09:05:10.998Z</time></trkpt><trkpt lat="42.21957914798875" lon="14.208840653389387"><ele>337.0</ele><time>2026-04-12T09:05:11.998Z</time></trkpt><trkpt lat="42.21943647640254" lon="14.208901141354673"><ele>339.0</ele><time>2026-04-12T09:05:12.998Z</time></trkpt><trkpt lat="42.219293045829005" lon="14.20894992623958"><ele>341.0</ele><time>2026-04-12T09:05:13.998Z</time></trkpt><trkpt lat="42.21914991645536" lon="14.208986167481806"><ele>338.75</ele><time>2026-04-12T09:05:14.998Z</time></trkpt><trkpt lat="42.21900471355897" lon="14.209006177890203"><ele>336.5</ele><time>2026-04-12T09:05:15.998Z</time></trkpt><trkpt lat="42.21887193810153" lon="14.209015566169974"><ele>334.25</ele><time>2026-04-12T09:05:17Z</time></trkpt><trkpt lat="42.218740969393345" lon="14.209014726878555"><ele>332.0</ele><time>2026-04-12T09:05:18Z</time></trkpt><trkpt lat="42.21859845624088" lon="14.208997933850354"><ele>332.75</ele><time>2026-04-12T09:05:19Z</time></trkpt><trkpt lat="42.21846553550331" lon="14.208967717782993"><ele>333.5</ele><time>2026-04-12T09:05:20Z</time></trkpt><trkpt lat="42.21832504142647" lon="14.208935780115713"><ele>334.25</ele><time>2026-04-12T09:05:21Z</time></trkpt><trkpt lat="42.218180251563524" lon="14.208902865854888"><ele>335.0</ele><time>2026-04-12T09:05:22Z</time></trkpt><trkpt lat="42.21800949502832" lon="14.208853327099762"><ele>335.6666666666667</ele><time>2026-04-12T09:05:23Z</time></trkpt><trkpt lat="42.21780980697998" lon="14.208713714224205"><ele>336.3333333333333</ele><time>2026-04-12T09:05:24Z</time></trkpt><trkpt lat="42.217722457224305" lon="14.20866213607008"><ele>337.0</ele><time>2026-04-12T09:05:25Z</time></trkpt><trkpt lat="42.217564015139224" lon="14.208610448155527"><ele>337.0</ele><time>2026-04-12T09:05:26Z</time></trkpt><trkpt lat="42.21736631403127" lon="14.208365184496216"><ele>337.0</ele><time>2026-04-12T09:05:27Z</time></trkpt><trkpt lat="42.21730078699974" lon="14.208176904834316"><ele>337.0</ele><time>2026-04-12T09:05:28Z</time></trkpt><trkpt lat="42.217218138705036" lon="14.208068250866381"><ele>339.25</ele><time>2026-04-12T09:05:29Z</time></trkpt><trkpt lat="42.21712063294374" lon="14.207945094670809"><ele>341.5</ele><time>2026-04-12T09:05:30Z</time></trkpt><trkpt lat="42.217003095009865" lon="14.207800224850478"><ele>343.75</ele><time>2026-04-12T09:05:31Z</time></trkpt><trkpt lat="42.216888635078995" lon="14.207664314245655"><ele>346.0</ele><time>2026-04-12T09:05:32Z</time></trkpt><trkpt lat="42.21677134424701" lon="14.207538957079958"><ele>346.0</ele><time>2026-04-12T09:05:33Z</time></trkpt><trkpt lat="42.216656988846296" lon="14.207428873071704"><ele>346.0</ele><time>2026-04-12T09:05:34Z</time></trkpt><trkpt lat="42.21652942834649" lon="14.207323239267348"><ele>346.0</ele><time>2026-04-12T09:05:35Z</time></trkpt><trkpt lat="42.21639372377917" lon="14.207229875422636"><ele>346.0</ele><time>2026-04-12T09:05:36Z</time></trkpt><trkpt lat="42.21625357902364" lon="14.207126360560693"><ele>347.66666666666663</ele><time>2026-04-12T09:05:37Z</time></trkpt><trkpt lat="42.21609248230168" lon="14.20707516417174"><ele>349.3333333333333</ele><time>2026-04-12T09:05:38Z</time></trkpt><trkpt lat="42.21594215756039" lon="14.207019757006949"><ele>351.0</ele><time>2026-04-12T09:05:39Z</time></trkpt><trkpt lat="42.21579005619735" lon="14.206970732593376"><ele>351.0</ele><time>2026-04-12T09:05:40Z</time></trkpt><trkpt lat="42.21566278450615" lon="14.206920050628792"><ele>351.0</ele><time>2026-04-12T09:05:41Z</time></trkpt><trkpt lat="42.21556242240248" lon="14.206897360399994"><ele>351.0</ele><time>2026-04-12T09:05:42Z</time></trkpt><trkpt lat="42.21546193121258" lon="14.206869060779193"><ele>351.0</ele><time>2026-04-12T09:05:43Z</time></trkpt><trkpt lat="42.21537274041062" lon="14.20684342481651"><ele>351.0</ele><time>2026-04-12T09:05:44Z</time></trkpt><trkpt lat="42.21527979733257" lon="14.206819706658557"><ele>351.8</ele><time>2026-04-12T09:05:45Z</time></trkpt><trkpt lat="42.215211209417554" lon="14.206804987895294"><ele>352.6</ele><time>2026-04-12T09:05:46Z</time></trkpt><trkpt lat="42.215125850609446" lon="14.206770894097378"><ele>353.4</ele><time>2026-04-12T09:05:48Z</time></trkpt><trkpt lat="42.21501211824435" lon="14.206730187871845"><ele>354.2</ele><time>2026-04-12T09:05:50Z</time></trkpt><trkpt lat="42.214934536184664" lon="14.206727261609913"><ele>355.0</ele><time>2026-04-12T09:05:51Z</time></trkpt><trkpt lat="42.21483449955346" lon="14.206698715826567"><ele>356.25</ele><time>2026-04-12T09:05:52Z</time></trkpt><trkpt lat="42.214713517780545" lon="14.206646157570258"><ele>357.5</ele><time>2026-04-12T09:05:53Z</time></trkpt><trkpt lat="42.21456492418665" lon="14.206625913982831"><ele>358.75</ele><time>2026-04-12T09:05:54Z</time></trkpt><trkpt lat="42.214406457540804" lon="14.206602921449312"><ele>360.0</ele><time>2026-04-12T09:05:54.999Z</time></trkpt><trkpt lat="42.21424261311816" lon="14.206539342819339"><ele>361.6666666666667</ele><time>2026-04-12T09:05:55.999Z</time></trkpt><trkpt lat="42.21406565144697" lon="14.206473546532626"><ele>363.33333333333337</ele><time>2026-04-12T09:05:56.999Z</time></trkpt><trkpt lat="42.21387441668258" lon="14.206408237820566"><ele>365.0</ele><time>2026-04-12T09:05:57.999Z</time></trkpt><trkpt lat="42.21369862963952" lon="14.206360053036928"><ele>366.0</ele><time>2026-04-12T09:05:58.999Z</time></trkpt><trkpt lat="42.2135201671024" lon="14.206328962030613"><ele>367.0</ele><time>2026-04-12T09:05:59.999Z</time></trkpt><trkpt lat="42.21334257519779" lon="14.206279427582537"><ele>368.0</ele><time>2026-04-12T09:06:00.999Z</time></trkpt><trkpt lat="42.21317735774616" lon="14.206231757420996"><ele>369.0</ele><time>2026-04-12T09:06:01.999Z</time></trkpt><trkpt lat="42.21302953317074" lon="14.20618910547448"><ele>370.0</ele><time>2026-04-12T09:06:02.999Z</time></trkpt><trkpt lat="42.21290599731276" lon="14.20615371893303"><ele>371.0</ele><time>2026-04-12T09:06:03.999Z</time></trkpt><trkpt lat="42.212768823400154" lon="14.206114466604797"><ele>372.0</ele><time>2026-04-12T09:06:04.999Z</time></trkpt><trkpt lat="42.21264823794456" lon="14.206079730162775"><ele>372.0</ele><time>2026-04-12T09:06:05.999Z</time></trkpt><trkpt lat="42.21256727162534" lon="14.206056104838892"><ele>372.0</ele><time>2026-04-12T09:06:06.999Z</time></trkpt><trkpt lat="42.2124928514135" lon="14.206034496057153"><ele>372.0</ele><time>2026-04-12T09:06:09.999Z</time></trkpt><trkpt lat="42.21235642861482" lon="14.205996328454457"><ele>372.0</ele><time>2026-04-12T09:06:14.999Z</time></trkpt><trkpt lat="42.212264196497834" lon="14.205970925060319"><ele>372.0</ele><time>2026-04-12T09:06:15.999Z</time></trkpt><trkpt lat="42.212159823542315" lon="14.205941248408495"><ele>373.0</ele><time>2026-04-12T09:06:16.999Z</time></trkpt><trkpt lat="42.21204471327913" lon="14.205885504138498"><ele>374.0</ele><time>2026-04-12T09:06:17.999Z</time></trkpt><trkpt lat="42.2119252107505" lon="14.205850669327592"><ele>375.0</ele><time>2026-04-12T09:06:18.999Z</time></trkpt><trkpt lat="42.2117987160153" lon="14.205819209281815"><ele>376.0</ele><time>2026-04-12T09:06:19.999Z</time></trkpt><trkpt lat="42.21166805868226" lon="14.205779481498427"><ele>376.0</ele><time>2026-04-12T09:06:20.999Z</time></trkpt><trkpt lat="42.21152797282076" lon="14.205741565088273"><ele>376.0</ele><time>2026-04-12T09:06:21.999Z</time></trkpt><trkpt lat="42.21139519274274" lon="14.205705399745312"><ele>376.0</ele><time>2026-04-12T09:06:22.999Z</time></trkpt><trkpt lat="42.21128049075103" lon="14.205687229264438"><ele>376.0</ele><time>2026-04-12T09:06:23.999Z</time></trkpt><trkpt lat="42.21116093666614" lon="14.205653436111497"><ele>378.75</ele><time>2026-04-12T09:06:24.999Z</time></trkpt><trkpt lat="42.21102747060219" lon="14.20561571060723"><ele>381.5</ele><time>2026-04-12T09:06:25.999Z</time></trkpt><trkpt lat="42.21089301456328" lon="14.205577705369798"><ele>384.25</ele><time>2026-04-12T09:06:26.999Z</time></trkpt><trkpt lat="42.2107581048472" lon="14.205519568960462"><ele>387.0</ele><time>2026-04-12T09:06:27.999Z</time></trkpt><trkpt lat="42.21061274288517" lon="14.205498483896724"><ele>387.33333333333337</ele><time>2026-04-12T09:06:28.999Z</time></trkpt><trkpt lat="42.210469037019635" lon="14.205435429716642"><ele>387.6666666666667</ele><time>2026-04-12T09:06:29.999Z</time></trkpt><trkpt lat="42.210301698960414" lon="14.205391273802151"><ele>388.0</ele><time>2026-04-12T09:06:30.999Z</time></trkpt><trkpt lat="42.21016249823714" lon="14.205350492285435"><ele>388.0</ele><time>2026-04-12T09:06:31.999Z</time></trkpt><trkpt lat="42.21004008822609" lon="14.205323868185204"><ele>388.0</ele><time>2026-04-12T09:06:32.999Z</time></trkpt><trkpt lat="42.20991049916168" lon="14.205292157971298"><ele>388.0</ele><time>2026-04-12T09:06:33.999Z</time></trkpt><trkpt lat="42.20977495837161" lon="14.205245228429087"><ele>388.0</ele><time>2026-04-12T09:06:34.999Z</time></trkpt><trkpt lat="42.20963081600478" lon="14.205199725613163"><ele>388.75</ele><time>2026-04-12T09:06:35.999Z</time></trkpt><trkpt lat="42.20948890254678" lon="14.20514907862978"><ele>389.5</ele><time>2026-04-12T09:06:36.999Z</time></trkpt><trkpt lat="42.20934998878579" lon="14.205106540383506"><ele>390.25</ele><time>2026-04-12T09:06:37.999Z</time></trkpt><trkpt lat="42.20920456662294" lon="14.20505230535288"><ele>391.0</ele><time>2026-04-12T09:06:38.999Z</time></trkpt><trkpt lat="42.20905799882649" lon="14.204989775575882"><ele>391.0</ele><time>2026-04-12T09:06:39.999Z</time></trkpt><trkpt lat="42.208924365337374" lon="14.204932245755687"><ele>391.0</ele><time>2026-04-12T09:06:40.999Z</time></trkpt><trkpt lat="42.20878920496655" lon="14.204875178463315"><ele>391.0</ele><time>2026-04-12T09:06:41.999Z</time></trkpt><trkpt lat="42.208658290553345" lon="14.20480943305664"><ele>391.0</ele><time>2026-04-12T09:06:42.999Z</time></trkpt><trkpt lat="42.20852920430183" lon="14.204745118295826"><ele>395.0</ele><time>2026-04-12T09:06:43.999Z</time></trkpt><trkpt lat="42.20839492387765" lon="14.204680897732592"><ele>399.0</ele><time>2026-04-12T09:06:44.999Z</time></trkpt><trkpt lat="42.20812524257193" lon="14.204528094079587"><ele>403.0</ele><time>2026-04-12T09:06:46.999Z</time></trkpt><trkpt lat="42.20797952914997" lon="14.204439256294188"><ele>403.0</ele><time>2026-04-12T09:06:47.999Z</time></trkpt><trkpt lat="42.20785133821603" lon="14.204356210514844"><ele>403.0</ele><time>2026-04-12T09:06:48.999Z</time></trkpt><trkpt lat="42.20772151000588" lon="14.204248956491547"><ele>403.0</ele><time>2026-04-12T09:06:49.999Z</time></trkpt><trkpt lat="42.207589075135026" lon="14.204164533692763"><ele>403.0</ele><time>2026-04-12T09:06:50.999Z</time></trkpt><trkpt lat="42.2074583262778" lon="14.204076677350214"><ele>403.0</ele><time>2026-04-12T09:06:51.999Z</time></trkpt><trkpt lat="42.20734212112614" lon="14.20399859351461"><ele>403.0</ele><time>2026-04-12T09:06:52.999Z</time></trkpt><trkpt lat="42.20719080527482" lon="14.203897689293818"><ele>403.0</ele><time>2026-04-12T09:06:53.999Z</time></trkpt><trkpt lat="42.207046191435985" lon="14.203801761203605"><ele>405.33333333333337</ele><time>2026-04-12T09:06:54.999Z</time></trkpt><trkpt lat="42.20690589387596" lon="14.203708696023243"><ele>407.66666666666663</ele><time>2026-04-12T09:06:55.999Z</time></trkpt><trkpt lat="42.20677324483894" lon="14.203619652037325"><ele>410.0</ele><time>2026-04-12T09:06:56.999Z</time></trkpt><trkpt lat="42.20662844129803" lon="14.203520330888711"><ele>409.3333333333333</ele><time>2026-04-12T09:06:57.998Z</time></trkpt><trkpt lat="42.20649445415678" lon="14.203428428825896"><ele>408.66666666666663</ele><time>2026-04-12T09:06:58.998Z</time></trkpt><trkpt lat="42.20635561763002" lon="14.203333200885861"><ele>408.0</ele><time>2026-04-12T09:06:59.998Z</time></trkpt><trkpt lat="42.206226956913554" lon="14.203244952068461"><ele>408.0</ele><time>2026-04-12T09:07:00.998Z</time></trkpt><trkpt lat="42.206108669916674" lon="14.20316464240034"><ele>408.0</ele><time>2026-04-12T09:07:01.998Z</time></trkpt><trkpt lat="42.20599931774375" lon="14.203093036709575"><ele>408.0</ele><time>2026-04-12T09:07:02.998Z</time></trkpt><trkpt lat="42.20588797539001" lon="14.203019994160243"><ele>408.0</ele><time>2026-04-12T09:07:03.998Z</time></trkpt><trkpt lat="42.205824551539585" lon="14.20297781703734"><ele>408.0</ele><time>2026-04-12T09:07:04.998Z</time></trkpt><trkpt lat="42.20574527346525" lon="14.2029250976298"><ele>411.0</ele><time>2026-04-12T09:07:05.998Z</time></trkpt><trkpt lat="42.20562485665848" lon="14.202843108983025"><ele>414.0</ele><time>2026-04-12T09:07:06.998Z</time></trkpt><trkpt lat="42.20548144973089" lon="14.202743933149193"><ele>417.0</ele><time>2026-04-12T09:07:07.998Z</time></trkpt><trkpt lat="42.20533148639953" lon="14.202646362505467"><ele>417.0</ele><time>2026-04-12T09:07:08.998Z</time></trkpt><trkpt lat="42.205177614290704" lon="14.202550153272707"><ele>417.0</ele><time>2026-04-12T09:07:09.998Z</time></trkpt><trkpt lat="42.20503819025356" lon="14.202456721613352"><ele>417.0</ele><time>2026-04-12T09:07:10.998Z</time></trkpt><trkpt lat="42.204879357219205" lon="14.202364019457367"><ele>420.0</ele><time>2026-04-12T09:07:11.998Z</time></trkpt><trkpt lat="42.20472534157281" lon="14.202276107646188"><ele>423.0</ele><time>2026-04-12T09:07:12.998Z</time></trkpt><trkpt lat="42.204595023036326" lon="14.202204450740451"><ele>426.0</ele><time>2026-04-12T09:07:13.998Z</time></trkpt><trkpt lat="42.20447047937749" lon="14.20213680267848"><ele>429.0</ele><time>2026-04-12T09:07:14.998Z</time></trkpt><trkpt lat="42.20436010044409" lon="14.20207880197149"><ele>429.0</ele><time>2026-04-12T09:07:15.998Z</time></trkpt><trkpt lat="42.20424407319644" lon="14.202019674948732"><ele>429.0</ele><time>2026-04-12T09:07:16.998Z</time></trkpt><trkpt lat="42.204127683293926" lon="14.201960363284526"><ele>429.0</ele><time>2026-04-12T09:07:17.998Z</time></trkpt><trkpt lat="42.20399576218601" lon="14.201897109380571"><ele>429.0</ele><time>2026-04-12T09:07:18.998Z</time></trkpt><trkpt lat="42.20386028461734" lon="14.201834301573664"><ele>427.5</ele><time>2026-04-12T09:07:19.998Z</time></trkpt><trkpt lat="42.203728329448154" lon="14.201776532642437"><ele>426.0</ele><time>2026-04-12T09:07:20.998Z</time></trkpt><trkpt lat="42.203603440990854" lon="14.201724327452187"><ele>424.5</ele><time>2026-04-12T09:07:22Z</time></trkpt><trkpt lat="42.203478628415716" lon="14.201675275094393"><ele>423.0</ele><time>2026-04-12T09:07:23Z</time></trkpt><trkpt lat="42.20334573225682" lon="14.201623588361587"><ele>423.0</ele><time>2026-04-12T09:07:24Z</time></trkpt><trkpt lat="42.20322599778704" lon="14.201577020568465"><ele>423.0</ele><time>2026-04-12T09:07:25Z</time></trkpt><trkpt lat="42.20312402131185" lon="14.201537547247378"><ele>423.0</ele><time>2026-04-12T09:07:26Z</time></trkpt><trkpt lat="42.20298567542385" lon="14.201489958156984"><ele>423.0</ele><time>2026-04-12T09:07:28Z</time></trkpt><trkpt lat="42.20290335064308" lon="14.201463607603372"><ele>423.59999999999997</ele><time>2026-04-12T09:07:29Z</time></trkpt><trkpt lat="42.20282645763971" lon="14.201439534246832"><ele>424.2</ele><time>2026-04-12T09:07:30Z</time></trkpt><trkpt lat="42.202691979011846" lon="14.201400434797682"><ele>424.8</ele><time>2026-04-12T09:07:32Z</time></trkpt><trkpt lat="42.20261615921913" lon="14.201378789538143"><ele>425.4</ele><time>2026-04-12T09:07:33Z</time></trkpt><trkpt lat="42.202534908939136" lon="14.201355593885447"><ele>426.0</ele><time>2026-04-12T09:07:34Z</time></trkpt><trkpt lat="42.20245046847262" lon="14.201333639643098"><ele>426.0</ele><time>2026-04-12T09:07:35Z</time></trkpt><trkpt lat="42.202378615806836" lon="14.20131707766819"><ele>426.0</ele><time>2026-04-12T09:07:36Z</time></trkpt><trkpt lat="42.20228740926157" lon="14.20129560482197"><ele>426.0</ele><time>2026-04-12T09:07:38Z</time></trkpt><trkpt lat="42.20220380712902" lon="14.201275922343237"><ele>426.0</ele><time>2026-04-12T09:07:40Z</time></trkpt><trkpt lat="42.202123535586715" lon="14.201257024020975"><ele>426.0</ele><time>2026-04-12T09:07:42Z</time></trkpt><trkpt lat="42.20203810277393" lon="14.201237172707598"><ele>426.0</ele><time>2026-04-12T09:07:44Z</time></trkpt><trkpt lat="42.2019730862713" lon="14.201222133985262"><ele>427.25</ele><time>2026-04-12T09:07:45Z</time></trkpt><trkpt lat="42.201869473573126" lon="14.20119816778201"><ele>428.5</ele><time>2026-04-12T09:07:47Z</time></trkpt><trkpt lat="42.20175135388476" lon="14.201172867028273"><ele>429.75</ele><time>2026-04-12T09:07:49Z</time></trkpt><trkpt lat="42.20162755933302" lon="14.201146590484797"><ele>431.0</ele><time>2026-04-12T09:07:51Z</time></trkpt><trkpt lat="42.20152217731994" lon="14.201124233446803"><ele>432.6</ele><time>2026-04-12T09:07:53Z</time></trkpt><trkpt lat="42.201396813844056" lon="14.201097680598588"><ele>434.20000000000005</ele><time>2026-04-12T09:07:55Z</time></trkpt><trkpt lat="42.20131569032252" lon="14.201080498147064"><ele>435.79999999999995</ele><time>2026-04-12T09:07:56Z</time></trkpt><trkpt lat="42.20123354132926" lon="14.20106309843868"><ele>437.4</ele><time>2026-04-12T09:07:57Z</time></trkpt><trkpt lat="42.201155501224264" lon="14.201046569025868"><ele>439.0</ele><time>2026-04-12T09:07:57.999Z</time></trkpt><trkpt lat="42.201070977291586" lon="14.201028666220113"><ele>439.00000000000006</ele><time>2026-04-12T09:07:58.999Z</time></trkpt><trkpt lat="42.200977174170426" lon="14.201008687988205"><ele>439.0</ele><time>2026-04-12T09:07:59.999Z</time></trkpt><trkpt lat="42.200900197485254" lon="14.200991944657941"><ele>439.0</ele><time>2026-04-12T09:08:00.999Z</time></trkpt><trkpt lat="42.200808421061936" lon="14.200971981905651"><ele>439.0</ele><time>2026-04-12T09:08:02.999Z</time></trkpt><trkpt lat="42.20073299936262" lon="14.200955577507367"><ele>439.00000000000006</ele><time>2026-04-12T09:08:06.999Z</time></trkpt><trkpt lat="42.20065081128008" lon="14.200937700693679"><ele>439.0</ele><time>2026-04-12T09:08:09.999Z</time></trkpt><trkpt lat="42.20038466963254" lon="14.200879821842074"><ele>440.6</ele><time>2026-04-12T09:08:12.999Z</time></trkpt><trkpt lat="42.20028179850367" lon="14.20085744610985"><ele>442.2</ele><time>2026-04-12T09:08:14.999Z</time></trkpt><trkpt lat="42.2001709209341" lon="14.200833329062387"><ele>443.80000000000007</ele><time>2026-04-12T09:08:16.999Z</time></trkpt><trkpt lat="42.20009408378593" lon="14.200815662310998"><ele>445.40000000000003</ele><time>2026-04-12T09:08:17.999Z</time></trkpt><trkpt lat="42.20002193415082" lon="14.200798992188503"><ele>447.0</ele><time>2026-04-12T09:08:18.999Z</time></trkpt><trkpt lat="42.19990268246802" lon="14.200756837560064"><ele>447.8</ele><time>2026-04-12T09:08:20.999Z</time></trkpt><trkpt lat="42.199780007785535" lon="14.200743365318392"><ele>448.6</ele><time>2026-04-12T09:08:22.999Z</time></trkpt><trkpt lat="42.19968432093718" lon="14.200721569137581"><ele>449.40000000000003</ele><time>2026-04-12T09:08:23.999Z</time></trkpt><trkpt lat="42.19961256627546" lon="14.200706244356299"><ele>450.20000000000005</ele><time>2026-04-12T09:08:24.999Z</time></trkpt><trkpt lat="42.199540173676645" lon="14.200691720742308"><ele>451.0</ele><time>2026-04-12T09:08:25.999Z</time></trkpt><trkpt lat="42.19941958427856" lon="14.200667527695947"><ele>452.8</ele><time>2026-04-12T09:08:27.999Z</time></trkpt><trkpt lat="42.19931071399155" lon="14.20064593307718"><ele>454.6</ele><time>2026-04-12T09:08:29.999Z</time></trkpt><trkpt lat="42.19920895678342" lon="14.200626229212236"><ele>456.4</ele><time>2026-04-12T09:08:31.999Z</time></trkpt><trkpt lat="42.19907684863449" lon="14.200606703937353"><ele>458.2</ele><time>2026-04-12T09:08:33.999Z</time></trkpt><trkpt lat="42.1990116169124" lon="14.200598057711622"><ele>460.0</ele><time>2026-04-12T09:08:34.999Z</time></trkpt><trkpt lat="42.19893940599897" lon="14.200555667964945"><ele>461.33333333333337</ele><time>2026-04-12T09:08:35.999Z</time></trkpt><trkpt lat="42.19885766270744" lon="14.200580408190625"><ele>462.6666666666667</ele><time>2026-04-12T09:08:37.999Z</time></trkpt><trkpt lat="42.19878826623269" lon="14.200541458428354"><ele>464.0</ele><time>2026-04-12T09:08:39.999Z</time></trkpt><trkpt lat="42.19873089631211" lon="14.200505356795961"><ele>465.33333333333337</ele><time>2026-04-12T09:08:40.999Z</time></trkpt><trkpt lat="42.19866298390129" lon="14.200516896754252"><ele>466.6666666666667</ele><time>2026-04-12T09:08:41.999Z</time></trkpt><trkpt lat="42.19858987895109" lon="14.20052892496432"><ele>468.0</ele><time>2026-04-12T09:08:42.999Z</time></trkpt><trkpt lat="42.19848223931208" lon="14.200539701410392"><ele>468.0</ele><time>2026-04-12T09:08:43.999Z</time></trkpt><trkpt lat="42.19839408550306" lon="14.200551603717306"><ele>468.0</ele><time>2026-04-12T09:08:44.999Z</time></trkpt><trkpt lat="42.19832114500305" lon="14.200550281387136"><ele>468.0</ele><time>2026-04-12T09:08:45.999Z</time></trkpt><trkpt lat="42.198258114938696" lon="14.200549138735324"><ele>468.0</ele><time>2026-04-12T09:08:46.999Z</time></trkpt><trkpt lat="42.198191420620745" lon="14.200547929659116"><ele>468.0</ele><time>2026-04-12T09:08:47.999Z</time></trkpt><trkpt lat="42.1981101793752" lon="14.200546456871988"><ele>468.0</ele><time>2026-04-12T09:08:48.999Z</time></trkpt><trkpt lat="42.1980286324641" lon="14.200544978536504"><ele>469.0</ele><time>2026-04-12T09:08:49.999Z</time></trkpt><trkpt lat="42.19795167035995" lon="14.200543583319696"><ele>469.99999999999994</ele><time>2026-04-12T09:08:50.999Z</time></trkpt><trkpt lat="42.197861420031764" lon="14.20054194719963"><ele>470.99999999999994</ele><time>2026-04-12T09:08:51.999Z</time></trkpt><trkpt lat="42.197765857581494" lon="14.200540214773424"><ele>472.0</ele><time>2026-04-12T09:08:52.999Z</time></trkpt><trkpt lat="42.1976798369377" lon="14.200538655343399"><ele>473.0</ele><time>2026-04-12T09:08:53.999Z</time></trkpt><trkpt lat="42.19757896249816" lon="14.200536826638425"><ele>473.0</ele><time>2026-04-12T09:08:55.999Z</time></trkpt><trkpt lat="42.19751549468998" lon="14.200535676066846"><ele>473.0</ele><time>2026-04-12T09:08:57.999Z</time></trkpt><trkpt lat="42.197448142938896" lon="14.200518716984469"><ele>473.0</ele><time>2026-04-12T09:09:01.998Z</time></trkpt><trkpt lat="42.197439272812055" lon="14.199835099319607"><ele>474.2</ele><time>2026-04-12T09:09:02.998Z</time></trkpt><trkpt lat="42.19741007649992" lon="14.19971428214619"><ele>475.4</ele><time>2026-04-12T09:09:04.998Z</time></trkpt><trkpt lat="42.1974314812297" lon="14.199530126854263"><ele>476.59999999999997</ele><time>2026-04-12T09:09:06.998Z</time></trkpt><trkpt lat="42.197452332741435" lon="14.199442265632092"><ele>477.79999999999995</ele><time>2026-04-12T09:09:07.998Z</time></trkpt><trkpt lat="42.197472020865064" lon="14.199304774192802"><ele>479.0</ele><time>2026-04-12T09:09:09.998Z</time></trkpt><trkpt lat="42.19749457263027" lon="14.19920916298598"><ele>478.99999999999994</ele><time>2026-04-12T09:09:11.998Z</time></trkpt><trkpt lat="42.19748086120227" lon="14.199124059498125"><ele>479.0</ele><time>2026-04-12T09:09:14.998Z</time></trkpt><trkpt lat="42.197450267267854" lon="14.199046425851428"><ele>479.0</ele><time>2026-04-12T09:09:16.998Z</time></trkpt><trkpt lat="42.197408873703104" lon="14.198982136104505"><ele>479.0</ele><time>2026-04-12T09:09:18.998Z</time></trkpt><trkpt lat="42.197357965467084" lon="14.198879538125539"><ele>478.99999999999994</ele><time>2026-04-12T09:09:20.998Z</time></trkpt><trkpt lat="42.19729666140318" lon="14.19879851917468"><ele>479.0</ele><time>2026-04-12T09:09:22.998Z</time></trkpt><trkpt lat="42.197222044553016" lon="14.198709609557213"><ele>479.3333333333333</ele><time>2026-04-12T09:09:24.998Z</time></trkpt><trkpt lat="42.19715725210862" lon="14.198632776984207"><ele>479.66666666666663</ele><time>2026-04-12T09:09:26.998Z</time></trkpt><trkpt lat="42.19716627958424" lon="14.198517471615423"><ele>480.0</ele><time>2026-04-12T09:09:30Z</time></trkpt><trkpt lat="42.19721682149127" lon="14.198466577663583"><ele>480.33333333333337</ele><time>2026-04-12T09:09:32Z</time></trkpt><trkpt lat="42.19730847142737" lon="14.198456476245562"><ele>480.6666666666667</ele><time>2026-04-12T09:09:34Z</time></trkpt><trkpt lat="42.19739322771589" lon="14.1984054710185"><ele>481.0</ele><time>2026-04-12T09:09:37Z</time></trkpt><trkpt lat="42.1974318533763" lon="14.198316122127077"><ele>481.0</ele><time>2026-04-12T09:09:39Z</time></trkpt><trkpt lat="42.19750138675567" lon="14.19820888266295"><ele>481.0</ele><time>2026-04-12T09:09:41Z</time></trkpt><trkpt lat="42.19757190446565" lon="14.198090070677823"><ele>481.0</ele><time>2026-04-12T09:09:43Z</time></trkpt><trkpt lat="42.19762473018743" lon="14.19798508201635"><ele>481.0</ele><time>2026-04-12T09:09:46Z</time></trkpt><trkpt lat="42.197681362827815" lon="14.197877563674702"><ele>481.0</ele><time>2026-04-12T09:09:49Z</time></trkpt><trkpt lat="42.19772657091402" lon="14.197813405875436"><ele>481.4</ele><time>2026-04-12T09:09:51Z</time></trkpt><trkpt lat="42.197702910824184" lon="14.197700772422678"><ele>481.8</ele><time>2026-04-12T09:09:55Z</time></trkpt><trkpt lat="42.19760932789555" lon="14.197598902882872"><ele>482.19999999999993</ele><time>2026-04-12T09:09:57Z</time></trkpt><trkpt lat="42.197580728738075" lon="14.197510303625174"><ele>482.59999999999997</ele><time>2026-04-12T09:09:58Z</time></trkpt><trkpt lat="42.19748550147925" lon="14.197419032591887"><ele>483.0</ele><time>2026-04-12T09:10:00Z</time></trkpt><trkpt lat="42.19740348850556" lon="14.197370974954973"><ele>483.2</ele><time>2026-04-12T09:10:00.999Z</time></trkpt><trkpt lat="42.19733809067393" lon="14.197303769465938"><ele>483.4</ele><time>2026-04-12T09:10:01.999Z</time></trkpt><trkpt lat="42.19728496653841" lon="14.197212960768443"><ele>483.59999999999997</ele><time>2026-04-12T09:10:02.999Z</time></trkpt><trkpt lat="42.19723447758713" lon="14.197138366958542"><ele>483.79999999999995</ele><time>2026-04-12T09:10:03.999Z</time></trkpt><trkpt lat="42.19714656406376" lon="14.197052261771653"><ele>484.0</ele><time>2026-04-12T09:10:05.999Z</time></trkpt><trkpt lat="42.19704244272561" lon="14.196996315309207"><ele>485.79999999999995</ele><time>2026-04-12T09:10:07.999Z</time></trkpt><trkpt lat="42.19698136579333" lon="14.196861037439433"><ele>487.59999999999997</ele><time>2026-04-12T09:10:09.999Z</time></trkpt><trkpt lat="42.19698398747727" lon="14.196757142800703"><ele>489.4</ele><time>2026-04-12T09:10:10.999Z</time></trkpt><trkpt lat="42.19694515752191" lon="14.196588234769424"><ele>491.2</ele><time>2026-04-12T09:10:12.999Z</time></trkpt><trkpt lat="42.196897177800146" lon="14.196514305073205"><ele>493.0</ele><time>2026-04-12T09:10:13.999Z</time></trkpt><trkpt lat="42.19683779736628" lon="14.196448436662457"><ele>493.33333333333337</ele><time>2026-04-12T09:10:14.999Z</time></trkpt><trkpt lat="42.19678584073689" lon="14.196378791118466"><ele>493.6666666666667</ele><time>2026-04-12T09:10:15.999Z</time></trkpt><trkpt lat="42.1967450183872" lon="14.196309937466667"><ele>494.0</ele><time>2026-04-12T09:10:16.999Z</time></trkpt><trkpt lat="42.19671081125391" lon="14.196237069681976"><ele>494.33333333333337</ele><time>2026-04-12T09:10:17.999Z</time></trkpt><trkpt lat="42.19668581340416" lon="14.19610764288239"><ele>494.6666666666667</ele><time>2026-04-12T09:10:19.999Z</time></trkpt><trkpt lat="42.19662228772276" lon="14.195985129209141"><ele>495.0</ele><time>2026-04-12T09:10:21.999Z</time></trkpt><trkpt lat="42.19654948177148" lon="14.195929600410992"><ele>496.0</ele><time>2026-04-12T09:10:22.999Z</time></trkpt><trkpt lat="42.19647770838239" lon="14.195858072608559"><ele>497.0</ele><time>2026-04-12T09:10:23.999Z</time></trkpt><trkpt lat="42.196411375027026" lon="14.19577478519863"><ele>498.0</ele><time>2026-04-12T09:10:24.999Z</time></trkpt><trkpt lat="42.196356058169876" lon="14.195685589437648"><ele>499.0</ele><time>2026-04-12T09:10:25.999Z</time></trkpt><trkpt lat="42.1963081114868" lon="14.1956079098452"><ele>500.0</ele><time>2026-04-12T09:10:26.999Z</time></trkpt><trkpt lat="42.19625950666669" lon="14.195546735680242"><ele>501.0</ele><time>2026-04-12T09:10:28.999Z</time></trkpt><trkpt lat="42.19619806629808" lon="14.19547469787083"><ele>501.0</ele><time>2026-04-12T09:10:30.999Z</time></trkpt><trkpt lat="42.19609202940745" lon="14.19535983740069"><ele>501.0</ele><time>2026-04-12T09:10:32.999Z</time></trkpt><trkpt lat="42.19602613329461" lon="14.195291183871678"><ele>501.0</ele><time>2026-04-12T09:10:33.999Z</time></trkpt><trkpt lat="42.195971336878074" lon="14.195239204509333"><ele>501.0</ele><time>2026-04-12T09:10:34.999Z</time></trkpt><trkpt lat="42.19591119650245" lon="14.195187581944465"><ele>501.0</ele><time>2026-04-12T09:10:35.999Z</time></trkpt><trkpt lat="42.19585699685065" lon="14.195134646997277"><ele>501.0</ele><time>2026-04-12T09:10:36.999Z</time></trkpt><trkpt lat="42.195780881462866" lon="14.195059229894847"><ele>501.0</ele><time>2026-04-12T09:10:38.999Z</time></trkpt><trkpt lat="42.195673724123" lon="14.19498412924585"><ele>501.0</ele><time>2026-04-12T09:10:40.999Z</time></trkpt><trkpt lat="42.19558054056981" lon="14.19490515780208"><ele>501.0</ele><time>2026-04-12T09:10:42.999Z</time></trkpt><trkpt lat="42.19552548229158" lon="14.19481238127674"><ele>501.0</ele><time>2026-04-12T09:10:43.999Z</time></trkpt><trkpt lat="42.195466057577406" lon="14.194693667949009"><ele>501.0</ele><time>2026-04-12T09:10:44.999Z</time></trkpt><trkpt lat="42.19539974841934" lon="14.194623893318198"><ele>503.20000000000005</ele><time>2026-04-12T09:10:45.999Z</time></trkpt><trkpt lat="42.195341840170705" lon="14.194537549105473"><ele>505.40000000000003</ele><time>2026-04-12T09:10:47.999Z</time></trkpt><trkpt lat="42.19530719481592" lon="14.194357532161597"><ele>507.6</ele><time>2026-04-12T09:10:49.999Z</time></trkpt><trkpt lat="42.19525039476558" lon="14.194257837612835"><ele>509.8</ele><time>2026-04-12T09:10:50.999Z</time></trkpt><trkpt lat="42.19518331920646" lon="14.194202874361094"><ele>512.0</ele><time>2026-04-12T09:10:51.999Z</time></trkpt><trkpt lat="42.195097730840146" lon="14.194164920520343"><ele>511.99999999999994</ele><time>2026-04-12T09:10:53.999Z</time></trkpt><trkpt lat="42.19503053461639" lon="14.19418444753149"><ele>512.0</ele><time>2026-04-12T09:10:55.999Z</time></trkpt><trkpt lat="42.19496739717433" lon="14.19419584781181"><ele>512.0</ele><time>2026-04-12T09:10:57.999Z</time></trkpt><trkpt lat="42.1948887886979" lon="14.194177542222247"><ele>512.0</ele><time>2026-04-12T09:10:59.999Z</time></trkpt><trkpt lat="42.19482759615027" lon="14.194127703461756"><ele>511.99999999999994</ele><time>2026-04-12T09:11:00.999Z</time></trkpt><trkpt lat="42.194757570631026" lon="14.194078939295972"><ele>512.0</ele><time>2026-04-12T09:11:01.999Z</time></trkpt><trkpt lat="42.19465674414033" lon="14.193931189576656"><ele>511.8</ele><time>2026-04-12T09:11:03.998Z</time></trkpt><trkpt lat="42.19469445874903" lon="14.193750434244437"><ele>511.6</ele><time>2026-04-12T09:11:05.998Z</time></trkpt><trkpt lat="42.19472180142457" lon="14.193665077274323"><ele>511.40000000000003</ele><time>2026-04-12T09:11:06.998Z</time></trkpt><trkpt lat="42.19480399854731" lon="14.193548055242198"><ele>511.20000000000005</ele><time>2026-04-12T09:11:08.998Z</time></trkpt><trkpt lat="42.19485837465452" lon="14.193452898218231"><ele>511.0</ele><time>2026-04-12T09:11:11.998Z</time></trkpt><trkpt lat="42.19486677209363" lon="14.1932668281959"><ele>513.5</ele><time>2026-04-12T09:11:13.998Z</time></trkpt><trkpt lat="42.1948300177427" lon="14.193166353265077"><ele>516.0</ele><time>2026-04-12T09:11:14.998Z</time></trkpt><trkpt lat="42.19478723745934" lon="14.193044406140821"><ele>518.5</ele><time>2026-04-12T09:11:15.998Z</time></trkpt><trkpt lat="42.19474584825719" lon="14.1929441526764"><ele>521.0</ele><time>2026-04-12T09:11:16.998Z</time></trkpt><trkpt lat="42.19472066449906" lon="14.192806609369514"><ele>523.5</ele><time>2026-04-12T09:11:18.998Z</time></trkpt><trkpt lat="42.194713291882145" lon="14.192709800303048"><ele>526.0</ele><time>2026-04-12T09:11:19.998Z</time></trkpt><trkpt lat="42.19471479702417" lon="14.192610372541733"><ele>526.0</ele><time>2026-04-12T09:11:20.998Z</time></trkpt><trkpt lat="42.194695864563485" lon="14.19252745199786"><ele>526.0</ele><time>2026-04-12T09:11:21.998Z</time></trkpt><trkpt lat="42.19459389650294" lon="14.192411961600946"><ele>526.0</ele><time>2026-04-12T09:11:23.998Z</time></trkpt><trkpt lat="42.19453217422893" lon="14.19234286577176"><ele>526.0</ele><time>2026-04-12T09:11:24.998Z</time></trkpt><trkpt lat="42.194475717689556" lon="14.192278150494078"><ele>526.0</ele><time>2026-04-12T09:11:25.998Z</time></trkpt><trkpt lat="42.19440765838222" lon="14.192222926101563"><ele>526.0</ele><time>2026-04-12T09:11:26.998Z</time></trkpt><trkpt lat="42.194344341215675" lon="14.192185512611236"><ele>526.8</ele><time>2026-04-12T09:11:27.998Z</time></trkpt><trkpt lat="42.19423949944821" lon="14.192155131687663"><ele>527.6</ele><time>2026-04-12T09:11:29.998Z</time></trkpt><trkpt lat="42.19415665053736" lon="14.192173973728563"><ele>528.4</ele><time>2026-04-12T09:11:31.998Z</time></trkpt><trkpt lat="42.19409274097554" lon="14.192136193015326"><ele>529.2</ele><time>2026-04-12T09:11:34Z</time></trkpt><trkpt lat="42.19401827633393" lon="14.191983558912977"><ele>530.0</ele><time>2026-04-12T09:11:36Z</time></trkpt><trkpt lat="42.1939492856432" lon="14.191957586997596"><ele>530.0</ele><time>2026-04-12T09:11:37Z</time></trkpt><trkpt lat="42.19384738288631" lon="14.191954870295284"><ele>530.0</ele><time>2026-04-12T09:11:38Z</time></trkpt><trkpt lat="42.19377059753047" lon="14.191977231225948"><ele>530.0</ele><time>2026-04-12T09:11:39Z</time></trkpt><trkpt lat="42.19370750714497" lon="14.191997268000637"><ele>530.0</ele><time>2026-04-12T09:11:41Z</time></trkpt><trkpt lat="42.193629869746516" lon="14.191948319050697"><ele>530.0</ele><time>2026-04-12T09:11:43Z</time></trkpt><trkpt lat="42.1935870235113" lon="14.191871047420845"><ele>530.0</ele><time>2026-04-12T09:11:44Z</time></trkpt><trkpt lat="42.19352813842236" lon="14.191724840466927"><ele>530.0</ele><time>2026-04-12T09:11:45Z</time></trkpt><trkpt lat="42.19347917718897" lon="14.191598949711322"><ele>530.0</ele><time>2026-04-12T09:11:46Z</time></trkpt><trkpt lat="42.1934006166102" lon="14.191465569609813"><ele>530.0</ele><time>2026-04-12T09:11:47Z</time></trkpt><trkpt lat="42.1933407808595" lon="14.191341433443212"><ele>530.0</ele><time>2026-04-12T09:11:48Z</time></trkpt><trkpt lat="42.19326640054544" lon="14.191278173257144"><ele>530.0</ele><time>2026-04-12T09:11:49Z</time></trkpt><trkpt lat="42.19314637019644" lon="14.191225808582347"><ele>531.5</ele><time>2026-04-12T09:11:50Z</time></trkpt><trkpt lat="42.19304645607105" lon="14.191184803772323"><ele>533.0</ele><time>2026-04-12T09:11:51Z</time></trkpt><trkpt lat="42.19293745460368" lon="14.19108519119544"><ele>534.5</ele><time>2026-04-12T09:11:53Z</time></trkpt><trkpt lat="42.192832755660724" lon="14.191048829584181"><ele>536.0</ele><time>2026-04-12T09:11:54Z</time></trkpt><trkpt lat="42.19271159347543" lon="14.191031223358051"><ele>536.0</ele><time>2026-04-12T09:11:55Z</time></trkpt><trkpt lat="42.19258770082239" lon="14.190984535970513"><ele>536.0</ele><time>2026-04-12T09:11:56Z</time></trkpt><trkpt lat="42.19251843166257" lon="14.190925067014808"><ele>536.0</ele><time>2026-04-12T09:11:57Z</time></trkpt><trkpt lat="42.19244444381472" lon="14.190884106540244"><ele>536.0</ele><time>2026-04-12T09:11:58Z</time></trkpt><trkpt lat="42.192353613160094" lon="14.190855604502575"><ele>536.0</ele><time>2026-04-12T09:12:00Z</time></trkpt><trkpt lat="42.192279325430704" lon="14.190833500191312"><ele>537.5</ele><time>2026-04-12T09:12:01Z</time></trkpt><trkpt lat="42.19217893906154" lon="14.19082367467917"><ele>539.0</ele><time>2026-04-12T09:12:02Z</time></trkpt><trkpt lat="42.19209547010209" lon="14.190801645008062"><ele>540.5</ele><time>2026-04-12T09:12:02.999Z</time></trkpt><trkpt lat="42.192031556212996" lon="14.190796313749999"><ele>542.0</ele><time>2026-04-12T09:12:03.999Z</time></trkpt><trkpt lat="42.19196541085732" lon="14.190792307838965"><ele>543.5</ele><time>2026-04-12T09:12:04.999Z</time></trkpt><trkpt lat="42.19189906466898" lon="14.190799721978507"><ele>545.0</ele><time>2026-04-12T09:12:05.999Z</time></trkpt><trkpt lat="42.19179024784747" lon="14.190787225716845"><ele>545.0</ele><time>2026-04-12T09:12:07.999Z</time></trkpt><trkpt lat="42.191723042933816" lon="14.190728693066921"><ele>545.0</ele><time>2026-04-12T09:12:08.999Z</time></trkpt><trkpt lat="42.1916415243129" lon="14.190663406467822"><ele>545.0</ele><time>2026-04-12T09:12:09.999Z</time></trkpt><trkpt lat="42.19155350915455" lon="14.19059616979585"><ele>545.0</ele><time>2026-04-12T09:12:10.999Z</time></trkpt><trkpt lat="42.19148129461724" lon="14.190518549329395"><ele>545.0</ele><time>2026-04-12T09:12:11.999Z</time></trkpt><trkpt lat="42.191430357903734" lon="14.190459403544445"><ele>545.0</ele><time>2026-04-12T09:12:12.999Z</time></trkpt><trkpt lat="42.19137775510877" lon="14.190397291332022"><ele>546.6</ele><time>2026-04-12T09:12:14.999Z</time></trkpt><trkpt lat="42.19133167365089" lon="14.190329298410944"><ele>548.2</ele><time>2026-04-12T09:12:16.999Z</time></trkpt><trkpt lat="42.19124978555049" lon="14.190281313019716"><ele>549.8</ele><time>2026-04-12T09:12:19.999Z</time></trkpt><trkpt lat="42.191155311418775" lon="14.19021496102927"><ele>551.4</ele><time>2026-04-12T09:12:22.999Z</time></trkpt><trkpt lat="42.19107525550189" lon="14.190120240560237"><ele>553.0</ele><time>2026-04-12T09:12:24.999Z</time></trkpt><trkpt lat="42.191032504700495" lon="14.190029985448929"><ele>553.0</ele><time>2026-04-12T09:12:27.999Z</time></trkpt><trkpt lat="42.1909459124681" lon="14.189944910073736"><ele>553.0</ele><time>2026-04-12T09:12:28.999Z</time></trkpt><trkpt lat="42.19086470886563" lon="14.189847944363327"><ele>553.0</ele><time>2026-04-12T09:12:30.999Z</time></trkpt><trkpt lat="42.19080960997868" lon="14.189788549871032"><ele>553.0</ele><time>2026-04-12T09:12:31.999Z</time></trkpt><trkpt lat="42.19074401820973" lon="14.189720857549155"><ele>553.0</ele><time>2026-04-12T09:12:32.999Z</time></trkpt><trkpt lat="42.19069677477777" lon="14.189664169935819"><ele>553.0</ele><time>2026-04-12T09:12:33.999Z</time></trkpt><trkpt lat="42.19064380482479" lon="14.189584227866868"><ele>554.3333333333334</ele><time>2026-04-12T09:12:35.999Z</time></trkpt><trkpt lat="42.19055532471164" lon="14.189636447297449"><ele>555.6666666666667</ele><time>2026-04-12T09:12:38.999Z</time></trkpt><trkpt lat="42.19048652030902" lon="14.189623575273188"><ele>557.0</ele><time>2026-04-12T09:12:40.999Z</time></trkpt><trkpt lat="42.19040388749106" lon="14.189574832408308"><ele>558.3333333333334</ele><time>2026-04-12T09:12:42.999Z</time></trkpt><trkpt lat="42.190363000646435" lon="14.189453751739181"><ele>559.6666666666666</ele><time>2026-04-12T09:12:44.999Z</time></trkpt><trkpt lat="42.19035137509251" lon="14.189358962878153"><ele>561.0</ele><time>2026-04-12T09:12:45.999Z</time></trkpt><trkpt lat="42.19033021583754" lon="14.189278868685413"><ele>561.0</ele><time>2026-04-12T09:12:46.999Z</time></trkpt><trkpt lat="42.190277729374934" lon="14.189084983425767"><ele>561.0</ele><time>2026-04-12T09:12:48.999Z</time></trkpt><trkpt lat="42.19024733594347" lon="14.18896825369944"><ele>561.0</ele><time>2026-04-12T09:12:49.999Z</time></trkpt><trkpt lat="42.1901840263644" lon="14.188836942254275"><ele>561.0</ele><time>2026-04-12T09:12:50.999Z</time></trkpt><trkpt lat="42.19011092610886" lon="14.188692850319018"><ele>561.4</ele><time>2026-04-12T09:12:51.999Z</time></trkpt><trkpt lat="42.19004707286008" lon="14.188566440875956"><ele>561.8</ele><time>2026-04-12T09:12:52.999Z</time></trkpt><trkpt lat="42.18999155252791" lon="14.188458118576996"><ele>562.1999999999999</ele><time>2026-04-12T09:12:53.999Z</time></trkpt><trkpt lat="42.1899411788359" lon="14.18836954089534"><ele>562.6</ele><time>2026-04-12T09:12:54.999Z</time></trkpt><trkpt lat="42.18993721445563" lon="14.1882517922438"><ele>563.0</ele><time>2026-04-12T09:12:55.999Z</time></trkpt><trkpt lat="42.18993589657634" lon="14.188105749318092"><ele>563.8</ele><time>2026-04-12T09:12:56.999Z</time></trkpt><trkpt lat="42.18989672039507" lon="14.187951028085491"><ele>564.5999999999999</ele><time>2026-04-12T09:12:57.999Z</time></trkpt><trkpt lat="42.1898480718261" lon="14.187810258677134"><ele>565.4000000000001</ele><time>2026-04-12T09:12:58.999Z</time></trkpt><trkpt lat="42.18979608054835" lon="14.187683074683516"><ele>566.2</ele><time>2026-04-12T09:12:59.999Z</time></trkpt><trkpt lat="42.18973544776395" lon="14.187581483622479"><ele>567.0</ele><time>2026-04-12T09:13:00.999Z</time></trkpt><trkpt lat="42.18965597572071" lon="14.187486900630098"><ele>569.2</ele><time>2026-04-12T09:13:01.999Z</time></trkpt><trkpt lat="42.189610011189146" lon="14.187389936755567"><ele>571.4000000000001</ele><time>2026-04-12T09:13:02.999Z</time></trkpt><trkpt lat="42.189568343808475" lon="14.18727702363675"><ele>573.5999999999999</ele><time>2026-04-12T09:13:03.998Z</time></trkpt><trkpt lat="42.18953464267287" lon="14.187176134223634"><ele>575.8</ele><time>2026-04-12T09:13:04.998Z</time></trkpt><trkpt lat="42.189506289687664" lon="14.18709059874829"><ele>578.0</ele><time>2026-04-12T09:13:05.998Z</time></trkpt><trkpt lat="42.189453235248195" lon="14.186926981948092"><ele>578.0</ele><time>2026-04-12T09:13:07.998Z</time></trkpt><trkpt lat="42.189423136019386" lon="14.186806823025563"><ele>578.0</ele><time>2026-04-12T09:13:09.998Z</time></trkpt><trkpt lat="42.189346811025544" lon="14.186802359990255"><ele>578.0</ele><time>2026-04-12T09:13:11.998Z</time></trkpt><trkpt lat="42.1892773926955" lon="14.186830345363768"><ele>578.0</ele><time>2026-04-12T09:13:15.998Z</time></trkpt><trkpt lat="42.18922050866823" lon="14.186884688516653"><ele>578.0</ele><time>2026-04-12T09:15:08.998Z</time></trkpt><trkpt lat="42.189149862737516" lon="14.186922557511819"><ele>578.0</ele><time>2026-04-12T09:15:11.998Z</time></trkpt><trkpt lat="42.18904259739783" lon="14.186945135779888"><ele>579.6</ele><time>2026-04-12T09:15:13.998Z</time></trkpt><trkpt lat="42.188935234403615" lon="14.186913258786007"><ele>581.1999999999999</ele><time>2026-04-12T09:15:15.998Z</time></trkpt><trkpt lat="42.1888672867078" lon="14.186895884946974"><ele>582.8</ele><time>2026-04-12T09:15:16.998Z</time></trkpt><trkpt lat="42.188798987493335" lon="14.186884823207333"><ele>584.4</ele><time>2026-04-12T09:15:17.998Z</time></trkpt><trkpt lat="42.18867317715235" lon="14.186842070966886"><ele>586.0</ele><time>2026-04-12T09:15:19.998Z</time></trkpt><trkpt lat="42.18859816736634" lon="14.186832039444974"><ele>586.0</ele><time>2026-04-12T09:15:20.998Z</time></trkpt><trkpt lat="42.18850063499215" lon="14.186847065305042"><ele>586.0</ele><time>2026-04-12T09:15:21.998Z</time></trkpt><trkpt lat="42.188392697686844" lon="14.186895104000785"><ele>586.0</ele><time>2026-04-12T09:15:22.998Z</time></trkpt><trkpt lat="42.188284400368865" lon="14.186962375669246"><ele>586.0</ele><time>2026-04-12T09:15:23.998Z</time></trkpt><trkpt lat="42.188185696161845" lon="14.187035606007946"><ele>586.0</ele><time>2026-04-12T09:15:24.998Z</time></trkpt><trkpt lat="42.18810634318512" lon="14.187092712605882"><ele>587.6</ele><time>2026-04-12T09:15:25.998Z</time></trkpt><trkpt lat="42.18803588181811" lon="14.18716442358058"><ele>589.2</ele><time>2026-04-12T09:15:27.998Z</time></trkpt><trkpt lat="42.18794757799596" lon="14.186980927919047"><ele>590.8</ele><time>2026-04-12T09:15:30.998Z</time></trkpt><trkpt lat="42.187890063499665" lon="14.186878925745033"><ele>592.4</ele><time>2026-04-12T09:15:31.998Z</time></trkpt><trkpt lat="42.187818522589275" lon="14.186780342184363"><ele>594.0</ele><time>2026-04-12T09:15:32.998Z</time></trkpt><trkpt lat="42.187751358514724" lon="14.186683057976326"><ele>594.0</ele><time>2026-04-12T09:15:33.998Z</time></trkpt><trkpt lat="42.18767998735447" lon="14.186580968536816"><ele>594.0</ele><time>2026-04-12T09:15:34.998Z</time></trkpt><trkpt lat="42.187630003236585" lon="14.186471708989805"><ele>594.0</ele><time>2026-04-12T09:15:35.998Z</time></trkpt><trkpt lat="42.1875911943823" lon="14.186346829216374"><ele>594.0</ele><time>2026-04-12T09:15:36.998Z</time></trkpt><trkpt lat="42.187542500293226" lon="14.186245911087351"><ele>594.0</ele><time>2026-04-12T09:15:37.998Z</time></trkpt><trkpt lat="42.18747805888606" lon="14.186171679549345"><ele>594.4</ele><time>2026-04-12T09:15:38.998Z</time></trkpt><trkpt lat="42.187416780378484" lon="14.186106921987214"><ele>594.8</ele><time>2026-04-12T09:15:39.998Z</time></trkpt><trkpt lat="42.18735081198712" lon="14.186035700548064"><ele>595.2</ele><time>2026-04-12T09:15:40.998Z</time></trkpt><trkpt lat="42.187287585297966" lon="14.185952552179756"><ele>595.6</ele><time>2026-04-12T09:15:41.998Z</time></trkpt><trkpt lat="42.18722799843841" lon="14.185876197160093"><ele>596.0</ele><time>2026-04-12T09:15:42.998Z</time></trkpt><trkpt lat="42.18712401635329" lon="14.185791558276332"><ele>597.8</ele><time>2026-04-12T09:15:45Z</time></trkpt><trkpt lat="42.187076013232215" lon="14.18572646070005"><ele>599.6</ele><time>2026-04-12T09:15:46Z</time></trkpt><trkpt lat="42.187025158931625" lon="14.185639768550894"><ele>601.4</ele><time>2026-04-12T09:15:47Z</time></trkpt><trkpt lat="42.18696128291576" lon="14.185546625808605"><ele>603.2</ele><time>2026-04-12T09:15:48Z</time></trkpt><trkpt lat="42.186884458899975" lon="14.185452484725992"><ele>605.0</ele><time>2026-04-12T09:15:49Z</time></trkpt><trkpt lat="42.18680751397855" lon="14.185355236476846"><ele>605.0</ele><time>2026-04-12T09:15:50Z</time></trkpt><trkpt lat="42.18673480537245" lon="14.185253845206763"><ele>605.0</ele><time>2026-04-12T09:15:51Z</time></trkpt><trkpt lat="42.18666219616763" lon="14.18514414270897"><ele>605.0</ele><time>2026-04-12T09:15:52Z</time></trkpt><trkpt lat="42.18660269015398" lon="14.18502220428832"><ele>605.0</ele><time>2026-04-12T09:15:53Z</time></trkpt><trkpt lat="42.186534227695574" lon="14.184910679536397"><ele>605.0</ele><time>2026-04-12T09:15:54Z</time></trkpt><trkpt lat="42.18645760168481" lon="14.184796493519205"><ele>607.8</ele><time>2026-04-12T09:15:55Z</time></trkpt><trkpt lat="42.1863851726652" lon="14.184684361420526"><ele>610.6</ele><time>2026-04-12T09:15:56Z</time></trkpt><trkpt lat="42.18631585932879" lon="14.184577905553143"><ele>613.4</ele><time>2026-04-12T09:15:57Z</time></trkpt><trkpt lat="42.18625709310395" lon="14.184488761528115"><ele>616.2</ele><time>2026-04-12T09:15:58Z</time></trkpt><trkpt lat="42.18620888639151" lon="14.184406446830945"><ele>619.0</ele><time>2026-04-12T09:15:59Z</time></trkpt><trkpt lat="42.18614602587075" lon="14.184334860006437"><ele>619.0</ele><time>2026-04-12T09:16:00Z</time></trkpt><trkpt lat="42.18611580656156" lon="14.18423949632511"><ele>619.0</ele><time>2026-04-12T09:16:01Z</time></trkpt><trkpt lat="42.186064668698684" lon="14.184130966670274"><ele>619.0</ele><time>2026-04-12T09:16:02Z</time></trkpt><trkpt lat="42.18598037936568" lon="14.184042052650447"><ele>619.0</ele><time>2026-04-12T09:16:03Z</time></trkpt><trkpt lat="42.18590519604367" lon="14.183952026995065"><ele>619.0</ele><time>2026-04-12T09:16:04Z</time></trkpt><trkpt lat="42.1858520045065" lon="14.183891956021023"><ele>619.0</ele><time>2026-04-12T09:16:05Z</time></trkpt><trkpt lat="42.18578032458224" lon="14.183877975160664"><ele>619.1666666666667</ele><time>2026-04-12T09:16:06Z</time></trkpt><trkpt lat="42.18571342522619" lon="14.18391818149081"><ele>619.3333333333334</ele><time>2026-04-12T09:16:07Z</time></trkpt><trkpt lat="42.185631801250544" lon="14.184005564228102"><ele>619.5</ele><time>2026-04-12T09:16:08Z</time></trkpt><trkpt lat="42.18555657656303" lon="14.184053062912852"><ele>619.6666666666666</ele><time>2026-04-12T09:16:08.999Z</time></trkpt><trkpt lat="42.185494456780255" lon="14.184032378844902"><ele>619.8333333333333</ele><time>2026-04-12T09:16:09.999Z</time></trkpt><trkpt lat="42.18544959401074" lon="14.183967904593915"><ele>620.0</ele><time>2026-04-12T09:16:10.999Z</time></trkpt><trkpt lat="42.185396568408784" lon="14.183883029876792"><ele>621.6</ele><time>2026-04-12T09:16:11.999Z</time></trkpt><trkpt lat="42.18529156485705" lon="14.183784729014262"><ele>623.2</ele><time>2026-04-12T09:16:13.999Z</time></trkpt><trkpt lat="42.185223520518974" lon="14.183734889394437"><ele>624.8</ele><time>2026-04-12T09:16:14.999Z</time></trkpt><trkpt lat="42.18517084476707" lon="14.183590883943348"><ele>626.4</ele><time>2026-04-12T09:16:16.999Z</time></trkpt><trkpt lat="42.18516620294427" lon="14.183468219281588"><ele>628.0</ele><time>2026-04-12T09:16:17.999Z</time></trkpt><trkpt lat="42.18518951914706" lon="14.18337075033856"><ele>628.0</ele><time>2026-04-12T09:16:18.999Z</time></trkpt><trkpt lat="42.18524648098632" lon="14.183216892577889"><ele>628.0</ele><time>2026-04-12T09:16:19.999Z</time></trkpt><trkpt lat="42.18529170624294" lon="14.183051907197491"><ele>628.0</ele><time>2026-04-12T09:16:20.999Z</time></trkpt><trkpt lat="42.18531102182523" lon="14.182922663889851"><ele>628.0</ele><time>2026-04-12T09:16:21.999Z</time></trkpt><trkpt lat="42.1853244554381" lon="14.182788925116895"><ele>628.1999999999999</ele><time>2026-04-12T09:16:22.999Z</time></trkpt><trkpt lat="42.18533908613949" lon="14.182639290576779"><ele>628.4</ele><time>2026-04-12T09:16:23.999Z</time></trkpt><trkpt lat="42.18535454358903" lon="14.182495124114247"><ele>628.5999999999999</ele><time>2026-04-12T09:16:24.999Z</time></trkpt><trkpt lat="42.18537357345464" lon="14.182336862873886"><ele>628.8</ele><time>2026-04-12T09:16:25.999Z</time></trkpt><trkpt lat="42.18538703445623" lon="14.182194604360072"><ele>629.0</ele><time>2026-04-12T09:16:26.999Z</time></trkpt><trkpt lat="42.18539197123512" lon="14.182070218761732"><ele>629.4</ele><time>2026-04-12T09:16:27.999Z</time></trkpt><trkpt lat="42.18538171487152" lon="14.181975737217591"><ele>629.8</ele><time>2026-04-12T09:16:28.999Z</time></trkpt><trkpt lat="42.185308724269" lon="14.181890073367791"><ele>630.2</ele><time>2026-04-12T09:16:30.999Z</time></trkpt><trkpt lat="42.1851754697465" lon="14.181887613420294"><ele>630.6</ele><time>2026-04-12T09:16:32.999Z</time></trkpt><trkpt lat="42.18508106643064" lon="14.181865537993973"><ele>631.0</ele><time>2026-04-12T09:16:33.999Z</time></trkpt><trkpt lat="42.184997627171654" lon="14.181840955328688"><ele>631.0</ele><time>2026-04-12T09:16:34.999Z</time></trkpt><trkpt lat="42.184937047796375" lon="14.181813551475473"><ele>631.0</ele><time>2026-04-12T09:16:35.999Z</time></trkpt><trkpt lat="42.18492198402471" lon="14.181695768827439"><ele>631.0</ele><time>2026-04-12T09:16:37.999Z</time></trkpt><trkpt lat="42.184962184231516" lon="14.181582351134633"><ele>631.0</ele><time>2026-04-12T09:16:38.999Z</time></trkpt><trkpt lat="42.18498611735632" lon="14.181469011269158"><ele>631.0</ele><time>2026-04-12T09:16:39.999Z</time></trkpt><trkpt lat="42.18499047602028" lon="14.181345904446745"><ele>631.0</ele><time>2026-04-12T09:16:40.999Z</time></trkpt><trkpt lat="42.18498422244296" lon="14.181231068979761"><ele>632.0</ele><time>2026-04-12T09:16:41.999Z</time></trkpt><trkpt lat="42.18496371134667" lon="14.181122952380319"><ele>633.0</ele><time>2026-04-12T09:16:42.999Z</time></trkpt><trkpt lat="42.18491358371346" lon="14.18105237269748"><ele>634.0</ele><time>2026-04-12T09:16:43.999Z</time></trkpt><trkpt lat="42.18485936245173" lon="14.18094189026808"><ele>635.0</ele><time>2026-04-12T09:16:45.999Z</time></trkpt><trkpt lat="42.1848810335927" lon="14.180805823005212"><ele>636.0</ele><time>2026-04-12T09:16:47.999Z</time></trkpt><trkpt lat="42.18492731581724" lon="14.180706887748975"><ele>637.0</ele><time>2026-04-12T09:16:49.999Z</time></trkpt><trkpt lat="42.18490262978799" lon="14.180575229098222"><ele>637.8</ele><time>2026-04-12T09:17:00.999Z</time></trkpt><trkpt lat="42.18477361629681" lon="14.180567323043066"><ele>638.6</ele><time>2026-04-12T09:17:02.999Z</time></trkpt><trkpt lat="42.18467728237655" lon="14.180596473803025"><ele>639.4</ele><time>2026-04-12T09:17:03.999Z</time></trkpt><trkpt lat="42.18458162269747" lon="14.180614681597392"><ele>640.1999999999999</ele><time>2026-04-12T09:17:04.999Z</time></trkpt><trkpt lat="42.18449355306561" lon="14.180646734279614"><ele>641.0</ele><time>2026-04-12T09:17:05.999Z</time></trkpt><trkpt lat="42.184421287054" lon="14.180690161162216"><ele>641.0</ele><time>2026-04-12T09:17:07.999Z</time></trkpt><trkpt lat="42.1843589939344" lon="14.180732289819842"><ele>641.0</ele><time>2026-04-12T09:17:08.999Z</time></trkpt><trkpt lat="42.184270671762704" lon="14.180793633372476"><ele>641.0</ele><time>2026-04-12T09:17:09.998Z</time></trkpt><trkpt lat="42.184181112419424" lon="14.18089159657203"><ele>641.0</ele><time>2026-04-12T09:17:10.998Z</time></trkpt><trkpt lat="42.18410352927875" lon="14.181008627339985"><ele>641.0</ele><time>2026-04-12T09:17:11.998Z</time></trkpt><trkpt lat="42.184030956636875" lon="14.18114546523995"><ele>641.5</ele><time>2026-04-12T09:17:12.998Z</time></trkpt><trkpt lat="42.18395840169587" lon="14.181292646686012"><ele>642.0</ele><time>2026-04-12T09:17:13.998Z</time></trkpt><trkpt lat="42.183878488039234" lon="14.181455783221711"><ele>642.5</ele><time>2026-04-12T09:17:14.998Z</time></trkpt><trkpt lat="42.183799029635644" lon="14.181617949117792"><ele>643.0</ele><time>2026-04-12T09:17:15.998Z</time></trkpt><trkpt lat="42.18371992142358" lon="14.18177578536656"><ele>643.0</ele><time>2026-04-12T09:17:16.998Z</time></trkpt><trkpt lat="42.183642602214256" lon="14.181916027681202"><ele>643.0</ele><time>2026-04-12T09:17:17.998Z</time></trkpt><trkpt lat="42.18356961134274" lon="14.182017058557694"><ele>643.0</ele><time>2026-04-12T09:17:18.998Z</time></trkpt><trkpt lat="42.18348817547135" lon="14.18208513789579"><ele>643.0</ele><time>2026-04-12T09:17:19.998Z</time></trkpt><trkpt lat="42.18340232002209" lon="14.18210627616278"><ele>643.0</ele><time>2026-04-12T09:17:20.998Z</time></trkpt><trkpt lat="42.18330637258552" lon="14.182068250827232"><ele>643.0</ele><time>2026-04-12T09:17:21.998Z</time></trkpt><trkpt lat="42.183207668181815" lon="14.181999257670647"><ele>643.0</ele><time>2026-04-12T09:17:22.998Z</time></trkpt><trkpt lat="42.183115632478206" lon="14.181895468850371"><ele>643.0</ele><time>2026-04-12T09:17:23.998Z</time></trkpt><trkpt lat="42.18301225383463" lon="14.18179477899588"><ele>643.0</ele><time>2026-04-12T09:17:24.998Z</time></trkpt><trkpt lat="42.18290739486066" lon="14.181683544656527"><ele>643.5</ele><time>2026-04-12T09:17:25.998Z</time></trkpt><trkpt lat="42.182810737157595" lon="14.181559636973411"><ele>644.0</ele><time>2026-04-12T09:17:26.998Z</time></trkpt><trkpt lat="42.182704756201886" lon="14.18144152924555"><ele>644.5</ele><time>2026-04-12T09:17:27.998Z</time></trkpt><trkpt lat="42.18258989210312" lon="14.181326483511878"><ele>645.0</ele><time>2026-04-12T09:17:28.998Z</time></trkpt><trkpt lat="42.182467480283165" lon="14.181222276040675"><ele>643.5</ele><time>2026-04-12T09:17:29.998Z</time></trkpt><trkpt lat="42.18234598023985" lon="14.181136544912578"><ele>642.0</ele><time>2026-04-12T09:17:30.998Z</time></trkpt><trkpt lat="42.182221868804646" lon="14.181059105013142"><ele>640.5</ele><time>2026-04-12T09:17:31.998Z</time></trkpt><trkpt lat="42.182099735779886" lon="14.180979161246356"><ele>639.0</ele><time>2026-04-12T09:17:32.998Z</time></trkpt><trkpt lat="42.18199223465445" lon="14.18090881444189"><ele>639.0</ele><time>2026-04-12T09:17:33.998Z</time></trkpt><trkpt lat="42.1818962211183" lon="14.180868881483038"><ele>639.0</ele><time>2026-04-12T09:17:34.998Z</time></trkpt><trkpt lat="42.1818042426502" lon="14.180843133772587"><ele>639.0</ele><time>2026-04-12T09:17:35.998Z</time></trkpt><trkpt lat="42.181716108788606" lon="14.18080546106935"><ele>639.0</ele><time>2026-04-12T09:17:36.998Z</time></trkpt><trkpt lat="42.181600703009806" lon="14.180743198597185"><ele>639.0</ele><time>2026-04-12T09:17:37.998Z</time></trkpt><trkpt lat="42.1814708351799" lon="14.180665696098517"><ele>643.5</ele><time>2026-04-12T09:17:38.998Z</time></trkpt><trkpt lat="42.181343208439735" lon="14.180605617299776"><ele>648.0</ele><time>2026-04-12T09:17:39.998Z</time></trkpt><trkpt lat="42.181229339959025" lon="14.18055918532463"><ele>652.5</ele><time>2026-04-12T09:17:40.998Z</time></trkpt><trkpt lat="42.18111600764786" lon="14.180530600974247"><ele>657.0</ele><time>2026-04-12T09:17:41.998Z</time></trkpt><trkpt lat="42.18101903214242" lon="14.180516612231315"><ele>657.0</ele><time>2026-04-12T09:17:42.998Z</time></trkpt><trkpt lat="42.180935642423286" lon="14.180515406228743"><ele>657.0</ele><time>2026-04-12T09:17:43.998Z</time></trkpt><trkpt lat="42.18085837162706" lon="14.18053773629933"><ele>657.0</ele><time>2026-04-12T09:17:44.998Z</time></trkpt><trkpt lat="42.18079262661092" lon="14.180560112505827"><ele>657.0</ele><time>2026-04-12T09:17:45.998Z</time></trkpt><trkpt lat="42.180764796785546" lon="14.180683353068439"><ele>657.0</ele><time>2026-04-12T09:17:46.998Z</time></trkpt><trkpt lat="42.180770578685205" lon="14.180808991675105"><ele>657.0</ele><time>2026-04-12T09:17:47.998Z</time></trkpt><trkpt lat="42.18081431374761" lon="14.180940969194836"><ele>649.75</ele><time>2026-04-12T09:17:48.998Z</time></trkpt><trkpt lat="42.18088495405015" lon="14.181083228844898"><ele>642.5</ele><time>2026-04-12T09:17:49.998Z</time></trkpt><trkpt lat="42.1809479118818" lon="14.18123992075864"><ele>635.25</ele><time>2026-04-12T09:17:51Z</time></trkpt><trkpt lat="42.18098948897893" lon="14.181424547938311"><ele>628.0</ele><time>2026-04-12T09:17:52Z</time></trkpt><trkpt lat="42.18103139575158" lon="14.181606855696137"><ele>625.4</ele><time>2026-04-12T09:17:53Z</time></trkpt><trkpt lat="42.18108182224299" lon="14.181745142953998"><ele>622.8</ele><time>2026-04-12T09:17:54Z</time></trkpt><trkpt lat="42.18114725141734" lon="14.181851898656145"><ele>620.2</ele><time>2026-04-12T09:17:55Z</time></trkpt><trkpt lat="42.181219615446054" lon="14.181952896500755"><ele>617.6</ele><time>2026-04-12T09:17:56Z</time></trkpt><trkpt lat="42.18126003394241" lon="14.182061865215093"><ele>615.0</ele><time>2026-04-12T09:17:57Z</time></trkpt><trkpt lat="42.181242343617065" lon="14.18217695742232"><ele>615.0</ele><time>2026-04-12T09:17:58Z</time></trkpt><trkpt lat="42.1812219573078" lon="14.182320109175242"><ele>615.0</ele><time>2026-04-12T09:17:59Z</time></trkpt><trkpt lat="42.18122805439116" lon="14.182489843898566"><ele>615.0</ele><time>2026-04-12T09:18:00Z</time></trkpt><trkpt lat="42.18124419034126" lon="14.182664962545742"><ele>615.0</ele><time>2026-04-12T09:18:01Z</time></trkpt><trkpt lat="42.18129110843062" lon="14.182843332355906"><ele>614.25</ele><time>2026-04-12T09:18:02Z</time></trkpt><trkpt lat="42.18135522574109" lon="14.183005053210278"><ele>613.5</ele><time>2026-04-12T09:18:03Z</time></trkpt><trkpt lat="42.18140912502564" lon="14.183183170872073"><ele>612.75</ele><time>2026-04-12T09:18:04Z</time></trkpt><trkpt lat="42.18140033568485" lon="14.183365887114112"><ele>612.0</ele><time>2026-04-12T09:18:05Z</time></trkpt><trkpt lat="42.18140395944813" lon="14.183555286222392"><ele>611.0</ele><time>2026-04-12T09:18:06Z</time></trkpt><trkpt lat="42.181410052825534" lon="14.18375047718844"><ele>610.0</ele><time>2026-04-12T09:18:07Z</time></trkpt><trkpt lat="42.181416948021486" lon="14.183934251622333"><ele>609.0</ele><time>2026-04-12T09:18:08Z</time></trkpt><trkpt lat="42.18142401294684" lon="14.184117825280802"><ele>608.0</ele><time>2026-04-12T09:18:09Z</time></trkpt><trkpt lat="42.18143303725384" lon="14.184308055800646"><ele>606.75</ele><time>2026-04-12T09:18:10Z</time></trkpt><trkpt lat="42.18144714452502" lon="14.18450217802783"><ele>605.5</ele><time>2026-04-12T09:18:10.999Z</time></trkpt><trkpt lat="42.18146472077955" lon="14.184691926604925"><ele>604.25</ele><time>2026-04-12T09:18:11.999Z</time></trkpt><trkpt lat="42.1814821262438" lon="14.18488490682229"><ele>603.0</ele><time>2026-04-12T09:18:12.999Z</time></trkpt><trkpt lat="42.18151299978706" lon="14.185074778324923"><ele>601.75</ele><time>2026-04-12T09:18:13.999Z</time></trkpt><trkpt lat="42.181529696516414" lon="14.185268697711004"><ele>600.5</ele><time>2026-04-12T09:18:14.999Z</time></trkpt><trkpt lat="42.18154212217608" lon="14.185447030555721"><ele>599.25</ele><time>2026-04-12T09:18:15.999Z</time></trkpt><trkpt lat="42.18156460796521" lon="14.185635293149323"><ele>598.0</ele><time>2026-04-12T09:18:16.999Z</time></trkpt><trkpt lat="42.18159948539087" lon="14.185828270396478"><ele>596.0</ele><time>2026-04-12T09:18:17.999Z</time></trkpt><trkpt lat="42.18164389119649" lon="14.18601318054655"><ele>594.0</ele><time>2026-04-12T09:18:18.999Z</time></trkpt><trkpt lat="42.181704335185124" lon="14.186178921310725"><ele>592.0</ele><time>2026-04-12T09:18:19.999Z</time></trkpt><trkpt lat="42.18178976028835" lon="14.186324456397719"><ele>590.0</ele><time>2026-04-12T09:18:20.999Z</time></trkpt><trkpt lat="42.181900438339845" lon="14.186460453429252"><ele>588.0</ele><time>2026-04-12T09:18:21.999Z</time></trkpt><trkpt lat="42.18202802828701" lon="14.186600068926753"><ele>586.0</ele><time>2026-04-12T09:18:22.999Z</time></trkpt><trkpt lat="42.1821703734902" lon="14.18675049265906"><ele>584.0</ele><time>2026-04-12T09:18:23.999Z</time></trkpt><trkpt lat="42.18230936491617" lon="14.186895782097084"><ele>583.3333333333333</ele><time>2026-04-12T09:18:24.999Z</time></trkpt><trkpt lat="42.182444686507836" lon="14.187039713678866"><ele>582.6666666666666</ele><time>2026-04-12T09:18:25.999Z</time></trkpt><trkpt lat="42.1825711459163" lon="14.18718781058972"><ele>582.0</ele><time>2026-04-12T09:18:26.999Z</time></trkpt><trkpt lat="42.18269182996131" lon="14.187346463876173"><ele>579.0</ele><time>2026-04-12T09:18:27.999Z</time></trkpt><trkpt lat="42.182805262696704" lon="14.187512900630374"><ele>576.0</ele><time>2026-04-12T09:18:28.999Z</time></trkpt><trkpt lat="42.18291565802219" lon="14.187666208969254"><ele>573.0</ele><time>2026-04-12T09:18:29.999Z</time></trkpt><trkpt lat="42.18302825174892" lon="14.187795440555847"><ele>573.0</ele><time>2026-04-12T09:18:30.999Z</time></trkpt><trkpt lat="42.18313655131704" lon="14.187907012144574"><ele>573.0</ele><time>2026-04-12T09:18:31.999Z</time></trkpt><trkpt lat="42.18323840680731" lon="14.188023198457957"><ele>573.0</ele><time>2026-04-12T09:18:32.999Z</time></trkpt><trkpt lat="42.183332904761116" lon="14.188147558414814"><ele>573.0</ele><time>2026-04-12T09:18:33.999Z</time></trkpt><trkpt lat="42.1834148335029" lon="14.188291346064945"><ele>573.6666666666666</ele><time>2026-04-12T09:18:34.999Z</time></trkpt><trkpt lat="42.183492432906206" lon="14.18847203442275"><ele>574.3333333333333</ele><time>2026-04-12T09:18:35.999Z</time></trkpt><trkpt lat="42.183577587379375" lon="14.188642219222295"><ele>575.0</ele><time>2026-04-12T09:18:36.999Z</time></trkpt><trkpt lat="42.183657934189" lon="14.188820209078296"><ele>575.0</ele><time>2026-04-12T09:18:37.999Z</time></trkpt><trkpt lat="42.18374057306942" lon="14.188997394456313"><ele>575.0</ele><time>2026-04-12T09:18:38.999Z</time></trkpt><trkpt lat="42.183821344499385" lon="14.189170298055457"><ele>575.0</ele><time>2026-04-12T09:18:39.999Z</time></trkpt><trkpt lat="42.18388503886785" lon="14.189335913518699"><ele>575.0</ele><time>2026-04-12T09:18:40.999Z</time></trkpt><trkpt lat="42.18392781921383" lon="14.18950767011863"><ele>573.5</ele><time>2026-04-12T09:18:41.999Z</time></trkpt><trkpt lat="42.18395793961735" lon="14.189674352005039"><ele>572.0</ele><time>2026-04-12T09:18:42.999Z</time></trkpt><trkpt lat="42.183952326287766" lon="14.18984349982272"><ele>570.5</ele><time>2026-04-12T09:18:43.999Z</time></trkpt><trkpt lat="42.183950763956645" lon="14.190024514035445"><ele>569.0</ele><time>2026-04-12T09:18:44.999Z</time></trkpt><trkpt lat="42.18396056034593" lon="14.190221531296453"><ele>568.0</ele><time>2026-04-12T09:18:45.999Z</time></trkpt><trkpt lat="42.183959591738024" lon="14.190419947715123"><ele>567.0</ele><time>2026-04-12T09:18:46.999Z</time></trkpt><trkpt lat="42.18397185682811" lon="14.190611117354146"><ele>566.0</ele><time>2026-04-12T09:18:47.999Z</time></trkpt><trkpt lat="42.18398724858179" lon="14.190794771327196"><ele>565.0</ele><time>2026-04-12T09:18:48.999Z</time></trkpt><trkpt lat="42.18399818636856" lon="14.190969662570023"><ele>563.8</ele><time>2026-04-12T09:18:49.999Z</time></trkpt><trkpt lat="42.1840064466885" lon="14.19113177074928"><ele>562.6</ele><time>2026-04-12T09:18:50.999Z</time></trkpt><trkpt lat="42.18398949082296" lon="14.19128300518379"><ele>561.4</ele><time>2026-04-12T09:18:51.999Z</time></trkpt><trkpt lat="42.18399164458746" lon="14.19142950956697"><ele>560.2</ele><time>2026-04-12T09:18:52.999Z</time></trkpt><trkpt lat="42.18397871740131" lon="14.19156794980602"><ele>559.0</ele><time>2026-04-12T09:18:53.999Z</time></trkpt><trkpt lat="42.18397651953645" lon="14.191703009526284"><ele>558.2</ele><time>2026-04-12T09:18:54.999Z</time></trkpt><trkpt lat="42.18398330764684" lon="14.191847113532697"><ele>557.4</ele><time>2026-04-12T09:18:55.999Z</time></trkpt><trkpt lat="42.18399856126629" lon="14.191969714002406"><ele>556.6</ele><time>2026-04-12T09:18:56.999Z</time></trkpt><trkpt lat="42.184042696645975" lon="14.192076272843783"><ele>555.8</ele><time>2026-04-12T09:18:57.999Z</time></trkpt><trkpt lat="42.18409838816441" lon="14.19217587027989"><ele>555.0</ele><time>2026-04-12T09:18:58.999Z</time></trkpt><trkpt lat="42.18416293993678" lon="14.192278945588196"><ele>553.2</ele><time>2026-04-12T09:18:59.999Z</time></trkpt><trkpt lat="42.18421785468877" lon="14.192398234003345"><ele>551.4</ele><time>2026-04-12T09:19:00.999Z</time></trkpt><trkpt lat="42.18426389014977" lon="14.192527062385366"><ele>549.6</ele><time>2026-04-12T09:19:01.999Z</time></trkpt><trkpt lat="42.18429944215906" lon="14.192659068358259"><ele>547.8</ele><time>2026-04-12T09:19:02.999Z</time></trkpt><trkpt lat="42.18432714907541" lon="14.192798941819978"><ele>546.0</ele><time>2026-04-12T09:19:03.999Z</time></trkpt><trkpt lat="42.18434515226808" lon="14.192933204203811"><ele>546.0</ele><time>2026-04-12T09:19:04.999Z</time></trkpt><trkpt lat="42.1843540857063" lon="14.1930485102519"><ele>546.0</ele><time>2026-04-12T09:19:05.999Z</time></trkpt><trkpt lat="42.1843971844389" lon="14.193142632177361"><ele>546.0</ele><time>2026-04-12T09:19:07.999Z</time></trkpt><trkpt lat="42.18449295613237" lon="14.193106354350416"><ele>546.0</ele><time>2026-04-12T09:19:09.999Z</time></trkpt><trkpt lat="42.184538411887026" lon="14.193040885936233"><ele>546.0</ele><time>2026-04-12T09:19:10.999Z</time></trkpt><trkpt lat="42.18459044477784" lon="14.192988167314184"><ele>546.0</ele><time>2026-04-12T09:19:11.998Z</time></trkpt><trkpt lat="42.18465279922898" lon="14.19293210554893"><ele>546.0</ele><time>2026-04-12T09:19:12.998Z</time></trkpt><trkpt lat="42.18472076083162" lon="14.192861470028058"><ele>546.0</ele><time>2026-04-12T09:19:13.998Z</time></trkpt><trkpt lat="42.184795328442135" lon="14.192783368244015"><ele>546.0</ele><time>2026-04-12T09:19:14.998Z</time></trkpt><trkpt lat="42.18487485231086" lon="14.192712310910972"><ele>546.0</ele><time>2026-04-12T09:19:15.998Z</time></trkpt><trkpt lat="42.184958107799424" lon="14.192645976230931"><ele>546.0</ele><time>2026-04-12T09:19:16.998Z</time></trkpt><trkpt lat="42.18503068155791" lon="14.192584486654113"><ele>546.6</ele><time>2026-04-12T09:19:17.998Z</time></trkpt><trkpt lat="42.185088772003546" lon="14.192547410841946"><ele>547.2</ele><time>2026-04-12T09:19:18.998Z</time></trkpt><trkpt lat="42.185207061235936" lon="14.192523995898"><ele>547.8</ele><time>2026-04-12T09:19:20.998Z</time></trkpt><trkpt lat="42.185296946238225" lon="14.19253165701676"><ele>548.4</ele><time>2026-04-12T09:19:21.998Z</time></trkpt><trkpt lat="42.18540648264259" lon="14.192532361000152"><ele>549.0</ele><time>2026-04-12T09:19:22.998Z</time></trkpt><trkpt lat="42.18552182085585" lon="14.192519962492971"><ele>549.0</ele><time>2026-04-12T09:19:23.998Z</time></trkpt><trkpt lat="42.185627303740375" lon="14.192494229775493"><ele>549.0</ele><time>2026-04-12T09:19:24.998Z</time></trkpt><trkpt lat="42.18573743594178" lon="14.192478866466178"><ele>549.0</ele><time>2026-04-12T09:19:25.998Z</time></trkpt><trkpt lat="42.185844949715424" lon="14.192485884888765"><ele>549.0</ele><time>2026-04-12T09:19:26.998Z</time></trkpt><trkpt lat="42.18594786538831" lon="14.192455831199403"><ele>549.0</ele><time>2026-04-12T09:19:27.998Z</time></trkpt><trkpt lat="42.18605833931567" lon="14.192462250419307"><ele>548.8</ele><time>2026-04-12T09:19:28.998Z</time></trkpt><trkpt lat="42.186167735813605" lon="14.192487673209577"><ele>548.5999999999999</ele><time>2026-04-12T09:19:29.998Z</time></trkpt><trkpt lat="42.18625534125029" lon="14.192545894811854"><ele>548.4</ele><time>2026-04-12T09:19:30.998Z</time></trkpt><trkpt lat="42.186325878567395" lon="14.192665728398133"><ele>548.1999999999999</ele><time>2026-04-12T09:19:31.998Z</time></trkpt><trkpt lat="42.18639896612235" lon="14.192801486110316"><ele>548.0</ele><time>2026-04-12T09:19:32.998Z</time></trkpt><trkpt lat="42.18647843570883" lon="14.19295752033823"><ele>547.0</ele><time>2026-04-12T09:19:33.998Z</time></trkpt><trkpt lat="42.1865641042159" lon="14.19313093022799"><ele>546.0</ele><time>2026-04-12T09:19:34.998Z</time></trkpt><trkpt lat="42.18664986652033" lon="14.193310971717299"><ele>545.0</ele><time>2026-04-12T09:19:35.998Z</time></trkpt><trkpt lat="42.186729684526384" lon="14.193492395032983"><ele>545.0</ele><time>2026-04-12T09:19:36.998Z</time></trkpt><trkpt lat="42.18679920743154" lon="14.193670384770712"><ele>545.0</ele><time>2026-04-12T09:19:37.998Z</time></trkpt><trkpt lat="42.18687807708074" lon="14.193837353285542"><ele>545.0</ele><time>2026-04-12T09:19:38.998Z</time></trkpt><trkpt lat="42.186939883396605" lon="14.194012017949266"><ele>545.0</ele><time>2026-04-12T09:19:39.998Z</time></trkpt><trkpt lat="42.18700058827967" lon="14.194169202494473"><ele>543.75</ele><time>2026-04-12T09:19:40.998Z</time></trkpt><trkpt lat="42.18707113744561" lon="14.194308675978593"><ele>542.5</ele><time>2026-04-12T09:19:41.998Z</time></trkpt><trkpt lat="42.18716209572939" lon="14.1944453417205"><ele>541.25</ele><time>2026-04-12T09:19:42.998Z</time></trkpt><trkpt lat="42.187281966979945" lon="14.194563299962367"><ele>540.0</ele><time>2026-04-12T09:19:43.998Z</time></trkpt><trkpt lat="42.187407094810936" lon="14.194675146206238"><ele>540.0</ele><time>2026-04-12T09:19:44.998Z</time></trkpt><trkpt lat="42.187529211714455" lon="14.194780698801397"><ele>540.0</ele><time>2026-04-12T09:19:45.998Z</time></trkpt><trkpt lat="42.187645366698575" lon="14.194883136816175"><ele>540.0</ele><time>2026-04-12T09:19:46.998Z</time></trkpt><trkpt lat="42.187758782816374" lon="14.194983722587528"><ele>540.0</ele><time>2026-04-12T09:19:47.998Z</time></trkpt><trkpt lat="42.18787656840739" lon="14.195079619847009"><ele>539.5</ele><time>2026-04-12T09:19:48.998Z</time></trkpt><trkpt lat="42.187992882094875" lon="14.195169137038064"><ele>539.0</ele><time>2026-04-12T09:19:49.998Z</time></trkpt><trkpt lat="42.188111869368015" lon="14.195253720622762"><ele>538.5</ele><time>2026-04-12T09:19:50.998Z</time></trkpt><trkpt lat="42.1882342083529" lon="14.195327958981968"><ele>538.0</ele><time>2026-04-12T09:19:51.998Z</time></trkpt><trkpt lat="42.18835768276269" lon="14.195400025201122"><ele>538.0</ele><time>2026-04-12T09:19:52.998Z</time></trkpt><trkpt lat="42.18848192999162" lon="14.195477810618643"><ele>538.0</ele><time>2026-04-12T09:19:53.998Z</time></trkpt><trkpt lat="42.18860628433184" lon="14.19555743269185"><ele>538.0</ele><time>2026-04-12T09:19:54.998Z</time></trkpt><trkpt lat="42.18873159620418" lon="14.195635635796252"><ele>538.0</ele><time>2026-04-12T09:19:56Z</time></trkpt><trkpt lat="42.188858140269524" lon="14.195708944480199"><ele>535.75</ele><time>2026-04-12T09:19:57Z</time></trkpt><trkpt lat="42.18897178163139" lon="14.195769493480379"><ele>533.5</ele><time>2026-04-12T09:19:58Z</time></trkpt><trkpt lat="42.18908517555302" lon="14.195829338145993"><ele>531.25</ele><time>2026-04-12T09:19:59Z</time></trkpt><trkpt lat="42.18918337586391" lon="14.195909211135078"><ele>529.0</ele><time>2026-04-12T09:20:00Z</time></trkpt><trkpt lat="42.18927666718743" lon="14.195971190613763"><ele>529.0</ele><time>2026-04-12T09:20:01Z</time></trkpt><trkpt lat="42.18936496596704" lon="14.196036286481467"><ele>529.0</ele><time>2026-04-12T09:20:02Z</time></trkpt><trkpt lat="42.189416853239514" lon="14.196165455702952"><ele>529.0</ele><time>2026-04-12T09:20:03Z</time></trkpt><trkpt lat="42.18947020079096" lon="14.196289874396728"><ele>529.0</ele><time>2026-04-12T09:20:04Z</time></trkpt><trkpt lat="42.1895337108533" lon="14.19640455156538"><ele>529.0</ele><time>2026-04-12T09:20:05Z</time></trkpt><trkpt lat="42.189555944632325" lon="14.196525182838089"><ele>526.8333333333334</ele><time>2026-04-12T09:20:06Z</time></trkpt><trkpt lat="42.18954792932344" lon="14.196635102771669"><ele>524.6666666666667</ele><time>2026-04-12T09:20:07Z</time></trkpt><trkpt lat="42.18951703880048" lon="14.196750169384494"><ele>522.5</ele><time>2026-04-12T09:20:08Z</time></trkpt><trkpt lat="42.1894979539918" lon="14.196874148782905"><ele>520.3333333333334</ele><time>2026-04-12T09:20:09Z</time></trkpt><trkpt lat="42.18951253421548" lon="14.196982025619006"><ele>518.1666666666666</ele><time>2026-04-12T09:20:10Z</time></trkpt><trkpt lat="42.18955767547588" lon="14.197071051754525"><ele>516.0</ele><time>2026-04-12T09:20:11Z</time></trkpt><trkpt lat="42.18963325056123" lon="14.197127707411422"><ele>516.0</ele><time>2026-04-12T09:20:12Z</time></trkpt><trkpt lat="42.18971911612357" lon="14.197142290106163"><ele>516.0</ele><time>2026-04-12T09:20:13Z</time></trkpt><trkpt lat="42.18979787335013" lon="14.197111451024753"><ele>516.0</ele><time>2026-04-12T09:20:13.999Z</time></trkpt><trkpt lat="42.189847090135764" lon="14.197044254143455"><ele>516.0</ele><time>2026-04-12T09:20:14.999Z</time></trkpt><trkpt lat="42.18987918015741" lon="14.196938260761717"><ele>516.0</ele><time>2026-04-12T09:20:15.999Z</time></trkpt><trkpt lat="42.189877484059814" lon="14.196809206492418"><ele>516.0</ele><time>2026-04-12T09:20:16.999Z</time></trkpt><trkpt lat="42.189862708675705" lon="14.1966846187611"><ele>515.8</ele><time>2026-04-12T09:20:17.999Z</time></trkpt><trkpt lat="42.18987855988808" lon="14.196579369315728"><ele>515.6</ele><time>2026-04-12T09:20:18.999Z</time></trkpt><trkpt lat="42.18995594136495" lon="14.196514537684715"><ele>515.4</ele><time>2026-04-12T09:20:19.999Z</time></trkpt><trkpt lat="42.190029640108555" lon="14.196436001154899"><ele>515.2</ele><time>2026-04-12T09:20:20.999Z</time></trkpt><trkpt lat="42.190131755517605" lon="14.19638642797524"><ele>515.0</ele><time>2026-04-12T09:20:21.999Z</time></trkpt><trkpt lat="42.19025790917458" lon="14.196420435847449"><ele>518.25</ele><time>2026-04-12T09:20:22.999Z</time></trkpt><trkpt lat="42.190398263022225" lon="14.196425736985649"><ele>521.5</ele><time>2026-04-12T09:20:23.999Z</time></trkpt><trkpt lat="42.19053729825045" lon="14.196453014776935"><ele>524.75</ele><time>2026-04-12T09:20:24.999Z</time></trkpt><trkpt lat="42.19068457091906" lon="14.196470347167201"><ele>528.0</ele><time>2026-04-12T09:20:25.999Z</time></trkpt><trkpt lat="42.19083276859478" lon="14.196487563034701"><ele>525.5</ele><time>2026-04-12T09:20:26.999Z</time></trkpt><trkpt lat="42.190951366403716" lon="14.19651318305473"><ele>523.0</ele><time>2026-04-12T09:20:27.999Z</time></trkpt><trkpt lat="42.19105241846539" lon="14.196547830210706"><ele>520.5</ele><time>2026-04-12T09:20:28.999Z</time></trkpt><trkpt lat="42.19114987570715" lon="14.196606758764087"><ele>518.0</ele><time>2026-04-12T09:20:29.999Z</time></trkpt><trkpt lat="42.191245380666416" lon="14.196701610288398"><ele>518.0</ele><time>2026-04-12T09:20:30.999Z</time></trkpt><trkpt lat="42.1913421585336" lon="14.196817735534482"><ele>518.0</ele><time>2026-04-12T09:20:31.999Z</time></trkpt><trkpt lat="42.191435744750216" lon="14.196923189496102"><ele>518.0</ele><time>2026-04-12T09:20:32.999Z</time></trkpt><trkpt lat="42.191539271117314" lon="14.197015424659178"><ele>518.0</ele><time>2026-04-12T09:20:33.999Z</time></trkpt><trkpt lat="42.19164943357057" lon="14.197092596572965"><ele>518.5</ele><time>2026-04-12T09:20:34.999Z</time></trkpt><trkpt lat="42.1917743614735" lon="14.19716311411595"><ele>519.0</ele><time>2026-04-12T09:20:35.999Z</time></trkpt><trkpt lat="42.191898218142896" lon="14.19724957988222"><ele>519.5</ele><time>2026-04-12T09:20:36.999Z</time></trkpt><trkpt lat="42.19200310572691" lon="14.197326501903579"><ele>520.0</ele><time>2026-04-12T09:20:37.999Z</time></trkpt><trkpt lat="42.19210066802889" lon="14.197407208276893"><ele>518.4</ele><time>2026-04-12T09:20:38.999Z</time></trkpt><trkpt lat="42.192197664766" lon="14.197467119102518"><ele>516.8</ele><time>2026-04-12T09:20:39.999Z</time></trkpt><trkpt lat="42.19229619116117" lon="14.197513192747257"><ele>515.2</ele><time>2026-04-12T09:20:40.999Z</time></trkpt><trkpt lat="42.19240840890868" lon="14.19756672032619"><ele>513.6</ele><time>2026-04-12T09:20:41.999Z</time></trkpt><trkpt lat="42.19250972429861" lon="14.197618698346687"><ele>512.0</ele><time>2026-04-12T09:20:42.999Z</time></trkpt><trkpt lat="42.19259677682628" lon="14.197687061274639"><ele>512.0</ele><time>2026-04-12T09:20:43.999Z</time></trkpt><trkpt lat="42.192676137285325" lon="14.19774962701534"><ele>512.0</ele><time>2026-04-12T09:20:44.999Z</time></trkpt><trkpt lat="42.192770188785595" lon="14.197776296277837"><ele>512.0</ele><time>2026-04-12T09:20:45.999Z</time></trkpt><trkpt lat="42.192869537735284" lon="14.197804888280302"><ele>512.0</ele><time>2026-04-12T09:20:46.999Z</time></trkpt><trkpt lat="42.19296123660932" lon="14.197873280769203"><ele>512.0</ele><time>2026-04-12T09:20:47.999Z</time></trkpt><trkpt lat="42.193052178612305" lon="14.197963961964787"><ele>512.0</ele><time>2026-04-12T09:20:48.999Z</time></trkpt><trkpt lat="42.19313597797692" lon="14.198062169216213"><ele>512.0</ele><time>2026-04-12T09:20:49.999Z</time></trkpt><trkpt lat="42.193200905837145" lon="14.198150995624353"><ele>512.0</ele><time>2026-04-12T09:20:50.999Z</time></trkpt><trkpt lat="42.19326140574655" lon="14.198215741823242"><ele>512.0</ele><time>2026-04-12T09:20:51.999Z</time></trkpt><trkpt lat="42.19334357383129" lon="14.19823894221869"><ele>512.0</ele><time>2026-04-12T09:20:52.999Z</time></trkpt><trkpt lat="42.19343179150182" lon="14.198240313758642"><ele>509.75</ele><time>2026-04-12T09:20:53.999Z</time></trkpt><trkpt lat="42.193530728784744" lon="14.198244764935227"><ele>507.5</ele><time>2026-04-12T09:20:54.999Z</time></trkpt><trkpt lat="42.19363610627179" lon="14.198304307518033"><ele>505.25</ele><time>2026-04-12T09:20:55.999Z</time></trkpt><trkpt lat="42.19373122507623" lon="14.198428583635305"><ele>503.0</ele><time>2026-04-12T09:20:56.999Z</time></trkpt><trkpt lat="42.19381763819766" lon="14.198578694499494"><ele>503.0</ele><time>2026-04-12T09:20:57.999Z</time></trkpt><trkpt lat="42.19389504126117" lon="14.198736939063387"><ele>503.0</ele><time>2026-04-12T09:20:58.999Z</time></trkpt><trkpt lat="42.19396565034725" lon="14.198881147575516"><ele>503.0</ele><time>2026-04-12T09:20:59.999Z</time></trkpt><trkpt lat="42.194041020234955" lon="14.199018260562644"><ele>503.0</ele><time>2026-04-12T09:21:00.999Z</time></trkpt><trkpt lat="42.19412009844092" lon="14.199118690060471"><ele>500.75</ele><time>2026-04-12T09:21:01.999Z</time></trkpt><trkpt lat="42.19423312484147" lon="14.199187572874392"><ele>498.5</ele><time>2026-04-12T09:21:02.999Z</time></trkpt><trkpt lat="42.19436000201215" lon="14.199247685488734"><ele>496.25</ele><time>2026-04-12T09:21:03.999Z</time></trkpt><trkpt lat="42.19446098075593" lon="14.19933060224693"><ele>494.0</ele><time>2026-04-12T09:21:04.999Z</time></trkpt><trkpt lat="42.19459006670934" lon="14.199435223647901"><ele>494.0</ele><time>2026-04-12T09:21:05.999Z</time></trkpt><trkpt lat="42.19472629453004" lon="14.199528431835315"><ele>494.0</ele><time>2026-04-12T09:21:06.999Z</time></trkpt><trkpt lat="42.194882270433524" lon="14.199605646043825"><ele>494.0</ele><time>2026-04-12T09:21:07.999Z</time></trkpt><trkpt lat="42.19502284353482" lon="14.199650491863181"><ele>494.0</ele><time>2026-04-12T09:21:08.999Z</time></trkpt><trkpt lat="42.19513844170933" lon="14.199697326563944"><ele>494.0</ele><time>2026-04-12T09:21:09.999Z</time></trkpt><trkpt lat="42.19523714696651" lon="14.19976178346996"><ele>494.0</ele><time>2026-04-12T09:21:10.999Z</time></trkpt><trkpt lat="42.19533172488492" lon="14.199844878781285"><ele>494.0</ele><time>2026-04-12T09:21:11.999Z</time></trkpt><trkpt lat="42.19545900528034" lon="14.199893213924186"><ele>491.5</ele><time>2026-04-12T09:21:12.999Z</time></trkpt><trkpt lat="42.19559457948843" lon="14.199922363126085"><ele>489.0</ele><time>2026-04-12T09:21:13.999Z</time></trkpt><trkpt lat="42.195723621195356" lon="14.199928870611291"><ele>486.5</ele><time>2026-04-12T09:21:14.999Z</time></trkpt><trkpt lat="42.195831069833964" lon="14.19994960897471"><ele>484.0</ele><time>2026-04-12T09:21:15.998Z</time></trkpt><trkpt lat="42.195914187963524" lon="14.199974788524163"><ele>483.83333333333337</ele><time>2026-04-12T09:21:16.998Z</time></trkpt><trkpt lat="42.19597560028963" lon="14.200000061286941"><ele>483.6666666666667</ele><time>2026-04-12T09:21:17.998Z</time></trkpt><trkpt lat="42.196057972640936" lon="14.200023529206366"><ele>483.5</ele><time>2026-04-12T09:21:19.998Z</time></trkpt><trkpt lat="42.195979054877846" lon="14.200029779216859"><ele>483.33333333333337</ele><time>2026-04-12T09:21:37.998Z</time></trkpt><trkpt lat="42.195896566634524" lon="14.200002962730633"><ele>483.1666666666667</ele><time>2026-04-12T09:21:39.998Z</time></trkpt><trkpt lat="42.195821140150066" lon="14.199959095021416"><ele>483.0</ele><time>2026-04-12T09:21:41.998Z</time></trkpt><trkpt lat="42.19587794433414" lon="14.20000542938824"><ele>483.0</ele><time>2026-04-12T09:21:47.998Z</time></trkpt><trkpt lat="42.1959743581146" lon="14.200015707142114"><ele>483.0</ele><time>2026-04-12T09:21:48.998Z</time></trkpt><trkpt lat="42.19605367336502" lon="14.200035811715624"><ele>483.0</ele><time>2026-04-12T09:21:49.998Z</time></trkpt><trkpt lat="42.19612069798757" lon="14.200053536726736"><ele>483.0</ele><time>2026-04-12T09:21:50.998Z</time></trkpt><trkpt lat="42.19622405984964" lon="14.20008284875532"><ele>483.0</ele><time>2026-04-12T09:21:52.998Z</time></trkpt><trkpt lat="42.19631683230756" lon="14.200088972744751"><ele>483.0</ele><time>2026-04-12T09:21:54.998Z</time></trkpt><trkpt lat="42.196394956509955" lon="14.200089748072067"><ele>483.0</ele><time>2026-04-12T09:21:56.998Z</time></trkpt><trkpt lat="42.19648300206646" lon="14.200103117071542"><ele>483.0</ele><time>2026-04-12T09:21:58.998Z</time></trkpt><trkpt lat="42.19658054079938" lon="14.200126496144842"><ele>483.0</ele><time>2026-04-12T09:22:01Z</time></trkpt><trkpt lat="42.196691127041696" lon="14.200156154867289"><ele>483.0</ele><time>2026-04-12T09:22:03Z</time></trkpt><trkpt lat="42.19675456236446" lon="14.200159024500184"><ele>483.0</ele><time>2026-04-12T09:22:04Z</time></trkpt><trkpt lat="42.19682043985059" lon="14.20015430496244"><ele>483.0</ele><time>2026-04-12T09:22:05Z</time></trkpt><trkpt lat="42.19688637133614" lon="14.200146345521048"><ele>482.5</ele><time>2026-04-12T09:22:06Z</time></trkpt><trkpt lat="42.1969490538124" lon="14.200133445257984"><ele>482.0</ele><time>2026-04-12T09:22:07Z</time></trkpt><trkpt lat="42.197062932481316" lon="14.200113202581987"><ele>481.5</ele><time>2026-04-12T09:22:09Z</time></trkpt><trkpt lat="42.19713187003069" lon="14.200106841284049"><ele>481.0</ele><time>2026-04-12T09:22:13Z</time></trkpt><trkpt lat="42.19706915387885" lon="14.20015569552039"><ele>480.5</ele><time>2026-04-12T09:23:05.999Z</time></trkpt><trkpt lat="42.197035419606586" lon="14.200247385270886"><ele>480.0</ele><time>2026-04-12T09:23:07.999Z</time></trkpt><trkpt lat="42.196975690191046" lon="14.200294822437453"><ele>480.0</ele><time>2026-04-12T09:23:09.999Z</time></trkpt><trkpt lat="42.19691332619743" lon="14.200333166628415"><ele>480.0</ele><time>2026-04-12T09:23:11.999Z</time></trkpt><trkpt lat="42.19682776154761" lon="14.200349064836933"><ele>480.0</ele><time>2026-04-12T09:23:14.999Z</time></trkpt><trkpt lat="42.19675862306592" lon="14.200379740303266"><ele>480.0</ele><time>2026-04-12T09:23:17.999Z</time></trkpt><trkpt lat="42.19669597590546" lon="14.200389676755238"><ele>480.0</ele><time>2026-04-12T09:23:27.998Z</time></trkpt><trkpt lat="42.19677433054388" lon="14.200404274305358"><ele>480.0</ele><time>2026-04-12T09:23:35.998Z</time></trkpt><trkpt lat="42.19688398383419" lon="14.200356321969341"><ele>480.0</ele><time>2026-04-12T09:23:37.998Z</time></trkpt><trkpt lat="42.19696146953826" lon="14.200301354682402"><ele>480.0</ele><time>2026-04-12T09:23:39.998Z</time></trkpt><trkpt lat="42.197018522412414" lon="14.200207802067991"><ele>480.0</ele><time>2026-04-12T09:23:41.998Z</time></trkpt><trkpt lat="42.197057143948676" lon="14.200132301501629"><ele>480.0</ele><time>2026-04-12T09:23:43.998Z</time></trkpt><trkpt lat="42.19714056715196" lon="14.200101430331491"><ele>480.0</ele><time>2026-04-12T09:23:45.998Z</time></trkpt><trkpt lat="42.19721106654496" lon="14.20011130227284"><ele>480.0</ele><time>2026-04-12T09:23:46.998Z</time></trkpt><trkpt lat="42.19727427154108" lon="14.200104557009544"><ele>478.6</ele><time>2026-04-12T09:23:47.998Z</time></trkpt><trkpt lat="42.197338982357536" lon="14.20009103672874"><ele>477.2</ele><time>2026-04-12T09:23:48.998Z</time></trkpt><trkpt lat="42.19745653915076" lon="14.200061422420362"><ele>475.79999999999995</ele><time>2026-04-12T09:23:50.998Z</time></trkpt><trkpt lat="42.1975936615406" lon="14.200035745042232"><ele>474.4</ele><time>2026-04-12T09:23:52.998Z</time></trkpt><trkpt lat="42.19767951299652" lon="14.200028712224078"><ele>473.0</ele><time>2026-04-12T09:23:53.998Z</time></trkpt><trkpt lat="42.197765390377675" lon="14.200032976069334"><ele>473.0</ele><time>2026-04-12T09:23:54.998Z</time></trkpt><trkpt lat="42.197845055865514" lon="14.200046192479707"><ele>473.0</ele><time>2026-04-12T09:23:55.998Z</time></trkpt><trkpt lat="42.197922107545544" lon="14.20006279112742"><ele>473.0</ele><time>2026-04-12T09:23:56.998Z</time></trkpt><trkpt lat="42.19799299353714" lon="14.200086136765757"><ele>473.0</ele><time>2026-04-12T09:23:57.998Z</time></trkpt><trkpt lat="42.19806182933214" lon="14.200109535909043"><ele>473.0</ele><time>2026-04-12T09:23:58.998Z</time></trkpt><trkpt lat="42.19813399844615" lon="14.200105670808602"><ele>473.0</ele><time>2026-04-12T09:23:59.998Z</time></trkpt><trkpt lat="42.19820665168907" lon="14.200082391875231"><ele>473.0</ele><time>2026-04-12T09:24:00.998Z</time></trkpt><trkpt lat="42.19829611692166" lon="14.200049086716973"><ele>472.0</ele><time>2026-04-12T09:24:01.998Z</time></trkpt><trkpt lat="42.19839589955481" lon="14.200023662910183"><ele>470.99999999999994</ele><time>2026-04-12T09:24:02.998Z</time></trkpt><trkpt lat="42.1984941733345" lon="14.200008215480679"><ele>469.99999999999994</ele><time>2026-04-12T09:24:03.998Z</time></trkpt><trkpt lat="42.19858396096468" lon="14.199991488645193"><ele>469.0</ele><time>2026-04-12T09:24:04.998Z</time></trkpt><trkpt lat="42.19865982125886" lon="14.199982411237938"><ele>468.0</ele><time>2026-04-12T09:24:05.998Z</time></trkpt><trkpt lat="42.198741673598605" lon="14.199971581021"><ele>468.0</ele><time>2026-04-12T09:24:07.001Z</time></trkpt><trkpt lat="42.19882157637555" lon="14.199961532905638"><ele>468.0</ele><time>2026-04-12T09:24:08.001Z</time></trkpt><trkpt lat="42.19888805082929" lon="14.199971042692695"><ele>468.0</ele><time>2026-04-12T09:24:09.001Z</time></trkpt><trkpt lat="42.1990239051827" lon="14.199969432161417"><ele>468.0</ele><time>2026-04-12T09:24:11.001Z</time></trkpt><trkpt lat="42.19910034862677" lon="14.199950270633916"><ele>468.0</ele><time>2026-04-12T09:24:12.001Z</time></trkpt><trkpt lat="42.19917663140681" lon="14.199951984657883"><ele>468.0</ele><time>2026-04-12T09:24:13.001Z</time></trkpt><trkpt lat="42.19926997295025" lon="14.199963733153622"><ele>466.6666666666667</ele><time>2026-04-12T09:24:14.001Z</time></trkpt><trkpt lat="42.19934856840098" lon="14.19996517424498"><ele>465.33333333333337</ele><time>2026-04-12T09:24:15.001Z</time></trkpt><trkpt lat="42.19942366347441" lon="14.199960740006754"><ele>464.0</ele><time>2026-04-12T09:24:16.001Z</time></trkpt><trkpt lat="42.19949683059775" lon="14.19998046616178"><ele>462.6666666666667</ele><time>2026-04-12T09:24:17.001Z</time></trkpt><trkpt lat="42.19957303980349" lon="14.200027084634334"><ele>461.33333333333337</ele><time>2026-04-12T09:24:18.001Z</time></trkpt><trkpt lat="42.19964318542175" lon="14.200098199573576"><ele>460.0</ele><time>2026-04-12T09:24:19.001Z</time></trkpt><trkpt lat="42.19972033181594" lon="14.200149367201256"><ele>460.00000000000006</ele><time>2026-04-12T09:24:20.001Z</time></trkpt><trkpt lat="42.19979656025323" lon="14.200179242936208"><ele>460.0</ele><time>2026-04-12T09:24:21.001Z</time></trkpt><trkpt lat="42.1998651580005" lon="14.200199487544904"><ele>460.0</ele><time>2026-04-12T09:24:22Z</time></trkpt><trkpt lat="42.19997901480438" lon="14.200292374040913"><ele>460.0</ele><time>2026-04-12T09:24:24Z</time></trkpt><trkpt lat="42.200029522206286" lon="14.200360270090371"><ele>460.00000000000006</ele><time>2026-04-12T09:24:25Z</time></trkpt><trkpt lat="42.20008171325752" lon="14.200413522897207"><ele>460.0</ele><time>2026-04-12T09:24:26Z</time></trkpt><trkpt lat="42.20014598271414" lon="14.200444779170349"><ele>458.6666666666667</ele><time>2026-04-12T09:24:27Z</time></trkpt><trkpt lat="42.20021252513336" lon="14.200465240535337"><ele>457.33333333333337</ele><time>2026-04-12T09:24:28Z</time></trkpt><trkpt lat="42.200275427539346" lon="14.200487022558265"><ele>456.0</ele><time>2026-04-12T09:24:29Z</time></trkpt><trkpt lat="42.20034857831174" lon="14.200484614261152"><ele>454.66666666666663</ele><time>2026-04-12T09:24:30Z</time></trkpt><trkpt lat="42.200413256109655" lon="14.200473556910627"><ele>453.3333333333333</ele><time>2026-04-12T09:24:31Z</time></trkpt><trkpt lat="42.200531287877965" lon="14.200470437417627"><ele>452.0</ele><time>2026-04-12T09:24:33Z</time></trkpt><trkpt lat="42.20062182674016" lon="14.200474499548625"><ele>450.66666666666663</ele><time>2026-04-12T09:24:35Z</time></trkpt><trkpt lat="42.20073667816315" lon="14.20053525418168"><ele>449.3333333333333</ele><time>2026-04-12T09:24:37Z</time></trkpt><trkpt lat="42.200794893345595" lon="14.200577333230356"><ele>448.0</ele><time>2026-04-12T09:24:38Z</time></trkpt><trkpt lat="42.2008738865169" lon="14.20060553337916"><ele>446.66666666666663</ele><time>2026-04-12T09:24:39Z</time></trkpt><trkpt lat="42.20094127243254" lon="14.200632731042111"><ele>445.3333333333333</ele><time>2026-04-12T09:24:40Z</time></trkpt><trkpt lat="42.20104240244335" lon="14.200680526351759"><ele>444.0</ele><time>2026-04-12T09:24:41Z</time></trkpt><trkpt lat="42.201132812063854" lon="14.200717594142723"><ele>443.1666666666667</ele><time>2026-04-12T09:24:42Z</time></trkpt><trkpt lat="42.20121637058061" lon="14.200765007604891"><ele>442.33333333333337</ele><time>2026-04-12T09:24:43Z</time></trkpt><trkpt lat="42.20128212654152" lon="14.20080600380435"><ele>441.5</ele><time>2026-04-12T09:24:44Z</time></trkpt><trkpt lat="42.20135984187534" lon="14.200853261020338"><ele>440.6666666666667</ele><time>2026-04-12T09:24:45Z</time></trkpt><trkpt lat="42.201431541580604" lon="14.200886984037846"><ele>439.83333333333337</ele><time>2026-04-12T09:24:46Z</time></trkpt><trkpt lat="42.20150846459507" lon="14.200921807298707"><ele>439.0</ele><time>2026-04-12T09:24:47Z</time></trkpt><trkpt lat="42.201615158050785" lon="14.200917828078058"><ele>437.6666666666667</ele><time>2026-04-12T09:24:49Z</time></trkpt><trkpt lat="42.20174908010667" lon="14.200925781747067"><ele>436.33333333333337</ele><time>2026-04-12T09:24:51Z</time></trkpt><trkpt lat="42.2018274456545" lon="14.200941354685792"><ele>435.0</ele><time>2026-04-12T09:24:52Z</time></trkpt><trkpt lat="42.20190160911132" lon="14.200959598260276"><ele>433.66666666666663</ele><time>2026-04-12T09:24:53Z</time></trkpt><trkpt lat="42.201979443875445" lon="14.201006587984073"><ele>432.3333333333333</ele><time>2026-04-12T09:24:54Z</time></trkpt><trkpt lat="42.20204304936084" lon="14.201046430207299"><ele>431.0</ele><time>2026-04-12T09:24:55Z</time></trkpt><trkpt lat="42.20210332574099" lon="14.20109791682267"><ele>431.0</ele><time>2026-04-12T09:24:56Z</time></trkpt><trkpt lat="42.20217678695811" lon="14.201153569346097"><ele>431.0</ele><time>2026-04-12T09:24:58Z</time></trkpt><trkpt lat="42.20215494807439" lon="14.201441254465843"><ele>431.0</ele><time>2026-04-12T09:25:15Z</time></trkpt><trkpt lat="42.20213473399682" lon="14.201551003948982"><ele>431.0</ele><time>2026-04-12T09:25:16Z</time></trkpt><trkpt lat="42.20210973332349" lon="14.201664097769903"><ele>429.49999999999994</ele><time>2026-04-12T09:25:17Z</time></trkpt><trkpt lat="42.20206168520167" lon="14.201719743812884"><ele>428.0</ele><time>2026-04-12T09:25:18Z</time></trkpt><trkpt lat="42.201961304122285" lon="14.201796822867388"><ele>426.5</ele><time>2026-04-12T09:25:20Z</time></trkpt><trkpt lat="42.20187186407768" lon="14.201775623517571"><ele>425.0</ele><time>2026-04-12T09:25:21Z</time></trkpt><trkpt lat="42.20179094674303" lon="14.201729198072952"><ele>423.49999999999994</ele><time>2026-04-12T09:25:21.999Z</time></trkpt><trkpt lat="42.20171307463691" lon="14.2016898798723"><ele>422.0</ele><time>2026-04-12T09:25:22.999Z</time></trkpt><trkpt lat="42.201653001803656" lon="14.201656711106226"><ele>422.0</ele><time>2026-04-12T09:25:23.999Z</time></trkpt><trkpt lat="42.20156114783328" lon="14.20160618485954"><ele>422.0</ele><time>2026-04-12T09:25:24.999Z</time></trkpt><trkpt lat="42.20145044958986" lon="14.201554568653018"><ele>422.0</ele><time>2026-04-12T09:25:25.999Z</time></trkpt><trkpt lat="42.201361260073924" lon="14.201203531167932"><ele>425.40000000000003</ele><time>2026-04-12T09:25:26.999Z</time></trkpt><trkpt lat="42.20125238577465" lon="14.201180470838896"><ele>428.8</ele><time>2026-04-12T09:25:27.999Z</time></trkpt><trkpt lat="42.20113620124109" lon="14.201155862229163"><ele>432.2</ele><time>2026-04-12T09:25:28.999Z</time></trkpt><trkpt lat="42.20104496134055" lon="14.20113653682301"><ele>435.6</ele><time>2026-04-12T09:25:29.999Z</time></trkpt><trkpt lat="42.20093305853463" lon="14.201112548323813"><ele>439.0</ele><time>2026-04-12T09:25:30.999Z</time></trkpt><trkpt lat="42.2008105218244" lon="14.201085895251078"><ele>439.0</ele><time>2026-04-12T09:25:31.999Z</time></trkpt><trkpt lat="42.20069482902303" lon="14.201060730821165"><ele>439.0</ele><time>2026-04-12T09:25:32.999Z</time></trkpt><trkpt lat="42.20058681896773" lon="14.201037237380914"><ele>439.0</ele><time>2026-04-12T09:25:33.999Z</time></trkpt><trkpt lat="42.2004744202747" lon="14.201012789393854"><ele>439.0</ele><time>2026-04-12T09:25:34.999Z</time></trkpt><trkpt lat="42.20036139288733" lon="14.200988204648379"><ele>441.0</ele><time>2026-04-12T09:25:35.999Z</time></trkpt><trkpt lat="42.200241887628614" lon="14.200962210880782"><ele>443.0</ele><time>2026-04-12T09:25:36.999Z</time></trkpt><trkpt lat="42.200120107194294" lon="14.200935306223489"><ele>445.0</ele><time>2026-04-12T09:25:37.999Z</time></trkpt><trkpt lat="42.19999732686952" lon="14.20090693788637"><ele>447.0</ele><time>2026-04-12T09:25:38.999Z</time></trkpt><trkpt lat="42.199899504142834" lon="14.20088433601546"><ele>447.8</ele><time>2026-04-12T09:25:39.999Z</time></trkpt><trkpt lat="42.19979898636915" lon="14.200861273919815"><ele>448.6</ele><time>2026-04-12T09:25:40.999Z</time></trkpt><trkpt lat="42.199693936990336" lon="14.200837344895328"><ele>449.40000000000003</ele><time>2026-04-12T09:25:41.999Z</time></trkpt><trkpt lat="42.1995877362172" lon="14.200814492411952"><ele>450.20000000000005</ele><time>2026-04-12T09:25:42.999Z</time></trkpt><trkpt lat="42.199487029054154" lon="14.200794288225689"><ele>451.0</ele><time>2026-04-12T09:25:43.999Z</time></trkpt><trkpt lat="42.19937687079279" lon="14.200772187935183"><ele>451.0</ele><time>2026-04-12T09:25:44.999Z</time></trkpt><trkpt lat="42.19925742009044" lon="14.200749076870336"><ele>451.0</ele><time>2026-04-12T09:25:45.999Z</time></trkpt><trkpt lat="42.19912492882038" lon="14.200726474623467"><ele>451.0</ele><time>2026-04-12T09:25:46.999Z</time></trkpt><trkpt lat="42.199015065086016" lon="14.200710983052547"><ele>451.0</ele><time>2026-04-12T09:25:47.999Z</time></trkpt><trkpt lat="42.198911452786746" lon="14.200697833151064"><ele>452.75</ele><time>2026-04-12T09:25:48.999Z</time></trkpt><trkpt lat="42.19880682869678" lon="14.200687770125683"><ele>454.5</ele><time>2026-04-12T09:25:49.999Z</time></trkpt><trkpt lat="42.198695864159205" lon="14.20067786550861"><ele>456.25</ele><time>2026-04-12T09:25:50.999Z</time></trkpt><trkpt lat="42.19857725699924" lon="14.200670494005536"><ele>458.0</ele><time>2026-04-12T09:25:51.999Z</time></trkpt><trkpt lat="42.198461492989686" lon="14.200665419938371"><ele>460.0</ele><time>2026-04-12T09:25:52.999Z</time></trkpt><trkpt lat="42.198340642471486" lon="14.200662635097771"><ele>461.99999999999994</ele><time>2026-04-12T09:25:53.999Z</time></trkpt><trkpt lat="42.1982364280717" lon="14.200660745804985"><ele>463.99999999999994</ele><time>2026-04-12T09:25:54.999Z</time></trkpt><trkpt lat="42.198127305823355" lon="14.200658767556261"><ele>466.0</ele><time>2026-04-12T09:25:55.999Z</time></trkpt><trkpt lat="42.198031027458526" lon="14.200657022149201"><ele>468.0</ele><time>2026-04-12T09:25:56.999Z</time></trkpt><trkpt lat="42.197928032613376" lon="14.200655154980774"><ele>469.25</ele><time>2026-04-12T09:25:57.999Z</time></trkpt><trkpt lat="42.197813609071794" lon="14.200653080626367"><ele>470.5</ele><time>2026-04-12T09:25:58.999Z</time></trkpt><trkpt lat="42.19768932101075" lon="14.200650827440427"><ele>471.75</ele><time>2026-04-12T09:25:59.999Z</time></trkpt><trkpt lat="42.19756972696211" lon="14.200648659344235"><ele>473.0</ele><time>2026-04-12T09:26:00.999Z</time></trkpt><trkpt lat="42.19745778725787" lon="14.200646846855273"><ele>473.0</ele><time>2026-04-12T09:26:01.999Z</time></trkpt><trkpt lat="42.1973460824686" lon="14.200645999179416"><ele>473.0</ele><time>2026-04-12T09:26:02.999Z</time></trkpt><trkpt lat="42.19722580003829" lon="14.200645086414534"><ele>473.0</ele><time>2026-04-12T09:26:03.999Z</time></trkpt><trkpt lat="42.19710799062442" lon="14.200643823824478"><ele>473.0</ele><time>2026-04-12T09:26:04.999Z</time></trkpt><trkpt lat="42.196994373650725" lon="14.20064010477585"><ele>474.4</ele><time>2026-04-12T09:26:05.999Z</time></trkpt><trkpt lat="42.19687793870782" lon="14.200636293487134"><ele>475.79999999999995</ele><time>2026-04-12T09:26:06.999Z</time></trkpt><trkpt lat="42.19677383310114" lon="14.200631362830181"><ele>477.2</ele><time>2026-04-12T09:26:07.999Z</time></trkpt><trkpt lat="42.19668359096284" lon="14.200627095778989"><ele>478.6</ele><time>2026-04-12T09:26:08.999Z</time></trkpt><trkpt lat="42.19659895055415" lon="14.200623093614203"><ele>480.0</ele><time>2026-04-12T09:26:09.999Z</time></trkpt><trkpt lat="42.1965148339246" lon="14.200617062085364"><ele>480.5</ele><time>2026-04-12T09:26:10.999Z</time></trkpt><trkpt lat="42.19644103081741" lon="14.200610599780529"><ele>481.0</ele><time>2026-04-12T09:26:11.999Z</time></trkpt><trkpt lat="42.1963721993676" lon="14.200601651183526"><ele>481.5</ele><time>2026-04-12T09:26:13Z</time></trkpt><trkpt lat="42.1963018357282" lon="14.200589111512071"><ele>482.0</ele><time>2026-04-12T09:26:14Z</time></trkpt><trkpt lat="42.196208118705464" lon="14.200570307924531"><ele>482.5</ele><time>2026-04-12T09:26:15Z</time></trkpt><trkpt lat="42.19610233657046" lon="14.200547693904161"><ele>483.0</ele><time>2026-04-12T09:26:16Z</time></trkpt><trkpt lat="42.19599449111192" lon="14.200523628739676"><ele>483.0</ele><time>2026-04-12T09:26:17Z</time></trkpt><trkpt lat="42.195893016532416" lon="14.200497628112677"><ele>482.99999999999994</ele><time>2026-04-12T09:26:18Z</time></trkpt><trkpt lat="42.19580018245136" lon="14.20047046583573"><ele>482.99999999999994</ele><time>2026-04-12T09:26:19Z</time></trkpt><trkpt lat="42.19569672950654" lon="14.200434717106688"><ele>483.0</ele><time>2026-04-12T09:26:20Z</time></trkpt><trkpt lat="42.19559706219212" lon="14.200396181505328"><ele>483.0</ele><time>2026-04-12T09:26:21Z</time></trkpt><trkpt lat="42.19550894560201" lon="14.200357954507348"><ele>483.2</ele><time>2026-04-12T09:26:22Z</time></trkpt><trkpt lat="42.195408046280775" lon="14.200312523109117"><ele>483.4</ele><time>2026-04-12T09:26:23Z</time></trkpt><trkpt lat="42.195320068837404" lon="14.20027039406692"><ele>483.59999999999997</ele><time>2026-04-12T09:26:24Z</time></trkpt><trkpt lat="42.19523586076623" lon="14.200230448349279"><ele>483.79999999999995</ele><time>2026-04-12T09:26:25Z</time></trkpt><trkpt lat="42.19514232498928" lon="14.20018074755361"><ele>484.0</ele><time>2026-04-12T09:26:26Z</time></trkpt><trkpt lat="42.19504972156084" lon="14.200126963613366"><ele>484.0</ele><time>2026-04-12T09:26:27Z</time></trkpt><trkpt lat="42.19496040002407" lon="14.200070144804336"><ele>484.0</ele><time>2026-04-12T09:26:28Z</time></trkpt><trkpt lat="42.19486277509196" lon="14.200005313531582"><ele>484.0</ele><time>2026-04-12T09:26:29Z</time></trkpt><trkpt lat="42.19475969372131" lon="14.199932889779413"><ele>484.0</ele><time>2026-04-12T09:26:30Z</time></trkpt><trkpt lat="42.194665303584785" lon="14.199861795691806"><ele>484.0</ele><time>2026-04-12T09:26:31Z</time></trkpt><trkpt lat="42.19456974467287" lon="14.19978799531153"><ele>486.0</ele><time>2026-04-12T09:26:32Z</time></trkpt><trkpt lat="42.194475381510394" lon="14.199714077245982"><ele>488.0</ele><time>2026-04-12T09:26:33Z</time></trkpt><trkpt lat="42.19437870074577" lon="14.199634202802372"><ele>490.0</ele><time>2026-04-12T09:26:34Z</time></trkpt><trkpt lat="42.194282459535835" lon="14.199554691621762"><ele>492.0</ele><time>2026-04-12T09:26:35Z</time></trkpt><trkpt lat="42.19418783603938" lon="14.199476516848371"><ele>494.0</ele><time>2026-04-12T09:26:36Z</time></trkpt><trkpt lat="42.19408792171653" lon="14.199394628714677"><ele>492.25</ele><time>2026-04-12T09:26:37Z</time></trkpt><trkpt lat="42.19398905133619" lon="14.199313767793884"><ele>490.5</ele><time>2026-04-12T09:26:38Z</time></trkpt><trkpt lat="42.19389604483346" lon="14.199237702767498"><ele>488.75</ele><time>2026-04-12T09:26:39Z</time></trkpt><trkpt lat="42.19379442981894" lon="14.199155703797814"><ele>487.0</ele><time>2026-04-12T09:26:40Z</time></trkpt><trkpt lat="42.1936995442431" lon="14.19907915019966"><ele>487.0</ele><time>2026-04-12T09:26:41Z</time></trkpt><trkpt lat="42.1936027350357" lon="14.199001044705437"><ele>487.0</ele><time>2026-04-12T09:26:42Z</time></trkpt><trkpt lat="42.19349892707466" lon="14.198917292513508"><ele>487.0</ele><time>2026-04-12T09:26:43Z</time></trkpt><trkpt lat="42.19338389890174" lon="14.198824488000865"><ele>487.0</ele><time>2026-04-12T09:26:44Z</time></trkpt><trkpt lat="42.193268461491265" lon="14.198731352823518"><ele>490.25</ele><time>2026-04-12T09:26:45Z</time></trkpt><trkpt lat="42.19314663757436" lon="14.198633065502317"><ele>493.5</ele><time>2026-04-12T09:26:46Z</time></trkpt><trkpt lat="42.19301155633439" lon="14.198524082069333"><ele>496.75</ele><time>2026-04-12T09:26:47Z</time></trkpt><trkpt lat="42.1928856545421" lon="14.19842250453494"><ele>500.0</ele><time>2026-04-12T09:26:48Z</time></trkpt><trkpt lat="42.19275187243897" lon="14.198314569351423"><ele>500.0</ele><time>2026-04-12T09:26:49Z</time></trkpt><trkpt lat="42.19264225546199" lon="14.198226130452143"><ele>500.0</ele><time>2026-04-12T09:26:50Z</time></trkpt><trkpt lat="42.192542294665614" lon="14.19814464864347"><ele>500.0</ele><time>2026-04-12T09:26:51Z</time></trkpt><trkpt lat="42.19243119464199" lon="14.198051658644964"><ele>500.0</ele><time>2026-04-12T09:26:52Z</time></trkpt><trkpt lat="42.19231942644937" lon="14.197958468193134"><ele>502.5</ele><time>2026-04-12T09:26:53Z</time></trkpt><trkpt lat="42.19219182979538" lon="14.197856142096647"><ele>505.0</ele><time>2026-04-12T09:26:54Z</time></trkpt><trkpt lat="42.19205845123396" lon="14.197751416654697"><ele>507.5</ele><time>2026-04-12T09:26:55Z</time></trkpt><trkpt lat="42.19193285346966" lon="14.197653752273126"><ele>510.0</ele><time>2026-04-12T09:26:56Z</time></trkpt><trkpt lat="42.19180178941423" lon="14.1975516983585"><ele>510.0</ele><time>2026-04-12T09:26:57Z</time></trkpt><trkpt lat="42.1916739866058" lon="14.197449504167366"><ele>510.0</ele><time>2026-04-12T09:26:58Z</time></trkpt><trkpt lat="42.191554776971714" lon="14.197353927147176"><ele>510.0</ele><time>2026-04-12T09:26:59Z</time></trkpt><trkpt lat="42.19143689188312" lon="14.19726156049817"><ele>510.0</ele><time>2026-04-12T09:27:00Z</time></trkpt><trkpt lat="42.19130798982879" lon="14.197173705351116"><ele>512.0</ele><time>2026-04-12T09:27:01Z</time></trkpt><trkpt lat="42.19119763096633" lon="14.197109709290148"><ele>514.0</ele><time>2026-04-12T09:27:02Z</time></trkpt><trkpt lat="42.191090261609034" lon="14.197055451100791"><ele>516.0</ele><time>2026-04-12T09:27:03Z</time></trkpt><trkpt lat="42.190933690403035" lon="14.197006296444163"><ele>518.0</ele><time>2026-04-12T09:27:04Z</time></trkpt><trkpt lat="42.19081300936527" lon="14.196977794378432"><ele>518.0</ele><time>2026-04-12T09:27:05Z</time></trkpt><trkpt lat="42.190686072830566" lon="14.196946927055285"><ele>518.0</ele><time>2026-04-12T09:27:06Z</time></trkpt><trkpt lat="42.1905523930817" lon="14.196921510495939"><ele>518.0</ele><time>2026-04-12T09:27:07Z</time></trkpt><trkpt lat="42.19042208527257" lon="14.196909813624849"><ele>518.0</ele><time>2026-04-12T09:27:08Z</time></trkpt><trkpt lat="42.19028481484991" lon="14.196909102198868"><ele>517.5</ele><time>2026-04-12T09:27:09Z</time></trkpt><trkpt lat="42.19015639027222" lon="14.196926589501949"><ele>517.0</ele><time>2026-04-12T09:27:10Z</time></trkpt><trkpt lat="42.19004746819952" lon="14.196951174155375"><ele>516.5</ele><time>2026-04-12T09:27:11Z</time></trkpt><trkpt lat="42.18993808169006" lon="14.196985472972429"><ele>516.0</ele><time>2026-04-12T09:27:12Z</time></trkpt><trkpt lat="42.18983359826248" lon="14.197017972771018"><ele>516.0</ele><time>2026-04-12T09:27:13Z</time></trkpt><trkpt lat="42.18972271833437" lon="14.19705246122881"><ele>516.0</ele><time>2026-04-12T09:27:14Z</time></trkpt><trkpt lat="42.18963396252965" lon="14.197080068047356"><ele>516.0</ele><time>2026-04-12T09:27:15Z</time></trkpt><trkpt lat="42.18957295569311" lon="14.197228032605747"><ele>516.0</ele><time>2026-04-12T09:27:16Z</time></trkpt><trkpt lat="42.18949150806331" lon="14.19719509385532"><ele>516.0</ele><time>2026-04-12T09:27:17Z</time></trkpt><trkpt lat="42.189410675546824" lon="14.197121912242329"><ele>516.0</ele><time>2026-04-12T09:27:18Z</time></trkpt><trkpt lat="42.18934853998397" lon="14.197051629712588"><ele>516.0</ele><time>2026-04-12T09:27:19Z</time></trkpt><trkpt lat="42.18925601603291" lon="14.19704115163348"><ele>516.0</ele><time>2026-04-12T09:27:23Z</time></trkpt><trkpt lat="42.18917954550821" lon="14.197045596605191"><ele>516.0</ele><time>2026-04-12T09:27:24Z</time></trkpt><trkpt lat="42.18910187509967" lon="14.19708010888369"><ele>516.0</ele><time>2026-04-12T09:27:24.999Z</time></trkpt><trkpt lat="42.18900817388033" lon="14.197162587449087"><ele>516.0</ele><time>2026-04-12T09:27:25.999Z</time></trkpt><trkpt lat="42.188914410838294" lon="14.19723441462278"><ele>516.0</ele><time>2026-04-12T09:27:26.999Z</time></trkpt><trkpt lat="42.188810699112494" lon="14.197282488558317"><ele>516.0</ele><time>2026-04-12T09:27:27.999Z</time></trkpt><trkpt lat="42.188687904760535" lon="14.197303709677122"><ele>516.0</ele><time>2026-04-12T09:27:28.999Z</time></trkpt><trkpt lat="42.18855668503584" lon="14.197251367592983"><ele>516.0</ele><time>2026-04-12T09:27:29.999Z</time></trkpt><trkpt lat="42.18843739540061" lon="14.197167043080508"><ele>516.0</ele><time>2026-04-12T09:27:30.999Z</time></trkpt><trkpt lat="42.18831422611174" lon="14.197078961211526"><ele>516.0</ele><time>2026-04-12T09:27:31.999Z</time></trkpt><trkpt lat="42.18819841758448" lon="14.197018009366728"><ele>516.0</ele><time>2026-04-12T09:27:32.999Z</time></trkpt><trkpt lat="42.18808009454548" lon="14.196992696310856"><ele>516.0</ele><time>2026-04-12T09:27:33.999Z</time></trkpt><trkpt lat="42.18795242220396" lon="14.19700089778273"><ele>514.5</ele><time>2026-04-12T09:27:34.999Z</time></trkpt><trkpt lat="42.18783667643191" lon="14.19704010642456"><ele>513.0</ele><time>2026-04-12T09:27:35.999Z</time></trkpt><trkpt lat="42.18772457948401" lon="14.197151380464456"><ele>511.5</ele><time>2026-04-12T09:27:36.999Z</time></trkpt><trkpt lat="42.187621982966704" lon="14.19727964802793"><ele>510.0</ele><time>2026-04-12T09:27:37.999Z</time></trkpt><trkpt lat="42.18752482786448" lon="14.197402545208378"><ele>508.4</ele><time>2026-04-12T09:27:38.999Z</time></trkpt><trkpt lat="42.18743832287512" lon="14.197513599079505"><ele>506.8</ele><time>2026-04-12T09:27:39.999Z</time></trkpt><trkpt lat="42.18737487303923" lon="14.197593377672767"><ele>505.20000000000005</ele><time>2026-04-12T09:27:40.999Z</time></trkpt><trkpt lat="42.18732783302896" lon="14.197682778052755"><ele>503.6</ele><time>2026-04-12T09:27:42.999Z</time></trkpt><trkpt lat="42.18724811251306" lon="14.19755125622783"><ele>502.0</ele><time>2026-04-12T09:27:44.999Z</time></trkpt><trkpt lat="42.18719031424907" lon="14.197470461805862"><ele>503.6</ele><time>2026-04-12T09:27:45.999Z</time></trkpt><trkpt lat="42.18708747450034" lon="14.197369869994876"><ele>505.20000000000005</ele><time>2026-04-12T09:27:47.999Z</time></trkpt><trkpt lat="42.1870332141141" lon="14.197270655840885"><ele>506.8</ele><time>2026-04-12T09:27:48.999Z</time></trkpt><trkpt lat="42.18698857648747" lon="14.197140853925346"><ele>508.4</ele><time>2026-04-12T09:27:49.999Z</time></trkpt><trkpt lat="42.18693177071908" lon="14.197028949100588"><ele>510.0</ele><time>2026-04-12T09:27:50.999Z</time></trkpt><trkpt lat="42.18685066585974" lon="14.19691965526299"><ele>510.0</ele><time>2026-04-12T09:27:51.999Z</time></trkpt><trkpt lat="42.18677148399551" lon="14.196852517350852"><ele>510.0</ele><time>2026-04-12T09:27:52.999Z</time></trkpt><trkpt lat="42.186713880447456" lon="14.196757475797366"><ele>510.0</ele><time>2026-04-12T09:27:54.999Z</time></trkpt><trkpt lat="42.186597489843834" lon="14.196801113950762"><ele>510.0</ele><time>2026-04-12T09:27:56.999Z</time></trkpt><trkpt lat="42.186514027382856" lon="14.196846644438581"><ele>510.0</ele><time>2026-04-12T09:27:57.999Z</time></trkpt><trkpt lat="42.18643694236399" lon="14.196844526002954"><ele>511.6666666666667</ele><time>2026-04-12T09:27:58.999Z</time></trkpt><trkpt lat="42.1863473128951" lon="14.196833714328966"><ele>513.3333333333334</ele><time>2026-04-12T09:27:59.999Z</time></trkpt><trkpt lat="42.18625702181474" lon="14.196877288083096"><ele>515.0</ele><time>2026-04-12T09:28:00.999Z</time></trkpt><trkpt lat="42.1861770512181" lon="14.196883690169708"><ele>516.6666666666667</ele><time>2026-04-12T09:28:01.999Z</time></trkpt><trkpt lat="42.186080283099265" lon="14.196872614785654"><ele>518.3333333333334</ele><time>2026-04-12T09:28:02.999Z</time></trkpt><trkpt lat="42.18600700600903" lon="14.19681968042563"><ele>520.0</ele><time>2026-04-12T09:28:03.999Z</time></trkpt><trkpt lat="42.1859472522993" lon="14.19677989308683"><ele>520.0</ele><time>2026-04-12T09:28:04.999Z</time></trkpt><trkpt lat="42.185878052759136" lon="14.196772739914579"><ele>520.0</ele><time>2026-04-12T09:28:05.999Z</time></trkpt><trkpt lat="42.18578141697441" lon="14.196714733592568"><ele>520.0</ele><time>2026-04-12T09:28:07.999Z</time></trkpt><trkpt lat="42.18571041998156" lon="14.196634378885395"><ele>520.0</ele><time>2026-04-12T09:28:09.999Z</time></trkpt><trkpt lat="42.18566461909361" lon="14.196571661660892"><ele>520.0</ele><time>2026-04-12T09:28:10.999Z</time></trkpt><trkpt lat="42.185607818760346" lon="14.196513576325492"><ele>520.0</ele><time>2026-04-12T09:28:11.999Z</time></trkpt><trkpt lat="42.18555530539589" lon="14.19645884267154"><ele>520.3333333333334</ele><time>2026-04-12T09:28:12.999Z</time></trkpt><trkpt lat="42.18551064729473" lon="14.19638720695268"><ele>520.6666666666667</ele><time>2026-04-12T09:28:14.999Z</time></trkpt><trkpt lat="42.18541704937347" lon="14.19641087397266"><ele>521.0</ele><time>2026-04-12T09:28:16.999Z</time></trkpt><trkpt lat="42.185339840110835" lon="14.196407491968822"><ele>521.3333333333334</ele><time>2026-04-12T09:28:23Z</time></trkpt><trkpt lat="42.1853104154762" lon="14.196509761036875"><ele>521.6666666666666</ele><time>2026-04-12T09:28:27Z</time></trkpt><trkpt lat="42.18531516906354" lon="14.196620118413206"><ele>522.0</ele><time>2026-04-12T09:28:29Z</time></trkpt><trkpt lat="42.185299383413906" lon="14.196737239822198"><ele>523.6666666666666</ele><time>2026-04-12T09:28:31Z</time></trkpt><trkpt lat="42.185300857298806" lon="14.196838438369493"><ele>525.3333333333334</ele><time>2026-04-12T09:28:32Z</time></trkpt><trkpt lat="42.185299694820934" lon="14.196947033920834"><ele>527.0</ele><time>2026-04-12T09:28:33Z</time></trkpt><trkpt lat="42.185297777732295" lon="14.197118210450999"><ele>528.6666666666667</ele><time>2026-04-12T09:28:35Z</time></trkpt><trkpt lat="42.185309797714375" lon="14.197216867693982"><ele>530.3333333333334</ele><time>2026-04-12T09:28:36Z</time></trkpt><trkpt lat="42.18532008406583" lon="14.197321227802004"><ele>532.0</ele><time>2026-04-12T09:28:37Z</time></trkpt><trkpt lat="42.18532670134954" lon="14.19743943421927"><ele>534.0</ele><time>2026-04-12T09:28:38Z</time></trkpt><trkpt lat="42.18533373854591" lon="14.197560735559438"><ele>536.0</ele><time>2026-04-12T09:28:39Z</time></trkpt><trkpt lat="42.18534031997994" lon="14.197703311155196"><ele>538.0</ele><time>2026-04-12T09:28:40Z</time></trkpt><trkpt lat="42.185352092137975" lon="14.19783448901964"><ele>540.0</ele><time>2026-04-12T09:28:41Z</time></trkpt><trkpt lat="42.18536164977466" lon="14.197983642113906"><ele>542.0</ele><time>2026-04-12T09:28:42Z</time></trkpt><trkpt lat="42.1853803797258" lon="14.198140998389686"><ele>544.25</ele><time>2026-04-12T09:28:43Z</time></trkpt><trkpt lat="42.18539397573495" lon="14.198285330111858"><ele>546.5</ele><time>2026-04-12T09:28:44Z</time></trkpt><trkpt lat="42.18544569921567" lon="14.19844548832893"><ele>548.75</ele><time>2026-04-12T09:28:45Z</time></trkpt><trkpt lat="42.185496297668514" lon="14.1985992873024"><ele>551.0</ele><time>2026-04-12T09:28:46Z</time></trkpt><trkpt lat="42.185545615012984" lon="14.198750004436565"><ele>551.0</ele><time>2026-04-12T09:28:47Z</time></trkpt><trkpt lat="42.1855836484764" lon="14.198894971039634"><ele>551.0</ele><time>2026-04-12T09:28:48Z</time></trkpt><trkpt lat="42.185632882025196" lon="14.199045257862219"><ele>551.0</ele><time>2026-04-12T09:28:49Z</time></trkpt><trkpt lat="42.18568088061743" lon="14.199187132217"><ele>551.0</ele><time>2026-04-12T09:28:50Z</time></trkpt><trkpt lat="42.18572672899672" lon="14.199332484366169"><ele>551.0</ele><time>2026-04-12T09:28:51Z</time></trkpt><trkpt lat="42.18576477567054" lon="14.199487312013343"><ele>551.0</ele><time>2026-04-12T09:28:52Z</time></trkpt><trkpt lat="42.185810776194856" lon="14.199626069474014"><ele>551.0</ele><time>2026-04-12T09:28:53Z</time></trkpt><trkpt lat="42.185854915915804" lon="14.199737880498002"><ele>551.0</ele><time>2026-04-12T09:28:54Z</time></trkpt><trkpt lat="42.18588220799374" lon="14.199819725918145"><ele>551.0</ele><time>2026-04-12T09:28:55Z</time></trkpt><trkpt lat="42.18590012885097" lon="14.199962454802252"><ele>551.0</ele><time>2026-04-12T09:28:57Z</time></trkpt><trkpt lat="42.18591478720312" lon="14.20010109464402"><ele>551.0</ele><time>2026-04-12T09:28:58Z</time></trkpt><trkpt lat="42.18596013957774" lon="14.200261418164809"><ele>551.0</ele><time>2026-04-12T09:28:59Z</time></trkpt><trkpt lat="42.185990450673934" lon="14.200416471072923"><ele>551.0</ele><time>2026-04-12T09:29:00Z</time></trkpt><trkpt lat="42.186025226548786" lon="14.200598931996513"><ele>549.3333333333333</ele><time>2026-04-12T09:29:01Z</time></trkpt><trkpt lat="42.18606023265084" lon="14.200804790402037"><ele>547.6666666666666</ele><time>2026-04-12T09:29:02Z</time></trkpt><trkpt lat="42.18610618624905" lon="14.201016721743587"><ele>546.0</ele><time>2026-04-12T09:29:03Z</time></trkpt><trkpt lat="42.18615399606917" lon="14.201240203556607"><ele>546.0</ele><time>2026-04-12T09:29:04Z</time></trkpt><trkpt lat="42.18621867706842" lon="14.201449953882307"><ele>546.0</ele><time>2026-04-12T09:29:05Z</time></trkpt><trkpt lat="42.18630045412475" lon="14.201635436226216"><ele>546.0</ele><time>2026-04-12T09:29:06Z</time></trkpt><trkpt lat="42.186412368086685" lon="14.201805786914456"><ele>545.3333333333334</ele><time>2026-04-12T09:29:07Z</time></trkpt><trkpt lat="42.18656317968761" lon="14.201978596949521"><ele>544.6666666666667</ele><time>2026-04-12T09:29:08Z</time></trkpt><trkpt lat="42.186706919276716" lon="14.202145607180897"><ele>544.0</ele><time>2026-04-12T09:29:09Z</time></trkpt><trkpt lat="42.1868470739757" lon="14.202319145939343"><ele>541.6666666666667</ele><time>2026-04-12T09:29:10Z</time></trkpt><trkpt lat="42.18699254632526" lon="14.202490409157493"><ele>539.3333333333334</ele><time>2026-04-12T09:29:11Z</time></trkpt><trkpt lat="42.18713286443813" lon="14.202666048896159"><ele>537.0</ele><time>2026-04-12T09:29:12Z</time></trkpt><trkpt lat="42.18727120517459" lon="14.20284552480535"><ele>539.3333333333334</ele><time>2026-04-12T09:29:13Z</time></trkpt><trkpt lat="42.18740993010401" lon="14.20301698022524"><ele>541.6666666666667</ele><time>2026-04-12T09:29:14Z</time></trkpt><trkpt lat="42.187549779642964" lon="14.20318750116291"><ele>544.0</ele><time>2026-04-12T09:29:15Z</time></trkpt><trkpt lat="42.18768831856354" lon="14.203361485231792"><ele>545.3333333333334</ele><time>2026-04-12T09:29:16Z</time></trkpt><trkpt lat="42.18782950887445" lon="14.20352346630519"><ele>546.6666666666666</ele><time>2026-04-12T09:29:17Z</time></trkpt><trkpt lat="42.18796691228095" lon="14.20368358610566"><ele>548.0</ele><time>2026-04-12T09:29:18Z</time></trkpt><trkpt lat="42.18809865679612" lon="14.203843483421572"><ele>550.0</ele><time>2026-04-12T09:29:19Z</time></trkpt><trkpt lat="42.188211074199124" lon="14.203987919003074"><ele>552.0</ele><time>2026-04-12T09:29:20Z</time></trkpt><trkpt lat="42.18831585370034" lon="14.2041278642398"><ele>554.0</ele><time>2026-04-12T09:29:21Z</time></trkpt><trkpt lat="42.188416351849646" lon="14.204291362691732"><ele>554.0</ele><time>2026-04-12T09:29:22Z</time></trkpt><trkpt lat="42.18849575426686" lon="14.204475657770885"><ele>554.0</ele><time>2026-04-12T09:29:23Z</time></trkpt><trkpt lat="42.1885615797073" lon="14.204665216582194"><ele>554.0</ele><time>2026-04-12T09:29:24Z</time></trkpt><trkpt lat="42.1886270631872" lon="14.204856971750674"><ele>552.3333333333333</ele><time>2026-04-12T09:29:25Z</time></trkpt><trkpt lat="42.18869281586908" lon="14.205049704682088"><ele>550.6666666666666</ele><time>2026-04-12T09:29:25.999Z</time></trkpt><trkpt lat="42.188757656440714" lon="14.205247546086062"><ele>549.0</ele><time>2026-04-12T09:29:26.999Z</time></trkpt><trkpt lat="42.18881913079445" lon="14.20544427466075"><ele>549.0</ele><time>2026-04-12T09:29:27.999Z</time></trkpt><trkpt lat="42.18888687572901" lon="14.205621605829958"><ele>549.0</ele><time>2026-04-12T09:29:28.999Z</time></trkpt><trkpt lat="42.18897771935268" lon="14.205767470539515"><ele>549.0</ele><time>2026-04-12T09:29:29.999Z</time></trkpt><trkpt lat="42.18909585245672" lon="14.20587498805359"><ele>549.0</ele><time>2026-04-12T09:29:30.999Z</time></trkpt><trkpt lat="42.18923180072799" lon="14.205953561515514"><ele>550.75</ele><time>2026-04-12T09:29:31.999Z</time></trkpt><trkpt lat="42.18936281544824" lon="14.206048623457912"><ele>552.5</ele><time>2026-04-12T09:29:32.999Z</time></trkpt><trkpt lat="42.18946339211902" lon="14.206174007255381"><ele>554.25</ele><time>2026-04-12T09:29:33.999Z</time></trkpt><trkpt lat="42.18953673643" lon="14.206344852833066"><ele>556.0</ele><time>2026-04-12T09:29:34.999Z</time></trkpt><trkpt lat="42.189616535246145" lon="14.206534830804628"><ele>559.0</ele><time>2026-04-12T09:29:35.999Z</time></trkpt><trkpt lat="42.18969088726481" lon="14.206727516918177"><ele>562.0</ele><time>2026-04-12T09:29:36.999Z</time></trkpt><trkpt lat="42.189761768838125" lon="14.206915471174575"><ele>565.0</ele><time>2026-04-12T09:29:37.999Z</time></trkpt><trkpt lat="42.189810072714145" lon="14.207092293275737"><ele>565.0</ele><time>2026-04-12T09:29:38.999Z</time></trkpt><trkpt lat="42.18982561808919" lon="14.207264000857629"><ele>565.0</ele><time>2026-04-12T09:29:39.999Z</time></trkpt><trkpt lat="42.189804231054644" lon="14.207441951914635"><ele>565.0</ele><time>2026-04-12T09:29:40.999Z</time></trkpt><trkpt lat="42.189754273325754" lon="14.20762099871637"><ele>565.0</ele><time>2026-04-12T09:29:41.999Z</time></trkpt><trkpt lat="42.18969158484502" lon="14.207800906028416"><ele>566.6666666666667</ele><time>2026-04-12T09:29:42.999Z</time></trkpt><trkpt lat="42.18963069285619" lon="14.207990418954177"><ele>568.3333333333334</ele><time>2026-04-12T09:29:43.999Z</time></trkpt><trkpt lat="42.18956870424543" lon="14.208185416554869"><ele>570.0</ele><time>2026-04-12T09:29:44.999Z</time></trkpt><trkpt lat="42.18949975246486" lon="14.208386484237485"><ele>570.25</ele><time>2026-04-12T09:29:45.999Z</time></trkpt><trkpt lat="42.189433419034614" lon="14.208583013619487"><ele>570.5</ele><time>2026-04-12T09:29:46.999Z</time></trkpt><trkpt lat="42.189381356800475" lon="14.20875337632479"><ele>570.75</ele><time>2026-04-12T09:29:47.999Z</time></trkpt><trkpt lat="42.18933698799931" lon="14.208911388831412"><ele>571.0</ele><time>2026-04-12T09:29:48.999Z</time></trkpt><trkpt lat="42.18929733822447" lon="14.209062231017846"><ele>570.0</ele><time>2026-04-12T09:29:49.999Z</time></trkpt><trkpt lat="42.189237779496416" lon="14.209207430889462"><ele>569.0</ele><time>2026-04-12T09:29:50.999Z</time></trkpt><trkpt lat="42.18918626795207" lon="14.209359989402019"><ele>568.0</ele><time>2026-04-12T09:29:51.999Z</time></trkpt><trkpt lat="42.189132950004506" lon="14.20952278751773"><ele>567.0</ele><time>2026-04-12T09:29:52.999Z</time></trkpt><trkpt lat="42.18903897262125" lon="14.209669503173135"><ele>569.6666666666666</ele><time>2026-04-12T09:29:53.999Z</time></trkpt><trkpt lat="42.188932078977146" lon="14.209813183188775"><ele>572.3333333333333</ele><time>2026-04-12T09:29:54.999Z</time></trkpt><trkpt lat="42.18881566479281" lon="14.209957604455594"><ele>575.0</ele><time>2026-04-12T09:29:55.999Z</time></trkpt><trkpt lat="42.18869392654074" lon="14.2101031725357"><ele>575.0</ele><time>2026-04-12T09:29:56.999Z</time></trkpt><trkpt lat="42.188567155022845" lon="14.210257243861875"><ele>575.0</ele><time>2026-04-12T09:29:57.999Z</time></trkpt><trkpt lat="42.18843893336641" lon="14.21041880774293"><ele>575.0</ele><time>2026-04-12T09:29:58.999Z</time></trkpt><trkpt lat="42.18830909199723" lon="14.210588762926305"><ele>575.6666666666666</ele><time>2026-04-12T09:29:59.999Z</time></trkpt><trkpt lat="42.188175216070206" lon="14.210763366227237"><ele>576.3333333333334</ele><time>2026-04-12T09:30:00.999Z</time></trkpt><trkpt lat="42.188038423679366" lon="14.210937536444268"><ele>577.0</ele><time>2026-04-12T09:30:01.999Z</time></trkpt><trkpt lat="42.18790035140425" lon="14.211111296826413"><ele>577.0</ele><time>2026-04-12T09:30:02.999Z</time></trkpt><trkpt lat="42.18776046039415" lon="14.211283371399691"><ele>577.0</ele><time>2026-04-12T09:30:03.999Z</time></trkpt><trkpt lat="42.18761301296496" lon="14.2114431256863"><ele>577.0</ele><time>2026-04-12T09:30:04.999Z</time></trkpt><trkpt lat="42.187454961808825" lon="14.211584504353036"><ele>576.6666666666667</ele><time>2026-04-12T09:30:05.999Z</time></trkpt><trkpt lat="42.18729100162207" lon="14.211717434650533"><ele>576.3333333333334</ele><time>2026-04-12T09:30:06.999Z</time></trkpt><trkpt lat="42.18713002515403" lon="14.211844736532395"><ele>576.0</ele><time>2026-04-12T09:30:07.999Z</time></trkpt><trkpt lat="42.18699326667718" lon="14.211949996195756"><ele>576.0</ele><time>2026-04-12T09:30:08.999Z</time></trkpt><trkpt lat="42.18688603982082" lon="14.212034057890333"><ele>576.0</ele><time>2026-04-12T09:30:09.999Z</time></trkpt><trkpt lat="42.18679907174919" lon="14.212104591252842"><ele>576.0</ele><time>2026-04-12T09:30:10.999Z</time></trkpt><trkpt lat="42.186727369567436" lon="14.212162428293928"><ele>576.0</ele><time>2026-04-12T09:30:11.999Z</time></trkpt><trkpt lat="42.18663706999129" lon="14.212241755182529"><ele>576.0</ele><time>2026-04-12T09:30:13.999Z</time></trkpt><trkpt lat="42.186704290359906" lon="14.21234179065203"><ele>576.0</ele><time>2026-04-12T09:30:17.999Z</time></trkpt><trkpt lat="42.18696628727276" lon="14.212343415374288"><ele>576.0</ele><time>2026-04-12T09:30:18.999Z</time></trkpt><trkpt lat="42.18706441818416" lon="14.212250066825206"><ele>576.0</ele><time>2026-04-12T09:30:19.999Z</time></trkpt><trkpt lat="42.18714195472188" lon="14.212168613835754"><ele>576.0</ele><time>2026-04-12T09:30:20.999Z</time></trkpt><trkpt lat="42.1872305073568" lon="14.212097572226048"><ele>576.0</ele><time>2026-04-12T09:30:21.999Z</time></trkpt><trkpt lat="42.187297202406654" lon="14.212077069030993"><ele>576.0</ele><time>2026-04-12T09:30:22.999Z</time></trkpt><trkpt lat="42.1874033901264" lon="14.212025883776453"><ele>576.0</ele><time>2026-04-12T09:30:24Z</time></trkpt><trkpt lat="42.18761253758728" lon="14.211760418756716"><ele>576.25</ele><time>2026-04-12T09:30:25Z</time></trkpt><trkpt lat="42.18767036134034" lon="14.211621717180877"><ele>576.5</ele><time>2026-04-12T09:30:26Z</time></trkpt><trkpt lat="42.187728508027014" lon="14.211476213190277"><ele>576.75</ele><time>2026-04-12T09:30:27Z</time></trkpt><trkpt lat="42.187792580196984" lon="14.211324626455438"><ele>577.0</ele><time>2026-04-12T09:30:28Z</time></trkpt><trkpt lat="42.18788132346964" lon="14.211180131248668"><ele>577.0</ele><time>2026-04-12T09:30:29Z</time></trkpt><trkpt lat="42.18799094116804" lon="14.211039723274325"><ele>577.0</ele><time>2026-04-12T09:30:30Z</time></trkpt><trkpt lat="42.188100426835966" lon="14.210898938379085"><ele>577.0</ele><time>2026-04-12T09:30:31Z</time></trkpt><trkpt lat="42.188204897142846" lon="14.21076086928199"><ele>577.0</ele><time>2026-04-12T09:30:32Z</time></trkpt><trkpt lat="42.18830767421869" lon="14.210629106264424"><ele>576.5</ele><time>2026-04-12T09:30:33Z</time></trkpt><trkpt lat="42.18842108294423" lon="14.210516880535234"><ele>576.0</ele><time>2026-04-12T09:30:34Z</time></trkpt><trkpt lat="42.18852369356513" lon="14.210388504535105"><ele>575.5</ele><time>2026-04-12T09:30:35Z</time></trkpt><trkpt lat="42.18862398723262" lon="14.210262675433135"><ele>575.0</ele><time>2026-04-12T09:30:36Z</time></trkpt><trkpt lat="42.188710720809" lon="14.210151697659397"><ele>575.0</ele><time>2026-04-12T09:30:37Z</time></trkpt><trkpt lat="42.1887692386016" lon="14.210076822765302"><ele>575.0</ele><time>2026-04-12T09:30:38Z</time></trkpt><trkpt lat="42.1888232871341" lon="14.21000916115082"><ele>575.0</ele><time>2026-04-12T09:30:40Z</time></trkpt><trkpt lat="42.1888038589635" lon="14.210150688800026"><ele>575.0</ele><time>2026-04-12T09:30:43Z</time></trkpt><trkpt lat="42.18876731417609" lon="14.210327725062045"><ele>575.0</ele><time>2026-04-12T09:30:45Z</time></trkpt><trkpt lat="42.18873232904312" lon="14.210448723440395"><ele>575.0</ele><time>2026-04-12T09:30:46Z</time></trkpt><trkpt lat="42.188711157946486" lon="14.210589653112983"><ele>575.0</ele><time>2026-04-12T09:30:47Z</time></trkpt><trkpt lat="42.188699073654405" lon="14.210734531445436"><ele>575.0</ele><time>2026-04-12T09:30:48Z</time></trkpt><trkpt lat="42.18868338993541" lon="14.210899269707225"><ele>575.0</ele><time>2026-04-12T09:30:49Z</time></trkpt><trkpt lat="42.18866923622319" lon="14.21106787820549"><ele>573.6</ele><time>2026-04-12T09:30:50Z</time></trkpt><trkpt lat="42.18864864529828" lon="14.211216135626376"><ele>572.2</ele><time>2026-04-12T09:30:51Z</time></trkpt><trkpt lat="42.18862511944285" lon="14.211342725956234"><ele>570.8</ele><time>2026-04-12T09:30:52Z</time></trkpt><trkpt lat="42.18858849446092" lon="14.211462228420848"><ele>569.4</ele><time>2026-04-12T09:30:53Z</time></trkpt><trkpt lat="42.18853226653703" lon="14.211579819764518"><ele>568.0</ele><time>2026-04-12T09:30:54Z</time></trkpt><trkpt lat="42.18846457718387" lon="14.211683879734395"><ele>566.1999999999999</ele><time>2026-04-12T09:30:55Z</time></trkpt><trkpt lat="42.18840917269461" lon="14.211770699744264"><ele>564.4</ele><time>2026-04-12T09:30:56Z</time></trkpt><trkpt lat="42.18835746642019" lon="14.21186755590115"><ele>562.5999999999999</ele><time>2026-04-12T09:30:57Z</time></trkpt><trkpt lat="42.18831912745197" lon="14.212006495349511"><ele>560.8</ele><time>2026-04-12T09:30:58Z</time></trkpt><trkpt lat="42.188280603409254" lon="14.212198632351217"><ele>559.0</ele><time>2026-04-12T09:30:59Z</time></trkpt><trkpt lat="42.18823174900778" lon="14.212390814918454"><ele>559.0</ele><time>2026-04-12T09:31:00Z</time></trkpt><trkpt lat="42.188188397406435" lon="14.212558815535488"><ele>559.0</ele><time>2026-04-12T09:31:01Z</time></trkpt><trkpt lat="42.188156700722146" lon="14.212719075178828"><ele>559.0</ele><time>2026-04-12T09:31:02Z</time></trkpt><trkpt lat="42.18812545080366" lon="14.212893623677969"><ele>559.0</ele><time>2026-04-12T09:31:03Z</time></trkpt><trkpt lat="42.188103345822" lon="14.213080364229553"><ele>557.0</ele><time>2026-04-12T09:31:04Z</time></trkpt><trkpt lat="42.18808583107011" lon="14.21326615411826"><ele>555.0</ele><time>2026-04-12T09:31:05Z</time></trkpt><trkpt lat="42.188059133533" lon="14.213417507398137"><ele>553.0</ele><time>2026-04-12T09:31:06Z</time></trkpt><trkpt lat="42.188028960277265" lon="14.213533876889256"><ele>551.0</ele><time>2026-04-12T09:31:07Z</time></trkpt><trkpt lat="42.18799209257834" lon="14.213616093671847"><ele>549.0</ele><time>2026-04-12T09:31:08Z</time></trkpt><trkpt lat="42.187953612102625" lon="14.213708149727113"><ele>549.0</ele><time>2026-04-12T09:31:10Z</time></trkpt><trkpt lat="42.18801519011934" lon="14.213869781221867"><ele>549.0</ele><time>2026-04-12T09:31:12Z</time></trkpt><trkpt lat="42.188156545738856" lon="14.213848484093438"><ele>549.0</ele><time>2026-04-12T09:31:13Z</time></trkpt><trkpt lat="42.1882733783321" lon="14.213884214383947"><ele>549.0</ele><time>2026-04-12T09:31:14Z</time></trkpt><trkpt lat="42.188405981101724" lon="14.213940144922397"><ele>544.6666666666666</ele><time>2026-04-12T09:31:15Z</time></trkpt><trkpt lat="42.18855265789589" lon="14.214010073476043"><ele>540.3333333333333</ele><time>2026-04-12T09:31:16Z</time></trkpt><trkpt lat="42.18870295670084" lon="14.214093844240018"><ele>536.0</ele><time>2026-04-12T09:31:17Z</time></trkpt><trkpt lat="42.188844585350274" lon="14.214155882718023"><ele>536.0</ele><time>2026-04-12T09:31:18Z</time></trkpt><trkpt lat="42.18897150551214" lon="14.21420826442653"><ele>536.0</ele><time>2026-04-12T09:31:19Z</time></trkpt><trkpt lat="42.18908259382561" lon="14.214265330228942"><ele>536.0</ele><time>2026-04-12T09:31:20Z</time></trkpt><trkpt lat="42.18918915170094" lon="14.214316061872083"><ele>536.0</ele><time>2026-04-12T09:31:21Z</time></trkpt><trkpt lat="42.18929259194209" lon="14.214362655572545"><ele>534.0</ele><time>2026-04-12T09:31:22Z</time></trkpt><trkpt lat="42.189395593174474" lon="14.214417958918512"><ele>532.0</ele><time>2026-04-12T09:31:23Z</time></trkpt><trkpt lat="42.18948117969177" lon="14.214456848839207"><ele>530.0</ele><time>2026-04-12T09:31:24Z</time></trkpt><trkpt lat="42.18954553631868" lon="14.214484355403824"><ele>528.0</ele><time>2026-04-12T09:31:25Z</time></trkpt><trkpt lat="42.189614256280365" lon="14.214471801688788"><ele>526.0</ele><time>2026-04-12T09:31:27Z</time></trkpt><trkpt lat="42.189645332663574" lon="14.214272791861376"><ele>526.0</ele><time>2026-04-12T09:31:29Z</time></trkpt><trkpt lat="42.1896297120605" lon="14.214118500770768"><ele>526.0</ele><time>2026-04-12T09:31:30Z</time></trkpt><trkpt lat="42.18963540470667" lon="14.213943030159642"><ele>526.0</ele><time>2026-04-12T09:31:31Z</time></trkpt><trkpt lat="42.18965904453928" lon="14.213775752675641"><ele>526.0</ele><time>2026-04-12T09:31:31.999Z</time></trkpt><trkpt lat="42.189701635012455" lon="14.21358792082276"><ele>526.0</ele><time>2026-04-12T09:31:32.999Z</time></trkpt><trkpt lat="42.189768396724574" lon="14.213381600836495"><ele>526.0</ele><time>2026-04-12T09:31:33.999Z</time></trkpt><trkpt lat="42.18984861587789" lon="14.213156919116694"><ele>526.0</ele><time>2026-04-12T09:31:34.999Z</time></trkpt><trkpt lat="42.18994763972685" lon="14.212949418420864"><ele>526.0</ele><time>2026-04-12T09:31:35.999Z</time></trkpt><trkpt lat="42.190044796381514" lon="14.212745341936378"><ele>526.0</ele><time>2026-04-12T09:31:36.999Z</time></trkpt><trkpt lat="42.19014859673886" lon="14.212529512999298"><ele>526.0</ele><time>2026-04-12T09:31:37.999Z</time></trkpt><trkpt lat="42.190254777833744" lon="14.21230275651573"><ele>530.0</ele><time>2026-04-12T09:31:38.999Z</time></trkpt><trkpt lat="42.19033814353552" lon="14.212087023708024"><ele>534.0</ele><time>2026-04-12T09:31:39.999Z</time></trkpt><trkpt lat="42.19039282096914" lon="14.21186831795385"><ele>538.0</ele><time>2026-04-12T09:31:40.999Z</time></trkpt><trkpt lat="42.19041315472432" lon="14.211623172178845"><ele>539.0</ele><time>2026-04-12T09:31:41.999Z</time></trkpt><trkpt lat="42.19040328585468" lon="14.211356680616"><ele>540.0</ele><time>2026-04-12T09:31:42.999Z</time></trkpt><trkpt lat="42.19039752081958" lon="14.211089958032616"><ele>541.0</ele><time>2026-04-12T09:31:43.999Z</time></trkpt><trkpt lat="42.19040332949022" lon="14.210823595055379"><ele>541.6666666666667</ele><time>2026-04-12T09:31:44.999Z</time></trkpt><trkpt lat="42.190413252055336" lon="14.210561597283288"><ele>542.3333333333334</ele><time>2026-04-12T09:31:45.999Z</time></trkpt><trkpt lat="42.19042605897201" lon="14.210280508746255"><ele>543.0</ele><time>2026-04-12T09:31:46.999Z</time></trkpt><trkpt lat="42.190434386173834" lon="14.210010539957464"><ele>544.0</ele><time>2026-04-12T09:31:47.999Z</time></trkpt><trkpt lat="42.190444260791416" lon="14.209749210575616"><ele>545.0</ele><time>2026-04-12T09:31:48.999Z</time></trkpt><trkpt lat="42.19044601324289" lon="14.209489578978785"><ele>546.0</ele><time>2026-04-12T09:31:49.999Z</time></trkpt><trkpt lat="42.19046912910398" lon="14.209242735304207"><ele>546.0</ele><time>2026-04-12T09:31:50.999Z</time></trkpt><trkpt lat="42.19049356075813" lon="14.209009685321385"><ele>546.0</ele><time>2026-04-12T09:31:51.999Z</time></trkpt><trkpt lat="42.190511504492484" lon="14.208821725312365"><ele>546.0</ele><time>2026-04-12T09:31:52.999Z</time></trkpt><trkpt lat="42.19053130162915" lon="14.20863999726501"><ele>548.0</ele><time>2026-04-12T09:31:53.999Z</time></trkpt><trkpt lat="42.190550898521394" lon="14.20847405985132"><ele>550.0</ele><time>2026-04-12T09:31:54.999Z</time></trkpt><trkpt lat="42.19056916900288" lon="14.208328010980454"><ele>552.0</ele><time>2026-04-12T09:31:55.999Z</time></trkpt><trkpt lat="42.19058001583083" lon="14.208206132639992"><ele>554.0</ele><time>2026-04-12T09:31:56.999Z</time></trkpt><trkpt lat="42.190730997650064" lon="14.208107811418671"><ele>550.0</ele><time>2026-04-12T09:31:58.999Z</time></trkpt><trkpt lat="42.190813454146735" lon="14.208108344060038"><ele>546.0</ele><time>2026-04-12T09:31:59.999Z</time></trkpt><trkpt lat="42.19090624979684" lon="14.2081164800882"><ele>542.0</ele><time>2026-04-12T09:32:00.999Z</time></trkpt><trkpt lat="42.19101323140093" lon="14.208141848335746"><ele>538.0</ele><time>2026-04-12T09:32:01.999Z</time></trkpt><trkpt lat="42.191123693616895" lon="14.208163517681474"><ele>534.0</ele><time>2026-04-12T09:32:02.999Z</time></trkpt><trkpt lat="42.191265070692936" lon="14.208167625717788"><ele>534.0</ele><time>2026-04-12T09:32:03.999Z</time></trkpt><trkpt lat="42.191417988445046" lon="14.208174860568054"><ele>534.0</ele><time>2026-04-12T09:32:04.999Z</time></trkpt><trkpt lat="42.19157598259588" lon="14.208178635133638"><ele>534.0</ele><time>2026-04-12T09:32:05.999Z</time></trkpt><trkpt lat="42.19172299885764" lon="14.208181683410128"><ele>532.2</ele><time>2026-04-12T09:32:06.999Z</time></trkpt><trkpt lat="42.19185491597894" lon="14.208186936423168"><ele>530.4</ele><time>2026-04-12T09:32:07.999Z</time></trkpt><trkpt lat="42.19196853720524" lon="14.208189068960872"><ele>528.6</ele><time>2026-04-12T09:32:08.999Z</time></trkpt><trkpt lat="42.19207106772937" lon="14.208199051424788"><ele>526.8</ele><time>2026-04-12T09:32:09.999Z</time></trkpt><trkpt lat="42.192166279862256" lon="14.208200580442139"><ele>525.0</ele><time>2026-04-12T09:32:10.999Z</time></trkpt><trkpt lat="42.192274759346155" lon="14.208179587581117"><ele>521.75</ele><time>2026-04-12T09:32:11.999Z</time></trkpt><trkpt lat="42.19239731132022" lon="14.208152978819276"><ele>518.5</ele><time>2026-04-12T09:32:12.999Z</time></trkpt><trkpt lat="42.192517274100446" lon="14.208130923471794"><ele>515.25</ele><time>2026-04-12T09:32:13.999Z</time></trkpt><trkpt lat="42.19263617483478" lon="14.20810418872505"><ele>512.0</ele><time>2026-04-12T09:32:14.999Z</time></trkpt><trkpt lat="42.19274132484209" lon="14.208062396459942"><ele>512.0</ele><time>2026-04-12T09:32:15.999Z</time></trkpt><trkpt lat="42.19284864444438" lon="14.208034920107522"><ele>512.0</ele><time>2026-04-12T09:32:16.999Z</time></trkpt><trkpt lat="42.192959874908475" lon="14.208020217145611"><ele>512.0</ele><time>2026-04-12T09:32:17.999Z</time></trkpt><trkpt lat="42.19306919901623" lon="14.20801277248224"><ele>512.0</ele><time>2026-04-12T09:32:18.999Z</time></trkpt><trkpt lat="42.19318735483393" lon="14.20800684342172"><ele>512.0</ele><time>2026-04-12T09:32:19.999Z</time></trkpt><trkpt lat="42.19330545024268" lon="14.208006026773296"><ele>510.0</ele><time>2026-04-12T09:32:20.999Z</time></trkpt><trkpt lat="42.19343027653681" lon="14.208012108019979"><ele>508.0</ele><time>2026-04-12T09:32:21.999Z</time></trkpt><trkpt lat="42.193557345652906" lon="14.208028541984413"><ele>506.0</ele><time>2026-04-12T09:32:22.999Z</time></trkpt><trkpt lat="42.19369212942367" lon="14.20805316307875"><ele>504.0</ele><time>2026-04-12T09:32:23.999Z</time></trkpt><trkpt lat="42.19382684882857" lon="14.208084936195041"><ele>504.0</ele><time>2026-04-12T09:32:24.999Z</time></trkpt><trkpt lat="42.19397075166436" lon="14.208111098882192"><ele>504.0</ele><time>2026-04-12T09:32:25.999Z</time></trkpt><trkpt lat="42.19410717974384" lon="14.208148449316063"><ele>504.0</ele><time>2026-04-12T09:32:26.999Z</time></trkpt><trkpt lat="42.1942306511147" lon="14.208204682146926"><ele>504.0</ele><time>2026-04-12T09:32:27.999Z</time></trkpt><trkpt lat="42.19435013852629" lon="14.208275077981785"><ele>501.75</ele><time>2026-04-12T09:32:28.999Z</time></trkpt><trkpt lat="42.19445538355947" lon="14.208359551622532"><ele>499.5</ele><time>2026-04-12T09:32:30Z</time></trkpt><trkpt lat="42.19455497231957" lon="14.208480675936526"><ele>497.25</ele><time>2026-04-12T09:32:31Z</time></trkpt><trkpt lat="42.19466461705099" lon="14.20860229095581"><ele>495.0</ele><time>2026-04-12T09:32:32Z</time></trkpt><trkpt lat="42.194771318984245" lon="14.208724822442303"><ele>492.6</ele><time>2026-04-12T09:32:33Z</time></trkpt><trkpt lat="42.19486106828832" lon="14.208837499180266"><ele>490.2</ele><time>2026-04-12T09:32:34Z</time></trkpt><trkpt lat="42.19494060272491" lon="14.20894134052917"><ele>487.79999999999995</ele><time>2026-04-12T09:32:35Z</time></trkpt><trkpt lat="42.195006491683166" lon="14.20900613399848"><ele>485.4</ele><time>2026-04-12T09:32:36Z</time></trkpt><trkpt lat="42.19506756839098" lon="14.209036646202371"><ele>483.0</ele><time>2026-04-12T09:32:37Z</time></trkpt><trkpt lat="42.19513809070585" lon="14.209012743095203"><ele>482.25</ele><time>2026-04-12T09:32:38Z</time></trkpt><trkpt lat="42.19522975807608" lon="14.208949734709705"><ele>481.5</ele><time>2026-04-12T09:32:39Z</time></trkpt><trkpt lat="42.19534693655933" lon="14.20885359447201"><ele>480.75</ele><time>2026-04-12T09:32:40Z</time></trkpt><trkpt lat="42.19547668747126" lon="14.20875812504903"><ele>480.0</ele><time>2026-04-12T09:32:41Z</time></trkpt><trkpt lat="42.19560201014793" lon="14.208657433999273"><ele>478.8</ele><time>2026-04-12T09:32:42Z</time></trkpt><trkpt lat="42.19570124532201" lon="14.208553475259292"><ele>477.6</ele><time>2026-04-12T09:32:43Z</time></trkpt><trkpt lat="42.195785188664175" lon="14.208445168963229"><ele>476.4</ele><time>2026-04-12T09:32:44Z</time></trkpt><trkpt lat="42.1958744719758" lon="14.20835376209866"><ele>475.2</ele><time>2026-04-12T09:32:45Z</time></trkpt><trkpt lat="42.195958429940774" lon="14.208305857767188"><ele>474.0</ele><time>2026-04-12T09:32:46Z</time></trkpt><trkpt lat="42.196047266249984" lon="14.208306318718726"><ele>474.0</ele><time>2026-04-12T09:32:47Z</time></trkpt><trkpt lat="42.19614160477918" lon="14.208341454785485"><ele>474.0</ele><time>2026-04-12T09:32:48Z</time></trkpt><trkpt lat="42.19623612215305" lon="14.208360610243307"><ele>474.0</ele><time>2026-04-12T09:32:49Z</time></trkpt><trkpt lat="42.19634362316281" lon="14.20833924133235"><ele>474.0</ele><time>2026-04-12T09:32:50Z</time></trkpt><trkpt lat="42.19645724455204" lon="14.20829021284182"><ele>474.0</ele><time>2026-04-12T09:32:51Z</time></trkpt><trkpt lat="42.19658257224397" lon="14.20824097640736"><ele>470.75</ele><time>2026-04-12T09:32:52Z</time></trkpt><trkpt lat="42.19671063399441" lon="14.208214802201649"><ele>467.5</ele><time>2026-04-12T09:32:53Z</time></trkpt><trkpt lat="42.196834663789275" lon="14.208179477507692"><ele>464.25</ele><time>2026-04-12T09:32:54Z</time></trkpt><trkpt lat="42.19694949714518" lon="14.208124498170669"><ele>461.0</ele><time>2026-04-12T09:32:55Z</time></trkpt><trkpt lat="42.19705808403151" lon="14.208061468008985"><ele>459.4</ele><time>2026-04-12T09:32:56Z</time></trkpt><trkpt lat="42.19716019320868" lon="14.2080246105283"><ele>457.8</ele><time>2026-04-12T09:32:57Z</time></trkpt><trkpt lat="42.19727057689152" lon="14.20801905127072"><ele>456.19999999999993</ele><time>2026-04-12T09:32:58Z</time></trkpt><trkpt lat="42.19738421691728" lon="14.208044384533563"><ele>454.59999999999997</ele><time>2026-04-12T09:32:59Z</time></trkpt><trkpt lat="42.19748293819605" lon="14.208096448933842"><ele>453.0</ele><time>2026-04-12T09:33:00Z</time></trkpt><trkpt lat="42.19758192466276" lon="14.208176381948517"><ele>452.0</ele><time>2026-04-12T09:33:01Z</time></trkpt><trkpt lat="42.19768536044264" lon="14.208218624418715"><ele>451.0</ele><time>2026-04-12T09:33:02Z</time></trkpt><trkpt lat="42.19779167452537" lon="14.2082782936712"><ele>450.0</ele><time>2026-04-12T09:33:03Z</time></trkpt><trkpt lat="42.197923423404895" lon="14.208313151229289"><ele>449.0</ele><time>2026-04-12T09:33:04Z</time></trkpt><trkpt lat="42.19804592444104" lon="14.208346656596609"><ele>449.0</ele><time>2026-04-12T09:33:05Z</time></trkpt><trkpt lat="42.198157420838186" lon="14.20838270057044"><ele>449.0</ele><time>2026-04-12T09:33:06Z</time></trkpt><trkpt lat="42.198271098307345" lon="14.208415958146954"><ele>449.0</ele><time>2026-04-12T09:33:07Z</time></trkpt><trkpt lat="42.19839381565761" lon="14.208447012727554"><ele>449.0</ele><time>2026-04-12T09:33:08Z</time></trkpt><trkpt lat="42.19851777193956" lon="14.208461520848461"><ele>446.0</ele><time>2026-04-12T09:33:09Z</time></trkpt><trkpt lat="42.19864280803043" lon="14.208468481201516"><ele>443.0</ele><time>2026-04-12T09:33:10Z</time></trkpt><trkpt lat="42.198760626382274" lon="14.208476709456471"><ele>440.0</ele><time>2026-04-12T09:33:11Z</time></trkpt><trkpt lat="42.19887281005117" lon="14.208480512310262"><ele>437.0</ele><time>2026-04-12T09:33:12Z</time></trkpt><trkpt lat="42.19895997870983" lon="14.208495474403726"><ele>434.0</ele><time>2026-04-12T09:33:13Z</time></trkpt><trkpt lat="42.19907073464415" lon="14.208460888279756"><ele>431.6</ele><time>2026-04-12T09:33:15Z</time></trkpt><trkpt lat="42.19909219338213" lon="14.208377220203293"><ele>429.2</ele><time>2026-04-12T09:33:16Z</time></trkpt><trkpt lat="42.199104280945306" lon="14.208269480930538"><ele>426.8</ele><time>2026-04-12T09:33:17Z</time></trkpt><trkpt lat="42.19906025095396" lon="14.208138778150442"><ele>424.40000000000003</ele><time>2026-04-12T09:33:18Z</time></trkpt><trkpt lat="42.199015528265946" lon="14.207998182131059"><ele>422.0</ele><time>2026-04-12T09:33:19Z</time></trkpt><trkpt lat="42.19898532900518" lon="14.207859115094136"><ele>422.0</ele><time>2026-04-12T09:33:20Z</time></trkpt><trkpt lat="42.198978069172476" lon="14.207723118555103"><ele>422.0</ele><time>2026-04-12T09:33:21Z</time></trkpt><trkpt lat="42.19896552870438" lon="14.207587317409208"><ele>422.0</ele><time>2026-04-12T09:33:22Z</time></trkpt><trkpt lat="42.19903076931949" lon="14.207462674238432"><ele>422.0</ele><time>2026-04-12T09:33:23Z</time></trkpt><trkpt lat="42.19908539615597" lon="14.207307425431162"><ele>422.0</ele><time>2026-04-12T09:33:24Z</time></trkpt><trkpt lat="42.1991721565371" lon="14.207155741841225"><ele>421.66666666666663</ele><time>2026-04-12T09:33:25Z</time></trkpt><trkpt lat="42.19926307789401" lon="14.207033440288805"><ele>421.3333333333333</ele><time>2026-04-12T09:33:26Z</time></trkpt><trkpt lat="42.19934828357176" lon="14.206959537649686"><ele>421.0</ele><time>2026-04-12T09:33:27Z</time></trkpt><trkpt lat="42.19941623009832" lon="14.20692577641061"><ele>420.66666666666663</ele><time>2026-04-12T09:33:28Z</time></trkpt><trkpt lat="42.19947965468973" lon="14.206948658853142"><ele>420.3333333333333</ele><time>2026-04-12T09:33:29Z</time></trkpt><trkpt lat="42.19955795924312" lon="14.206970922060629"><ele>420.0</ele><time>2026-04-12T09:33:30Z</time></trkpt><trkpt lat="42.1996475957484" lon="14.206995228519174"><ele>420.0</ele><time>2026-04-12T09:33:31Z</time></trkpt><trkpt lat="42.19974108984264" lon="14.207019754388726"><ele>420.0</ele><time>2026-04-12T09:33:32Z</time></trkpt><trkpt lat="42.19983135312289" lon="14.20707488573311"><ele>420.0</ele><time>2026-04-12T09:33:33Z</time></trkpt><trkpt lat="42.199916862776824" lon="14.207161620723522"><ele>420.0</ele><time>2026-04-12T09:33:34Z</time></trkpt><trkpt lat="42.19999689678603" lon="14.207245863915178"><ele>420.0</ele><time>2026-04-12T09:33:34.999Z</time></trkpt><trkpt lat="42.20007224077862" lon="14.207288720041214"><ele>419.8333333333333</ele><time>2026-04-12T09:33:35.999Z</time></trkpt><trkpt lat="42.20014460466504" lon="14.207292149141322"><ele>419.66666666666663</ele><time>2026-04-12T09:33:36.999Z</time></trkpt><trkpt lat="42.20023543073109" lon="14.207274508253365"><ele>419.5</ele><time>2026-04-12T09:33:38.999Z</time></trkpt><trkpt lat="42.20033945840466" lon="14.207330420277192"><ele>419.3333333333333</ele><time>2026-04-12T09:33:40.999Z</time></trkpt><trkpt lat="42.20040212347379" lon="14.20735063073523"><ele>419.16666666666663</ele><time>2026-04-12T09:33:41.999Z</time></trkpt><trkpt lat="42.20047084426967" lon="14.207355830140274"><ele>419.0</ele><time>2026-04-12T09:33:42.999Z</time></trkpt><trkpt lat="42.2005797770736" lon="14.20738116782235"><ele>418.99999999999994</ele><time>2026-04-12T09:33:44.999Z</time></trkpt><trkpt lat="42.20065220922251" lon="14.207385396494551"><ele>419.0</ele><time>2026-04-12T09:33:46.999Z</time></trkpt><trkpt lat="42.20064019821487" lon="14.207483952115927"><ele>419.0</ele><time>2026-04-12T09:33:48.999Z</time></trkpt><trkpt lat="42.20066674969172" lon="14.207605249865104"><ele>419.0</ele><time>2026-04-12T09:33:50.999Z</time></trkpt><trkpt lat="42.20068852878279" lon="14.207732401761652"><ele>418.99999999999994</ele><time>2026-04-12T09:33:52.999Z</time></trkpt><trkpt lat="42.20064641049658" lon="14.207828303752967"><ele>419.0</ele><time>2026-04-12T09:33:54.999Z</time></trkpt><trkpt lat="42.20054466331034" lon="14.207832531189185"><ele>419.0</ele><time>2026-04-12T09:33:56.999Z</time></trkpt><trkpt lat="42.20050367925316" lon="14.207984608209857"><ele>419.0</ele><time>2026-04-12T09:33:58.999Z</time></trkpt><trkpt lat="42.20050460874966" lon="14.208088390257371"><ele>419.0</ele><time>2026-04-12T09:34:00.999Z</time></trkpt><trkpt lat="42.20052951775159" lon="14.20819012916136"><ele>419.0</ele><time>2026-04-12T09:34:02.999Z</time></trkpt><trkpt lat="42.20059146304522" lon="14.208335999168446"><ele>419.0</ele><time>2026-04-12T09:34:04.999Z</time></trkpt><trkpt lat="42.20059599097248" lon="14.208491870697179"><ele>418.49999999999994</ele><time>2026-04-12T09:34:06.999Z</time></trkpt><trkpt lat="42.20058065422537" lon="14.208595182376348"><ele>418.0</ele><time>2026-04-12T09:34:07.999Z</time></trkpt><trkpt lat="42.200589782331086" lon="14.208698779967978"><ele>417.5</ele><time>2026-04-12T09:34:08.999Z</time></trkpt><trkpt lat="42.20060047086452" lon="14.208811284946911"><ele>417.0</ele><time>2026-04-12T09:34:09.999Z</time></trkpt><trkpt lat="42.20061307723567" lon="14.208924721160443"><ele>416.49999999999994</ele><time>2026-04-12T09:34:10.999Z</time></trkpt><trkpt lat="42.20061850354736" lon="14.209033705143359"><ele>416.0</ele><time>2026-04-12T09:34:11.999Z</time></trkpt><trkpt lat="42.20066815147781" lon="14.209187623086988"><ele>416.0</ele><time>2026-04-12T09:34:13.999Z</time></trkpt><trkpt lat="42.200689498675686" lon="14.209339405647102"><ele>416.0</ele><time>2026-04-12T09:34:15.999Z</time></trkpt><trkpt lat="42.200719527482015" lon="14.209475281474546"><ele>416.0</ele><time>2026-04-12T09:34:17.999Z</time></trkpt><trkpt lat="42.20081921091665" lon="14.209545487107714"><ele>416.0</ele><time>2026-04-12T09:34:19.999Z</time></trkpt><trkpt lat="42.20100263595022" lon="14.209477564603466"><ele>416.0</ele><time>2026-04-12T09:34:21.999Z</time></trkpt><trkpt lat="42.20111822012668" lon="14.209434710116671"><ele>416.0</ele><time>2026-04-12T09:34:22.999Z</time></trkpt><trkpt lat="42.201232774631784" lon="14.209422447483444"><ele>416.0</ele><time>2026-04-12T09:34:23.999Z</time></trkpt><trkpt lat="42.2013364582396" lon="14.209468979053936"><ele>416.0</ele><time>2026-04-12T09:34:24.999Z</time></trkpt><trkpt lat="42.201435139098216" lon="14.209493382365167"><ele>416.0</ele><time>2026-04-12T09:34:25.999Z</time></trkpt><trkpt lat="42.201524769331215" lon="14.20951319880427"><ele>415.5</ele><time>2026-04-12T09:34:26.999Z</time></trkpt><trkpt lat="42.20166472809507" lon="14.209466418763055"><ele>415.0</ele><time>2026-04-12T09:34:27.999Z</time></trkpt><trkpt lat="42.20178556871998" lon="14.209460072021146"><ele>414.5</ele><time>2026-04-12T09:34:28.999Z</time></trkpt><trkpt lat="42.20189002568848" lon="14.209432257865894"><ele>414.0</ele><time>2026-04-12T09:34:29.999Z</time></trkpt><trkpt lat="42.20197859220413" lon="14.209398485692374"><ele>414.0</ele><time>2026-04-12T09:34:30.999Z</time></trkpt><trkpt lat="42.20205098813395" lon="14.209390712123442"><ele>414.0</ele><time>2026-04-12T09:34:31.999Z</time></trkpt><trkpt lat="42.202123324555195" lon="14.209395436478438"><ele>414.0</ele><time>2026-04-12T09:34:32.999Z</time></trkpt><trkpt lat="42.202200607510285" lon="14.209407321557515"><ele>414.0</ele><time>2026-04-12T09:34:33.999Z</time></trkpt><trkpt lat="42.20228486623097" lon="14.209433216014169"><ele>414.0</ele><time>2026-04-12T09:34:34.999Z</time></trkpt><trkpt lat="42.20238160681297" lon="14.209459339532906"><ele>414.0</ele><time>2026-04-12T09:34:36Z</time></trkpt><trkpt lat="42.202465826022035" lon="14.209494511463156"><ele>413.5</ele><time>2026-04-12T09:34:37Z</time></trkpt><trkpt lat="42.20254557525167" lon="14.209526451103876"><ele>413.0</ele><time>2026-04-12T09:34:38Z</time></trkpt><trkpt lat="42.202612377658895" lon="14.209546972576637"><ele>412.5</ele><time>2026-04-12T09:34:39Z</time></trkpt><trkpt lat="42.2027317581348" lon="14.209569522717123"><ele>412.0</ele><time>2026-04-12T09:34:41Z</time></trkpt><trkpt lat="42.20279573556073" lon="14.209568154505657"><ele>411.5</ele><time>2026-04-12T09:34:42Z</time></trkpt><trkpt lat="42.20286277045248" lon="14.209556243754575"><ele>411.0</ele><time>2026-04-12T09:34:43Z</time></trkpt><trkpt lat="42.202939573939666" lon="14.20954521423705"><ele>411.0</ele><time>2026-04-12T09:34:44Z</time></trkpt><trkpt lat="42.203013451322754" lon="14.209534604908397"><ele>411.0</ele><time>2026-04-12T09:34:45Z</time></trkpt><trkpt lat="42.2031177778545" lon="14.209791557967451"><ele>411.0</ele><time>2026-04-12T09:34:46Z</time></trkpt><trkpt lat="42.203197653666" lon="14.209807770514363"><ele>411.0</ele><time>2026-04-12T09:34:47Z</time></trkpt><trkpt lat="42.203281952148764" lon="14.20981646520584"><ele>408.4</ele><time>2026-04-12T09:34:48Z</time></trkpt><trkpt lat="42.2033776919852" lon="14.209832263135885"><ele>405.8</ele><time>2026-04-12T09:34:49Z</time></trkpt><trkpt lat="42.203472099105106" lon="14.209845595259102"><ele>403.2</ele><time>2026-04-12T09:34:50Z</time></trkpt><trkpt lat="42.203568942676974" lon="14.209851100044311"><ele>400.59999999999997</ele><time>2026-04-12T09:34:51Z</time></trkpt><trkpt lat="42.20364902371901" lon="14.209858458336521"><ele>398.0</ele><time>2026-04-12T09:34:52Z</time></trkpt><trkpt lat="42.20376564750248" lon="14.209854015190945"><ele>399.16666666666663</ele><time>2026-04-12T09:34:54Z</time></trkpt><trkpt lat="42.203835129560524" lon="14.209816507783355"><ele>400.3333333333333</ele><time>2026-04-12T09:34:55Z</time></trkpt><trkpt lat="42.20390052147288" lon="14.209750189682945"><ele>401.5</ele><time>2026-04-12T09:34:56Z</time></trkpt><trkpt lat="42.203952154314216" lon="14.209679762022054"><ele>402.66666666666663</ele><time>2026-04-12T09:34:57Z</time></trkpt><trkpt lat="42.204011684506945" lon="14.20960883798688"><ele>403.8333333333333</ele><time>2026-04-12T09:34:58Z</time></trkpt><trkpt lat="42.2040814582668" lon="14.209552059053362"><ele>405.0</ele><time>2026-04-12T09:34:59Z</time></trkpt><trkpt lat="42.20415274238895" lon="14.209532630199963"><ele>405.0</ele><time>2026-04-12T09:35:00Z</time></trkpt><trkpt lat="42.20422071029955" lon="14.209544568726644"><ele>405.0</ele><time>2026-04-12T09:35:01Z</time></trkpt><trkpt lat="42.2042841653374" lon="14.209581445893926"><ele>405.0</ele><time>2026-04-12T09:35:02Z</time></trkpt><trkpt lat="42.20434805553441" lon="14.209623679683643"><ele>405.0</ele><time>2026-04-12T09:35:03Z</time></trkpt><trkpt lat="42.2044196428827" lon="14.20967255447409"><ele>405.0</ele><time>2026-04-12T09:35:04Z</time></trkpt><trkpt lat="42.20449534504722" lon="14.209739702500942"><ele>405.0</ele><time>2026-04-12T09:35:05Z</time></trkpt><trkpt lat="42.20456311197482" lon="14.209821590840763"><ele>403.6</ele><time>2026-04-12T09:35:06Z</time></trkpt><trkpt lat="42.2046354995881" lon="14.20990564784186"><ele>402.2</ele><time>2026-04-12T09:35:07Z</time></trkpt><trkpt lat="42.20469570696312" lon="14.209984617563677"><ele>400.79999999999995</ele><time>2026-04-12T09:35:08Z</time></trkpt><trkpt lat="42.20477418127953" lon="14.21010581142006"><ele>399.4</ele><time>2026-04-12T09:35:10Z</time></trkpt><trkpt lat="42.204875355737215" lon="14.21021749791059"><ele>398.0</ele><time>2026-04-12T09:35:12Z</time></trkpt><trkpt lat="42.20493116398929" lon="14.210292611581275"><ele>398.0</ele><time>2026-04-12T09:35:13Z</time></trkpt><trkpt lat="42.20500829573461" lon="14.210371461170206"><ele>398.0</ele><time>2026-04-12T09:35:14Z</time></trkpt><trkpt lat="42.20508630380646" lon="14.210423374094953"><ele>398.0</ele><time>2026-04-12T09:35:15Z</time></trkpt><trkpt lat="42.2051586524863" lon="14.210453834717867"><ele>398.0</ele><time>2026-04-12T09:35:16Z</time></trkpt><trkpt lat="42.20525736587353" lon="14.210451627446803"><ele>398.0</ele><time>2026-04-12T09:35:17Z</time></trkpt><trkpt lat="42.20537965956998" lon="14.21042728570311"><ele>398.0</ele><time>2026-04-12T09:35:18Z</time></trkpt><trkpt lat="42.205482442961944" lon="14.210437249756653"><ele>398.0</ele><time>2026-04-12T09:35:19Z</time></trkpt><trkpt lat="42.20555383938598" lon="14.210486772936102"><ele>398.0</ele><time>2026-04-12T09:35:20Z</time></trkpt><trkpt lat="42.205680996762425" lon="14.21060299059724"><ele>398.0</ele><time>2026-04-12T09:35:22Z</time></trkpt><trkpt lat="42.20577133754292" lon="14.210651151968534"><ele>398.0</ele><time>2026-04-12T09:35:23Z</time></trkpt><trkpt lat="42.20585695978601" lon="14.21072105532715"><ele>394.79999999999995</ele><time>2026-04-12T09:35:24Z</time></trkpt><trkpt lat="42.20594750534258" lon="14.210819231028276"><ele>391.6</ele><time>2026-04-12T09:35:25Z</time></trkpt><trkpt lat="42.20601373058012" lon="14.210886431722644"><ele>388.4</ele><time>2026-04-12T09:35:26Z</time></trkpt><trkpt lat="42.206144806136464" lon="14.210899951437012"><ele>385.20000000000005</ele><time>2026-04-12T09:35:28Z</time></trkpt><trkpt lat="42.20622726528785" lon="14.210881866281731"><ele>382.0</ele><time>2026-04-12T09:35:29Z</time></trkpt><trkpt lat="42.20631208054634" lon="14.210769388820122"><ele>382.0</ele><time>2026-04-12T09:35:31Z</time></trkpt><trkpt lat="42.2063484968098" lon="14.210683603333505"><ele>382.0</ele><time>2026-04-12T09:35:32Z</time></trkpt><trkpt lat="42.20640570682759" lon="14.210596275994325"><ele>382.0</ele><time>2026-04-12T09:35:33Z</time></trkpt><trkpt lat="42.206473751086264" lon="14.21055062179626"><ele>382.0</ele><time>2026-04-12T09:35:34Z</time></trkpt><trkpt lat="42.20655332006503" lon="14.210530646620036"><ele>382.0</ele><time>2026-04-12T09:35:35Z</time></trkpt><trkpt lat="42.206639323939974" lon="14.210521276568617"><ele>382.0</ele><time>2026-04-12T09:35:36Z</time></trkpt><trkpt lat="42.206722805088816" lon="14.210546770496364"><ele>381.8</ele><time>2026-04-12T09:35:37Z</time></trkpt><trkpt lat="42.206787508196314" lon="14.210600642221364"><ele>381.6</ele><time>2026-04-12T09:35:38Z</time></trkpt><trkpt lat="42.20684542785472" lon="14.210667192872506"><ele>381.40000000000003</ele><time>2026-04-12T09:35:39Z</time></trkpt><trkpt lat="42.206928168769196" lon="14.210764745063193"><ele>381.20000000000005</ele><time>2026-04-12T09:35:39.999Z</time></trkpt><trkpt lat="42.207019423641434" lon="14.210865679608169"><ele>381.0</ele><time>2026-04-12T09:35:40.999Z</time></trkpt><trkpt lat="42.207095002451496" lon="14.21096932541088"><ele>381.0</ele><time>2026-04-12T09:35:41.999Z</time></trkpt><trkpt lat="42.20715566192652" lon="14.211068454357914"><ele>381.0</ele><time>2026-04-12T09:35:42.999Z</time></trkpt><trkpt lat="42.20722535060794" lon="14.211117678008364"><ele>381.0</ele><time>2026-04-12T09:35:43.999Z</time></trkpt><trkpt lat="42.207324793723494" lon="14.211120497970839"><ele>381.0</ele><time>2026-04-12T09:35:45.999Z</time></trkpt><trkpt lat="42.20739786857943" lon="14.211127471555617"><ele>381.0</ele><time>2026-04-12T09:35:46.999Z</time></trkpt><trkpt lat="42.2074830524202" lon="14.211172600821099"><ele>381.0</ele><time>2026-04-12T09:35:47.999Z</time></trkpt><trkpt lat="42.20755672517974" lon="14.211211247377422"><ele>381.0</ele><time>2026-04-12T09:35:48.999Z</time></trkpt><trkpt lat="42.20763250759165" lon="14.211214748914632"><ele>381.0</ele><time>2026-04-12T09:35:49.999Z</time></trkpt><trkpt lat="42.20775698130227" lon="14.211218203286979"><ele>381.0</ele><time>2026-04-12T09:35:51.999Z</time></trkpt><trkpt lat="42.207832330762294" lon="14.211267731657575"><ele>381.0</ele><time>2026-04-12T09:35:52.999Z</time></trkpt><trkpt lat="42.207904614022624" lon="14.211311381857305"><ele>381.0</ele><time>2026-04-12T09:35:53.999Z</time></trkpt><trkpt lat="42.20798004712564" lon="14.21135235670135"><ele>381.0</ele><time>2026-04-12T09:35:54.999Z</time></trkpt><trkpt lat="42.208051293418784" lon="14.211389910397855"><ele>381.0</ele><time>2026-04-12T09:35:55.999Z</time></trkpt><trkpt lat="42.208133342555584" lon="14.211434696669784"><ele>381.0</ele><time>2026-04-12T09:35:56.999Z</time></trkpt><trkpt lat="42.208244742628814" lon="14.211500305753201"><ele>381.0</ele><time>2026-04-12T09:35:57.999Z</time></trkpt><trkpt lat="42.20834060603307" lon="14.211544960649018"><ele>381.0</ele><time>2026-04-12T09:35:58.999Z</time></trkpt><trkpt lat="42.20841455242475" lon="14.21155836539857"><ele>381.0</ele><time>2026-04-12T09:35:59.999Z</time></trkpt><trkpt lat="42.208480699417564" lon="14.211550773884811"><ele>379.3333333333333</ele><time>2026-04-12T09:36:00.999Z</time></trkpt><trkpt lat="42.208560575286015" lon="14.21152834429748"><ele>377.6666666666667</ele><time>2026-04-12T09:36:01.999Z</time></trkpt><trkpt lat="42.208646727972756" lon="14.21152264012796"><ele>376.0</ele><time>2026-04-12T09:36:02.999Z</time></trkpt><trkpt lat="42.20873037410715" lon="14.211561236282185"><ele>374.33333333333337</ele><time>2026-04-12T09:36:03.999Z</time></trkpt><trkpt lat="42.208814519016826" lon="14.211634153967507"><ele>372.6666666666667</ele><time>2026-04-12T09:36:04.999Z</time></trkpt><trkpt lat="42.208878861075135" lon="14.21171140270344"><ele>371.0</ele><time>2026-04-12T09:36:05.999Z</time></trkpt><trkpt lat="42.208904468623174" lon="14.211807749161995"><ele>371.0</ele><time>2026-04-12T09:36:06.999Z</time></trkpt><trkpt lat="42.20893244217043" lon="14.21188692458913"><ele>371.0</ele><time>2026-04-12T09:36:07.999Z</time></trkpt><trkpt lat="42.20899525973688" lon="14.211938891900685"><ele>371.0</ele><time>2026-04-12T09:36:08.999Z</time></trkpt><trkpt lat="42.20908237874348" lon="14.212001674569816"><ele>371.0</ele><time>2026-04-12T09:36:09.999Z</time></trkpt><trkpt lat="42.20918865805533" lon="14.212069113377492"><ele>371.0</ele><time>2026-04-12T09:36:10.999Z</time></trkpt><trkpt lat="42.20930226291817" lon="14.212106975012858"><ele>370.8</ele><time>2026-04-12T09:36:11.999Z</time></trkpt><trkpt lat="42.20942095501266" lon="14.212154415392542"><ele>370.6</ele><time>2026-04-12T09:36:12.999Z</time></trkpt><trkpt lat="42.2095322228669" lon="14.21219587213277"><ele>370.4</ele><time>2026-04-12T09:36:13.999Z</time></trkpt><trkpt lat="42.20961836094634" lon="14.212230776306175"><ele>370.2</ele><time>2026-04-12T09:36:14.999Z</time></trkpt><trkpt lat="42.209697154596036" lon="14.212263802745557"><ele>370.0</ele><time>2026-04-12T09:36:15.999Z</time></trkpt><trkpt lat="42.20976269988471" lon="14.212287352112579"><ele>369.4</ele><time>2026-04-12T09:36:16.999Z</time></trkpt><trkpt lat="42.209864676955235" lon="14.212234108602392"><ele>368.8</ele><time>2026-04-12T09:36:18.999Z</time></trkpt><trkpt lat="42.20991243611706" lon="14.212300904588847"><ele>368.20000000000005</ele><time>2026-04-12T09:36:21.999Z</time></trkpt><trkpt lat="42.209908059120075" lon="14.212408227463447"><ele>367.6</ele><time>2026-04-12T09:36:22.999Z</time></trkpt><trkpt lat="42.20987271293009" lon="14.212532575631776"><ele>367.0</ele><time>2026-04-12T09:36:23.999Z</time></trkpt><trkpt lat="42.2098254246594" lon="14.212651525337913"><ele>366.8</ele><time>2026-04-12T09:36:24.999Z</time></trkpt><trkpt lat="42.20975862204492" lon="14.212756239426108"><ele>366.6</ele><time>2026-04-12T09:36:25.999Z</time></trkpt><trkpt lat="42.209675130944596" lon="14.212818905900557"><ele>366.40000000000003</ele><time>2026-04-12T09:36:26.999Z</time></trkpt><trkpt lat="42.20959390372768" lon="14.212864620275349"><ele>366.20000000000005</ele><time>2026-04-12T09:36:27.999Z</time></trkpt><trkpt lat="42.20952054702595" lon="14.213024014188871"><ele>366.0</ele><time>2026-04-12T09:36:29.999Z</time></trkpt><trkpt lat="42.20954593969624" lon="14.213171246697605"><ele>365.0</ele><time>2026-04-12T09:36:30.999Z</time></trkpt><trkpt lat="42.20960199889571" lon="14.213317289837535"><ele>364.0</ele><time>2026-04-12T09:36:31.999Z</time></trkpt><trkpt lat="42.20966745290205" lon="14.213450890566339"><ele>363.0</ele><time>2026-04-12T09:36:32.999Z</time></trkpt><trkpt lat="42.20973202785687" lon="14.213609742931649"><ele>362.0</ele><time>2026-04-12T09:36:33.999Z</time></trkpt><trkpt lat="42.20979021590221" lon="14.21379275617387"><ele>363.0</ele><time>2026-04-12T09:36:34.999Z</time></trkpt><trkpt lat="42.20982147366124" lon="14.214001291486174"><ele>364.0</ele><time>2026-04-12T09:36:35.999Z</time></trkpt><trkpt lat="42.20985526486447" lon="14.214175664034155"><ele>365.0</ele><time>2026-04-12T09:36:36.999Z</time></trkpt><trkpt lat="42.209935472804645" lon="14.214292114502262"><ele>366.0</ele><time>2026-04-12T09:36:37.999Z</time></trkpt><trkpt lat="42.2100315210811" lon="14.214359811209915"><ele>366.25</ele><time>2026-04-12T09:36:38.999Z</time></trkpt><trkpt lat="42.21014390958885" lon="14.214431037292035"><ele>366.5</ele><time>2026-04-12T09:36:39.998Z</time></trkpt><trkpt lat="42.210225078636135" lon="14.214540349706274"><ele>366.75</ele><time>2026-04-12T09:36:41Z</time></trkpt><trkpt lat="42.210240950824314" lon="14.21467232508284"><ele>367.0</ele><time>2026-04-12T09:36:42Z</time></trkpt><trkpt lat="42.21021681501706" lon="14.21482125930387"><ele>367.0</ele><time>2026-04-12T09:36:43Z</time></trkpt><trkpt lat="42.21019025680228" lon="14.21495856781227"><ele>367.0</ele><time>2026-04-12T09:36:44Z</time></trkpt><trkpt lat="42.21006147643001" lon="14.214931041961828"><ele>367.0</ele><time>2026-04-12T09:36:47Z</time></trkpt><trkpt lat="42.2099738446179" lon="14.214960034724363"><ele>367.0</ele><time>2026-04-12T09:36:48Z</time></trkpt><trkpt lat="42.20988449034525" lon="14.214960545492906"><ele>367.0</ele><time>2026-04-12T09:36:49Z</time></trkpt><trkpt lat="42.20979350479746" lon="14.21503429595751"><ele>369.75</ele><time>2026-04-12T09:36:50Z</time></trkpt><trkpt lat="42.209656625807256" lon="14.214941169700598"><ele>372.5</ele><time>2026-04-12T09:36:51Z</time></trkpt><trkpt lat="42.20953795054524" lon="14.214913693786748"><ele>375.25</ele><time>2026-04-12T09:36:52Z</time></trkpt><trkpt lat="42.20941966000979" lon="14.214899636682194"><ele>378.0</ele><time>2026-04-12T09:36:53Z</time></trkpt><trkpt lat="42.209306963773386" lon="14.21489801601257"><ele>378.0</ele><time>2026-04-12T09:36:54Z</time></trkpt><trkpt lat="42.20917958353485" lon="14.214891648581501"><ele>378.0</ele><time>2026-04-12T09:36:55Z</time></trkpt><trkpt lat="42.20905161887735" lon="14.214869769892767"><ele>378.0</ele><time>2026-04-12T09:36:56Z</time></trkpt><trkpt lat="42.20893066050603" lon="14.214812933291606"><ele>378.0</ele><time>2026-04-12T09:36:57Z</time></trkpt><trkpt lat="42.208864308867675" lon="14.214758434940634"><ele>378.85714285714283</ele><time>2026-04-12T09:36:58Z</time></trkpt><trkpt lat="42.2088186238628" lon="14.214685387161982"><ele>379.7142857142857</ele><time>2026-04-12T09:36:59Z</time></trkpt><trkpt lat="42.208806703019214" lon="14.214595522408525"><ele>380.57142857142856</ele><time>2026-04-12T09:37:00Z</time></trkpt><trkpt lat="42.20879854248613" lon="14.214506230615003"><ele>381.42857142857144</ele><time>2026-04-12T09:37:01Z</time></trkpt><trkpt lat="42.20879818055322" lon="14.214414431581698"><ele>382.2857142857143</ele><time>2026-04-12T09:37:02Z</time></trkpt><trkpt lat="42.208793393813025" lon="14.21430013486648"><ele>383.1428571428571</ele><time>2026-04-12T09:37:03Z</time></trkpt><trkpt lat="42.20878232154812" lon="14.214178501553276"><ele>384.0</ele><time>2026-04-12T09:37:04Z</time></trkpt><trkpt lat="42.20878810196352" lon="14.214077818251248"><ele>384.0</ele><time>2026-04-12T09:37:05Z</time></trkpt><trkpt lat="42.20879168598832" lon="14.213992243926354"><ele>384.0</ele><time>2026-04-12T09:37:06Z</time></trkpt><trkpt lat="42.20876964009602" lon="14.213910063402663"><ele>384.0</ele><time>2026-04-12T09:37:07Z</time></trkpt><trkpt lat="42.20871698222424" lon="14.213850515333053"><ele>384.0</ele><time>2026-04-12T09:37:08Z</time></trkpt><trkpt lat="42.208649058671426" lon="14.21377847420962"><ele>384.0</ele><time>2026-04-12T09:37:09Z</time></trkpt><trkpt lat="42.208578332847885" lon="14.213682973971238"><ele>384.0</ele><time>2026-04-12T09:37:10Z</time></trkpt><trkpt lat="42.208501199280576" lon="14.213626401689503"><ele>382.79999999999995</ele><time>2026-04-12T09:37:11Z</time></trkpt><trkpt lat="42.20842582127197" lon="14.213547783186808"><ele>381.59999999999997</ele><time>2026-04-12T09:37:12Z</time></trkpt><trkpt lat="42.208356729334824" lon="14.213465310392715"><ele>380.4</ele><time>2026-04-12T09:37:13Z</time></trkpt><trkpt lat="42.208279099133975" lon="14.213391386441046"><ele>379.2</ele><time>2026-04-12T09:37:14Z</time></trkpt><trkpt lat="42.208200237572434" lon="14.21333421731698"><ele>378.0</ele><time>2026-04-12T09:37:15Z</time></trkpt><trkpt lat="42.20812048532468" lon="14.213300464551985"><ele>377.0</ele><time>2026-04-12T09:37:16Z</time></trkpt><trkpt lat="42.20804243082174" lon="14.21326639687081"><ele>376.0</ele><time>2026-04-12T09:37:17Z</time></trkpt><trkpt lat="42.207942371023286" lon="14.21323698469205"><ele>375.0</ele><time>2026-04-12T09:37:18Z</time></trkpt><trkpt lat="42.20785082190563" lon="14.213222252474312"><ele>374.0</ele><time>2026-04-12T09:37:19Z</time></trkpt><trkpt lat="42.20777262346941" lon="14.213201152739371"><ele>373.0</ele><time>2026-04-12T09:37:20Z</time></trkpt><trkpt lat="42.20769009278684" lon="14.213173266091902"><ele>372.0</ele><time>2026-04-12T09:37:21Z</time></trkpt><trkpt lat="42.207603592844706" lon="14.21313069781229"><ele>372.0</ele><time>2026-04-12T09:37:22Z</time></trkpt><trkpt lat="42.207513452360956" lon="14.213096649417253"><ele>372.0</ele><time>2026-04-12T09:37:23Z</time></trkpt><trkpt lat="42.2074201127536" lon="14.213093801626236"><ele>372.0</ele><time>2026-04-12T09:37:24Z</time></trkpt><trkpt lat="42.20731251596362" lon="14.213135438793197"><ele>372.0</ele><time>2026-04-12T09:37:25Z</time></trkpt><trkpt lat="42.20722416600069" lon="14.213185903944472"><ele>372.0</ele><time>2026-04-12T09:37:26Z</time></trkpt><trkpt lat="42.207159512677855" lon="14.213212671947353"><ele>377.0</ele><time>2026-04-12T09:37:27Z</time></trkpt><trkpt lat="42.207090855638036" lon="14.213232066817255"><ele>382.0</ele><time>2026-04-12T09:37:28Z</time></trkpt><trkpt lat="42.207019523783345" lon="14.21321987847839"><ele>387.0</ele><time>2026-04-12T09:37:29Z</time></trkpt><trkpt lat="42.20693368668409" lon="14.213230234122303"><ele>392.0</ele><time>2026-04-12T09:37:30Z</time></trkpt><trkpt lat="42.20683559815526" lon="14.213224900120625"><ele>397.0</ele><time>2026-04-12T09:37:31Z</time></trkpt><trkpt lat="42.206735998031945" lon="14.213245969710826"><ele>402.0</ele><time>2026-04-12T09:37:32Z</time></trkpt><trkpt lat="42.206639598534366" lon="14.213274708251939"><ele>402.0</ele><time>2026-04-12T09:37:33Z</time></trkpt><trkpt lat="42.20656524842002" lon="14.213297746198752"><ele>402.0</ele><time>2026-04-12T09:37:34Z</time></trkpt><trkpt lat="42.206475557832476" lon="14.213321703542634"><ele>402.0</ele><time>2026-04-12T09:37:35Z</time></trkpt><trkpt lat="42.20637589461543" lon="14.213304017433108"><ele>402.0</ele><time>2026-04-12T09:37:36Z</time></trkpt><trkpt lat="42.20625933992451" lon="14.213276728866349"><ele>402.0</ele><time>2026-04-12T09:37:37Z</time></trkpt><trkpt lat="42.20613549446795" lon="14.2133342866307"><ele>404.0</ele><time>2026-04-12T09:37:38Z</time></trkpt><trkpt lat="42.20604402428933" lon="14.213358762668587"><ele>406.0</ele><time>2026-04-12T09:37:39Z</time></trkpt><trkpt lat="42.20592919654553" lon="14.213390705580439"><ele>408.0</ele><time>2026-04-12T09:37:40Z</time></trkpt><trkpt lat="42.205796642020786" lon="14.213382708614033"><ele>410.0</ele><time>2026-04-12T09:37:41Z</time></trkpt><trkpt lat="42.20568673078445" lon="14.213378671824517"><ele>411.25</ele><time>2026-04-12T09:37:42Z</time></trkpt><trkpt lat="42.205568941005396" lon="14.21335014744564"><ele>412.5</ele><time>2026-04-12T09:37:42.999Z</time></trkpt><trkpt lat="42.205459832198784" lon="14.213330944202532"><ele>413.75</ele><time>2026-04-12T09:37:43.999Z</time></trkpt><trkpt lat="42.205344095462515" lon="14.213329754412076"><ele>415.0</ele><time>2026-04-12T09:37:44.999Z</time></trkpt><trkpt lat="42.20521370921994" lon="14.213361529947987"><ele>415.0</ele><time>2026-04-12T09:37:45.999Z</time></trkpt><trkpt lat="42.205114326560626" lon="14.2133860462558"><ele>415.0</ele><time>2026-04-12T09:37:46.999Z</time></trkpt><trkpt lat="42.20500259732069" lon="14.213396814353167"><ele>415.0</ele><time>2026-04-12T09:37:47.999Z</time></trkpt><trkpt lat="42.20490202705689" lon="14.213379937447487"><ele>415.0</ele><time>2026-04-12T09:37:48.999Z</time></trkpt><trkpt lat="42.204828870051536" lon="14.213392525889276"><ele>415.0</ele><time>2026-04-12T09:37:49.999Z</time></trkpt><trkpt lat="42.20476186471648" lon="14.213415219350402"><ele>416.1666666666667</ele><time>2026-04-12T09:37:50.999Z</time></trkpt><trkpt lat="42.20468422050503" lon="14.213450748006725"><ele>417.33333333333337</ele><time>2026-04-12T09:37:51.999Z</time></trkpt><trkpt lat="42.20459910905039" lon="14.213504834545232"><ele>418.5</ele><time>2026-04-12T09:37:52.999Z</time></trkpt><trkpt lat="42.204521436056034" lon="14.213538667987304"><ele>419.66666666666663</ele><time>2026-04-12T09:37:53.999Z</time></trkpt><trkpt lat="42.20443959032727" lon="14.213558309344561"><ele>420.8333333333333</ele><time>2026-04-12T09:37:54.999Z</time></trkpt><trkpt lat="42.20435956946302" lon="14.21355906351362"><ele>422.0</ele><time>2026-04-12T09:37:55.999Z</time></trkpt><trkpt lat="42.20428711068382" lon="14.213567657597832"><ele>421.99999999999994</ele><time>2026-04-12T09:37:56.999Z</time></trkpt><trkpt lat="42.20421506766499" lon="14.213588530630458"><ele>422.0</ele><time>2026-04-12T09:37:57.999Z</time></trkpt><trkpt lat="42.20415060231709" lon="14.213579753270526"><ele>422.0</ele><time>2026-04-12T09:37:58.999Z</time></trkpt><trkpt lat="42.20406670276591" lon="14.213578549487341"><ele>422.0</ele><time>2026-04-12T09:37:59.999Z</time></trkpt><trkpt lat="42.20398438477466" lon="14.213567266484977"><ele>421.99999999999994</ele><time>2026-04-12T09:38:00.999Z</time></trkpt><trkpt lat="42.20387251994473" lon="14.213561338404498"><ele>422.0</ele><time>2026-04-12T09:38:01.999Z</time></trkpt><trkpt lat="42.203757305252516" lon="14.213563117249912"><ele>424.25</ele><time>2026-04-12T09:38:02.999Z</time></trkpt><trkpt lat="42.20363259163779" lon="14.213592611384264"><ele>426.5</ele><time>2026-04-12T09:38:03.999Z</time></trkpt><trkpt lat="42.2035206158688" lon="14.21361622039211"><ele>428.75</ele><time>2026-04-12T09:38:04.999Z</time></trkpt><trkpt lat="42.20340549087779" lon="14.213619998022324"><ele>431.0</ele><time>2026-04-12T09:38:05.999Z</time></trkpt><trkpt lat="42.203280606609" lon="14.213583747173187"><ele>433.25</ele><time>2026-04-12T09:38:06.999Z</time></trkpt><trkpt lat="42.203151522614576" lon="14.213555692134516"><ele>435.5</ele><time>2026-04-12T09:38:07.999Z</time></trkpt><trkpt lat="42.203040091377474" lon="14.21353884281427"><ele>437.75</ele><time>2026-04-12T09:38:08.999Z</time></trkpt><trkpt lat="42.20292072786642" lon="14.213540774493692"><ele>440.0</ele><time>2026-04-12T09:38:09.999Z</time></trkpt><trkpt lat="42.202806795920374" lon="14.213548123623315"><ele>440.0</ele><time>2026-04-12T09:38:10.999Z</time></trkpt><trkpt lat="42.20269010672756" lon="14.21355084151399"><ele>440.0</ele><time>2026-04-12T09:38:11.999Z</time></trkpt><trkpt lat="42.20255650303666" lon="14.213522334124146"><ele>440.0</ele><time>2026-04-12T09:38:12.999Z</time></trkpt><trkpt lat="42.2024379690697" lon="14.213493090943057"><ele>440.0</ele><time>2026-04-12T09:38:13.999Z</time></trkpt><trkpt lat="42.20231812909021" lon="14.213471372742454"><ele>442.8</ele><time>2026-04-12T09:38:14.999Z</time></trkpt><trkpt lat="42.2022011283063" lon="14.213469472135504"><ele>445.6</ele><time>2026-04-12T09:38:15.999Z</time></trkpt><trkpt lat="42.20211255346756" lon="14.213477043139394"><ele>448.4</ele><time>2026-04-12T09:38:16.999Z</time></trkpt><trkpt lat="42.201981861586134" lon="14.213511140908142"><ele>451.2</ele><time>2026-04-12T09:38:18.999Z</time></trkpt><trkpt lat="42.201901980935276" lon="14.21354320517123"><ele>454.0</ele><time>2026-04-12T09:38:19.999Z</time></trkpt><trkpt lat="42.20181736215977" lon="14.213575708967255"><ele>454.0</ele><time>2026-04-12T09:38:20.999Z</time></trkpt><trkpt lat="42.20173248398417" lon="14.213603099289886"><ele>454.0</ele><time>2026-04-12T09:38:21.999Z</time></trkpt><trkpt lat="42.20163233159466" lon="14.213624464937059"><ele>454.0</ele><time>2026-04-12T09:38:22.999Z</time></trkpt><trkpt lat="42.20153097796538" lon="14.213620254863628"><ele>454.0</ele><time>2026-04-12T09:38:23.999Z</time></trkpt><trkpt lat="42.20142547378851" lon="14.213594419691065"><ele>454.0</ele><time>2026-04-12T09:38:24.999Z</time></trkpt><trkpt lat="42.20131553710596" lon="14.213600360993578"><ele>456.5</ele><time>2026-04-12T09:38:25.999Z</time></trkpt><trkpt lat="42.20118091400549" lon="14.213591794431853"><ele>459.0</ele><time>2026-04-12T09:38:26.999Z</time></trkpt><trkpt lat="42.201058658101104" lon="14.213575335103695"><ele>461.5</ele><time>2026-04-12T09:38:27.999Z</time></trkpt><trkpt lat="42.20093505513366" lon="14.213552924061307"><ele>464.0</ele><time>2026-04-12T09:38:28.999Z</time></trkpt><trkpt lat="42.20080225510669" lon="14.213526649995668"><ele>463.75</ele><time>2026-04-12T09:38:29.999Z</time></trkpt><trkpt lat="42.20065800572185" lon="14.213487817694087"><ele>463.5</ele><time>2026-04-12T09:38:30.999Z</time></trkpt><trkpt lat="42.20054150856161" lon="14.213441302515466"><ele>463.25</ele><time>2026-04-12T09:38:31.999Z</time></trkpt><trkpt lat="42.20044236759883" lon="14.213421249786764"><ele>463.0</ele><time>2026-04-12T09:38:32.999Z</time></trkpt><trkpt lat="42.20033443142606" lon="14.213424304693353"><ele>463.0</ele><time>2026-04-12T09:38:33.999Z</time></trkpt><trkpt lat="42.20024035647558" lon="14.213436955770012"><ele>462.99999999999994</ele><time>2026-04-12T09:38:34.999Z</time></trkpt><trkpt lat="42.200131898897475" lon="14.213437151358146"><ele>462.99999999999994</ele><time>2026-04-12T09:38:35.999Z</time></trkpt><trkpt lat="42.20003847289298" lon="14.213432697277742"><ele>463.0</ele><time>2026-04-12T09:38:36.999Z</time></trkpt><trkpt lat="42.199949424517776" lon="14.21345355899678"><ele>463.0</ele><time>2026-04-12T09:38:37.999Z</time></trkpt><trkpt lat="42.199864271600994" lon="14.213494986634153"><ele>460.0</ele><time>2026-04-12T09:38:38.999Z</time></trkpt><trkpt lat="42.19976654512462" lon="14.21354708918592"><ele>456.99999999999994</ele><time>2026-04-12T09:38:39.999Z</time></trkpt><trkpt lat="42.19968827740725" lon="14.21361383203489"><ele>453.99999999999994</ele><time>2026-04-12T09:38:40.999Z</time></trkpt><trkpt lat="42.19961855948017" lon="14.213727358891886"><ele>451.0</ele><time>2026-04-12T09:38:41.999Z</time></trkpt><trkpt lat="42.19953103509708" lon="14.213854593618835"><ele>448.0</ele><time>2026-04-12T09:38:42.999Z</time></trkpt><trkpt lat="42.19944810221345" lon="14.213949699822692"><ele>449.0</ele><time>2026-04-12T09:38:43.998Z</time></trkpt><trkpt lat="42.19936128692181" lon="14.21399159429127"><ele>449.99999999999994</ele><time>2026-04-12T09:38:44.998Z</time></trkpt><trkpt lat="42.19927278016535" lon="14.214024063137567"><ele>450.99999999999994</ele><time>2026-04-12T09:38:46Z</time></trkpt><trkpt lat="42.199171619776095" lon="14.21408225576655"><ele>452.0</ele><time>2026-04-12T09:38:47Z</time></trkpt><trkpt lat="42.19905613888831" lon="14.214148091242388"><ele>453.0</ele><time>2026-04-12T09:38:48Z</time></trkpt><trkpt lat="42.19897188083182" lon="14.214240460350858"><ele>453.0</ele><time>2026-04-12T09:38:49Z</time></trkpt><trkpt lat="42.198886396984975" lon="14.214357787762705"><ele>453.0</ele><time>2026-04-12T09:38:50Z</time></trkpt><trkpt lat="42.19881710250515" lon="14.21446215397599"><ele>453.0</ele><time>2026-04-12T09:38:51Z</time></trkpt><trkpt lat="42.198735049815774" lon="14.214578238347393"><ele>453.0</ele><time>2026-04-12T09:38:52Z</time></trkpt><trkpt lat="42.19866308111676" lon="14.214730580831647"><ele>455.8333333333333</ele><time>2026-04-12T09:38:53Z</time></trkpt><trkpt lat="42.19861466174843" lon="14.214822382191757"><ele>458.66666666666663</ele><time>2026-04-12T09:38:54Z</time></trkpt><trkpt lat="42.19855579118148" lon="14.214883517807195"><ele>461.5</ele><time>2026-04-12T09:38:55Z</time></trkpt><trkpt lat="42.19850341367476" lon="14.214943419452952"><ele>464.3333333333333</ele><time>2026-04-12T09:38:56Z</time></trkpt><trkpt lat="42.198451710674384" lon="14.215073366237608"><ele>467.16666666666663</ele><time>2026-04-12T09:38:58Z</time></trkpt><trkpt lat="42.198419433285345" lon="14.215148327876566"><ele>470.0</ele><time>2026-04-12T09:38:59Z</time></trkpt><trkpt lat="42.198320700684015" lon="14.215194698403256"><ele>469.99999999999994</ele><time>2026-04-12T09:39:01Z</time></trkpt><trkpt lat="42.19825140402951" lon="14.215226553809241"><ele>470.0</ele><time>2026-04-12T09:39:02Z</time></trkpt><trkpt lat="42.1981600131171" lon="14.215278981957562"><ele>470.0</ele><time>2026-04-12T09:39:04Z</time></trkpt><trkpt lat="42.19811562116916" lon="14.215346391187254"><ele>470.0</ele><time>2026-04-12T09:39:05Z</time></trkpt><trkpt lat="42.198067450567244" lon="14.215416299092967"><ele>469.99999999999994</ele><time>2026-04-12T09:39:06Z</time></trkpt><trkpt lat="42.19801426388807" lon="14.215495526123675"><ele>470.0</ele><time>2026-04-12T09:39:07Z</time></trkpt><trkpt lat="42.1980031713887" lon="14.21558878826336"><ele>471.2</ele><time>2026-04-12T09:39:09Z</time></trkpt><trkpt lat="42.19798992041479" lon="14.215762873921658"><ele>472.4</ele><time>2026-04-12T09:39:12Z</time></trkpt><trkpt lat="42.197971788585065" lon="14.215853519248354"><ele>473.6</ele><time>2026-04-12T09:39:13Z</time></trkpt><trkpt lat="42.19793845044415" lon="14.215938834118111"><ele>474.8</ele><time>2026-04-12T09:39:14Z</time></trkpt><trkpt lat="42.19786594596532" lon="14.216063386327441"><ele>476.0</ele><time>2026-04-12T09:39:16Z</time></trkpt><trkpt lat="42.19781262264893" lon="14.216119741451136"><ele>475.99999999999994</ele><time>2026-04-12T09:39:17Z</time></trkpt><trkpt lat="42.197752354259535" lon="14.216169437067862"><ele>476.0</ele><time>2026-04-12T09:39:18Z</time></trkpt><trkpt lat="42.19770200237772" lon="14.216230589444645"><ele>476.0</ele><time>2026-04-12T09:39:19Z</time></trkpt><trkpt lat="42.19762475293265" lon="14.216381531073788"><ele>476.0</ele><time>2026-04-12T09:39:21Z</time></trkpt><trkpt lat="42.19757307750365" lon="14.216466652828569"><ele>475.99999999999994</ele><time>2026-04-12T09:39:22Z</time></trkpt><trkpt lat="42.19750818787204" lon="14.216541670167503"><ele>476.0</ele><time>2026-04-12T09:39:23Z</time></trkpt><trkpt lat="42.197467462406436" lon="14.216674511039846"><ele>478.99999999999994</ele><time>2026-04-12T09:39:25Z</time></trkpt><trkpt lat="42.19746716000656" lon="14.216773770691344"><ele>482.0</ele><time>2026-04-12T09:39:26Z</time></trkpt><trkpt lat="42.19746193069772" lon="14.216886647386561"><ele>485.0</ele><time>2026-04-12T09:39:27Z</time></trkpt><trkpt lat="42.19741125697727" lon="14.216975399300951"><ele>488.0</ele><time>2026-04-12T09:39:28Z</time></trkpt><trkpt lat="42.19732610734163" lon="14.217035976798586"><ele>490.99999999999994</ele><time>2026-04-12T09:39:30Z</time></trkpt><trkpt lat="42.19721671941787" lon="14.21704851598516"><ele>494.0</ele><time>2026-04-12T09:39:32Z</time></trkpt><trkpt lat="42.19712818276515" lon="14.217060359375616"><ele>494.0</ele><time>2026-04-12T09:39:33Z</time></trkpt><trkpt lat="42.197031241272256" lon="14.217078113806124"><ele>494.0</ele><time>2026-04-12T09:39:34Z</time></trkpt><trkpt lat="42.196923502491224" lon="14.217117221005473"><ele>494.0</ele><time>2026-04-12T09:39:35Z</time></trkpt><trkpt lat="42.196810532681766" lon="14.217156304157406"><ele>494.0</ele><time>2026-04-12T09:39:36Z</time></trkpt><trkpt lat="42.196693264877226" lon="14.2171966165578"><ele>494.0</ele><time>2026-04-12T09:39:37Z</time></trkpt><trkpt lat="42.19658182131782" lon="14.217234391842005"><ele>495.5</ele><time>2026-04-12T09:39:38Z</time></trkpt><trkpt lat="42.196473851550664" lon="14.217267306463476"><ele>497.0</ele><time>2026-04-12T09:39:39Z</time></trkpt><trkpt lat="42.196347190912384" lon="14.217323092125374"><ele>498.5</ele><time>2026-04-12T09:39:40Z</time></trkpt><trkpt lat="42.196226566515456" lon="14.217381594129632"><ele>500.0</ele><time>2026-04-12T09:39:41Z</time></trkpt><trkpt lat="42.19609576648355" lon="14.217442029947263"><ele>502.5</ele><time>2026-04-12T09:39:42Z</time></trkpt><trkpt lat="42.195980872308226" lon="14.21745271109385"><ele>505.0</ele><time>2026-04-12T09:39:43Z</time></trkpt><trkpt lat="42.19586251319024" lon="14.217485385557536"><ele>507.5</ele><time>2026-04-12T09:39:44Z</time></trkpt><trkpt lat="42.19573791016384" lon="14.21753430498055"><ele>510.0</ele><time>2026-04-12T09:39:44.999Z</time></trkpt><trkpt lat="42.195614634216135" lon="14.217568329303047"><ele>511.0</ele><time>2026-04-12T09:39:45.999Z</time></trkpt><trkpt lat="42.19548593733134" lon="14.217611207690869"><ele>512.0</ele><time>2026-04-12T09:39:46.999Z</time></trkpt><trkpt lat="42.195367340452826" lon="14.21770311785047"><ele>513.0</ele><time>2026-04-12T09:39:47.999Z</time></trkpt><trkpt lat="42.19525362766345" lon="14.217816142766203"><ele>514.0</ele><time>2026-04-12T09:39:48.999Z</time></trkpt><trkpt lat="42.19515335529842" lon="14.217935422595566"><ele>514.0</ele><time>2026-04-12T09:39:49.999Z</time></trkpt><trkpt lat="42.19505984270302" lon="14.218044712792887"><ele>514.0</ele><time>2026-04-12T09:39:50.999Z</time></trkpt><trkpt lat="42.194976973791185" lon="14.218124768823593"><ele>514.0</ele><time>2026-04-12T09:39:51.999Z</time></trkpt><trkpt lat="42.19490515915057" lon="14.218191187799695"><ele>514.0</ele><time>2026-04-12T09:39:52.999Z</time></trkpt><trkpt lat="42.19486417459392" lon="14.218347367272266"><ele>514.0</ele><time>2026-04-12T09:39:54.999Z</time></trkpt><trkpt lat="42.1948879497149" lon="14.218433001024632"><ele>514.8333333333334</ele><time>2026-04-12T09:39:57.999Z</time></trkpt><trkpt lat="42.194902211901784" lon="14.218532840077426"><ele>515.6666666666667</ele><time>2026-04-12T09:40:01.999Z</time></trkpt><trkpt lat="42.19486457740652" lon="14.218613091479565"><ele>516.5</ele><time>2026-04-12T09:40:06.999Z</time></trkpt><trkpt lat="42.194793767218265" lon="14.218628649768576"><ele>517.3333333333334</ele><time>2026-04-12T09:40:07.999Z</time></trkpt><trkpt lat="42.194784484132356" lon="14.21875574528797"><ele>518.1666666666666</ele><time>2026-04-12T09:40:08.999Z</time></trkpt><trkpt lat="42.19479642076152" lon="14.218906454555556"><ele>519.0</ele><time>2026-04-12T09:40:09.999Z</time></trkpt><trkpt lat="42.1948202613713" lon="14.219054411159902"><ele>519.5</ele><time>2026-04-12T09:40:10.999Z</time></trkpt><trkpt lat="42.19483024886682" lon="14.219197706448105"><ele>520.0</ele><time>2026-04-12T09:40:11.999Z</time></trkpt><trkpt lat="42.19484278386628" lon="14.219348125695264"><ele>520.5</ele><time>2026-04-12T09:40:12.999Z</time></trkpt><trkpt lat="42.194863436899276" lon="14.219526911685909"><ele>521.0</ele><time>2026-04-12T09:40:13.999Z</time></trkpt><trkpt lat="42.194882021242584" lon="14.219713432291691"><ele>521.75</ele><time>2026-04-12T09:40:14.999Z</time></trkpt><trkpt lat="42.194898727866416" lon="14.219899256454783"><ele>522.5</ele><time>2026-04-12T09:40:15.999Z</time></trkpt><trkpt lat="42.19491099942528" lon="14.220080858545057"><ele>523.25</ele><time>2026-04-12T09:40:16.999Z</time></trkpt><trkpt lat="42.194907263544984" lon="14.22024041960611"><ele>524.0</ele><time>2026-04-12T09:40:17.999Z</time></trkpt><trkpt lat="42.19487917306558" lon="14.220371572553255"><ele>526.4</ele><time>2026-04-12T09:40:18.999Z</time></trkpt><trkpt lat="42.19482851121397" lon="14.220463914102172"><ele>528.8</ele><time>2026-04-12T09:40:19.999Z</time></trkpt><trkpt lat="42.19474557179315" lon="14.220519731682375"><ele>531.2</ele><time>2026-04-12T09:40:20.999Z</time></trkpt><trkpt lat="42.19464906327948" lon="14.220506526356132"><ele>533.6</ele><time>2026-04-12T09:40:21.999Z</time></trkpt><trkpt lat="42.19456503731111" lon="14.220447482223008"><ele>536.0</ele><time>2026-04-12T09:40:22.999Z</time></trkpt><trkpt lat="42.19453658786815" lon="14.220319873791638"><ele>536.0</ele><time>2026-04-12T09:40:23.999Z</time></trkpt><trkpt lat="42.1945029607873" lon="14.220200772440386"><ele>536.0</ele><time>2026-04-12T09:40:24.999Z</time></trkpt><trkpt lat="42.194478244935766" lon="14.2200798617143"><ele>536.0</ele><time>2026-04-12T09:40:25.999Z</time></trkpt><trkpt lat="42.19443963219943" lon="14.219982057691594"><ele>536.0</ele><time>2026-04-12T09:40:26.999Z</time></trkpt><trkpt lat="42.1943685013109" lon="14.21986376449726"><ele>536.0</ele><time>2026-04-12T09:40:28.999Z</time></trkpt><trkpt lat="42.19432087573934" lon="14.219806163892747"><ele>536.0</ele><time>2026-04-12T09:40:29.999Z</time></trkpt><trkpt lat="42.1942519420917" lon="14.21972913006618"><ele>535.3333333333333</ele><time>2026-04-12T09:40:31.999Z</time></trkpt><trkpt lat="42.19415330360105" lon="14.219643722962148"><ele>534.6666666666666</ele><time>2026-04-12T09:40:33.999Z</time></trkpt><trkpt lat="42.19408854736828" lon="14.21960140886994"><ele>534.0</ele><time>2026-04-12T09:40:34.999Z</time></trkpt><trkpt lat="42.19401299388208" lon="14.21955659907469"><ele>533.3333333333334</ele><time>2026-04-12T09:40:35.999Z</time></trkpt><trkpt lat="42.19395631281537" lon="14.219499646043134"><ele>532.6666666666667</ele><time>2026-04-12T09:40:36.999Z</time></trkpt><trkpt lat="42.193892485928195" lon="14.219474102055239"><ele>532.0</ele><time>2026-04-12T09:40:37.999Z</time></trkpt><trkpt lat="42.19382736521974" lon="14.219422919050341"><ele>533.2857142857143</ele><time>2026-04-12T09:40:38.999Z</time></trkpt><trkpt lat="42.193753716840135" lon="14.219378975158373"><ele>534.5714285714286</ele><time>2026-04-12T09:40:39.999Z</time></trkpt><trkpt lat="42.1936890189393" lon="14.219337653516797"><ele>535.8571428571429</ele><time>2026-04-12T09:40:40.999Z</time></trkpt><trkpt lat="42.193625308037085" lon="14.219296796370271"><ele>537.1428571428571</ele><time>2026-04-12T09:40:41.999Z</time></trkpt><trkpt lat="42.19356224382424" lon="14.219251049006584"><ele>538.4285714285714</ele><time>2026-04-12T09:40:42.999Z</time></trkpt><trkpt lat="42.19349882717464" lon="14.219215422498358"><ele>539.7142857142858</ele><time>2026-04-12T09:40:43.999Z</time></trkpt><trkpt lat="42.19343267522097" lon="14.219190632244954"><ele>541.0</ele><time>2026-04-12T09:40:44.999Z</time></trkpt><trkpt lat="42.19335566025524" lon="14.219182660591416"><ele>541.0</ele><time>2026-04-12T09:40:45.998Z</time></trkpt><trkpt lat="42.19328180607142" lon="14.219182424178197"><ele>541.0</ele><time>2026-04-12T09:40:46.998Z</time></trkpt><trkpt lat="42.19321069263874" lon="14.21920871589793"><ele>541.0</ele><time>2026-04-12T09:40:47.998Z</time></trkpt><trkpt lat="42.193133515270205" lon="14.219269658964711"><ele>541.0</ele><time>2026-04-12T09:40:48.998Z</time></trkpt><trkpt lat="42.19307099510196" lon="14.219334302398627"><ele>541.0</ele><time>2026-04-12T09:40:49.998Z</time></trkpt><trkpt lat="42.19301524899467" lon="14.219394616349499"><ele>541.0</ele><time>2026-04-12T09:40:50.998Z</time></trkpt><trkpt lat="42.19296408842597" lon="14.219470149386781"><ele>540.5</ele><time>2026-04-12T09:40:52Z</time></trkpt><trkpt lat="42.19292989283766" lon="14.219556165611229"><ele>540.0</ele><time>2026-04-12T09:40:53Z</time></trkpt><trkpt lat="42.19290895022245" lon="14.21964800568147"><ele>539.5</ele><time>2026-04-12T09:40:54Z</time></trkpt><trkpt lat="42.192927771587684" lon="14.219754907647673"><ele>539.0</ele><time>2026-04-12T09:40:55Z</time></trkpt><trkpt lat="42.19296124818301" lon="14.219854347847532"><ele>538.5</ele><time>2026-04-12T09:40:56Z</time></trkpt><trkpt lat="42.193013873483565" lon="14.21992882601052"><ele>538.0</ele><time>2026-04-12T09:40:57Z</time></trkpt><trkpt lat="42.193073393344655" lon="14.220006821929314"><ele>539.7142857142858</ele><time>2026-04-12T09:40:58Z</time></trkpt><trkpt lat="42.19314167222173" lon="14.220045459548015"><ele>541.4285714285714</ele><time>2026-04-12T09:40:59Z</time></trkpt><trkpt lat="42.193202437291475" lon="14.220073906644147"><ele>543.1428571428571</ele><time>2026-04-12T09:41:00Z</time></trkpt><trkpt lat="42.193273665343725" lon="14.220100292149747"><ele>544.8571428571429</ele><time>2026-04-12T09:41:01Z</time></trkpt><trkpt lat="42.193353756800704" lon="14.220134848124859"><ele>546.5714285714286</ele><time>2026-04-12T09:41:10Z</time></trkpt><trkpt lat="42.193421615466846" lon="14.2201739363065"><ele>548.2857142857143</ele><time>2026-04-12T09:41:11Z</time></trkpt><trkpt lat="42.19348210534206" lon="14.220207477916292"><ele>550.0</ele><time>2026-04-12T09:41:12Z</time></trkpt><trkpt lat="42.193552292875914" lon="14.22024639689914"><ele>550.0</ele><time>2026-04-12T09:41:13Z</time></trkpt><trkpt lat="42.19361366853009" lon="14.220281700327803"><ele>550.0</ele><time>2026-04-12T09:41:14Z</time></trkpt><trkpt lat="42.193686802969864" lon="14.220277539585936"><ele>550.0</ele><time>2026-04-12T09:41:15Z</time></trkpt><trkpt lat="42.19376842459454" lon="14.220318992038687"><ele>550.0</ele><time>2026-04-12T09:41:17Z</time></trkpt><trkpt lat="42.19383531246058" lon="14.220367773852491"><ele>550.0</ele><time>2026-04-12T09:41:19Z</time></trkpt><trkpt lat="42.1939315780102" lon="14.220506985695149"><ele>550.0</ele><time>2026-04-12T09:41:28Z</time></trkpt><trkpt lat="42.1939614927345" lon="14.220626854579951"><ele>551.5</ele><time>2026-04-12T09:41:29Z</time></trkpt><trkpt lat="42.193996897485945" lon="14.220772031402538"><ele>553.0</ele><time>2026-04-12T09:41:30Z</time></trkpt><trkpt lat="42.19401775764239" lon="14.220942587297797"><ele>554.5</ele><time>2026-04-12T09:41:31Z</time></trkpt><trkpt lat="42.19401771935897" lon="14.221139349252246"><ele>556.0</ele><time>2026-04-12T09:41:32Z</time></trkpt><trkpt lat="42.19400587271193" lon="14.221349277714967"><ele>555.0</ele><time>2026-04-12T09:41:33Z</time></trkpt><trkpt lat="42.19399254840606" lon="14.221563116600398"><ele>554.0</ele><time>2026-04-12T09:41:34Z</time></trkpt><trkpt lat="42.193985896494326" lon="14.221782104774043"><ele>553.0</ele><time>2026-04-12T09:41:35Z</time></trkpt><trkpt lat="42.19398261717075" lon="14.221990179137707"><ele>553.0</ele><time>2026-04-12T09:41:36Z</time></trkpt><trkpt lat="42.19397767564282" lon="14.222187306887673"><ele>553.0</ele><time>2026-04-12T09:41:37Z</time></trkpt><trkpt lat="42.19397573048344" lon="14.222391314647375"><ele>553.0</ele><time>2026-04-12T09:41:38Z</time></trkpt><trkpt lat="42.19397463590244" lon="14.222607208473987"><ele>550.3333333333334</ele><time>2026-04-12T09:41:39Z</time></trkpt><trkpt lat="42.19399031319395" lon="14.222819690993827"><ele>547.6666666666666</ele><time>2026-04-12T09:41:40Z</time></trkpt><trkpt lat="42.1940158150539" lon="14.223025858296293"><ele>545.0</ele><time>2026-04-12T09:41:41Z</time></trkpt><trkpt lat="42.19404203495708" lon="14.223218639633876"><ele>539.2</ele><time>2026-04-12T09:41:42Z</time></trkpt><trkpt lat="42.19406146948987" lon="14.223388834896111"><ele>533.4</ele><time>2026-04-12T09:41:43Z</time></trkpt><trkpt lat="42.1940774321373" lon="14.22355132859585"><ele>527.6</ele><time>2026-04-12T09:41:44Z</time></trkpt><trkpt lat="42.19410248327755" lon="14.223680106862837"><ele>521.8</ele><time>2026-04-12T09:41:45Z</time></trkpt><trkpt lat="42.194114175131936" lon="14.223799291200013"><ele>516.0</ele><time>2026-04-12T09:41:46Z</time></trkpt><trkpt lat="42.19411917418986" lon="14.223886771047916"><ele>516.0</ele><time>2026-04-12T09:41:47Z</time></trkpt><trkpt lat="42.19421445514312" lon="14.223951818219696"><ele>516.0</ele><time>2026-04-12T09:41:49Z</time></trkpt><trkpt lat="42.19428264446512" lon="14.223928778001552"><ele>516.0</ele><time>2026-04-12T09:41:49.999Z</time></trkpt><trkpt lat="42.19436205687043" lon="14.223853155305417"><ele>516.0</ele><time>2026-04-12T09:41:50.999Z</time></trkpt><trkpt lat="42.194447512688654" lon="14.223732932225126"><ele>516.0</ele><time>2026-04-12T09:41:51.999Z</time></trkpt><trkpt lat="42.194560518428446" lon="14.22365884704875"><ele>516.0</ele><time>2026-04-12T09:41:52.999Z</time></trkpt><trkpt lat="42.194672520676534" lon="14.223565768442255"><ele>516.0</ele><time>2026-04-12T09:41:53.999Z</time></trkpt><trkpt lat="42.19479522802103" lon="14.223464604420835"><ele>516.0</ele><time>2026-04-12T09:41:54.999Z</time></trkpt><trkpt lat="42.19490214401967" lon="14.223375903255992"><ele>516.0</ele><time>2026-04-12T09:41:55.999Z</time></trkpt><trkpt lat="42.194997413803826" lon="14.223295781971123"><ele>514.5</ele><time>2026-04-12T09:41:56.999Z</time></trkpt><trkpt lat="42.195098765669975" lon="14.223205957914526"><ele>513.0</ele><time>2026-04-12T09:41:57.999Z</time></trkpt><trkpt lat="42.19520300486873" lon="14.223094470475942"><ele>511.5</ele><time>2026-04-12T09:41:58.999Z</time></trkpt><trkpt lat="42.19530658721707" lon="14.222957017483292"><ele>510.0</ele><time>2026-04-12T09:41:59.999Z</time></trkpt><trkpt lat="42.195405779005775" lon="14.222818686650095"><ele>510.0</ele><time>2026-04-12T09:42:00.999Z</time></trkpt><trkpt lat="42.195491989085625" lon="14.222695824475966"><ele>510.0</ele><time>2026-04-12T09:42:01.999Z</time></trkpt><trkpt lat="42.19556209682572" lon="14.222585081871335"><ele>510.0</ele><time>2026-04-12T09:42:02.999Z</time></trkpt><trkpt lat="42.19562384989199" lon="14.222454438773697"><ele>510.0</ele><time>2026-04-12T09:42:03.999Z</time></trkpt><trkpt lat="42.19567861229963" lon="14.222284616306215"><ele>507.66666666666663</ele><time>2026-04-12T09:42:04.999Z</time></trkpt><trkpt lat="42.19572643942824" lon="14.222088092520822"><ele>505.3333333333333</ele><time>2026-04-12T09:42:05.999Z</time></trkpt><trkpt lat="42.19577190015365" lon="14.2218790391289"><ele>503.0</ele><time>2026-04-12T09:42:06.999Z</time></trkpt><trkpt lat="42.195801319959344" lon="14.221681068340073"><ele>503.0</ele><time>2026-04-12T09:42:07.999Z</time></trkpt><trkpt lat="42.1958061362718" lon="14.221498861333453"><ele>503.0</ele><time>2026-04-12T09:42:08.999Z</time></trkpt><trkpt lat="42.19580977939451" lon="14.221343115639415"><ele>503.0</ele><time>2026-04-12T09:42:09.999Z</time></trkpt><trkpt lat="42.19580470487831" lon="14.22115265640541"><ele>503.0</ele><time>2026-04-12T09:42:10.999Z</time></trkpt><trkpt lat="42.195799059567584" lon="14.220960265740024"><ele>503.5</ele><time>2026-04-12T09:42:11.999Z</time></trkpt><trkpt lat="42.195795503662104" lon="14.220780818938419"><ele>504.0</ele><time>2026-04-12T09:42:12.999Z</time></trkpt><trkpt lat="42.19579471440647" lon="14.220628334614238"><ele>504.5</ele><time>2026-04-12T09:42:13.999Z</time></trkpt><trkpt lat="42.19578068295328" lon="14.220485465785146"><ele>505.0</ele><time>2026-04-12T09:42:14.999Z</time></trkpt><trkpt lat="42.19582312939341" lon="14.220349969841326"><ele>505.5</ele><time>2026-04-12T09:42:15.999Z</time></trkpt><trkpt lat="42.19586146802413" lon="14.220206736838959"><ele>506.0</ele><time>2026-04-12T09:42:16.999Z</time></trkpt><trkpt lat="42.195913049552495" lon="14.22005901169621"><ele>506.5</ele><time>2026-04-12T09:42:17.999Z</time></trkpt><trkpt lat="42.195968743522926" lon="14.219906780441056"><ele>507.0</ele><time>2026-04-12T09:42:18.999Z</time></trkpt><trkpt lat="42.196030156674794" lon="14.219771668067091"><ele>507.25</ele><time>2026-04-12T09:42:19.999Z</time></trkpt><trkpt lat="42.196107072635236" lon="14.219670669078832"><ele>507.5</ele><time>2026-04-12T09:42:20.999Z</time></trkpt><trkpt lat="42.196203255316405" lon="14.219575492196915"><ele>507.75</ele><time>2026-04-12T09:42:21.999Z</time></trkpt><trkpt lat="42.19629812941826" lon="14.219479571696342"><ele>508.0</ele><time>2026-04-12T09:42:22.999Z</time></trkpt><trkpt lat="42.196375489259374" lon="14.219383052487688"><ele>508.0</ele><time>2026-04-12T09:42:23.999Z</time></trkpt><trkpt lat="42.19647019765325" lon="14.219326058882405"><ele>507.99999999999994</ele><time>2026-04-12T09:42:24.999Z</time></trkpt><trkpt lat="42.19652043493436" lon="14.219252113510263"><ele>507.99999999999994</ele><time>2026-04-12T09:42:25.999Z</time></trkpt><trkpt lat="42.19661526422105" lon="14.219219755687964"><ele>508.0</ele><time>2026-04-12T09:42:28.999Z</time></trkpt><trkpt lat="42.19673955770331" lon="14.21923606093995"><ele>508.0</ele><time>2026-04-12T09:42:30.999Z</time></trkpt><trkpt lat="42.19682133846892" lon="14.219196360160094"><ele>507.00000000000006</ele><time>2026-04-12T09:42:32.999Z</time></trkpt><trkpt lat="42.196885403182186" lon="14.219102670997469"><ele>506.0</ele><time>2026-04-12T09:42:34.999Z</time></trkpt><trkpt lat="42.19695318725447" lon="14.2190982532212"><ele>505.0</ele><time>2026-04-12T09:42:35.999Z</time></trkpt><trkpt lat="42.197028952319116" lon="14.219060084299858"><ele>504.0</ele><time>2026-04-12T09:42:36.999Z</time></trkpt><trkpt lat="42.19711063462315" lon="14.219070985385734"><ele>503.00000000000006</ele><time>2026-04-12T09:42:37.999Z</time></trkpt><trkpt lat="42.19718582996514" lon="14.219078150859026"><ele>502.0</ele><time>2026-04-12T09:42:38.999Z</time></trkpt><trkpt lat="42.197257201900904" lon="14.219094525305099"><ele>501.40000000000003</ele><time>2026-04-12T09:42:39.999Z</time></trkpt><trkpt lat="42.19733606092777" lon="14.219086320713584"><ele>500.80000000000007</ele><time>2026-04-12T09:42:40.999Z</time></trkpt><trkpt lat="42.19742001202524" lon="14.219077586400074"><ele>500.2</ele><time>2026-04-12T09:42:41.999Z</time></trkpt><trkpt lat="42.19751378727347" lon="14.219054296304307"><ele>499.6</ele><time>2026-04-12T09:42:42.999Z</time></trkpt><trkpt lat="42.19761374877362" lon="14.219033439265566"><ele>499.0</ele><time>2026-04-12T09:42:43.999Z</time></trkpt><trkpt lat="42.19771557297549" lon="14.21901123502461"><ele>499.0</ele><time>2026-04-12T09:42:44.999Z</time></trkpt><trkpt lat="42.19782579897224" lon="14.218987198664907"><ele>499.0</ele><time>2026-04-12T09:42:45.999Z</time></trkpt><trkpt lat="42.197953663016094" lon="14.218959316138145"><ele>499.0</ele><time>2026-04-12T09:42:46.999Z</time></trkpt><trkpt lat="42.19806449738395" lon="14.21893636494109"><ele>499.0</ele><time>2026-04-12T09:42:47.999Z</time></trkpt><trkpt lat="42.198173120397435" lon="14.21891305077556"><ele>497.25</ele><time>2026-04-12T09:42:48.999Z</time></trkpt><trkpt lat="42.19828482540859" lon="14.218883526172508"><ele>495.5</ele><time>2026-04-12T09:42:49.999Z</time></trkpt><trkpt lat="42.198423056830855" lon="14.218836728975257"><ele>493.75</ele><time>2026-04-12T09:42:50.998Z</time></trkpt><trkpt lat="42.198580718025084" lon="14.218772274374468"><ele>492.0</ele><time>2026-04-12T09:42:51.998Z</time></trkpt><trkpt lat="42.198746961314896" lon="14.218700585830435"><ele>492.0</ele><time>2026-04-12T09:42:52.998Z</time></trkpt><trkpt lat="42.19891326173967" lon="14.218585800331358"><ele>492.0</ele><time>2026-04-12T09:42:53.998Z</time></trkpt><trkpt lat="42.199102311130744" lon="14.218507528541831"><ele>492.0</ele><time>2026-04-12T09:42:54.998Z</time></trkpt><trkpt lat="42.199297581203126" lon="14.218421420342448"><ele>490.33333333333337</ele><time>2026-04-12T09:42:55.998Z</time></trkpt><trkpt lat="42.199474489204235" lon="14.21834820595677"><ele>488.6666666666667</ele><time>2026-04-12T09:42:56.998Z</time></trkpt><trkpt lat="42.19964542093978" lon="14.218314113047551"><ele>487.0</ele><time>2026-04-12T09:42:58Z</time></trkpt><trkpt lat="42.19980074215841" lon="14.218246536317864"><ele>485.75</ele><time>2026-04-12T09:42:59Z</time></trkpt><trkpt lat="42.19994658007767" lon="14.218218515799833"><ele>484.5</ele><time>2026-04-12T09:43:00Z</time></trkpt><trkpt lat="42.20008827252588" lon="14.218205898202907"><ele>483.25</ele><time>2026-04-12T09:43:01Z</time></trkpt><trkpt lat="42.2002303434821" lon="14.218203563497653"><ele>482.0</ele><time>2026-04-12T09:43:02Z</time></trkpt><trkpt lat="42.20034178754863" lon="14.218210837552329"><ele>481.99999999999994</ele><time>2026-04-12T09:43:03Z</time></trkpt><trkpt lat="42.20041811291384" lon="14.218200497430074"><ele>482.0</ele><time>2026-04-12T09:43:04Z</time></trkpt><trkpt lat="42.200473010309146" lon="14.21815533677499"><ele>482.0</ele><time>2026-04-12T09:43:05Z</time></trkpt><trkpt lat="42.200532319875606" lon="14.218100661900158"><ele>482.0</ele><time>2026-04-12T09:43:06Z</time></trkpt><trkpt lat="42.200620757793686" lon="14.218061563919273"><ele>481.99999999999994</ele><time>2026-04-12T09:43:07Z</time></trkpt><trkpt lat="42.20074622404509" lon="14.218050591526822"><ele>482.0</ele><time>2026-04-12T09:43:08Z</time></trkpt><trkpt lat="42.20088235529859" lon="14.21802856642055"><ele>479.66666666666663</ele><time>2026-04-12T09:43:09Z</time></trkpt><trkpt lat="42.20102595125467" lon="14.21799820495786"><ele>477.33333333333337</ele><time>2026-04-12T09:43:10Z</time></trkpt><trkpt lat="42.20119168364672" lon="14.217966455426819"><ele>475.0</ele><time>2026-04-12T09:43:11Z</time></trkpt><trkpt lat="42.201348325104505" lon="14.217950114359304"><ele>474.0</ele><time>2026-04-12T09:43:12Z</time></trkpt><trkpt lat="42.20150997296299" lon="14.217941942038198"><ele>473.0</ele><time>2026-04-12T09:43:13Z</time></trkpt><trkpt lat="42.201674328674684" lon="14.217942069344579"><ele>472.0</ele><time>2026-04-12T09:43:14Z</time></trkpt><trkpt lat="42.201841904656916" lon="14.217964538942864"><ele>472.0</ele><time>2026-04-12T09:43:15Z</time></trkpt><trkpt lat="42.20201490813386" lon="14.21800712246677"><ele>472.0</ele><time>2026-04-12T09:43:16Z</time></trkpt><trkpt lat="42.20218835900816" lon="14.218049253502915"><ele>472.0</ele><time>2026-04-12T09:43:17Z</time></trkpt><trkpt lat="42.20235927849108" lon="14.218070810706049"><ele>471.0</ele><time>2026-04-12T09:43:18Z</time></trkpt><trkpt lat="42.2025338991966" lon="14.218070242274047"><ele>470.0</ele><time>2026-04-12T09:43:19Z</time></trkpt><trkpt lat="42.202700706412905" lon="14.218045003876183"><ele>469.0</ele><time>2026-04-12T09:43:20Z</time></trkpt><trkpt lat="42.20285375820911" lon="14.218015261783354"><ele>469.0</ele><time>2026-04-12T09:43:21Z</time></trkpt><trkpt lat="42.20297893129999" lon="14.217991536161255"><ele>469.0</ele><time>2026-04-12T09:43:22Z</time></trkpt><trkpt lat="42.203087375399186" lon="14.217956483405855"><ele>469.0</ele><time>2026-04-12T09:43:23Z</time></trkpt><trkpt lat="42.20318409155387" lon="14.217893729152877"><ele>469.0</ele><time>2026-04-12T09:43:24Z</time></trkpt><trkpt lat="42.20330001985447" lon="14.217822233490566"><ele>466.75</ele><time>2026-04-12T09:43:25Z</time></trkpt><trkpt lat="42.20341585612119" lon="14.217704893338519"><ele>464.5</ele><time>2026-04-12T09:43:26Z</time></trkpt><trkpt lat="42.203546148792896" lon="14.21759365620775"><ele>462.25</ele><time>2026-04-12T09:43:27Z</time></trkpt><trkpt lat="42.20367149302057" lon="14.217492320501467"><ele>460.0</ele><time>2026-04-12T09:43:28Z</time></trkpt><trkpt lat="42.203785055768165" lon="14.217403378063583"><ele>460.0</ele><time>2026-04-12T09:43:29Z</time></trkpt><trkpt lat="42.203883022239424" lon="14.217330072852196"><ele>460.0</ele><time>2026-04-12T09:43:30Z</time></trkpt><trkpt lat="42.20398368521547" lon="14.217269470338975"><ele>460.0</ele><time>2026-04-12T09:43:31Z</time></trkpt><trkpt lat="42.20410935123748" lon="14.217305814690194"><ele>460.0</ele><time>2026-04-12T09:43:32Z</time></trkpt><trkpt lat="42.204220652550774" lon="14.217321863465846"><ele>460.75</ele><time>2026-04-12T09:43:33Z</time></trkpt><trkpt lat="42.20432436314568" lon="14.217332560228169"><ele>461.5</ele><time>2026-04-12T09:43:34Z</time></trkpt><trkpt lat="42.20443862351625" lon="14.217299529422045"><ele>462.25</ele><time>2026-04-12T09:43:35Z</time></trkpt><trkpt lat="42.20456941264873" lon="14.2172396305217"><ele>463.0</ele><time>2026-04-12T09:43:36Z</time></trkpt><trkpt lat="42.204698103621354" lon="14.217193255708189"><ele>463.0</ele><time>2026-04-12T09:43:37Z</time></trkpt><trkpt lat="42.20481184970621" lon="14.217149693528727"><ele>463.0</ele><time>2026-04-12T09:43:38Z</time></trkpt><trkpt lat="42.20491664834849" lon="14.217106891390001"><ele>463.0</ele><time>2026-04-12T09:43:39Z</time></trkpt><trkpt lat="42.20502669958363" lon="14.217049848532135"><ele>463.0</ele><time>2026-04-12T09:43:40Z</time></trkpt><trkpt lat="42.205155602208634" lon="14.217016542303446"><ele>462.2</ele><time>2026-04-12T09:43:41Z</time></trkpt><trkpt lat="42.20527873691154" lon="14.216980784588625"><ele>461.4</ele><time>2026-04-12T09:43:42Z</time></trkpt><trkpt lat="42.20538644383424" lon="14.216954280701696"><ele>460.59999999999997</ele><time>2026-04-12T09:43:43Z</time></trkpt><trkpt lat="42.20546644791206" lon="14.216948319577769"><ele>459.79999999999995</ele><time>2026-04-12T09:43:44Z</time></trkpt><trkpt lat="42.2055439991149" lon="14.216960340347931"><ele>459.0</ele><time>2026-04-12T09:43:46Z</time></trkpt><trkpt lat="42.20558748615097" lon="14.21705060098566"><ele>459.0</ele><time>2026-04-12T09:43:47Z</time></trkpt><trkpt lat="42.20564202842067" lon="14.217197707456465"><ele>459.0</ele><time>2026-04-12T09:43:48Z</time></trkpt><trkpt lat="42.20570718224658" lon="14.217335908668726"><ele>459.0</ele><time>2026-04-12T09:43:49Z</time></trkpt><trkpt lat="42.20576189843318" lon="14.217468645040622"><ele>459.0</ele><time>2026-04-12T09:43:50Z</time></trkpt><trkpt lat="42.205818449814316" lon="14.217590774651221"><ele>455.25</ele><time>2026-04-12T09:43:51Z</time></trkpt><trkpt lat="42.20588848010244" lon="14.217728595401091"><ele>451.5</ele><time>2026-04-12T09:43:52Z</time></trkpt><trkpt lat="42.20596247146344" lon="14.217891731235216"><ele>447.75</ele><time>2026-04-12T09:43:53Z</time></trkpt><trkpt lat="42.20603855257588" lon="14.218053707332697"><ele>444.0</ele><time>2026-04-12T09:43:53.999Z</time></trkpt><trkpt lat="42.20611817131861" lon="14.218195066690484"><ele>442.5</ele><time>2026-04-12T09:43:54.999Z</time></trkpt><trkpt lat="42.20621346193468" lon="14.218304126926203"><ele>441.0</ele><time>2026-04-12T09:43:55.999Z</time></trkpt><trkpt lat="42.20632983086133" lon="14.218397537879946"><ele>439.5</ele><time>2026-04-12T09:43:56.999Z</time></trkpt><trkpt lat="42.20645192649465" lon="14.218478185069415"><ele>438.0</ele><time>2026-04-12T09:43:57.999Z</time></trkpt><trkpt lat="42.20655940523285" lon="14.2185453319345"><ele>436.25</ele><time>2026-04-12T09:43:58.999Z</time></trkpt><trkpt lat="42.206642734771705" lon="14.21861060933508"><ele>434.5</ele><time>2026-04-12T09:43:59.999Z</time></trkpt><trkpt lat="42.206708136298616" lon="14.218703008408756"><ele>432.75</ele><time>2026-04-12T09:44:00.999Z</time></trkpt><trkpt lat="42.20677386166323" lon="14.218843341812669"><ele>431.0</ele><time>2026-04-12T09:44:01.999Z</time></trkpt><trkpt lat="42.20684744681284" lon="14.219002676675624"><ele>430.25</ele><time>2026-04-12T09:44:02.999Z</time></trkpt><trkpt lat="42.20692428158569" lon="14.219155682311936"><ele>429.5</ele><time>2026-04-12T09:44:03.999Z</time></trkpt><trkpt lat="42.20698569027668" lon="14.219294192758642"><ele>428.75</ele><time>2026-04-12T09:44:04.999Z</time></trkpt><trkpt lat="42.207031870192644" lon="14.219421744281515"><ele>428.0</ele><time>2026-04-12T09:44:05.999Z</time></trkpt><trkpt lat="42.207076037043954" lon="14.219534430376266"><ele>427.99999999999994</ele><time>2026-04-12T09:44:06.999Z</time></trkpt><trkpt lat="42.207121160250054" lon="14.219648295912023"><ele>428.0</ele><time>2026-04-12T09:44:07.999Z</time></trkpt><trkpt lat="42.20716223031232" lon="14.21975410249783"><ele>428.0</ele><time>2026-04-12T09:44:08.999Z</time></trkpt><trkpt lat="42.20719634305062" lon="14.219834255199883"><ele>428.0</ele><time>2026-04-12T09:44:09.999Z</time></trkpt><trkpt lat="42.20729100192252" lon="14.219947648749741"><ele>427.99999999999994</ele><time>2026-04-12T09:44:11.999Z</time></trkpt><trkpt lat="42.20735125938948" lon="14.219991585575599"><ele>428.0</ele><time>2026-04-12T09:44:12.999Z</time></trkpt><trkpt lat="42.207420608974296" lon="14.220016636375439"><ele>426.3333333333333</ele><time>2026-04-12T09:44:13.999Z</time></trkpt><trkpt lat="42.207506270257745" lon="14.220021112311303"><ele>424.66666666666663</ele><time>2026-04-12T09:44:14.999Z</time></trkpt><trkpt lat="42.20759466083917" lon="14.220008183520521"><ele>423.0</ele><time>2026-04-12T09:44:15.999Z</time></trkpt><trkpt lat="42.20766436716829" lon="14.220000361484384"><ele>421.33333333333337</ele><time>2026-04-12T09:44:16.999Z</time></trkpt><trkpt lat="42.207752528833836" lon="14.220021852084345"><ele>419.6666666666667</ele><time>2026-04-12T09:44:18.999Z</time></trkpt><trkpt lat="42.20777912456449" lon="14.220145412223355"><ele>418.0</ele><time>2026-04-12T09:44:20.999Z</time></trkpt><trkpt lat="42.20783420393479" lon="14.220226304704553"><ele>418.0</ele><time>2026-04-12T09:44:22.999Z</time></trkpt><trkpt lat="42.207919321400034" lon="14.219948753569065"><ele>418.0</ele><time>2026-04-12T09:44:24.999Z</time></trkpt><trkpt lat="42.208011488640686" lon="14.219929083583976"><ele>418.0</ele><time>2026-04-12T09:44:26.999Z</time></trkpt><trkpt lat="42.20790263309359" lon="14.220420878034274"><ele>418.0</ele><time>2026-04-12T09:44:27.999Z</time></trkpt><trkpt lat="42.207954468120086" lon="14.220499472019524"><ele>418.0</ele><time>2026-04-12T09:44:31.999Z</time></trkpt><trkpt lat="42.20823863025075" lon="14.219882225726785"><ele>416.4</ele><time>2026-04-12T09:44:32.999Z</time></trkpt><trkpt lat="42.208308032076964" lon="14.219816606253987"><ele>414.79999999999995</ele><time>2026-04-12T09:44:33.999Z</time></trkpt><trkpt lat="42.20844533293926" lon="14.219740209875365"><ele>413.2</ele><time>2026-04-12T09:44:35.999Z</time></trkpt><trkpt lat="42.20852444520325" lon="14.219686515444305"><ele>411.6</ele><time>2026-04-12T09:44:36.999Z</time></trkpt><trkpt lat="42.208604746202326" lon="14.219623678298941"><ele>410.0</ele><time>2026-04-12T09:44:37.999Z</time></trkpt><trkpt lat="42.20875219324695" lon="14.219557766819056"><ele>410.0</ele><time>2026-04-12T09:44:38.999Z</time></trkpt><trkpt lat="42.2089723673832" lon="14.21970566524326"><ele>410.0</ele><time>2026-04-12T09:44:39.999Z</time></trkpt><trkpt lat="42.208972985805254" lon="14.219943553347358"><ele>410.0</ele><time>2026-04-12T09:44:40.999Z</time></trkpt><trkpt lat="42.20901330837313" lon="14.220026555650643"><ele>407.4</ele><time>2026-04-12T09:44:41.999Z</time></trkpt><trkpt lat="42.20905241713803" lon="14.22010288030021"><ele>404.8</ele><time>2026-04-12T09:44:42.999Z</time></trkpt><trkpt lat="42.20923681555248" lon="14.220041631662523"><ele>402.20000000000005</ele><time>2026-04-12T09:44:43.999Z</time></trkpt><trkpt lat="42.209309369727826" lon="14.220060333640681"><ele>399.6</ele><time>2026-04-12T09:44:44.999Z</time></trkpt><trkpt lat="42.20937579641618" lon="14.220065301366498"><ele>397.0</ele><time>2026-04-12T09:44:45.999Z</time></trkpt><trkpt lat="42.20945606733845" lon="14.220138461100259"><ele>397.0</ele><time>2026-04-12T09:44:46.999Z</time></trkpt><trkpt lat="42.209557176639926" lon="14.22002948510623"><ele>397.0</ele><time>2026-04-12T09:44:48.999Z</time></trkpt><trkpt lat="42.20962219720477" lon="14.219936952008453"><ele>397.0</ele><time>2026-04-12T09:44:49.999Z</time></trkpt><trkpt lat="42.20968138141887" lon="14.219820401725592"><ele>397.0</ele><time>2026-04-12T09:44:50.999Z</time></trkpt><trkpt lat="42.209730528990505" lon="14.219709829552174"><ele>397.0</ele><time>2026-04-12T09:44:51.999Z</time></trkpt><trkpt lat="42.20976539793515" lon="14.219597047173732"><ele>397.0</ele><time>2026-04-12T09:44:52.999Z</time></trkpt><trkpt lat="42.209771610507374" lon="14.219482019041365"><ele>397.0</ele><time>2026-04-12T09:44:53.999Z</time></trkpt><trkpt lat="42.2097791927009" lon="14.219364554551033"><ele>397.0</ele><time>2026-04-12T09:44:55.998Z</time></trkpt><trkpt lat="42.2098370027773" lon="14.219533196621317"><ele>397.0</ele><time>2026-04-12T09:45:00.998Z</time></trkpt><trkpt lat="42.209807886583285" lon="14.219653158063318"><ele>397.0</ele><time>2026-04-12T09:45:01.998Z</time></trkpt><trkpt lat="42.20980655595015" lon="14.219777703350077"><ele>397.0</ele><time>2026-04-12T09:45:02.998Z</time></trkpt><trkpt lat="42.20980069732502" lon="14.219922109085708"><ele>397.0</ele><time>2026-04-12T09:45:04Z</time></trkpt><trkpt lat="42.209790816305826" lon="14.220067200095775"><ele>397.0</ele><time>2026-04-12T09:45:05Z</time></trkpt><trkpt lat="42.209783996378995" lon="14.220228465098382"><ele>397.0</ele><time>2026-04-12T09:45:06Z</time></trkpt><trkpt lat="42.209780611229114" lon="14.220388901786478"><ele>397.0</ele><time>2026-04-12T09:45:07Z</time></trkpt><trkpt lat="42.20978960892595" lon="14.220518344379247"><ele>397.0</ele><time>2026-04-12T09:45:08Z</time></trkpt><trkpt lat="42.209815527695476" lon="14.220622340258313"><ele>397.0</ele><time>2026-04-12T09:45:09Z</time></trkpt><trkpt lat="42.20982651090901" lon="14.22071831309997"><ele>397.0</ele><time>2026-04-12T09:45:11Z</time></trkpt><trkpt lat="42.21010074575737" lon="14.220583012621"><ele>395.83333333333337</ele><time>2026-04-12T09:45:15Z</time></trkpt><trkpt lat="42.21016836522934" lon="14.220549082214433"><ele>394.6666666666667</ele><time>2026-04-12T09:45:16Z</time></trkpt><trkpt lat="42.21028866038249" lon="14.220514708726478"><ele>393.5</ele><time>2026-04-12T09:45:18Z</time></trkpt><trkpt lat="42.21037868733565" lon="14.220540399202063"><ele>392.33333333333337</ele><time>2026-04-12T09:45:21Z</time></trkpt><trkpt lat="42.210467571001814" lon="14.220560536534968"><ele>391.1666666666667</ele><time>2026-04-12T09:45:23Z</time></trkpt><trkpt lat="42.21050058474168" lon="14.220643087376237"><ele>390.0</ele><time>2026-04-12T09:45:25Z</time></trkpt><trkpt lat="42.21046348651307" lon="14.220791457594952"><ele>390.0</ele><time>2026-04-12T09:45:27Z</time></trkpt><trkpt lat="42.21047994193422" lon="14.22087708549314"><ele>390.0</ele><time>2026-04-12T09:45:29Z</time></trkpt><trkpt lat="42.210580024201704" lon="14.220884787275782"><ele>390.0</ele><time>2026-04-12T09:45:31Z</time></trkpt><trkpt lat="42.210652320439664" lon="14.220837637500088"><ele>390.0</ele><time>2026-04-12T09:45:32Z</time></trkpt><trkpt lat="42.2107160554683" lon="14.220824788760623"><ele>390.0</ele><time>2026-04-12T09:45:33Z</time></trkpt><trkpt lat="42.210786394325424" lon="14.220814955341112"><ele>390.0</ele><time>2026-04-12T09:45:34Z</time></trkpt><trkpt lat="42.210857834571314" lon="14.2208038718126"><ele>388.8</ele><time>2026-04-12T09:45:35Z</time></trkpt><trkpt lat="42.2109693875262" lon="14.220773948233926"><ele>387.6</ele><time>2026-04-12T09:45:37Z</time></trkpt><trkpt lat="42.211076319959034" lon="14.220754662915283"><ele>386.4</ele><time>2026-04-12T09:45:39Z</time></trkpt><trkpt lat="42.21119305561562" lon="14.220724967974666"><ele>385.2</ele><time>2026-04-12T09:45:41Z</time></trkpt><trkpt lat="42.21125608269233" lon="14.220709482387429"><ele>384.0</ele><time>2026-04-12T09:45:42Z</time></trkpt><trkpt lat="42.21136887714165" lon="14.220688690677406"><ele>384.0</ele><time>2026-04-12T09:45:44Z</time></trkpt><trkpt lat="42.21147080697601" lon="14.220649993241512"><ele>384.0</ele><time>2026-04-12T09:45:46Z</time></trkpt><trkpt lat="42.211567719921604" lon="14.220620978958666"><ele>384.0</ele><time>2026-04-12T09:45:48Z</time></trkpt><trkpt lat="42.211699294772416" lon="14.220595304140993"><ele>384.0</ele><time>2026-04-12T09:45:50Z</time></trkpt><trkpt lat="42.211762365618526" lon="14.220576880118289"><ele>384.0</ele><time>2026-04-12T09:45:51Z</time></trkpt><trkpt lat="42.21184442874297" lon="14.22053622768489"><ele>381.6666666666667</ele><time>2026-04-12T09:45:53Z</time></trkpt><trkpt lat="42.21183718350131" lon="14.220432310868274"><ele>379.3333333333333</ele><time>2026-04-12T09:45:55Z</time></trkpt><trkpt lat="42.21181397521831" lon="14.220251436468288"><ele>377.0</ele><time>2026-04-12T09:45:57Z</time></trkpt><trkpt lat="42.211807128497426" lon="14.220161079558864"><ele>374.66666666666663</ele><time>2026-04-12T09:45:58Z</time></trkpt><trkpt lat="42.211882961637016" lon="14.220106838170556"><ele>372.3333333333333</ele><time>2026-04-12T09:46:01.999Z</time></trkpt><trkpt lat="42.2119247790388" lon="14.220174574937099"><ele>370.0</ele><time>2026-04-12T09:46:04.999Z</time></trkpt><trkpt lat="42.21199827244845" lon="14.22022914195459"><ele>370.0</ele><time>2026-04-12T09:46:07.999Z</time></trkpt><trkpt lat="42.21208377627432" lon="14.220219924164601"><ele>370.0</ele><time>2026-04-12T09:46:10.999Z</time></trkpt><trkpt lat="42.212146867379964" lon="14.220207750262464"><ele>370.0</ele><time>2026-04-12T09:46:12.999Z</time></trkpt><trkpt lat="42.212243357974415" lon="14.220234737941144"><ele>370.0</ele><time>2026-04-12T09:46:17.999Z</time></trkpt><trkpt lat="42.212272494736325" lon="14.220319171694763"><ele>370.0</ele><time>2026-04-12T09:46:19.999Z</time></trkpt><trkpt lat="42.21230267284382" lon="14.220675984950116"><ele>372.0</ele><time>2026-04-12T09:46:22.999Z</time></trkpt><trkpt lat="42.212320338488375" lon="14.220778195392766"><ele>374.0</ele><time>2026-04-12T09:46:23.999Z</time></trkpt><trkpt lat="42.21238647935704" lon="14.220871402603299"><ele>376.0</ele><time>2026-04-12T09:46:25.999Z</time></trkpt><trkpt lat="42.21247424763104" lon="14.220762759764547"><ele>378.0</ele><time>2026-04-12T09:46:27.999Z</time></trkpt><trkpt lat="42.21255763446721" lon="14.220714408176486"><ele>380.0</ele><time>2026-04-12T09:46:28.999Z</time></trkpt><trkpt lat="42.212699974732736" lon="14.220866417846299"><ele>381.0</ele><time>2026-04-12T09:46:29.999Z</time></trkpt><trkpt lat="42.212805020820944" lon="14.220793926287103"><ele>382.0</ele><time>2026-04-12T09:46:31.999Z</time></trkpt><trkpt lat="42.2128664282312" lon="14.22075201897662"><ele>383.0</ele><time>2026-04-12T09:46:36.999Z</time></trkpt><trkpt lat="42.21298837341409" lon="14.220668797576113"><ele>384.0</ele><time>2026-04-12T09:46:39.999Z</time></trkpt><trkpt lat="42.21305638162027" lon="14.220622385526855"><ele>385.0</ele><time>2026-04-12T09:46:41.999Z</time></trkpt><trkpt lat="42.21312031035007" lon="14.220578757218176"><ele>383.2</ele><time>2026-04-12T09:46:42.999Z</time></trkpt><trkpt lat="42.213226141774854" lon="14.220504321988274"><ele>381.4</ele><time>2026-04-12T09:46:45.999Z</time></trkpt><trkpt lat="42.21332095976746" lon="14.220435144343892"><ele>379.6</ele><time>2026-04-12T09:46:47.999Z</time></trkpt><trkpt lat="42.21338041768716" lon="14.220389668360287"><ele>377.8</ele><time>2026-04-12T09:46:48.999Z</time></trkpt><trkpt lat="42.21344875631646" lon="14.22033570160799"><ele>376.0</ele><time>2026-04-12T09:46:49.999Z</time></trkpt><trkpt lat="42.21351742855364" lon="14.220279864268594"><ele>376.0</ele><time>2026-04-12T09:46:50.999Z</time></trkpt><trkpt lat="42.21357656369649" lon="14.220230724179237"><ele>376.0</ele><time>2026-04-12T09:46:51.999Z</time></trkpt><trkpt lat="42.21368598334907" lon="14.220133487022567"><ele>376.0</ele><time>2026-04-12T09:46:53.999Z</time></trkpt><trkpt lat="42.21373824986952" lon="14.22008292001402"><ele>376.0</ele><time>2026-04-12T09:46:54.999Z</time></trkpt><trkpt lat="42.21384273981766" lon="14.219976926028888"><ele>376.0</ele><time>2026-04-12T09:46:56.999Z</time></trkpt><trkpt lat="42.213893492726896" lon="14.21992218441136"><ele>377.8</ele><time>2026-04-12T09:46:57.999Z</time></trkpt><trkpt lat="42.21399013340167" lon="14.2198176803103"><ele>379.6</ele><time>2026-04-12T09:46:59.998Z</time></trkpt><trkpt lat="42.21407417559954" lon="14.219719843153165"><ele>381.4</ele><time>2026-04-12T09:47:01.998Z</time></trkpt><trkpt lat="42.21416218569707" lon="14.219608325311274"><ele>383.2</ele><time>2026-04-12T09:47:03.998Z</time></trkpt><trkpt lat="42.214207589600996" lon="14.219549411934405"><ele>385.0</ele><time>2026-04-12T09:47:04.998Z</time></trkpt><trkpt lat="42.21425570580511" lon="14.219486979366975"><ele>381.4</ele><time>2026-04-12T09:47:05.998Z</time></trkpt><trkpt lat="42.2143146091717" lon="14.219408267904807"><ele>377.8</ele><time>2026-04-12T09:47:06.998Z</time></trkpt><trkpt lat="42.21436612517517" lon="14.219337653927345"><ele>374.20000000000005</ele><time>2026-04-12T09:47:07.998Z</time></trkpt><trkpt lat="42.21445174548831" lon="14.219220293131091"><ele>370.6</ele><time>2026-04-12T09:47:10Z</time></trkpt><trkpt lat="42.2144970253647" lon="14.219158227082385"><ele>367.0</ele><time>2026-04-12T09:47:11Z</time></trkpt><trkpt lat="42.214584224616885" lon="14.219038701681013"><ele>366.0</ele><time>2026-04-12T09:47:13Z</time></trkpt><trkpt lat="42.21463901671742" lon="14.218963596767978"><ele>365.0</ele><time>2026-04-12T09:47:14Z</time></trkpt><trkpt lat="42.21469490625972" lon="14.218886987932962"><ele>364.0</ele><time>2026-04-12T09:47:15Z</time></trkpt><trkpt lat="42.21475163550181" lon="14.218809228207018"><ele>363.0</ele><time>2026-04-12T09:47:16Z</time></trkpt><trkpt lat="42.21480462591066" lon="14.218736475170891"><ele>362.0</ele><time>2026-04-12T09:47:17Z</time></trkpt><trkpt lat="42.21486291797165" lon="14.218662133252922"><ele>361.0</ele><time>2026-04-12T09:47:18Z</time></trkpt><trkpt lat="42.21492019086017" lon="14.218590580106417"><ele>361.0</ele><time>2026-04-12T09:47:19Z</time></trkpt><trkpt lat="42.21497732140541" lon="14.218524218128957"><ele>361.0</ele><time>2026-04-12T09:47:20Z</time></trkpt><trkpt lat="42.215075334561384" lon="14.21841312235099"><ele>361.0</ele><time>2026-04-12T09:47:22Z</time></trkpt><trkpt lat="42.215134320839056" lon="14.218348265037895"><ele>361.0</ele><time>2026-04-12T09:47:23Z</time></trkpt><trkpt lat="42.21520223655065" lon="14.218275647252563"><ele>361.0</ele><time>2026-04-12T09:47:24Z</time></trkpt><trkpt lat="42.21525708390048" lon="14.218218356474367"><ele>361.0</ele><time>2026-04-12T09:47:25Z</time></trkpt><trkpt lat="42.215308462927425" lon="14.21816595475341"><ele>359.5</ele><time>2026-04-12T09:47:26Z</time></trkpt><trkpt lat="42.2153701645864" lon="14.218105088071088"><ele>358.0</ele><time>2026-04-12T09:47:27Z</time></trkpt><trkpt lat="42.21544797818124" lon="14.218031142723213"><ele>356.5</ele><time>2026-04-12T09:47:28Z</time></trkpt><trkpt lat="42.21552388633935" lon="14.217961613927487"><ele>355.0</ele><time>2026-04-12T09:47:29Z</time></trkpt><trkpt lat="42.215598225034654" lon="14.217897384875815"><ele>353.5</ele><time>2026-04-12T09:47:30Z</time></trkpt><trkpt lat="42.21567330938413" lon="14.217837227426129"><ele>352.0</ele><time>2026-04-12T09:47:31Z</time></trkpt><trkpt lat="42.21573759158569" lon="14.217788381737035"><ele>352.0</ele><time>2026-04-12T09:47:32Z</time></trkpt><trkpt lat="42.215827987779946" lon="14.217724058611845"><ele>352.0</ele><time>2026-04-12T09:47:33Z</time></trkpt><trkpt lat="42.21592098894654" lon="14.217661004717774"><ele>352.0</ele><time>2026-04-12T09:47:34Z</time></trkpt><trkpt lat="42.21601680509769" lon="14.217596707677002"><ele>352.0</ele><time>2026-04-12T09:47:35Z</time></trkpt><trkpt lat="42.216106117724095" lon="14.217541013155934"><ele>352.0</ele><time>2026-04-12T09:47:36Z</time></trkpt><trkpt lat="42.21619551346942" lon="14.217484451943728"><ele>352.0</ele><time>2026-04-12T09:47:37Z</time></trkpt><trkpt lat="42.21629341086629" lon="14.217422511819004"><ele>352.0</ele><time>2026-04-12T09:47:38Z</time></trkpt><trkpt lat="42.21638013826038" lon="14.21736763891653"><ele>352.0</ele><time>2026-04-12T09:47:39Z</time></trkpt><trkpt lat="42.21644215946705" lon="14.21732839778607"><ele>352.0</ele><time>2026-04-12T09:47:41Z</time></trkpt><trkpt lat="42.21651116873145" lon="14.217284735259973"><ele>352.0</ele><time>2026-04-12T09:47:43Z</time></trkpt><trkpt lat="42.21660505209873" lon="14.217225334655904"><ele>350.0</ele><time>2026-04-12T09:47:45Z</time></trkpt><trkpt lat="42.216687083906905" lon="14.217173434327368"><ele>348.0</ele><time>2026-04-12T09:47:47Z</time></trkpt><trkpt lat="42.21677001147773" lon="14.217120965580701"><ele>346.0</ele><time>2026-04-12T09:47:49Z</time></trkpt><trkpt lat="42.2168875527497" lon="14.217046596584064"><ele>344.0</ele><time>2026-04-12T09:47:51Z</time></trkpt><trkpt lat="42.216955701086235" lon="14.217003478811936"><ele>342.0</ele><time>2026-04-12T09:47:52Z</time></trkpt><trkpt lat="42.217024590952" lon="14.21695989186732"><ele>342.0</ele><time>2026-04-12T09:47:53Z</time></trkpt><trkpt lat="42.217085587536666" lon="14.216921298980877"><ele>342.0</ele><time>2026-04-12T09:47:54Z</time></trkpt><trkpt lat="42.21715222823495" lon="14.216879135087781"><ele>342.0</ele><time>2026-04-12T09:47:55Z</time></trkpt><trkpt lat="42.217217182898416" lon="14.216838037895569"><ele>342.0</ele><time>2026-04-12T09:47:56Z</time></trkpt><trkpt lat="42.21729245829326" lon="14.216790410726828"><ele>342.0</ele><time>2026-04-12T09:47:57Z</time></trkpt><trkpt lat="42.217383602614966" lon="14.216732743395669"><ele>342.0</ele><time>2026-04-12T09:47:58Z</time></trkpt><trkpt lat="42.21745874755171" lon="14.216685198667177"><ele>342.3333333333333</ele><time>2026-04-12T09:47:59Z</time></trkpt><trkpt lat="42.217535781328586" lon="14.216635205299186"><ele>342.6666666666667</ele><time>2026-04-12T09:48:00Z</time></trkpt><trkpt lat="42.217600380044885" lon="14.216592633219399"><ele>343.0</ele><time>2026-04-12T09:48:00.999Z</time></trkpt><trkpt lat="42.21765859715954" lon="14.216547687348992"><ele>343.33333333333337</ele><time>2026-04-12T09:48:03.999Z</time></trkpt><trkpt lat="42.21762891712649" lon="14.216448550846774"><ele>343.6666666666667</ele><time>2026-04-12T09:48:04.999Z</time></trkpt><trkpt lat="42.21765896950759" lon="14.216565404519109"><ele>344.0</ele><time>2026-04-12T09:48:05.999Z</time></trkpt><trkpt lat="42.21769035514029" lon="14.216661929338208"><ele>344.0</ele><time>2026-04-12T09:48:06.999Z</time></trkpt><trkpt lat="42.21772384630292" lon="14.216754967838353"><ele>344.0</ele><time>2026-04-12T09:48:07.999Z</time></trkpt><trkpt lat="42.21777132043861" lon="14.21681775930897"><ele>344.0</ele><time>2026-04-12T09:48:08.999Z</time></trkpt><trkpt lat="42.21774340350005" lon="14.216956442656866"><ele>344.0</ele><time>2026-04-12T09:48:10.999Z</time></trkpt><trkpt lat="42.2176993027762" lon="14.217091788468565"><ele>344.0</ele><time>2026-04-12T09:48:12.999Z</time></trkpt><trkpt lat="42.21762612535456" lon="14.21713149553647"><ele>344.0</ele><time>2026-04-12T09:48:14.999Z</time></trkpt><trkpt lat="42.2177947015521" lon="14.217077906644306"><ele>344.0</ele><time>2026-04-12T09:48:17.999Z</time></trkpt><trkpt lat="42.21792366543757" lon="14.217024107740109"><ele>344.0</ele><time>2026-04-12T09:48:19.999Z</time></trkpt><trkpt lat="42.21803183252019" lon="14.217011357616983"><ele>344.0</ele><time>2026-04-12T09:48:21.999Z</time></trkpt><trkpt lat="42.218138136619814" lon="14.21705387111166"><ele>344.0</ele><time>2026-04-12T09:48:23.999Z</time></trkpt><trkpt lat="42.2181931858643" lon="14.217132020634896"><ele>344.0</ele><time>2026-04-12T09:48:24.999Z</time></trkpt><trkpt lat="42.21824872163246" lon="14.21719832818211"><ele>344.6</ele><time>2026-04-12T09:48:25.999Z</time></trkpt><trkpt lat="42.218340598295725" lon="14.217234607473962"><ele>345.2</ele><time>2026-04-12T09:48:27.999Z</time></trkpt><trkpt lat="42.21836051203151" lon="14.217140821547328"><ele>345.8</ele><time>2026-04-12T09:48:28.999Z</time></trkpt><trkpt lat="42.21840133531854" lon="14.21703315867932"><ele>346.40000000000003</ele><time>2026-04-12T09:48:29.999Z</time></trkpt><trkpt lat="42.21847907509047" lon="14.216895951194111"><ele>347.0</ele><time>2026-04-12T09:48:30.999Z</time></trkpt><trkpt lat="42.218584329827564" lon="14.216773941000781"><ele>347.0</ele><time>2026-04-12T09:48:31.999Z</time></trkpt><trkpt lat="42.21870665671013" lon="14.216652745455274"><ele>347.0</ele><time>2026-04-12T09:48:32.999Z</time></trkpt><trkpt lat="42.218838238704" lon="14.21652943642592"><ele>347.0</ele><time>2026-04-12T09:48:33.999Z</time></trkpt><trkpt lat="42.21897234312623" lon="14.216390833212904"><ele>345.0</ele><time>2026-04-12T09:48:34.999Z</time></trkpt><trkpt lat="42.21909111104697" lon="14.216237360429831"><ele>343.0</ele><time>2026-04-12T09:48:35.999Z</time></trkpt><trkpt lat="42.21919778709622" lon="14.216081851664294"><ele>341.0</ele><time>2026-04-12T09:48:36.999Z</time></trkpt><trkpt lat="42.21930387266142" lon="14.215943521097556"><ele>341.0</ele><time>2026-04-12T09:48:37.999Z</time></trkpt><trkpt lat="42.21938161673644" lon="14.215747864225078"><ele>341.0</ele><time>2026-04-12T09:48:38.999Z</time></trkpt><trkpt lat="42.219461642078635" lon="14.215520160602543"><ele>341.0</ele><time>2026-04-12T09:48:39.999Z</time></trkpt><trkpt lat="42.219549090359536" lon="14.215274168088458"><ele>337.6666666666667</ele><time>2026-04-12T09:48:40.999Z</time></trkpt><trkpt lat="42.21964525440337" lon="14.215053769478194"><ele>334.3333333333333</ele><time>2026-04-12T09:48:41.999Z</time></trkpt><trkpt lat="42.219746592139664" lon="14.214857040760084"><ele>331.0</ele><time>2026-04-12T09:48:42.999Z</time></trkpt><trkpt lat="42.21982053618454" lon="14.21465682053127"><ele>330.0</ele><time>2026-04-12T09:48:43.999Z</time></trkpt><trkpt lat="42.21990361706044" lon="14.214473127371518"><ele>329.0</ele><time>2026-04-12T09:48:44.999Z</time></trkpt><trkpt lat="42.21997009621015" lon="14.214298297460827"><ele>328.0</ele><time>2026-04-12T09:48:45.999Z</time></trkpt><trkpt lat="42.220040096365345" lon="14.214138313346822"><ele>327.0</ele><time>2026-04-12T09:48:46.999Z</time></trkpt><trkpt lat="42.22007074819065" lon="14.213984374542818"><ele>325.8</ele><time>2026-04-12T09:48:47.999Z</time></trkpt><trkpt lat="42.22012476477529" lon="14.213879211610715"><ele>324.6</ele><time>2026-04-12T09:48:48.999Z</time></trkpt><trkpt lat="42.220146973628054" lon="14.213786568400378"><ele>323.40000000000003</ele><time>2026-04-12T09:48:49.999Z</time></trkpt><trkpt lat="42.220082897816944" lon="14.213616595867808"><ele>322.20000000000005</ele><time>2026-04-12T09:48:51.999Z</time></trkpt><trkpt lat="42.21997060730088" lon="14.213599296766692"><ele>321.0</ele><time>2026-04-12T09:48:52.999Z</time></trkpt><trkpt lat="42.21990601784021" lon="14.213547237653216"><ele>321.0</ele><time>2026-04-12T09:48:53.999Z</time></trkpt><trkpt lat="42.219848369838914" lon="14.213430675710258"><ele>321.0</ele><time>2026-04-12T09:48:55.999Z</time></trkpt><trkpt lat="42.21988408152441" lon="14.213336097810439"><ele>321.0</ele><time>2026-04-12T09:48:56.999Z</time></trkpt><trkpt lat="42.219983829778776" lon="14.21325593887781"><ele>321.0</ele><time>2026-04-12T09:48:57.999Z</time></trkpt><trkpt lat="42.220062272593054" lon="14.213129858904045"><ele>321.0</ele><time>2026-04-12T09:48:58.999Z</time></trkpt><trkpt lat="42.22014582437973" lon="14.212997028834005"><ele>321.25</ele><time>2026-04-12T09:48:59.999Z</time></trkpt><trkpt lat="42.22024368295329" lon="14.212863431075306"><ele>321.5</ele><time>2026-04-12T09:49:00.999Z</time></trkpt><trkpt lat="42.22035552003937" lon="14.21273853327312"><ele>321.75</ele><time>2026-04-12T09:49:01.998Z</time></trkpt><trkpt lat="42.22044910276805" lon="14.21261783149272"><ele>322.0</ele><time>2026-04-12T09:49:02.998Z</time></trkpt><trkpt lat="42.2205284672066" lon="14.21251333099532"><ele>322.0</ele><time>2026-04-12T09:49:03.998Z</time></trkpt><trkpt lat="42.22061206785505" lon="14.212404040228245"><ele>322.0</ele><time>2026-04-12T09:49:04.998Z</time></trkpt><trkpt lat="42.22070796459417" lon="14.21228421867691"><ele>322.0</ele><time>2026-04-12T09:49:05.998Z</time></trkpt><trkpt lat="42.220824725808264" lon="14.21214240176667"><ele>322.0</ele><time>2026-04-12T09:49:06.998Z</time></trkpt><trkpt lat="42.22092405143075" lon="14.212018529084657"><ele>321.5</ele><time>2026-04-12T09:49:07.998Z</time></trkpt><trkpt lat="42.22102987593554" lon="14.211892794619976"><ele>321.0</ele><time>2026-04-12T09:49:08.998Z</time></trkpt><trkpt lat="42.22114956638663" lon="14.211780331242013"><ele>320.5</ele><time>2026-04-12T09:49:09.998Z</time></trkpt><trkpt lat="42.22128641284797" lon="14.211682783682491"><ele>320.0</ele><time>2026-04-12T09:49:10.998Z</time></trkpt><trkpt lat="42.22143097054095" lon="14.211599648353761"><ele>319.0</ele><time>2026-04-12T09:49:11.998Z</time></trkpt><trkpt lat="42.22155655084762" lon="14.21153687935039"><ele>318.0</ele><time>2026-04-12T09:49:12.998Z</time></trkpt><trkpt lat="42.221675755692985" lon="14.211476223627841"><ele>317.0</ele><time>2026-04-12T09:49:13.998Z</time></trkpt><trkpt lat="42.22181468821329" lon="14.211411957256072"><ele>316.0</ele><time>2026-04-12T09:49:15Z</time></trkpt><trkpt lat="42.22193544835795" lon="14.211340899064453"><ele>315.3333333333333</ele><time>2026-04-12T09:49:16Z</time></trkpt><trkpt lat="42.22207759258448" lon="14.211268070563882"><ele>314.6666666666667</ele><time>2026-04-12T09:49:17Z</time></trkpt><trkpt lat="42.22222349145376" lon="14.211220014560604"><ele>314.0</ele><time>2026-04-12T09:49:18Z</time></trkpt><trkpt lat="42.22238501538527" lon="14.211150233833866"><ele>312.6666666666667</ele><time>2026-04-12T09:49:19Z</time></trkpt><trkpt lat="42.22252809683291" lon="14.211069666087239"><ele>311.3333333333333</ele><time>2026-04-12T09:49:20Z</time></trkpt><trkpt lat="42.22268403454199" lon="14.210948591701612"><ele>310.0</ele><time>2026-04-12T09:49:21Z</time></trkpt><trkpt lat="42.22283603061481" lon="14.210840272900434"><ele>310.0</ele><time>2026-04-12T09:49:22Z</time></trkpt><trkpt lat="42.222949446800065" lon="14.210734994167025"><ele>310.0</ele><time>2026-04-12T09:49:23Z</time></trkpt><trkpt lat="42.223047752574146" lon="14.210644007930158"><ele>310.0</ele><time>2026-04-12T09:49:24Z</time></trkpt><trkpt lat="42.22314564476413" lon="14.210543056326143"><ele>310.0</ele><time>2026-04-12T09:49:25Z</time></trkpt><trkpt lat="42.22324698865709" lon="14.210434045364718"><ele>309.75</ele><time>2026-04-12T09:49:26Z</time></trkpt><trkpt lat="42.22334059089135" lon="14.210321009488924"><ele>309.5</ele><time>2026-04-12T09:49:27Z</time></trkpt><trkpt lat="42.2234320475311" lon="14.210193350918177"><ele>309.25</ele><time>2026-04-12T09:49:28Z</time></trkpt><trkpt lat="42.223521399454526" lon="14.210074285039067"><ele>309.0</ele><time>2026-04-12T09:49:29Z</time></trkpt><trkpt lat="42.223604355431895" lon="14.209970802445484"><ele>309.0</ele><time>2026-04-12T09:49:30Z</time></trkpt><trkpt lat="42.2236923653797" lon="14.209910646696967"><ele>309.0</ele><time>2026-04-12T09:49:31Z</time></trkpt><trkpt lat="42.22378589540203" lon="14.209867447157647"><ele>309.0</ele><time>2026-04-12T09:49:32Z</time></trkpt><trkpt lat="42.223890087493125" lon="14.209856707781515"><ele>309.0</ele><time>2026-04-12T09:49:33Z</time></trkpt><trkpt lat="42.22400892723338" lon="14.209861542877418"><ele>309.0</ele><time>2026-04-12T09:49:34Z</time></trkpt><trkpt lat="42.224117302371866" lon="14.209878447873269"><ele>309.0</ele><time>2026-04-12T09:49:35Z</time></trkpt><trkpt lat="42.22422002491593" lon="14.209880618132107"><ele>309.0</ele><time>2026-04-12T09:49:36Z</time></trkpt><trkpt lat="42.224312747240944" lon="14.209886340912172"><ele>309.0</ele><time>2026-04-12T09:49:37Z</time></trkpt><trkpt lat="42.22442733677087" lon="14.209804234556582"><ele>309.0</ele><time>2026-04-12T09:49:38Z</time></trkpt><trkpt lat="42.224495253237386" lon="14.209659006203587"><ele>309.4</ele><time>2026-04-12T09:49:39Z</time></trkpt><trkpt lat="42.22458598692488" lon="14.209578856803095"><ele>309.79999999999995</ele><time>2026-04-12T09:49:40Z</time></trkpt><trkpt lat="42.22462566848775" lon="14.209504334212207"><ele>310.20000000000005</ele><time>2026-04-12T09:49:41Z</time></trkpt><trkpt lat="42.22469128792355" lon="14.209414359192465"><ele>310.6</ele><time>2026-04-12T09:49:42Z</time></trkpt><trkpt lat="42.22476647963601" lon="14.209327736244385"><ele>311.0</ele><time>2026-04-12T09:49:43Z</time></trkpt><trkpt lat="42.22487805535874" lon="14.209234066903054"><ele>310.0</ele><time>2026-04-12T09:49:44Z</time></trkpt><trkpt lat="42.22499061451315" lon="14.209188516357678"><ele>309.0</ele><time>2026-04-12T09:49:45Z</time></trkpt><trkpt lat="42.22510822805974" lon="14.209163801344232"><ele>308.0</ele><time>2026-04-12T09:49:46Z</time></trkpt><trkpt lat="42.22524285025017" lon="14.209134188395975"><ele>307.0</ele><time>2026-04-12T09:49:47Z</time></trkpt><trkpt lat="42.22537032388819" lon="14.209088726290977"><ele>307.0</ele><time>2026-04-12T09:49:48Z</time></trkpt><trkpt lat="42.225471114170546" lon="14.209000155378137"><ele>307.0</ele><time>2026-04-12T09:49:49Z</time></trkpt><trkpt lat="42.22556831160233" lon="14.208934905993775"><ele>307.0</ele><time>2026-04-12T09:49:50Z</time></trkpt><trkpt lat="42.22570618305178" lon="14.208866317688683"><ele>307.0</ele><time>2026-04-12T09:49:51Z</time></trkpt><trkpt lat="42.22583598923364" lon="14.208814991582235"><ele>306.2</ele><time>2026-04-12T09:49:52Z</time></trkpt><trkpt lat="42.22595735273019" lon="14.208780462465787"><ele>305.4</ele><time>2026-04-12T09:49:53Z</time></trkpt><trkpt lat="42.226056271769295" lon="14.208769479194952"><ele>304.6</ele><time>2026-04-12T09:49:54Z</time></trkpt><trkpt lat="42.22613165156894" lon="14.20873089052938"><ele>303.8</ele><time>2026-04-12T09:49:55Z</time></trkpt><trkpt lat="42.22619681102558" lon="14.208665326638354"><ele>303.0</ele><time>2026-04-12T09:49:56Z</time></trkpt><trkpt lat="42.22627032416904" lon="14.208531383993177"><ele>303.0</ele><time>2026-04-12T09:49:57Z</time></trkpt><trkpt lat="42.226328841068074" lon="14.208379713639127"><ele>303.0</ele><time>2026-04-12T09:49:58Z</time></trkpt><trkpt lat="42.226386515179684" lon="14.20822645679403"><ele>303.0</ele><time>2026-04-12T09:49:59Z</time></trkpt><trkpt lat="42.22643233887379" lon="14.208096018402168"><ele>303.0</ele><time>2026-04-12T09:50:00Z</time></trkpt><trkpt lat="42.22648123114333" lon="14.207964303747046"><ele>302.2</ele><time>2026-04-12T09:50:01Z</time></trkpt><trkpt lat="42.22653891211414" lon="14.207834587307566"><ele>301.4</ele><time>2026-04-12T09:50:02Z</time></trkpt><trkpt lat="42.226598618868564" lon="14.20772897051502"><ele>300.59999999999997</ele><time>2026-04-12T09:50:03Z</time></trkpt><trkpt lat="42.226668434393495" lon="14.207619072172662"><ele>299.8</ele><time>2026-04-12T09:50:04Z</time></trkpt><trkpt lat="42.22675473573382" lon="14.207505531618231"><ele>299.0</ele><time>2026-04-12T09:50:04.999Z</time></trkpt><trkpt lat="42.226856089219154" lon="14.20740958299938"><ele>299.0</ele><time>2026-04-12T09:50:05.999Z</time></trkpt><trkpt lat="42.22697023063089" lon="14.207335022301868"><ele>299.0</ele><time>2026-04-12T09:50:06.999Z</time></trkpt><trkpt lat="42.22709406975288" lon="14.207257096453787"><ele>299.0</ele><time>2026-04-12T09:50:07.999Z</time></trkpt><trkpt lat="42.22723078856551" lon="14.207175787586522"><ele>299.0</ele><time>2026-04-12T09:50:08.999Z</time></trkpt><trkpt lat="42.22735117386021" lon="14.207093853239732"><ele>297.75</ele><time>2026-04-12T09:50:09.999Z</time></trkpt><trkpt lat="42.22745073683309" lon="14.20700602464834"><ele>296.5</ele><time>2026-04-12T09:50:10.999Z</time></trkpt><trkpt lat="42.22753133999356" lon="14.20689667599345"><ele>295.25</ele><time>2026-04-12T09:50:11.999Z</time></trkpt><trkpt lat="42.22761485931862" lon="14.20680752349261"><ele>294.0</ele><time>2026-04-12T09:50:12.999Z</time></trkpt><trkpt lat="42.22764397914119" lon="14.206649315747645"><ele>293.25</ele><time>2026-04-12T09:50:13.999Z</time></trkpt><trkpt lat="42.22768920996704" lon="14.206486871971167"><ele>292.5</ele><time>2026-04-12T09:50:14.999Z</time></trkpt><trkpt lat="42.2277428435064" lon="14.206314179060346"><ele>291.75</ele><time>2026-04-12T09:50:15.999Z</time></trkpt><trkpt lat="42.227786553540774" lon="14.206153538989605"><ele>291.0</ele><time>2026-04-12T09:50:16.999Z</time></trkpt><trkpt lat="42.227822506922614" lon="14.206017735224133"><ele>291.0</ele><time>2026-04-12T09:50:17.999Z</time></trkpt><trkpt lat="42.22784189283324" lon="14.205915914985626"><ele>291.0</ele><time>2026-04-12T09:50:18.999Z</time></trkpt><trkpt lat="42.2278377705289" lon="14.205794923758626"><ele>291.0</ele><time>2026-04-12T09:50:19.999Z</time></trkpt><trkpt lat="42.2277772920705" lon="14.205642214305788"><ele>291.0</ele><time>2026-04-12T09:50:20.999Z</time></trkpt><trkpt lat="42.22772710567565" lon="14.205484296001664"><ele>291.0</ele><time>2026-04-12T09:50:21.999Z</time></trkpt><trkpt lat="42.22770471341145" lon="14.20535769855792"><ele>290.8</ele><time>2026-04-12T09:50:22.999Z</time></trkpt><trkpt lat="42.227715327703685" lon="14.205263896456918"><ele>290.6</ele><time>2026-04-12T09:50:23.999Z</time></trkpt><trkpt lat="42.227765810131366" lon="14.20514530513202"><ele>290.4</ele><time>2026-04-12T09:50:24.999Z</time></trkpt><trkpt lat="42.22783557964193" lon="14.205029332841214"><ele>290.2</ele><time>2026-04-12T09:50:25.999Z</time></trkpt><trkpt lat="42.22792143639507" lon="14.204953556537898"><ele>290.0</ele><time>2026-04-12T09:50:26.999Z</time></trkpt><trkpt lat="42.22802345744493" lon="14.204947718392717"><ele>290.0</ele><time>2026-04-12T09:50:27.999Z</time></trkpt><trkpt lat="42.22813725819385" lon="14.204869581927092"><ele>290.0</ele><time>2026-04-12T09:50:28.999Z</time></trkpt><trkpt lat="42.22823339220453" lon="14.204776290459574"><ele>290.0</ele><time>2026-04-12T09:50:29.999Z</time></trkpt><trkpt lat="42.228342088893044" lon="14.204651896989633"><ele>290.0</ele><time>2026-04-12T09:50:30.999Z</time></trkpt><trkpt lat="42.22842029105889" lon="14.204500300204169"><ele>290.0</ele><time>2026-04-12T09:50:31.999Z</time></trkpt><trkpt lat="42.22846996963745" lon="14.204321383063682"><ele>290.0</ele><time>2026-04-12T09:50:32.999Z</time></trkpt><trkpt lat="42.22852728322418" lon="14.204212493312873"><ele>290.0</ele><time>2026-04-12T09:50:33.999Z</time></trkpt><trkpt lat="42.2285781046641" lon="14.204130617271867"><ele>290.0</ele><time>2026-04-12T09:50:34.999Z</time></trkpt><trkpt lat="42.22864555823596" lon="14.204052635537069"><ele>290.0</ele><time>2026-04-12T09:50:35.999Z</time></trkpt><trkpt lat="42.22873780768833" lon="14.203975395307085"><ele>289.5</ele><time>2026-04-12T09:50:36.999Z</time></trkpt><trkpt lat="42.22885036356323" lon="14.203923948962547"><ele>289.0</ele><time>2026-04-12T09:50:37.999Z</time></trkpt><trkpt lat="42.22896939112168" lon="14.20386408730847"><ele>288.5</ele><time>2026-04-12T09:50:38.999Z</time></trkpt><trkpt lat="42.22907886848112" lon="14.203797571954873"><ele>288.0</ele><time>2026-04-12T09:50:39.999Z</time></trkpt><trkpt lat="42.229198397394285" lon="14.203722670434711"><ele>288.0</ele><time>2026-04-12T09:50:40.999Z</time></trkpt><trkpt lat="42.22932914192171" lon="14.20363043987917"><ele>288.0</ele><time>2026-04-12T09:50:41.999Z</time></trkpt><trkpt lat="42.22944331496278" lon="14.203518955474966"><ele>288.0</ele><time>2026-04-12T09:50:42.999Z</time></trkpt><trkpt lat="42.22953759449964" lon="14.2033808747344"><ele>288.0</ele><time>2026-04-12T09:50:43.999Z</time></trkpt><trkpt lat="42.22960266467095" lon="14.203223912028548"><ele>287.0</ele><time>2026-04-12T09:50:44.999Z</time></trkpt><trkpt lat="42.22958623051802" lon="14.203024583532422"><ele>286.0</ele><time>2026-04-12T09:50:45.999Z</time></trkpt><trkpt lat="42.229610985811334" lon="14.202842655331532"><ele>285.0</ele><time>2026-04-12T09:50:46.999Z</time></trkpt><trkpt lat="42.229635225892494" lon="14.20263997220811"><ele>284.0</ele><time>2026-04-12T09:50:47.999Z</time></trkpt><trkpt lat="42.22967174686597" lon="14.202456542362384"><ele>283.6666666666667</ele><time>2026-04-12T09:50:48.999Z</time></trkpt><trkpt lat="42.229740197142156" lon="14.202276824524828"><ele>283.3333333333333</ele><time>2026-04-12T09:50:49.999Z</time></trkpt><trkpt lat="42.22983769745622" lon="14.202118237329643"><ele>283.0</ele><time>2026-04-12T09:50:50.999Z</time></trkpt><trkpt lat="42.22995074904017" lon="14.20197115728883"><ele>283.0</ele><time>2026-04-12T09:50:51.999Z</time></trkpt><trkpt lat="42.230076019335726" lon="14.201847984746822"><ele>283.0</ele><time>2026-04-12T09:50:52.999Z</time></trkpt><trkpt lat="42.230209931007295" lon="14.201735357682496"><ele>283.0</ele><time>2026-04-12T09:50:53.999Z</time></trkpt><trkpt lat="42.23034731059985" lon="14.201651772113465"><ele>283.0</ele><time>2026-04-12T09:50:54.999Z</time></trkpt><trkpt lat="42.230491320236226" lon="14.201565547449189"><ele>283.0</ele><time>2026-04-12T09:50:55.999Z</time></trkpt><trkpt lat="42.230623943818685" lon="14.201424364635583"><ele>283.0</ele><time>2026-04-12T09:50:56.999Z</time></trkpt><trkpt lat="42.2307440776162" lon="14.201245612970704"><ele>282.66666666666663</ele><time>2026-04-12T09:50:57.999Z</time></trkpt><trkpt lat="42.23084807039716" lon="14.20105460725046"><ele>282.3333333333333</ele><time>2026-04-12T09:50:58.999Z</time></trkpt><trkpt lat="42.23092580102162" lon="14.200858552591617"><ele>282.0</ele><time>2026-04-12T09:50:59.999Z</time></trkpt><trkpt lat="42.23101212481295" lon="14.200700538206632"><ele>280.3333333333333</ele><time>2026-04-12T09:51:00.999Z</time></trkpt><trkpt lat="42.23111906216569" lon="14.200583798453744"><ele>278.66666666666663</ele><time>2026-04-12T09:51:01.999Z</time></trkpt><trkpt lat="42.23124084870815" lon="14.200462404126494"><ele>277.0</ele><time>2026-04-12T09:51:02.999Z</time></trkpt><trkpt lat="42.23135874425113" lon="14.200314345889561"><ele>277.0</ele><time>2026-04-12T09:51:03.999Z</time></trkpt><trkpt lat="42.23146078661352" lon="14.200165150448054"><ele>277.0</ele><time>2026-04-12T09:51:04.999Z</time></trkpt><trkpt lat="42.23155547906621" lon="14.200027690933885"><ele>277.0</ele><time>2026-04-12T09:51:05.998Z</time></trkpt><trkpt lat="42.23165260559025" lon="14.199891254397702"><ele>277.0</ele><time>2026-04-12T09:51:06.998Z</time></trkpt><trkpt lat="42.23174112577045" lon="14.199774236774372"><ele>276.8</ele><time>2026-04-12T09:51:07.998Z</time></trkpt><trkpt lat="42.23182273169002" lon="14.199685403847633"><ele>276.6</ele><time>2026-04-12T09:51:08.998Z</time></trkpt><trkpt lat="42.231892728583624" lon="14.19960370059517"><ele>276.40000000000003</ele><time>2026-04-12T09:51:09.998Z</time></trkpt><trkpt lat="42.23195181532262" lon="14.19951433560774"><ele>276.2</ele><time>2026-04-12T09:51:10.998Z</time></trkpt><trkpt lat="42.23200425157853" lon="14.199428222752696"><ele>276.0</ele><time>2026-04-12T09:51:11.998Z</time></trkpt><trkpt lat="42.232047154176726" lon="14.199331299091975"><ele>276.0</ele><time>2026-04-12T09:51:12.998Z</time></trkpt><trkpt lat="42.23209037367265" lon="14.199247658046453"><ele>276.0</ele><time>2026-04-12T09:51:13.998Z</time></trkpt><trkpt lat="42.23213783757204" lon="14.199163256837723"><ele>276.0</ele><time>2026-04-12T09:51:14.998Z</time></trkpt><trkpt lat="42.232204929943045" lon="14.199050856702117"><ele>276.0</ele><time>2026-04-12T09:51:15.998Z</time></trkpt><trkpt lat="42.2322937279295" lon="14.198908820963469"><ele>276.0</ele><time>2026-04-12T09:51:16.998Z</time></trkpt><trkpt lat="42.23239211644492" lon="14.198760178432966"><ele>275.0</ele><time>2026-04-12T09:51:17.998Z</time></trkpt><trkpt lat="42.23248998906186" lon="14.198626897940091"><ele>274.0</ele><time>2026-04-12T09:51:18.998Z</time></trkpt><trkpt lat="42.23258669113336" lon="14.19849812775896"><ele>273.0</ele><time>2026-04-12T09:51:19.998Z</time></trkpt><trkpt lat="42.23267453697897" lon="14.198379513736812"><ele>272.0</ele><time>2026-04-12T09:51:21Z</time></trkpt><trkpt lat="42.23275958958442" lon="14.198255865887884"><ele>271.1666666666667</ele><time>2026-04-12T09:51:22Z</time></trkpt><trkpt lat="42.2328299098333" lon="14.19812495362508"><ele>270.33333333333337</ele><time>2026-04-12T09:51:23Z</time></trkpt><trkpt lat="42.232876510020674" lon="14.198005980966355"><ele>269.5</ele><time>2026-04-12T09:51:24Z</time></trkpt><trkpt lat="42.23290444464953" lon="14.197915110726685"><ele>268.6666666666667</ele><time>2026-04-12T09:51:25Z</time></trkpt><trkpt lat="42.23292472546612" lon="14.197832097336805"><ele>267.8333333333333</ele><time>2026-04-12T09:51:27Z</time></trkpt><trkpt lat="42.23299549793862" lon="14.197812050575745"><ele>267.0</ele><time>2026-04-12T09:51:31Z</time></trkpt><trkpt lat="42.233057532659224" lon="14.19778897787219"><ele>267.0</ele><time>2026-04-12T09:51:33Z</time></trkpt><trkpt lat="42.23313239675316" lon="14.197758912339255"><ele>267.0</ele><time>2026-04-12T09:51:35Z</time></trkpt><trkpt lat="42.233222893565355" lon="14.197672342020462"><ele>267.0</ele><time>2026-04-12T09:51:37Z</time></trkpt><trkpt lat="42.23329705727573" lon="14.19767383714976"><ele>267.0</ele><time>2026-04-12T09:51:38Z</time></trkpt><trkpt lat="42.23336404089073" lon="14.19763245837961"><ele>267.0</ele><time>2026-04-12T09:51:39Z</time></trkpt><trkpt lat="42.23342539933664" lon="14.197588802082086"><ele>267.0</ele><time>2026-04-12T09:51:40Z</time></trkpt><trkpt lat="42.233515348227144" lon="14.197519014026913"><ele>267.0</ele><time>2026-04-12T09:51:41Z</time></trkpt><trkpt lat="42.23360946728559" lon="14.197427657934632"><ele>267.0</ele><time>2026-04-12T09:51:42Z</time></trkpt><trkpt lat="42.23370119330052" lon="14.197309961858341"><ele>267.0</ele><time>2026-04-12T09:51:43Z</time></trkpt><trkpt lat="42.2337700715372" lon="14.197184333314501"><ele>267.0</ele><time>2026-04-12T09:51:44Z</time></trkpt><trkpt lat="42.23382754964829" lon="14.197052787692764"><ele>267.0</ele><time>2026-04-12T09:51:45Z</time></trkpt><trkpt lat="42.23388127324195" lon="14.196932540053968"><ele>267.0</ele><time>2026-04-12T09:51:46Z</time></trkpt><trkpt lat="42.23394650183226" lon="14.196792338643462"><ele>267.0</ele><time>2026-04-12T09:51:47Z</time></trkpt><trkpt lat="42.23399647884577" lon="14.196618936976302"><ele>267.0</ele><time>2026-04-12T09:51:48Z</time></trkpt><trkpt lat="42.2340323300081" lon="14.196471186824757"><ele>266.75</ele><time>2026-04-12T09:51:49Z</time></trkpt><trkpt lat="42.23408392459995" lon="14.196299310627897"><ele>266.5</ele><time>2026-04-12T09:51:50Z</time></trkpt><trkpt lat="42.23415543775343" lon="14.196124266667042"><ele>266.25</ele><time>2026-04-12T09:51:51Z</time></trkpt><trkpt lat="42.234243232170066" lon="14.195942476664476"><ele>266.0</ele><time>2026-04-12T09:51:52Z</time></trkpt><trkpt lat="42.234334549016204" lon="14.195820234357315"><ele>266.0</ele><time>2026-04-12T09:51:53Z</time></trkpt><trkpt lat="42.234393059743795" lon="14.195680332791657"><ele>266.0</ele><time>2026-04-12T09:51:54Z</time></trkpt><trkpt lat="42.23446063223232" lon="14.19556263325001"><ele>266.0</ele><time>2026-04-12T09:51:55Z</time></trkpt><trkpt lat="42.23455167092254" lon="14.195472761104881"><ele>266.0</ele><time>2026-04-12T09:51:56Z</time></trkpt><trkpt lat="42.23466001265234" lon="14.195351127224907"><ele>266.0</ele><time>2026-04-12T09:51:57Z</time></trkpt><trkpt lat="42.23474916274292" lon="14.195234098200386"><ele>266.0</ele><time>2026-04-12T09:51:58Z</time></trkpt><trkpt lat="42.23484851490914" lon="14.195143937345186"><ele>266.0</ele><time>2026-04-12T09:51:59Z</time></trkpt><trkpt lat="42.23497392988977" lon="14.195032206300201"><ele>266.0</ele><time>2026-04-12T09:52:00Z</time></trkpt><trkpt lat="42.23507551579983" lon="14.194906989209125"><ele>265.75</ele><time>2026-04-12T09:52:01Z</time></trkpt><trkpt lat="42.23518751942909" lon="14.194783596237677"><ele>265.5</ele><time>2026-04-12T09:52:02Z</time></trkpt><trkpt lat="42.235311950273775" lon="14.194672875340029"><ele>265.25</ele><time>2026-04-12T09:52:03Z</time></trkpt><trkpt lat="42.235431197801596" lon="14.194545701503172"><ele>265.0</ele><time>2026-04-12T09:52:04Z</time></trkpt><trkpt lat="42.23553454374069" lon="14.194443340049327"><ele>265.0</ele><time>2026-04-12T09:52:05Z</time></trkpt><trkpt lat="42.235642175829476" lon="14.194374577993207"><ele>265.0</ele><time>2026-04-12T09:52:06Z</time></trkpt><trkpt lat="42.23575347477701" lon="14.194310925763338"><ele>265.0</ele><time>2026-04-12T09:52:06.999Z</time></trkpt><trkpt lat="42.23588789951062" lon="14.194235310020494"><ele>265.0</ele><time>2026-04-12T09:52:07.999Z</time></trkpt><trkpt lat="42.23601030467922" lon="14.194142599010714"><ele>264.25</ele><time>2026-04-12T09:52:08.999Z</time></trkpt><trkpt lat="42.23610275312139" lon="14.19400094336492"><ele>263.5</ele><time>2026-04-12T09:52:09.999Z</time></trkpt><trkpt lat="42.23616932450365" lon="14.193845903227327"><ele>262.75</ele><time>2026-04-12T09:52:10.999Z</time></trkpt><trkpt lat="42.23623353847191" lon="14.19366490865176"><ele>262.0</ele><time>2026-04-12T09:52:11.999Z</time></trkpt><trkpt lat="42.23628262408362" lon="14.193473974489553"><ele>262.0</ele><time>2026-04-12T09:52:12.999Z</time></trkpt><trkpt lat="42.23632951024159" lon="14.193269591931973"><ele>262.0</ele><time>2026-04-12T09:52:13.999Z</time></trkpt><trkpt lat="42.23637144196487" lon="14.19308378802432"><ele>262.0</ele><time>2026-04-12T09:52:14.999Z</time></trkpt><trkpt lat="42.23639480002431" lon="14.192895915306837"><ele>262.0</ele><time>2026-04-12T09:52:15.999Z</time></trkpt><trkpt lat="42.23642871162467" lon="14.192717348916277"><ele>262.25</ele><time>2026-04-12T09:52:16.999Z</time></trkpt><trkpt lat="42.23647638200093" lon="14.19254670888343"><ele>262.5</ele><time>2026-04-12T09:52:17.999Z</time></trkpt><trkpt lat="42.23652968089761" lon="14.192390479725912"><ele>262.75</ele><time>2026-04-12T09:52:18.999Z</time></trkpt><trkpt lat="42.236598809683336" lon="14.192235899563787"><ele>263.0</ele><time>2026-04-12T09:52:19.999Z</time></trkpt><trkpt lat="42.23665805305005" lon="14.192053859604222"><ele>261.0</ele><time>2026-04-12T09:52:20.999Z</time></trkpt><trkpt lat="42.236717106929035" lon="14.19187982713693"><ele>259.0</ele><time>2026-04-12T09:52:21.999Z</time></trkpt><trkpt lat="42.23679384427497" lon="14.19168995587439"><ele>257.0</ele><time>2026-04-12T09:52:22.999Z</time></trkpt><trkpt lat="42.23691090549968" lon="14.191559901170738"><ele>255.75</ele><time>2026-04-12T09:52:23.999Z</time></trkpt><trkpt lat="42.237017284353385" lon="14.191412242303015"><ele>254.5</ele><time>2026-04-12T09:52:24.999Z</time></trkpt><trkpt lat="42.237111514769296" lon="14.191279074741322"><ele>253.25</ele><time>2026-04-12T09:52:25.999Z</time></trkpt><trkpt lat="42.23718292349725" lon="14.191136095209176"><ele>252.0</ele><time>2026-04-12T09:52:26.999Z</time></trkpt><trkpt lat="42.2372213738349" lon="14.190970548852603"><ele>252.0</ele><time>2026-04-12T09:52:27.999Z</time></trkpt><trkpt lat="42.23724440837233" lon="14.19078761249709"><ele>252.0</ele><time>2026-04-12T09:52:28.999Z</time></trkpt><trkpt lat="42.237297811029585" lon="14.190623462884249"><ele>252.0</ele><time>2026-04-12T09:52:29.999Z</time></trkpt><trkpt lat="42.237356708226876" lon="14.190488389029928"><ele>252.0</ele><time>2026-04-12T09:52:30.999Z</time></trkpt><trkpt lat="42.23740115588238" lon="14.190378312417234"><ele>252.25</ele><time>2026-04-12T09:52:31.999Z</time></trkpt><trkpt lat="42.237486910736806" lon="14.190283921228033"><ele>252.5</ele><time>2026-04-12T09:52:32.999Z</time></trkpt><trkpt lat="42.23761824534953" lon="14.190245312025308"><ele>252.75</ele><time>2026-04-12T09:52:33.999Z</time></trkpt><trkpt lat="42.2377217739666" lon="14.19013075419477"><ele>253.0</ele><time>2026-04-12T09:52:34.999Z</time></trkpt><trkpt lat="42.23780252703656" lon="14.189988381866645"><ele>251.75</ele><time>2026-04-12T09:52:35.999Z</time></trkpt><trkpt lat="42.237874341494226" lon="14.189798788122022"><ele>250.5</ele><time>2026-04-12T09:52:36.999Z</time></trkpt><trkpt lat="42.23792517772657" lon="14.189605888617224"><ele>249.25</ele><time>2026-04-12T09:52:37.999Z</time></trkpt><trkpt lat="42.237956704583425" lon="14.18943483554073"><ele>248.0</ele><time>2026-04-12T09:52:38.999Z</time></trkpt><trkpt lat="42.237968396116734" lon="14.189234822749617"><ele>248.0</ele><time>2026-04-12T09:52:39.999Z</time></trkpt><trkpt lat="42.237970720864105" lon="14.189014774495128"><ele>248.0</ele><time>2026-04-12T09:52:40.999Z</time></trkpt><trkpt lat="42.23796389694934" lon="14.188845993806899"><ele>248.0</ele><time>2026-04-12T09:52:41.999Z</time></trkpt><trkpt lat="42.237951971976685" lon="14.188687586023791"><ele>248.0</ele><time>2026-04-12T09:52:42.999Z</time></trkpt><trkpt lat="42.23796966920028" lon="14.18852980390407"><ele>247.25</ele><time>2026-04-12T09:52:43.999Z</time></trkpt><trkpt lat="42.23803411263794" lon="14.188376359673693"><ele>246.5</ele><time>2026-04-12T09:52:44.999Z</time></trkpt><trkpt lat="42.2381159028478" lon="14.188250265245742"><ele>245.75</ele><time>2026-04-12T09:52:45.999Z</time></trkpt><trkpt lat="42.23821968293159" lon="14.188167242210138"><ele>245.0</ele><time>2026-04-12T09:52:46.999Z</time></trkpt><trkpt lat="42.23830140603895" lon="14.188057840469154"><ele>244.66666666666669</ele><time>2026-04-12T09:52:47.999Z</time></trkpt><trkpt lat="42.238345880084864" lon="14.18794901280963"><ele>244.33333333333334</ele><time>2026-04-12T09:52:48.999Z</time></trkpt><trkpt lat="42.238377752945105" lon="14.18785970711649"><ele>244.0</ele><time>2026-04-12T09:52:49.999Z</time></trkpt><trkpt lat="42.23837278500028" lon="14.187744652440326"><ele>243.66666666666669</ele><time>2026-04-12T09:52:50.999Z</time></trkpt><trkpt lat="42.2383602642189" lon="14.187638739364168"><ele>243.33333333333334</ele><time>2026-04-12T09:52:51.999Z</time></trkpt><trkpt lat="42.238366288588075" lon="14.187546294686694"><ele>243.0</ele><time>2026-04-12T09:52:53.999Z</time></trkpt><trkpt lat="42.23837430133478" lon="14.187455980695825"><ele>243.0</ele><time>2026-04-12T09:52:54.999Z</time></trkpt><trkpt lat="42.238418560203094" lon="14.187377433789065"><ele>243.0</ele><time>2026-04-12T09:52:55.999Z</time></trkpt><trkpt lat="42.23848447571925" lon="14.187331828445599"><ele>243.0</ele><time>2026-04-12T09:52:56.999Z</time></trkpt><trkpt lat="42.2385629512114" lon="14.187312550819243"><ele>243.0</ele><time>2026-04-12T09:52:57.999Z</time></trkpt><trkpt lat="42.238650686300026" lon="14.187272661532253"><ele>243.0</ele><time>2026-04-12T09:52:58.999Z</time></trkpt><trkpt lat="42.23875766001346" lon="14.187248859287424"><ele>243.0</ele><time>2026-04-12T09:52:59.999Z</time></trkpt><trkpt lat="42.238859854309865" lon="14.187233455853066"><ele>244.0</ele><time>2026-04-12T09:53:00.999Z</time></trkpt><trkpt lat="42.23896183246218" lon="14.1872071099934"><ele>245.0</ele><time>2026-04-12T09:53:01.999Z</time></trkpt><trkpt lat="42.23902711680901" lon="14.187093838852007"><ele>246.0</ele><time>2026-04-12T09:53:02.999Z</time></trkpt><trkpt lat="42.239071589823205" lon="14.186955826467257"><ele>247.0</ele><time>2026-04-12T09:53:03.999Z</time></trkpt><trkpt lat="42.23914120922434" lon="14.186809860933367"><ele>247.39999999999998</ele><time>2026-04-12T09:53:04.999Z</time></trkpt><trkpt lat="42.2392044390615" lon="14.18665219835117"><ele>247.79999999999998</ele><time>2026-04-12T09:53:05.999Z</time></trkpt><trkpt lat="42.239265502819926" lon="14.186509739425452"><ele>248.2</ele><time>2026-04-12T09:53:06.999Z</time></trkpt><trkpt lat="42.239317575496976" lon="14.186390731760197"><ele>248.6</ele><time>2026-04-12T09:53:07.998Z</time></trkpt><trkpt lat="42.23935831451607" lon="14.186310651138726"><ele>249.0</ele><time>2026-04-12T09:53:08.998Z</time></trkpt><trkpt lat="42.23940905775777" lon="14.186238785009701"><ele>250.5</ele><time>2026-04-12T09:53:09.998Z</time></trkpt><trkpt lat="42.23949985861554" lon="14.186150259114358"><ele>252.0</ele><time>2026-04-12T09:53:10.998Z</time></trkpt><trkpt lat="42.23958811249968" lon="14.186038489770999"><ele>253.5</ele><time>2026-04-12T09:53:11.998Z</time></trkpt><trkpt lat="42.239675733996606" lon="14.185935414361298"><ele>255.0</ele><time>2026-04-12T09:53:12.998Z</time></trkpt><trkpt lat="42.23976511592222" lon="14.185835896234714"><ele>254.6</ele><time>2026-04-12T09:53:13.998Z</time></trkpt><trkpt lat="42.23983131688201" lon="14.185709147183065"><ele>254.2</ele><time>2026-04-12T09:53:14.998Z</time></trkpt><trkpt lat="42.23988392043211" lon="14.185580384835724"><ele>253.8</ele><time>2026-04-12T09:53:15.998Z</time></trkpt><trkpt lat="42.2399330660215" lon="14.18546031799792"><ele>253.4</ele><time>2026-04-12T09:53:16.998Z</time></trkpt><trkpt lat="42.23998483085391" lon="14.185343242594694"><ele>253.0</ele><time>2026-04-12T09:53:17.998Z</time></trkpt><trkpt lat="42.24005859831457" lon="14.185253071430992"><ele>253.0</ele><time>2026-04-12T09:53:18.998Z</time></trkpt><trkpt lat="42.240149452519226" lon="14.185162859433863"><ele>253.0</ele><time>2026-04-12T09:53:19.998Z</time></trkpt><trkpt lat="42.24023712177155" lon="14.185061582049801"><ele>253.0</ele><time>2026-04-12T09:53:20.998Z</time></trkpt><trkpt lat="42.240326878276576" lon="14.18495789323923"><ele>253.0</ele><time>2026-04-12T09:53:21.998Z</time></trkpt><trkpt lat="42.24041207423337" lon="14.184862814014862"><ele>252.99999999999997</ele><time>2026-04-12T09:53:22.998Z</time></trkpt><trkpt lat="42.24048075192263" lon="14.184788397363537"><ele>253.0</ele><time>2026-04-12T09:53:23.998Z</time></trkpt><trkpt lat="42.2405345391948" lon="14.184730115432016"><ele>253.0</ele><time>2026-04-12T09:53:24.998Z</time></trkpt><trkpt lat="42.24061931874714" lon="14.184681320260342"><ele>253.0</ele><time>2026-04-12T09:53:27Z</time></trkpt><trkpt lat="42.24067690423392" lon="14.18474409725115"><ele>252.99999999999997</ele><time>2026-04-12T09:53:28Z</time></trkpt><trkpt lat="42.24077584504179" lon="14.184782592652372"><ele>253.0</ele><time>2026-04-12T09:53:29Z</time></trkpt><trkpt lat="42.24087996875226" lon="14.184870178673169"><ele>252.0</ele><time>2026-04-12T09:53:30Z</time></trkpt><trkpt lat="42.2409896051137" lon="14.184951283629202"><ele>251.0</ele><time>2026-04-12T09:53:31Z</time></trkpt><trkpt lat="42.241102368570516" lon="14.185017646417018"><ele>250.0</ele><time>2026-04-12T09:53:32Z</time></trkpt><trkpt lat="42.24121057653136" lon="14.185076788709548"><ele>249.0</ele><time>2026-04-12T09:53:33Z</time></trkpt><trkpt lat="42.24132348290189" lon="14.185140449549909"><ele>249.0</ele><time>2026-04-12T09:53:34Z</time></trkpt><trkpt lat="42.24141460295736" lon="14.18517394698881"><ele>248.99999999999997</ele><time>2026-04-12T09:53:35Z</time></trkpt><trkpt lat="42.241500484639765" lon="14.185166323120706"><ele>248.99999999999997</ele><time>2026-04-12T09:53:36Z</time></trkpt><trkpt lat="42.24160153941068" lon="14.185131798159789"><ele>249.0</ele><time>2026-04-12T09:53:37Z</time></trkpt><trkpt lat="42.2416926064441" lon="14.184985639599553"><ele>249.0</ele><time>2026-04-12T09:53:38Z</time></trkpt><trkpt lat="42.2418050030003" lon="14.18486628539404"><ele>248.25</ele><time>2026-04-12T09:53:39Z</time></trkpt><trkpt lat="42.24189840579127" lon="14.184763556365912"><ele>247.5</ele><time>2026-04-12T09:53:40Z</time></trkpt><trkpt lat="42.241964405663104" lon="14.184650524120453"><ele>246.75</ele><time>2026-04-12T09:53:41Z</time></trkpt><trkpt lat="42.24201584624489" lon="14.184530710949977"><ele>246.0</ele><time>2026-04-12T09:53:42Z</time></trkpt><trkpt lat="42.24204727294457" lon="14.18434920770721"><ele>246.0</ele><time>2026-04-12T09:53:43Z</time></trkpt><trkpt lat="42.24204568372405" lon="14.184145687654802"><ele>246.0</ele><time>2026-04-12T09:53:44Z</time></trkpt><trkpt lat="42.24205951581268" lon="14.184003128546646"><ele>246.0</ele><time>2026-04-12T09:53:45Z</time></trkpt><trkpt lat="42.24208516212518" lon="14.183888304481227"><ele>246.0</ele><time>2026-04-12T09:53:46Z</time></trkpt><trkpt lat="42.24214376345617" lon="14.183769220189445"><ele>246.0</ele><time>2026-04-12T09:53:47Z</time></trkpt><trkpt lat="42.24221397347177" lon="14.183643528768338"><ele>246.00000000000003</ele><time>2026-04-12T09:53:48Z</time></trkpt><trkpt lat="42.24227985826376" lon="14.183523440707988"><ele>246.00000000000003</ele><time>2026-04-12T09:53:49Z</time></trkpt><trkpt lat="42.24235694900962" lon="14.183410468887969"><ele>246.0</ele><time>2026-04-12T09:53:50Z</time></trkpt><trkpt lat="42.24244612131914" lon="14.18332770364549"><ele>246.0</ele><time>2026-04-12T09:53:51Z</time></trkpt><trkpt lat="42.24255243850097" lon="14.183300480066846"><ele>246.25</ele><time>2026-04-12T09:53:52Z</time></trkpt><trkpt lat="42.24267570485341" lon="14.183316222477192"><ele>246.5</ele><time>2026-04-12T09:53:53Z</time></trkpt><trkpt lat="42.24277725238141" lon="14.183331056442642"><ele>246.75</ele><time>2026-04-12T09:53:54Z</time></trkpt><trkpt lat="42.24291585087687" lon="14.183362894350081"><ele>247.0</ele><time>2026-04-12T09:53:55Z</time></trkpt><trkpt lat="42.24303403985071" lon="14.183397397941487"><ele>246.99999999999997</ele><time>2026-04-12T09:53:56Z</time></trkpt><trkpt lat="42.24312428590722" lon="14.183417073341193"><ele>247.0</ele><time>2026-04-12T09:53:57Z</time></trkpt><trkpt lat="42.24318700779654" lon="14.183429034282868"><ele>247.0</ele><time>2026-04-12T09:53:58Z</time></trkpt><trkpt lat="42.24329922070173" lon="14.183392501904015"><ele>247.0</ele><time>2026-04-12T09:54:00Z</time></trkpt><trkpt lat="42.2433509605637" lon="14.183311393337233"><ele>246.99999999999997</ele><time>2026-04-12T09:54:01Z</time></trkpt><trkpt lat="42.243366672852645" lon="14.18322864943964"><ele>247.0</ele><time>2026-04-12T09:54:04Z</time></trkpt><trkpt lat="42.24322351882283" lon="14.183132069072908"><ele>247.0</ele><time>2026-04-12T09:54:05Z</time></trkpt><trkpt lat="42.24313466452156" lon="14.183081355688214"><ele>247.0</ele><time>2026-04-12T09:54:06Z</time></trkpt><trkpt lat="42.24303558334677" lon="14.183028753209864"><ele>247.0</ele><time>2026-04-12T09:54:07Z</time></trkpt><trkpt lat="42.24292567555424" lon="14.182964016314187"><ele>247.0</ele><time>2026-04-12T09:54:08Z</time></trkpt><trkpt lat="42.24280292189707" lon="14.182878736174905"><ele>247.5</ele><time>2026-04-12T09:54:09Z</time></trkpt><trkpt lat="42.24268869478812" lon="14.182804496583323"><ele>248.0</ele><time>2026-04-12T09:54:10Z</time></trkpt><trkpt lat="42.24258412814748" lon="14.182715612892101"><ele>248.5</ele><time>2026-04-12T09:54:10.999Z</time></trkpt><trkpt lat="42.24248424474905" lon="14.182602527757904"><ele>249.0</ele><time>2026-04-12T09:54:11.999Z</time></trkpt><trkpt lat="42.24240134595667" lon="14.182501688786266"><ele>249.0</ele><time>2026-04-12T09:54:12.999Z</time></trkpt><trkpt lat="42.24234036878877" lon="14.182425026415963"><ele>248.99999999999997</ele><time>2026-04-12T09:54:13.999Z</time></trkpt><trkpt lat="42.24241512282186" lon="14.18230473102058"><ele>248.99999999999997</ele><time>2026-04-12T09:54:16.999Z</time></trkpt><trkpt lat="42.242501998377236" lon="14.182280387913561"><ele>249.0</ele><time>2026-04-12T09:54:17.999Z</time></trkpt><trkpt lat="42.24262835228019" lon="14.182239816682197"><ele>249.0</ele><time>2026-04-12T09:54:18.999Z</time></trkpt><trkpt lat="42.24273737367098" lon="14.182148935118782"><ele>249.5</ele><time>2026-04-12T09:54:19.999Z</time></trkpt><trkpt lat="42.24286269833194" lon="14.182092703185603"><ele>250.0</ele><time>2026-04-12T09:54:20.999Z</time></trkpt><trkpt lat="42.24298070197275" lon="14.182018882537877"><ele>250.5</ele><time>2026-04-12T09:54:21.999Z</time></trkpt><trkpt lat="42.24312415063537" lon="14.18196510921971"><ele>251.0</ele><time>2026-04-12T09:54:22.999Z</time></trkpt><trkpt lat="42.24324928576291" lon="14.181906180708454"><ele>249.75</ele><time>2026-04-12T09:54:23.999Z</time></trkpt><trkpt lat="42.24335519839518" lon="14.181812505112294"><ele>248.5</ele><time>2026-04-12T09:54:24.999Z</time></trkpt><trkpt lat="42.24347940272241" lon="14.181753988563342"><ele>247.25</ele><time>2026-04-12T09:54:25.999Z</time></trkpt><trkpt lat="42.24360460188061" lon="14.181689662683844"><ele>246.0</ele><time>2026-04-12T09:54:26.999Z</time></trkpt><trkpt lat="42.24374653915446" lon="14.18161769051356"><ele>246.0</ele><time>2026-04-12T09:54:27.999Z</time></trkpt><trkpt lat="42.24388647409311" lon="14.181545918628933"><ele>246.0</ele><time>2026-04-12T09:54:28.999Z</time></trkpt><trkpt lat="42.2440178586131" lon="14.181471114904864"><ele>246.0</ele><time>2026-04-12T09:54:29.999Z</time></trkpt><trkpt lat="42.244139936068336" lon="14.181380191677317"><ele>246.0</ele><time>2026-04-12T09:54:30.999Z</time></trkpt><trkpt lat="42.244272250937385" lon="14.181330701642876"><ele>244.75</ele><time>2026-04-12T09:54:31.999Z</time></trkpt><trkpt lat="42.24440379894926" lon="14.181249932515897"><ele>243.5</ele><time>2026-04-12T09:54:32.999Z</time></trkpt><trkpt lat="42.24453491651566" lon="14.181167932593475"><ele>242.25</ele><time>2026-04-12T09:54:33.999Z</time></trkpt><trkpt lat="42.24465788071771" lon="14.181096286518859"><ele>241.0</ele><time>2026-04-12T09:54:34.999Z</time></trkpt><trkpt lat="42.24475151136422" lon="14.181055116254873"><ele>240.4</ele><time>2026-04-12T09:54:35.999Z</time></trkpt><trkpt lat="42.24482247650131" lon="14.18104376081524"><ele>239.8</ele><time>2026-04-12T09:54:36.999Z</time></trkpt><trkpt lat="42.2448897837203" lon="14.181046646211232"><ele>239.20000000000002</ele><time>2026-04-12T09:54:37.999Z</time></trkpt><trkpt lat="42.2449785560488" lon="14.181094932168309"><ele>238.60000000000002</ele><time>2026-04-12T09:54:38.999Z</time></trkpt><trkpt lat="42.2450913896338" lon="14.181153860648484"><ele>238.0</ele><time>2026-04-12T09:54:39.999Z</time></trkpt><trkpt lat="42.24521633982492" lon="14.181298190248267"><ele>238.0</ele><time>2026-04-12T09:54:40.999Z</time></trkpt><trkpt lat="42.245351183888864" lon="14.181421970877564"><ele>238.0</ele><time>2026-04-12T09:54:41.999Z</time></trkpt><trkpt lat="42.24551028909796" lon="14.181511435688558"><ele>238.0</ele><time>2026-04-12T09:54:42.999Z</time></trkpt><trkpt lat="42.24567954321259" lon="14.18157273362882"><ele>237.75</ele><time>2026-04-12T09:54:43.999Z</time></trkpt><trkpt lat="42.24582845776634" lon="14.181663295597664"><ele>237.5</ele><time>2026-04-12T09:54:44.999Z</time></trkpt><trkpt lat="42.245945465080915" lon="14.18177408851117"><ele>237.25</ele><time>2026-04-12T09:54:45.999Z</time></trkpt><trkpt lat="42.246048121024664" lon="14.181869151898617"><ele>237.0</ele><time>2026-04-12T09:54:46.999Z</time></trkpt><trkpt lat="42.2461680859848" lon="14.181924043404907"><ele>237.0</ele><time>2026-04-12T09:54:47.999Z</time></trkpt><trkpt lat="42.24631483696316" lon="14.181937959117635"><ele>237.0</ele><time>2026-04-12T09:54:48.999Z</time></trkpt><trkpt lat="42.2464878795791" lon="14.181918172526512"><ele>237.0</ele><time>2026-04-12T09:54:49.999Z</time></trkpt><trkpt lat="42.246642275005094" lon="14.181908724956799"><ele>235.75</ele><time>2026-04-12T09:54:50.999Z</time></trkpt><trkpt lat="42.246774535908365" lon="14.18192772489037"><ele>234.5</ele><time>2026-04-12T09:54:51.999Z</time></trkpt><trkpt lat="42.2468976012113" lon="14.181970399966103"><ele>233.25</ele><time>2026-04-12T09:54:52.999Z</time></trkpt><trkpt lat="42.247021937194894" lon="14.182052596914106"><ele>232.0</ele><time>2026-04-12T09:54:53.999Z</time></trkpt><trkpt lat="42.2471355795127" lon="14.182141189511789"><ele>232.0</ele><time>2026-04-12T09:54:54.999Z</time></trkpt><trkpt lat="42.247221709403725" lon="14.182239227137377"><ele>232.0</ele><time>2026-04-12T09:54:55.999Z</time></trkpt><trkpt lat="42.24728518338578" lon="14.182352980847206"><ele>232.0</ele><time>2026-04-12T09:54:56.999Z</time></trkpt><trkpt lat="42.2473423466287" lon="14.182484412998733"><ele>232.0</ele><time>2026-04-12T09:54:57.999Z</time></trkpt><trkpt lat="42.24738184700001" lon="14.182622569908895"><ele>232.0</ele><time>2026-04-12T09:54:58.999Z</time></trkpt><trkpt lat="42.24739887521618" lon="14.182733842702566"><ele>232.0</ele><time>2026-04-12T09:54:59.999Z</time></trkpt><trkpt lat="42.247424319953296" lon="14.182820574394858"><ele>232.0</ele><time>2026-04-12T09:55:00.999Z</time></trkpt><trkpt lat="42.24752589029722" lon="14.182862632397713"><ele>232.0</ele><time>2026-04-12T09:55:01.999Z</time></trkpt><trkpt lat="42.24760738164913" lon="14.182951890583947"><ele>232.0</ele><time>2026-04-12T09:55:02.999Z</time></trkpt><trkpt lat="42.24769102135181" lon="14.183007737496924"><ele>232.0</ele><time>2026-04-12T09:55:03.999Z</time></trkpt><trkpt lat="42.24776546695434" lon="14.183058133946934"><ele>232.0</ele><time>2026-04-12T09:55:04.999Z</time></trkpt><trkpt lat="42.24783948027451" lon="14.183123892303007"><ele>232.0</ele><time>2026-04-12T09:55:05.999Z</time></trkpt><trkpt lat="42.247902581328155" lon="14.183213335679689"><ele>232.0</ele><time>2026-04-12T09:55:06.999Z</time></trkpt><trkpt lat="42.247957764949234" lon="14.183322616403409"><ele>232.0</ele><time>2026-04-12T09:55:07.999Z</time></trkpt><trkpt lat="42.248000695030164" lon="14.183446652348525"><ele>232.0</ele><time>2026-04-12T09:55:08.999Z</time></trkpt><trkpt lat="42.24802846328116" lon="14.183569531880384"><ele>232.39999999999998</ele><time>2026-04-12T09:55:09.999Z</time></trkpt><trkpt lat="42.248034412290515" lon="14.183683401921856"><ele>232.79999999999998</ele><time>2026-04-12T09:55:10.999Z</time></trkpt><trkpt lat="42.24802957615776" lon="14.183772792463175"><ele>233.2</ele><time>2026-04-12T09:55:11.998Z</time></trkpt><trkpt lat="42.24799336254443" lon="14.18388269796176"><ele>233.6</ele><time>2026-04-12T09:55:13.998Z</time></trkpt><trkpt lat="42.24806754125132" lon="14.183936006812726"><ele>234.0</ele><time>2026-04-12T09:55:16.998Z</time></trkpt><trkpt lat="42.24816619639967" lon="14.183777481359938"><ele>232.39999999999998</ele><time>2026-04-12T09:55:18.998Z</time></trkpt><trkpt lat="42.24820616867431" lon="14.18365683885358"><ele>230.79999999999998</ele><time>2026-04-12T09:55:19.998Z</time></trkpt><trkpt lat="42.248282944707405" lon="14.183555223935661"><ele>229.20000000000002</ele><time>2026-04-12T09:55:20.998Z</time></trkpt><trkpt lat="42.24834342141299" lon="14.183427914367844"><ele>227.60000000000002</ele><time>2026-04-12T09:55:21.998Z</time></trkpt><trkpt lat="42.24841564020614" lon="14.183329040183578"><ele>226.0</ele><time>2026-04-12T09:55:22.998Z</time></trkpt><trkpt lat="42.248498767340614" lon="14.183255177526469"><ele>226.0</ele><time>2026-04-12T09:55:23.998Z</time></trkpt><trkpt lat="42.24861688571198" lon="14.183219760041945"><ele>226.0</ele><time>2026-04-12T09:55:24.998Z</time></trkpt><trkpt lat="42.24875788838857" lon="14.183206500068083"><ele>226.0</ele><time>2026-04-12T09:55:25.998Z</time></trkpt><trkpt lat="42.248884444350296" lon="14.18323027338079"><ele>226.0</ele><time>2026-04-12T09:55:26.998Z</time></trkpt><trkpt lat="42.24898115528483" lon="14.183292541211198"><ele>224.60000000000002</ele><time>2026-04-12T09:55:27.998Z</time></trkpt><trkpt lat="42.249056541578135" lon="14.183391185656784"><ele>223.20000000000002</ele><time>2026-04-12T09:55:28.998Z</time></trkpt><trkpt lat="42.24909872003837" lon="14.183486361608962"><ele>221.79999999999998</ele><time>2026-04-12T09:55:29.998Z</time></trkpt><trkpt lat="42.249152946262875" lon="14.183570275273713"><ele>220.39999999999998</ele><time>2026-04-12T09:55:32Z</time></trkpt><trkpt lat="42.24928606394261" lon="14.183461395420842"><ele>219.0</ele><time>2026-04-12T09:55:33Z</time></trkpt><trkpt lat="42.249379326595026" lon="14.183368968199622"><ele>219.0</ele><time>2026-04-12T09:55:34Z</time></trkpt><trkpt lat="42.24947247765826" lon="14.183272882809689"><ele>218.99999999999997</ele><time>2026-04-12T09:55:35Z</time></trkpt><trkpt lat="42.24955958300437" lon="14.183175108848854"><ele>218.99999999999997</ele><time>2026-04-12T09:55:36Z</time></trkpt><trkpt lat="42.2496367581264" lon="14.183062504528307"><ele>219.0</ele><time>2026-04-12T09:55:37Z</time></trkpt><trkpt lat="42.24970280031221" lon="14.182959302451781"><ele>219.0</ele><time>2026-04-12T09:55:38Z</time></trkpt><trkpt lat="42.24976171492968" lon="14.182890167645626"><ele>218.79999999999998</ele><time>2026-04-12T09:55:39Z</time></trkpt><trkpt lat="42.2498456505486" lon="14.182863921724236"><ele>218.59999999999997</ele><time>2026-04-12T09:55:40Z</time></trkpt><trkpt lat="42.24992751727674" lon="14.182767057944293"><ele>218.4</ele><time>2026-04-12T09:55:41Z</time></trkpt><trkpt lat="42.2499727304751" lon="14.18262124778415"><ele>218.2</ele><time>2026-04-12T09:55:42Z</time></trkpt><trkpt lat="42.25005918240158" lon="14.182489578394552"><ele>218.0</ele><time>2026-04-12T09:55:43Z</time></trkpt><trkpt lat="42.250148852622715" lon="14.182349263467671"><ele>219.0</ele><time>2026-04-12T09:55:44Z</time></trkpt><trkpt lat="42.250225449574536" lon="14.182246736621247"><ele>220.0</ele><time>2026-04-12T09:55:45Z</time></trkpt><trkpt lat="42.25030474326281" lon="14.182171336111821"><ele>221.0</ele><time>2026-04-12T09:55:46Z</time></trkpt><trkpt lat="42.25039691812635" lon="14.182102093489624"><ele>222.0</ele><time>2026-04-12T09:55:47Z</time></trkpt><trkpt lat="42.25049342544712" lon="14.182017978283351"><ele>223.0</ele><time>2026-04-12T09:55:48Z</time></trkpt><trkpt lat="42.25058466590005" lon="14.18190855979607"><ele>221.25</ele><time>2026-04-12T09:55:49Z</time></trkpt><trkpt lat="42.25067485935968" lon="14.181793971138747"><ele>219.5</ele><time>2026-04-12T09:55:50Z</time></trkpt><trkpt lat="42.25077310968382" lon="14.181697152876419"><ele>217.75</ele><time>2026-04-12T09:55:51Z</time></trkpt><trkpt lat="42.25089752621101" lon="14.181662096131536"><ele>216.0</ele><time>2026-04-12T09:55:52Z</time></trkpt><trkpt lat="42.25102320796161" lon="14.18159227644002"><ele>216.0</ele><time>2026-04-12T09:55:53Z</time></trkpt><trkpt lat="42.25114647389579" lon="14.181518493367387"><ele>216.0</ele><time>2026-04-12T09:55:54Z</time></trkpt><trkpt lat="42.25126925460589" lon="14.181446672166013"><ele>216.0</ele><time>2026-04-12T09:55:55Z</time></trkpt><trkpt lat="42.2513839650854" lon="14.181362900005013"><ele>216.0</ele><time>2026-04-12T09:55:56Z</time></trkpt><trkpt lat="42.251480807419945" lon="14.18128431887621"><ele>215.5</ele><time>2026-04-12T09:55:57Z</time></trkpt><trkpt lat="42.25155990000911" lon="14.181254794824872"><ele>215.0</ele><time>2026-04-12T09:55:58Z</time></trkpt><trkpt lat="42.251692120032644" lon="14.181367644443586"><ele>214.5</ele><time>2026-04-12T09:56:00Z</time></trkpt><trkpt lat="42.25179933439508" lon="14.181453470761758"><ele>214.0</ele><time>2026-04-12T09:56:01Z</time></trkpt><trkpt lat="42.25190324838639" lon="14.181561984424071"><ele>214.0</ele><time>2026-04-12T09:56:02Z</time></trkpt><trkpt lat="42.25200830674067" lon="14.181687913951336"><ele>214.0</ele><time>2026-04-12T09:56:03Z</time></trkpt><trkpt lat="42.25212197176116" lon="14.181806359113912"><ele>214.0</ele><time>2026-04-12T09:56:04Z</time></trkpt><trkpt lat="42.25223765530549" lon="14.181894562414536"><ele>214.0</ele><time>2026-04-12T09:56:05Z</time></trkpt><trkpt lat="42.25235659744137" lon="14.181943422059465"><ele>213.66666666666666</ele><time>2026-04-12T09:56:06Z</time></trkpt><trkpt lat="42.25249262947678" lon="14.181944434051566"><ele>213.33333333333331</ele><time>2026-04-12T09:56:07Z</time></trkpt><trkpt lat="42.25264768412178" lon="14.18191110422099"><ele>213.0</ele><time>2026-04-12T09:56:08Z</time></trkpt><trkpt lat="42.25281610842716" lon="14.181866497616985"><ele>213.0</ele><time>2026-04-12T09:56:09Z</time></trkpt><trkpt lat="42.25298568540054" lon="14.181822949564971"><ele>213.0</ele><time>2026-04-12T09:56:10Z</time></trkpt><trkpt lat="42.25315202801336" lon="14.181788511774204"><ele>213.0</ele><time>2026-04-12T09:56:11Z</time></trkpt><trkpt lat="42.2533182884284" lon="14.18177165097063"><ele>215.0</ele><time>2026-04-12T09:56:12Z</time></trkpt><trkpt lat="42.25347774034996" lon="14.181789189523663"><ele>217.0</ele><time>2026-04-12T09:56:13Z</time></trkpt><trkpt lat="42.25361894256215" lon="14.18184920931847"><ele>219.0</ele><time>2026-04-12T09:56:14Z</time></trkpt><trkpt lat="42.253750601694605" lon="14.181970081617319"><ele>219.0</ele><time>2026-04-12T09:56:15Z</time></trkpt><trkpt lat="42.25388825509317" lon="14.182099431658704"><ele>219.0</ele><time>2026-04-12T09:56:15.999Z</time></trkpt><trkpt lat="42.254035334920395" lon="14.182223362975027"><ele>219.0</ele><time>2026-04-12T09:56:16.999Z</time></trkpt><trkpt lat="42.25418179920733" lon="14.182341862463142"><ele>219.33333333333331</ele><time>2026-04-12T09:56:17.999Z</time></trkpt><trkpt lat="42.25433516863184" lon="14.182460253037872"><ele>219.66666666666666</ele><time>2026-04-12T09:56:18.999Z</time></trkpt><trkpt lat="42.25448652429775" lon="14.18258624266613"><ele>220.0</ele><time>2026-04-12T09:56:19.999Z</time></trkpt><trkpt lat="42.25463800711561" lon="14.182716035407902"><ele>220.0</ele><time>2026-04-12T09:56:20.999Z</time></trkpt><trkpt lat="42.25476089027099" lon="14.18285462068007"><ele>220.0</ele><time>2026-04-12T09:56:21.999Z</time></trkpt><trkpt lat="42.2548745975074" lon="14.183019296048005"><ele>220.0</ele><time>2026-04-12T09:56:22.999Z</time></trkpt><trkpt lat="42.254989213591244" lon="14.18320358288006"><ele>220.33333333333331</ele><time>2026-04-12T09:56:23.999Z</time></trkpt><trkpt lat="42.25512766596352" lon="14.183390056080903"><ele>220.66666666666669</ele><time>2026-04-12T09:56:24.999Z</time></trkpt><trkpt lat="42.25527250474999" lon="14.183580248347031"><ele>221.0</ele><time>2026-04-12T09:56:25.999Z</time></trkpt><trkpt lat="42.25541293574683" lon="14.183766797837286"><ele>221.0</ele><time>2026-04-12T09:56:26.999Z</time></trkpt><trkpt lat="42.25554046781019" lon="14.183948220147089"><ele>221.0</ele><time>2026-04-12T09:56:27.999Z</time></trkpt><trkpt lat="42.25566365542604" lon="14.184142912525461"><ele>221.0</ele><time>2026-04-12T09:56:28.999Z</time></trkpt><trkpt lat="42.25576850516481" lon="14.18433549991901"><ele>221.0</ele><time>2026-04-12T09:56:29.999Z</time></trkpt><trkpt lat="42.25586810517141" lon="14.184485502637681"><ele>221.0</ele><time>2026-04-12T09:56:30.999Z</time></trkpt><trkpt lat="42.255984883584425" lon="14.18459636493565"><ele>221.0</ele><time>2026-04-12T09:56:31.999Z</time></trkpt><trkpt lat="42.256140384952374" lon="14.184696819849837"><ele>221.0</ele><time>2026-04-12T09:56:32.999Z</time></trkpt><trkpt lat="42.25630619379975" lon="14.184808503426796"><ele>221.0</ele><time>2026-04-12T09:56:33.999Z</time></trkpt><trkpt lat="42.2564423013437" lon="14.18491512207509"><ele>221.0</ele><time>2026-04-12T09:56:34.999Z</time></trkpt><trkpt lat="42.25652901126947" lon="14.184990712728425"><ele>221.0</ele><time>2026-04-12T09:56:35.999Z</time></trkpt><trkpt lat="42.25659762806253" lon="14.185037705508062"><ele>221.0</ele><time>2026-04-12T09:56:36.999Z</time></trkpt><trkpt lat="42.256674545185824" lon="14.185089224768513"><ele>221.00000000000003</ele><time>2026-04-12T09:56:38.999Z</time></trkpt><trkpt lat="42.25679204118596" lon="14.18492801538257"><ele>221.00000000000003</ele><time>2026-04-12T09:56:40.999Z</time></trkpt><trkpt lat="42.25685768745585" lon="14.18488586158666"><ele>221.0</ele><time>2026-04-12T09:56:41.999Z</time></trkpt><trkpt lat="42.25694581126169" lon="14.184792146882398"><ele>221.0</ele><time>2026-04-12T09:56:42.999Z</time></trkpt><trkpt lat="42.25702469954242" lon="14.184652674017507"><ele>223.0</ele><time>2026-04-12T09:56:43.999Z</time></trkpt><trkpt lat="42.257130266382994" lon="14.184530660257023"><ele>225.0</ele><time>2026-04-12T09:56:44.999Z</time></trkpt><trkpt lat="42.257282773316426" lon="14.184393832598547"><ele>227.0</ele><time>2026-04-12T09:56:45.999Z</time></trkpt><trkpt lat="42.257416402403244" lon="14.184253125260058"><ele>227.39999999999998</ele><time>2026-04-12T09:56:46.999Z</time></trkpt><trkpt lat="42.25750885635723" lon="14.184175029826127"><ele>227.79999999999998</ele><time>2026-04-12T09:56:47.999Z</time></trkpt><trkpt lat="42.25760071705675" lon="14.184078398921635"><ele>228.2</ele><time>2026-04-12T09:56:48.999Z</time></trkpt><trkpt lat="42.257670511290435" lon="14.183968828041541"><ele>228.6</ele><time>2026-04-12T09:56:49.999Z</time></trkpt><trkpt lat="42.257679058194526" lon="14.183829656246973"><ele>229.0</ele><time>2026-04-12T09:56:50.999Z</time></trkpt><trkpt lat="42.25767437643126" lon="14.18371826990587"><ele>230.5</ele><time>2026-04-12T09:56:51.999Z</time></trkpt><trkpt lat="42.25764253265952" lon="14.183573471685344"><ele>232.0</ele><time>2026-04-12T09:56:52.999Z</time></trkpt><trkpt lat="42.25757430954275" lon="14.183390658297801"><ele>233.5</ele><time>2026-04-12T09:56:53.999Z</time></trkpt><trkpt lat="42.25752128310132" lon="14.183211163582529"><ele>235.0</ele><time>2026-04-12T09:56:54.999Z</time></trkpt><trkpt lat="42.25748471393328" lon="14.183050177886258"><ele>236.83333333333331</ele><time>2026-04-12T09:56:55.999Z</time></trkpt><trkpt lat="42.25746637649875" lon="14.182915734595325"><ele>238.66666666666666</ele><time>2026-04-12T09:56:56.999Z</time></trkpt><trkpt lat="42.25742506941753" lon="14.182844498648107"><ele>240.5</ele><time>2026-04-12T09:56:57.999Z</time></trkpt><trkpt lat="42.25734392489738" lon="14.182777945141101"><ele>242.33333333333331</ele><time>2026-04-12T09:56:58.999Z</time></trkpt><trkpt lat="42.25725692587425" lon="14.182731014487375"><ele>244.16666666666666</ele><time>2026-04-12T09:56:59.999Z</time></trkpt><trkpt lat="42.25717641230615" lon="14.182721231558503"><ele>246.0</ele><time>2026-04-12T09:57:00.999Z</time></trkpt><trkpt lat="42.25709374360082" lon="14.182650615690523"><ele>246.4</ele><time>2026-04-12T09:57:02.999Z</time></trkpt><trkpt lat="42.257074467816146" lon="14.182474045570537"><ele>246.8</ele><time>2026-04-12T09:57:04.999Z</time></trkpt><trkpt lat="42.25707603828101" lon="14.182384778648414"><ele>247.20000000000002</ele><time>2026-04-12T09:57:05.999Z</time></trkpt><trkpt lat="42.257086499210466" lon="14.182286724733952"><ele>247.60000000000002</ele><time>2026-04-12T09:57:06.999Z</time></trkpt><trkpt lat="42.25717581047395" lon="14.18214373701203"><ele>248.0</ele><time>2026-04-12T09:57:08.999Z</time></trkpt><trkpt lat="42.257234544535414" lon="14.182053740377222"><ele>249.4</ele><time>2026-04-12T09:57:09.999Z</time></trkpt><trkpt lat="42.257281318178016" lon="14.181948886764129"><ele>250.8</ele><time>2026-04-12T09:57:10.999Z</time></trkpt><trkpt lat="42.257330794249185" lon="14.181824095227709"><ele>252.2</ele><time>2026-04-12T09:57:11.999Z</time></trkpt><trkpt lat="42.2574117239184" lon="14.181678830086648"><ele>253.6</ele><time>2026-04-12T09:57:12.999Z</time></trkpt><trkpt lat="42.25745112009461" lon="14.18155136322066"><ele>255.0</ele><time>2026-04-12T09:57:13.999Z</time></trkpt><trkpt lat="42.257487951465485" lon="14.181418567757948"><ele>256.5</ele><time>2026-04-12T09:57:14.999Z</time></trkpt><trkpt lat="42.25750584346144" lon="14.181316405583807"><ele>258.0</ele><time>2026-04-12T09:57:15.999Z</time></trkpt><trkpt lat="42.25754195621093" lon="14.181205723142405"><ele>259.5</ele><time>2026-04-12T09:57:16.998Z</time></trkpt><trkpt lat="42.25759847873361" lon="14.181106350843761"><ele>261.0</ele><time>2026-04-12T09:57:17.998Z</time></trkpt><trkpt lat="42.257643723756" lon="14.181023435295685"><ele>262.5</ele><time>2026-04-12T09:57:18.998Z</time></trkpt><trkpt lat="42.25769788611368" lon="14.180910217560902"><ele>264.0</ele><time>2026-04-12T09:57:19.998Z</time></trkpt><trkpt lat="42.257777189421056" lon="14.18076601803569"><ele>266.59999999999997</ele><time>2026-04-12T09:57:20.998Z</time></trkpt><trkpt lat="42.257838064498756" lon="14.180648663075598"><ele>269.2</ele><time>2026-04-12T09:57:21.998Z</time></trkpt><trkpt lat="42.25787792052625" lon="14.180516807039833"><ele>271.79999999999995</ele><time>2026-04-12T09:57:22.998Z</time></trkpt><trkpt lat="42.25791616310493" lon="14.180372327022814"><ele>274.4</ele><time>2026-04-12T09:57:23.998Z</time></trkpt><trkpt lat="42.25789078068862" lon="14.18024843449161"><ele>277.0</ele><time>2026-04-12T09:57:24.998Z</time></trkpt><trkpt lat="42.25788787861635" lon="14.180117533412025"><ele>277.0</ele><time>2026-04-12T09:57:25.998Z</time></trkpt><trkpt lat="42.257896497176155" lon="14.17993808264499"><ele>277.0</ele><time>2026-04-12T09:57:26.998Z</time></trkpt><trkpt lat="42.25792115936369" lon="14.17977494981994"><ele>277.0</ele><time>2026-04-12T09:57:27.998Z</time></trkpt><trkpt lat="42.25793877526878" lon="14.179602336310339"><ele>277.0</ele><time>2026-04-12T09:57:28.998Z</time></trkpt><trkpt lat="42.257912033868635" lon="14.179475311098145"><ele>279.75</ele><time>2026-04-12T09:57:29.998Z</time></trkpt><trkpt lat="42.257920580932044" lon="14.179327142553133"><ele>282.5</ele><time>2026-04-12T09:57:30.998Z</time></trkpt><trkpt lat="42.25795630163709" lon="14.179173460133685"><ele>285.25</ele><time>2026-04-12T09:57:31.998Z</time></trkpt><trkpt lat="42.25799738257405" lon="14.178993305186383"><ele>288.0</ele><time>2026-04-12T09:57:32.998Z</time></trkpt><trkpt lat="42.2580275521122" lon="14.178863321205608"><ele>287.0</ele><time>2026-04-12T09:57:33.998Z</time></trkpt><trkpt lat="42.25805332182382" lon="14.178734633750034"><ele>286.0</ele><time>2026-04-12T09:57:34.998Z</time></trkpt><trkpt lat="42.258068342443906" lon="14.178579584056727"><ele>285.0</ele><time>2026-04-12T09:57:35.998Z</time></trkpt><trkpt lat="42.258081015865116" lon="14.178420723989625"><ele>284.0</ele><time>2026-04-12T09:57:36.998Z</time></trkpt><trkpt lat="42.25810094015701" lon="14.178287324457585"><ele>283.0</ele><time>2026-04-12T09:57:38Z</time></trkpt><trkpt lat="42.2581196154023" lon="14.17817958294506"><ele>287.4</ele><time>2026-04-12T09:57:39Z</time></trkpt><trkpt lat="42.25811057124388" lon="14.178071840724446"><ele>291.8</ele><time>2026-04-12T09:57:40Z</time></trkpt><trkpt lat="42.25810777555968" lon="14.177969080149627"><ele>296.2</ele><time>2026-04-12T09:57:41Z</time></trkpt><trkpt lat="42.258096551010354" lon="14.17787133083309"><ele>300.6</ele><time>2026-04-12T09:57:42Z</time></trkpt><trkpt lat="42.25800725329866" lon="14.177765225050232"><ele>305.0</ele><time>2026-04-12T09:57:44Z</time></trkpt><trkpt lat="42.25791485367474" lon="14.177705689612097"><ele>305.0</ele><time>2026-04-12T09:57:46Z</time></trkpt><trkpt lat="42.25785535786833" lon="14.177654671859832"><ele>305.0</ele><time>2026-04-12T09:57:47Z</time></trkpt><trkpt lat="42.25778272472328" lon="14.177665342858205"><ele>305.0</ele><time>2026-04-12T09:57:48Z</time></trkpt><trkpt lat="42.25771141056789" lon="14.177706597372815"><ele>305.0</ele><time>2026-04-12T09:57:49Z</time></trkpt><trkpt lat="42.25763263911285" lon="14.17771831881533"><ele>305.0</ele><time>2026-04-12T09:57:50Z</time></trkpt><trkpt lat="42.257547384889975" lon="14.177700008435833"><ele>305.0</ele><time>2026-04-12T09:57:51Z</time></trkpt><trkpt lat="42.25746919789968" lon="14.177702053867726"><ele>305.0</ele><time>2026-04-12T09:57:52Z</time></trkpt><trkpt lat="42.25738006172845" lon="14.177701775570036"><ele>305.0</ele><time>2026-04-12T09:57:53Z</time></trkpt><trkpt lat="42.257256379685444" lon="14.177756633378852"><ele>305.0</ele><time>2026-04-12T09:57:55Z</time></trkpt><trkpt lat="42.25718808744165" lon="14.177842056205387"><ele>305.0</ele><time>2026-04-12T09:57:56Z</time></trkpt><trkpt lat="42.257132535047454" lon="14.177799203952306"><ele>305.0</ele><time>2026-04-12T09:57:59Z</time></trkpt><trkpt lat="42.25706079020835" lon="14.177762994116254"><ele>307.75</ele><time>2026-04-12T09:58:00Z</time></trkpt><trkpt lat="42.25706327438154" lon="14.177667124466424"><ele>310.5</ele><time>2026-04-12T09:58:01Z</time></trkpt><trkpt lat="42.25719705968083" lon="14.177350472425037"><ele>313.25</ele><time>2026-04-12T09:58:02Z</time></trkpt><trkpt lat="42.2571994129805" lon="14.17721135717422"><ele>316.0</ele><time>2026-04-12T09:58:04Z</time></trkpt><trkpt lat="42.25723609981103" lon="14.177096891073488"><ele>315.8</ele><time>2026-04-12T09:58:05Z</time></trkpt><trkpt lat="42.25729142263228" lon="14.176976925557245"><ele>315.6</ele><time>2026-04-12T09:58:06Z</time></trkpt><trkpt lat="42.25734822091447" lon="14.176836242968138"><ele>315.4</ele><time>2026-04-12T09:58:07Z</time></trkpt><trkpt lat="42.25740412954855" lon="14.176701776111395"><ele>315.2</ele><time>2026-04-12T09:58:08Z</time></trkpt><trkpt lat="42.25744721112545" lon="14.176562208841101"><ele>315.0</ele><time>2026-04-12T09:58:09Z</time></trkpt><trkpt lat="42.25749475719007" lon="14.17640559845865"><ele>316.8</ele><time>2026-04-12T09:58:10Z</time></trkpt><trkpt lat="42.25753980140925" lon="14.176260545775362"><ele>318.6</ele><time>2026-04-12T09:58:11Z</time></trkpt><trkpt lat="42.25759541805747" lon="14.176127282357607"><ele>320.4</ele><time>2026-04-12T09:58:12Z</time></trkpt><trkpt lat="42.25764129455845" lon="14.176001178751035"><ele>322.2</ele><time>2026-04-12T09:58:13Z</time></trkpt><trkpt lat="42.25768960846897" lon="14.175885815616335"><ele>324.0</ele><time>2026-04-12T09:58:14Z</time></trkpt><trkpt lat="42.257716987303844" lon="14.175790954670115"><ele>324.0</ele><time>2026-04-12T09:58:15Z</time></trkpt><trkpt lat="42.25774288038335" lon="14.17570446316685"><ele>324.0</ele><time>2026-04-12T09:58:16Z</time></trkpt><trkpt lat="42.257778244447465" lon="14.175562540921295"><ele>324.0</ele><time>2026-04-12T09:58:18Z</time></trkpt><trkpt lat="42.25772778939974" lon="14.175509548855704"><ele>324.0</ele><time>2026-04-12T09:58:19.999Z</time></trkpt><trkpt lat="42.25727095129493" lon="14.175632370196453"><ele>325.0</ele><time>2026-04-12T09:58:21.999Z</time></trkpt><trkpt lat="42.257238481633735" lon="14.175523521607376"><ele>326.0</ele><time>2026-04-12T09:58:23.999Z</time></trkpt><trkpt lat="42.25714195276882" lon="14.17546091632641"><ele>327.0</ele><time>2026-04-12T09:58:25.999Z</time></trkpt><trkpt lat="42.25716825063692" lon="14.175341839526645"><ele>328.0</ele><time>2026-04-12T09:58:26.999Z</time></trkpt><trkpt lat="42.25723123287823" lon="14.175218520647322"><ele>329.0</ele><time>2026-04-12T09:58:27.999Z</time></trkpt><trkpt lat="42.25728104728884" lon="14.175112236553533"><ele>329.0</ele><time>2026-04-12T09:58:28.999Z</time></trkpt><trkpt lat="42.25732229093712" lon="14.174973037272347"><ele>329.0</ele><time>2026-04-12T09:58:29.999Z</time></trkpt><trkpt lat="42.25737622363092" lon="14.174823931735821"><ele>329.0</ele><time>2026-04-12T09:58:30.999Z</time></trkpt><trkpt lat="42.2574328368778" lon="14.174676046540943"><ele>329.0</ele><time>2026-04-12T09:58:31.999Z</time></trkpt><trkpt lat="42.257483365638166" lon="14.174543442864048"><ele>331.5</ele><time>2026-04-12T09:58:32.999Z</time></trkpt><trkpt lat="42.25753555723754" lon="14.174407161021655"><ele>334.0</ele><time>2026-04-12T09:58:33.999Z</time></trkpt><trkpt lat="42.25760237389398" lon="14.17424879960131"><ele>336.5</ele><time>2026-04-12T09:58:34.999Z</time></trkpt><trkpt lat="42.257669097478" lon="14.174086024378113"><ele>339.0</ele><time>2026-04-12T09:58:35.999Z</time></trkpt><trkpt lat="42.25774201355854" lon="14.173925197878676"><ele>340.25</ele><time>2026-04-12T09:58:36.999Z</time></trkpt><trkpt lat="42.2578244631096" lon="14.173757403115092"><ele>341.5</ele><time>2026-04-12T09:58:37.999Z</time></trkpt><trkpt lat="42.25792031759376" lon="14.1736044619695"><ele>342.75</ele><time>2026-04-12T09:58:38.999Z</time></trkpt><trkpt lat="42.258027788015035" lon="14.17346047126438"><ele>344.0</ele><time>2026-04-12T09:58:39.999Z</time></trkpt><trkpt lat="42.2581309484718" lon="14.17331916293214"><ele>344.0</ele><time>2026-04-12T09:58:40.999Z</time></trkpt><trkpt lat="42.2582277007244" lon="14.173217901842264"><ele>344.0</ele><time>2026-04-12T09:58:41.999Z</time></trkpt><trkpt lat="42.258316882082546" lon="14.173130259262173"><ele>344.0</ele><time>2026-04-12T09:58:42.999Z</time></trkpt><trkpt lat="42.258401424061745" lon="14.17306126596574"><ele>344.0</ele><time>2026-04-12T09:58:43.999Z</time></trkpt><trkpt lat="42.25845252200631" lon="14.172923258511585"><ele>344.0</ele><time>2026-04-12T09:58:44.999Z</time></trkpt><trkpt lat="42.25852368334704" lon="14.172802982190106"><ele>347.25</ele><time>2026-04-12T09:58:45.999Z</time></trkpt><trkpt lat="42.25860162286167" lon="14.172685855657013"><ele>350.5</ele><time>2026-04-12T09:58:46.999Z</time></trkpt><trkpt lat="42.25868319524264" lon="14.172570683557721"><ele>353.75</ele><time>2026-04-12T09:58:47.999Z</time></trkpt><trkpt lat="42.258781383941084" lon="14.172440122468009"><ele>357.0</ele><time>2026-04-12T09:58:48.999Z</time></trkpt><trkpt lat="42.25887769671531" lon="14.172318241795454"><ele>361.0</ele><time>2026-04-12T09:58:49.999Z</time></trkpt><trkpt lat="42.25897554061189" lon="14.172207792855678"><ele>365.0</ele><time>2026-04-12T09:58:50.999Z</time></trkpt><trkpt lat="42.25907946110315" lon="14.172100761573851"><ele>369.0</ele><time>2026-04-12T09:58:51.999Z</time></trkpt><trkpt lat="42.259184772595496" lon="14.17199586495564"><ele>373.0</ele><time>2026-04-12T09:58:52.999Z</time></trkpt><trkpt lat="42.25929009413405" lon="14.171884339967193"><ele>373.0</ele><time>2026-04-12T09:58:53.999Z</time></trkpt><trkpt lat="42.25938844809302" lon="14.17176197093761"><ele>373.0</ele><time>2026-04-12T09:58:54.999Z</time></trkpt><trkpt lat="42.259474149766355" lon="14.171616941800592"><ele>373.0</ele><time>2026-04-12T09:58:55.999Z</time></trkpt><trkpt lat="42.259541421052326" lon="14.171458819850233"><ele>373.0</ele><time>2026-04-12T09:58:56.999Z</time></trkpt><trkpt lat="42.25959462856158" lon="14.17134864384807"><ele>372.4</ele><time>2026-04-12T09:58:57.999Z</time></trkpt><trkpt lat="42.2596466990025" lon="14.171245118360439"><ele>371.79999999999995</ele><time>2026-04-12T09:58:58.999Z</time></trkpt><trkpt lat="42.25970138845414" lon="14.171160433001658"><ele>371.2</ele><time>2026-04-12T09:58:59.999Z</time></trkpt><trkpt lat="42.25979301980907" lon="14.171085656330556"><ele>370.6</ele><time>2026-04-12T09:59:00.999Z</time></trkpt><trkpt lat="42.259912495179435" lon="14.170968457909598"><ele>370.0</ele><time>2026-04-12T09:59:01.999Z</time></trkpt><trkpt lat="42.26002678486984" lon="14.170852267190194"><ele>370.0</ele><time>2026-04-12T09:59:02.999Z</time></trkpt><trkpt lat="42.26015488901677" lon="14.17072606719401"><ele>370.0</ele><time>2026-04-12T09:59:03.999Z</time></trkpt><trkpt lat="42.26027786043115" lon="14.17060534569133"><ele>370.0</ele><time>2026-04-12T09:59:04.999Z</time></trkpt><trkpt lat="42.26039640994424" lon="14.17048896515494"><ele>369.25</ele><time>2026-04-12T09:59:05.999Z</time></trkpt><trkpt lat="42.26049979606162" lon="14.170386266450096"><ele>368.5</ele><time>2026-04-12T09:59:06.999Z</time></trkpt><trkpt lat="42.26061013060241" lon="14.170265049795752"><ele>367.75</ele><time>2026-04-12T09:59:07.999Z</time></trkpt><trkpt lat="42.26069228123529" lon="14.170141010623501"><ele>367.0</ele><time>2026-04-12T09:59:08.999Z</time></trkpt><trkpt lat="42.260801719333124" lon="14.17003350977797"><ele>364.6</ele><time>2026-04-12T09:59:09.999Z</time></trkpt><trkpt lat="42.26087726750602" lon="14.169931885144702"><ele>362.20000000000005</ele><time>2026-04-12T09:59:10.999Z</time></trkpt><trkpt lat="42.26092877496877" lon="14.169821479047206"><ele>359.8</ele><time>2026-04-12T09:59:11.999Z</time></trkpt><trkpt lat="42.26098443319633" lon="14.169743972238136"><ele>357.4</ele><time>2026-04-12T09:59:12.999Z</time></trkpt><trkpt lat="42.26101755854605" lon="14.169628032532227"><ele>355.0</ele><time>2026-04-12T09:59:13.999Z</time></trkpt><trkpt lat="42.26100059660131" lon="14.169482673153231"><ele>353.25</ele><time>2026-04-12T09:59:14.999Z</time></trkpt><trkpt lat="42.26102972915845" lon="14.169333180232396"><ele>351.5</ele><time>2026-04-12T09:59:15.999Z</time></trkpt><trkpt lat="42.26104540911218" lon="14.169171204135361"><ele>349.75</ele><time>2026-04-12T09:59:16.999Z</time></trkpt><trkpt lat="42.26105052400188" lon="14.168999422417004"><ele>348.0</ele><time>2026-04-12T09:59:17.999Z</time></trkpt><trkpt lat="42.26101229734075" lon="14.168862905832764"><ele>347.0</ele><time>2026-04-12T09:59:18.999Z</time></trkpt><trkpt lat="42.26101845479889" lon="14.168719226065074"><ele>346.0</ele><time>2026-04-12T09:59:19.998Z</time></trkpt><trkpt lat="42.26102505533279" lon="14.168581111668997"><ele>345.0</ele><time>2026-04-12T09:59:20.998Z</time></trkpt><trkpt lat="42.26104603950136" lon="14.16843060139815"><ele>344.0</ele><time>2026-04-12T09:59:21.998Z</time></trkpt><trkpt lat="42.26108263418062" lon="14.168272608745008"><ele>343.0</ele><time>2026-04-12T09:59:22.998Z</time></trkpt><trkpt lat="42.261123860512754" lon="14.16811566687517"><ele>341.2</ele><time>2026-04-12T09:59:23.998Z</time></trkpt><trkpt lat="42.261160452650834" lon="14.167977507118538"><ele>339.4</ele><time>2026-04-12T09:59:24.998Z</time></trkpt><trkpt lat="42.26117894234816" lon="14.167845101478616"><ele>337.59999999999997</ele><time>2026-04-12T09:59:25.998Z</time></trkpt><trkpt lat="42.261186154900834" lon="14.167700674528778"><ele>335.79999999999995</ele><time>2026-04-12T09:59:26.998Z</time></trkpt><trkpt lat="42.261179815711806" lon="14.167522954107296"><ele>334.0</ele><time>2026-04-12T09:59:27.998Z</time></trkpt><trkpt lat="42.261169065269144" lon="14.167344137699878"><ele>330.25</ele><time>2026-04-12T09:59:28.998Z</time></trkpt><trkpt lat="42.26115601835346" lon="14.167182121153699"><ele>326.5</ele><time>2026-04-12T09:59:29.998Z</time></trkpt><trkpt lat="42.26115135552805" lon="14.167090356169645"><ele>322.75</ele><time>2026-04-12T09:59:30.998Z</time></trkpt><trkpt lat="42.26094828884039" lon="14.16700094879249"><ele>319.0</ele><time>2026-04-12T09:59:34.998Z</time></trkpt><trkpt lat="42.26083914207322" lon="14.166992177436445"><ele>319.0</ele><time>2026-04-12T09:59:35.998Z</time></trkpt><trkpt lat="42.260717893165165" lon="14.166939978384253"><ele>319.0</ele><time>2026-04-12T09:59:36.998Z</time></trkpt><trkpt lat="42.26061036197126" lon="14.16687609677535"><ele>319.0</ele><time>2026-04-12T09:59:37.998Z</time></trkpt><trkpt lat="42.26051300292125" lon="14.16682019832859"><ele>319.0</ele><time>2026-04-12T09:59:38.998Z</time></trkpt><trkpt lat="42.26040429121862" lon="14.166789241940954"><ele>321.0</ele><time>2026-04-12T09:59:39.998Z</time></trkpt><trkpt lat="42.26030675920494" lon="14.166746928804791"><ele>323.0</ele><time>2026-04-12T09:59:40.998Z</time></trkpt><trkpt lat="42.26020485096984" lon="14.166710471548368"><ele>325.0</ele><time>2026-04-12T09:59:41.998Z</time></trkpt><trkpt lat="42.26009461474162" lon="14.166683218065172"><ele>327.0</ele><time>2026-04-12T09:59:42.998Z</time></trkpt><trkpt lat="42.259993011160006" lon="14.16667303637456"><ele>329.0</ele><time>2026-04-12T09:59:44Z</time></trkpt><trkpt lat="42.25989115733064" lon="14.16665718477626"><ele>329.0</ele><time>2026-04-12T09:59:45Z</time></trkpt><trkpt lat="42.25979615889105" lon="14.166634895758575"><ele>329.0</ele><time>2026-04-12T09:59:46Z</time></trkpt><trkpt lat="42.25968879611243" lon="14.166622364079059"><ele>329.0</ele><time>2026-04-12T09:59:47Z</time></trkpt><trkpt lat="42.2595935271932" lon="14.16657480481526"><ele>329.0</ele><time>2026-04-12T09:59:48Z</time></trkpt><trkpt lat="42.25951148173213" lon="14.166518150038263"><ele>329.0</ele><time>2026-04-12T09:59:49Z</time></trkpt><trkpt lat="42.25941391280565" lon="14.16646196910714"><ele>330.25</ele><time>2026-04-12T09:59:50Z</time></trkpt><trkpt lat="42.25930915065888" lon="14.16641705064109"><ele>331.5</ele><time>2026-04-12T09:59:51Z</time></trkpt><trkpt lat="42.259187266471045" lon="14.166383461003756"><ele>332.75</ele><time>2026-04-12T09:59:52Z</time></trkpt><trkpt lat="42.25906871317406" lon="14.166343806979903"><ele>334.0</ele><time>2026-04-12T09:59:53Z</time></trkpt><trkpt lat="42.258966632717225" lon="14.166301817048257"><ele>337.6</ele><time>2026-04-12T09:59:54Z</time></trkpt><trkpt lat="42.25887986761071" lon="14.166232889655749"><ele>341.2</ele><time>2026-04-12T09:59:55Z</time></trkpt><trkpt lat="42.25878404885875" lon="14.166187454793397"><ele>344.8</ele><time>2026-04-12T09:59:56Z</time></trkpt><trkpt lat="42.2586621767213" lon="14.16615159290817"><ele>348.40000000000003</ele><time>2026-04-12T09:59:57Z</time></trkpt><trkpt lat="42.25854619385591" lon="14.166136426200705"><ele>352.0</ele><time>2026-04-12T09:59:58Z</time></trkpt><trkpt lat="42.25841431561913" lon="14.16612004048949"><ele>352.0</ele><time>2026-04-12T09:59:59Z</time></trkpt><trkpt lat="42.25830487340583" lon="14.16610120960377"><ele>352.0</ele><time>2026-04-12T10:00:00Z</time></trkpt><trkpt lat="42.258214353586965" lon="14.166106664519813"><ele>352.0</ele><time>2026-04-12T10:00:01Z</time></trkpt><trkpt lat="42.25811545142694" lon="14.166143640956074"><ele>352.0</ele><time>2026-04-12T10:00:02Z</time></trkpt><trkpt lat="42.2580318613486" lon="14.16615643477588"><ele>352.0</ele><time>2026-04-12T10:00:03Z</time></trkpt><trkpt lat="42.25796443571797" lon="14.166178004360859"><ele>352.75</ele><time>2026-04-12T10:00:04Z</time></trkpt><trkpt lat="42.25785562605217" lon="14.166272152776816"><ele>353.5</ele><time>2026-04-12T10:00:06Z</time></trkpt><trkpt lat="42.25778848941719" lon="14.166382806635525"><ele>354.25</ele><time>2026-04-12T10:00:07Z</time></trkpt><trkpt lat="42.25771328406833" lon="14.166525804962276"><ele>355.0</ele><time>2026-04-12T10:00:08Z</time></trkpt><trkpt lat="42.25764019882345" lon="14.166683768376028"><ele>355.0</ele><time>2026-04-12T10:00:09Z</time></trkpt><trkpt lat="42.257568974366045" lon="14.166867690278146"><ele>355.0</ele><time>2026-04-12T10:00:10Z</time></trkpt><trkpt lat="42.257492821492214" lon="14.167056202920472"><ele>355.0</ele><time>2026-04-12T10:00:11Z</time></trkpt><trkpt lat="42.25739175973475" lon="14.167210459461268"><ele>355.0</ele><time>2026-04-12T10:00:12Z</time></trkpt><trkpt lat="42.25730193035067" lon="14.167348483349821"><ele>355.0</ele><time>2026-04-12T10:00:13Z</time></trkpt><trkpt lat="42.25721760468019" lon="14.167463357493629"><ele>355.0</ele><time>2026-04-12T10:00:14Z</time></trkpt><trkpt lat="42.25713876387598" lon="14.167543172981711"><ele>355.0</ele><time>2026-04-12T10:00:15Z</time></trkpt><trkpt lat="42.2570372387412" lon="14.167569352090757"><ele>354.5</ele><time>2026-04-12T10:00:16Z</time></trkpt><trkpt lat="42.25690536015842" lon="14.167577021041637"><ele>354.0</ele><time>2026-04-12T10:00:17Z</time></trkpt><trkpt lat="42.25676858839338" lon="14.167599385245886"><ele>353.5</ele><time>2026-04-12T10:00:18Z</time></trkpt><trkpt lat="42.25666117483548" lon="14.167610508129467"><ele>353.0</ele><time>2026-04-12T10:00:19Z</time></trkpt><trkpt lat="42.256573572973885" lon="14.16765704373272"><ele>353.0</ele><time>2026-04-12T10:00:20Z</time></trkpt><trkpt lat="42.256471375685955" lon="14.167728674438388"><ele>353.0</ele><time>2026-04-12T10:00:21Z</time></trkpt><trkpt lat="42.25635846355864" lon="14.167818859034902"><ele>353.0</ele><time>2026-04-12T10:00:22Z</time></trkpt><trkpt lat="42.25625025008212" lon="14.167924653187097"><ele>353.0</ele><time>2026-04-12T10:00:23Z</time></trkpt><trkpt lat="42.25615398811076" lon="14.168034326685161"><ele>351.4</ele><time>2026-04-12T10:00:23.999Z</time></trkpt><trkpt lat="42.256060031207305" lon="14.168144071117345"><ele>349.79999999999995</ele><time>2026-04-12T10:00:24.999Z</time></trkpt><trkpt lat="42.255987240994884" lon="14.168231838640947"><ele>348.2</ele><time>2026-04-12T10:00:25.999Z</time></trkpt><trkpt lat="42.255923864149565" lon="14.16832314494328"><ele>346.6</ele><time>2026-04-12T10:00:26.999Z</time></trkpt><trkpt lat="42.25587848292348" lon="14.168422436861697"><ele>345.0</ele><time>2026-04-12T10:00:27.999Z</time></trkpt><trkpt lat="42.25586832352147" lon="14.168569725583687"><ele>345.0</ele><time>2026-04-12T10:00:29.999Z</time></trkpt><trkpt lat="42.25580263480174" lon="14.168635422411981"><ele>345.0</ele><time>2026-04-12T10:00:30.999Z</time></trkpt><trkpt lat="42.2557513266867" lon="14.16873798733203"><ele>345.0</ele><time>2026-04-12T10:00:31.999Z</time></trkpt><trkpt lat="42.25569157592422" lon="14.168846881646337"><ele>345.0</ele><time>2026-04-12T10:00:32.999Z</time></trkpt><trkpt lat="42.255642075572126" lon="14.168962734777777"><ele>345.0</ele><time>2026-04-12T10:00:33.999Z</time></trkpt><trkpt lat="42.255608692214565" lon="14.169076646539668"><ele>343.0</ele><time>2026-04-12T10:00:34.999Z</time></trkpt><trkpt lat="42.25557980545505" lon="14.169168230227136"><ele>341.0</ele><time>2026-04-12T10:00:35.999Z</time></trkpt><trkpt lat="42.25552316075954" lon="14.169208079345745"><ele>339.0</ele><time>2026-04-12T10:00:37.999Z</time></trkpt><trkpt lat="42.25550956705741" lon="14.169072256994232"><ele>337.0</ele><time>2026-04-12T10:00:39.999Z</time></trkpt><trkpt lat="42.25548559905913" lon="14.16896679331212"><ele>335.0</ele><time>2026-04-12T10:00:40.999Z</time></trkpt><trkpt lat="42.25545707951815" lon="14.168816451450606"><ele>333.0</ele><time>2026-04-12T10:00:41.999Z</time></trkpt><trkpt lat="42.25544262845793" lon="14.168647853466155"><ele>333.0</ele><time>2026-04-12T10:00:42.999Z</time></trkpt><trkpt lat="42.25544818813786" lon="14.168461284871505"><ele>333.0</ele><time>2026-04-12T10:00:43.999Z</time></trkpt><trkpt lat="42.25543132811003" lon="14.168276285137658"><ele>333.0</ele><time>2026-04-12T10:00:44.999Z</time></trkpt><trkpt lat="42.255402592509185" lon="14.168077671569977"><ele>333.0</ele><time>2026-04-12T10:00:45.999Z</time></trkpt><trkpt lat="42.255368688483514" lon="14.167858711589146"><ele>332.75</ele><time>2026-04-12T10:00:46.999Z</time></trkpt><trkpt lat="42.25533716110294" lon="14.167655100370855"><ele>332.5</ele><time>2026-04-12T10:00:47.999Z</time></trkpt><trkpt lat="42.255304687714926" lon="14.16747245148452"><ele>332.25</ele><time>2026-04-12T10:00:48.999Z</time></trkpt><trkpt lat="42.2552623459416" lon="14.16730653319383"><ele>332.0</ele><time>2026-04-12T10:00:49.999Z</time></trkpt><trkpt lat="42.25520098333665" lon="14.167154363261306"><ele>330.25</ele><time>2026-04-12T10:00:50.999Z</time></trkpt><trkpt lat="42.25512785978396" lon="14.16700078295365"><ele>328.5</ele><time>2026-04-12T10:00:51.999Z</time></trkpt><trkpt lat="42.25504757185891" lon="14.166841258328201"><ele>326.75</ele><time>2026-04-12T10:00:52.999Z</time></trkpt><trkpt lat="42.25495895887061" lon="14.16665662520647"><ele>325.0</ele><time>2026-04-12T10:00:53.999Z</time></trkpt><trkpt lat="42.254874264700746" lon="14.166468642823359"><ele>323.66666666666663</ele><time>2026-04-12T10:00:54.999Z</time></trkpt><trkpt lat="42.25478824632725" lon="14.166269833948089"><ele>322.3333333333333</ele><time>2026-04-12T10:00:55.999Z</time></trkpt><trkpt lat="42.254685200115745" lon="14.16606619029049"><ele>321.0</ele><time>2026-04-12T10:00:56.999Z</time></trkpt><trkpt lat="42.25457724888586" lon="14.165882571381713"><ele>319.0</ele><time>2026-04-12T10:00:57.999Z</time></trkpt><trkpt lat="42.25446577721948" lon="14.1656879006003"><ele>317.0</ele><time>2026-04-12T10:00:58.999Z</time></trkpt><trkpt lat="42.254351083999964" lon="14.165484805344532"><ele>315.0</ele><time>2026-04-12T10:00:59.999Z</time></trkpt><trkpt lat="42.25424981695123" lon="14.165290046579047"><ele>315.0</ele><time>2026-04-12T10:01:00.999Z</time></trkpt><trkpt lat="42.25415797606248" lon="14.165099482275314"><ele>315.0</ele><time>2026-04-12T10:01:01.999Z</time></trkpt><trkpt lat="42.25406129067443" lon="14.164907789749153"><ele>315.0</ele><time>2026-04-12T10:01:02.999Z</time></trkpt><trkpt lat="42.253959198725305" lon="14.16471446613605"><ele>313.0</ele><time>2026-04-12T10:01:03.999Z</time></trkpt><trkpt lat="42.253851760136385" lon="14.16452335926702"><ele>311.0</ele><time>2026-04-12T10:01:04.999Z</time></trkpt><trkpt lat="42.253741441350414" lon="14.164331987294727"><ele>309.0</ele><time>2026-04-12T10:01:05.999Z</time></trkpt><trkpt lat="42.25362640339323" lon="14.164132428884528"><ele>309.0</ele><time>2026-04-12T10:01:06.999Z</time></trkpt><trkpt lat="42.25351565021609" lon="14.163945244113531"><ele>309.0</ele><time>2026-04-12T10:01:07.999Z</time></trkpt><trkpt lat="42.25341512360463" lon="14.163776892390128"><ele>309.0</ele><time>2026-04-12T10:01:08.999Z</time></trkpt><trkpt lat="42.253329123924175" lon="14.163612924917416"><ele>309.0</ele><time>2026-04-12T10:01:09.999Z</time></trkpt><trkpt lat="42.25324943814873" lon="14.163450025873479"><ele>309.0</ele><time>2026-04-12T10:01:10.999Z</time></trkpt><trkpt lat="42.25318317142943" lon="14.163288862296508"><ele>309.0</ele><time>2026-04-12T10:01:11.999Z</time></trkpt><trkpt lat="42.253136544269346" lon="14.16312797924733"><ele>309.0</ele><time>2026-04-12T10:01:12.999Z</time></trkpt><trkpt lat="42.25310341151568" lon="14.162961093349237"><ele>307.25</ele><time>2026-04-12T10:01:13.999Z</time></trkpt><trkpt lat="42.25307430733619" lon="14.1627824056894"><ele>305.5</ele><time>2026-04-12T10:01:14.999Z</time></trkpt><trkpt lat="42.25302726976545" lon="14.16261061671867"><ele>303.75</ele><time>2026-04-12T10:01:15.999Z</time></trkpt><trkpt lat="42.2529923884559" lon="14.162413856475943"><ele>302.0</ele><time>2026-04-12T10:01:16.999Z</time></trkpt><trkpt lat="42.25294420557873" lon="14.16221468004268"><ele>302.0</ele><time>2026-04-12T10:01:17.999Z</time></trkpt><trkpt lat="42.25291719812321" lon="14.162025542669664"><ele>302.0</ele><time>2026-04-12T10:01:18.999Z</time></trkpt><trkpt lat="42.25287061226106" lon="14.161844998715013"><ele>302.0</ele><time>2026-04-12T10:01:19.999Z</time></trkpt><trkpt lat="42.25283421142554" lon="14.161709781072734"><ele>302.0</ele><time>2026-04-12T10:01:20.999Z</time></trkpt><trkpt lat="42.2528080221616" lon="14.161616600789387"><ele>302.0</ele><time>2026-04-12T10:01:21.999Z</time></trkpt><trkpt lat="42.25275594244729" lon="14.161548780226504"><ele>302.0</ele><time>2026-04-12T10:01:43.998Z</time></trkpt><trkpt lat="42.25272060244866" lon="14.161387609665235"><ele>302.0</ele><time>2026-04-12T10:01:46.998Z</time></trkpt><trkpt lat="42.25269504944829" lon="14.161308765847888"><ele>302.0</ele><time>2026-04-12T10:01:47.998Z</time></trkpt><trkpt lat="42.25266170491317" lon="14.161170931800076"><ele>302.0</ele><time>2026-04-12T10:01:50Z</time></trkpt><trkpt lat="42.25262910650623" lon="14.16104685915527"><ele>301.0</ele><time>2026-04-12T10:01:51Z</time></trkpt><trkpt lat="42.25258568000174" lon="14.1609227781819"><ele>300.0</ele><time>2026-04-12T10:01:52Z</time></trkpt><trkpt lat="42.252521398970174" lon="14.160765446994443"><ele>299.0</ele><time>2026-04-12T10:01:53Z</time></trkpt><trkpt lat="42.25245881659108" lon="14.160603111377949"><ele>298.0</ele><time>2026-04-12T10:01:54Z</time></trkpt><trkpt lat="42.252410012952" lon="14.160432002882498"><ele>295.5</ele><time>2026-04-12T10:01:55Z</time></trkpt><trkpt lat="42.252380214051875" lon="14.160255250273023"><ele>293.0</ele><time>2026-04-12T10:01:56Z</time></trkpt><trkpt lat="42.252359537199816" lon="14.160086869901473"><ele>290.5</ele><time>2026-04-12T10:01:57Z</time></trkpt><trkpt lat="42.252340086765294" lon="14.159923468015354"><ele>288.0</ele><time>2026-04-12T10:01:58Z</time></trkpt><trkpt lat="42.25231119615851" lon="14.15977381767167"><ele>288.25</ele><time>2026-04-12T10:01:59Z</time></trkpt><trkpt lat="42.252261598223704" lon="14.159624215591117"><ele>288.5</ele><time>2026-04-12T10:02:00Z</time></trkpt><trkpt lat="42.25221054777529" lon="14.159466045710467"><ele>288.75</ele><time>2026-04-12T10:02:01Z</time></trkpt><trkpt lat="42.25214297554711" lon="14.159310258321572"><ele>289.0</ele><time>2026-04-12T10:02:02Z</time></trkpt><trkpt lat="42.25207435731384" lon="14.159159358495376"><ele>285.59999999999997</ele><time>2026-04-12T10:02:03Z</time></trkpt><trkpt lat="42.25199989855897" lon="14.159021939352094"><ele>282.2</ele><time>2026-04-12T10:02:04Z</time></trkpt><trkpt lat="42.25192098034251" lon="14.15891217957105"><ele>278.79999999999995</ele><time>2026-04-12T10:02:05Z</time></trkpt><trkpt lat="42.251840174219915" lon="14.158837390368529"><ele>275.4</ele><time>2026-04-12T10:02:06Z</time></trkpt><trkpt lat="42.25177151049435" lon="14.158760668428487"><ele>272.0</ele><time>2026-04-12T10:02:07Z</time></trkpt><trkpt lat="42.25167318908868" lon="14.1586770237336"><ele>272.0</ele><time>2026-04-12T10:02:08Z</time></trkpt><trkpt lat="42.25154102613189" lon="14.158600796512886"><ele>272.0</ele><time>2026-04-12T10:02:09Z</time></trkpt><trkpt lat="42.25140843665744" lon="14.158508402222397"><ele>272.0</ele><time>2026-04-12T10:02:10Z</time></trkpt><trkpt lat="42.25128630521057" lon="14.158436944214891"><ele>272.0</ele><time>2026-04-12T10:02:11Z</time></trkpt><trkpt lat="42.2511835533224" lon="14.15837868417421"><ele>273.4</ele><time>2026-04-12T10:02:12Z</time></trkpt><trkpt lat="42.25107431663259" lon="14.158318402202058"><ele>274.79999999999995</ele><time>2026-04-12T10:02:13Z</time></trkpt><trkpt lat="42.25097312958945" lon="14.158267293867665"><ele>276.2</ele><time>2026-04-12T10:02:14Z</time></trkpt><trkpt lat="42.25086216305453" lon="14.158248391866088"><ele>277.59999999999997</ele><time>2026-04-12T10:02:15Z</time></trkpt><trkpt lat="42.250766136103856" lon="14.15821901299544"><ele>279.0</ele><time>2026-04-12T10:02:16Z</time></trkpt><trkpt lat="42.25066791020722" lon="14.158266486991348"><ele>280.25</ele><time>2026-04-12T10:02:17Z</time></trkpt><trkpt lat="42.250569738636756" lon="14.158287170771851"><ele>281.5</ele><time>2026-04-12T10:02:18Z</time></trkpt><trkpt lat="42.25051389325323" lon="14.158360853172175"><ele>282.75</ele><time>2026-04-12T10:02:19Z</time></trkpt><trkpt lat="42.25037451541473" lon="14.158069935483827"><ele>284.0</ele><time>2026-04-12T10:02:20Z</time></trkpt><trkpt lat="42.2502958971773" lon="14.157965970881987"><ele>281.8</ele><time>2026-04-12T10:02:21Z</time></trkpt><trkpt lat="42.25022468962045" lon="14.157870095169267"><ele>279.59999999999997</ele><time>2026-04-12T10:02:22Z</time></trkpt><trkpt lat="42.25014560626969" lon="14.157803362421548"><ele>277.4</ele><time>2026-04-12T10:02:23Z</time></trkpt><trkpt lat="42.25006421467606" lon="14.15779222297971"><ele>275.2</ele><time>2026-04-12T10:02:24Z</time></trkpt><trkpt lat="42.24997308683209" lon="14.157806038188914"><ele>273.0</ele><time>2026-04-12T10:02:25Z</time></trkpt><trkpt lat="42.24986935609775" lon="14.157823918760306"><ele>276.75</ele><time>2026-04-12T10:02:26Z</time></trkpt><trkpt lat="42.24974072462264" lon="14.157834049926638"><ele>280.5</ele><time>2026-04-12T10:02:27Z</time></trkpt><trkpt lat="42.249612668955756" lon="14.157817374772511"><ele>284.25</ele><time>2026-04-12T10:02:27.999Z</time></trkpt><trkpt lat="42.24948935579398" lon="14.15776462522901"><ele>288.0</ele><time>2026-04-12T10:02:28.999Z</time></trkpt><trkpt lat="42.249357440009035" lon="14.157675405528353"><ele>288.0</ele><time>2026-04-12T10:02:29.999Z</time></trkpt><trkpt lat="42.2492125737308" lon="14.157591911880596"><ele>288.0</ele><time>2026-04-12T10:02:30.999Z</time></trkpt><trkpt lat="42.2490763670609" lon="14.157536394338601"><ele>288.0</ele><time>2026-04-12T10:02:31.999Z</time></trkpt><trkpt lat="42.24894641372351" lon="14.15750345937429"><ele>288.0</ele><time>2026-04-12T10:02:32.999Z</time></trkpt><trkpt lat="42.24881056114254" lon="14.157466506412122"><ele>290.0</ele><time>2026-04-12T10:02:33.999Z</time></trkpt><trkpt lat="42.24865716438122" lon="14.157399370242183"><ele>292.0</ele><time>2026-04-12T10:02:34.999Z</time></trkpt><trkpt lat="42.248535209518224" lon="14.157351278836568"><ele>294.0</ele><time>2026-04-12T10:02:35.999Z</time></trkpt><trkpt lat="42.24842220626054" lon="14.157294864478395"><ele>296.0</ele><time>2026-04-12T10:02:36.999Z</time></trkpt><trkpt lat="42.2483122582075" lon="14.157224321913233"><ele>296.0</ele><time>2026-04-12T10:02:37.999Z</time></trkpt><trkpt lat="42.24819571365385" lon="14.157139204761528"><ele>296.0</ele><time>2026-04-12T10:02:38.999Z</time></trkpt><trkpt lat="42.248068622830615" lon="14.157052950382347"><ele>296.0</ele><time>2026-04-12T10:02:39.999Z</time></trkpt><trkpt lat="42.2479720916141" lon="14.15695087512554"><ele>296.0</ele><time>2026-04-12T10:02:40.999Z</time></trkpt><trkpt lat="42.2478773251609" lon="14.156810930528495"><ele>298.75</ele><time>2026-04-12T10:02:41.999Z</time></trkpt><trkpt lat="42.24781107585973" lon="14.156665398214685"><ele>301.5</ele><time>2026-04-12T10:02:42.999Z</time></trkpt><trkpt lat="42.247723073220754" lon="14.156501830138131"><ele>304.25</ele><time>2026-04-12T10:02:43.999Z</time></trkpt><trkpt lat="42.24764997048535" lon="14.15633939387398"><ele>307.0</ele><time>2026-04-12T10:02:44.999Z</time></trkpt><trkpt lat="42.24757100534461" lon="14.1561731487783"><ele>307.0</ele><time>2026-04-12T10:02:45.999Z</time></trkpt><trkpt lat="42.24751418887518" lon="14.15602257214878"><ele>307.0</ele><time>2026-04-12T10:02:46.999Z</time></trkpt><trkpt lat="42.247478528435614" lon="14.155870098423566"><ele>307.0</ele><time>2026-04-12T10:02:47.999Z</time></trkpt><trkpt lat="42.24743700901924" lon="14.155737875540396"><ele>307.0</ele><time>2026-04-12T10:02:48.999Z</time></trkpt><trkpt lat="42.24739072819515" lon="14.1556054324572"><ele>305.16666666666663</ele><time>2026-04-12T10:02:49.999Z</time></trkpt><trkpt lat="42.24736557279166" lon="14.155494348405833"><ele>303.3333333333333</ele><time>2026-04-12T10:02:50.999Z</time></trkpt><trkpt lat="42.247353583400916" lon="14.155406550819963"><ele>301.5</ele><time>2026-04-12T10:02:51.999Z</time></trkpt><trkpt lat="42.24736991259312" lon="14.155288982210815"><ele>299.6666666666667</ele><time>2026-04-12T10:02:52.999Z</time></trkpt><trkpt lat="42.24742378521815" lon="14.155179705193172"><ele>297.83333333333337</ele><time>2026-04-12T10:02:53.999Z</time></trkpt><trkpt lat="42.24744477512459" lon="14.155078580380934"><ele>296.0</ele><time>2026-04-12T10:02:54.999Z</time></trkpt><trkpt lat="42.247417095213656" lon="14.154980127965679"><ele>296.0</ele><time>2026-04-12T10:02:55.999Z</time></trkpt><trkpt lat="42.247339794587525" lon="14.154911683969004"><ele>296.0</ele><time>2026-04-12T10:02:56.999Z</time></trkpt><trkpt lat="42.247253764942485" lon="14.154848427823321"><ele>296.0</ele><time>2026-04-12T10:02:57.999Z</time></trkpt><trkpt lat="42.2471611201478" lon="14.154796796942163"><ele>296.0</ele><time>2026-04-12T10:02:58.999Z</time></trkpt><trkpt lat="42.247058900258494" lon="14.154763412841433"><ele>296.0</ele><time>2026-04-12T10:02:59.999Z</time></trkpt><trkpt lat="42.24695652507634" lon="14.154687958242633"><ele>298.33333333333337</ele><time>2026-04-12T10:03:00.999Z</time></trkpt><trkpt lat="42.246894342133075" lon="14.154606834242983"><ele>300.6666666666667</ele><time>2026-04-12T10:03:01.999Z</time></trkpt><trkpt lat="42.24685071137123" lon="14.154541789224842"><ele>303.0</ele><time>2026-04-12T10:03:02.999Z</time></trkpt><trkpt lat="42.24684591386609" lon="14.154414868511314"><ele>305.3333333333333</ele><time>2026-04-12T10:03:04.999Z</time></trkpt><trkpt lat="42.24680107189052" lon="14.154304515018012"><ele>307.66666666666663</ele><time>2026-04-12T10:03:06.999Z</time></trkpt><trkpt lat="42.24670790051136" lon="14.154321444294027"><ele>310.0</ele><time>2026-04-12T10:03:09.999Z</time></trkpt><trkpt lat="42.24665738998301" lon="14.154380247132835"><ele>325.0</ele><time>2026-04-12T10:03:13.999Z</time></trkpt><trkpt lat="42.24619930597801" lon="14.154315545119356"><ele>325.0</ele><time>2026-04-12T10:03:14.999Z</time></trkpt><trkpt lat="42.24610735183072" lon="14.154367849303014"><ele>325.0</ele><time>2026-04-12T10:03:15.999Z</time></trkpt><trkpt lat="42.246019482002595" lon="14.154411473264409"><ele>325.0</ele><time>2026-04-12T10:03:16.999Z</time></trkpt><trkpt lat="42.24591959540334" lon="14.154443698132342"><ele>325.0</ele><time>2026-04-12T10:03:17.999Z</time></trkpt><trkpt lat="42.24583916734488" lon="14.154470855633502"><ele>325.0</ele><time>2026-04-12T10:03:18.999Z</time></trkpt><trkpt lat="42.2457753355888" lon="14.154509580471414"><ele>325.0</ele><time>2026-04-12T10:03:19.999Z</time></trkpt><trkpt lat="42.24571406578472" lon="14.154557574327015"><ele>325.0</ele><time>2026-04-12T10:03:20.999Z</time></trkpt><trkpt lat="42.24564369733024" lon="14.154613411494099"><ele>325.0</ele><time>2026-04-12T10:03:21.999Z</time></trkpt><trkpt lat="42.24556580693228" lon="14.154659879685223"><ele>325.0</ele><time>2026-04-12T10:03:22.999Z</time></trkpt><trkpt lat="42.245477703246536" lon="14.154710068818789"><ele>325.0</ele><time>2026-04-12T10:03:23.999Z</time></trkpt><trkpt lat="42.24539393619776" lon="14.15476598497182"><ele>325.0</ele><time>2026-04-12T10:03:24.999Z</time></trkpt><trkpt lat="42.24530581999976" lon="14.154846477753827"><ele>329.75</ele><time>2026-04-12T10:03:25.999Z</time></trkpt><trkpt lat="42.24521401294457" lon="14.154936564951022"><ele>334.5</ele><time>2026-04-12T10:03:26.999Z</time></trkpt><trkpt lat="42.24512381834873" lon="14.155047930115307"><ele>339.25</ele><time>2026-04-12T10:03:27.998Z</time></trkpt><trkpt lat="42.24503849229056" lon="14.155160155466138"><ele>344.0</ele><time>2026-04-12T10:03:28.998Z</time></trkpt><trkpt lat="42.24495907656585" lon="14.155255634347547"><ele>344.0</ele><time>2026-04-12T10:03:29.998Z</time></trkpt><trkpt lat="42.24487418002573" lon="14.155324892474653"><ele>344.0</ele><time>2026-04-12T10:03:30.998Z</time></trkpt><trkpt lat="42.244789536387" lon="14.155375113443311"><ele>344.0</ele><time>2026-04-12T10:03:31.998Z</time></trkpt><trkpt lat="42.24469348515805" lon="14.155418900289304"><ele>344.0</ele><time>2026-04-12T10:03:32.998Z</time></trkpt><trkpt lat="42.24460038258202" lon="14.155465448647222"><ele>344.0</ele><time>2026-04-12T10:03:33.998Z</time></trkpt><trkpt lat="42.244502806405194" lon="14.15560239959883"><ele>349.75</ele><time>2026-04-12T10:03:34.998Z</time></trkpt><trkpt lat="42.24441781837683" lon="14.155736886362343"><ele>355.5</ele><time>2026-04-12T10:03:35.998Z</time></trkpt><trkpt lat="42.24433914053712" lon="14.155867941108601"><ele>361.25</ele><time>2026-04-12T10:03:36.998Z</time></trkpt><trkpt lat="42.24424565897744" lon="14.155962092183849"><ele>367.0</ele><time>2026-04-12T10:03:37.998Z</time></trkpt><trkpt lat="42.244144075121014" lon="14.155896257669708"><ele>367.0</ele><time>2026-04-12T10:03:39.998Z</time></trkpt><trkpt lat="42.244129444900906" lon="14.155729909305274"><ele>367.0</ele><time>2026-04-12T10:03:41.998Z</time></trkpt><trkpt lat="42.24407503259497" lon="14.15563538538693"><ele>367.0</ele><time>2026-04-12T10:03:42.998Z</time></trkpt><trkpt lat="42.244004698716" lon="14.155564453146189"><ele>367.0</ele><time>2026-04-12T10:03:43.998Z</time></trkpt><trkpt lat="42.243911118015205" lon="14.155418389121659"><ele>367.0</ele><time>2026-04-12T10:03:45.998Z</time></trkpt><trkpt lat="42.24386811310739" lon="14.155288010301241"><ele>369.0</ele><time>2026-04-12T10:03:46.998Z</time></trkpt><trkpt lat="42.24384239488401" lon="14.155135715712905"><ele>371.0</ele><time>2026-04-12T10:03:47.998Z</time></trkpt><trkpt lat="42.24381024887611" lon="14.154975978853427"><ele>373.0</ele><time>2026-04-12T10:03:48.998Z</time></trkpt><trkpt lat="42.243772644798604" lon="14.154811088774734"><ele>375.0</ele><time>2026-04-12T10:03:49.998Z</time></trkpt><trkpt lat="42.24373812522126" lon="14.154655294459289"><ele>375.5</ele><time>2026-04-12T10:03:50.998Z</time></trkpt><trkpt lat="42.243687848779075" lon="14.154508800929941"><ele>376.0</ele><time>2026-04-12T10:03:51.998Z</time></trkpt><trkpt lat="42.24361776518456" lon="14.154372240767021"><ele>376.5</ele><time>2026-04-12T10:03:52.998Z</time></trkpt><trkpt lat="42.24354650303024" lon="14.154215623984674"><ele>377.0</ele><time>2026-04-12T10:03:53.998Z</time></trkpt><trkpt lat="42.24348814551876" lon="14.154043965171953"><ele>377.0</ele><time>2026-04-12T10:03:54.998Z</time></trkpt><trkpt lat="42.243475941464574" lon="14.153860578362094"><ele>377.0</ele><time>2026-04-12T10:03:56Z</time></trkpt><trkpt lat="42.2434834060158" lon="14.15368076679333"><ele>377.0</ele><time>2026-04-12T10:03:57Z</time></trkpt><trkpt lat="42.243484989094576" lon="14.153501455515178"><ele>377.0</ele><time>2026-04-12T10:03:58Z</time></trkpt><trkpt lat="42.24347099400146" lon="14.15332487822879"><ele>377.75</ele><time>2026-04-12T10:03:59Z</time></trkpt><trkpt lat="42.24343918560073" lon="14.153149591216025"><ele>378.5</ele><time>2026-04-12T10:04:00Z</time></trkpt><trkpt lat="42.24337485646723" lon="14.152974535343615"><ele>379.25</ele><time>2026-04-12T10:04:01Z</time></trkpt><trkpt lat="42.24328970557199" lon="14.152809885564285"><ele>380.0</ele><time>2026-04-12T10:04:02Z</time></trkpt><trkpt lat="42.24321229218129" lon="14.152633375165918"><ele>380.0</ele><time>2026-04-12T10:04:03Z</time></trkpt><trkpt lat="42.243173658210715" lon="14.15244533317476"><ele>380.0</ele><time>2026-04-12T10:04:04Z</time></trkpt><trkpt lat="42.243182123910195" lon="14.152267252071097"><ele>380.0</ele><time>2026-04-12T10:04:05Z</time></trkpt><trkpt lat="42.243234537168995" lon="14.152097079833446"><ele>380.0</ele><time>2026-04-12T10:04:06Z</time></trkpt><trkpt lat="42.24327892755702" lon="14.151911354419848"><ele>380.6666666666667</ele><time>2026-04-12T10:04:07Z</time></trkpt><trkpt lat="42.24329189814376" lon="14.151708235632338"><ele>381.3333333333333</ele><time>2026-04-12T10:04:08Z</time></trkpt><trkpt lat="42.24328496459659" lon="14.151492890414254"><ele>382.0</ele><time>2026-04-12T10:04:09Z</time></trkpt><trkpt lat="42.243271704421346" lon="14.151279243049217"><ele>382.0</ele><time>2026-04-12T10:04:10Z</time></trkpt><trkpt lat="42.24325264079474" lon="14.151072712879616"><ele>382.0</ele><time>2026-04-12T10:04:11Z</time></trkpt><trkpt lat="42.2432157273476" lon="14.150871162488789"><ele>382.0</ele><time>2026-04-12T10:04:12Z</time></trkpt><trkpt lat="42.243158205190085" lon="14.15068462631887"><ele>382.3333333333333</ele><time>2026-04-12T10:04:13Z</time></trkpt><trkpt lat="42.24307268147341" lon="14.150507578132832"><ele>382.6666666666667</ele><time>2026-04-12T10:04:14Z</time></trkpt><trkpt lat="42.24302331587244" lon="14.150307860747793"><ele>383.0</ele><time>2026-04-12T10:04:15Z</time></trkpt><trkpt lat="42.24297883192925" lon="14.150112347498403"><ele>383.0</ele><time>2026-04-12T10:04:16Z</time></trkpt><trkpt lat="42.24294369011242" lon="14.149908890122274"><ele>383.0</ele><time>2026-04-12T10:04:17Z</time></trkpt><trkpt lat="42.242901164730924" lon="14.149707018746943"><ele>383.0</ele><time>2026-04-12T10:04:18Z</time></trkpt><trkpt lat="42.24286901371711" lon="14.149490474689543"><ele>385.33333333333337</ele><time>2026-04-12T10:04:19Z</time></trkpt><trkpt lat="42.24282725504742" lon="14.149280637395027"><ele>387.6666666666667</ele><time>2026-04-12T10:04:20Z</time></trkpt><trkpt lat="42.24279046353696" lon="14.149075094397876"><ele>390.0</ele><time>2026-04-12T10:04:21Z</time></trkpt><trkpt lat="42.24279194759269" lon="14.148867588305928"><ele>391.66666666666663</ele><time>2026-04-12T10:04:22Z</time></trkpt><trkpt lat="42.242787732622304" lon="14.148657575880252"><ele>393.3333333333333</ele><time>2026-04-12T10:04:23Z</time></trkpt><trkpt lat="42.242784425246825" lon="14.148446124503867"><ele>395.0</ele><time>2026-04-12T10:04:24Z</time></trkpt><trkpt lat="42.242782763380575" lon="14.148240425260175"><ele>396.3333333333333</ele><time>2026-04-12T10:04:25Z</time></trkpt><trkpt lat="42.24278069900949" lon="14.148030674129055"><ele>397.66666666666663</ele><time>2026-04-12T10:04:26Z</time></trkpt><trkpt lat="42.24277515253437" lon="14.147822813843412"><ele>399.0</ele><time>2026-04-12T10:04:27Z</time></trkpt><trkpt lat="42.24275229296365" lon="14.147614390326718"><ele>399.0</ele><time>2026-04-12T10:04:28Z</time></trkpt><trkpt lat="42.24275804544485" lon="14.147402992900096"><ele>399.0</ele><time>2026-04-12T10:04:29Z</time></trkpt><trkpt lat="42.24275172902462" lon="14.147191842682629"><ele>399.0</ele><time>2026-04-12T10:04:30Z</time></trkpt><trkpt lat="42.24275090892168" lon="14.14697774774355"><ele>399.66666666666663</ele><time>2026-04-12T10:04:31Z</time></trkpt><trkpt lat="42.242770226620934" lon="14.146770153027834"><ele>400.3333333333333</ele><time>2026-04-12T10:04:31.999Z</time></trkpt><trkpt lat="42.242798405965885" lon="14.146559450572447"><ele>401.0</ele><time>2026-04-12T10:04:32.999Z</time></trkpt><trkpt lat="42.242828697898176" lon="14.146362274948947"><ele>401.0</ele><time>2026-04-12T10:04:33.999Z</time></trkpt><trkpt lat="42.24285822142996" lon="14.14616966719682"><ele>401.0</ele><time>2026-04-12T10:04:34.999Z</time></trkpt><trkpt lat="42.24288534170153" lon="14.145982767470635"><ele>401.0</ele><time>2026-04-12T10:04:35.999Z</time></trkpt><trkpt lat="42.242898337777525" lon="14.145789626593485"><ele>401.0</ele><time>2026-04-12T10:04:36.999Z</time></trkpt><trkpt lat="42.24290182331263" lon="14.145602668873174"><ele>402.25</ele><time>2026-04-12T10:04:37.999Z</time></trkpt><trkpt lat="42.242908003209" lon="14.145416189904752"><ele>403.5</ele><time>2026-04-12T10:04:38.999Z</time></trkpt><trkpt lat="42.24290979302577" lon="14.145226510149172"><ele>404.75</ele><time>2026-04-12T10:04:39.999Z</time></trkpt><trkpt lat="42.24290423508345" lon="14.145040101969375"><ele>406.0</ele><time>2026-04-12T10:04:40.999Z</time></trkpt><trkpt lat="42.242873140304766" lon="14.14485038272904"><ele>408.75</ele><time>2026-04-12T10:04:41.999Z</time></trkpt><trkpt lat="42.242842229235826" lon="14.14466849014482"><ele>411.5</ele><time>2026-04-12T10:04:42.999Z</time></trkpt><trkpt lat="42.24282579388381" lon="14.144495464798784"><ele>414.25</ele><time>2026-04-12T10:04:43.999Z</time></trkpt><trkpt lat="42.24280881149994" lon="14.144325564538029"><ele>417.0</ele><time>2026-04-12T10:04:44.999Z</time></trkpt><trkpt lat="42.24278982680388" lon="14.144177611173077"><ele>414.5</ele><time>2026-04-12T10:04:45.999Z</time></trkpt><trkpt lat="42.24277231483116" lon="14.144028789984452"><ele>412.0</ele><time>2026-04-12T10:04:46.999Z</time></trkpt><trkpt lat="42.242757954762766" lon="14.143873350988041"><ele>409.5</ele><time>2026-04-12T10:04:47.999Z</time></trkpt><trkpt lat="42.24274816222187" lon="14.143715669010236"><ele>407.0</ele><time>2026-04-12T10:04:48.999Z</time></trkpt><trkpt lat="42.242750060929716" lon="14.143555955694518"><ele>407.0</ele><time>2026-04-12T10:04:49.999Z</time></trkpt><trkpt lat="42.242784991492506" lon="14.143415516565435"><ele>407.0</ele><time>2026-04-12T10:04:50.999Z</time></trkpt><trkpt lat="42.242844332834935" lon="14.143283495748033"><ele>407.0</ele><time>2026-04-12T10:04:51.999Z</time></trkpt><trkpt lat="42.24292692546725" lon="14.143162324976513"><ele>407.0</ele><time>2026-04-12T10:04:52.999Z</time></trkpt><trkpt lat="42.24300246903235" lon="14.143022348528932"><ele>406.0</ele><time>2026-04-12T10:04:53.999Z</time></trkpt><trkpt lat="42.24307899251262" lon="14.142890050700293"><ele>405.0</ele><time>2026-04-12T10:04:54.999Z</time></trkpt><trkpt lat="42.24314776317508" lon="14.142728303153033"><ele>404.0</ele><time>2026-04-12T10:04:55.999Z</time></trkpt><trkpt lat="42.24315060194049" lon="14.142514262471156"><ele>403.0</ele><time>2026-04-12T10:04:56.999Z</time></trkpt><trkpt lat="42.24315440626311" lon="14.142295325537416"><ele>401.33333333333337</ele><time>2026-04-12T10:04:57.999Z</time></trkpt><trkpt lat="42.24317028365603" lon="14.142073286279794"><ele>399.66666666666663</ele><time>2026-04-12T10:04:58.999Z</time></trkpt><trkpt lat="42.24317091167025" lon="14.14185422899596"><ele>398.0</ele><time>2026-04-12T10:04:59.999Z</time></trkpt><trkpt lat="42.24314967470373" lon="14.141632277123927"><ele>399.3333333333333</ele><time>2026-04-12T10:05:00.999Z</time></trkpt><trkpt lat="42.24307887179705" lon="14.141433953710594"><ele>400.66666666666663</ele><time>2026-04-12T10:05:01.999Z</time></trkpt><trkpt lat="42.24304768756088" lon="14.141223370046518"><ele>402.0</ele><time>2026-04-12T10:05:02.999Z</time></trkpt><trkpt lat="42.24304739089944" lon="14.141021287657868"><ele>402.0</ele><time>2026-04-12T10:05:03.999Z</time></trkpt><trkpt lat="42.24303806773756" lon="14.140823626400099"><ele>402.0</ele><time>2026-04-12T10:05:04.999Z</time></trkpt><trkpt lat="42.24302761730557" lon="14.140627860076158"><ele>402.0</ele><time>2026-04-12T10:05:05.999Z</time></trkpt><trkpt lat="42.24301761657195" lon="14.140432823260225"><ele>402.0</ele><time>2026-04-12T10:05:06.999Z</time></trkpt><trkpt lat="42.24298554204392" lon="14.14023767681253"><ele>405.0</ele><time>2026-04-12T10:05:07.999Z</time></trkpt><trkpt lat="42.24291389738346" lon="14.140053332418395"><ele>408.0</ele><time>2026-04-12T10:05:08.999Z</time></trkpt><trkpt lat="42.24284664777782" lon="14.139868046779549"><ele>411.0</ele><time>2026-04-12T10:05:09.999Z</time></trkpt><trkpt lat="42.24278540277732" lon="14.139680745591331"><ele>412.5</ele><time>2026-04-12T10:05:10.999Z</time></trkpt><trkpt lat="42.24273211456628" lon="14.139512964705064"><ele>414.0</ele><time>2026-04-12T10:05:11.999Z</time></trkpt><trkpt lat="42.2426833501957" lon="14.139349822643393"><ele>415.5</ele><time>2026-04-12T10:05:12.999Z</time></trkpt><trkpt lat="42.24263500284974" lon="14.139172948000542"><ele>417.0</ele><time>2026-04-12T10:05:13.999Z</time></trkpt><trkpt lat="42.24259034230477" lon="14.138988177955815"><ele>417.66666666666663</ele><time>2026-04-12T10:05:14.999Z</time></trkpt><trkpt lat="42.2425521951878" lon="14.138793995432676"><ele>418.3333333333333</ele><time>2026-04-12T10:05:15.999Z</time></trkpt><trkpt lat="42.24252246661509" lon="14.138593205742099"><ele>419.0</ele><time>2026-04-12T10:05:16.999Z</time></trkpt><trkpt lat="42.24250033143074" lon="14.138385200223391"><ele>420.3333333333333</ele><time>2026-04-12T10:05:17.999Z</time></trkpt><trkpt lat="42.24248356168791" lon="14.138167267274076"><ele>421.66666666666663</ele><time>2026-04-12T10:05:18.999Z</time></trkpt><trkpt lat="42.24247449313359" lon="14.137939080812037"><ele>423.0</ele><time>2026-04-12T10:05:19.999Z</time></trkpt><trkpt lat="42.24247065383685" lon="14.137708071771351"><ele>423.0</ele><time>2026-04-12T10:05:20.999Z</time></trkpt><trkpt lat="42.242470653835326" lon="14.137475978595992"><ele>423.0</ele><time>2026-04-12T10:05:21.999Z</time></trkpt><trkpt lat="42.242469295845055" lon="14.137253359418736"><ele>423.0</ele><time>2026-04-12T10:05:22.999Z</time></trkpt><trkpt lat="42.24245373619661" lon="14.137032929685368"><ele>423.5</ele><time>2026-04-12T10:05:23.999Z</time></trkpt><trkpt lat="42.242402778633895" lon="14.136834930684802"><ele>424.0</ele><time>2026-04-12T10:05:24.999Z</time></trkpt><trkpt lat="42.242383638879815" lon="14.136637291846482"><ele>424.5</ele><time>2026-04-12T10:05:25.999Z</time></trkpt><trkpt lat="42.24237525382376" lon="14.136452843230154"><ele>425.0</ele><time>2026-04-12T10:05:26.999Z</time></trkpt><trkpt lat="42.24239543988558" lon="14.136279987373554"><ele>425.8</ele><time>2026-04-12T10:05:27.999Z</time></trkpt><trkpt lat="42.242408363984296" lon="14.136151488430354"><ele>426.6</ele><time>2026-04-12T10:05:28.999Z</time></trkpt><trkpt lat="42.24241280360904" lon="14.136065695805607"><ele>427.4</ele><time>2026-04-12T10:05:30.999Z</time></trkpt><trkpt lat="42.242405820615495" lon="14.136180664869926"><ele>428.2</ele><time>2026-04-12T10:05:35.998Z</time></trkpt><trkpt lat="42.2424066431403" lon="14.136275298475814"><ele>429.0</ele><time>2026-04-12T10:05:38.998Z</time></trkpt><trkpt lat="42.2424310911888" lon="14.13607748642656"><ele>429.0</ele><time>2026-04-12T10:05:39.998Z</time></trkpt><trkpt lat="42.24244368501798" lon="14.135913335483725"><ele>429.0</ele><time>2026-04-12T10:05:40.998Z</time></trkpt><trkpt lat="42.24245332782058" lon="14.135769560073516"><ele>429.0</ele><time>2026-04-12T10:05:41.998Z</time></trkpt><trkpt lat="42.242452924036606" lon="14.135656922945612"><ele>429.0</ele><time>2026-04-12T10:05:42.998Z</time></trkpt><trkpt lat="42.24245285010128" lon="14.135507435241522"><ele>429.0</ele><time>2026-04-12T10:05:43.998Z</time></trkpt><trkpt lat="42.242459647375526" lon="14.13539325498413"><ele>429.0</ele><time>2026-04-12T10:05:44.998Z</time></trkpt><trkpt lat="42.24246685160097" lon="14.135281537294867"><ele>429.0</ele><time>2026-04-12T10:05:45.998Z</time></trkpt><trkpt lat="42.24248184060768" lon="14.135127585728144"><ele>429.0</ele><time>2026-04-12T10:05:47.998Z</time></trkpt><trkpt lat="42.2424975889123" lon="14.135021514215337"><ele>429.0</ele><time>2026-04-12T10:05:49.998Z</time></trkpt><trkpt lat="42.24251913844615" lon="14.134889017447017"><ele>429.0</ele><time>2026-04-12T10:05:51.998Z</time></trkpt><trkpt lat="42.24302957068145" lon="14.134961440432773"><ele>429.0</ele><time>2026-04-12T10:05:55.998Z</time></trkpt><trkpt lat="42.243102718104645" lon="14.134958814856839"><ele>429.0</ele><time>2026-04-12T10:05:56.998Z</time></trkpt><trkpt lat="42.24321670781292" lon="14.134900860168885"><ele>429.0</ele><time>2026-04-12T10:05:58.998Z</time></trkpt><trkpt lat="42.24327884445569" lon="14.134872527740288"><ele>429.0</ele><time>2026-04-12T10:05:59.998Z</time></trkpt><trkpt lat="42.24334653990878" lon="14.1348355910883"><ele>429.0</ele><time>2026-04-12T10:06:00.998Z</time></trkpt><trkpt lat="42.2434160777574" lon="14.134784419170956"><ele>429.0</ele><time>2026-04-12T10:06:02Z</time></trkpt><trkpt lat="42.243479674457376" lon="14.134720888846088"><ele>427.0</ele><time>2026-04-12T10:06:03Z</time></trkpt><trkpt lat="42.2435292081133" lon="14.134662694059971"><ele>425.0</ele><time>2026-04-12T10:06:04Z</time></trkpt><trkpt lat="42.243625402550244" lon="14.134567683146031"><ele>423.0</ele><time>2026-04-12T10:06:06Z</time></trkpt><trkpt lat="42.24372038410681" lon="14.134437975946842"><ele>421.0</ele><time>2026-04-12T10:06:08Z</time></trkpt><trkpt lat="42.24377853180571" lon="14.134360618078444"><ele>419.0</ele><time>2026-04-12T10:06:09Z</time></trkpt><trkpt lat="42.24382751817537" lon="14.134286762095785"><ele>419.0</ele><time>2026-04-12T10:06:10Z</time></trkpt><trkpt lat="42.24393687784887" lon="14.134237189824088"><ele>419.0</ele><time>2026-04-12T10:06:11Z</time></trkpt><trkpt lat="42.243955393485024" lon="14.134112272399307"><ele>419.0</ele><time>2026-04-12T10:06:13Z</time></trkpt><trkpt lat="42.24397474111406" lon="14.133961241682078"><ele>419.0</ele><time>2026-04-12T10:06:15Z</time></trkpt><trkpt lat="42.24399064174954" lon="14.133829883880495"><ele>419.0</ele><time>2026-04-12T10:06:17Z</time></trkpt><trkpt lat="42.243979274987396" lon="14.13371869256943"><ele>418.49999999999994</ele><time>2026-04-12T10:06:19Z</time></trkpt><trkpt lat="42.24395928376738" lon="14.133637552394083"><ele>418.0</ele><time>2026-04-12T10:06:21Z</time></trkpt><trkpt lat="42.24397764032897" lon="14.133525583067334"><ele>417.5</ele><time>2026-04-12T10:06:23Z</time></trkpt><trkpt lat="42.244002051653986" lon="14.133411227974422"><ele>417.0</ele><time>2026-04-12T10:06:25Z</time></trkpt><trkpt lat="42.24402516921694" lon="14.133292621791908"><ele>416.49999999999994</ele><time>2026-04-12T10:06:27Z</time></trkpt><trkpt lat="42.24404376127791" lon="14.13314383859501"><ele>416.0</ele><time>2026-04-12T10:06:29Z</time></trkpt><trkpt lat="42.24405939374564" lon="14.133011625023862"><ele>418.3333333333333</ele><time>2026-04-12T10:06:31Z</time></trkpt><trkpt lat="42.24410203126974" lon="14.132927915359236"><ele>420.66666666666663</ele><time>2026-04-12T10:06:32Z</time></trkpt><trkpt lat="42.24414035745583" lon="14.132822380340386"><ele>423.0</ele><time>2026-04-12T10:06:33Z</time></trkpt><trkpt lat="42.24419171161858" lon="14.13271256224707"><ele>425.33333333333337</ele><time>2026-04-12T10:06:34Z</time></trkpt><trkpt lat="42.24421592150701" lon="14.13262705063457"><ele>427.6666666666667</ele><time>2026-04-12T10:06:34.999Z</time></trkpt><trkpt lat="42.24428081537361" lon="14.132571059005388"><ele>430.0</ele><time>2026-04-12T10:06:36.999Z</time></trkpt><trkpt lat="42.24436406852882" lon="14.13265155979387"><ele>430.0</ele><time>2026-04-12T10:06:38.999Z</time></trkpt><trkpt lat="42.244443357814966" lon="14.132637873013495"><ele>430.0</ele><time>2026-04-12T10:06:41.999Z</time></trkpt><trkpt lat="42.24452441204712" lon="14.132549700235693"><ele>430.0</ele><time>2026-04-12T10:06:43.999Z</time></trkpt><trkpt lat="42.244640358126944" lon="14.132568195379966"><ele>430.0</ele><time>2026-04-12T10:06:45.999Z</time></trkpt><trkpt lat="42.24470625671983" lon="14.132563372146302"><ele>430.0</ele><time>2026-04-12T10:06:46.999Z</time></trkpt><trkpt lat="42.24482186722432" lon="14.132558740475565"><ele>428.50000000000006</ele><time>2026-04-12T10:06:48.999Z</time></trkpt><trkpt lat="42.24490418597153" lon="14.132592748312572"><ele>427.0</ele><time>2026-04-12T10:06:50.999Z</time></trkpt><trkpt lat="42.244977428226136" lon="14.132568517961841"><ele>425.5</ele><time>2026-04-12T10:06:52.999Z</time></trkpt><trkpt lat="42.24504142334017" lon="14.132563464243105"><ele>424.0</ele><time>2026-04-12T10:06:53.999Z</time></trkpt><trkpt lat="42.24513907793196" lon="14.132531666414412"><ele>422.50000000000006</ele><time>2026-04-12T10:06:55.999Z</time></trkpt><trkpt lat="42.24523093364605" lon="14.132503567833401"><ele>421.0</ele><time>2026-04-12T10:06:57.999Z</time></trkpt><trkpt lat="42.24534748665765" lon="14.132561370061548"><ele>421.0</ele><time>2026-04-12T10:06:59.999Z</time></trkpt><trkpt lat="42.245313197162616" lon="14.1328096854138"><ele>421.0</ele><time>2026-04-12T10:07:00.999Z</time></trkpt><trkpt lat="42.24540414532318" lon="14.132883197155035"><ele>421.0</ele><time>2026-04-12T10:07:03.999Z</time></trkpt><trkpt lat="42.24545500751143" lon="14.132937981846316"><ele>421.0</ele><time>2026-04-12T10:07:04.999Z</time></trkpt><trkpt lat="42.24552041784605" lon="14.133003736494093"><ele>421.0</ele><time>2026-04-12T10:07:05.999Z</time></trkpt><trkpt lat="42.24559233478644" lon="14.13304680886222"><ele>418.50000000000006</ele><time>2026-04-12T10:07:06.999Z</time></trkpt><trkpt lat="42.245670496504644" lon="14.13306639557391"><ele>416.0</ele><time>2026-04-12T10:07:07.999Z</time></trkpt><trkpt lat="42.24573691246453" lon="14.133082337007771"><ele>413.5</ele><time>2026-04-12T10:07:08.999Z</time></trkpt><trkpt lat="42.245801236809164" lon="14.133093638656216"><ele>411.0</ele><time>2026-04-12T10:07:09.999Z</time></trkpt><trkpt lat="42.24587753116033" lon="14.133107043423726"><ele>408.50000000000006</ele><time>2026-04-12T10:07:10.999Z</time></trkpt><trkpt lat="42.24595772602229" lon="14.13312236607875"><ele>406.0</ele><time>2026-04-12T10:07:11.999Z</time></trkpt><trkpt lat="42.246044065182865" lon="14.133139862122734"><ele>406.00000000000006</ele><time>2026-04-12T10:07:12.999Z</time></trkpt><trkpt lat="42.246137841665295" lon="14.13315361344771"><ele>406.0</ele><time>2026-04-12T10:07:13.999Z</time></trkpt><trkpt lat="42.24621421120269" lon="14.133147813182168"><ele>406.0</ele><time>2026-04-12T10:07:14.999Z</time></trkpt><trkpt lat="42.246290768826576" lon="14.133111325990722"><ele>406.0</ele><time>2026-04-12T10:07:17.999Z</time></trkpt><trkpt lat="42.24635647827364" lon="14.133083947006774"><ele>406.00000000000006</ele><time>2026-04-12T10:07:19.999Z</time></trkpt><trkpt lat="42.24642076798725" lon="14.133070737055183"><ele>406.0</ele><time>2026-04-12T10:07:20.999Z</time></trkpt><trkpt lat="42.24649323845799" lon="14.133000136769786"><ele>404.20000000000005</ele><time>2026-04-12T10:07:21.999Z</time></trkpt><trkpt lat="42.24654216385051" lon="14.132901122838089"><ele>402.40000000000003</ele><time>2026-04-12T10:07:22.999Z</time></trkpt><trkpt lat="42.246563777564916" lon="14.13277449569026"><ele>400.6</ele><time>2026-04-12T10:07:23.999Z</time></trkpt><trkpt lat="42.24661186318612" lon="14.132634526106417"><ele>398.8</ele><time>2026-04-12T10:07:24.999Z</time></trkpt><trkpt lat="42.246644248440354" lon="14.132498272173288"><ele>397.0</ele><time>2026-04-12T10:07:25.999Z</time></trkpt><trkpt lat="42.246692996969905" lon="14.132395889226036"><ele>397.00000000000006</ele><time>2026-04-12T10:07:26.999Z</time></trkpt><trkpt lat="42.246762676578" lon="14.132352143900512"><ele>397.0</ele><time>2026-04-12T10:07:27.999Z</time></trkpt><trkpt lat="42.24682841612692" lon="14.132321074333364"><ele>397.0</ele><time>2026-04-12T10:07:28.999Z</time></trkpt><trkpt lat="42.24690125823939" lon="14.13237784786922"><ele>397.0</ele><time>2026-04-12T10:07:29.999Z</time></trkpt><trkpt lat="42.246939968929055" lon="14.132483598850417"><ele>397.00000000000006</ele><time>2026-04-12T10:07:30.999Z</time></trkpt><trkpt lat="42.246950612048586" lon="14.132620310032449"><ele>397.0</ele><time>2026-04-12T10:07:31.999Z</time></trkpt><trkpt lat="42.246934687398934" lon="14.132776382268727"><ele>397.0</ele><time>2026-04-12T10:07:32.999Z</time></trkpt><trkpt lat="42.246907858521574" lon="14.132911860469214"><ele>397.0</ele><time>2026-04-12T10:07:33.999Z</time></trkpt><trkpt lat="42.24688050661314" lon="14.133035231780587"><ele>397.0</ele><time>2026-04-12T10:07:34.999Z</time></trkpt><trkpt lat="42.246861300296835" lon="14.1331571286862"><ele>397.0</ele><time>2026-04-12T10:07:35.998Z</time></trkpt><trkpt lat="42.24683890031189" lon="14.13326259555249"><ele>397.0</ele><time>2026-04-12T10:07:36.998Z</time></trkpt><trkpt lat="42.246811985802715" lon="14.133361637678533"><ele>397.0</ele><time>2026-04-12T10:07:37.998Z</time></trkpt><trkpt lat="42.24676765947815" lon="14.133432501301293"><ele>397.0</ele><time>2026-04-12T10:07:38.998Z</time></trkpt><trkpt lat="42.24670722563431" lon="14.133497689178663"><ele>397.0</ele><time>2026-04-12T10:07:40.998Z</time></trkpt><trkpt lat="42.24686860406031" lon="14.133209662318226"><ele>397.0</ele><time>2026-04-12T10:07:43.998Z</time></trkpt><trkpt lat="42.246949321113156" lon="14.133171942022294"><ele>397.0</ele><time>2026-04-12T10:07:47.998Z</time></trkpt><trkpt lat="42.24701967260017" lon="14.133183929319353"><ele>397.0</ele><time>2026-04-12T10:07:48.998Z</time></trkpt><trkpt lat="42.247118258926626" lon="14.133258937610423"><ele>397.0</ele><time>2026-04-12T10:07:49.998Z</time></trkpt><trkpt lat="42.24724970238162" lon="14.13330823946035"><ele>397.0</ele><time>2026-04-12T10:07:50.998Z</time></trkpt><trkpt lat="42.247359131904155" lon="14.133336191318271"><ele>397.0</ele><time>2026-04-12T10:07:51.998Z</time></trkpt><trkpt lat="42.24743692927575" lon="14.133406924516528"><ele>394.0</ele><time>2026-04-12T10:07:52.998Z</time></trkpt><trkpt lat="42.24752547358153" lon="14.133447257596766"><ele>391.0</ele><time>2026-04-12T10:07:53.998Z</time></trkpt><trkpt lat="42.24760620360865" lon="14.133535325045372"><ele>388.0</ele><time>2026-04-12T10:07:54.998Z</time></trkpt><trkpt lat="42.247686152063224" lon="14.133602759893202"><ele>385.0</ele><time>2026-04-12T10:07:55.998Z</time></trkpt><trkpt lat="42.24775955421457" lon="14.133655677680093"><ele>382.0</ele><time>2026-04-12T10:07:56.998Z</time></trkpt><trkpt lat="42.24783456604964" lon="14.133699391791314"><ele>382.0</ele><time>2026-04-12T10:07:57.998Z</time></trkpt><trkpt lat="42.247921684538646" lon="14.133753907102356"><ele>382.0</ele><time>2026-04-12T10:07:58.998Z</time></trkpt><trkpt lat="42.24798683366802" lon="14.133808507546387"><ele>382.0</ele><time>2026-04-12T10:07:59.998Z</time></trkpt><trkpt lat="42.24805472200745" lon="14.133862551556406"><ele>382.0</ele><time>2026-04-12T10:08:00.998Z</time></trkpt><trkpt lat="42.248123243663294" lon="14.133916984111362"><ele>382.0</ele><time>2026-04-12T10:08:01.998Z</time></trkpt><trkpt lat="42.248192097267484" lon="14.13397560563678"><ele>382.0</ele><time>2026-04-12T10:08:02.998Z</time></trkpt><trkpt lat="42.248278689283104" lon="14.13404255468341"><ele>380.0</ele><time>2026-04-12T10:08:03.998Z</time></trkpt><trkpt lat="42.24835996793399" lon="14.134081435007934"><ele>378.0</ele><time>2026-04-12T10:08:04.998Z</time></trkpt><trkpt lat="42.24844956649573" lon="14.13412476240202"><ele>376.0</ele><time>2026-04-12T10:08:05.998Z</time></trkpt><trkpt lat="42.24851383695586" lon="14.134156320259741"><ele>374.0</ele><time>2026-04-12T10:08:07Z</time></trkpt><trkpt lat="42.24857031713433" lon="14.134221997021703"><ele>372.0</ele><time>2026-04-12T10:08:08Z</time></trkpt><trkpt lat="42.24863636456305" lon="14.134339708754826"><ele>370.0</ele><time>2026-04-12T10:08:09Z</time></trkpt><trkpt lat="42.248708323763836" lon="14.134475883937181"><ele>370.0</ele><time>2026-04-12T10:08:10Z</time></trkpt><trkpt lat="42.24877284225405" lon="14.134628227020007"><ele>370.0</ele><time>2026-04-12T10:08:11Z</time></trkpt><trkpt lat="42.24883573041936" lon="14.134788153676537"><ele>370.0</ele><time>2026-04-12T10:08:12Z</time></trkpt><trkpt lat="42.248879172200354" lon="14.134935755945722"><ele>370.0</ele><time>2026-04-12T10:08:13Z</time></trkpt><trkpt lat="42.24889999377357" lon="14.135058721109578"><ele>367.2</ele><time>2026-04-12T10:08:14Z</time></trkpt><trkpt lat="42.24887925241939" lon="14.135155805451745"><ele>364.4</ele><time>2026-04-12T10:08:15Z</time></trkpt><trkpt lat="42.24890507847109" lon="14.135285336420017"><ele>361.6</ele><time>2026-04-12T10:08:16Z</time></trkpt><trkpt lat="42.24889964843116" lon="14.135451824318174"><ele>358.8</ele><time>2026-04-12T10:08:17Z</time></trkpt><trkpt lat="42.24891280757721" lon="14.135635970331506"><ele>356.0</ele><time>2026-04-12T10:08:18Z</time></trkpt><trkpt lat="42.24892347105936" lon="14.135837217301216"><ele>354.75</ele><time>2026-04-12T10:08:19Z</time></trkpt><trkpt lat="42.248938144226265" lon="14.136019326823645"><ele>353.5</ele><time>2026-04-12T10:08:20Z</time></trkpt><trkpt lat="42.24896287314954" lon="14.13617760415721"><ele>352.25</ele><time>2026-04-12T10:08:21Z</time></trkpt><trkpt lat="42.24901524959511" lon="14.136307549475855"><ele>351.0</ele><time>2026-04-12T10:08:22Z</time></trkpt><trkpt lat="42.24909489264862" lon="14.136404649332228"><ele>351.0</ele><time>2026-04-12T10:08:23Z</time></trkpt><trkpt lat="42.24918384185036" lon="14.136456753476546"><ele>351.0</ele><time>2026-04-12T10:08:24Z</time></trkpt><trkpt lat="42.249258529503365" lon="14.136485525191583"><ele>351.0</ele><time>2026-04-12T10:08:25Z</time></trkpt><trkpt lat="42.24934261205897" lon="14.136497509953642"><ele>351.0</ele><time>2026-04-12T10:08:27Z</time></trkpt><trkpt lat="42.249404437520646" lon="14.13651830699538"><ele>351.0</ele><time>2026-04-12T10:08:28Z</time></trkpt><trkpt lat="42.2494601122808" lon="14.13647752509234"><ele>351.0</ele><time>2026-04-12T10:08:29Z</time></trkpt><trkpt lat="42.249768568460446" lon="14.136924430463012"><ele>347.0</ele><time>2026-04-12T10:08:33Z</time></trkpt><trkpt lat="42.24985733930386" lon="14.136975385269862"><ele>343.0</ele><time>2026-04-12T10:08:34Z</time></trkpt><trkpt lat="42.24996860879033" lon="14.137034322566835"><ele>339.0</ele><time>2026-04-12T10:08:35Z</time></trkpt><trkpt lat="42.250081281974545" lon="14.137082929060155"><ele>335.0</ele><time>2026-04-12T10:08:36Z</time></trkpt><trkpt lat="42.25018698316283" lon="14.137139796714447"><ele>331.0</ele><time>2026-04-12T10:08:37Z</time></trkpt><trkpt lat="42.250278488238294" lon="14.137189676294891"><ele>331.0</ele><time>2026-04-12T10:08:38Z</time></trkpt><trkpt lat="42.25036692079467" lon="14.137237016576288"><ele>331.0</ele><time>2026-04-12T10:08:38.999Z</time></trkpt><trkpt lat="42.2504605764929" lon="14.137280285781749"><ele>331.0</ele><time>2026-04-12T10:08:39.999Z</time></trkpt><trkpt lat="42.25055632599638" lon="14.137332228026043"><ele>331.0</ele><time>2026-04-12T10:08:40.999Z</time></trkpt><trkpt lat="42.25064678309817" lon="14.137388693699645"><ele>331.0</ele><time>2026-04-12T10:08:41.999Z</time></trkpt><trkpt lat="42.2507501838976" lon="14.13745867888741"><ele>329.4</ele><time>2026-04-12T10:08:42.999Z</time></trkpt><trkpt lat="42.25085317815282" lon="14.137527555602018"><ele>327.8</ele><time>2026-04-12T10:08:43.999Z</time></trkpt><trkpt lat="42.25094288190778" lon="14.137593699106404"><ele>326.2</ele><time>2026-04-12T10:08:44.999Z</time></trkpt><trkpt lat="42.251028673306735" lon="14.137658620130713"><ele>324.59999999999997</ele><time>2026-04-12T10:08:45.999Z</time></trkpt><trkpt lat="42.25111487914043" lon="14.137730384931052"><ele>323.0</ele><time>2026-04-12T10:08:46.999Z</time></trkpt><trkpt lat="42.251191569771564" lon="14.137786768018708"><ele>323.0</ele><time>2026-04-12T10:08:47.999Z</time></trkpt><trkpt lat="42.251260383544505" lon="14.137836676127279"><ele>323.0</ele><time>2026-04-12T10:08:48.999Z</time></trkpt><trkpt lat="42.25131767787666" lon="14.137872390636872"><ele>323.0</ele><time>2026-04-12T10:08:49.999Z</time></trkpt><trkpt lat="42.25141703551401" lon="14.137878610695868"><ele>323.0</ele><time>2026-04-12T10:08:53.999Z</time></trkpt><trkpt lat="42.25148735997172" lon="14.137811355007567"><ele>323.0</ele><time>2026-04-12T10:08:56.999Z</time></trkpt><trkpt lat="42.251656280348044" lon="14.137740671751597"><ele>321.8571428571429</ele><time>2026-04-12T10:08:59.999Z</time></trkpt><trkpt lat="42.25172003936138" lon="14.13772821154311"><ele>320.7142857142857</ele><time>2026-04-12T10:09:00.999Z</time></trkpt><trkpt lat="42.25179250034268" lon="14.137715450866803"><ele>319.57142857142856</ele><time>2026-04-12T10:09:01.999Z</time></trkpt><trkpt lat="42.25187738675161" lon="14.137696198445234"><ele>318.42857142857144</ele><time>2026-04-12T10:09:02.999Z</time></trkpt><trkpt lat="42.25195334845137" lon="14.137682962222591"><ele>317.2857142857143</ele><time>2026-04-12T10:09:03.999Z</time></trkpt><trkpt lat="42.25201450320351" lon="14.137659201296882"><ele>316.14285714285717</ele><time>2026-04-12T10:09:04.999Z</time></trkpt><trkpt lat="42.25202181356152" lon="14.137566849183699"><ele>315.0</ele><time>2026-04-12T10:09:08.999Z</time></trkpt><trkpt lat="42.2519224972929" lon="14.137452901033514"><ele>315.0</ele><time>2026-04-12T10:09:10.999Z</time></trkpt><trkpt lat="42.251861211374596" lon="14.137398931600952"><ele>315.0</ele><time>2026-04-12T10:09:11.999Z</time></trkpt><trkpt lat="42.251787074702285" lon="14.137292252656053"><ele>315.0</ele><time>2026-04-12T10:09:12.999Z</time></trkpt><trkpt lat="42.251709942786825" lon="14.13712288297486"><ele>315.0</ele><time>2026-04-12T10:09:13.999Z</time></trkpt><trkpt lat="42.25165868685242" lon="14.136954250377709"><ele>315.1666666666667</ele><time>2026-04-12T10:09:14.999Z</time></trkpt><trkpt lat="42.25162994938556" lon="14.136817371617468"><ele>315.3333333333333</ele><time>2026-04-12T10:09:15.999Z</time></trkpt><trkpt lat="42.25159472676495" lon="14.136732221292299"><ele>315.5</ele><time>2026-04-12T10:09:16.999Z</time></trkpt><trkpt lat="42.25161220360814" lon="14.136615723281901"><ele>315.66666666666663</ele><time>2026-04-12T10:09:17.999Z</time></trkpt><trkpt lat="42.251658299197324" lon="14.136533379000358"><ele>315.8333333333333</ele><time>2026-04-12T10:09:18.999Z</time></trkpt><trkpt lat="42.25172942853726" lon="14.136497838417311"><ele>316.0</ele><time>2026-04-12T10:09:19.999Z</time></trkpt><trkpt lat="42.25181334354245" lon="14.136473286128671"><ele>316.0</ele><time>2026-04-12T10:09:20.999Z</time></trkpt><trkpt lat="42.25195969747149" lon="14.136493498018789"><ele>316.0</ele><time>2026-04-12T10:09:21.999Z</time></trkpt><trkpt lat="42.252084206402564" lon="14.136478347909135"><ele>316.0</ele><time>2026-04-12T10:09:22.999Z</time></trkpt><trkpt lat="42.25219387155974" lon="14.136439227311989"><ele>316.0</ele><time>2026-04-12T10:09:23.999Z</time></trkpt><trkpt lat="42.25230101831404" lon="14.136378274539068"><ele>313.5</ele><time>2026-04-12T10:09:24.999Z</time></trkpt><trkpt lat="42.2524056589906" lon="14.136278074818017"><ele>311.0</ele><time>2026-04-12T10:09:25.999Z</time></trkpt><trkpt lat="42.25249632016919" lon="14.136136168554783"><ele>308.5</ele><time>2026-04-12T10:09:26.999Z</time></trkpt><trkpt lat="42.252588369050294" lon="14.135984789218169"><ele>306.0</ele><time>2026-04-12T10:09:27.999Z</time></trkpt><trkpt lat="42.252688498533566" lon="14.135857105654349"><ele>306.25</ele><time>2026-04-12T10:09:28.999Z</time></trkpt><trkpt lat="42.252760118299946" lon="14.13571068207711"><ele>306.5</ele><time>2026-04-12T10:09:29.999Z</time></trkpt><trkpt lat="42.25284612356308" lon="14.135610847181534"><ele>306.75</ele><time>2026-04-12T10:09:30.999Z</time></trkpt><trkpt lat="42.252924778434625" lon="14.135475899578113"><ele>307.0</ele><time>2026-04-12T10:09:31.999Z</time></trkpt><trkpt lat="42.25301710073312" lon="14.135354204026328"><ele>307.0</ele><time>2026-04-12T10:09:32.999Z</time></trkpt><trkpt lat="42.253096469037175" lon="14.135217138105434"><ele>307.0</ele><time>2026-04-12T10:09:33.999Z</time></trkpt><trkpt lat="42.253177214632814" lon="14.135101785536712"><ele>307.0</ele><time>2026-04-12T10:09:34.999Z</time></trkpt><trkpt lat="42.253252448115994" lon="14.13500634011459"><ele>307.0</ele><time>2026-04-12T10:09:35.999Z</time></trkpt><trkpt lat="42.25334922409429" lon="14.134943583245848"><ele>304.5</ele><time>2026-04-12T10:09:36.999Z</time></trkpt><trkpt lat="42.25347720018891" lon="14.13494882397524"><ele>302.0</ele><time>2026-04-12T10:09:37.999Z</time></trkpt><trkpt lat="42.25359130735621" lon="14.135025311646617"><ele>299.5</ele><time>2026-04-12T10:09:38.999Z</time></trkpt><trkpt lat="42.25369826734441" lon="14.135128958424586"><ele>297.0</ele><time>2026-04-12T10:09:39.998Z</time></trkpt><trkpt lat="42.25381522864599" lon="14.135240248094998"><ele>297.0</ele><time>2026-04-12T10:09:40.998Z</time></trkpt><trkpt lat="42.25393645383477" lon="14.135376433436548"><ele>297.0</ele><time>2026-04-12T10:09:41.998Z</time></trkpt><trkpt lat="42.254052832157605" lon="14.135531894515115"><ele>297.0</ele><time>2026-04-12T10:09:42.998Z</time></trkpt><trkpt lat="42.254154603776485" lon="14.135681179068632"><ele>295.0</ele><time>2026-04-12T10:09:43.998Z</time></trkpt><trkpt lat="42.25423059791738" lon="14.135826660420594"><ele>293.0</ele><time>2026-04-12T10:09:44.998Z</time></trkpt><trkpt lat="42.25427647951669" lon="14.135978056188335"><ele>291.0</ele><time>2026-04-12T10:09:45.998Z</time></trkpt><trkpt lat="42.25429225156141" lon="14.136149522023972"><ele>289.0</ele><time>2026-04-12T10:09:46.998Z</time></trkpt><trkpt lat="42.2543068462958" lon="14.13631564115933"><ele>289.0</ele><time>2026-04-12T10:09:47.998Z</time></trkpt><trkpt lat="42.25434931272106" lon="14.136456328923904"><ele>289.0</ele><time>2026-04-12T10:09:48.998Z</time></trkpt><trkpt lat="42.254451687303515" lon="14.136518185489134"><ele>289.0</ele><time>2026-04-12T10:09:49.998Z</time></trkpt><trkpt lat="42.25456147468093" lon="14.13658203707518"><ele>289.0</ele><time>2026-04-12T10:09:50.998Z</time></trkpt><trkpt lat="42.25468870287346" lon="14.136662541367665"><ele>287.66666666666663</ele><time>2026-04-12T10:09:51.998Z</time></trkpt><trkpt lat="42.25482482442308" lon="14.136716241298972"><ele>286.3333333333333</ele><time>2026-04-12T10:09:52.998Z</time></trkpt><trkpt lat="42.2549976606414" lon="14.136617257096038"><ele>285.0</ele><time>2026-04-12T10:09:53.998Z</time></trkpt><trkpt lat="42.255148126038165" lon="14.136638772425401"><ele>285.0</ele><time>2026-04-12T10:09:54.998Z</time></trkpt><trkpt lat="42.25530721005098" lon="14.136648306775367"><ele>285.0</ele><time>2026-04-12T10:09:55.998Z</time></trkpt><trkpt lat="42.25545540573011" lon="14.136659480151152"><ele>285.0</ele><time>2026-04-12T10:09:56.998Z</time></trkpt><trkpt lat="42.25560927009127" lon="14.136642155944177"><ele>284.0</ele><time>2026-04-12T10:09:57.998Z</time></trkpt><trkpt lat="42.255764875998736" lon="14.136646950543373"><ele>283.0</ele><time>2026-04-12T10:09:58.998Z</time></trkpt><trkpt lat="42.25591083921253" lon="14.136668171287688"><ele>282.0</ele><time>2026-04-12T10:09:59.998Z</time></trkpt><trkpt lat="42.2560429809066" lon="14.136722034355625"><ele>281.0</ele><time>2026-04-12T10:10:00.998Z</time></trkpt><trkpt lat="42.25615637890871" lon="14.136825310032949"><ele>281.0</ele><time>2026-04-12T10:10:01.998Z</time></trkpt><trkpt lat="42.25627467150013" lon="14.136881344580052"><ele>281.0</ele><time>2026-04-12T10:10:02.998Z</time></trkpt><trkpt lat="42.25638173504449" lon="14.136921998960641"><ele>281.0</ele><time>2026-04-12T10:10:03.998Z</time></trkpt><trkpt lat="42.25647625731517" lon="14.136891346134727"><ele>281.0</ele><time>2026-04-12T10:10:04.998Z</time></trkpt><trkpt lat="42.25656983492633" lon="14.136843702484708"><ele>281.0</ele><time>2026-04-12T10:10:05.998Z</time></trkpt><trkpt lat="42.25664021292736" lon="14.136725028892824"><ele>279.0</ele><time>2026-04-12T10:10:06.998Z</time></trkpt><trkpt lat="42.25667956893169" lon="14.136578611786742"><ele>277.0</ele><time>2026-04-12T10:10:07.998Z</time></trkpt><trkpt lat="42.25668792519927" lon="14.136402275813454"><ele>275.0</ele><time>2026-04-12T10:10:08.998Z</time></trkpt><trkpt lat="42.25671594556712" lon="14.13622041802113"><ele>273.0</ele><time>2026-04-12T10:10:09.998Z</time></trkpt><trkpt lat="42.25673617554004" lon="14.136030743316924"><ele>272.3333333333333</ele><time>2026-04-12T10:10:10.998Z</time></trkpt><trkpt lat="42.25675814237239" lon="14.13582478407096"><ele>271.66666666666663</ele><time>2026-04-12T10:10:11.998Z</time></trkpt><trkpt lat="42.25678013108683" lon="14.135609305321356"><ele>271.0</ele><time>2026-04-12T10:10:13Z</time></trkpt><trkpt lat="42.2568015279808" lon="14.13539184704957"><ele>271.0</ele><time>2026-04-12T10:10:14Z</time></trkpt><trkpt lat="42.256820172697786" lon="14.135192467847038"><ele>271.0</ele><time>2026-04-12T10:10:15Z</time></trkpt><trkpt lat="42.25683456843039" lon="14.135040859226837"><ele>271.0</ele><time>2026-04-12T10:10:16Z</time></trkpt><trkpt lat="42.25684925875012" lon="14.13493258729989"><ele>271.0</ele><time>2026-04-12T10:10:17Z</time></trkpt><trkpt lat="42.25703095697858" lon="14.134924842053604"><ele>271.0</ele><time>2026-04-12T10:10:21Z</time></trkpt><trkpt lat="42.25712742807002" lon="14.134899071228677"><ele>271.0</ele><time>2026-04-12T10:10:22Z</time></trkpt><trkpt lat="42.25722808345838" lon="14.134883657612024"><ele>271.0</ele><time>2026-04-12T10:10:23Z</time></trkpt><trkpt lat="42.257334925658874" lon="14.134852191831255"><ele>271.0</ele><time>2026-04-12T10:10:24Z</time></trkpt><trkpt lat="42.25745481500374" lon="14.13486995847572"><ele>271.0</ele><time>2026-04-12T10:10:25Z</time></trkpt><trkpt lat="42.25756694049866" lon="14.134905437630804"><ele>271.25</ele><time>2026-04-12T10:10:26Z</time></trkpt><trkpt lat="42.257676580129626" lon="14.13494420455395"><ele>271.5</ele><time>2026-04-12T10:10:27Z</time></trkpt><trkpt lat="42.25781320143426" lon="14.134958560625615"><ele>271.75</ele><time>2026-04-12T10:10:28Z</time></trkpt><trkpt lat="42.25792164876503" lon="14.134981505569572"><ele>272.0</ele><time>2026-04-12T10:10:29Z</time></trkpt><trkpt lat="42.25803181091562" lon="14.135012152795955"><ele>272.8</ele><time>2026-04-12T10:10:30Z</time></trkpt><trkpt lat="42.25813212726222" lon="14.135030663998569"><ele>273.6</ele><time>2026-04-12T10:10:31Z</time></trkpt><trkpt lat="42.258230845602114" lon="14.135048880324362"><ele>274.40000000000003</ele><time>2026-04-12T10:10:32Z</time></trkpt><trkpt lat="42.25833860701279" lon="14.135008163449301"><ele>275.2</ele><time>2026-04-12T10:10:33Z</time></trkpt><trkpt lat="42.258421068021335" lon="14.135042844591347"><ele>276.0</ele><time>2026-04-12T10:10:34Z</time></trkpt><trkpt lat="42.258516759429796" lon="14.135069750776747"><ele>276.0</ele><time>2026-04-12T10:10:35Z</time></trkpt><trkpt lat="42.2585863518981" lon="14.135107778930163"><ele>276.0</ele><time>2026-04-12T10:10:36Z</time></trkpt><trkpt lat="42.25867623166581" lon="14.135151983580975"><ele>276.0</ele><time>2026-04-12T10:10:37Z</time></trkpt><trkpt lat="42.258752874444504" lon="14.135208401768372"><ele>276.0</ele><time>2026-04-12T10:10:38Z</time></trkpt><trkpt lat="42.25885202309934" lon="14.135245170050105"><ele>276.0</ele><time>2026-04-12T10:10:39Z</time></trkpt><trkpt lat="42.25905724024492" lon="14.13525036692931"><ele>277.1666666666667</ele><time>2026-04-12T10:10:41Z</time></trkpt><trkpt lat="42.25913847829918" lon="14.135251447549509"><ele>278.3333333333333</ele><time>2026-04-12T10:10:41.999Z</time></trkpt><trkpt lat="42.25920481906683" lon="14.135258147018988"><ele>279.5</ele><time>2026-04-12T10:10:42.999Z</time></trkpt><trkpt lat="42.2592922126269" lon="14.13527869299262"><ele>280.66666666666663</ele><time>2026-04-12T10:10:44.999Z</time></trkpt><trkpt lat="42.259418930746435" lon="14.135310154087396"><ele>281.8333333333333</ele><time>2026-04-12T10:10:46.999Z</time></trkpt><trkpt lat="42.25949073322086" lon="14.135327459126879"><ele>283.0</ele><time>2026-04-12T10:10:47.999Z</time></trkpt><trkpt lat="42.25960009755889" lon="14.13531259330853"><ele>283.0</ele><time>2026-04-12T10:10:50.999Z</time></trkpt><trkpt lat="42.259683778983366" lon="14.13518030067541"><ele>283.0</ele><time>2026-04-12T10:10:52.999Z</time></trkpt><trkpt lat="42.25982407537493" lon="14.135213247707679"><ele>283.0</ele><time>2026-04-12T10:10:55.999Z</time></trkpt><trkpt lat="42.25997696216503" lon="14.135268407920035"><ele>283.0</ele><time>2026-04-12T10:10:56.999Z</time></trkpt><trkpt lat="42.260085298337394" lon="14.135292120749895"><ele>282.8</ele><time>2026-04-12T10:10:57.999Z</time></trkpt><trkpt lat="42.26018421681233" lon="14.13531231953446"><ele>282.6</ele><time>2026-04-12T10:10:58.999Z</time></trkpt><trkpt lat="42.260283101637775" lon="14.135330506227449"><ele>282.4</ele><time>2026-04-12T10:10:59.999Z</time></trkpt><trkpt lat="42.26038110192903" lon="14.135358914709881"><ele>282.2</ele><time>2026-04-12T10:11:00.999Z</time></trkpt><trkpt lat="42.26048445111873" lon="14.13538393101696"><ele>282.0</ele><time>2026-04-12T10:11:01.999Z</time></trkpt><trkpt lat="42.26058119048585" lon="14.135410722261044"><ele>278.5</ele><time>2026-04-12T10:11:02.999Z</time></trkpt><trkpt lat="42.26069395900371" lon="14.135458340666368"><ele>275.0</ele><time>2026-04-12T10:11:03.999Z</time></trkpt><trkpt lat="42.26086317969039" lon="14.135570820831235"><ele>271.5</ele><time>2026-04-12T10:11:05.999Z</time></trkpt><trkpt lat="42.26094007489244" lon="14.135642435510048"><ele>268.0</ele><time>2026-04-12T10:11:06.999Z</time></trkpt><trkpt lat="42.261042011503626" lon="14.135742146502214"><ele>268.0</ele><time>2026-04-12T10:11:07.999Z</time></trkpt><trkpt lat="42.26111677729166" lon="14.135858231982537"><ele>268.0</ele><time>2026-04-12T10:11:08.999Z</time></trkpt><trkpt lat="42.26112959420136" lon="14.13610020893224"><ele>268.0</ele><time>2026-04-12T10:11:09.999Z</time></trkpt><trkpt lat="42.26118875631948" lon="14.136310961607274"><ele>268.0</ele><time>2026-04-12T10:11:10.999Z</time></trkpt><trkpt lat="42.26127503947253" lon="14.136442409475308"><ele>268.0</ele><time>2026-04-12T10:11:11.999Z</time></trkpt><trkpt lat="42.261342365491785" lon="14.136536187112652"><ele>268.0</ele><time>2026-04-12T10:11:12.999Z</time></trkpt><trkpt lat="42.261399970278724" lon="14.13661805234755"><ele>268.0</ele><time>2026-04-12T10:11:13.999Z</time></trkpt><trkpt lat="42.261474323021055" lon="14.136709608285473"><ele>268.0</ele><time>2026-04-12T10:11:14.999Z</time></trkpt><trkpt lat="42.26156554520645" lon="14.136793514815265"><ele>265.6</ele><time>2026-04-12T10:11:15.999Z</time></trkpt><trkpt lat="42.26165108127418" lon="14.136815675353759"><ele>263.20000000000005</ele><time>2026-04-12T10:11:16.999Z</time></trkpt><trkpt lat="42.26170167865216" lon="14.136936161973505"><ele>260.8</ele><time>2026-04-12T10:11:17.999Z</time></trkpt><trkpt lat="42.26174320420789" lon="14.137070408067192"><ele>258.40000000000003</ele><time>2026-04-12T10:11:18.999Z</time></trkpt><trkpt lat="42.26177957525124" lon="14.137163826117176"><ele>256.0</ele><time>2026-04-12T10:11:19.999Z</time></trkpt><trkpt lat="42.26180020659499" lon="14.137280011367375"><ele>257.0</ele><time>2026-04-12T10:11:20.999Z</time></trkpt><trkpt lat="42.26178238232381" lon="14.13738974829807"><ele>258.0</ele><time>2026-04-12T10:11:22.999Z</time></trkpt><trkpt lat="42.261780207807206" lon="14.137504778469692"><ele>259.0</ele><time>2026-04-12T10:11:23.999Z</time></trkpt><trkpt lat="42.261718469303304" lon="14.13762797360837"><ele>260.0</ele><time>2026-04-12T10:11:25.999Z</time></trkpt><trkpt lat="42.26171621217014" lon="14.137744627260284"><ele>261.0</ele><time>2026-04-12T10:11:27.999Z</time></trkpt><trkpt lat="42.26174694370984" lon="14.137832333742852"><ele>262.0</ele><time>2026-04-12T10:11:32.999Z</time></trkpt><trkpt lat="42.261688147996104" lon="14.137995874467343"><ele>262.0</ele><time>2026-04-12T10:11:34.999Z</time></trkpt><trkpt lat="42.261651931128206" lon="14.138103653940561"><ele>262.0</ele><time>2026-04-12T10:11:35.999Z</time></trkpt><trkpt lat="42.26160551284647" lon="14.138184348355717"><ele>262.0</ele><time>2026-04-12T10:11:36.999Z</time></trkpt><trkpt lat="42.2615661155988" lon="14.138262530871573"><ele>262.0</ele><time>2026-04-12T10:11:37.999Z</time></trkpt><trkpt lat="42.26151470094551" lon="14.138338671035733"><ele>262.0</ele><time>2026-04-12T10:11:38.999Z</time></trkpt><trkpt lat="42.261448071542596" lon="14.138425701224298"><ele>262.0</ele><time>2026-04-12T10:11:39.999Z</time></trkpt><trkpt lat="42.26138070412743" lon="14.138499248834847"><ele>265.6</ele><time>2026-04-12T10:11:40.999Z</time></trkpt><trkpt lat="42.26131467979507" lon="14.138577469117275"><ele>269.2</ele><time>2026-04-12T10:11:41.999Z</time></trkpt><trkpt lat="42.26125326530752" lon="14.138669809383622"><ele>272.8</ele><time>2026-04-12T10:11:42.998Z</time></trkpt><trkpt lat="42.26119434800562" lon="14.13878320364537"><ele>276.4</ele><time>2026-04-12T10:11:43.998Z</time></trkpt><trkpt lat="42.26112934230655" lon="14.138916398873054"><ele>280.0</ele><time>2026-04-12T10:11:44.998Z</time></trkpt><trkpt lat="42.26108976489722" lon="14.139040150901588"><ele>280.3333333333333</ele><time>2026-04-12T10:11:45.998Z</time></trkpt><trkpt lat="42.26105932694057" lon="14.139147755493738"><ele>280.66666666666663</ele><time>2026-04-12T10:11:46.998Z</time></trkpt><trkpt lat="42.26104589745782" lon="14.139268851303127"><ele>281.0</ele><time>2026-04-12T10:11:48.998Z</time></trkpt><trkpt lat="42.261083458296824" lon="14.139343023207958"><ele>281.3333333333333</ele><time>2026-04-12T10:11:50.998Z</time></trkpt><trkpt lat="42.261147817526904" lon="14.13942738687871"><ele>281.6666666666667</ele><time>2026-04-12T10:11:52.998Z</time></trkpt><trkpt lat="42.26119094557611" lon="14.139529263395122"><ele>282.0</ele><time>2026-04-12T10:11:53.998Z</time></trkpt><trkpt lat="42.261300264799466" lon="14.13960686384709"><ele>282.0</ele><time>2026-04-12T10:11:54.998Z</time></trkpt><trkpt lat="42.26140578920836" lon="14.139642880276606"><ele>282.0</ele><time>2026-04-12T10:11:56.998Z</time></trkpt><trkpt lat="42.26151473015444" lon="14.139618648594906"><ele>282.0</ele><time>2026-04-12T10:11:58.998Z</time></trkpt><trkpt lat="42.26163990823204" lon="14.139598180983805"><ele>282.0</ele><time>2026-04-12T10:12:00.998Z</time></trkpt><trkpt lat="42.26175367677879" lon="14.139667197245899"><ele>278.5</ele><time>2026-04-12T10:12:02.998Z</time></trkpt><trkpt lat="42.261830591689815" lon="14.139711754616313"><ele>275.0</ele><time>2026-04-12T10:12:03.998Z</time></trkpt><trkpt lat="42.26190035830982" lon="14.139766447694221"><ele>271.5</ele><time>2026-04-12T10:12:04.998Z</time></trkpt><trkpt lat="42.26195734534072" lon="14.139812175841705"><ele>268.0</ele><time>2026-04-12T10:12:05.998Z</time></trkpt><trkpt lat="42.26204297137404" lon="14.139920294390452"><ele>264.5</ele><time>2026-04-12T10:12:07.998Z</time></trkpt><trkpt lat="42.26206290427537" lon="14.140002383351616"><ele>261.0</ele><time>2026-04-12T10:12:08.998Z</time></trkpt><trkpt lat="42.26208476116805" lon="14.140110758529632"><ele>261.0</ele><time>2026-04-12T10:12:09.998Z</time></trkpt><trkpt lat="42.262134778242256" lon="14.140219659441756"><ele>261.0</ele><time>2026-04-12T10:12:10.998Z</time></trkpt><trkpt lat="42.262178264473846" lon="14.140357317686652"><ele>261.0</ele><time>2026-04-12T10:12:11.998Z</time></trkpt><trkpt lat="42.26221794970373" lon="14.140479799426263"><ele>261.0</ele><time>2026-04-12T10:12:12.998Z</time></trkpt><trkpt lat="42.26224790947553" lon="14.140596791409534"><ele>261.0</ele><time>2026-04-12T10:12:13.998Z</time></trkpt><trkpt lat="42.26228673529909" lon="14.14073683578655"><ele>257.2</ele><time>2026-04-12T10:12:14.998Z</time></trkpt><trkpt lat="42.26231532553643" lon="14.14087980521085"><ele>253.40000000000003</ele><time>2026-04-12T10:12:15.998Z</time></trkpt><trkpt lat="42.26233190616848" lon="14.141006667760433"><ele>249.6</ele><time>2026-04-12T10:12:16.998Z</time></trkpt><trkpt lat="42.2623580270491" lon="14.141132775722092"><ele>245.8</ele><time>2026-04-12T10:12:18Z</time></trkpt><trkpt lat="42.26239038796175" lon="14.141240473675202"><ele>242.0</ele><time>2026-04-12T10:12:19Z</time></trkpt><trkpt lat="42.26245210904145" lon="14.141340611255155"><ele>242.0</ele><time>2026-04-12T10:12:20Z</time></trkpt><trkpt lat="42.262508105297634" lon="14.141382457135835"><ele>242.0</ele><time>2026-04-12T10:12:21Z</time></trkpt><trkpt lat="42.26257612279067" lon="14.1414108959248"><ele>242.0</ele><time>2026-04-12T10:12:22Z</time></trkpt><trkpt lat="42.262674282653194" lon="14.141433246178142"><ele>242.0</ele><time>2026-04-12T10:12:23Z</time></trkpt><trkpt lat="42.26296377051706" lon="14.141315106584672"><ele>242.0</ele><time>2026-04-12T10:12:27Z</time></trkpt><trkpt lat="42.26305576265644" lon="14.141256290409874"><ele>242.0</ele><time>2026-04-12T10:12:28Z</time></trkpt><trkpt lat="42.26315695530211" lon="14.14121255528216"><ele>242.0</ele><time>2026-04-12T10:12:29Z</time></trkpt><trkpt lat="42.263261414946705" lon="14.141195915939909"><ele>242.0</ele><time>2026-04-12T10:12:30Z</time></trkpt><trkpt lat="42.26345683941747" lon="14.141254737852556"><ele>238.0</ele><time>2026-04-12T10:12:32Z</time></trkpt><trkpt lat="42.26353799414378" lon="14.141259425438658"><ele>234.0</ele><time>2026-04-12T10:12:33Z</time></trkpt><trkpt lat="42.26360317147734" lon="14.141255992918794"><ele>230.0</ele><time>2026-04-12T10:12:34Z</time></trkpt><trkpt lat="42.26370481132366" lon="14.141257236332018"><ele>226.0</ele><time>2026-04-12T10:12:35Z</time></trkpt><trkpt lat="42.26380620228169" lon="14.141264158871145"><ele>222.0</ele><time>2026-04-12T10:12:36Z</time></trkpt><trkpt lat="42.26390655895602" lon="14.14128556879314"><ele>218.2</ele><time>2026-04-12T10:12:37Z</time></trkpt><trkpt lat="42.263996370290656" lon="14.141292043914826"><ele>214.39999999999998</ele><time>2026-04-12T10:12:38Z</time></trkpt><trkpt lat="42.26408051987795" lon="14.141290742196922"><ele>210.60000000000002</ele><time>2026-04-12T10:12:39Z</time></trkpt><trkpt lat="42.2641566072149" lon="14.141304841234263"><ele>206.8</ele><time>2026-04-12T10:12:40Z</time></trkpt><trkpt lat="42.26425981454059" lon="14.141299506178097"><ele>203.0</ele><time>2026-04-12T10:12:42Z</time></trkpt><trkpt lat="42.264249682651275" lon="14.14114718540799"><ele>203.00000000000003</ele><time>2026-04-12T10:12:44Z</time></trkpt><trkpt lat="42.264243954637244" lon="14.141044511794426"><ele>203.0</ele><time>2026-04-12T10:12:45Z</time></trkpt><trkpt lat="42.26431634348743" lon="14.140925093004785"><ele>203.0</ele><time>2026-04-12T10:12:46.999Z</time></trkpt><trkpt lat="42.2643745287543" lon="14.14085352839025"><ele>203.0</ele><time>2026-04-12T10:12:48.999Z</time></trkpt><trkpt lat="42.26444707690157" lon="14.14084706494857"><ele>203.00000000000003</ele><time>2026-04-12T10:12:49.999Z</time></trkpt><trkpt lat="42.264511076462355" lon="14.14082879690805"><ele>203.0</ele><time>2026-04-12T10:12:50.999Z</time></trkpt><trkpt lat="42.26459700093691" lon="14.140804482784766"><ele>203.0</ele><time>2026-04-12T10:12:51.999Z</time></trkpt><trkpt lat="42.26467986403247" lon="14.140771159013848"><ele>203.0</ele><time>2026-04-12T10:12:52.999Z</time></trkpt><trkpt lat="42.264790330697444" lon="14.140757566955926"><ele>203.0</ele><time>2026-04-12T10:12:53.999Z</time></trkpt><trkpt lat="42.2649330925957" lon="14.140774307566884"><ele>203.0</ele><time>2026-04-12T10:12:54.999Z</time></trkpt><trkpt lat="42.26507716761275" lon="14.140789125120218"><ele>196.5</ele><time>2026-04-12T10:12:55.999Z</time></trkpt><trkpt lat="42.2652228822143" lon="14.140825199859743"><ele>190.0</ele><time>2026-04-12T10:12:56.999Z</time></trkpt><trkpt lat="42.26566010330318" lon="14.140835666886021"><ele>187.4</ele><time>2026-04-12T10:13:00.999Z</time></trkpt><trkpt lat="42.26568962654883" lon="14.140935131776692"><ele>184.8</ele><time>2026-04-12T10:13:01.999Z</time></trkpt><trkpt lat="42.26575267570598" lon="14.141003989208818"><ele>182.2</ele><time>2026-04-12T10:13:02.999Z</time></trkpt><trkpt lat="42.26583726282606" lon="14.141057508894201"><ele>179.6</ele><time>2026-04-12T10:13:03.999Z</time></trkpt><trkpt lat="42.26587448687566" lon="14.14120065873707"><ele>177.0</ele><time>2026-04-12T10:13:04.999Z</time></trkpt><trkpt lat="42.265974681330924" lon="14.141211676032029"><ele>177.0</ele><time>2026-04-12T10:13:06.999Z</time></trkpt><trkpt lat="42.266018842547766" lon="14.141324003900705"><ele>177.0</ele><time>2026-04-12T10:13:08.999Z</time></trkpt><trkpt lat="42.266059380375616" lon="14.141447591562956"><ele>177.0</ele><time>2026-04-12T10:13:10.999Z</time></trkpt><trkpt lat="42.266120417724224" lon="14.14154571698729"><ele>177.0</ele><time>2026-04-12T10:13:12.999Z</time></trkpt><trkpt lat="42.266163593958396" lon="14.141680855517617"><ele>177.0</ele><time>2026-04-12T10:13:14.999Z</time></trkpt><trkpt lat="42.26617578469961" lon="14.14177103891586"><ele>176.83333333333334</ele><time>2026-04-12T10:13:15.999Z</time></trkpt><trkpt lat="42.26618549908502" lon="14.141856544230706"><ele>176.66666666666666</ele><time>2026-04-12T10:13:16.999Z</time></trkpt><trkpt lat="42.26625960027191" lon="14.141881105244668"><ele>176.5</ele><time>2026-04-12T10:13:18.999Z</time></trkpt><trkpt lat="42.26634566212836" lon="14.141755074977514"><ele>176.33333333333331</ele><time>2026-04-12T10:13:20.999Z</time></trkpt><trkpt lat="42.26638104958726" lon="14.141667410861663"><ele>176.16666666666666</ele><time>2026-04-12T10:13:21.999Z</time></trkpt><trkpt lat="42.266406331120905" lon="14.14157423605198"><ele>176.0</ele><time>2026-04-12T10:13:22.999Z</time></trkpt><trkpt lat="42.266445768921336" lon="14.141477546467259"><ele>176.0</ele><time>2026-04-12T10:13:23.999Z</time></trkpt><trkpt lat="42.26650273815035" lon="14.1415287259414"><ele>176.0</ele><time>2026-04-12T10:13:26.999Z</time></trkpt><trkpt lat="42.2664786972088" lon="14.141616067583511"><ele>176.0</ele><time>2026-04-12T10:13:27.999Z</time></trkpt><trkpt lat="42.26646729930973" lon="14.141710045934762"><ele>176.0</ele><time>2026-04-12T10:13:28.999Z</time></trkpt><trkpt lat="42.26644787542769" lon="14.141817976738292"><ele>176.0</ele><time>2026-04-12T10:13:29.999Z</time></trkpt><trkpt lat="42.266427416111014" lon="14.141920964544452"><ele>176.0</ele><time>2026-04-12T10:13:30.999Z</time></trkpt><trkpt lat="42.26640926950248" lon="14.142032458579996"><ele>176.0</ele><time>2026-04-12T10:13:31.999Z</time></trkpt><trkpt lat="42.2663739607821" lon="14.142128669392841"><ele>176.0</ele><time>2026-04-12T10:13:32.999Z</time></trkpt><trkpt lat="42.266352597024" lon="14.142211308081361"><ele>176.0</ele><time>2026-04-12T10:13:33.999Z</time></trkpt><trkpt lat="42.266288977411" lon="14.142337549534053"><ele>176.0</ele><time>2026-04-12T10:13:35.999Z</time></trkpt><trkpt lat="42.26625413095312" lon="14.142422453118904"><ele>176.0</ele><time>2026-04-12T10:13:36.999Z</time></trkpt><trkpt lat="42.26622775497623" lon="14.142514182059319"><ele>176.0</ele><time>2026-04-12T10:13:37.999Z</time></trkpt><trkpt lat="42.26621966283902" lon="14.14260359441508"><ele>176.66666666666666</ele><time>2026-04-12T10:13:38.999Z</time></trkpt><trkpt lat="42.266235978372976" lon="14.14268671493872"><ele>177.33333333333331</ele><time>2026-04-12T10:13:39.999Z</time></trkpt><trkpt lat="42.26626411096825" lon="14.142790569215444"><ele>178.0</ele><time>2026-04-12T10:13:40.999Z</time></trkpt><trkpt lat="42.26628843449153" lon="14.142894537690518"><ele>178.66666666666666</ele><time>2026-04-12T10:13:41.999Z</time></trkpt><trkpt lat="42.266308278644594" lon="14.142994712260125"><ele>179.33333333333334</ele><time>2026-04-12T10:13:42.999Z</time></trkpt><trkpt lat="42.26634276342954" lon="14.14309301037416"><ele>180.0</ele><time>2026-04-12T10:13:43.999Z</time></trkpt><trkpt lat="42.26637303432151" lon="14.143190164349566"><ele>181.83333333333334</ele><time>2026-04-12T10:13:44.999Z</time></trkpt><trkpt lat="42.26639071886518" lon="14.143283418158255"><ele>183.66666666666666</ele><time>2026-04-12T10:13:45.998Z</time></trkpt><trkpt lat="42.26637847353509" lon="14.143446852163844"><ele>185.5</ele><time>2026-04-12T10:13:47.998Z</time></trkpt><trkpt lat="42.26634806136252" lon="14.143543480592148"><ele>187.33333333333331</ele><time>2026-04-12T10:13:48.998Z</time></trkpt><trkpt lat="42.26632100957768" lon="14.143634124667788"><ele>189.16666666666666</ele><time>2026-04-12T10:13:49.998Z</time></trkpt><trkpt lat="42.266315133741124" lon="14.143722303094275"><ele>191.0</ele><time>2026-04-12T10:13:50.998Z</time></trkpt><trkpt lat="42.266321388164734" lon="14.14389232329981"><ele>191.0</ele><time>2026-04-12T10:13:52.998Z</time></trkpt><trkpt lat="42.26632472016885" lon="14.143990090501505"><ele>191.0</ele><time>2026-04-12T10:13:53.998Z</time></trkpt><trkpt lat="42.26633393397454" lon="14.144085104086217"><ele>191.0</ele><time>2026-04-12T10:13:54.998Z</time></trkpt><trkpt lat="42.26635749286057" lon="14.144180433658303"><ele>191.0</ele><time>2026-04-12T10:13:55.998Z</time></trkpt><trkpt lat="42.26637454337022" lon="14.144270075133297"><ele>191.0</ele><time>2026-04-12T10:13:56.998Z</time></trkpt><trkpt lat="42.26639239194232" lon="14.144358663596321"><ele>191.0</ele><time>2026-04-12T10:13:57.998Z</time></trkpt><trkpt lat="42.266401497187495" lon="14.14445702069502"><ele>191.0</ele><time>2026-04-12T10:13:58.998Z</time></trkpt><trkpt lat="42.266403875735435" lon="14.144554367813544"><ele>192.42857142857144</ele><time>2026-04-12T10:13:59.998Z</time></trkpt><trkpt lat="42.266396592800426" lon="14.144651673472303"><ele>193.85714285714283</ele><time>2026-04-12T10:14:00.998Z</time></trkpt><trkpt lat="42.266387432839316" lon="14.144751933489093"><ele>195.28571428571428</ele><time>2026-04-12T10:14:01.998Z</time></trkpt><trkpt lat="42.26638899351553" lon="14.144845366502347"><ele>196.71428571428572</ele><time>2026-04-12T10:14:02.998Z</time></trkpt><trkpt lat="42.266414606840605" lon="14.144941697040846"><ele>198.14285714285717</ele><time>2026-04-12T10:14:03.998Z</time></trkpt><trkpt lat="42.266440081130696" lon="14.145035234139412"><ele>199.57142857142856</ele><time>2026-04-12T10:14:04.998Z</time></trkpt><trkpt lat="42.266448476379146" lon="14.145134552346295"><ele>201.0</ele><time>2026-04-12T10:14:05.998Z</time></trkpt><trkpt lat="42.266441990366275" lon="14.145245512858834"><ele>203.0</ele><time>2026-04-12T10:14:06.998Z</time></trkpt><trkpt lat="42.266421809048005" lon="14.14534755465278"><ele>205.0</ele><time>2026-04-12T10:14:07.998Z</time></trkpt><trkpt lat="42.26640269094136" lon="14.145456383522255"><ele>207.0</ele><time>2026-04-12T10:14:08.998Z</time></trkpt><trkpt lat="42.26638682415097" lon="14.14556572788682"><ele>209.0</ele><time>2026-04-12T10:14:09.998Z</time></trkpt><trkpt lat="42.266375695453284" lon="14.145659131228886"><ele>211.0</ele><time>2026-04-12T10:14:10.998Z</time></trkpt><trkpt lat="42.26637144654762" lon="14.145761315012473"><ele>213.0</ele><time>2026-04-12T10:14:11.998Z</time></trkpt><trkpt lat="42.26637462239926" lon="14.145866571267035"><ele>217.5</ele><time>2026-04-12T10:14:12.998Z</time></trkpt><trkpt lat="42.26637414241071" lon="14.145986712307346"><ele>222.0</ele><time>2026-04-12T10:14:13.998Z</time></trkpt><trkpt lat="42.266372416923495" lon="14.146109521191544"><ele>226.5</ele><time>2026-04-12T10:14:14.998Z</time></trkpt><trkpt lat="42.26637572644377" lon="14.14622710398894"><ele>231.0</ele><time>2026-04-12T10:14:15.998Z</time></trkpt><trkpt lat="42.26637303215985" lon="14.146339354488012"><ele>235.5</ele><time>2026-04-12T10:14:16.998Z</time></trkpt><trkpt lat="42.266339563606046" lon="14.146438512861536"><ele>240.0</ele><time>2026-04-12T10:14:17.998Z</time></trkpt><trkpt lat="42.266306310000964" lon="14.146525377501092"><ele>242.33333333333334</ele><time>2026-04-12T10:14:18.998Z</time></trkpt><trkpt lat="42.26626758349132" lon="14.146597288486626"><ele>244.66666666666669</ele><time>2026-04-12T10:14:19.998Z</time></trkpt><trkpt lat="42.26622510979297" lon="14.146674402724425"><ele>247.0</ele><time>2026-04-12T10:14:20.998Z</time></trkpt><trkpt lat="42.26617617897858" lon="14.14675929456687"><ele>249.33333333333334</ele><time>2026-04-12T10:14:21.998Z</time></trkpt><trkpt lat="42.26614430334763" lon="14.146861756409024"><ele>251.66666666666669</ele><time>2026-04-12T10:14:22.998Z</time></trkpt><trkpt lat="42.26615024761983" lon="14.146970066392859"><ele>254.0</ele><time>2026-04-12T10:14:24Z</time></trkpt><trkpt lat="42.26617038972117" lon="14.147072049785972"><ele>254.0</ele><time>2026-04-12T10:14:25Z</time></trkpt><trkpt lat="42.26620012464385" lon="14.147193165059326"><ele>253.99999999999997</ele><time>2026-04-12T10:14:26Z</time></trkpt><trkpt lat="42.266234329689" lon="14.147325457232004"><ele>253.99999999999997</ele><time>2026-04-12T10:14:27Z</time></trkpt><trkpt lat="42.26625802096749" lon="14.147459857593262"><ele>254.0</ele><time>2026-04-12T10:14:28Z</time></trkpt><trkpt lat="42.266271241699286" lon="14.147600082288355"><ele>254.0</ele><time>2026-04-12T10:14:29Z</time></trkpt><trkpt lat="42.26628605429608" lon="14.147754989879587"><ele>254.0</ele><time>2026-04-12T10:14:30Z</time></trkpt><trkpt lat="42.26630454043395" lon="14.147907418161925"><ele>254.0</ele><time>2026-04-12T10:14:31Z</time></trkpt><trkpt lat="42.26633197261803" lon="14.148072794502019"><ele>254.0</ele><time>2026-04-12T10:14:32Z</time></trkpt><trkpt lat="42.266359645605306" lon="14.14824055005262"><ele>254.0</ele><time>2026-04-12T10:14:33Z</time></trkpt><trkpt lat="42.266380957313416" lon="14.148419690721667"><ele>254.5</ele><time>2026-04-12T10:14:34Z</time></trkpt><trkpt lat="42.26639270444161" lon="14.148600942307896"><ele>255.0</ele><time>2026-04-12T10:14:35Z</time></trkpt><trkpt lat="42.266403946778674" lon="14.14876972252011"><ele>255.5</ele><time>2026-04-12T10:14:36Z</time></trkpt><trkpt lat="42.26641544373178" lon="14.148921425431306"><ele>256.0</ele><time>2026-04-12T10:14:37Z</time></trkpt><trkpt lat="42.266426177870244" lon="14.1490582818443"><ele>256.8</ele><time>2026-04-12T10:14:38Z</time></trkpt><trkpt lat="42.266429290427354" lon="14.14918504347452"><ele>257.6</ele><time>2026-04-12T10:14:39Z</time></trkpt><trkpt lat="42.26642963365233" lon="14.149291946105144"><ele>258.4</ele><time>2026-04-12T10:14:40Z</time></trkpt><trkpt lat="42.266545344714224" lon="14.14922129503251"><ele>259.2</ele><time>2026-04-12T10:14:47Z</time></trkpt><trkpt lat="42.266652285637875" lon="14.149237351121942"><ele>260.0</ele><time>2026-04-12T10:34:37Z</time></trkpt><trkpt lat="42.26676539169594" lon="14.149274385172067"><ele>265.0</ele><time>2026-04-12T10:34:39Z</time></trkpt><trkpt lat="42.26683034500237" lon="14.14928926404117"><ele>270.0</ele><time>2026-04-12T10:34:39.999Z</time></trkpt><trkpt lat="42.26690104240732" lon="14.149297842170288"><ele>275.0</ele><time>2026-04-12T10:34:40.999Z</time></trkpt><trkpt lat="42.266994200882266" lon="14.149317673606374"><ele>280.0</ele><time>2026-04-12T10:34:41.999Z</time></trkpt><trkpt lat="42.267077558901555" lon="14.14934527723609"><ele>285.0</ele><time>2026-04-12T10:34:42.999Z</time></trkpt><trkpt lat="42.267147351863976" lon="14.14936724752193"><ele>290.0</ele><time>2026-04-12T10:34:43.999Z</time></trkpt><trkpt lat="42.26722341159406" lon="14.149394416510798"><ele>287.8</ele><time>2026-04-12T10:34:44.999Z</time></trkpt><trkpt lat="42.26730171762146" lon="14.149425372438618"><ele>285.6</ele><time>2026-04-12T10:34:45.999Z</time></trkpt><trkpt lat="42.26737500076606" lon="14.149441364595491"><ele>283.4</ele><time>2026-04-12T10:34:46.999Z</time></trkpt><trkpt lat="42.26746003357197" lon="14.149470095805727"><ele>281.2</ele><time>2026-04-12T10:34:47.999Z</time></trkpt><trkpt lat="42.267575400330195" lon="14.149507501947435"><ele>279.0</ele><time>2026-04-12T10:34:48.999Z</time></trkpt><trkpt lat="42.26768690880483" lon="14.14954719860591"><ele>279.0</ele><time>2026-04-12T10:34:49.999Z</time></trkpt><trkpt lat="42.2677846145225" lon="14.149591501853642"><ele>279.0</ele><time>2026-04-12T10:34:50.999Z</time></trkpt><trkpt lat="42.26787891958207" lon="14.149661926682816"><ele>279.0</ele><time>2026-04-12T10:34:51.999Z</time></trkpt><trkpt lat="42.267967206649914" lon="14.149704141147964"><ele>279.0</ele><time>2026-04-12T10:34:52.999Z</time></trkpt><trkpt lat="42.268059003433066" lon="14.149748192718723"><ele>279.0</ele><time>2026-04-12T10:34:53.999Z</time></trkpt><trkpt lat="42.26815106533141" lon="14.149766403381058"><ele>278.8</ele><time>2026-04-12T10:34:54.999Z</time></trkpt><trkpt lat="42.26824209639858" lon="14.149786245483218"><ele>278.59999999999997</ele><time>2026-04-12T10:34:55.999Z</time></trkpt><trkpt lat="42.26833957647839" lon="14.149815889829142"><ele>278.4</ele><time>2026-04-12T10:34:56.999Z</time></trkpt><trkpt lat="42.26843847327976" lon="14.149832635114368"><ele>278.2</ele><time>2026-04-12T10:34:57.999Z</time></trkpt><trkpt lat="42.2685433285079" lon="14.149864537266948"><ele>278.0</ele><time>2026-04-12T10:34:58.999Z</time></trkpt><trkpt lat="42.26865537813402" lon="14.149917432317604"><ele>278.0</ele><time>2026-04-12T10:34:59.999Z</time></trkpt><trkpt lat="42.26875273931446" lon="14.149957758342419"><ele>278.0</ele><time>2026-04-12T10:35:00.999Z</time></trkpt><trkpt lat="42.26883985759809" lon="14.149948460701442"><ele>278.0</ele><time>2026-04-12T10:35:01.999Z</time></trkpt><trkpt lat="42.268898809079765" lon="14.149917215920558"><ele>278.0</ele><time>2026-04-12T10:35:02.999Z</time></trkpt><trkpt lat="42.269038966638085" lon="14.149948617956682"><ele>278.0</ele><time>2026-04-12T10:35:04.999Z</time></trkpt><trkpt lat="42.26911336505221" lon="14.149990899524568"><ele>277.33333333333337</ele><time>2026-04-12T10:35:05.999Z</time></trkpt><trkpt lat="42.26918497590777" lon="14.150020294561704"><ele>276.6666666666667</ele><time>2026-04-12T10:35:06.999Z</time></trkpt><trkpt lat="42.26926657639248" lon="14.150064492815673"><ele>276.0</ele><time>2026-04-12T10:35:09.999Z</time></trkpt><trkpt lat="42.26932343665878" lon="14.150120736793376"><ele>275.3333333333333</ele><time>2026-04-12T10:35:11.999Z</time></trkpt><trkpt lat="42.26940907352941" lon="14.150149898072144"><ele>274.66666666666663</ele><time>2026-04-12T10:35:14.999Z</time></trkpt><trkpt lat="42.26950138995641" lon="14.15005708174168"><ele>274.0</ele><time>2026-04-12T10:35:16.999Z</time></trkpt><trkpt lat="42.269607835799434" lon="14.150009606665364"><ele>274.0</ele><time>2026-04-12T10:35:18.999Z</time></trkpt><trkpt lat="42.269727434656915" lon="14.149972738935045"><ele>274.0</ele><time>2026-04-12T10:35:20.999Z</time></trkpt><trkpt lat="42.26978628244148" lon="14.149941240369873"><ele>274.0</ele><time>2026-04-12T10:35:22Z</time></trkpt><trkpt lat="42.26984455145746" lon="14.149899054481553"><ele>274.0</ele><time>2026-04-12T10:35:23Z</time></trkpt><trkpt lat="42.26995167977167" lon="14.149807715765412"><ele>274.0</ele><time>2026-04-12T10:35:25Z</time></trkpt><trkpt lat="42.27006683648364" lon="14.149788056321867"><ele>274.66666666666663</ele><time>2026-04-12T10:35:27Z</time></trkpt><trkpt lat="42.27016278628384" lon="14.149790619332292"><ele>275.3333333333333</ele><time>2026-04-12T10:35:29Z</time></trkpt><trkpt lat="42.270218300296335" lon="14.149871415997598"><ele>276.0</ele><time>2026-04-12T10:35:31Z</time></trkpt><trkpt lat="42.2702462209714" lon="14.149961643658463"><ele>276.6666666666667</ele><time>2026-04-12T10:35:32Z</time></trkpt><trkpt lat="42.27027191106986" lon="14.150065186577601"><ele>277.33333333333337</ele><time>2026-04-12T10:35:33Z</time></trkpt><trkpt lat="42.270302175287064" lon="14.150185826349066"><ele>278.0</ele><time>2026-04-12T10:35:34Z</time></trkpt><trkpt lat="42.270312529020465" lon="14.150309412870124"><ele>278.6</ele><time>2026-04-12T10:35:35Z</time></trkpt><trkpt lat="42.2703127493403" lon="14.150430918043037"><ele>279.20000000000005</ele><time>2026-04-12T10:35:36Z</time></trkpt><trkpt lat="42.27032297838031" lon="14.150546683021016"><ele>279.8</ele><time>2026-04-12T10:35:37Z</time></trkpt><trkpt lat="42.27034876695174" lon="14.150677790597792"><ele>280.40000000000003</ele><time>2026-04-12T10:35:38Z</time></trkpt><trkpt lat="42.27038070580513" lon="14.150813816778061"><ele>281.0</ele><time>2026-04-12T10:35:39Z</time></trkpt><trkpt lat="42.270423529841544" lon="14.150969738340963"><ele>281.25</ele><time>2026-04-12T10:35:40Z</time></trkpt><trkpt lat="42.27046584812271" lon="14.151120732801765"><ele>281.5</ele><time>2026-04-12T10:35:41Z</time></trkpt><trkpt lat="42.27048313709304" lon="14.15127805335602"><ele>281.75</ele><time>2026-04-12T10:35:42Z</time></trkpt><trkpt lat="42.27048535682382" lon="14.15144735522429"><ele>282.0</ele><time>2026-04-12T10:35:43Z</time></trkpt><trkpt lat="42.270455672435524" lon="14.151623574859842"><ele>282.5</ele><time>2026-04-12T10:35:44Z</time></trkpt><trkpt lat="42.2704243517523" lon="14.15180950307091"><ele>283.0</ele><time>2026-04-12T10:35:45Z</time></trkpt><trkpt lat="42.270411779401336" lon="14.151995455484423"><ele>283.5</ele><time>2026-04-12T10:35:46Z</time></trkpt><trkpt lat="42.270412445122275" lon="14.152182629147811"><ele>284.0</ele><time>2026-04-12T10:35:47Z</time></trkpt><trkpt lat="42.27041174313788" lon="14.152334985605679"><ele>283.8</ele><time>2026-04-12T10:35:48Z</time></trkpt><trkpt lat="42.270416322657674" lon="14.152464812623368"><ele>283.59999999999997</ele><time>2026-04-12T10:35:49Z</time></trkpt><trkpt lat="42.27042205563377" lon="14.152587663656762"><ele>283.4</ele><time>2026-04-12T10:35:50Z</time></trkpt><trkpt lat="42.27041860900807" lon="14.152684126542354"><ele>283.2</ele><time>2026-04-12T10:35:51Z</time></trkpt><trkpt lat="42.270343805833356" lon="14.15281775762406"><ele>283.0</ele><time>2026-04-12T10:35:53Z</time></trkpt><trkpt lat="42.27027144904622" lon="14.152853974059475"><ele>283.0</ele><time>2026-04-12T10:35:54Z</time></trkpt><trkpt lat="42.270208038085585" lon="14.152862006129151"><ele>283.0</ele><time>2026-04-12T10:35:55Z</time></trkpt><trkpt lat="42.27014853938808" lon="14.152890199483746"><ele>283.0</ele><time>2026-04-12T10:35:56Z</time></trkpt><trkpt lat="42.2701271231441" lon="14.152997294847253"><ele>283.0</ele><time>2026-04-12T10:36:00Z</time></trkpt><trkpt lat="42.27024473498195" lon="14.153043028541395"><ele>283.0</ele><time>2026-04-12T10:36:02Z</time></trkpt><trkpt lat="42.27032238099991" lon="14.153018435471026"><ele>283.0</ele><time>2026-04-12T10:36:03Z</time></trkpt><trkpt lat="42.27041056566276" lon="14.152984911491203"><ele>283.0</ele><time>2026-04-12T10:36:04Z</time></trkpt><trkpt lat="42.27051230718866" lon="14.15295471268585"><ele>283.0</ele><time>2026-04-12T10:36:05Z</time></trkpt><trkpt lat="42.270636893674755" lon="14.152906919562305"><ele>283.0</ele><time>2026-04-12T10:36:06Z</time></trkpt><trkpt lat="42.270749612263224" lon="14.152833426681452"><ele>283.0</ele><time>2026-04-12T10:36:07Z</time></trkpt><trkpt lat="42.27085539569912" lon="14.152779158891935"><ele>282.2</ele><time>2026-04-12T10:36:08Z</time></trkpt><trkpt lat="42.2709477248352" lon="14.152732023982818"><ele>281.4</ele><time>2026-04-12T10:36:09Z</time></trkpt><trkpt lat="42.27101943922976" lon="14.152708479393787"><ele>280.59999999999997</ele><time>2026-04-12T10:36:10Z</time></trkpt><trkpt lat="42.27111986084171" lon="14.152734141196344"><ele>279.8</ele><time>2026-04-12T10:36:12Z</time></trkpt><trkpt lat="42.27125859269039" lon="14.152725987258226"><ele>279.0</ele><time>2026-04-12T10:36:14Z</time></trkpt><trkpt lat="42.27132459724678" lon="14.152585101881078"><ele>279.0</ele><time>2026-04-12T10:36:15Z</time></trkpt><trkpt lat="42.27142890557136" lon="14.15253822245278"><ele>279.0</ele><time>2026-04-12T10:36:16Z</time></trkpt><trkpt lat="42.27151193586089" lon="14.152500906047608"><ele>279.0</ele><time>2026-04-12T10:36:17Z</time></trkpt><trkpt lat="42.27157951568509" lon="14.152470533548312"><ele>279.0</ele><time>2026-04-12T10:36:18Z</time></trkpt><trkpt lat="42.2716538025076" lon="14.15243714671236"><ele>279.0</ele><time>2026-04-12T10:36:19Z</time></trkpt><trkpt lat="42.27174011094564" lon="14.152398357002214"><ele>279.0</ele><time>2026-04-12T10:36:21Z</time></trkpt><trkpt lat="42.27181690029671" lon="14.152430577760866"><ele>272.0</ele><time>2026-04-12T10:36:23Z</time></trkpt><trkpt lat="42.27200390880153" lon="14.152466232249786"><ele>265.0</ele><time>2026-04-12T10:36:24Z</time></trkpt><trkpt lat="42.27208985101197" lon="14.153103127811619"><ele>263.0</ele><time>2026-04-12T10:36:26Z</time></trkpt><trkpt lat="42.272141930540826" lon="14.153210156398726"><ele>261.0</ele><time>2026-04-12T10:36:27Z</time></trkpt><trkpt lat="42.27220961183606" lon="14.153331952911806"><ele>259.0</ele><time>2026-04-12T10:36:28Z</time></trkpt><trkpt lat="42.27227905615391" lon="14.15345260759839"><ele>257.0</ele><time>2026-04-12T10:36:29Z</time></trkpt><trkpt lat="42.27235064990752" lon="14.153562687215475"><ele>255.0</ele><time>2026-04-12T10:36:30Z</time></trkpt><trkpt lat="42.2724093703161" lon="14.153664293022898"><ele>252.83333333333334</ele><time>2026-04-12T10:36:31Z</time></trkpt><trkpt lat="42.2724776977753" lon="14.15376241321438"><ele>250.66666666666669</ele><time>2026-04-12T10:36:32Z</time></trkpt><trkpt lat="42.272546869009574" lon="14.153859435600229"><ele>248.5</ele><time>2026-04-12T10:36:33Z</time></trkpt><trkpt lat="42.27259793622425" lon="14.153919998097455"><ele>246.33333333333334</ele><time>2026-04-12T10:36:34Z</time></trkpt><trkpt lat="42.272655883800624" lon="14.153964090408312"><ele>244.16666666666669</ele><time>2026-04-12T10:36:35Z</time></trkpt><trkpt lat="42.27271619969905" lon="14.154028300867552"><ele>242.0</ele><time>2026-04-12T10:36:36Z</time></trkpt><trkpt lat="42.27277889673285" lon="14.154100347152616"><ele>239.39999999999998</ele><time>2026-04-12T10:36:37Z</time></trkpt><trkpt lat="42.27286353039712" lon="14.154161527182282"><ele>236.79999999999998</ele><time>2026-04-12T10:36:38Z</time></trkpt><trkpt lat="42.2729403724986" lon="14.154203547197055"><ele>234.2</ele><time>2026-04-12T10:36:39Z</time></trkpt><trkpt lat="42.27303165615046" lon="14.154250977667207"><ele>231.6</ele><time>2026-04-12T10:36:40Z</time></trkpt><trkpt lat="42.27312763590556" lon="14.154310414712961"><ele>229.0</ele><time>2026-04-12T10:36:41Z</time></trkpt><trkpt lat="42.2731972962769" lon="14.154355755911567"><ele>226.49999999999997</ele><time>2026-04-12T10:36:42Z</time></trkpt><trkpt lat="42.27328258438608" lon="14.154409909853563"><ele>224.0</ele><time>2026-04-12T10:36:43Z</time></trkpt><trkpt lat="42.273332988504706" lon="14.154517385806049"><ele>221.5</ele><time>2026-04-12T10:36:44Z</time></trkpt><trkpt lat="42.27336124952768" lon="14.154641148301016"><ele>219.0</ele><time>2026-04-12T10:36:45Z</time></trkpt><trkpt lat="42.27339122647148" lon="14.154746665038688"><ele>216.49999999999997</ele><time>2026-04-12T10:36:46Z</time></trkpt><trkpt lat="42.27341686768477" lon="14.154840298474689"><ele>214.0</ele><time>2026-04-12T10:36:47Z</time></trkpt><trkpt lat="42.273445400050974" lon="14.154928234660344"><ele>211.0</ele><time>2026-04-12T10:36:48Z</time></trkpt><trkpt lat="42.27346582716042" lon="14.155011864721411"><ele>207.99999999999997</ele><time>2026-04-12T10:36:49Z</time></trkpt><trkpt lat="42.273580474527144" lon="14.155132616723755"><ele>205.0</ele><time>2026-04-12T10:36:51Z</time></trkpt><trkpt lat="42.273655827651744" lon="14.155188863105487"><ele>202.0</ele><time>2026-04-12T10:36:52Z</time></trkpt><trkpt lat="42.27374868220356" lon="14.155234355687258"><ele>199.0</ele><time>2026-04-12T10:36:53Z</time></trkpt><trkpt lat="42.27382983646378" lon="14.155307031333336"><ele>199.0</ele><time>2026-04-12T10:36:54Z</time></trkpt><trkpt lat="42.273880893814514" lon="14.155414202190515"><ele>199.0</ele><time>2026-04-12T10:36:55Z</time></trkpt><trkpt lat="42.27392233354801" lon="14.155536266279999"><ele>199.0</ele><time>2026-04-12T10:36:56Z</time></trkpt><trkpt lat="42.27395477663315" lon="14.155623932961557"><ele>199.0</ele><time>2026-04-12T10:36:57Z</time></trkpt><trkpt lat="42.27408115049148" lon="14.155643953821263"><ele>199.0</ele><time>2026-04-12T10:36:59Z</time></trkpt><trkpt lat="42.27416650366151" lon="14.155742382413093"><ele>196.39999999999998</ele><time>2026-04-12T10:37:01Z</time></trkpt><trkpt lat="42.27418751595948" lon="14.155841416219273"><ele>193.8</ele><time>2026-04-12T10:37:02Z</time></trkpt><trkpt lat="42.27420743007625" lon="14.155970630886536"><ele>191.2</ele><time>2026-04-12T10:37:03Z</time></trkpt><trkpt lat="42.27424911319953" lon="14.15611149233257"><ele>188.60000000000002</ele><time>2026-04-12T10:37:04Z</time></trkpt><trkpt lat="42.27430252265204" lon="14.15624487195421"><ele>186.0</ele><time>2026-04-12T10:37:05Z</time></trkpt><trkpt lat="42.27435973360559" lon="14.156341729884206"><ele>186.0</ele><time>2026-04-12T10:37:06Z</time></trkpt><trkpt lat="42.27438870874683" lon="14.156421371667369"><ele>186.0</ele><time>2026-04-12T10:37:07Z</time></trkpt><trkpt lat="42.274424430197506" lon="14.156506976129577"><ele>186.0</ele><time>2026-04-12T10:37:08Z</time></trkpt><trkpt lat="42.27451230666355" lon="14.156602333615862"><ele>186.0</ele><time>2026-04-12T10:37:10Z</time></trkpt><trkpt lat="42.27460436701971" lon="14.156676117577167"><ele>186.0</ele><time>2026-04-12T10:37:12Z</time></trkpt><trkpt lat="42.27472709683204" lon="14.156606858676584"><ele>178.0</ele><time>2026-04-12T10:37:15Z</time></trkpt><trkpt lat="42.274823833504186" lon="14.156574710660438"><ele>170.0</ele><time>2026-04-12T10:37:17Z</time></trkpt><trkpt lat="42.274983777931695" lon="14.156615983770559"><ele>162.0</ele><time>2026-04-12T10:37:22Z</time></trkpt><trkpt lat="42.27521030232312" lon="14.156541713133732"><ele>162.0</ele><time>2026-04-12T10:37:27Z</time></trkpt><trkpt lat="42.27526974431939" lon="14.156589901945868"><ele>162.0</ele><time>2026-04-12T10:37:28.001Z</time></trkpt><trkpt lat="42.275351566957" lon="14.156735293258752"><ele>162.0</ele><time>2026-04-12T10:37:30.001Z</time></trkpt><trkpt lat="42.27544589072411" lon="14.156883634409082"><ele>162.0</ele><time>2026-04-12T10:37:32.001Z</time></trkpt><trkpt lat="42.275660558421976" lon="14.156697714636296"><ele>162.8</ele><time>2026-04-12T10:37:36.001Z</time></trkpt><trkpt lat="42.27574804865121" lon="14.156643214447312"><ele>163.6</ele><time>2026-04-12T10:37:37.001Z</time></trkpt><trkpt lat="42.27582628216245" lon="14.156594480539045"><ele>164.4</ele><time>2026-04-12T10:37:38.001Z</time></trkpt><trkpt lat="42.27591089873643" lon="14.156542997708831"><ele>165.20000000000002</ele><time>2026-04-12T10:37:39.001Z</time></trkpt><trkpt lat="42.27601068653235" lon="14.15646286419131"><ele>166.0</ele><time>2026-04-12T10:37:40.001Z</time></trkpt><trkpt lat="42.27612508907371" lon="14.15640369688773"><ele>166.0</ele><time>2026-04-12T10:37:41.001Z</time></trkpt><trkpt lat="42.276246167897696" lon="14.156333251458712"><ele>166.0</ele><time>2026-04-12T10:37:42.001Z</time></trkpt><trkpt lat="42.2763679754103" lon="14.156246349136177"><ele>166.0</ele><time>2026-04-12T10:37:43.001Z</time></trkpt><trkpt lat="42.276480308541785" lon="14.156163155272798"><ele>166.0</ele><time>2026-04-12T10:37:44.001Z</time></trkpt><trkpt lat="42.27659949251145" lon="14.156087705598464"><ele>162.66666666666669</ele><time>2026-04-12T10:37:45.001Z</time></trkpt><trkpt lat="42.27674016446365" lon="14.15602260500027"><ele>159.33333333333334</ele><time>2026-04-12T10:37:46.001Z</time></trkpt><trkpt lat="42.276882694720925" lon="14.155956064391782"><ele>156.0</ele><time>2026-04-12T10:37:47.001Z</time></trkpt><trkpt lat="42.27702490081801" lon="14.155870271015704"><ele>156.0</ele><time>2026-04-12T10:37:48.001Z</time></trkpt><trkpt lat="42.277156332313034" lon="14.155764034785262"><ele>156.0</ele><time>2026-04-12T10:37:49.001Z</time></trkpt><trkpt lat="42.27727545505748" lon="14.155689320595105"><ele>156.0</ele><time>2026-04-12T10:37:50.001Z</time></trkpt><trkpt lat="42.27740255234911" lon="14.155609574803876"><ele>156.0</ele><time>2026-04-12T10:37:51.001Z</time></trkpt><trkpt lat="42.27752600981033" lon="14.155532064880996"><ele>156.0</ele><time>2026-04-12T10:37:52.001Z</time></trkpt><trkpt lat="42.27764107995656" lon="14.155459820737459"><ele>156.0</ele><time>2026-04-12T10:37:53.001Z</time></trkpt><trkpt lat="42.277770680894925" lon="14.155378453818495"><ele>156.0</ele><time>2026-04-12T10:37:54.001Z</time></trkpt><trkpt lat="42.27790637139575" lon="14.155293263679935"><ele>156.0</ele><time>2026-04-12T10:37:55.001Z</time></trkpt><trkpt lat="42.2780430645101" lon="14.155207444066173"><ele>152.5</ele><time>2026-04-12T10:37:56Z</time></trkpt><trkpt lat="42.27816864169206" lon="14.155128833226902"><ele>149.0</ele><time>2026-04-12T10:37:57Z</time></trkpt><trkpt lat="42.27829173481167" lon="14.15505179692337"><ele>145.5</ele><time>2026-04-12T10:37:58Z</time></trkpt><trkpt lat="42.27841255829987" lon="14.154976181111897"><ele>142.0</ele><time>2026-04-12T10:37:59Z</time></trkpt><trkpt lat="42.278542240258176" lon="14.15489502127961"><ele>141.75</ele><time>2026-04-12T10:38:00Z</time></trkpt><trkpt lat="42.2786659149724" lon="14.1548176210243"><ele>141.5</ele><time>2026-04-12T10:38:01Z</time></trkpt><trkpt lat="42.27879156787806" lon="14.154738982751343"><ele>141.25</ele><time>2026-04-12T10:38:02Z</time></trkpt><trkpt lat="42.27891838152992" lon="14.154659617256742"><ele>141.0</ele><time>2026-04-12T10:38:03Z</time></trkpt><trkpt lat="42.279028184539115" lon="14.154590896995622"><ele>141.0</ele><time>2026-04-12T10:38:04Z</time></trkpt><trkpt lat="42.27913695297331" lon="14.154522824229009"><ele>141.0</ele><time>2026-04-12T10:38:05Z</time></trkpt><trkpt lat="42.2792473408271" lon="14.154453690551996"><ele>141.0</ele><time>2026-04-12T10:38:06Z</time></trkpt><trkpt lat="42.27937138215521" lon="14.154375985531793"><ele>141.0</ele><time>2026-04-12T10:38:07Z</time></trkpt><trkpt lat="42.279488484414586" lon="14.154301974185683"><ele>141.0</ele><time>2026-04-12T10:38:08Z</time></trkpt><trkpt lat="42.27961530925173" lon="14.154222173702234"><ele>141.0</ele><time>2026-04-12T10:38:09Z</time></trkpt><trkpt lat="42.27973480510423" lon="14.154147484754224"><ele>141.0</ele><time>2026-04-12T10:38:10Z</time></trkpt><trkpt lat="42.279852523378445" lon="14.154073906843422"><ele>141.0</ele><time>2026-04-12T10:38:11Z</time></trkpt><trkpt lat="42.279984543318406" lon="14.153992467435454"><ele>141.5</ele><time>2026-04-12T10:38:12Z</time></trkpt><trkpt lat="42.28011920103705" lon="14.153910781166445"><ele>142.0</ele><time>2026-04-12T10:38:13Z</time></trkpt><trkpt lat="42.280250129514684" lon="14.153832358683875"><ele>142.5</ele><time>2026-04-12T10:38:14Z</time></trkpt><trkpt lat="42.28039112907743" lon="14.1537500018268"><ele>143.0</ele><time>2026-04-12T10:38:15Z</time></trkpt><trkpt lat="42.280533681388654" lon="14.153673299560724"><ele>140.5</ele><time>2026-04-12T10:38:16Z</time></trkpt><trkpt lat="42.2806776808868" lon="14.15360267553676"><ele>138.0</ele><time>2026-04-12T10:38:17Z</time></trkpt><trkpt lat="42.28082520826012" lon="14.153533150129597"><ele>135.5</ele><time>2026-04-12T10:38:18Z</time></trkpt><trkpt lat="42.28095082684952" lon="14.153475720423888"><ele>133.0</ele><time>2026-04-12T10:38:19Z</time></trkpt><trkpt lat="42.28106498400733" lon="14.153424043055532"><ele>133.0</ele><time>2026-04-12T10:38:20Z</time></trkpt><trkpt lat="42.28117506281927" lon="14.153378307376542"><ele>133.0</ele><time>2026-04-12T10:38:21Z</time></trkpt><trkpt lat="42.28128228431092" lon="14.153335877543585"><ele>133.0</ele><time>2026-04-12T10:38:22Z</time></trkpt><trkpt lat="42.281383582969085" lon="14.153298193262824"><ele>133.0</ele><time>2026-04-12T10:38:23Z</time></trkpt><trkpt lat="42.281480458113045" lon="14.153263778226176"><ele>133.0</ele><time>2026-04-12T10:38:24Z</time></trkpt><trkpt lat="42.28159240741446" lon="14.153227161872888"><ele>129.75</ele><time>2026-04-12T10:38:25Z</time></trkpt><trkpt lat="42.28170275747905" lon="14.15318331302653"><ele>126.5</ele><time>2026-04-12T10:38:26Z</time></trkpt><trkpt lat="42.281824496361395" lon="14.15311750527598"><ele>123.25</ele><time>2026-04-12T10:38:27Z</time></trkpt><trkpt lat="42.28193748594433" lon="14.153069145767114"><ele>120.0</ele><time>2026-04-12T10:38:28Z</time></trkpt><trkpt lat="42.28205020297889" lon="14.15301704796171"><ele>120.0</ele><time>2026-04-12T10:38:29Z</time></trkpt><trkpt lat="42.28217011976512" lon="14.152976201986318"><ele>120.0</ele><time>2026-04-12T10:38:30Z</time></trkpt><trkpt lat="42.28227160478033" lon="14.152954961705449"><ele>120.0</ele><time>2026-04-12T10:38:31Z</time></trkpt><trkpt lat="42.28236318375759" lon="14.152951422696548"><ele>120.0</ele><time>2026-04-12T10:38:32Z</time></trkpt><trkpt lat="42.28244207628148" lon="14.152930271223202"><ele>120.0</ele><time>2026-04-12T10:38:33Z</time></trkpt><trkpt lat="42.282523191292704" lon="14.152907958059076"><ele>119.66666666666666</ele><time>2026-04-12T10:38:34Z</time></trkpt><trkpt lat="42.282485987005856" lon="14.152557210511437"><ele>119.33333333333333</ele><time>2026-04-12T10:38:42Z</time></trkpt><trkpt lat="42.28243716379362" lon="14.152374202921656"><ele>119.0</ele><time>2026-04-12T10:38:43Z</time></trkpt><trkpt lat="42.28238412410401" lon="14.152277003987743"><ele>119.0</ele><time>2026-04-12T10:38:44Z</time></trkpt><trkpt lat="42.28233701038806" lon="14.152195199672176"><ele>119.0</ele><time>2026-04-12T10:38:45Z</time></trkpt><trkpt lat="42.28230167095016" lon="14.152111417747205"><ele>119.0</ele><time>2026-04-12T10:38:46Z</time></trkpt><trkpt lat="42.28237403442854" lon="14.152101978080871"><ele>119.0</ele><time>2026-04-12T10:38:48Z</time></trkpt><trkpt lat="42.282535522981284" lon="14.152115895714907"><ele>119.0</ele><time>2026-04-12T10:38:50Z</time></trkpt><trkpt lat="42.28261092695569" lon="14.152117837763814"><ele>119.0</ele><time>2026-04-12T10:38:51Z</time></trkpt><trkpt lat="42.28268196798817" lon="14.15211805378891"><ele>119.0</ele><time>2026-04-12T10:38:52Z</time></trkpt><trkpt lat="42.2827903561501" lon="14.152120144531995"><ele>119.0</ele><time>2026-04-12T10:38:53Z</time></trkpt><trkpt lat="42.282905694543814" lon="14.15211273674219"><ele>119.0</ele><time>2026-04-12T10:38:54Z</time></trkpt><trkpt lat="42.2830005662637" lon="14.152050900527277"><ele>119.0</ele><time>2026-04-12T10:38:55Z</time></trkpt><trkpt lat="42.283060572266464" lon="14.151927793640164"><ele>119.0</ele><time>2026-04-12T10:38:56Z</time></trkpt><trkpt lat="42.28308503216391" lon="14.151790139345355"><ele>119.0</ele><time>2026-04-12T10:38:57Z</time></trkpt><trkpt lat="42.283093009940046" lon="14.151646201414628"><ele>119.0</ele><time>2026-04-12T10:38:58Z</time></trkpt><trkpt lat="42.283109344445975" lon="14.151493616616449"><ele>119.0</ele><time>2026-04-12T10:38:59Z</time></trkpt><trkpt lat="42.28313143859203" lon="14.151333258883765"><ele>119.0</ele><time>2026-04-12T10:39:00Z</time></trkpt><trkpt lat="42.28316644753789" lon="14.15119899416425"><ele>119.66666666666666</ele><time>2026-04-12T10:39:01Z</time></trkpt><trkpt lat="42.283196799132114" lon="14.151109782401575"><ele>120.33333333333333</ele><time>2026-04-12T10:39:02Z</time></trkpt><trkpt lat="42.283161976024495" lon="14.151034641442157"><ele>121.0</ele><time>2026-04-12T10:39:05Z</time></trkpt><trkpt lat="42.28309849222445" lon="14.15096644567971"><ele>121.66666666666666</ele><time>2026-04-12T10:39:06Z</time></trkpt><trkpt lat="42.28300202556098" lon="14.15091013389452"><ele>122.33333333333333</ele><time>2026-04-12T10:39:07Z</time></trkpt><trkpt lat="42.282887387463305" lon="14.150854018430696"><ele>123.0</ele><time>2026-04-12T10:39:08Z</time></trkpt><trkpt lat="42.28278398254338" lon="14.15078030866199"><ele>125.25</ele><time>2026-04-12T10:39:09Z</time></trkpt><trkpt lat="42.28267741564336" lon="14.150672113901555"><ele>127.5</ele><time>2026-04-12T10:39:10Z</time></trkpt><trkpt lat="42.28258497312863" lon="14.150519120980345"><ele>129.75</ele><time>2026-04-12T10:39:11Z</time></trkpt><trkpt lat="42.28248159087295" lon="14.150376389656596"><ele>132.0</ele><time>2026-04-12T10:39:12Z</time></trkpt><trkpt lat="42.28238968406437" lon="14.150198106689524"><ele>132.0</ele><time>2026-04-12T10:39:13Z</time></trkpt><trkpt lat="42.28229519029228" lon="14.150011215454498"><ele>132.0</ele><time>2026-04-12T10:39:14Z</time></trkpt><trkpt lat="42.28219672578789" lon="14.149813844608362"><ele>132.0</ele><time>2026-04-12T10:39:15Z</time></trkpt><trkpt lat="42.282092389519576" lon="14.149613918082878"><ele>130.66666666666666</ele><time>2026-04-12T10:39:16Z</time></trkpt><trkpt lat="42.28198793161569" lon="14.149405835868725"><ele>129.33333333333331</ele><time>2026-04-12T10:39:17Z</time></trkpt><trkpt lat="42.28188577170343" lon="14.149203889104612"><ele>128.0</ele><time>2026-04-12T10:39:18Z</time></trkpt><trkpt lat="42.28177807704156" lon="14.148994132654185"><ele>128.0</ele><time>2026-04-12T10:39:19Z</time></trkpt><trkpt lat="42.281665794969754" lon="14.14877725984697"><ele>128.0</ele><time>2026-04-12T10:39:20Z</time></trkpt><trkpt lat="42.28155451839211" lon="14.148556844727178"><ele>128.0</ele><time>2026-04-12T10:39:21Z</time></trkpt><trkpt lat="42.281450561639694" lon="14.148340186442741"><ele>126.0</ele><time>2026-04-12T10:39:22Z</time></trkpt><trkpt lat="42.28136501852215" lon="14.148138975451115"><ele>124.0</ele><time>2026-04-12T10:39:23Z</time></trkpt><trkpt lat="42.28128505416301" lon="14.147950645170036"><ele>122.0</ele><time>2026-04-12T10:39:24Z</time></trkpt><trkpt lat="42.28122084804736" lon="14.147793198519052"><ele>121.99999999999999</ele><time>2026-04-12T10:39:25Z</time></trkpt><trkpt lat="42.281186373915695" lon="14.147695773942708"><ele>122.0</ele><time>2026-04-12T10:39:26Z</time></trkpt><trkpt lat="42.28117700094779" lon="14.14760569305463"><ele>122.0</ele><time>2026-04-12T10:39:28Z</time></trkpt><trkpt lat="42.28125579385431" lon="14.147556320829372"><ele>122.0</ele><time>2026-04-12T10:39:30Z</time></trkpt><trkpt lat="42.28133741191601" lon="14.147488363464989"><ele>121.99999999999999</ele><time>2026-04-12T10:39:31Z</time></trkpt><trkpt lat="42.2814021013979" lon="14.147428564448854"><ele>122.0</ele><time>2026-04-12T10:39:32Z</time></trkpt><trkpt lat="42.28149013854127" lon="14.147313634871754"><ele>123.49999999999999</ele><time>2026-04-12T10:39:34.001Z</time></trkpt><trkpt lat="42.281524148558894" lon="14.147230843613789"><ele>125.0</ele><time>2026-04-12T10:39:35.001Z</time></trkpt><trkpt lat="42.281552192412" lon="14.147138520064184"><ele>126.5</ele><time>2026-04-12T10:39:36.001Z</time></trkpt><trkpt lat="42.28158777152122" lon="14.14704840658744"><ele>128.0</ele><time>2026-04-12T10:39:37.001Z</time></trkpt><trkpt lat="42.28161209552097" lon="14.146933240294949"><ele>129.5</ele><time>2026-04-12T10:39:38.001Z</time></trkpt><trkpt lat="42.28159761865223" lon="14.146818517696238"><ele>131.0</ele><time>2026-04-12T10:39:39.001Z</time></trkpt><trkpt lat="42.281573191727716" lon="14.146725836802487"><ele>131.0</ele><time>2026-04-12T10:39:40.001Z</time></trkpt><trkpt lat="42.28156288473756" lon="14.14663184230589"><ele>131.0</ele><time>2026-04-12T10:39:41.001Z</time></trkpt><trkpt lat="42.28154473417231" lon="14.146492904969227"><ele>131.0</ele><time>2026-04-12T10:39:42.001Z</time></trkpt><trkpt lat="42.281515792087475" lon="14.146368284020118"><ele>131.0</ele><time>2026-04-12T10:39:43.001Z</time></trkpt><trkpt lat="42.28148325540627" lon="14.146238772103537"><ele>131.0</ele><time>2026-04-12T10:39:44.001Z</time></trkpt><trkpt lat="42.28145637959898" lon="14.146101237329976"><ele>131.16666666666666</ele><time>2026-04-12T10:39:45.001Z</time></trkpt><trkpt lat="42.281427003236885" lon="14.145972997060364"><ele>131.33333333333331</ele><time>2026-04-12T10:39:46.001Z</time></trkpt><trkpt lat="42.28139609919648" lon="14.14587073077355"><ele>131.5</ele><time>2026-04-12T10:39:47.001Z</time></trkpt><trkpt lat="42.281369983091224" lon="14.145768428489914"><ele>131.66666666666666</ele><time>2026-04-12T10:39:48.001Z</time></trkpt><trkpt lat="42.28134898659499" lon="14.145668940191195"><ele>131.83333333333334</ele><time>2026-04-12T10:39:49.001Z</time></trkpt><trkpt lat="42.281304540502234" lon="14.145558442031298"><ele>132.0</ele><time>2026-04-12T10:39:50.001Z</time></trkpt><trkpt lat="42.28125070994144" lon="14.145434079294867"><ele>133.66666666666666</ele><time>2026-04-12T10:39:51.001Z</time></trkpt><trkpt lat="42.281217901782" lon="14.145311146517415"><ele>135.33333333333334</ele><time>2026-04-12T10:39:52.001Z</time></trkpt><trkpt lat="42.28120401091337" lon="14.145216686262904"><ele>137.0</ele><time>2026-04-12T10:39:53.001Z</time></trkpt><trkpt lat="42.28120681086991" lon="14.14506505486401"><ele>138.66666666666669</ele><time>2026-04-12T10:39:55.001Z</time></trkpt><trkpt lat="42.28121955314489" lon="14.144974470718905"><ele>140.33333333333334</ele><time>2026-04-12T10:39:56.001Z</time></trkpt><trkpt lat="42.28121961462374" lon="14.14487415136331"><ele>142.0</ele><time>2026-04-12T10:39:57.001Z</time></trkpt><trkpt lat="42.28121228057066" lon="14.144771138752803"><ele>143.6</ele><time>2026-04-12T10:39:58.001Z</time></trkpt><trkpt lat="42.2812192887874" lon="14.14464632731943"><ele>145.2</ele><time>2026-04-12T10:39:59.001Z</time></trkpt><trkpt lat="42.28123113036135" lon="14.144504732412464"><ele>146.8</ele><time>2026-04-12T10:40:00.001Z</time></trkpt><trkpt lat="42.28124799807324" lon="14.144362393242506"><ele>148.4</ele><time>2026-04-12T10:40:01.001Z</time></trkpt><trkpt lat="42.281260076754464" lon="14.144232885069174"><ele>150.0</ele><time>2026-04-12T10:40:02.001Z</time></trkpt><trkpt lat="42.28126362477873" lon="14.144119324769019"><ele>151.83333333333334</ele><time>2026-04-12T10:40:03.001Z</time></trkpt><trkpt lat="42.2812716431952" lon="14.144034358781296"><ele>153.66666666666666</ele><time>2026-04-12T10:40:04.001Z</time></trkpt><trkpt lat="42.28128569628298" lon="14.14386473188302"><ele>155.5</ele><time>2026-04-12T10:40:06.001Z</time></trkpt><trkpt lat="42.28129936759751" lon="14.143771022230824"><ele>157.33333333333331</ele><time>2026-04-12T10:40:07.001Z</time></trkpt><trkpt lat="42.281314912650465" lon="14.143667087303667"><ele>159.16666666666666</ele><time>2026-04-12T10:40:08.001Z</time></trkpt><trkpt lat="42.28133595185576" lon="14.143562655893215"><ele>161.0</ele><time>2026-04-12T10:40:09.001Z</time></trkpt><trkpt lat="42.281344864731885" lon="14.143461221813807"><ele>161.0</ele><time>2026-04-12T10:40:10Z</time></trkpt><trkpt lat="42.28132814868035" lon="14.143362262202551"><ele>161.0</ele><time>2026-04-12T10:40:11Z</time></trkpt><trkpt lat="42.2812964134151" lon="14.1432736300338"><ele>161.0</ele><time>2026-04-12T10:40:12Z</time></trkpt><trkpt lat="42.28127242206078" lon="14.143177327128006"><ele>161.0</ele><time>2026-04-12T10:40:13Z</time></trkpt><trkpt lat="42.28125264851986" lon="14.143080163950636"><ele>161.0</ele><time>2026-04-12T10:40:14Z</time></trkpt><trkpt lat="42.2812322177213" lon="14.142985349177552"><ele>161.0</ele><time>2026-04-12T10:40:15Z</time></trkpt><trkpt lat="42.28121943898249" lon="14.142893698191523"><ele>161.0</ele><time>2026-04-12T10:40:16Z</time></trkpt><trkpt lat="42.28126600903657" lon="14.142808545952702"><ele>162.5</ele><time>2026-04-12T10:40:17Z</time></trkpt><trkpt lat="42.28133450078718" lon="14.142741263081662"><ele>164.0</ele><time>2026-04-12T10:40:18Z</time></trkpt><trkpt lat="42.281391062819374" lon="14.142674508466817"><ele>165.5</ele><time>2026-04-12T10:40:19Z</time></trkpt><trkpt lat="42.28142368770379" lon="14.14259944969886"><ele>167.0</ele><time>2026-04-12T10:40:20Z</time></trkpt><trkpt lat="42.28149933914264" lon="14.14251990606469"><ele>168.5</ele><time>2026-04-12T10:40:21Z</time></trkpt><trkpt lat="42.28157671264989" lon="14.142453085855292"><ele>170.0</ele><time>2026-04-12T10:40:22Z</time></trkpt><trkpt lat="42.28158261967302" lon="14.142368179753213"><ele>173.2</ele><time>2026-04-12T10:40:23Z</time></trkpt><trkpt lat="42.28153286675667" lon="14.142310200480615"><ele>176.4</ele><time>2026-04-12T10:40:24Z</time></trkpt><trkpt lat="42.281415936893566" lon="14.142354325131127"><ele>179.60000000000002</ele><time>2026-04-12T10:40:26Z</time></trkpt><trkpt lat="42.28134466549395" lon="14.142334991132836"><ele>182.8</ele><time>2026-04-12T10:40:27Z</time></trkpt><trkpt lat="42.28121864702511" lon="14.142275005558652"><ele>186.0</ele><time>2026-04-12T10:40:29Z</time></trkpt><trkpt lat="42.281135136724636" lon="14.142236309577639"><ele>187.0</ele><time>2026-04-12T10:40:30Z</time></trkpt><trkpt lat="42.28106444124342" lon="14.14216793003874"><ele>188.0</ele><time>2026-04-12T10:40:31Z</time></trkpt><trkpt lat="42.28099547801804" lon="14.142093330607707"><ele>189.0</ele><time>2026-04-12T10:40:32Z</time></trkpt><trkpt lat="42.280944202523806" lon="14.14200554088287"><ele>190.0</ele><time>2026-04-12T10:40:33Z</time></trkpt><trkpt lat="42.280939573014535" lon="14.141917592934012"><ele>191.0</ele><time>2026-04-12T10:40:34Z</time></trkpt><trkpt lat="42.28092486179132" lon="14.141799550961988"><ele>192.0</ele><time>2026-04-12T10:40:35Z</time></trkpt><trkpt lat="42.28089429778815" lon="14.141701761753499"><ele>192.0</ele><time>2026-04-12T10:40:36Z</time></trkpt><trkpt lat="42.280875068030745" lon="14.141569213056814"><ele>192.0</ele><time>2026-04-12T10:40:37Z</time></trkpt><trkpt lat="42.28085047121177" lon="14.141431540075711"><ele>192.0</ele><time>2026-04-12T10:40:38Z</time></trkpt><trkpt lat="42.28082258202546" lon="14.141305143046253"><ele>192.0</ele><time>2026-04-12T10:40:39Z</time></trkpt><trkpt lat="42.28079764055197" lon="14.141181358935313"><ele>192.0</ele><time>2026-04-12T10:40:40Z</time></trkpt><trkpt lat="42.28077141170755" lon="14.141053210314315"><ele>192.0</ele><time>2026-04-12T10:40:41Z</time></trkpt><trkpt lat="42.280740187275605" lon="14.140937596556801"><ele>192.0</ele><time>2026-04-12T10:40:42Z</time></trkpt><trkpt lat="42.28082673490415" lon="14.140849206224262"><ele>192.0</ele><time>2026-04-12T10:40:44Z</time></trkpt><trkpt lat="42.280909367678966" lon="14.140823061205635"><ele>192.0</ele><time>2026-04-12T10:40:45Z</time></trkpt><trkpt lat="42.2810430516963" lon="14.140754421871266"><ele>192.0</ele><time>2026-04-12T10:40:46Z</time></trkpt><trkpt lat="42.2811499663361" lon="14.140658853213186"><ele>189.0</ele><time>2026-04-12T10:40:47Z</time></trkpt><trkpt lat="42.281254291706446" lon="14.140614802439313"><ele>186.0</ele><time>2026-04-12T10:40:48Z</time></trkpt><trkpt lat="42.281359607140004" lon="14.140580852395741"><ele>183.0</ele><time>2026-04-12T10:40:49Z</time></trkpt><trkpt lat="42.281465723362395" lon="14.140551814693879"><ele>180.0</ele><time>2026-04-12T10:40:50Z</time></trkpt><trkpt lat="42.28155227849735" lon="14.140507303678781"><ele>177.0</ele><time>2026-04-12T10:40:51Z</time></trkpt><trkpt lat="42.28164530621912" lon="14.140436326000605"><ele>183.39999999999998</ele><time>2026-04-12T10:40:52Z</time></trkpt><trkpt lat="42.28170796894663" lon="14.140338608502072"><ele>189.79999999999998</ele><time>2026-04-12T10:40:53Z</time></trkpt><trkpt lat="42.28178371359221" lon="14.140221388134005"><ele>196.2</ele><time>2026-04-12T10:40:54Z</time></trkpt><trkpt lat="42.281864518000525" lon="14.14011062375066"><ele>202.6</ele><time>2026-04-12T10:40:55Z</time></trkpt><trkpt lat="42.281916166640784" lon="14.140002934086002"><ele>209.0</ele><time>2026-04-12T10:40:56Z</time></trkpt><trkpt lat="42.28198555943141" lon="14.139931501200882"><ele>209.79999999999998</ele><time>2026-04-12T10:40:57Z</time></trkpt><trkpt lat="42.28205194585808" lon="14.139855524268826"><ele>210.6</ele><time>2026-04-12T10:40:58Z</time></trkpt><trkpt lat="42.28214451015942" lon="14.139745396558164"><ele>211.4</ele><time>2026-04-12T10:40:59Z</time></trkpt><trkpt lat="42.28224197056698" lon="14.13964419843301"><ele>212.2</ele><time>2026-04-12T10:41:00Z</time></trkpt><trkpt lat="42.282326144825724" lon="14.139555963295933"><ele>213.0</ele><time>2026-04-12T10:41:01Z</time></trkpt><trkpt lat="42.28241398868583" lon="14.139467384734532"><ele>213.0</ele><time>2026-04-12T10:41:02Z</time></trkpt><trkpt lat="42.28249835525573" lon="14.13936824693192"><ele>213.0</ele><time>2026-04-12T10:41:03Z</time></trkpt><trkpt lat="42.28258127838006" lon="14.139251750118449"><ele>213.0</ele><time>2026-04-12T10:41:04Z</time></trkpt><trkpt lat="42.28268062600409" lon="14.139125078120564"><ele>213.0</ele><time>2026-04-12T10:41:05Z</time></trkpt><trkpt lat="42.28277372836953" lon="14.1389828105244"><ele>214.0</ele><time>2026-04-12T10:41:06Z</time></trkpt><trkpt lat="42.28286627138788" lon="14.138849512215057"><ele>215.0</ele><time>2026-04-12T10:41:07Z</time></trkpt><trkpt lat="42.28295512531062" lon="14.138709424120606"><ele>216.0</ele><time>2026-04-12T10:41:08Z</time></trkpt><trkpt lat="42.2830446714011" lon="14.138584825368117"><ele>217.0</ele><time>2026-04-12T10:41:09Z</time></trkpt><trkpt lat="42.28311774913349" lon="14.13848419611684"><ele>217.0</ele><time>2026-04-12T10:41:10Z</time></trkpt><trkpt lat="42.28318901044367" lon="14.138428794456203"><ele>217.0</ele><time>2026-04-12T10:41:12Z</time></trkpt><trkpt lat="42.28329413855026" lon="14.138346831049834"><ele>217.0</ele><time>2026-04-12T10:41:14Z</time></trkpt><trkpt lat="42.28331068884356" lon="14.138229461630052"><ele>217.0</ele><time>2026-04-12T10:41:16Z</time></trkpt><trkpt lat="42.28319406555565" lon="14.138193553109245"><ele>217.0</ele><time>2026-04-12T10:41:18Z</time></trkpt><trkpt lat="42.283358328558954" lon="14.138018250276602"><ele>220.75</ele><time>2026-04-12T10:41:20Z</time></trkpt><trkpt lat="42.2832393909571" lon="14.138058792418411"><ele>224.5</ele><time>2026-04-12T10:41:21Z</time></trkpt><trkpt lat="42.28307373526571" lon="14.13806408989828"><ele>228.25</ele><time>2026-04-12T10:41:23Z</time></trkpt><trkpt lat="42.282978582369935" lon="14.138016053094393"><ele>232.0</ele><time>2026-04-12T10:41:24Z</time></trkpt><trkpt lat="42.28287914939757" lon="14.138034612391507"><ele>226.83333333333331</ele><time>2026-04-12T10:41:25Z</time></trkpt><trkpt lat="42.282815145248435" lon="14.138013350791688"><ele>221.66666666666666</ele><time>2026-04-12T10:41:26Z</time></trkpt><trkpt lat="42.28271478804947" lon="14.137983821495096"><ele>216.5</ele><time>2026-04-12T10:41:28Z</time></trkpt><trkpt lat="42.28271015179949" lon="14.137893225006021"><ele>211.33333333333331</ele><time>2026-04-12T10:41:31Z</time></trkpt><trkpt lat="42.28278756257012" lon="14.137856769987383"><ele>206.16666666666666</ele><time>2026-04-12T10:41:32Z</time></trkpt><trkpt lat="42.28287315959408" lon="14.13772225174309"><ele>201.0</ele><time>2026-04-12T10:41:34Z</time></trkpt><trkpt lat="42.282918228223835" lon="14.137648740570736"><ele>201.0</ele><time>2026-04-12T10:41:35Z</time></trkpt><trkpt lat="42.282953622195244" lon="14.13750109092135"><ele>201.0</ele><time>2026-04-12T10:41:37Z</time></trkpt><trkpt lat="42.28278459743656" lon="14.137138535995593"><ele>201.0</ele><time>2026-04-12T10:41:39.001Z</time></trkpt><trkpt lat="42.28276980786458" lon="14.137000345940713"><ele>202.20000000000002</ele><time>2026-04-12T10:41:40.001Z</time></trkpt><trkpt lat="42.28278468734569" lon="14.136878592897194"><ele>203.4</ele><time>2026-04-12T10:41:41.001Z</time></trkpt><trkpt lat="42.28278958363005" lon="14.13673846990923"><ele>204.6</ele><time>2026-04-12T10:41:42.001Z</time></trkpt><trkpt lat="42.28278233546524" lon="14.136623208710928"><ele>205.8</ele><time>2026-04-12T10:41:43.001Z</time></trkpt><trkpt lat="42.282751949324584" lon="14.136515073913856"><ele>207.0</ele><time>2026-04-12T10:41:44.001Z</time></trkpt><trkpt lat="42.28270473436202" lon="14.136384836691871"><ele>208.39999999999998</ele><time>2026-04-12T10:41:45.001Z</time></trkpt><trkpt lat="42.282672689819954" lon="14.13626428285138"><ele>209.79999999999998</ele><time>2026-04-12T10:41:46.001Z</time></trkpt><trkpt lat="42.282621152029954" lon="14.136180968803492"><ele>211.2</ele><time>2026-04-12T10:41:47.001Z</time></trkpt><trkpt lat="42.28252777861443" lon="14.136062357806743"><ele>212.6</ele><time>2026-04-12T10:41:48.001Z</time></trkpt><trkpt lat="42.282440722817235" lon="14.135946750270147"><ele>214.0</ele><time>2026-04-12T10:41:49.001Z</time></trkpt><trkpt lat="42.28237466604004" lon="14.135809790234271"><ele>215.79999999999998</ele><time>2026-04-12T10:41:50.001Z</time></trkpt><trkpt lat="42.282329192993195" lon="14.135683863944276"><ele>217.59999999999997</ele><time>2026-04-12T10:41:51.001Z</time></trkpt><trkpt lat="42.282297051427705" lon="14.135562569648231"><ele>219.4</ele><time>2026-04-12T10:41:52.001Z</time></trkpt><trkpt lat="42.2822746365837" lon="14.135443189662368"><ele>221.2</ele><time>2026-04-12T10:41:53.001Z</time></trkpt><trkpt lat="42.28228151245867" lon="14.13530487313738"><ele>223.0</ele><time>2026-04-12T10:41:54.001Z</time></trkpt><trkpt lat="42.28226713425861" lon="14.13515461337053"><ele>221.4</ele><time>2026-04-12T10:41:55.001Z</time></trkpt><trkpt lat="42.28225158453676" lon="14.135015207021869"><ele>219.8</ele><time>2026-04-12T10:41:56.001Z</time></trkpt><trkpt lat="42.282227528625405" lon="14.134871163080188"><ele>218.2</ele><time>2026-04-12T10:41:57.001Z</time></trkpt><trkpt lat="42.28220791402587" lon="14.134745655801497"><ele>216.6</ele><time>2026-04-12T10:41:58.001Z</time></trkpt><trkpt lat="42.28218260749441" lon="14.134619327165629"><ele>215.0</ele><time>2026-04-12T10:41:59.001Z</time></trkpt><trkpt lat="42.28217087467174" lon="14.134498027708242"><ele>215.00000000000003</ele><time>2026-04-12T10:42:00.001Z</time></trkpt><trkpt lat="42.28213707194027" lon="14.134375513638364"><ele>215.0</ele><time>2026-04-12T10:42:01.001Z</time></trkpt><trkpt lat="42.28212004018997" lon="14.134276220977723"><ele>215.0</ele><time>2026-04-12T10:42:02.001Z</time></trkpt><trkpt lat="42.2821011872583" lon="14.134181733357227"><ele>215.0</ele><time>2026-04-12T10:42:03.001Z</time></trkpt><trkpt lat="42.28208200995639" lon="14.134084703624568"><ele>215.00000000000003</ele><time>2026-04-12T10:42:04.001Z</time></trkpt><trkpt lat="42.2820746769403" lon="14.133983791415945"><ele>215.0</ele><time>2026-04-12T10:42:05.001Z</time></trkpt><trkpt lat="42.28205795126879" lon="14.133879902271273"><ele>215.83333333333334</ele><time>2026-04-12T10:42:06.001Z</time></trkpt><trkpt lat="42.28203981516406" lon="14.133770841393735"><ele>216.66666666666669</ele><time>2026-04-12T10:42:07.001Z</time></trkpt><trkpt lat="42.28202844983842" lon="14.13366485515852"><ele>217.5</ele><time>2026-04-12T10:42:08.001Z</time></trkpt><trkpt lat="42.28201709097567" lon="14.133558397973813"><ele>218.33333333333331</ele><time>2026-04-12T10:42:09.001Z</time></trkpt><trkpt lat="42.2820040333378" lon="14.133449944722653"><ele>219.16666666666666</ele><time>2026-04-12T10:42:10.001Z</time></trkpt><trkpt lat="42.28199928851591" lon="14.13334516126281"><ele>220.0</ele><time>2026-04-12T10:42:11.001Z</time></trkpt><trkpt lat="42.281961103324676" lon="14.133211236993784"><ele>221.16666666666666</ele><time>2026-04-12T10:42:13Z</time></trkpt><trkpt lat="42.281839541333056" lon="14.133157433980625"><ele>222.33333333333331</ele><time>2026-04-12T10:42:15Z</time></trkpt><trkpt lat="42.281768947709075" lon="14.133123887555781"><ele>223.5</ele><time>2026-04-12T10:42:16Z</time></trkpt><trkpt lat="42.281702973614145" lon="14.133071426097102"><ele>224.66666666666669</ele><time>2026-04-12T10:42:17Z</time></trkpt><trkpt lat="42.28163891222571" lon="14.133010729671474"><ele>225.83333333333334</ele><time>2026-04-12T10:42:18Z</time></trkpt><trkpt lat="42.28157280754344" lon="14.132967138852633"><ele>227.0</ele><time>2026-04-12T10:42:19Z</time></trkpt><trkpt lat="42.28150448299319" lon="14.132957070194262"><ele>226.39999999999998</ele><time>2026-04-12T10:42:20Z</time></trkpt><trkpt lat="42.28141869897371" lon="14.1329767367735"><ele>225.79999999999998</ele><time>2026-04-12T10:42:21Z</time></trkpt><trkpt lat="42.281325739026855" lon="14.133010479578589"><ele>225.2</ele><time>2026-04-12T10:42:22Z</time></trkpt><trkpt lat="42.281218280251544" lon="14.133038841277106"><ele>224.6</ele><time>2026-04-12T10:42:23Z</time></trkpt><trkpt lat="42.28112147106796" lon="14.133076898488602"><ele>224.0</ele><time>2026-04-12T10:42:24Z</time></trkpt><trkpt lat="42.28103154844393" lon="14.133130172481955"><ele>224.0</ele><time>2026-04-12T10:42:25Z</time></trkpt><trkpt lat="42.28094929353339" lon="14.133145161949198"><ele>223.99999999999997</ele><time>2026-04-12T10:42:26Z</time></trkpt><trkpt lat="42.280875588047195" lon="14.133104469030469"><ele>223.99999999999997</ele><time>2026-04-12T10:42:27Z</time></trkpt><trkpt lat="42.280801071639665" lon="14.132994893797296"><ele>224.0</ele><time>2026-04-12T10:42:28Z</time></trkpt><trkpt lat="42.28071357638835" lon="14.13288114160211"><ele>224.0</ele><time>2026-04-12T10:42:29Z</time></trkpt><trkpt lat="42.28063150131156" lon="14.132784778453368"><ele>222.25</ele><time>2026-04-12T10:42:30Z</time></trkpt><trkpt lat="42.28052805290449" lon="14.132726333062017"><ele>220.5</ele><time>2026-04-12T10:42:31Z</time></trkpt><trkpt lat="42.28040811248645" lon="14.132667244360116"><ele>218.75</ele><time>2026-04-12T10:42:32Z</time></trkpt><trkpt lat="42.280301775409754" lon="14.132602564761305"><ele>217.0</ele><time>2026-04-12T10:42:33Z</time></trkpt><trkpt lat="42.28019081942038" lon="14.132548868885962"><ele>217.0</ele><time>2026-04-12T10:42:34Z</time></trkpt><trkpt lat="42.28008112286812" lon="14.13246551321687"><ele>217.0</ele><time>2026-04-12T10:42:35Z</time></trkpt><trkpt lat="42.279971636783415" lon="14.132418884448793"><ele>217.0</ele><time>2026-04-12T10:42:36Z</time></trkpt><trkpt lat="42.279904491099686" lon="14.132363290453554"><ele>217.0</ele><time>2026-04-12T10:42:37Z</time></trkpt><trkpt lat="42.279843002904" lon="14.132255187494803"><ele>217.0</ele><time>2026-04-12T10:42:39Z</time></trkpt><trkpt lat="42.27986807217065" lon="14.132132619292134"><ele>218.2</ele><time>2026-04-12T10:42:40Z</time></trkpt><trkpt lat="42.27983798471753" lon="14.132029131408506"><ele>219.39999999999998</ele><time>2026-04-12T10:42:41Z</time></trkpt><trkpt lat="42.27980690576991" lon="14.131900530438417"><ele>220.60000000000002</ele><time>2026-04-12T10:42:42Z</time></trkpt><trkpt lat="42.27975739677654" lon="14.131755952804797"><ele>221.8</ele><time>2026-04-12T10:42:43Z</time></trkpt><trkpt lat="42.27970952678875" lon="14.131604853424381"><ele>223.0</ele><time>2026-04-12T10:42:44Z</time></trkpt><trkpt lat="42.279696248011746" lon="14.131496230834163"><ele>227.2</ele><time>2026-04-12T10:42:45Z</time></trkpt><trkpt lat="42.27982830057669" lon="14.131481698830905"><ele>231.4</ele><time>2026-04-12T10:42:49Z</time></trkpt><trkpt lat="42.27991306761383" lon="14.131495619484241"><ele>235.59999999999997</ele><time>2026-04-12T10:42:50Z</time></trkpt><trkpt lat="42.280005364531526" lon="14.13149398544938"><ele>239.79999999999998</ele><time>2026-04-12T10:42:51Z</time></trkpt><trkpt lat="42.280115956945345" lon="14.131498420457726"><ele>244.0</ele><time>2026-04-12T10:42:52Z</time></trkpt><trkpt lat="42.28023518536274" lon="14.131500268878908"><ele>244.0</ele><time>2026-04-12T10:42:53Z</time></trkpt><trkpt lat="42.280370068323066" lon="14.131506217566129"><ele>244.0</ele><time>2026-04-12T10:42:54Z</time></trkpt><trkpt lat="42.280490988574456" lon="14.131477593596205"><ele>244.0</ele><time>2026-04-12T10:42:55Z</time></trkpt><trkpt lat="42.28061834053237" lon="14.131437655486053"><ele>244.0</ele><time>2026-04-12T10:42:56Z</time></trkpt><trkpt lat="42.28073452498459" lon="14.131372387805937"><ele>243.5</ele><time>2026-04-12T10:42:57Z</time></trkpt><trkpt lat="42.280826229292586" lon="14.131247765863137"><ele>243.0</ele><time>2026-04-12T10:42:58Z</time></trkpt><trkpt lat="42.2808814273826" lon="14.13107470086296"><ele>242.5</ele><time>2026-04-12T10:42:59Z</time></trkpt><trkpt lat="42.280939248790695" lon="14.130888225122307"><ele>242.0</ele><time>2026-04-12T10:43:00Z</time></trkpt><trkpt lat="42.28097192414871" lon="14.130684584078942"><ele>243.5</ele><time>2026-04-12T10:43:01Z</time></trkpt><trkpt lat="42.281009098187205" lon="14.13048478194287"><ele>245.0</ele><time>2026-04-12T10:43:02Z</time></trkpt><trkpt lat="42.28103986631461" lon="14.130290224319698"><ele>246.5</ele><time>2026-04-12T10:43:03Z</time></trkpt><trkpt lat="42.281058154462094" lon="14.130119164418332"><ele>248.0</ele><time>2026-04-12T10:43:04Z</time></trkpt><trkpt lat="42.281056221431584" lon="14.129978077728849"><ele>248.0</ele><time>2026-04-12T10:43:05Z</time></trkpt><trkpt lat="42.280971638817554" lon="14.129884500392906"><ele>248.0</ele><time>2026-04-12T10:43:06Z</time></trkpt><trkpt lat="42.28087772044848" lon="14.129831790329076"><ele>248.0</ele><time>2026-04-12T10:43:07Z</time></trkpt><trkpt lat="42.280771338275066" lon="14.129839994393317"><ele>248.0</ele><time>2026-04-12T10:43:08Z</time></trkpt><trkpt lat="42.28067934031763" lon="14.129945166124763"><ele>248.0</ele><time>2026-04-12T10:43:09Z</time></trkpt><trkpt lat="42.28058461767846" lon="14.13004537398541"><ele>249.5</ele><time>2026-04-12T10:43:10Z</time></trkpt><trkpt lat="42.280498014504374" lon="14.130170481380611"><ele>251.0</ele><time>2026-04-12T10:43:11Z</time></trkpt><trkpt lat="42.28039738762621" lon="14.130313833896697"><ele>252.5</ele><time>2026-04-12T10:43:12Z</time></trkpt><trkpt lat="42.28028456536111" lon="14.13043374736631"><ele>254.0</ele><time>2026-04-12T10:43:13Z</time></trkpt><trkpt lat="42.28017114408044" lon="14.1305007475829"><ele>254.0</ele><time>2026-04-12T10:43:14Z</time></trkpt><trkpt lat="42.28006465292627" lon="14.130481404343024"><ele>254.0</ele><time>2026-04-12T10:43:15Z</time></trkpt><trkpt lat="42.27996675811258" lon="14.130427678952168"><ele>254.0</ele><time>2026-04-12T10:43:16Z</time></trkpt><trkpt lat="42.27984356144902" lon="14.13035839721884"><ele>254.0</ele><time>2026-04-12T10:43:17Z</time></trkpt><trkpt lat="42.279708385032166" lon="14.130296049407281"><ele>253.5</ele><time>2026-04-12T10:43:18Z</time></trkpt><trkpt lat="42.27957490812799" lon="14.130214346658246"><ele>253.0</ele><time>2026-04-12T10:43:19Z</time></trkpt><trkpt lat="42.27944456317095" lon="14.13012938326576"><ele>252.5</ele><time>2026-04-12T10:43:20Z</time></trkpt><trkpt lat="42.2793587132942" lon="14.130024951416718"><ele>252.0</ele><time>2026-04-12T10:43:21Z</time></trkpt><trkpt lat="42.279296586824884" lon="14.129925493567077"><ele>254.6</ele><time>2026-04-12T10:43:22Z</time></trkpt><trkpt lat="42.27926480949422" lon="14.129805796824439"><ele>257.2</ele><time>2026-04-12T10:43:23Z</time></trkpt><trkpt lat="42.279309191525165" lon="14.129681351977482"><ele>259.8</ele><time>2026-04-12T10:43:24Z</time></trkpt><trkpt lat="42.27938441532121" lon="14.129605381480422"><ele>262.4</ele><time>2026-04-12T10:43:25Z</time></trkpt><trkpt lat="42.27947403281526" lon="14.129579876310759"><ele>265.0</ele><time>2026-04-12T10:43:26Z</time></trkpt><trkpt lat="42.27957567278001" lon="14.129593484067849"><ele>265.0</ele><time>2026-04-12T10:43:27Z</time></trkpt><trkpt lat="42.27968834524603" lon="14.129578515398544"><ele>265.0</ele><time>2026-04-12T10:43:28Z</time></trkpt><trkpt lat="42.27980341823929" lon="14.129547333927377"><ele>265.0</ele><time>2026-04-12T10:43:29Z</time></trkpt><trkpt lat="42.279895523289035" lon="14.129439372151404"><ele>265.0</ele><time>2026-04-12T10:43:30Z</time></trkpt><trkpt lat="42.279965536766305" lon="14.12926570770076"><ele>263.75</ele><time>2026-04-12T10:43:31Z</time></trkpt><trkpt lat="42.28002344904857" lon="14.12909227352221"><ele>262.5</ele><time>2026-04-12T10:43:32Z</time></trkpt><trkpt lat="42.280079247774935" lon="14.128915364823106"><ele>261.25</ele><time>2026-04-12T10:43:33Z</time></trkpt><trkpt lat="42.280162584933315" lon="14.12874262528126"><ele>260.0</ele><time>2026-04-12T10:43:34Z</time></trkpt><trkpt lat="42.28023558965198" lon="14.128560706275461"><ele>263.6666666666667</ele><time>2026-04-12T10:43:34.999Z</time></trkpt><trkpt lat="42.28031203852348" lon="14.128385860892296"><ele>267.3333333333333</ele><time>2026-04-12T10:43:35.999Z</time></trkpt><trkpt lat="42.2804019186229" lon="14.12822497702967"><ele>271.0</ele><time>2026-04-12T10:43:36.999Z</time></trkpt><trkpt lat="42.28054884202657" lon="14.128160883506268"><ele>272.5</ele><time>2026-04-12T10:43:37.999Z</time></trkpt><trkpt lat="42.280698165440576" lon="14.128079560159966"><ele>274.0</ele><time>2026-04-12T10:43:38.999Z</time></trkpt><trkpt lat="42.28084181697505" lon="14.127999102834702"><ele>275.5</ele><time>2026-04-12T10:43:39.999Z</time></trkpt><trkpt lat="42.2809646197198" lon="14.127939031380224"><ele>277.0</ele><time>2026-04-12T10:43:40.999Z</time></trkpt><trkpt lat="42.28103970041435" lon="14.127854495459031"><ele>277.0</ele><time>2026-04-12T10:43:41.999Z</time></trkpt><trkpt lat="42.2810792071602" lon="14.1277179966583"><ele>277.0</ele><time>2026-04-12T10:43:42.999Z</time></trkpt><trkpt lat="42.281105239091964" lon="14.12756702115567"><ele>277.0</ele><time>2026-04-12T10:43:43.999Z</time></trkpt><trkpt lat="42.281036117215415" lon="14.127402589494668"><ele>277.0</ele><time>2026-04-12T10:43:45.001Z</time></trkpt><trkpt lat="42.28094183541476" lon="14.127312813556797"><ele>279.75</ele><time>2026-04-12T10:43:46.001Z</time></trkpt><trkpt lat="42.28082705832445" lon="14.127263939295897"><ele>282.5</ele><time>2026-04-12T10:43:47.001Z</time></trkpt><trkpt lat="42.28069965368199" lon="14.127279170961673"><ele>285.25</ele><time>2026-04-12T10:43:48.001Z</time></trkpt><trkpt lat="42.28055956582359" lon="14.127305221651639"><ele>288.0</ele><time>2026-04-12T10:43:49.001Z</time></trkpt><trkpt lat="42.28040872517579" lon="14.127338310196661"><ele>288.0</ele><time>2026-04-12T10:43:50.001Z</time></trkpt><trkpt lat="42.28026119951615" lon="14.127368261123745"><ele>288.0</ele><time>2026-04-12T10:43:51.001Z</time></trkpt><trkpt lat="42.28010530607291" lon="14.127370678148292"><ele>288.0</ele><time>2026-04-12T10:43:52.001Z</time></trkpt><trkpt lat="42.27994356512149" lon="14.127385377643755"><ele>286.5</ele><time>2026-04-12T10:43:53.001Z</time></trkpt><trkpt lat="42.27978810559043" lon="14.127401994076113"><ele>285.0</ele><time>2026-04-12T10:43:54.001Z</time></trkpt><trkpt lat="42.27963387662536" lon="14.127417004940414"><ele>283.5</ele><time>2026-04-12T10:43:55.001Z</time></trkpt><trkpt lat="42.27949935239965" lon="14.127433455466493"><ele>282.0</ele><time>2026-04-12T10:43:56.001Z</time></trkpt><trkpt lat="42.279402284956824" lon="14.127454477271247"><ele>282.0</ele><time>2026-04-12T10:43:57.001Z</time></trkpt><trkpt lat="42.27931780461599" lon="14.127446655917788"><ele>282.0</ele><time>2026-04-12T10:43:58.001Z</time></trkpt><trkpt lat="42.279235952095696" lon="14.127588217435683"><ele>282.0</ele><time>2026-04-12T10:43:59.001Z</time></trkpt><trkpt lat="42.27912649482423" lon="14.127610895034566"><ele>282.0</ele><time>2026-04-12T10:44:00.001Z</time></trkpt><trkpt lat="42.27899364021189" lon="14.127624313002412"><ele>282.5</ele><time>2026-04-12T10:44:01.001Z</time></trkpt><trkpt lat="42.27885935332328" lon="14.127628651461952"><ele>283.0</ele><time>2026-04-12T10:44:02.001Z</time></trkpt><trkpt lat="42.27873555475717" lon="14.12760929472926"><ele>283.5</ele><time>2026-04-12T10:44:03.001Z</time></trkpt><trkpt lat="42.27861655060497" lon="14.127599736836338"><ele>284.0</ele><time>2026-04-12T10:44:04.001Z</time></trkpt><trkpt lat="42.278499580153515" lon="14.127590668515762"><ele>284.0</ele><time>2026-04-12T10:44:05.001Z</time></trkpt><trkpt lat="42.27838402218041" lon="14.127585489840477"><ele>284.0</ele><time>2026-04-12T10:44:06.001Z</time></trkpt><trkpt lat="42.278259132217244" lon="14.127578945255191"><ele>284.0</ele><time>2026-04-12T10:44:07.001Z</time></trkpt><trkpt lat="42.278145798733846" lon="14.127570943732852"><ele>284.0</ele><time>2026-04-12T10:44:08.001Z</time></trkpt><trkpt lat="42.278043397851825" lon="14.127554354203497"><ele>284.5</ele><time>2026-04-12T10:44:09.001Z</time></trkpt><trkpt lat="42.27793960290637" lon="14.127499822737384"><ele>285.0</ele><time>2026-04-12T10:44:10.001Z</time></trkpt><trkpt lat="42.27780334748983" lon="14.127467109410059"><ele>285.5</ele><time>2026-04-12T10:44:11Z</time></trkpt><trkpt lat="42.277671046063084" lon="14.12741396603436"><ele>286.0</ele><time>2026-04-12T10:44:12Z</time></trkpt><trkpt lat="42.27753865686221" lon="14.127366534704924"><ele>288.0</ele><time>2026-04-12T10:44:13Z</time></trkpt><trkpt lat="42.27740664343689" lon="14.127337543009443"><ele>290.0</ele><time>2026-04-12T10:44:14Z</time></trkpt><trkpt lat="42.277274249528354" lon="14.127354980051729"><ele>292.0</ele><time>2026-04-12T10:44:15Z</time></trkpt><trkpt lat="42.277157465343066" lon="14.127374433870147"><ele>294.0</ele><time>2026-04-12T10:44:16Z</time></trkpt><trkpt lat="42.27706020386498" lon="14.127371519282818"><ele>294.59999999999997</ele><time>2026-04-12T10:44:17Z</time></trkpt><trkpt lat="42.2769630178614" lon="14.127340995472133"><ele>295.2</ele><time>2026-04-12T10:44:18Z</time></trkpt><trkpt lat="42.27686212824929" lon="14.127269836873133"><ele>295.79999999999995</ele><time>2026-04-12T10:44:19Z</time></trkpt><trkpt lat="42.276751018400816" lon="14.127237418078426"><ele>296.4</ele><time>2026-04-12T10:44:20Z</time></trkpt><trkpt lat="42.27665321300573" lon="14.12719227494294"><ele>297.0</ele><time>2026-04-12T10:44:21Z</time></trkpt><trkpt lat="42.27658449860733" lon="14.12716662044156"><ele>297.0</ele><time>2026-04-12T10:44:22Z</time></trkpt><trkpt lat="42.27646380034413" lon="14.127238812141186"><ele>297.0</ele><time>2026-04-12T10:44:24Z</time></trkpt><trkpt lat="42.276392821146146" lon="14.127355867521821"><ele>297.0</ele><time>2026-04-12T10:44:25Z</time></trkpt><trkpt lat="42.27631894044386" lon="14.127486635133755"><ele>297.0</ele><time>2026-04-12T10:44:26Z</time></trkpt><trkpt lat="42.27624422673366" lon="14.127605097279645"><ele>296.75</ele><time>2026-04-12T10:44:27Z</time></trkpt><trkpt lat="42.276173231439806" lon="14.127724556635043"><ele>296.5</ele><time>2026-04-12T10:44:28Z</time></trkpt><trkpt lat="42.2760857232873" lon="14.127829885468048"><ele>296.25</ele><time>2026-04-12T10:44:29Z</time></trkpt><trkpt lat="42.27598255130181" lon="14.127916187230179"><ele>296.0</ele><time>2026-04-12T10:44:30Z</time></trkpt><trkpt lat="42.275870263376184" lon="14.127966406420155"><ele>296.0</ele><time>2026-04-12T10:44:31Z</time></trkpt><trkpt lat="42.275744901203645" lon="14.1279812687849"><ele>296.0</ele><time>2026-04-12T10:44:32Z</time></trkpt><trkpt lat="42.27561825271846" lon="14.128035748444765"><ele>296.0</ele><time>2026-04-12T10:44:33Z</time></trkpt><trkpt lat="42.27548238035658" lon="14.128070106346353"><ele>296.0</ele><time>2026-04-12T10:44:34Z</time></trkpt><trkpt lat="42.27535664388153" lon="14.12814017950142"><ele>296.8</ele><time>2026-04-12T10:44:35Z</time></trkpt><trkpt lat="42.2752550732715" lon="14.128236841899435"><ele>297.6</ele><time>2026-04-12T10:44:36Z</time></trkpt><trkpt lat="42.275177469666666" lon="14.128302971312326"><ele>298.4</ele><time>2026-04-12T10:44:37Z</time></trkpt><trkpt lat="42.27510391782292" lon="14.128223763923614"><ele>299.2</ele><time>2026-04-12T10:44:39Z</time></trkpt><trkpt lat="42.27512892437973" lon="14.12808525163625"><ele>300.0</ele><time>2026-04-12T10:44:40Z</time></trkpt><trkpt lat="42.27509118958903" lon="14.127957659381082"><ele>300.6</ele><time>2026-04-12T10:44:41Z</time></trkpt><trkpt lat="42.27504719872828" lon="14.12781805936004"><ele>301.2</ele><time>2026-04-12T10:44:42Z</time></trkpt><trkpt lat="42.2750006629337" lon="14.127674457333223"><ele>301.8</ele><time>2026-04-12T10:44:43Z</time></trkpt><trkpt lat="42.274953930832005" lon="14.127535227605083"><ele>302.4</ele><time>2026-04-12T10:44:44Z</time></trkpt><trkpt lat="42.27491809859709" lon="14.127428472041638"><ele>303.0</ele><time>2026-04-12T10:44:45Z</time></trkpt><trkpt lat="42.27488596849725" lon="14.127330225083096"><ele>303.4</ele><time>2026-04-12T10:44:46Z</time></trkpt><trkpt lat="42.274853272991" lon="14.12722944336433"><ele>303.8</ele><time>2026-04-12T10:44:47Z</time></trkpt><trkpt lat="42.27481806234041" lon="14.12712090904799"><ele>304.2</ele><time>2026-04-12T10:44:48Z</time></trkpt><trkpt lat="42.27477880193131" lon="14.126996468299653"><ele>304.6</ele><time>2026-04-12T10:44:49Z</time></trkpt><trkpt lat="42.27473895521006" lon="14.126851686089053"><ele>305.0</ele><time>2026-04-12T10:44:50Z</time></trkpt><trkpt lat="42.27469998525821" lon="14.126695567806992"><ele>301.5</ele><time>2026-04-12T10:44:51Z</time></trkpt><trkpt lat="42.274666293497376" lon="14.126527803240858"><ele>298.0</ele><time>2026-04-12T10:44:52Z</time></trkpt><trkpt lat="42.27463241040594" lon="14.126358527324578"><ele>294.5</ele><time>2026-04-12T10:44:53Z</time></trkpt><trkpt lat="42.274620024209675" lon="14.126205582178535"><ele>291.0</ele><time>2026-04-12T10:44:54Z</time></trkpt><trkpt lat="42.27463369871044" lon="14.1260530458942"><ele>291.0</ele><time>2026-04-12T10:44:55Z</time></trkpt><trkpt lat="42.27466939738854" lon="14.125903731141777"><ele>291.0</ele><time>2026-04-12T10:44:56Z</time></trkpt><trkpt lat="42.27471215246246" lon="14.125748192050503"><ele>291.0</ele><time>2026-04-12T10:44:57Z</time></trkpt><trkpt lat="42.274761325340364" lon="14.125576588753216"><ele>291.0</ele><time>2026-04-12T10:44:58Z</time></trkpt><trkpt lat="42.27481191467927" lon="14.125392271340525"><ele>298.0</ele><time>2026-04-12T10:44:59Z</time></trkpt><trkpt lat="42.27486350477228" lon="14.125209119468556"><ele>305.0</ele><time>2026-04-12T10:45:00Z</time></trkpt><trkpt lat="42.27491498326169" lon="14.125033173229015"><ele>312.0</ele><time>2026-04-12T10:45:01Z</time></trkpt><trkpt lat="42.274971322106396" lon="14.124866453795299"><ele>319.0</ele><time>2026-04-12T10:45:02Z</time></trkpt><trkpt lat="42.2750379174403" lon="14.124704657618905"><ele>321.0</ele><time>2026-04-12T10:45:03Z</time></trkpt><trkpt lat="42.27511489063793" lon="14.124534263185312"><ele>323.0</ele><time>2026-04-12T10:45:04Z</time></trkpt><trkpt lat="42.27519823122406" lon="14.1243664149586"><ele>325.0</ele><time>2026-04-12T10:45:05Z</time></trkpt><trkpt lat="42.27527324996849" lon="14.124265010274081"><ele>327.0</ele><time>2026-04-12T10:45:06Z</time></trkpt><trkpt lat="42.275352106013074" lon="14.12423404144375"><ele>327.0</ele><time>2026-04-12T10:45:07Z</time></trkpt><trkpt lat="42.275454240302665" lon="14.12425622317753"><ele>327.0</ele><time>2026-04-12T10:45:08Z</time></trkpt><trkpt lat="42.275591972280786" lon="14.124225115406638"><ele>327.0</ele><time>2026-04-12T10:45:09Z</time></trkpt><trkpt lat="42.275744193309436" lon="14.124211618745719"><ele>327.0</ele><time>2026-04-12T10:45:10Z</time></trkpt><trkpt lat="42.27589436519241" lon="14.124222650615922"><ele>325.5</ele><time>2026-04-12T10:45:11Z</time></trkpt><trkpt lat="42.27603549708671" lon="14.124204440648732"><ele>324.0</ele><time>2026-04-12T10:45:12Z</time></trkpt><trkpt lat="42.276164498696986" lon="14.124152831401753"><ele>322.5</ele><time>2026-04-12T10:45:13Z</time></trkpt><trkpt lat="42.27627271228365" lon="14.124138886089678"><ele>321.0</ele><time>2026-04-12T10:45:14Z</time></trkpt><trkpt lat="42.27638137677665" lon="14.124130233819928"><ele>320.0</ele><time>2026-04-12T10:45:15Z</time></trkpt><trkpt lat="42.276478907852116" lon="14.124127279589173"><ele>319.0</ele><time>2026-04-12T10:45:16Z</time></trkpt><trkpt lat="42.276565124765405" lon="14.124128468156233"><ele>318.0</ele><time>2026-04-12T10:45:18Z</time></trkpt><trkpt lat="42.27636887418535" lon="14.123906087489813"><ele>317.0</ele><time>2026-04-12T10:45:22.999Z</time></trkpt><trkpt lat="42.276305078184244" lon="14.123810956088452"><ele>317.0</ele><time>2026-04-12T10:45:23.999Z</time></trkpt><trkpt lat="42.276242256370814" lon="14.12368469129693"><ele>317.0</ele><time>2026-04-12T10:45:24.999Z</time></trkpt><trkpt lat="42.27617286771427" lon="14.1235524822756"><ele>317.0</ele><time>2026-04-12T10:45:25.999Z</time></trkpt><trkpt lat="42.27609332347409" lon="14.123439699047667"><ele>317.0</ele><time>2026-04-12T10:45:26.999Z</time></trkpt><trkpt lat="42.276010810790055" lon="14.123354032252234"><ele>317.0</ele><time>2026-04-12T10:45:27.999Z</time></trkpt><trkpt lat="42.27589279240452" lon="14.123323360064742"><ele>317.0</ele><time>2026-04-12T10:45:28.999Z</time></trkpt><trkpt lat="42.275751218159556" lon="14.123304091264673"><ele>317.0</ele><time>2026-04-12T10:45:29.999Z</time></trkpt><trkpt lat="42.275613744183865" lon="14.12326758547981"><ele>317.0</ele><time>2026-04-12T10:45:30.999Z</time></trkpt><trkpt lat="42.27547037132846" lon="14.123223571719894"><ele>316.0</ele><time>2026-04-12T10:45:31.999Z</time></trkpt><trkpt lat="42.27532472874576" lon="14.12317984144615"><ele>315.0</ele><time>2026-04-12T10:45:32.999Z</time></trkpt><trkpt lat="42.275174588824385" lon="14.123141729691756"><ele>314.0</ele><time>2026-04-12T10:45:33.999Z</time></trkpt><trkpt lat="42.275031291876076" lon="14.12308527918038"><ele>314.0</ele><time>2026-04-12T10:45:34.999Z</time></trkpt><trkpt lat="42.2749140432031" lon="14.123087930218336"><ele>314.0</ele><time>2026-04-12T10:45:35.999Z</time></trkpt><trkpt lat="42.27478211939384" lon="14.123085548853375"><ele>314.0</ele><time>2026-04-12T10:45:36.999Z</time></trkpt><trkpt lat="42.27463635403279" lon="14.12306921126784"><ele>314.0</ele><time>2026-04-12T10:45:37.999Z</time></trkpt><trkpt lat="42.274515522829525" lon="14.123024097292008"><ele>315.5</ele><time>2026-04-12T10:45:38.999Z</time></trkpt><trkpt lat="42.274407903467846" lon="14.122978128420163"><ele>317.0</ele><time>2026-04-12T10:45:39.999Z</time></trkpt><trkpt lat="42.27431040982221" lon="14.122910053745715"><ele>318.5</ele><time>2026-04-12T10:45:40.999Z</time></trkpt><trkpt lat="42.274194732767846" lon="14.122822094230552"><ele>320.0</ele><time>2026-04-12T10:45:41.999Z</time></trkpt><trkpt lat="42.274095894451136" lon="14.122740082077401"><ele>320.0</ele><time>2026-04-12T10:45:42.999Z</time></trkpt><trkpt lat="42.27402585524821" lon="14.122633455311119"><ele>320.0</ele><time>2026-04-12T10:45:43.999Z</time></trkpt><trkpt lat="42.27398411168204" lon="14.122451027541375"><ele>320.0</ele><time>2026-04-12T10:45:44.999Z</time></trkpt><trkpt lat="42.27390856893054" lon="14.122314726523317"><ele>320.0</ele><time>2026-04-12T10:45:45.999Z</time></trkpt><trkpt lat="42.27381492722736" lon="14.122245440285184"><ele>316.2</ele><time>2026-04-12T10:45:46.999Z</time></trkpt><trkpt lat="42.273739618128175" lon="14.122152116011794"><ele>312.4</ele><time>2026-04-12T10:45:47.999Z</time></trkpt><trkpt lat="42.27368051896866" lon="14.122070026099056"><ele>308.6</ele><time>2026-04-12T10:45:48.999Z</time></trkpt><trkpt lat="42.27366993014385" lon="14.121965281299005"><ele>304.8</ele><time>2026-04-12T10:45:49.999Z</time></trkpt><trkpt lat="42.273655550339036" lon="14.121820134003498"><ele>301.0</ele><time>2026-04-12T10:45:51.001Z</time></trkpt><trkpt lat="42.27360372260826" lon="14.121659887027688"><ele>300.40000000000003</ele><time>2026-04-12T10:45:52.001Z</time></trkpt><trkpt lat="42.27351286553474" lon="14.121549442475638"><ele>299.8</ele><time>2026-04-12T10:45:53.001Z</time></trkpt><trkpt lat="42.27341725403957" lon="14.121444018488924"><ele>299.20000000000005</ele><time>2026-04-12T10:45:54.001Z</time></trkpt><trkpt lat="42.273327489069516" lon="14.121373129324931"><ele>298.6</ele><time>2026-04-12T10:45:55.001Z</time></trkpt><trkpt lat="42.27326645604377" lon="14.121310497989622"><ele>298.0</ele><time>2026-04-12T10:45:56.001Z</time></trkpt><trkpt lat="42.2732642777139" lon="14.121207681907777"><ele>298.0</ele><time>2026-04-12T10:45:57.001Z</time></trkpt><trkpt lat="42.27322434410983" lon="14.121102048868092"><ele>298.0</ele><time>2026-04-12T10:45:58.001Z</time></trkpt><trkpt lat="42.27315428147901" lon="14.121027556899937"><ele>298.0</ele><time>2026-04-12T10:45:59.001Z</time></trkpt><trkpt lat="42.27305334251205" lon="14.120968449888984"><ele>298.0</ele><time>2026-04-12T10:46:00.001Z</time></trkpt><trkpt lat="42.27293298770705" lon="14.120866798210205"><ele>298.0</ele><time>2026-04-12T10:46:01.001Z</time></trkpt><trkpt lat="42.27280446223098" lon="14.120810790695327"><ele>296.8</ele><time>2026-04-12T10:46:02.001Z</time></trkpt><trkpt lat="42.27268974396242" lon="14.12073400359912"><ele>295.6</ele><time>2026-04-12T10:46:03.001Z</time></trkpt><trkpt lat="42.2725942734458" lon="14.120664597746343"><ele>294.4</ele><time>2026-04-12T10:46:04.001Z</time></trkpt><trkpt lat="42.27251905527795" lon="14.120599949385362"><ele>293.2</ele><time>2026-04-12T10:46:05.001Z</time></trkpt><trkpt lat="42.27241979155959" lon="14.120525378834987"><ele>292.0</ele><time>2026-04-12T10:46:06.001Z</time></trkpt><trkpt lat="42.272334737761064" lon="14.120429653603937"><ele>289.8</ele><time>2026-04-12T10:46:07.001Z</time></trkpt><trkpt lat="42.27223114459836" lon="14.120360846924699"><ele>287.6</ele><time>2026-04-12T10:46:08.001Z</time></trkpt><trkpt lat="42.272138226261134" lon="14.12028492715454"><ele>285.40000000000003</ele><time>2026-04-12T10:46:09Z</time></trkpt><trkpt lat="42.27206382265362" lon="14.120220906768948"><ele>283.2</ele><time>2026-04-12T10:46:10Z</time></trkpt><trkpt lat="42.27197323035531" lon="14.120130577905112"><ele>281.0</ele><time>2026-04-12T10:46:11Z</time></trkpt><trkpt lat="42.27186562712543" lon="14.120050225618284"><ele>281.0</ele><time>2026-04-12T10:46:12Z</time></trkpt><trkpt lat="42.27174570734786" lon="14.119975748382622"><ele>281.0</ele><time>2026-04-12T10:46:13Z</time></trkpt><trkpt lat="42.27166005036493" lon="14.119901800330087"><ele>281.0</ele><time>2026-04-12T10:46:14Z</time></trkpt><trkpt lat="42.27156912653381" lon="14.11983034704292"><ele>281.0</ele><time>2026-04-12T10:46:15Z</time></trkpt><trkpt lat="42.27150372790929" lon="14.11974953642767"><ele>281.0</ele><time>2026-04-12T10:46:16Z</time></trkpt><trkpt lat="42.27146192043982" lon="14.119648399854126"><ele>280.25</ele><time>2026-04-12T10:46:17Z</time></trkpt><trkpt lat="42.27142172285578" lon="14.119501304347985"><ele>279.5</ele><time>2026-04-12T10:46:18Z</time></trkpt><trkpt lat="42.271378529654704" lon="14.11933445957849"><ele>278.75</ele><time>2026-04-12T10:46:19Z</time></trkpt><trkpt lat="42.27132507179114" lon="14.119171441553886"><ele>278.0</ele><time>2026-04-12T10:46:20Z</time></trkpt><trkpt lat="42.27126257413478" lon="14.119028602716568"><ele>277.2</ele><time>2026-04-12T10:46:21Z</time></trkpt><trkpt lat="42.27121329180219" lon="14.118890440249713"><ele>276.4</ele><time>2026-04-12T10:46:22Z</time></trkpt><trkpt lat="42.27112431649141" lon="14.118774468030734"><ele>275.59999999999997</ele><time>2026-04-12T10:46:23Z</time></trkpt><trkpt lat="42.271005385655535" lon="14.118750772856544"><ele>274.8</ele><time>2026-04-12T10:46:24Z</time></trkpt><trkpt lat="42.270925890362086" lon="14.118763034810755"><ele>274.0</ele><time>2026-04-12T10:46:25Z</time></trkpt><trkpt lat="42.270833168889595" lon="14.11873486173187"><ele>274.0</ele><time>2026-04-12T10:46:26Z</time></trkpt><trkpt lat="42.27070362475704" lon="14.118718713784261"><ele>274.0</ele><time>2026-04-12T10:46:27Z</time></trkpt><trkpt lat="42.270569155520754" lon="14.118698062150393"><ele>274.0</ele><time>2026-04-12T10:46:28Z</time></trkpt><trkpt lat="42.270435052224684" lon="14.118698692675718"><ele>274.0</ele><time>2026-04-12T10:46:29Z</time></trkpt><trkpt lat="42.27029951264964" lon="14.118638725837299"><ele>276.0</ele><time>2026-04-12T10:46:30Z</time></trkpt><trkpt lat="42.270176212994805" lon="14.11858352593883"><ele>278.0</ele><time>2026-04-12T10:46:31Z</time></trkpt><trkpt lat="42.27005446201235" lon="14.11852461598822"><ele>280.0</ele><time>2026-04-12T10:46:32Z</time></trkpt><trkpt lat="42.26993340203125" lon="14.118451113480749"><ele>282.0</ele><time>2026-04-12T10:46:33Z</time></trkpt><trkpt lat="42.26983064716615" lon="14.11835736127696"><ele>280.6666666666667</ele><time>2026-04-12T10:46:34Z</time></trkpt><trkpt lat="42.269755601744194" lon="14.118298051894"><ele>279.3333333333333</ele><time>2026-04-12T10:46:35Z</time></trkpt><trkpt lat="42.269680470187375" lon="14.118254303729076"><ele>278.0</ele><time>2026-04-12T10:46:36Z</time></trkpt><trkpt lat="42.26963572825434" lon="14.11818828966604"><ele>276.66666666666663</ele><time>2026-04-12T10:46:38Z</time></trkpt><trkpt lat="42.269603657786845" lon="14.118096316008605"><ele>275.3333333333333</ele><time>2026-04-12T10:47:36.999Z</time></trkpt><trkpt lat="42.269527630796475" lon="14.118090460946759"><ele>274.0</ele><time>2026-04-12T10:47:38.999Z</time></trkpt><trkpt lat="42.269462533096075" lon="14.11797277341936"><ele>273.0</ele><time>2026-04-12T10:47:40.999Z</time></trkpt><trkpt lat="42.26942120253658" lon="14.117861681366678"><ele>272.0</ele><time>2026-04-12T10:47:41.999Z</time></trkpt><trkpt lat="42.269403817352156" lon="14.117712695409006"><ele>271.0</ele><time>2026-04-12T10:47:42.999Z</time></trkpt><trkpt lat="42.26938829070834" lon="14.117579673109821"><ele>270.0</ele><time>2026-04-12T10:47:43.999Z</time></trkpt><trkpt lat="42.26941887389793" lon="14.117437556737348"><ele>269.0</ele><time>2026-04-12T10:47:44.999Z</time></trkpt><trkpt lat="42.26947468640329" lon="14.117295637347723"><ele>266.5</ele><time>2026-04-12T10:47:45.999Z</time></trkpt><trkpt lat="42.26953875434232" lon="14.117153350282322"><ele>264.0</ele><time>2026-04-12T10:47:46.999Z</time></trkpt><trkpt lat="42.26959837001809" lon="14.117005531573565"><ele>261.5</ele><time>2026-04-12T10:47:47.999Z</time></trkpt><trkpt lat="42.269608945208425" lon="14.116852476296792"><ele>259.0</ele><time>2026-04-12T10:47:48.999Z</time></trkpt><trkpt lat="42.26959908555298" lon="14.116709131264743"><ele>257.5</ele><time>2026-04-12T10:47:49.999Z</time></trkpt><trkpt lat="42.26959805666729" lon="14.116534516089724"><ele>256.0</ele><time>2026-04-12T10:47:50.999Z</time></trkpt><trkpt lat="42.26959409641536" lon="14.116350288744025"><ele>254.5</ele><time>2026-04-12T10:47:51.999Z</time></trkpt><trkpt lat="42.26959318185458" lon="14.116192774905398"><ele>253.0</ele><time>2026-04-12T10:47:52.999Z</time></trkpt><trkpt lat="42.269582986706716" lon="14.11603897407544"><ele>253.0</ele><time>2026-04-12T10:47:53.999Z</time></trkpt><trkpt lat="42.26953829404017" lon="14.11591392312575"><ele>253.0</ele><time>2026-04-12T10:47:54.999Z</time></trkpt><trkpt lat="42.26948232069333" lon="14.115782153453958"><ele>253.0</ele><time>2026-04-12T10:47:55.999Z</time></trkpt><trkpt lat="42.26940424802907" lon="14.115670141983754"><ele>253.0</ele><time>2026-04-12T10:47:57Z</time></trkpt><trkpt lat="42.26928800893881" lon="14.115612037355653"><ele>251.8</ele><time>2026-04-12T10:47:58Z</time></trkpt><trkpt lat="42.26919999850871" lon="14.115511812532507"><ele>250.60000000000002</ele><time>2026-04-12T10:47:59Z</time></trkpt><trkpt lat="42.26911314679147" lon="14.115445250483537"><ele>249.39999999999998</ele><time>2026-04-12T10:48:00Z</time></trkpt><trkpt lat="42.26908615100908" lon="14.115322444749577"><ele>248.2</ele><time>2026-04-12T10:48:01Z</time></trkpt><trkpt lat="42.26903847209463" lon="14.115202926868257"><ele>247.0</ele><time>2026-04-12T10:48:02Z</time></trkpt><trkpt lat="42.26899953922113" lon="14.115090517840294"><ele>247.0</ele><time>2026-04-12T10:48:03Z</time></trkpt><trkpt lat="42.2689453486075" lon="14.114958748037264"><ele>247.0</ele><time>2026-04-12T10:48:05Z</time></trkpt><trkpt lat="42.2689192690348" lon="14.114877582364564"><ele>247.0</ele><time>2026-04-12T10:48:06Z</time></trkpt><trkpt lat="42.26889475916495" lon="14.114771103294522"><ele>247.0</ele><time>2026-04-12T10:48:08Z</time></trkpt><trkpt lat="42.26885715407194" lon="14.114639602324656"><ele>247.0</ele><time>2026-04-12T10:48:10Z</time></trkpt><trkpt lat="42.268779258281775" lon="14.114444199160495"><ele>243.39999999999998</ele><time>2026-04-12T10:48:15Z</time></trkpt><trkpt lat="42.268733944287455" lon="14.114303489735834"><ele>239.79999999999998</ele><time>2026-04-12T10:48:17Z</time></trkpt><trkpt lat="42.2687212308918" lon="14.114185673853521"><ele>236.2</ele><time>2026-04-12T10:48:18Z</time></trkpt><trkpt lat="42.268722784329015" lon="14.114020308093972"><ele>232.6</ele><time>2026-04-12T10:48:19Z</time></trkpt><trkpt lat="42.268658912599676" lon="14.113893710691812"><ele>229.0</ele><time>2026-04-12T10:48:20Z</time></trkpt><trkpt lat="42.26855985755677" lon="14.113844818880183"><ele>229.0</ele><time>2026-04-12T10:48:21Z</time></trkpt><trkpt lat="42.26847606322002" lon="14.113761351595478"><ele>229.0</ele><time>2026-04-12T10:48:22Z</time></trkpt><trkpt lat="42.2683842498249" lon="14.11368866103627"><ele>229.0</ele><time>2026-04-12T10:48:23Z</time></trkpt><trkpt lat="42.26828103923176" lon="14.113604499068753"><ele>229.0</ele><time>2026-04-12T10:48:24Z</time></trkpt><trkpt lat="42.26817657941801" lon="14.113523708296418"><ele>228.6</ele><time>2026-04-12T10:48:25Z</time></trkpt><trkpt lat="42.268073982801454" lon="14.11344899712187"><ele>228.2</ele><time>2026-04-12T10:48:26Z</time></trkpt><trkpt lat="42.26800619092614" lon="14.11335840360478"><ele>227.79999999999998</ele><time>2026-04-12T10:48:27Z</time></trkpt><trkpt lat="42.267940258928284" lon="14.1132528809154"><ele>227.39999999999998</ele><time>2026-04-12T10:48:28Z</time></trkpt><trkpt lat="42.26787807277633" lon="14.113120397139845"><ele>227.0</ele><time>2026-04-12T10:48:29Z</time></trkpt><trkpt lat="42.267826141072696" lon="14.112966389254844"><ele>228.5</ele><time>2026-04-12T10:48:30Z</time></trkpt><trkpt lat="42.26775904192304" lon="14.11283795202744"><ele>230.0</ele><time>2026-04-12T10:48:31Z</time></trkpt><trkpt lat="42.26765775215895" lon="14.11272940731331"><ele>231.5</ele><time>2026-04-12T10:48:32Z</time></trkpt><trkpt lat="42.26755872777512" lon="14.112601582533973"><ele>233.0</ele><time>2026-04-12T10:48:33Z</time></trkpt><trkpt lat="42.26746775949632" lon="14.112476409146554"><ele>232.0</ele><time>2026-04-12T10:48:34Z</time></trkpt><trkpt lat="42.26741520253278" lon="14.112358827289887"><ele>231.0</ele><time>2026-04-12T10:48:35Z</time></trkpt><trkpt lat="42.2673801536127" lon="14.112215191068024"><ele>230.0</ele><time>2026-04-12T10:48:36Z</time></trkpt><trkpt lat="42.267340137870725" lon="14.112027641235935"><ele>229.0</ele><time>2026-04-12T10:48:37Z</time></trkpt><trkpt lat="42.26729741329436" lon="14.111848003326084"><ele>232.75</ele><time>2026-04-12T10:48:38Z</time></trkpt><trkpt lat="42.2672485516274" lon="14.111674554759936"><ele>236.5</ele><time>2026-04-12T10:48:39Z</time></trkpt><trkpt lat="42.26720011731696" lon="14.111510278390199"><ele>240.25</ele><time>2026-04-12T10:48:40Z</time></trkpt><trkpt lat="42.26714655616543" lon="14.111335800857256"><ele>244.0</ele><time>2026-04-12T10:48:41Z</time></trkpt><trkpt lat="42.26709130378277" lon="14.111159300468573"><ele>244.0</ele><time>2026-04-12T10:48:42Z</time></trkpt><trkpt lat="42.267029142964844" lon="14.110974800186089"><ele>244.0</ele><time>2026-04-12T10:48:43Z</time></trkpt><trkpt lat="42.26697001232986" lon="14.110799293827615"><ele>244.0</ele><time>2026-04-12T10:48:44Z</time></trkpt><trkpt lat="42.266920626229435" lon="14.110647820971778"><ele>244.0</ele><time>2026-04-12T10:48:45Z</time></trkpt><trkpt lat="42.26687803104686" lon="14.110499599118613"><ele>244.75</ele><time>2026-04-12T10:48:46Z</time></trkpt><trkpt lat="42.26685106213956" lon="14.110367496142736"><ele>245.5</ele><time>2026-04-12T10:48:47Z</time></trkpt><trkpt lat="42.26683177215539" lon="14.110194540959718"><ele>246.25</ele><time>2026-04-12T10:48:48Z</time></trkpt><trkpt lat="42.266812097554286" lon="14.110035270004797"><ele>247.0</ele><time>2026-04-12T10:48:49Z</time></trkpt><trkpt lat="42.26677354243831" lon="14.109864249372242"><ele>249.5</ele><time>2026-04-12T10:48:50Z</time></trkpt><trkpt lat="42.266737123234144" lon="14.109714264987357"><ele>252.0</ele><time>2026-04-12T10:48:51Z</time></trkpt><trkpt lat="42.26668504189039" lon="14.109569404377398"><ele>254.5</ele><time>2026-04-12T10:48:52Z</time></trkpt><trkpt lat="42.26662299374535" lon="14.109429967099612"><ele>257.0</ele><time>2026-04-12T10:48:53Z</time></trkpt><trkpt lat="42.2665543187154" lon="14.109294211994476"><ele>257.0</ele><time>2026-04-12T10:48:53.999Z</time></trkpt><trkpt lat="42.26647819888596" lon="14.109157088327756"><ele>257.0</ele><time>2026-04-12T10:48:54.999Z</time></trkpt><trkpt lat="42.26639083597295" lon="14.109032237341014"><ele>257.0</ele><time>2026-04-12T10:48:55.999Z</time></trkpt><trkpt lat="42.26631413535973" lon="14.108901733671836"><ele>257.0</ele><time>2026-04-12T10:48:56.999Z</time></trkpt><trkpt lat="42.26624081171039" lon="14.108792756886189"><ele>259.0</ele><time>2026-04-12T10:48:57.999Z</time></trkpt><trkpt lat="42.26617123157707" lon="14.108704252675915"><ele>261.0</ele><time>2026-04-12T10:48:58.999Z</time></trkpt><trkpt lat="42.26609348664056" lon="14.108612012341741"><ele>263.0</ele><time>2026-04-12T10:48:59.999Z</time></trkpt><trkpt lat="42.26601715266138" lon="14.108495416228363"><ele>265.0</ele><time>2026-04-12T10:49:00.999Z</time></trkpt><trkpt lat="42.26594259277914" lon="14.108375643105234"><ele>267.0</ele><time>2026-04-12T10:49:01.999Z</time></trkpt><trkpt lat="42.265869492752614" lon="14.108245292033956"><ele>267.5</ele><time>2026-04-12T10:49:02.999Z</time></trkpt><trkpt lat="42.26579858682549" lon="14.108121800802982"><ele>268.0</ele><time>2026-04-12T10:49:03.999Z</time></trkpt><trkpt lat="42.26573928631575" lon="14.107989163258289"><ele>268.5</ele><time>2026-04-12T10:49:04.999Z</time></trkpt><trkpt lat="42.265691315702064" lon="14.107844204837958"><ele>269.0</ele><time>2026-04-12T10:49:05.999Z</time></trkpt><trkpt lat="42.26564570692014" lon="14.107696472130463"><ele>269.25</ele><time>2026-04-12T10:49:06.999Z</time></trkpt><trkpt lat="42.26559208566941" lon="14.107556196225918"><ele>269.5</ele><time>2026-04-12T10:49:07.999Z</time></trkpt><trkpt lat="42.26553595561" lon="14.10742664398369"><ele>269.75</ele><time>2026-04-12T10:49:08.999Z</time></trkpt><trkpt lat="42.26545557699671" lon="14.107296374836855"><ele>270.0</ele><time>2026-04-12T10:49:09.999Z</time></trkpt><trkpt lat="42.26538763978226" lon="14.107172018447601"><ele>270.0</ele><time>2026-04-12T10:49:10.999Z</time></trkpt><trkpt lat="42.265338092550294" lon="14.107038665085778"><ele>270.0</ele><time>2026-04-12T10:49:11.999Z</time></trkpt><trkpt lat="42.265310851161786" lon="14.106957410259058"><ele>270.0</ele><time>2026-04-12T10:49:12.999Z</time></trkpt><trkpt lat="42.26539637891834" lon="14.106862051484926"><ele>270.0</ele><time>2026-04-12T10:49:16.999Z</time></trkpt><trkpt lat="42.26544508683406" lon="14.106770125985193"><ele>270.0</ele><time>2026-04-12T10:49:17.999Z</time></trkpt><trkpt lat="42.265481905233294" lon="14.106675295943209"><ele>270.0</ele><time>2026-04-12T10:49:18.999Z</time></trkpt><trkpt lat="42.26552081967945" lon="14.106590727981526"><ele>270.0</ele><time>2026-04-12T10:49:19.999Z</time></trkpt><trkpt lat="42.265573158155604" lon="14.106527556991962"><ele>270.0</ele><time>2026-04-12T10:49:20.999Z</time></trkpt><trkpt lat="42.26563533153548" lon="14.10642784853522"><ele>270.0</ele><time>2026-04-12T10:49:21.999Z</time></trkpt><trkpt lat="42.26570303221602" lon="14.1063610468131"><ele>270.0</ele><time>2026-04-12T10:49:22.999Z</time></trkpt><trkpt lat="42.26576568668019" lon="14.106284169292634"><ele>270.0</ele><time>2026-04-12T10:49:23.999Z</time></trkpt><trkpt lat="42.26587473105079" lon="14.106209632626875"><ele>263.75</ele><time>2026-04-12T10:49:25.999Z</time></trkpt><trkpt lat="42.26597377982071" lon="14.10610331405296"><ele>257.5</ele><time>2026-04-12T10:49:27.999Z</time></trkpt><trkpt lat="42.266081815609674" lon="14.105988619377348"><ele>251.25</ele><time>2026-04-12T10:49:29.999Z</time></trkpt><trkpt lat="42.26613252800481" lon="14.10584511881165"><ele>245.0</ele><time>2026-04-12T10:49:31.999Z</time></trkpt><trkpt lat="42.26615886098707" lon="14.105717546059488"><ele>239.25</ele><time>2026-04-12T10:49:33.999Z</time></trkpt><trkpt lat="42.26617892477792" lon="14.105591368407108"><ele>233.5</ele><time>2026-04-12T10:49:35.999Z</time></trkpt><trkpt lat="42.266228265155945" lon="14.105488904945878"><ele>227.75</ele><time>2026-04-12T10:49:37.999Z</time></trkpt><trkpt lat="42.26627544966524" lon="14.105417647563872"><ele>222.0</ele><time>2026-04-12T10:49:41.999Z</time></trkpt><trkpt lat="42.26640628588237" lon="14.105186640377596"><ele>222.39999999999998</ele><time>2026-04-12T10:49:44.999Z</time></trkpt><trkpt lat="42.26648944164118" lon="14.105088179442504"><ele>222.79999999999998</ele><time>2026-04-12T10:49:45.999Z</time></trkpt><trkpt lat="42.266587280895436" lon="14.105004973124442"><ele>223.2</ele><time>2026-04-12T10:49:46.999Z</time></trkpt><trkpt lat="42.26666472196754" lon="14.104908321507251"><ele>223.6</ele><time>2026-04-12T10:49:47.999Z</time></trkpt><trkpt lat="42.26674324986269" lon="14.10487443477512"><ele>224.0</ele><time>2026-04-12T10:49:48.999Z</time></trkpt><trkpt lat="42.26684877120108" lon="14.104837882589242"><ele>221.50000000000003</ele><time>2026-04-12T10:49:49.999Z</time></trkpt><trkpt lat="42.266947791040195" lon="14.104814244959902"><ele>219.0</ele><time>2026-04-12T10:49:50.999Z</time></trkpt><trkpt lat="42.26704856280097" lon="14.104787584368482"><ele>216.5</ele><time>2026-04-12T10:49:51.999Z</time></trkpt><trkpt lat="42.26711777431021" lon="14.104758334810281"><ele>214.0</ele><time>2026-04-12T10:49:52.999Z</time></trkpt><trkpt lat="42.267185003669276" lon="14.104745656056108"><ele>211.50000000000003</ele><time>2026-04-12T10:49:53.999Z</time></trkpt><trkpt lat="42.26726048250469" lon="14.1047196332864"><ele>209.0</ele><time>2026-04-12T10:49:54.999Z</time></trkpt><trkpt lat="42.26732858626999" lon="14.104698911625897"><ele>209.0</ele><time>2026-04-12T10:49:55.999Z</time></trkpt><trkpt lat="42.26743179950829" lon="14.104655745019171"><ele>209.0</ele><time>2026-04-12T10:49:57.999Z</time></trkpt><trkpt lat="42.26751000404912" lon="14.10464909387162"><ele>209.0</ele><time>2026-04-12T10:49:58.999Z</time></trkpt><trkpt lat="42.267603738257506" lon="14.10464029196599"><ele>209.0</ele><time>2026-04-12T10:49:59.999Z</time></trkpt><trkpt lat="42.26770514352953" lon="14.104626989678069"><ele>209.0</ele><time>2026-04-12T10:50:00.999Z</time></trkpt><trkpt lat="42.26783060181871" lon="14.104592923147958"><ele>209.0</ele><time>2026-04-12T10:50:01.999Z</time></trkpt><trkpt lat="42.26793836358191" lon="14.104568315270745"><ele>209.0</ele><time>2026-04-12T10:50:03Z</time></trkpt><trkpt lat="42.26804587769782" lon="14.104545305740642"><ele>209.0</ele><time>2026-04-12T10:50:04Z</time></trkpt><trkpt lat="42.26815408549281" lon="14.104521277016639"><ele>209.0</ele><time>2026-04-12T10:50:05Z</time></trkpt><trkpt lat="42.268257433400855" lon="14.104497286875329"><ele>209.0</ele><time>2026-04-12T10:50:06Z</time></trkpt><trkpt lat="42.26832846652314" lon="14.104498332497222"><ele>209.83333333333334</ele><time>2026-04-12T10:50:07Z</time></trkpt><trkpt lat="42.26840498809583" lon="14.104471830455688"><ele>210.66666666666669</ele><time>2026-04-12T10:50:08Z</time></trkpt><trkpt lat="42.268479556961914" lon="14.104447433981319"><ele>211.5</ele><time>2026-04-12T10:50:09Z</time></trkpt><trkpt lat="42.26856017380314" lon="14.10443427747995"><ele>212.33333333333331</ele><time>2026-04-12T10:50:10Z</time></trkpt><trkpt lat="42.26864768594771" lon="14.10444572343056"><ele>213.16666666666666</ele><time>2026-04-12T10:50:11Z</time></trkpt><trkpt lat="42.2687667547809" lon="14.104466607848122"><ele>214.0</ele><time>2026-04-12T10:50:12Z</time></trkpt><trkpt lat="42.268885317400844" lon="14.104476122477344"><ele>213.79999999999998</ele><time>2026-04-12T10:50:13Z</time></trkpt><trkpt lat="42.26900090820636" lon="14.104497128213408"><ele>213.59999999999997</ele><time>2026-04-12T10:50:14Z</time></trkpt><trkpt lat="42.26911007254015" lon="14.10451558023622"><ele>213.4</ele><time>2026-04-12T10:50:15Z</time></trkpt><trkpt lat="42.269185786468455" lon="14.104546218128167"><ele>213.2</ele><time>2026-04-12T10:50:16Z</time></trkpt><trkpt lat="42.26926098378556" lon="14.104584039235938"><ele>213.0</ele><time>2026-04-12T10:50:17Z</time></trkpt><trkpt lat="42.26935432813221" lon="14.104639130056547"><ele>213.0</ele><time>2026-04-12T10:50:18Z</time></trkpt><trkpt lat="42.26945056139565" lon="14.104703094524691"><ele>213.0</ele><time>2026-04-12T10:50:19Z</time></trkpt><trkpt lat="42.2695332478889" lon="14.104784843573409"><ele>213.0</ele><time>2026-04-12T10:50:20Z</time></trkpt><trkpt lat="42.2696368835616" lon="14.104622901607021"><ele>213.0</ele><time>2026-04-12T10:50:21Z</time></trkpt><trkpt lat="42.26971636490399" lon="14.104596503677985"><ele>214.0</ele><time>2026-04-12T10:50:22Z</time></trkpt><trkpt lat="42.269804198867405" lon="14.104586756965547"><ele>215.0</ele><time>2026-04-12T10:50:23Z</time></trkpt><trkpt lat="42.26991147990683" lon="14.104575386721551"><ele>216.0</ele><time>2026-04-12T10:50:24Z</time></trkpt><trkpt lat="42.27000995193742" lon="14.10457399656636"><ele>217.0</ele><time>2026-04-12T10:50:25Z</time></trkpt><trkpt lat="42.27010555059462" lon="14.104608296490731"><ele>218.0</ele><time>2026-04-12T10:50:26Z</time></trkpt><trkpt lat="42.2702053891943" lon="14.104615566805832"><ele>218.0</ele><time>2026-04-12T10:50:27Z</time></trkpt><trkpt lat="42.270318637501724" lon="14.104631539950393"><ele>218.0</ele><time>2026-04-12T10:50:28Z</time></trkpt><trkpt lat="42.27042826291258" lon="14.104643546671479"><ele>218.0</ele><time>2026-04-12T10:50:29Z</time></trkpt><trkpt lat="42.27054044426466" lon="14.10463205889312"><ele>218.0</ele><time>2026-04-12T10:50:30Z</time></trkpt><trkpt lat="42.27063634362108" lon="14.104622902130783"><ele>218.0</ele><time>2026-04-12T10:50:31Z</time></trkpt><trkpt lat="42.27072090251529" lon="14.10461945077732"><ele>217.60000000000002</ele><time>2026-04-12T10:50:32Z</time></trkpt><trkpt lat="42.27080563652712" lon="14.104592088102105"><ele>217.20000000000002</ele><time>2026-04-12T10:50:33Z</time></trkpt><trkpt lat="42.27089991566514" lon="14.10457414292448"><ele>216.8</ele><time>2026-04-12T10:50:34Z</time></trkpt><trkpt lat="42.270993332706595" lon="14.10455105990929"><ele>216.4</ele><time>2026-04-12T10:50:35Z</time></trkpt><trkpt lat="42.27108648377294" lon="14.104511412410396"><ele>216.0</ele><time>2026-04-12T10:50:36Z</time></trkpt><trkpt lat="42.27119617591506" lon="14.1044653297429"><ele>216.0</ele><time>2026-04-12T10:50:37Z</time></trkpt><trkpt lat="42.27130128009625" lon="14.10442649450143"><ele>216.00000000000003</ele><time>2026-04-12T10:50:38Z</time></trkpt><trkpt lat="42.27142466200515" lon="14.104410080749258"><ele>216.00000000000003</ele><time>2026-04-12T10:50:39Z</time></trkpt><trkpt lat="42.271535376789274" lon="14.104398984308634"><ele>216.0</ele><time>2026-04-12T10:50:40Z</time></trkpt><trkpt lat="42.271630255307166" lon="14.104386827752974"><ele>216.0</ele><time>2026-04-12T10:50:41Z</time></trkpt><trkpt lat="42.27172309163995" lon="14.104334587975433"><ele>214.60000000000002</ele><time>2026-04-12T10:50:42Z</time></trkpt><trkpt lat="42.27183180896367" lon="14.104229221689568"><ele>213.20000000000002</ele><time>2026-04-12T10:50:43Z</time></trkpt><trkpt lat="42.2719221886158" lon="14.104136363875186"><ele>211.8</ele><time>2026-04-12T10:50:44Z</time></trkpt><trkpt lat="42.271984936923516" lon="14.104036799616422"><ele>210.39999999999998</ele><time>2026-04-12T10:50:45Z</time></trkpt><trkpt lat="42.2720358986614" lon="14.103919994715906"><ele>209.0</ele><time>2026-04-12T10:50:46Z</time></trkpt><trkpt lat="42.272072092941535" lon="14.10378741252602"><ele>205.5</ele><time>2026-04-12T10:50:47Z</time></trkpt><trkpt lat="42.272123396210645" lon="14.103658595846444"><ele>202.0</ele><time>2026-04-12T10:50:48Z</time></trkpt><trkpt lat="42.27215896917998" lon="14.103509713533706"><ele>198.5</ele><time>2026-04-12T10:50:49Z</time></trkpt><trkpt lat="42.27219644694969" lon="14.103345185710156"><ele>195.0</ele><time>2026-04-12T10:50:50Z</time></trkpt><trkpt lat="42.27220211849815" lon="14.103161354138173"><ele>192.8</ele><time>2026-04-12T10:50:51Z</time></trkpt><trkpt lat="42.2722135645363" lon="14.102999322842075"><ele>190.6</ele><time>2026-04-12T10:50:52Z</time></trkpt><trkpt lat="42.27221802877531" lon="14.102855843391222"><ele>188.39999999999998</ele><time>2026-04-12T10:50:53Z</time></trkpt><trkpt lat="42.27224814579473" lon="14.102740131146646"><ele>186.2</ele><time>2026-04-12T10:50:53.999Z</time></trkpt><trkpt lat="42.27232887624905" lon="14.102664851165345"><ele>184.0</ele><time>2026-04-12T10:50:54.999Z</time></trkpt><trkpt lat="42.27242420656078" lon="14.102586975075322"><ele>186.0</ele><time>2026-04-12T10:50:55.999Z</time></trkpt><trkpt lat="42.27252942521032" lon="14.102481188805802"><ele>188.0</ele><time>2026-04-12T10:50:56.999Z</time></trkpt><trkpt lat="42.27265346324595" lon="14.102391078376316"><ele>190.0</ele><time>2026-04-12T10:50:57.999Z</time></trkpt><trkpt lat="42.27275723620416" lon="14.102274796226192"><ele>192.0</ele><time>2026-04-12T10:50:58.999Z</time></trkpt><trkpt lat="42.27283172175907" lon="14.102146448801458"><ele>192.0</ele><time>2026-04-12T10:50:59.999Z</time></trkpt><trkpt lat="42.27287655820671" lon="14.101990488293064"><ele>192.0</ele><time>2026-04-12T10:51:00.999Z</time></trkpt><trkpt lat="42.27290914796308" lon="14.101811868317979"><ele>192.0</ele><time>2026-04-12T10:51:01.999Z</time></trkpt><trkpt lat="42.27297875821105" lon="14.101665563454436"><ele>192.0</ele><time>2026-04-12T10:51:02.999Z</time></trkpt><trkpt lat="42.27304400667616" lon="14.10155340966493"><ele>191.8</ele><time>2026-04-12T10:51:03.999Z</time></trkpt><trkpt lat="42.27312196911802" lon="14.101471716801502"><ele>191.6</ele><time>2026-04-12T10:51:04.999Z</time></trkpt><trkpt lat="42.27321588018601" lon="14.101442542195915"><ele>191.4</ele><time>2026-04-12T10:51:05.999Z</time></trkpt><trkpt lat="42.27331853406541" lon="14.10147253098708"><ele>191.20000000000002</ele><time>2026-04-12T10:51:06.999Z</time></trkpt><trkpt lat="42.27344352538941" lon="14.101513798415459"><ele>191.0</ele><time>2026-04-12T10:51:07.999Z</time></trkpt><trkpt lat="42.27358830245428" lon="14.10155310458631"><ele>189.5</ele><time>2026-04-12T10:51:08.999Z</time></trkpt><trkpt lat="42.27372916591715" lon="14.101616170646874"><ele>188.0</ele><time>2026-04-12T10:51:09.999Z</time></trkpt><trkpt lat="42.273866728171214" lon="14.101673785177557"><ele>186.5</ele><time>2026-04-12T10:51:10.999Z</time></trkpt><trkpt lat="42.27400306668934" lon="14.101727300767383"><ele>185.0</ele><time>2026-04-12T10:51:11.999Z</time></trkpt><trkpt lat="42.27413272086808" lon="14.101766585613907"><ele>185.0</ele><time>2026-04-12T10:51:12.999Z</time></trkpt><trkpt lat="42.27425753337538" lon="14.101784934764062"><ele>185.0</ele><time>2026-04-12T10:51:13.999Z</time></trkpt><trkpt lat="42.274382303980815" lon="14.101762485659577"><ele>185.0</ele><time>2026-04-12T10:51:14.999Z</time></trkpt><trkpt lat="42.274504185953376" lon="14.101708518377597"><ele>185.0</ele><time>2026-04-12T10:51:15.999Z</time></trkpt><trkpt lat="42.27461181448085" lon="14.101632628475574"><ele>183.5</ele><time>2026-04-12T10:51:16.999Z</time></trkpt><trkpt lat="42.274712699358666" lon="14.101534820022845"><ele>182.0</ele><time>2026-04-12T10:51:17.999Z</time></trkpt><trkpt lat="42.27480975976854" lon="14.101404930172727"><ele>180.5</ele><time>2026-04-12T10:51:18.999Z</time></trkpt><trkpt lat="42.2748854904997" lon="14.101268000385467"><ele>179.0</ele><time>2026-04-12T10:51:19.999Z</time></trkpt><trkpt lat="42.27494075305351" lon="14.101113290365324"><ele>179.0</ele><time>2026-04-12T10:51:20.999Z</time></trkpt><trkpt lat="42.27501394229979" lon="14.100964622569668"><ele>179.0</ele><time>2026-04-12T10:51:21.999Z</time></trkpt><trkpt lat="42.27508281671623" lon="14.100787434866795"><ele>179.0</ele><time>2026-04-12T10:51:22.999Z</time></trkpt><trkpt lat="42.27515283001899" lon="14.10060731726054"><ele>179.0</ele><time>2026-04-12T10:51:23.999Z</time></trkpt><trkpt lat="42.27522423626603" lon="14.100423616131724"><ele>177.66666666666666</ele><time>2026-04-12T10:51:24.999Z</time></trkpt><trkpt lat="42.27529711791452" lon="14.100241715887435"><ele>176.33333333333334</ele><time>2026-04-12T10:51:25.999Z</time></trkpt><trkpt lat="42.27537043714151" lon="14.100059533226524"><ele>175.0</ele><time>2026-04-12T10:51:26.999Z</time></trkpt><trkpt lat="42.27544086298925" lon="14.099877590106281"><ele>175.0</ele><time>2026-04-12T10:51:27.999Z</time></trkpt><trkpt lat="42.27549849950348" lon="14.0996924686679"><ele>175.0</ele><time>2026-04-12T10:51:28.999Z</time></trkpt><trkpt lat="42.275525561499876" lon="14.099486356784054"><ele>175.0</ele><time>2026-04-12T10:51:29.999Z</time></trkpt><trkpt lat="42.275507937174304" lon="14.099274899232027"><ele>176.66666666666669</ele><time>2026-04-12T10:51:30.999Z</time></trkpt><trkpt lat="42.27547535217343" lon="14.099066009339339"><ele>178.33333333333334</ele><time>2026-04-12T10:51:31.999Z</time></trkpt><trkpt lat="42.27543715372065" lon="14.098861089775127"><ele>180.0</ele><time>2026-04-12T10:51:32.999Z</time></trkpt><trkpt lat="42.275403293920974" lon="14.098656840076865"><ele>180.0</ele><time>2026-04-12T10:51:33.999Z</time></trkpt><trkpt lat="42.2753695035464" lon="14.098453467617361"><ele>180.0</ele><time>2026-04-12T10:51:34.999Z</time></trkpt><trkpt lat="42.275339777389014" lon="14.09825231234259"><ele>180.0</ele><time>2026-04-12T10:51:35.999Z</time></trkpt><trkpt lat="42.27532580710818" lon="14.09804492574995"><ele>180.0</ele><time>2026-04-12T10:51:36.999Z</time></trkpt><trkpt lat="42.27532042433502" lon="14.0978354998897"><ele>180.0</ele><time>2026-04-12T10:51:37.999Z</time></trkpt><trkpt lat="42.27532920720343" lon="14.097628931809608"><ele>180.0</ele><time>2026-04-12T10:51:38.999Z</time></trkpt><trkpt lat="42.27534799248595" lon="14.09740169520266"><ele>178.33333333333334</ele><time>2026-04-12T10:51:39.999Z</time></trkpt><trkpt lat="42.275373432403406" lon="14.097164049776822"><ele>176.66666666666669</ele><time>2026-04-12T10:51:40.999Z</time></trkpt><trkpt lat="42.27540004011916" lon="14.096928254032411"><ele>175.0</ele><time>2026-04-12T10:51:41.999Z</time></trkpt><trkpt lat="42.27542471229521" lon="14.096695520985854"><ele>172.66666666666669</ele><time>2026-04-12T10:51:42.999Z</time></trkpt><trkpt lat="42.27544785299237" lon="14.09647472404699"><ele>170.33333333333334</ele><time>2026-04-12T10:51:43.999Z</time></trkpt><trkpt lat="42.27547089130986" lon="14.096263002384427"><ele>168.0</ele><time>2026-04-12T10:51:44.999Z</time></trkpt><trkpt lat="42.27549730927655" lon="14.096066902764134"><ele>168.0</ele><time>2026-04-12T10:51:45.999Z</time></trkpt><trkpt lat="42.2755293039583" lon="14.095878048177957"><ele>168.0</ele><time>2026-04-12T10:51:46.999Z</time></trkpt><trkpt lat="42.27557610877325" lon="14.095701255599833"><ele>168.0</ele><time>2026-04-12T10:51:47.999Z</time></trkpt><trkpt lat="42.27560496533831" lon="14.095537886348948"><ele>168.0</ele><time>2026-04-12T10:51:48.999Z</time></trkpt><trkpt lat="42.275603706681174" lon="14.095391987037122"><ele>167.4</ele><time>2026-04-12T10:51:49.999Z</time></trkpt><trkpt lat="42.27560917415369" lon="14.09527470966635"><ele>166.8</ele><time>2026-04-12T10:51:50.999Z</time></trkpt><trkpt lat="42.275603953384234" lon="14.095180241490313"><ele>166.2</ele><time>2026-04-12T10:51:51.999Z</time></trkpt><trkpt lat="42.27566510218039" lon="14.09511592363656"><ele>165.6</ele><time>2026-04-12T10:51:52.999Z</time></trkpt><trkpt lat="42.275780551530374" lon="14.095111336911645"><ele>165.0</ele><time>2026-04-12T10:51:53.999Z</time></trkpt><trkpt lat="42.27589756708759" lon="14.095050745726155"><ele>165.0</ele><time>2026-04-12T10:51:54.999Z</time></trkpt><trkpt lat="42.276023870264005" lon="14.09497979402899"><ele>165.0</ele><time>2026-04-12T10:51:55.999Z</time></trkpt><trkpt lat="42.27615665700622" lon="14.09490415593619"><ele>165.0</ele><time>2026-04-12T10:51:56.999Z</time></trkpt><trkpt lat="42.27628969021472" lon="14.094827288647878"><ele>165.0</ele><time>2026-04-12T10:51:57.999Z</time></trkpt><trkpt lat="42.276421233530705" lon="14.094751163320618"><ele>162.25</ele><time>2026-04-12T10:51:58.999Z</time></trkpt><trkpt lat="42.27653480675995" lon="14.094656738833175"><ele>159.5</ele><time>2026-04-12T10:51:59.998Z</time></trkpt><trkpt lat="42.276642828159915" lon="14.094577169440939"><ele>156.75</ele><time>2026-04-12T10:52:00.998Z</time></trkpt><trkpt lat="42.27675132732599" lon="14.0944852841279"><ele>154.0</ele><time>2026-04-12T10:52:01.998Z</time></trkpt><trkpt lat="42.2768169748095" lon="14.094328313862222"><ele>154.0</ele><time>2026-04-12T10:52:02.998Z</time></trkpt><trkpt lat="42.276866241407355" lon="14.094164627110151"><ele>154.0</ele><time>2026-04-12T10:52:03.998Z</time></trkpt><trkpt lat="42.27690012909452" lon="14.093974925627393"><ele>154.0</ele><time>2026-04-12T10:52:04.998Z</time></trkpt><trkpt lat="42.27695254711744" lon="14.093775930888958"><ele>154.0</ele><time>2026-04-12T10:52:05.998Z</time></trkpt><trkpt lat="42.27699227729619" lon="14.09357120716404"><ele>151.0</ele><time>2026-04-12T10:52:06.998Z</time></trkpt><trkpt lat="42.27703262196909" lon="14.093368240242198"><ele>148.0</ele><time>2026-04-12T10:52:07.998Z</time></trkpt><trkpt lat="42.27707410459553" lon="14.093172280713679"><ele>145.0</ele><time>2026-04-12T10:52:09Z</time></trkpt><trkpt lat="42.277112062711026" lon="14.092977468346156"><ele>142.0</ele><time>2026-04-12T10:52:10Z</time></trkpt><trkpt lat="42.27714156881464" lon="14.0927597150229"><ele>139.0</ele><time>2026-04-12T10:52:11Z</time></trkpt><trkpt lat="42.277153306534316" lon="14.092523456731517"><ele>136.0</ele><time>2026-04-12T10:52:12Z</time></trkpt><trkpt lat="42.277156438696586" lon="14.092279137452472"><ele>133.0</ele><time>2026-04-12T10:52:13Z</time></trkpt><trkpt lat="42.27715902972902" lon="14.092035881249835"><ele>130.0</ele><time>2026-04-12T10:52:14Z</time></trkpt><trkpt lat="42.27716138160089" lon="14.091815078303656"><ele>127.0</ele><time>2026-04-12T10:52:15Z</time></trkpt><trkpt lat="42.277172436485934" lon="14.09162005136916"><ele>128.2</ele><time>2026-04-12T10:52:16Z</time></trkpt><trkpt lat="42.2771934311914" lon="14.09145208348383"><ele>129.39999999999998</ele><time>2026-04-12T10:52:17Z</time></trkpt><trkpt lat="42.27722829953311" lon="14.091301091179893"><ele>130.60000000000002</ele><time>2026-04-12T10:52:18Z</time></trkpt><trkpt lat="42.27727785062032" lon="14.091172383978032"><ele>131.8</ele><time>2026-04-12T10:52:19Z</time></trkpt><trkpt lat="42.27732493643694" lon="14.091076085699138"><ele>133.0</ele><time>2026-04-12T10:52:20Z</time></trkpt><trkpt lat="42.27738321722077" lon="14.091025395446977"><ele>133.0</ele><time>2026-04-12T10:52:21Z</time></trkpt><trkpt lat="42.2774595189866" lon="14.091013401189116"><ele>133.0</ele><time>2026-04-12T10:52:22Z</time></trkpt><trkpt lat="42.27755919664977" lon="14.091061295741447"><ele>133.0</ele><time>2026-04-12T10:52:23Z</time></trkpt><trkpt lat="42.27766803630157" lon="14.091138453212622"><ele>133.0</ele><time>2026-04-12T10:52:24Z</time></trkpt><trkpt lat="42.277779311806306" lon="14.091210726551482"><ele>133.0</ele><time>2026-04-12T10:52:25Z</time></trkpt><trkpt lat="42.27787736048424" lon="14.091251800244097"><ele>133.0</ele><time>2026-04-12T10:52:26Z</time></trkpt><trkpt lat="42.277958029934126" lon="14.0912728553911"><ele>133.0</ele><time>2026-04-12T10:52:27Z</time></trkpt><trkpt lat="42.27802840902096" lon="14.091247526541038"><ele>133.0</ele><time>2026-04-12T10:52:28Z</time></trkpt><trkpt lat="42.27807965156965" lon="14.091112117946283"><ele>133.0</ele><time>2026-04-12T10:52:29Z</time></trkpt><trkpt lat="42.27804737663346" lon="14.090952496654053"><ele>133.0</ele><time>2026-04-12T10:52:30Z</time></trkpt><trkpt lat="42.27804022528138" lon="14.090799764551685"><ele>130.6</ele><time>2026-04-12T10:52:31Z</time></trkpt><trkpt lat="42.27802470679922" lon="14.090664632861674"><ele>128.20000000000002</ele><time>2026-04-12T10:52:32Z</time></trkpt><trkpt lat="42.278007523250814" lon="14.090553512655193"><ele>125.8</ele><time>2026-04-12T10:52:34Z</time></trkpt><trkpt lat="42.278101201598645" lon="14.09068400428962"><ele>123.4</ele><time>2026-04-12T10:52:37Z</time></trkpt><trkpt lat="42.278137736921984" lon="14.090807172070225"><ele>121.0</ele><time>2026-04-12T10:52:38Z</time></trkpt><trkpt lat="42.27819041466056" lon="14.090954672932519"><ele>120.75</ele><time>2026-04-12T10:52:39Z</time></trkpt><trkpt lat="42.2782507905049" lon="14.091103963731952"><ele>120.5</ele><time>2026-04-12T10:52:40Z</time></trkpt><trkpt lat="42.278307260136074" lon="14.091278428478846"><ele>120.25</ele><time>2026-04-12T10:52:41Z</time></trkpt><trkpt lat="42.27835973861113" lon="14.091472244028308"><ele>120.0</ele><time>2026-04-12T10:52:42Z</time></trkpt><trkpt lat="42.27839906876418" lon="14.091673349351533"><ele>121.33333333333334</ele><time>2026-04-12T10:52:43Z</time></trkpt><trkpt lat="42.278443415223016" lon="14.091894803870206"><ele>122.66666666666667</ele><time>2026-04-12T10:52:44Z</time></trkpt><trkpt lat="42.27847165693725" lon="14.092116194307144"><ele>124.0</ele><time>2026-04-12T10:52:45Z</time></trkpt><trkpt lat="42.27849584392438" lon="14.09234032630049"><ele>124.25</ele><time>2026-04-12T10:52:46Z</time></trkpt><trkpt lat="42.27851502972785" lon="14.09254812029216"><ele>124.5</ele><time>2026-04-12T10:52:47Z</time></trkpt><trkpt lat="42.27855058393441" lon="14.09274128305633"><ele>124.75</ele><time>2026-04-12T10:52:48Z</time></trkpt><trkpt lat="42.27860690089519" lon="14.092900985350605"><ele>125.0</ele><time>2026-04-12T10:52:49Z</time></trkpt><trkpt lat="42.278677472152516" lon="14.093036705686448"><ele>125.0</ele><time>2026-04-12T10:52:50Z</time></trkpt><trkpt lat="42.278756289862386" lon="14.093141743936384"><ele>125.0</ele><time>2026-04-12T10:52:51Z</time></trkpt><trkpt lat="42.27885185021017" lon="14.093205128098004"><ele>125.0</ele><time>2026-04-12T10:52:52Z</time></trkpt><trkpt lat="42.27896089090727" lon="14.093217052887793"><ele>125.0</ele><time>2026-04-12T10:52:53Z</time></trkpt><trkpt lat="42.27907527741128" lon="14.093197560178385"><ele>125.0</ele><time>2026-04-12T10:52:54Z</time></trkpt><trkpt lat="42.2791963887483" lon="14.093158560316034"><ele>122.75</ele><time>2026-04-12T10:52:54.999Z</time></trkpt><trkpt lat="42.27931425105656" lon="14.093141181039822"><ele>120.5</ele><time>2026-04-12T10:52:55.999Z</time></trkpt><trkpt lat="42.279427375190764" lon="14.093145258017476"><ele>118.25</ele><time>2026-04-12T10:52:56.999Z</time></trkpt><trkpt lat="42.27950711618949" lon="14.093256477429945"><ele>116.0</ele><time>2026-04-12T10:52:57.999Z</time></trkpt><trkpt lat="42.27959145021336" lon="14.09336732669996"><ele>116.0</ele><time>2026-04-12T10:52:58.999Z</time></trkpt><trkpt lat="42.27969006747632" lon="14.093498234797163"><ele>116.0</ele><time>2026-04-12T10:52:59.999Z</time></trkpt><trkpt lat="42.27979153687547" lon="14.093646997898375"><ele>116.0</ele><time>2026-04-12T10:53:00.999Z</time></trkpt><trkpt lat="42.279908418758644" lon="14.093765117573197"><ele>116.0</ele><time>2026-04-12T10:53:01.999Z</time></trkpt><trkpt lat="42.28001944157259" lon="14.093866884307966"><ele>112.25</ele><time>2026-04-12T10:53:02.999Z</time></trkpt><trkpt lat="42.28009821788045" lon="14.093956692350796"><ele>108.5</ele><time>2026-04-12T10:53:03.999Z</time></trkpt><trkpt lat="42.28012927686294" lon="14.09407225803851"><ele>104.75</ele><time>2026-04-12T10:53:04.999Z</time></trkpt><trkpt lat="42.28012369931707" lon="14.094230501064096"><ele>101.0</ele><time>2026-04-12T10:53:05.999Z</time></trkpt><trkpt lat="42.28013051586119" lon="14.094426904228055"><ele>100.66666666666666</ele><time>2026-04-12T10:53:06.999Z</time></trkpt><trkpt lat="42.28014035107516" lon="14.09464265164276"><ele>100.33333333333334</ele><time>2026-04-12T10:53:07.999Z</time></trkpt><trkpt lat="42.28013452649212" lon="14.09486510972037"><ele>100.0</ele><time>2026-04-12T10:53:08.999Z</time></trkpt><trkpt lat="42.28014563148049" lon="14.09508530081"><ele>100.0</ele><time>2026-04-12T10:53:09.999Z</time></trkpt><trkpt lat="42.28016373392857" lon="14.09530973889387"><ele>100.0</ele><time>2026-04-12T10:53:10.999Z</time></trkpt><trkpt lat="42.28018438261274" lon="14.09554803309099"><ele>100.0</ele><time>2026-04-12T10:53:11.999Z</time></trkpt><trkpt lat="42.2802059602624" lon="14.095797154416173"><ele>100.0</ele><time>2026-04-12T10:53:12.999Z</time></trkpt><trkpt lat="42.28022755814624" lon="14.096025118364151"><ele>100.0</ele><time>2026-04-12T10:53:13.999Z</time></trkpt><trkpt lat="42.280251490831766" lon="14.096218024794505"><ele>100.0</ele><time>2026-04-12T10:53:14.999Z</time></trkpt><trkpt lat="42.28028923344928" lon="14.096422158859818"><ele>101.0</ele><time>2026-04-12T10:53:15.999Z</time></trkpt><trkpt lat="42.28033463156832" lon="14.096649177796019"><ele>102.0</ele><time>2026-04-12T10:53:16.999Z</time></trkpt><trkpt lat="42.280395134160386" lon="14.096874334579162"><ele>103.0</ele><time>2026-04-12T10:53:17.999Z</time></trkpt><trkpt lat="42.280424134596956" lon="14.097105144988847"><ele>103.0</ele><time>2026-04-12T10:53:18.999Z</time></trkpt><trkpt lat="42.28042838714113" lon="14.09733415989581"><ele>103.0</ele><time>2026-04-12T10:53:19.999Z</time></trkpt><trkpt lat="42.280445503752" lon="14.097563062951606"><ele>103.0</ele><time>2026-04-12T10:53:20.999Z</time></trkpt><trkpt lat="42.28048587774104" lon="14.097800882704291"><ele>103.0</ele><time>2026-04-12T10:53:21.999Z</time></trkpt><trkpt lat="42.28054001512888" lon="14.09806522159368"><ele>103.0</ele><time>2026-04-12T10:53:22.999Z</time></trkpt><trkpt lat="42.280599193529056" lon="14.098331976956459"><ele>103.0</ele><time>2026-04-12T10:53:23.999Z</time></trkpt><trkpt lat="42.280657687643995" lon="14.09859867726752"><ele>105.33333333333334</ele><time>2026-04-12T10:53:24.999Z</time></trkpt><trkpt lat="42.28071090429076" lon="14.098867971022006"><ele>107.66666666666666</ele><time>2026-04-12T10:53:25.999Z</time></trkpt><trkpt lat="42.280760070262" lon="14.09913371750492"><ele>110.0</ele><time>2026-04-12T10:53:26.999Z</time></trkpt><trkpt lat="42.28082342570865" lon="14.099399423312313"><ele>111.75</ele><time>2026-04-12T10:53:27.999Z</time></trkpt><trkpt lat="42.28088478585248" lon="14.099641091910742"><ele>113.5</ele><time>2026-04-12T10:53:28.999Z</time></trkpt><trkpt lat="42.28093239376028" lon="14.099832163287344"><ele>115.25</ele><time>2026-04-12T10:53:29.999Z</time></trkpt><trkpt lat="42.280967669447335" lon="14.099974517328906"><ele>117.0</ele><time>2026-04-12T10:53:30.999Z</time></trkpt><trkpt lat="42.28098340780381" lon="14.100075656054623"><ele>118.39999999999999</ele><time>2026-04-12T10:53:31.999Z</time></trkpt><trkpt lat="42.280997187245454" lon="14.100188071592317"><ele>119.79999999999998</ele><time>2026-04-12T10:53:32.999Z</time></trkpt><trkpt lat="42.281011633732476" lon="14.100326158988961"><ele>121.2</ele><time>2026-04-12T10:53:33.999Z</time></trkpt><trkpt lat="42.281030743978" lon="14.100476326982832"><ele>122.6</ele><time>2026-04-12T10:53:34.999Z</time></trkpt><trkpt lat="42.28103994047213" lon="14.100613865246116"><ele>124.0</ele><time>2026-04-12T10:53:35.999Z</time></trkpt><trkpt lat="42.28103299693238" lon="14.100713572379076"><ele>126.0</ele><time>2026-04-12T10:53:36.999Z</time></trkpt><trkpt lat="42.28103084094553" lon="14.100863197773283"><ele>128.0</ele><time>2026-04-12T10:53:37.999Z</time></trkpt><trkpt lat="42.28103904739088" lon="14.100985066472546"><ele>130.0</ele><time>2026-04-12T10:53:38.999Z</time></trkpt><trkpt lat="42.28104736967773" lon="14.101099544362764"><ele>132.0</ele><time>2026-04-12T10:53:39.999Z</time></trkpt><trkpt lat="42.28105548589863" lon="14.101232408308814"><ele>134.0</ele><time>2026-04-12T10:53:40.999Z</time></trkpt><trkpt lat="42.28106661662675" lon="14.101320270796247"><ele>133.0</ele><time>2026-04-12T10:53:41.999Z</time></trkpt><trkpt lat="42.281774028345865" lon="14.101605290458089"><ele>133.0</ele><time>2026-04-12T10:53:42.999Z</time></trkpt><trkpt lat="42.281847771944264" lon="14.101762773594121"><ele>133.0</ele><time>2026-04-12T10:53:43.999Z</time></trkpt><trkpt lat="42.281914230416945" lon="14.101923266398215"><ele>133.0</ele><time>2026-04-12T10:53:44.999Z</time></trkpt><trkpt lat="42.2819843832979" lon="14.10209097090662"><ele>133.0</ele><time>2026-04-12T10:53:45.999Z</time></trkpt><trkpt lat="42.282059793217854" lon="14.10226069460001"><ele>135.25</ele><time>2026-04-12T10:53:46.999Z</time></trkpt><trkpt lat="42.28213465339608" lon="14.102440040982236"><ele>137.5</ele><time>2026-04-12T10:53:47.999Z</time></trkpt><trkpt lat="42.282208794658224" lon="14.102619176450613"><ele>139.75</ele><time>2026-04-12T10:53:48.999Z</time></trkpt><trkpt lat="42.28228016387182" lon="14.102787477782048"><ele>142.0</ele><time>2026-04-12T10:53:49.999Z</time></trkpt><trkpt lat="42.282356999927366" lon="14.102952965366308"><ele>137.66666666666669</ele><time>2026-04-12T10:53:50.999Z</time></trkpt><trkpt lat="42.282432204717004" lon="14.103125503505263"><ele>133.33333333333334</ele><time>2026-04-12T10:53:51.999Z</time></trkpt><trkpt lat="42.28250564302017" lon="14.10330508354546"><ele>129.0</ele><time>2026-04-12T10:53:52.999Z</time></trkpt><trkpt lat="42.28257417018516" lon="14.103485609411472"><ele>129.0</ele><time>2026-04-12T10:53:53.999Z</time></trkpt><trkpt lat="42.2826422211048" lon="14.103667988251258"><ele>129.0</ele><time>2026-04-12T10:53:54.999Z</time></trkpt><trkpt lat="42.28271249803173" lon="14.103845289674277"><ele>129.0</ele><time>2026-04-12T10:53:55.999Z</time></trkpt><trkpt lat="42.282778685802946" lon="14.104017051313143"><ele>129.0</ele><time>2026-04-12T10:53:56.999Z</time></trkpt><trkpt lat="42.28283880343706" lon="14.104171927656349"><ele>130.75</ele><time>2026-04-12T10:53:57.999Z</time></trkpt><trkpt lat="42.28289371435992" lon="14.104317481532982"><ele>132.5</ele><time>2026-04-12T10:53:58.998Z</time></trkpt><trkpt lat="42.28294451139232" lon="14.104479096290618"><ele>134.25</ele><time>2026-04-12T10:53:59.998Z</time></trkpt><trkpt lat="42.28299969278521" lon="14.104649992903925"><ele>136.0</ele><time>2026-04-12T10:54:00.998Z</time></trkpt><trkpt lat="42.28304798221368" lon="14.10479617693696"><ele>136.0</ele><time>2026-04-12T10:54:01.998Z</time></trkpt><trkpt lat="42.28309272905502" lon="14.104898618925478"><ele>136.0</ele><time>2026-04-12T10:54:02.998Z</time></trkpt><trkpt lat="42.28314214241266" lon="14.105001886128026"><ele>136.0</ele><time>2026-04-12T10:54:03.998Z</time></trkpt><trkpt lat="42.28320117228434" lon="14.105132710324714"><ele>136.0</ele><time>2026-04-12T10:54:04.998Z</time></trkpt><trkpt lat="42.28325924992415" lon="14.10528488431499"><ele>136.0</ele><time>2026-04-12T10:54:05.998Z</time></trkpt><trkpt lat="42.28331082662412" lon="14.105452729549686"><ele>134.4</ele><time>2026-04-12T10:54:06.998Z</time></trkpt><trkpt lat="42.283365449802396" lon="14.105623956000855"><ele>132.8</ele><time>2026-04-12T10:54:07.998Z</time></trkpt><trkpt lat="42.28341381588315" lon="14.105761139002794"><ele>131.20000000000002</ele><time>2026-04-12T10:54:08.998Z</time></trkpt><trkpt lat="42.28345207839515" lon="14.105883631463847"><ele>129.6</ele><time>2026-04-12T10:54:09.998Z</time></trkpt><trkpt lat="42.283484818498195" lon="14.10598330777668"><ele>128.0</ele><time>2026-04-12T10:54:10.998Z</time></trkpt><trkpt lat="42.28352651022347" lon="14.106080864122022"><ele>128.0</ele><time>2026-04-12T10:54:11.998Z</time></trkpt><trkpt lat="42.283567096892206" lon="14.106177179567677"><ele>128.0</ele><time>2026-04-12T10:54:12.998Z</time></trkpt><trkpt lat="42.28360968129482" lon="14.106300784808674"><ele>128.0</ele><time>2026-04-12T10:54:14Z</time></trkpt><trkpt lat="42.283652708823624" lon="14.106443153266707"><ele>128.0</ele><time>2026-04-12T10:54:15Z</time></trkpt><trkpt lat="42.28370446855503" lon="14.106598731157753"><ele>128.0</ele><time>2026-04-12T10:54:16Z</time></trkpt><trkpt lat="42.28375880996625" lon="14.106765705724758"><ele>126.75</ele><time>2026-04-12T10:54:17Z</time></trkpt><trkpt lat="42.28381684830317" lon="14.10693463009659"><ele>125.5</ele><time>2026-04-12T10:54:18Z</time></trkpt><trkpt lat="42.28387093268801" lon="14.107096599898664"><ele>124.25</ele><time>2026-04-12T10:54:19Z</time></trkpt><trkpt lat="42.283917127383326" lon="14.10724171622302"><ele>123.0</ele><time>2026-04-12T10:54:20Z</time></trkpt><trkpt lat="42.28396236795191" lon="14.107389154633486"><ele>124.5</ele><time>2026-04-12T10:54:21Z</time></trkpt><trkpt lat="42.28400855672562" lon="14.107537827011365"><ele>126.0</ele><time>2026-04-12T10:54:22Z</time></trkpt><trkpt lat="42.28405460787719" lon="14.107684291484246"><ele>127.5</ele><time>2026-04-12T10:54:23Z</time></trkpt><trkpt lat="42.28410269193765" lon="14.107840944067968"><ele>129.0</ele><time>2026-04-12T10:54:24Z</time></trkpt><trkpt lat="42.284152315894936" lon="14.108007892441199"><ele>129.0</ele><time>2026-04-12T10:54:25Z</time></trkpt><trkpt lat="42.2842049940529" lon="14.108178259271106"><ele>129.0</ele><time>2026-04-12T10:54:26Z</time></trkpt><trkpt lat="42.284259936188214" lon="14.108347166981735"><ele>129.0</ele><time>2026-04-12T10:54:27Z</time></trkpt><trkpt lat="42.284309543744726" lon="14.10849294275521"><ele>129.0</ele><time>2026-04-12T10:54:28Z</time></trkpt><trkpt lat="42.28435438516527" lon="14.108606420178173"><ele>129.6</ele><time>2026-04-12T10:54:29Z</time></trkpt><trkpt lat="42.2844029613715" lon="14.108733916019357"><ele>130.2</ele><time>2026-04-12T10:54:30Z</time></trkpt><trkpt lat="42.28445301637954" lon="14.108876645842724"><ele>130.79999999999998</ele><time>2026-04-12T10:54:31Z</time></trkpt><trkpt lat="42.28450297620989" lon="14.109007627883894"><ele>131.4</ele><time>2026-04-12T10:54:32Z</time></trkpt><trkpt lat="42.284545059683516" lon="14.109112280122872"><ele>132.0</ele><time>2026-04-12T10:54:33Z</time></trkpt><trkpt lat="42.28457000235595" lon="14.109197816963333"><ele>132.83333333333334</ele><time>2026-04-12T10:54:34Z</time></trkpt><trkpt lat="42.284603412814455" lon="14.109287958217834"><ele>133.66666666666666</ele><time>2026-04-12T10:54:35Z</time></trkpt><trkpt lat="42.284636084885996" lon="14.109393478721953"><ele>134.5</ele><time>2026-04-12T10:54:36Z</time></trkpt><trkpt lat="42.28467274620171" lon="14.109498888439308"><ele>135.33333333333331</ele><time>2026-04-12T10:54:37Z</time></trkpt><trkpt lat="42.2847131919558" lon="14.10961337874373"><ele>136.16666666666666</ele><time>2026-04-12T10:54:38Z</time></trkpt><trkpt lat="42.28476257834578" lon="14.1097371405233"><ele>137.0</ele><time>2026-04-12T10:54:39Z</time></trkpt><trkpt lat="42.28482011402569" lon="14.109860499450228"><ele>134.5</ele><time>2026-04-12T10:54:40Z</time></trkpt><trkpt lat="42.28486768418941" lon="14.109990160649522"><ele>132.0</ele><time>2026-04-12T10:54:41Z</time></trkpt><trkpt lat="42.284909421183706" lon="14.110124564954774"><ele>129.5</ele><time>2026-04-12T10:54:42Z</time></trkpt><trkpt lat="42.28495861290873" lon="14.110274468156781"><ele>127.0</ele><time>2026-04-12T10:54:43Z</time></trkpt><trkpt lat="42.28500729787338" lon="14.1104348194784"><ele>127.0</ele><time>2026-04-12T10:54:44Z</time></trkpt><trkpt lat="42.28504549660995" lon="14.110593648240654"><ele>127.0</ele><time>2026-04-12T10:54:45Z</time></trkpt><trkpt lat="42.28509265990306" lon="14.110738888082292"><ele>127.0</ele><time>2026-04-12T10:54:46Z</time></trkpt><trkpt lat="42.28512564758579" lon="14.110874571281764"><ele>127.0</ele><time>2026-04-12T10:54:47Z</time></trkpt><trkpt lat="42.28516458203724" lon="14.111012654313306"><ele>129.0</ele><time>2026-04-12T10:54:48Z</time></trkpt><trkpt lat="42.285203304680344" lon="14.111158994373273"><ele>131.0</ele><time>2026-04-12T10:54:49Z</time></trkpt><trkpt lat="42.28523979768549" lon="14.111317143204966"><ele>133.0</ele><time>2026-04-12T10:54:50Z</time></trkpt><trkpt lat="42.285273965564606" lon="14.111467820699032"><ele>135.0</ele><time>2026-04-12T10:54:51Z</time></trkpt><trkpt lat="42.28530866240273" lon="14.111599244691886"><ele>135.8</ele><time>2026-04-12T10:54:52Z</time></trkpt><trkpt lat="42.28533249122861" lon="14.111719589345201"><ele>136.6</ele><time>2026-04-12T10:54:53Z</time></trkpt><trkpt lat="42.285369312101345" lon="14.11181608769431"><ele>137.4</ele><time>2026-04-12T10:54:54Z</time></trkpt><trkpt lat="42.28541563636814" lon="14.111977866459982"><ele>138.2</ele><time>2026-04-12T10:54:55.999Z</time></trkpt><trkpt lat="42.28545834931969" lon="14.112056341428824"><ele>139.0</ele><time>2026-04-12T10:54:56.999Z</time></trkpt><trkpt lat="42.28551336904673" lon="14.112148224116398"><ele>139.0</ele><time>2026-04-12T10:54:57.999Z</time></trkpt><trkpt lat="42.28558066595417" lon="14.112258628220166"><ele>139.0</ele><time>2026-04-12T10:54:58.999Z</time></trkpt><trkpt lat="42.285653273078296" lon="14.112374236471117"><ele>139.0</ele><time>2026-04-12T10:54:59.999Z</time></trkpt><trkpt lat="42.2857238458242" lon="14.112489317161856"><ele>139.0</ele><time>2026-04-12T10:55:00.999Z</time></trkpt><trkpt lat="42.28580363010488" lon="14.112607628834155"><ele>139.0</ele><time>2026-04-12T10:55:01.999Z</time></trkpt><trkpt lat="42.285888110610074" lon="14.1127247367313"><ele>136.75</ele><time>2026-04-12T10:55:02.999Z</time></trkpt><trkpt lat="42.28597354512982" lon="14.112853430393464"><ele>134.5</ele><time>2026-04-12T10:55:03.999Z</time></trkpt><trkpt lat="42.28605783824668" lon="14.112982137662604"><ele>132.25</ele><time>2026-04-12T10:55:04.999Z</time></trkpt><trkpt lat="42.286130108322105" lon="14.113106562993082"><ele>130.0</ele><time>2026-04-12T10:55:05.999Z</time></trkpt><trkpt lat="42.28617574027555" lon="14.113214464285463"><ele>131.8</ele><time>2026-04-12T10:55:06.999Z</time></trkpt><trkpt lat="42.286209628382636" lon="14.113320587756219"><ele>133.6</ele><time>2026-04-12T10:55:07.999Z</time></trkpt><trkpt lat="42.28623254689818" lon="14.113427213325936"><ele>135.4</ele><time>2026-04-12T10:55:08.999Z</time></trkpt><trkpt lat="42.2862403959211" lon="14.113558192167977"><ele>137.2</ele><time>2026-04-12T10:55:09.999Z</time></trkpt><trkpt lat="42.28625005426298" lon="14.113709756917654"><ele>139.0</ele><time>2026-04-12T10:55:10.999Z</time></trkpt><trkpt lat="42.28626325995824" lon="14.113862113561973"><ele>139.0</ele><time>2026-04-12T10:55:11.999Z</time></trkpt><trkpt lat="42.28627715494168" lon="14.114015959837873"><ele>139.0</ele><time>2026-04-12T10:55:12.999Z</time></trkpt><trkpt lat="42.286290259876445" lon="14.114171459792574"><ele>139.0</ele><time>2026-04-12T10:55:13.999Z</time></trkpt><trkpt lat="42.286303061022934" lon="14.114315224088068"><ele>139.0</ele><time>2026-04-12T10:55:14.999Z</time></trkpt><trkpt lat="42.286315621049866" lon="14.11444114963558"><ele>139.0</ele><time>2026-04-12T10:55:15.999Z</time></trkpt><trkpt lat="42.286326914947054" lon="14.11456865282608"><ele>140.0</ele><time>2026-04-12T10:55:16.999Z</time></trkpt><trkpt lat="42.28634094821052" lon="14.114719301721873"><ele>141.0</ele><time>2026-04-12T10:55:17.999Z</time></trkpt><trkpt lat="42.286354342720486" lon="14.11486107945281"><ele>142.0</ele><time>2026-04-12T10:55:18.999Z</time></trkpt><trkpt lat="42.28636510801223" lon="14.114964285234297"><ele>143.0</ele><time>2026-04-12T10:55:19.999Z</time></trkpt><trkpt lat="42.286381475464765" lon="14.11505228541451"><ele>144.0</ele><time>2026-04-12T10:55:20.999Z</time></trkpt><trkpt lat="42.286408426877486" lon="14.115171712192447"><ele>142.6</ele><time>2026-04-12T10:55:21.999Z</time></trkpt><trkpt lat="42.2864494244428" lon="14.115309645944338"><ele>141.2</ele><time>2026-04-12T10:55:22.999Z</time></trkpt><trkpt lat="42.28648335095587" lon="14.115448593245162"><ele>139.79999999999998</ele><time>2026-04-12T10:55:23.999Z</time></trkpt><trkpt lat="42.28651816007258" lon="14.115568220998917"><ele>138.4</ele><time>2026-04-12T10:55:24.999Z</time></trkpt><trkpt lat="42.28654421081949" lon="14.115681235662104"><ele>137.0</ele><time>2026-04-12T10:55:25.999Z</time></trkpt><trkpt lat="42.286548696248865" lon="14.115784825325399"><ele>137.0</ele><time>2026-04-12T10:55:26.999Z</time></trkpt><trkpt lat="42.2865267903838" lon="14.11587630946396"><ele>137.0</ele><time>2026-04-12T10:55:27.999Z</time></trkpt><trkpt lat="42.28651057573105" lon="14.11597688393422"><ele>137.0</ele><time>2026-04-12T10:55:28.999Z</time></trkpt><trkpt lat="42.2864776644794" lon="14.116089258635432"><ele>137.0</ele><time>2026-04-12T10:55:29.999Z</time></trkpt><trkpt lat="42.28641326711828" lon="14.116213859837863"><ele>137.0</ele><time>2026-04-12T10:55:30.999Z</time></trkpt><trkpt lat="42.28634522627045" lon="14.116336860893156"><ele>139.0</ele><time>2026-04-12T10:55:31.999Z</time></trkpt><trkpt lat="42.28626910277693" lon="14.116453300034262"><ele>141.0</ele><time>2026-04-12T10:55:32.999Z</time></trkpt><trkpt lat="42.28621049603485" lon="14.116566492034302"><ele>143.0</ele><time>2026-04-12T10:55:33.999Z</time></trkpt><trkpt lat="42.28617265798648" lon="14.116663529484143"><ele>145.0</ele><time>2026-04-12T10:55:34.999Z</time></trkpt><trkpt lat="42.2861487807582" lon="14.116755098517446"><ele>147.0</ele><time>2026-04-12T10:55:35.999Z</time></trkpt><trkpt lat="42.28613143772586" lon="14.116859135067724"><ele>149.0</ele><time>2026-04-12T10:55:36.999Z</time></trkpt><trkpt lat="42.28612614332614" lon="14.116995191800374"><ele>149.0</ele><time>2026-04-12T10:55:37.999Z</time></trkpt><trkpt lat="42.28612408609165" lon="14.117148696707254"><ele>149.0</ele><time>2026-04-12T10:55:38.999Z</time></trkpt><trkpt lat="42.28611294458723" lon="14.117305763976985"><ele>149.0</ele><time>2026-04-12T10:55:39.999Z</time></trkpt><trkpt lat="42.286102383725066" lon="14.11745962288647"><ele>149.0</ele><time>2026-04-12T10:55:40.999Z</time></trkpt><trkpt lat="42.2860934920855" lon="14.117615788679146"><ele>149.5</ele><time>2026-04-12T10:55:41.999Z</time></trkpt><trkpt lat="42.286082590296935" lon="14.11777318938579"><ele>150.0</ele><time>2026-04-12T10:55:42.999Z</time></trkpt><trkpt lat="42.28605057146924" lon="14.117932619002405"><ele>150.5</ele><time>2026-04-12T10:55:43.999Z</time></trkpt><trkpt lat="42.2860088153524" lon="14.118077690112033"><ele>151.0</ele><time>2026-04-12T10:55:44.999Z</time></trkpt><trkpt lat="42.28596564026533" lon="14.118208215379193"><ele>151.8</ele><time>2026-04-12T10:55:45.999Z</time></trkpt><trkpt lat="42.28592620222441" lon="14.118348181483091"><ele>152.6</ele><time>2026-04-12T10:55:46.999Z</time></trkpt><trkpt lat="42.285890287929426" lon="14.118500164680174"><ele>153.4</ele><time>2026-04-12T10:55:47.999Z</time></trkpt><trkpt lat="42.285857423916596" lon="14.11862938301934"><ele>154.2</ele><time>2026-04-12T10:55:48.999Z</time></trkpt><trkpt lat="42.285838495659355" lon="14.118735655270273"><ele>155.0</ele><time>2026-04-12T10:55:49.999Z</time></trkpt><trkpt lat="42.28583129428894" lon="14.118847787227793"><ele>155.0</ele><time>2026-04-12T10:55:50.999Z</time></trkpt><trkpt lat="42.285822284240034" lon="14.118985039462615"><ele>155.0</ele><time>2026-04-12T10:55:51.999Z</time></trkpt><trkpt lat="42.28579635702859" lon="14.119122919921788"><ele>155.0</ele><time>2026-04-12T10:55:52.999Z</time></trkpt><trkpt lat="42.28574680784478" lon="14.119222347246941"><ele>155.0</ele><time>2026-04-12T10:55:53.999Z</time></trkpt><trkpt lat="42.28569336328" lon="14.119309290581654"><ele>155.0</ele><time>2026-04-12T10:55:54.999Z</time></trkpt><trkpt lat="42.28562786573913" lon="14.11940239433379"><ele>158.4</ele><time>2026-04-12T10:55:55.999Z</time></trkpt><trkpt lat="42.28556853209663" lon="14.119481610309153"><ele>161.8</ele><time>2026-04-12T10:55:56.999Z</time></trkpt><trkpt lat="42.28549460111624" lon="14.1195530314163"><ele>165.2</ele><time>2026-04-12T10:55:57.999Z</time></trkpt><trkpt lat="42.28540997954623" lon="14.119634410314283"><ele>168.6</ele><time>2026-04-12T10:55:58.998Z</time></trkpt><trkpt lat="42.285332907695576" lon="14.119706388939605"><ele>172.0</ele><time>2026-04-12T10:55:59.998Z</time></trkpt><trkpt lat="42.28524687076293" lon="14.119766731530735"><ele>172.0</ele><time>2026-04-12T10:56:00.998Z</time></trkpt><trkpt lat="42.28515317722214" lon="14.119820379017549"><ele>172.0</ele><time>2026-04-12T10:56:01.998Z</time></trkpt><trkpt lat="42.28507686696825" lon="14.11989722783435"><ele>172.0</ele><time>2026-04-12T10:56:02.998Z</time></trkpt><trkpt lat="42.28498854795135" lon="14.119972840243559"><ele>172.0</ele><time>2026-04-12T10:56:03.998Z</time></trkpt><trkpt lat="42.28489794152194" lon="14.12004708509033"><ele>172.0</ele><time>2026-04-12T10:56:04.998Z</time></trkpt><trkpt lat="42.28480783216627" lon="14.120115929400912"><ele>174.83333333333334</ele><time>2026-04-12T10:56:05.998Z</time></trkpt><trkpt lat="42.28474026852207" lon="14.12018004110127"><ele>177.66666666666669</ele><time>2026-04-12T10:56:06.998Z</time></trkpt><trkpt lat="42.28468724348206" lon="14.12023151008346"><ele>180.5</ele><time>2026-04-12T10:56:07.998Z</time></trkpt><trkpt lat="42.284634493682155" lon="14.12028325614447"><ele>183.33333333333334</ele><time>2026-04-12T10:56:08.998Z</time></trkpt><trkpt lat="42.28457002550079" lon="14.120410653888353"><ele>186.16666666666666</ele><time>2026-04-12T10:56:10.998Z</time></trkpt><trkpt lat="42.284530105620334" lon="14.120500478472415"><ele>189.0</ele><time>2026-04-12T10:56:11.998Z</time></trkpt><trkpt lat="42.284485422995566" lon="14.120636304052393"><ele>189.0</ele><time>2026-04-12T10:56:13.998Z</time></trkpt><trkpt lat="42.28446322890944" lon="14.120716047375826"><ele>189.0</ele><time>2026-04-12T10:56:14.998Z</time></trkpt><trkpt lat="42.284442489254474" lon="14.120805455612249"><ele>189.0</ele><time>2026-04-12T10:56:15.998Z</time></trkpt><trkpt lat="42.28441564900853" lon="14.120977250947325"><ele>189.0</ele><time>2026-04-12T10:56:17.998Z</time></trkpt><trkpt lat="42.284399040780166" lon="14.121074534370594"><ele>189.0</ele><time>2026-04-12T10:56:18.998Z</time></trkpt><trkpt lat="42.28439309595999" lon="14.121171657415152"><ele>189.0</ele><time>2026-04-12T10:56:20Z</time></trkpt><trkpt lat="42.28438903135781" lon="14.121279747194306"><ele>189.0</ele><time>2026-04-12T10:56:21Z</time></trkpt><trkpt lat="42.28438016037573" lon="14.121388657228207"><ele>189.0</ele><time>2026-04-12T10:56:22Z</time></trkpt><trkpt lat="42.28436965776583" lon="14.121494327174249"><ele>189.0</ele><time>2026-04-12T10:56:23Z</time></trkpt><trkpt lat="42.28435598752866" lon="14.121616567697492"><ele>189.0</ele><time>2026-04-12T10:56:24Z</time></trkpt><trkpt lat="42.284336947609496" lon="14.121746897821492"><ele>189.0</ele><time>2026-04-12T10:56:25Z</time></trkpt><trkpt lat="42.28430627744171" lon="14.121880530114113"><ele>189.0</ele><time>2026-04-12T10:56:26Z</time></trkpt><trkpt lat="42.28426316627442" lon="14.12199511170114"><ele>189.0</ele><time>2026-04-12T10:56:27Z</time></trkpt><trkpt lat="42.284203684038644" lon="14.12208166264274"><ele>189.0</ele><time>2026-04-12T10:56:28Z</time></trkpt><trkpt lat="42.284129342623" lon="14.12213113908792"><ele>189.0</ele><time>2026-04-12T10:56:29Z</time></trkpt><trkpt lat="42.284042669010134" lon="14.122142416790533"><ele>189.0</ele><time>2026-04-12T10:56:30Z</time></trkpt><trkpt lat="42.28394288354997" lon="14.122141999191149"><ele>194.2</ele><time>2026-04-12T10:56:31Z</time></trkpt><trkpt lat="42.28385387855514" lon="14.122114923885412"><ele>199.39999999999998</ele><time>2026-04-12T10:56:32Z</time></trkpt><trkpt lat="42.28377974281597" lon="14.122049638110777"><ele>204.6</ele><time>2026-04-12T10:56:33Z</time></trkpt><trkpt lat="42.283719573233384" lon="14.121945566239951"><ele>209.8</ele><time>2026-04-12T10:56:34Z</time></trkpt><trkpt lat="42.28365181888025" lon="14.121840470154229"><ele>215.0</ele><time>2026-04-12T10:56:35Z</time></trkpt><trkpt lat="42.283596638628715" lon="14.121732934913135"><ele>215.0</ele><time>2026-04-12T10:56:36Z</time></trkpt><trkpt lat="42.283543559864064" lon="14.121633424650165"><ele>215.0</ele><time>2026-04-12T10:56:37Z</time></trkpt><trkpt lat="42.28348222830929" lon="14.121535706347569"><ele>215.0</ele><time>2026-04-12T10:56:38Z</time></trkpt><trkpt lat="42.28341780569334" lon="14.121423247460077"><ele>215.0</ele><time>2026-04-12T10:56:39Z</time></trkpt><trkpt lat="42.28335208709994" lon="14.121290632764543"><ele>215.0</ele><time>2026-04-12T10:56:40Z</time></trkpt><trkpt lat="42.28329478042884" lon="14.121160775370525"><ele>215.0</ele><time>2026-04-12T10:56:41Z</time></trkpt><trkpt lat="42.283240161383034" lon="14.121032123471803"><ele>215.0</ele><time>2026-04-12T10:56:42Z</time></trkpt><trkpt lat="42.28319796978542" lon="14.120914963548511"><ele>215.0</ele><time>2026-04-12T10:56:43Z</time></trkpt><trkpt lat="42.2831613361931" lon="14.120788091491569"><ele>215.0</ele><time>2026-04-12T10:56:44Z</time></trkpt><trkpt lat="42.28313264316273" lon="14.120647388035039"><ele>215.0</ele><time>2026-04-12T10:56:45Z</time></trkpt><trkpt lat="42.28309755363675" lon="14.120502953368078"><ele>218.75</ele><time>2026-04-12T10:56:46Z</time></trkpt><trkpt lat="42.28304499443859" lon="14.120348432798709"><ele>222.5</ele><time>2026-04-12T10:56:47Z</time></trkpt><trkpt lat="42.28299387921341" lon="14.120182795831461"><ele>226.25</ele><time>2026-04-12T10:56:48Z</time></trkpt><trkpt lat="42.28293840489348" lon="14.119991935031782"><ele>230.0</ele><time>2026-04-12T10:56:49Z</time></trkpt><trkpt lat="42.2828854777307" lon="14.11980248343731"><ele>230.0</ele><time>2026-04-12T10:56:50Z</time></trkpt><trkpt lat="42.28283523136505" lon="14.119620275418988"><ele>230.0</ele><time>2026-04-12T10:56:51Z</time></trkpt><trkpt lat="42.282788604385075" lon="14.119460809733704"><ele>230.0</ele><time>2026-04-12T10:56:52Z</time></trkpt><trkpt lat="42.28273408121446" lon="14.119283436547539"><ele>230.0</ele><time>2026-04-12T10:56:53Z</time></trkpt><trkpt lat="42.282683797676526" lon="14.11910434395571"><ele>229.0</ele><time>2026-04-12T10:56:54Z</time></trkpt><trkpt lat="42.282635267864734" lon="14.118930096290136"><ele>228.0</ele><time>2026-04-12T10:56:55Z</time></trkpt><trkpt lat="42.28258782110305" lon="14.11875397048621"><ele>227.0</ele><time>2026-04-12T10:56:55.999Z</time></trkpt><trkpt lat="42.282533311346796" lon="14.118575380871905"><ele>226.0</ele><time>2026-04-12T10:56:56.999Z</time></trkpt><trkpt lat="42.282473563749065" lon="14.118396869740316"><ele>225.25</ele><time>2026-04-12T10:56:57.999Z</time></trkpt><trkpt lat="42.28241240205906" lon="14.118225708960104"><ele>224.5</ele><time>2026-04-12T10:56:58.999Z</time></trkpt><trkpt lat="42.28235124103348" lon="14.118058837688976"><ele>223.75</ele><time>2026-04-12T10:56:59.999Z</time></trkpt><trkpt lat="42.28227829815909" lon="14.117897287894886"><ele>223.0</ele><time>2026-04-12T10:57:00.999Z</time></trkpt><trkpt lat="42.28220516253472" lon="14.11775756876885"><ele>222.99999999999997</ele><time>2026-04-12T10:57:01.999Z</time></trkpt><trkpt lat="42.28213564941034" lon="14.11765138361098"><ele>223.0</ele><time>2026-04-12T10:57:02.999Z</time></trkpt><trkpt lat="42.282076173509104" lon="14.117581712959694"><ele>223.0</ele><time>2026-04-12T10:57:03.999Z</time></trkpt><trkpt lat="42.28199154843266" lon="14.117626059815473"><ele>223.0</ele><time>2026-04-12T10:57:07.999Z</time></trkpt><trkpt lat="42.28199477695593" lon="14.117731517959509"><ele>222.99999999999997</ele><time>2026-04-12T10:57:08.999Z</time></trkpt><trkpt lat="42.282012336146785" lon="14.117844268078379"><ele>223.0</ele><time>2026-04-12T10:57:09.999Z</time></trkpt><trkpt lat="42.282017314548526" lon="14.117987038894983"><ele>223.0</ele><time>2026-04-12T10:57:11.999Z</time></trkpt><trkpt lat="42.2820145559427" lon="14.118084824984141"><ele>223.0</ele><time>2026-04-12T10:57:12.999Z</time></trkpt><trkpt lat="42.28200967954019" lon="14.118216142804638"><ele>223.0</ele><time>2026-04-12T10:57:13.999Z</time></trkpt><trkpt lat="42.28199962471727" lon="14.118362257008297"><ele>223.0</ele><time>2026-04-12T10:57:14.999Z</time></trkpt><trkpt lat="42.28198626051697" lon="14.118523096589318"><ele>223.0</ele><time>2026-04-12T10:57:15.999Z</time></trkpt><trkpt lat="42.28196782362781" lon="14.11867398130978"><ele>224.25</ele><time>2026-04-12T10:57:16.999Z</time></trkpt><trkpt lat="42.2819479752274" lon="14.118843249047377"><ele>225.5</ele><time>2026-04-12T10:57:17.999Z</time></trkpt><trkpt lat="42.281923141479766" lon="14.11902735241066"><ele>226.75</ele><time>2026-04-12T10:57:18.999Z</time></trkpt><trkpt lat="42.2818983872213" lon="14.119226837181413"><ele>228.0</ele><time>2026-04-12T10:57:19.999Z</time></trkpt><trkpt lat="42.28187699383359" lon="14.11943720962244"><ele>230.66666666666669</ele><time>2026-04-12T10:57:20.999Z</time></trkpt><trkpt lat="42.28186994036997" lon="14.119655235528965"><ele>233.33333333333334</ele><time>2026-04-12T10:57:21.999Z</time></trkpt><trkpt lat="42.28189176776295" lon="14.119857863210408"><ele>236.0</ele><time>2026-04-12T10:57:22.999Z</time></trkpt><trkpt lat="42.28193951480123" lon="14.12007005058673"><ele>238.0</ele><time>2026-04-12T10:57:23.999Z</time></trkpt><trkpt lat="42.28199654200583" lon="14.120285908162796"><ele>240.0</ele><time>2026-04-12T10:57:24.999Z</time></trkpt><trkpt lat="42.28205031011663" lon="14.120507146940682"><ele>242.0</ele><time>2026-04-12T10:57:25.999Z</time></trkpt><trkpt lat="42.28208089536585" lon="14.120724132347174"><ele>244.0</ele><time>2026-04-12T10:57:26.999Z</time></trkpt><trkpt lat="42.282086919067886" lon="14.120932298691624"><ele>246.0</ele><time>2026-04-12T10:57:27.999Z</time></trkpt><trkpt lat="42.28207409670001" lon="14.121140921888957"><ele>248.0</ele><time>2026-04-12T10:57:28.999Z</time></trkpt><trkpt lat="42.282043964016744" lon="14.121352163080052"><ele>248.0</ele><time>2026-04-12T10:57:29.999Z</time></trkpt><trkpt lat="42.2820070169827" lon="14.121551431049193"><ele>248.0</ele><time>2026-04-12T10:57:30.999Z</time></trkpt><trkpt lat="42.281972314680736" lon="14.121761289693794"><ele>248.0</ele><time>2026-04-12T10:57:31.999Z</time></trkpt><trkpt lat="42.28197858190832" lon="14.121971564582212"><ele>249.33333333333334</ele><time>2026-04-12T10:57:32.999Z</time></trkpt><trkpt lat="42.28201079924225" lon="14.12218289462704"><ele>250.66666666666669</ele><time>2026-04-12T10:57:33.999Z</time></trkpt><trkpt lat="42.2820547377608" lon="14.122405872805269"><ele>252.0</ele><time>2026-04-12T10:57:34.999Z</time></trkpt><trkpt lat="42.28209935689086" lon="14.122635381903693"><ele>254.33333333333331</ele><time>2026-04-12T10:57:35.999Z</time></trkpt><trkpt lat="42.282125675377536" lon="14.122875727037508"><ele>256.66666666666663</ele><time>2026-04-12T10:57:36.999Z</time></trkpt><trkpt lat="42.282136490987995" lon="14.123115206773377"><ele>259.0</ele><time>2026-04-12T10:57:37.999Z</time></trkpt><trkpt lat="42.28213527207159" lon="14.123360623707777"><ele>263.0</ele><time>2026-04-12T10:57:38.999Z</time></trkpt><trkpt lat="42.28213840975482" lon="14.123606569847556"><ele>267.0</ele><time>2026-04-12T10:57:39.999Z</time></trkpt><trkpt lat="42.282144324203784" lon="14.123851630400925"><ele>271.0</ele><time>2026-04-12T10:57:40.999Z</time></trkpt><trkpt lat="42.28214938933168" lon="14.124095132333883"><ele>273.66666666666663</ele><time>2026-04-12T10:57:41.999Z</time></trkpt><trkpt lat="42.28215769439493" lon="14.124338501244088"><ele>276.3333333333333</ele><time>2026-04-12T10:57:42.999Z</time></trkpt><trkpt lat="42.28217643242863" lon="14.124582793293659"><ele>279.0</ele><time>2026-04-12T10:57:43.999Z</time></trkpt><trkpt lat="42.28219980812126" lon="14.12482319950982"><ele>279.6666666666667</ele><time>2026-04-12T10:57:44.999Z</time></trkpt><trkpt lat="42.282224469385355" lon="14.125065534044198"><ele>280.33333333333337</ele><time>2026-04-12T10:57:45.999Z</time></trkpt><trkpt lat="42.28224939086915" lon="14.12531370330325"><ele>281.0</ele><time>2026-04-12T10:57:46.999Z</time></trkpt><trkpt lat="42.28227277343351" lon="14.125566244120092"><ele>283.6666666666667</ele><time>2026-04-12T10:57:47.999Z</time></trkpt><trkpt lat="42.28229617329188" lon="14.125824732542005"><ele>286.3333333333333</ele><time>2026-04-12T10:57:48.999Z</time></trkpt><trkpt lat="42.282322237009716" lon="14.12606809353911"><ele>289.0</ele><time>2026-04-12T10:57:49.999Z</time></trkpt><trkpt lat="42.282362415298635" lon="14.126270524585422"><ele>289.0</ele><time>2026-04-12T10:57:50.999Z</time></trkpt><trkpt lat="42.28242415035875" lon="14.126474755041889"><ele>289.0</ele><time>2026-04-12T10:57:51.999Z</time></trkpt><trkpt lat="42.28249526278592" lon="14.126646156206649"><ele>289.0</ele><time>2026-04-12T10:57:52.999Z</time></trkpt><trkpt lat="42.282552972067585" lon="14.12678731842379"><ele>289.0</ele><time>2026-04-12T10:57:53.999Z</time></trkpt><trkpt lat="42.28260139660172" lon="14.126900423594938"><ele>291.2</ele><time>2026-04-12T10:57:54.999Z</time></trkpt><trkpt lat="42.28262781439474" lon="14.126984264203351"><ele>293.4</ele><time>2026-04-12T10:57:55.999Z</time></trkpt><trkpt lat="42.282688486329235" lon="14.127169478248465"><ele>295.6</ele><time>2026-04-12T10:57:57.999Z</time></trkpt><trkpt lat="42.28274812801437" lon="14.127286656009101"><ele>297.8</ele><time>2026-04-12T10:57:58.998Z</time></trkpt><trkpt lat="42.282820985376716" lon="14.127399555169456"><ele>300.0</ele><time>2026-04-12T10:57:59.998Z</time></trkpt><trkpt lat="42.28288008174722" lon="14.127492699163806"><ele>300.1666666666667</ele><time>2026-04-12T10:58:00.998Z</time></trkpt><trkpt lat="42.282932719596594" lon="14.127575833507773"><ele>300.3333333333333</ele><time>2026-04-12T10:58:01.998Z</time></trkpt><trkpt lat="42.28298018733794" lon="14.127661128415896"><ele>300.5</ele><time>2026-04-12T10:58:02.998Z</time></trkpt><trkpt lat="42.283028571239825" lon="14.127751345658984"><ele>300.66666666666663</ele><time>2026-04-12T10:58:03.998Z</time></trkpt><trkpt lat="42.28307774324304" lon="14.12784590402198"><ele>300.8333333333333</ele><time>2026-04-12T10:58:04.998Z</time></trkpt><trkpt lat="42.28313403448722" lon="14.127942604069279"><ele>301.0</ele><time>2026-04-12T10:58:05.998Z</time></trkpt><trkpt lat="42.283187851792235" lon="14.128042516886017"><ele>301.2</ele><time>2026-04-12T10:58:06.998Z</time></trkpt><trkpt lat="42.283246858197714" lon="14.128146478756607"><ele>301.40000000000003</ele><time>2026-04-12T10:58:07.998Z</time></trkpt><trkpt lat="42.28330442671504" lon="14.128245654588172"><ele>301.6</ele><time>2026-04-12T10:58:08.998Z</time></trkpt><trkpt lat="42.28335762688779" lon="14.128333921213317"><ele>301.8</ele><time>2026-04-12T10:58:09.998Z</time></trkpt><trkpt lat="42.28341336102876" lon="14.128425828891682"><ele>302.0</ele><time>2026-04-12T10:58:10.998Z</time></trkpt><trkpt lat="42.28347687921215" lon="14.128517714130371"><ele>302.0</ele><time>2026-04-12T10:58:11.998Z</time></trkpt><trkpt lat="42.28354820845391" lon="14.128599410940087"><ele>302.0</ele><time>2026-04-12T10:58:12.998Z</time></trkpt><trkpt lat="42.283620993563154" lon="14.128657006985298"><ele>302.0</ele><time>2026-04-12T10:58:13.998Z</time></trkpt><trkpt lat="42.28369700655911" lon="14.128693904750147"><ele>302.0</ele><time>2026-04-12T10:58:14.998Z</time></trkpt><trkpt lat="42.283788661004714" lon="14.128710662172413"><ele>302.0</ele><time>2026-04-12T10:58:15.998Z</time></trkpt><trkpt lat="42.28387857564279" lon="14.128704623628842"><ele>302.0</ele><time>2026-04-12T10:58:16.998Z</time></trkpt><trkpt lat="42.28397038568791" lon="14.128696194281428"><ele>302.4</ele><time>2026-04-12T10:58:17.998Z</time></trkpt><trkpt lat="42.28407129847043" lon="14.12870406789542"><ele>302.79999999999995</ele><time>2026-04-12T10:58:18.998Z</time></trkpt><trkpt lat="42.284179102712045" lon="14.128735017535982"><ele>303.2</ele><time>2026-04-12T10:58:19.998Z</time></trkpt><trkpt lat="42.284284440093174" lon="14.128794773785506"><ele>303.59999999999997</ele><time>2026-04-12T10:58:20.998Z</time></trkpt><trkpt lat="42.28437725757798" lon="14.128870102713732"><ele>304.0</ele><time>2026-04-12T10:58:21.998Z</time></trkpt><trkpt lat="42.28445313458331" lon="14.12895383652485"><ele>304.0</ele><time>2026-04-12T10:58:22.998Z</time></trkpt><trkpt lat="42.28452956840248" lon="14.12904827340627"><ele>304.0</ele><time>2026-04-12T10:58:23.998Z</time></trkpt><trkpt lat="42.28461423220684" lon="14.129142885247926"><ele>304.0</ele><time>2026-04-12T10:58:24.998Z</time></trkpt><trkpt lat="42.28470663201327" lon="14.12923761025691"><ele>304.0</ele><time>2026-04-12T10:58:26Z</time></trkpt><trkpt lat="42.28479937456366" lon="14.129323395609227"><ele>304.0</ele><time>2026-04-12T10:58:27Z</time></trkpt><trkpt lat="42.28488548976026" lon="14.129405678648045"><ele>303.59999999999997</ele><time>2026-04-12T10:58:28Z</time></trkpt><trkpt lat="42.28496676065774" lon="14.129492189602669"><ele>303.2</ele><time>2026-04-12T10:58:29Z</time></trkpt><trkpt lat="42.285045178416716" lon="14.129592158520724"><ele>302.79999999999995</ele><time>2026-04-12T10:58:30Z</time></trkpt><trkpt lat="42.28512774468733" lon="14.129697528853583"><ele>302.4</ele><time>2026-04-12T10:58:31Z</time></trkpt><trkpt lat="42.28520776464624" lon="14.129805292728843"><ele>302.0</ele><time>2026-04-12T10:58:32Z</time></trkpt><trkpt lat="42.28528783939583" lon="14.129916433317925"><ele>303.25</ele><time>2026-04-12T10:58:33Z</time></trkpt><trkpt lat="42.28536974335659" lon="14.13003022917505"><ele>304.5</ele><time>2026-04-12T10:58:34Z</time></trkpt><trkpt lat="42.28545185065876" lon="14.130148752845805"><ele>305.75</ele><time>2026-04-12T10:58:35Z</time></trkpt><trkpt lat="42.28553395349766" lon="14.130275557241307"><ele>307.0</ele><time>2026-04-12T10:58:36Z</time></trkpt><trkpt lat="42.28560757033735" lon="14.130413254228587"><ele>304.75</ele><time>2026-04-12T10:58:37Z</time></trkpt><trkpt lat="42.285678322867135" lon="14.130562026354502"><ele>302.5</ele><time>2026-04-12T10:58:38Z</time></trkpt><trkpt lat="42.285745669925774" lon="14.130713706830287"><ele>300.25</ele><time>2026-04-12T10:58:39Z</time></trkpt><trkpt lat="42.28581942186254" lon="14.130875073661015"><ele>298.0</ele><time>2026-04-12T10:58:40Z</time></trkpt><trkpt lat="42.28589334437908" lon="14.131024900923038"><ele>298.0</ele><time>2026-04-12T10:58:41Z</time></trkpt><trkpt lat="42.285964123264364" lon="14.131155395353533"><ele>298.0</ele><time>2026-04-12T10:58:42Z</time></trkpt><trkpt lat="42.286043077764376" lon="14.131287949184822"><ele>298.0</ele><time>2026-04-12T10:58:43Z</time></trkpt><trkpt lat="42.2861308735564" lon="14.13142032746238"><ele>298.0</ele><time>2026-04-12T10:58:44Z</time></trkpt><trkpt lat="42.2862231119462" lon="14.131555684252364"><ele>298.8</ele><time>2026-04-12T10:58:45Z</time></trkpt><trkpt lat="42.286305911386094" lon="14.131682489208211"><ele>299.6</ele><time>2026-04-12T10:58:46Z</time></trkpt><trkpt lat="42.28637531829472" lon="14.131797407528715"><ele>300.4</ele><time>2026-04-12T10:58:47Z</time></trkpt><trkpt lat="42.28643624054557" lon="14.131901344623449"><ele>301.2</ele><time>2026-04-12T10:58:48Z</time></trkpt><trkpt lat="42.286490606054635" lon="14.132007152850012"><ele>302.0</ele><time>2026-04-12T10:58:49Z</time></trkpt><trkpt lat="42.286547234087976" lon="14.13211262501579"><ele>300.0</ele><time>2026-04-12T10:58:50Z</time></trkpt><trkpt lat="42.286607203863625" lon="14.132222795496544"><ele>298.0</ele><time>2026-04-12T10:58:51Z</time></trkpt><trkpt lat="42.286662831122634" lon="14.132345296993918"><ele>296.0</ele><time>2026-04-12T10:58:52Z</time></trkpt><trkpt lat="42.286703422842585" lon="14.132490832049738"><ele>294.0</ele><time>2026-04-12T10:58:53Z</time></trkpt><trkpt lat="42.286733270195434" lon="14.132646594859526"><ele>292.0</ele><time>2026-04-12T10:58:54Z</time></trkpt><trkpt lat="42.28675678636178" lon="14.132795744936004"><ele>292.0</ele><time>2026-04-12T10:58:55Z</time></trkpt><trkpt lat="42.28678100714069" lon="14.132927727390548"><ele>292.0</ele><time>2026-04-12T10:58:56Z</time></trkpt><trkpt lat="42.286802024193605" lon="14.133045384139638"><ele>292.0</ele><time>2026-04-12T10:58:57Z</time></trkpt><trkpt lat="42.2868270538689" lon="14.133159826431427"><ele>292.0</ele><time>2026-04-12T10:58:58Z</time></trkpt><trkpt lat="42.28687197021523" lon="14.13326667612805"><ele>292.0</ele><time>2026-04-12T10:58:59Z</time></trkpt><trkpt lat="42.28694202161128" lon="14.13335447376682"><ele>291.4</ele><time>2026-04-12T10:58:59.999Z</time></trkpt><trkpt lat="42.287031694230684" lon="14.13341404536614"><ele>290.79999999999995</ele><time>2026-04-12T10:59:00.999Z</time></trkpt><trkpt lat="42.28713104812202" lon="14.133451349265561"><ele>290.2</ele><time>2026-04-12T10:59:01.999Z</time></trkpt><trkpt lat="42.287235065457516" lon="14.133481452809951"><ele>289.59999999999997</ele><time>2026-04-12T10:59:02.999Z</time></trkpt><trkpt lat="42.28733784496713" lon="14.133521550274022"><ele>289.0</ele><time>2026-04-12T10:59:03.999Z</time></trkpt><trkpt lat="42.28744443729473" lon="14.13357096605871"><ele>289.0</ele><time>2026-04-12T10:59:04.999Z</time></trkpt><trkpt lat="42.2875585102175" lon="14.133613632779449"><ele>289.0</ele><time>2026-04-12T10:59:05.999Z</time></trkpt><trkpt lat="42.28767832396256" lon="14.13365749445524"><ele>289.0</ele><time>2026-04-12T10:59:06.999Z</time></trkpt><trkpt lat="42.28779585285907" lon="14.133708031118893"><ele>289.0</ele><time>2026-04-12T10:59:07.999Z</time></trkpt><trkpt lat="42.28790740125547" lon="14.133774616503766"><ele>289.0</ele><time>2026-04-12T10:59:08.999Z</time></trkpt><trkpt lat="42.28800060424614" lon="14.133862398063062"><ele>289.0</ele><time>2026-04-12T10:59:09.999Z</time></trkpt><trkpt lat="42.28807565736911" lon="14.133976246759456"><ele>289.0</ele><time>2026-04-12T10:59:10.999Z</time></trkpt><trkpt lat="42.28813268344319" lon="14.134103715685132"><ele>289.0</ele><time>2026-04-12T10:59:11.999Z</time></trkpt><trkpt lat="42.28819158673959" lon="14.134234503638881"><ele>291.25</ele><time>2026-04-12T10:59:12.999Z</time></trkpt><trkpt lat="42.28826001196504" lon="14.134361142913667"><ele>293.5</ele><time>2026-04-12T10:59:13.999Z</time></trkpt><trkpt lat="42.28833722223191" lon="14.134477442071573"><ele>295.75</ele><time>2026-04-12T10:59:14.999Z</time></trkpt><trkpt lat="42.28841888961176" lon="14.134590256029325"><ele>298.0</ele><time>2026-04-12T10:59:15.999Z</time></trkpt><trkpt lat="42.28850904394581" lon="14.134694961965634"><ele>298.0</ele><time>2026-04-12T10:59:16.999Z</time></trkpt><trkpt lat="42.28860767768652" lon="14.134786283498968"><ele>298.0</ele><time>2026-04-12T10:59:17.999Z</time></trkpt><trkpt lat="42.28871852532362" lon="14.134864612424124"><ele>298.0</ele><time>2026-04-12T10:59:18.999Z</time></trkpt><trkpt lat="42.288825430441875" lon="14.134945226843678"><ele>298.0</ele><time>2026-04-12T10:59:19.999Z</time></trkpt><trkpt lat="42.28892925610923" lon="14.13503557987318"><ele>301.0</ele><time>2026-04-12T10:59:20.999Z</time></trkpt><trkpt lat="42.28902853788127" lon="14.135136839557788"><ele>304.0</ele><time>2026-04-12T10:59:21.999Z</time></trkpt><trkpt lat="42.28912694094938" lon="14.135241522141836"><ele>307.0</ele><time>2026-04-12T10:59:22.999Z</time></trkpt><trkpt lat="42.28922446272501" lon="14.135350531856485"><ele>310.0</ele><time>2026-04-12T10:59:23.999Z</time></trkpt><trkpt lat="42.2893253515952" lon="14.135454852800711"><ele>310.0</ele><time>2026-04-12T10:59:24.999Z</time></trkpt><trkpt lat="42.28943095369248" lon="14.135550698026355"><ele>310.0</ele><time>2026-04-12T10:59:25.999Z</time></trkpt><trkpt lat="42.2895384543709" lon="14.135639916220793"><ele>310.0</ele><time>2026-04-12T10:59:26.999Z</time></trkpt><trkpt lat="42.289648805744605" lon="14.13571245720068"><ele>310.0</ele><time>2026-04-12T10:59:27.999Z</time></trkpt><trkpt lat="42.28974590735092" lon="14.135756877639317"><ele>310.2</ele><time>2026-04-12T10:59:28.999Z</time></trkpt><trkpt lat="42.28983892273063" lon="14.13578815370163"><ele>310.4</ele><time>2026-04-12T10:59:29.999Z</time></trkpt><trkpt lat="42.28992836496177" lon="14.135813734797843"><ele>310.6</ele><time>2026-04-12T10:59:30.999Z</time></trkpt><trkpt lat="42.29003023794387" lon="14.13584081036294"><ele>310.8</ele><time>2026-04-12T10:59:31.999Z</time></trkpt><trkpt lat="42.29013584150228" lon="14.135878297642739"><ele>311.0</ele><time>2026-04-12T10:59:32.999Z</time></trkpt><trkpt lat="42.29024075237802" lon="14.135920941007901"><ele>311.0</ele><time>2026-04-12T10:59:33.999Z</time></trkpt><trkpt lat="42.29034798929711" lon="14.135954883670713"><ele>311.0</ele><time>2026-04-12T10:59:34.999Z</time></trkpt><trkpt lat="42.29045809131496" lon="14.135986094835692"><ele>311.0</ele><time>2026-04-12T10:59:35.999Z</time></trkpt><trkpt lat="42.29056819012128" lon="14.136018099368542"><ele>311.0</ele><time>2026-04-12T10:59:36.999Z</time></trkpt><trkpt lat="42.29067560367908" lon="14.136049268297254"><ele>311.0</ele><time>2026-04-12T10:59:37.999Z</time></trkpt><trkpt lat="42.29077686228922" lon="14.136080073086694"><ele>312.0</ele><time>2026-04-12T10:59:38.999Z</time></trkpt><trkpt lat="42.290865088927696" lon="14.136111274411498"><ele>313.0</ele><time>2026-04-12T10:59:39.999Z</time></trkpt><trkpt lat="42.2909394622952" lon="14.136132928912321"><ele>314.0</ele><time>2026-04-12T10:59:40.999Z</time></trkpt><trkpt lat="42.29102800774009" lon="14.13613911458491"><ele>315.0</ele><time>2026-04-12T10:59:41.999Z</time></trkpt><trkpt lat="42.29111986196265" lon="14.13612267629263"><ele>316.0</ele><time>2026-04-12T10:59:42.999Z</time></trkpt><trkpt lat="42.29120298737372" lon="14.136095920561536"><ele>317.0</ele><time>2026-04-12T10:59:43.999Z</time></trkpt><trkpt lat="42.29126421739213" lon="14.136065811465766"><ele>317.0</ele><time>2026-04-12T10:59:44.999Z</time></trkpt><trkpt lat="42.29136969662574" lon="14.136041114878596"><ele>317.0</ele><time>2026-04-12T10:59:46.999Z</time></trkpt><trkpt lat="42.29142658966981" lon="14.135977846364902"><ele>317.0</ele><time>2026-04-12T10:59:48.999Z</time></trkpt><trkpt lat="42.29145222285008" lon="14.135894663283155"><ele>317.0</ele><time>2026-04-12T10:59:50.999Z</time></trkpt><trkpt lat="42.29140942441599" lon="14.1357990239386"><ele>317.0</ele><time>2026-04-12T10:59:51.999Z</time></trkpt><trkpt lat="42.291373281293794" lon="14.135701390876005"><ele>317.0</ele><time>2026-04-12T10:59:52.999Z</time></trkpt><trkpt lat="42.291325862230686" lon="14.135614397407288"><ele>318.83333333333337</ele><time>2026-04-12T10:59:53.999Z</time></trkpt><trkpt lat="42.29126083122516" lon="14.135521536086616"><ele>320.6666666666667</ele><time>2026-04-12T10:59:54.999Z</time></trkpt><trkpt lat="42.29121450213748" lon="14.135437883068128"><ele>322.5</ele><time>2026-04-12T10:59:56.999Z</time></trkpt><trkpt lat="42.29124629303222" lon="14.135601728504131"><ele>324.3333333333333</ele><time>2026-04-12T11:00:00.999Z</time></trkpt><trkpt lat="42.29129299858872" lon="14.135507775724856"><ele>326.16666666666663</ele><time>2026-04-12T11:00:02.999Z</time></trkpt><trkpt lat="42.291287669656164" lon="14.13541865795484"><ele>328.0</ele><time>2026-04-12T11:00:03.998Z</time></trkpt><trkpt lat="42.29125688995598" lon="14.135300710136843"><ele>328.0</ele><time>2026-04-12T11:00:04.998Z</time></trkpt><trkpt lat="42.291239715461664" lon="14.135164224616098"><ele>328.0</ele><time>2026-04-12T11:00:05.998Z</time></trkpt><trkpt lat="42.29120504942687" lon="14.135004931108467"><ele>328.0</ele><time>2026-04-12T11:00:06.998Z</time></trkpt><trkpt lat="42.29116699486831" lon="14.134844205384065"><ele>328.0</ele><time>2026-04-12T11:00:07.998Z</time></trkpt><trkpt lat="42.29111378183927" lon="14.134704259316903"><ele>326.25</ele><time>2026-04-12T11:00:08.998Z</time></trkpt><trkpt lat="42.29104765143809" lon="14.134558416066595"><ele>324.5</ele><time>2026-04-12T11:00:09.998Z</time></trkpt><trkpt lat="42.29094699952717" lon="14.134419144027552"><ele>322.75</ele><time>2026-04-12T11:00:10.998Z</time></trkpt><trkpt lat="42.29087389050704" lon="14.134265915559553"><ele>321.0</ele><time>2026-04-12T11:00:11.998Z</time></trkpt><trkpt lat="42.29080155628867" lon="14.134161784907066"><ele>321.0</ele><time>2026-04-12T11:00:12.998Z</time></trkpt><trkpt lat="42.29073915553309" lon="14.134092619948975"><ele>321.0</ele><time>2026-04-12T11:00:13.998Z</time></trkpt><trkpt lat="42.29064991170783" lon="14.134071317983603"><ele>321.0</ele><time>2026-04-12T11:00:15.998Z</time></trkpt><trkpt lat="42.29058582948485" lon="14.13403439704002"><ele>321.0</ele><time>2026-04-12T11:00:16.998Z</time></trkpt><trkpt lat="42.29051741302572" lon="14.134005110946804"><ele>321.0</ele><time>2026-04-12T11:00:17.998Z</time></trkpt><trkpt lat="42.29040341338414" lon="14.133953458219503"><ele>321.0</ele><time>2026-04-12T11:00:19.998Z</time></trkpt><trkpt lat="42.29028786778682" lon="14.133887938643651"><ele>320.71428571428567</ele><time>2026-04-12T11:00:21.998Z</time></trkpt><trkpt lat="42.29022332049696" lon="14.13386576904358"><ele>320.42857142857144</ele><time>2026-04-12T11:00:22.998Z</time></trkpt><trkpt lat="42.29016342840874" lon="14.133830058219495"><ele>320.1428571428571</ele><time>2026-04-12T11:00:23.998Z</time></trkpt><trkpt lat="42.29010503517944" lon="14.133782674277864"><ele>319.85714285714283</ele><time>2026-04-12T11:00:24.998Z</time></trkpt><trkpt lat="42.290039469974985" lon="14.133730955827998"><ele>319.57142857142856</ele><time>2026-04-12T11:00:25.998Z</time></trkpt><trkpt lat="42.28999283942578" lon="14.13365363800699"><ele>319.2857142857143</ele><time>2026-04-12T11:00:26.998Z</time></trkpt><trkpt lat="42.28994603591492" lon="14.133571892685298"><ele>319.0</ele><time>2026-04-12T11:00:27.998Z</time></trkpt><trkpt lat="42.289898099061794" lon="14.133486267105226"><ele>319.0</ele><time>2026-04-12T11:00:28.998Z</time></trkpt><trkpt lat="42.289866767377475" lon="14.13338561148121"><ele>319.0</ele><time>2026-04-12T11:00:29.998Z</time></trkpt><trkpt lat="42.28982404217291" lon="14.133289408701494"><ele>319.0</ele><time>2026-04-12T11:00:31Z</time></trkpt><trkpt lat="42.28976846197781" lon="14.133206322249523"><ele>319.0</ele><time>2026-04-12T11:00:32Z</time></trkpt><trkpt lat="42.289712910103106" lon="14.133145415174512"><ele>319.0</ele><time>2026-04-12T11:00:33Z</time></trkpt><trkpt lat="42.289629942218625" lon="14.133065461954097"><ele>319.0</ele><time>2026-04-12T11:00:35Z</time></trkpt><trkpt lat="42.28959094199787" lon="14.132984481047187"><ele>317.75</ele><time>2026-04-12T11:00:37Z</time></trkpt><trkpt lat="42.28962199426061" lon="14.132779949860803"><ele>316.5</ele><time>2026-04-12T11:00:39Z</time></trkpt><trkpt lat="42.28963612149421" lon="14.132655855098093"><ele>315.25</ele><time>2026-04-12T11:00:40Z</time></trkpt><trkpt lat="42.2896569934083" lon="14.132509188982976"><ele>314.0</ele><time>2026-04-12T11:00:41Z</time></trkpt><trkpt lat="42.289683569385275" lon="14.132353312252361"><ele>313.1666666666667</ele><time>2026-04-12T11:00:42Z</time></trkpt><trkpt lat="42.28971362824835" lon="14.132224162133904"><ele>312.33333333333337</ele><time>2026-04-12T11:00:43Z</time></trkpt><trkpt lat="42.28974461085786" lon="14.132118267033773"><ele>311.5</ele><time>2026-04-12T11:00:44Z</time></trkpt><trkpt lat="42.28977777284384" lon="14.13202219074383"><ele>310.6666666666667</ele><time>2026-04-12T11:00:45Z</time></trkpt><trkpt lat="42.28981846286575" lon="14.131924590271383"><ele>309.8333333333333</ele><time>2026-04-12T11:00:46Z</time></trkpt><trkpt lat="42.28986889682019" lon="14.131810996710033"><ele>309.0</ele><time>2026-04-12T11:00:47Z</time></trkpt><trkpt lat="42.28992059033306" lon="14.131694678804891"><ele>309.0</ele><time>2026-04-12T11:00:48Z</time></trkpt><trkpt lat="42.28995189116177" lon="14.131580719938059"><ele>309.0</ele><time>2026-04-12T11:00:49Z</time></trkpt><trkpt lat="42.28999631347308" lon="14.13149292086107"><ele>309.0</ele><time>2026-04-12T11:00:50Z</time></trkpt><trkpt lat="42.29004633323239" lon="14.131441196124843"><ele>309.0</ele><time>2026-04-12T11:00:51Z</time></trkpt><trkpt lat="42.29010812485556" lon="14.131321163174531"><ele>309.0</ele><time>2026-04-12T11:00:53Z</time></trkpt><trkpt lat="42.290139878576994" lon="14.131244001016592"><ele>309.0</ele><time>2026-04-12T11:00:54Z</time></trkpt><trkpt lat="42.29016614266545" lon="14.131163020256365"><ele>306.3333333333333</ele><time>2026-04-12T11:00:55Z</time></trkpt><trkpt lat="42.29021238048363" lon="14.130997913599217"><ele>303.6666666666667</ele><time>2026-04-12T11:00:57Z</time></trkpt><trkpt lat="42.29023540671576" lon="14.130904451062106"><ele>301.0</ele><time>2026-04-12T11:00:58Z</time></trkpt><trkpt lat="42.29025832843833" lon="14.130806689674017"><ele>298.33333333333337</ele><time>2026-04-12T11:00:59Z</time></trkpt><trkpt lat="42.290279497561315" lon="14.13071640275951"><ele>295.6666666666667</ele><time>2026-04-12T11:01:00Z</time></trkpt><trkpt lat="42.2903008874504" lon="14.130616858406837"><ele>293.0</ele><time>2026-04-12T11:01:01Z</time></trkpt><trkpt lat="42.29031870601406" lon="14.130530051997374"><ele>290.33333333333337</ele><time>2026-04-12T11:01:01.999Z</time></trkpt><trkpt lat="42.29033730923932" lon="14.130437700465"><ele>287.6666666666667</ele><time>2026-04-12T11:01:02.999Z</time></trkpt><trkpt lat="42.29034399369915" lon="14.130335034302162"><ele>285.0</ele><time>2026-04-12T11:01:03.999Z</time></trkpt><trkpt lat="42.290363634864775" lon="14.130230042970101"><ele>282.3333333333333</ele><time>2026-04-12T11:01:04.999Z</time></trkpt><trkpt lat="42.29037522983398" lon="14.13010497473213"><ele>279.66666666666663</ele><time>2026-04-12T11:01:05.999Z</time></trkpt><trkpt lat="42.29037673192409" lon="14.129987574508899"><ele>277.0</ele><time>2026-04-12T11:01:06.999Z</time></trkpt><trkpt lat="42.29037765663725" lon="14.129866025471626"><ele>275.4</ele><time>2026-04-12T11:01:07.999Z</time></trkpt><trkpt lat="42.290369255350605" lon="14.12974377121131"><ele>273.79999999999995</ele><time>2026-04-12T11:01:08.999Z</time></trkpt><trkpt lat="42.29036308766583" lon="14.129593532375463"><ele>272.2</ele><time>2026-04-12T11:01:09.999Z</time></trkpt><trkpt lat="42.29037165775862" lon="14.129460993023349"><ele>270.59999999999997</ele><time>2026-04-12T11:01:10.999Z</time></trkpt><trkpt lat="42.29036858235878" lon="14.129325039462719"><ele>269.0</ele><time>2026-04-12T11:01:11.999Z</time></trkpt><trkpt lat="42.290371513874305" lon="14.129179776387613"><ele>265.0</ele><time>2026-04-12T11:01:12.999Z</time></trkpt><trkpt lat="42.290363380340516" lon="14.129027424842723"><ele>261.0</ele><time>2026-04-12T11:01:13.999Z</time></trkpt><trkpt lat="42.29037250424192" lon="14.128895055962666"><ele>257.0</ele><time>2026-04-12T11:01:14.999Z</time></trkpt><trkpt lat="42.29038353920701" lon="14.128753222568182"><ele>253.0</ele><time>2026-04-12T11:01:15.999Z</time></trkpt><trkpt lat="42.290417683068995" lon="14.128617623662349"><ele>249.0</ele><time>2026-04-12T11:01:16.999Z</time></trkpt><trkpt lat="42.29042307453131" lon="14.12849702156781"><ele>249.0</ele><time>2026-04-12T11:01:17.999Z</time></trkpt><trkpt lat="42.29045956051309" lon="14.12836506162208"><ele>249.0</ele><time>2026-04-12T11:01:18.999Z</time></trkpt><trkpt lat="42.29047546069538" lon="14.128240577573257"><ele>249.0</ele><time>2026-04-12T11:01:19.999Z</time></trkpt><trkpt lat="42.290489140444464" lon="14.128071827222776"><ele>249.0</ele><time>2026-04-12T11:01:20.999Z</time></trkpt><trkpt lat="42.29050267252969" lon="14.127897203437614"><ele>244.79999999999998</ele><time>2026-04-12T11:01:21.999Z</time></trkpt><trkpt lat="42.2905393300204" lon="14.127740538479928"><ele>240.59999999999997</ele><time>2026-04-12T11:01:22.999Z</time></trkpt><trkpt lat="42.29055639288653" lon="14.127606951947907"><ele>236.4</ele><time>2026-04-12T11:01:23.999Z</time></trkpt><trkpt lat="42.29056167232077" lon="14.12745324155118"><ele>232.2</ele><time>2026-04-12T11:01:24.999Z</time></trkpt><trkpt lat="42.29058759523339" lon="14.127321141798912"><ele>228.0</ele><time>2026-04-12T11:01:25.999Z</time></trkpt><trkpt lat="42.29059949028233" lon="14.127189633726202"><ele>227.2</ele><time>2026-04-12T11:01:26.999Z</time></trkpt><trkpt lat="42.29061221004205" lon="14.127059546612559"><ele>226.4</ele><time>2026-04-12T11:01:27.999Z</time></trkpt><trkpt lat="42.290626989230944" lon="14.126927535133495"><ele>225.59999999999997</ele><time>2026-04-12T11:01:28.999Z</time></trkpt><trkpt lat="42.290629354019025" lon="14.126803146000494"><ele>224.79999999999998</ele><time>2026-04-12T11:01:29.999Z</time></trkpt><trkpt lat="42.290648732916814" lon="14.126677742965573"><ele>224.0</ele><time>2026-04-12T11:01:30.999Z</time></trkpt><trkpt lat="42.29064267251463" lon="14.126538988074174"><ele>222.2</ele><time>2026-04-12T11:01:31.999Z</time></trkpt><trkpt lat="42.29063369643436" lon="14.12641627203352"><ele>220.39999999999998</ele><time>2026-04-12T11:01:32.999Z</time></trkpt><trkpt lat="42.290622962979214" lon="14.126273339517223"><ele>218.6</ele><time>2026-04-12T11:01:33.999Z</time></trkpt><trkpt lat="42.29061155216113" lon="14.126135458544466"><ele>216.8</ele><time>2026-04-12T11:01:34.999Z</time></trkpt><trkpt lat="42.290602085598294" lon="14.126024875284253"><ele>215.0</ele><time>2026-04-12T11:01:35.999Z</time></trkpt><trkpt lat="42.290593317749384" lon="14.125922454438916"><ele>210.66666666666669</ele><time>2026-04-12T11:01:36.999Z</time></trkpt><trkpt lat="42.290584177897536" lon="14.125815687443659"><ele>206.33333333333331</ele><time>2026-04-12T11:01:37.999Z</time></trkpt><trkpt lat="42.290574893174885" lon="14.125707228468421"><ele>202.0</ele><time>2026-04-12T11:01:38.999Z</time></trkpt><trkpt lat="42.290545489071064" lon="14.125257340175637"><ele>201.49999999999997</ele><time>2026-04-12T11:01:42.999Z</time></trkpt><trkpt lat="42.29052741051948" lon="14.125147622365061"><ele>201.0</ele><time>2026-04-12T11:01:43.999Z</time></trkpt><trkpt lat="42.2905332257241" lon="14.125042275798553"><ele>200.5</ele><time>2026-04-12T11:01:44.999Z</time></trkpt><trkpt lat="42.29053938824021" lon="14.124956239937818"><ele>200.0</ele><time>2026-04-12T11:01:45.999Z</time></trkpt><trkpt lat="42.29059210088692" lon="14.12482515368229"><ele>199.49999999999997</ele><time>2026-04-12T11:01:47.999Z</time></trkpt><trkpt lat="42.29064260287404" lon="14.124747720386933"><ele>199.0</ele><time>2026-04-12T11:01:48.999Z</time></trkpt><trkpt lat="42.29068455479854" lon="14.124653376677214"><ele>198.16666666666666</ele><time>2026-04-12T11:01:49.999Z</time></trkpt><trkpt lat="42.2907193193031" lon="14.124568814988073"><ele>197.33333333333331</ele><time>2026-04-12T11:01:50.999Z</time></trkpt><trkpt lat="42.290769865784846" lon="14.124492680574724"><ele>196.5</ele><time>2026-04-12T11:01:51.999Z</time></trkpt><trkpt lat="42.29080715399949" lon="14.124397942952802"><ele>195.66666666666669</ele><time>2026-04-12T11:01:52.999Z</time></trkpt><trkpt lat="42.29083921524459" lon="14.124302423912944"><ele>194.83333333333334</ele><time>2026-04-12T11:01:53.999Z</time></trkpt><trkpt lat="42.29088629529032" lon="14.124226038786519"><ele>194.0</ele><time>2026-04-12T11:01:54.999Z</time></trkpt><trkpt lat="42.29090688046742" lon="14.124132719380302"><ele>191.00000000000003</ele><time>2026-04-12T11:01:55.999Z</time></trkpt><trkpt lat="42.290929757406296" lon="14.124048126868168"><ele>188.0</ele><time>2026-04-12T11:01:56.999Z</time></trkpt><trkpt lat="42.29096437746795" lon="14.123864730837107"><ele>185.0</ele><time>2026-04-12T11:01:58.999Z</time></trkpt><trkpt lat="42.29097393944188" lon="14.123768299235849"><ele>182.0</ele><time>2026-04-12T11:01:59.999Z</time></trkpt><trkpt lat="42.29097856473593" lon="14.123673322911136"><ele>179.0</ele><time>2026-04-12T11:02:00.999Z</time></trkpt><trkpt lat="42.290995652556866" lon="14.123585838546273"><ele>176.0</ele><time>2026-04-12T11:02:01.999Z</time></trkpt><trkpt lat="42.29098351344103" lon="14.123473236619251"><ele>176.0</ele><time>2026-04-12T11:02:02.998Z</time></trkpt><trkpt lat="42.290946150251756" lon="14.1233453731105"><ele>176.0</ele><time>2026-04-12T11:02:03.998Z</time></trkpt><trkpt lat="42.29089644504865" lon="14.123217748762205"><ele>176.0</ele><time>2026-04-12T11:02:04.998Z</time></trkpt><trkpt lat="42.29085860901671" lon="14.123114971667235"><ele>176.0</ele><time>2026-04-12T11:02:05.998Z</time></trkpt><trkpt lat="42.29082827011032" lon="14.12301469746601"><ele>176.0</ele><time>2026-04-12T11:02:06.998Z</time></trkpt><trkpt lat="42.29080515810728" lon="14.122931570177677"><ele>176.0</ele><time>2026-04-12T11:02:07.998Z</time></trkpt><trkpt lat="42.29077305465506" lon="14.122796783686171"><ele>173.0</ele><time>2026-04-12T11:02:08.998Z</time></trkpt><trkpt lat="42.29075476079789" lon="14.122713186751886"><ele>170.0</ele><time>2026-04-12T11:02:09.998Z</time></trkpt><trkpt lat="42.290741604361095" lon="14.122594998970449"><ele>167.0</ele><time>2026-04-12T11:02:11.998Z</time></trkpt><trkpt lat="42.29076671129418" lon="14.122468514218138"><ele>164.0</ele><time>2026-04-12T11:02:15.998Z</time></trkpt><trkpt lat="42.29084024759774" lon="14.122397362648691"><ele>161.0</ele><time>2026-04-12T11:02:20.998Z</time></trkpt><trkpt lat="42.29096980124164" lon="14.12221702665938"><ele>161.0</ele><time>2026-04-12T11:02:22.998Z</time></trkpt><trkpt lat="42.29100501930794" lon="14.122120409717237"><ele>161.0</ele><time>2026-04-12T11:02:23.998Z</time></trkpt><trkpt lat="42.290991174328965" lon="14.121957507015413"><ele>161.0</ele><time>2026-04-12T11:02:24.998Z</time></trkpt><trkpt lat="42.29100876263424" lon="14.121842510781935"><ele>161.0</ele><time>2026-04-12T11:02:26.998Z</time></trkpt><trkpt lat="42.29106368592557" lon="14.121760646308948"><ele>161.0</ele><time>2026-04-12T11:02:27.998Z</time></trkpt><trkpt lat="42.29112383245444" lon="14.121650795562132"><ele>163.0</ele><time>2026-04-12T11:02:28.998Z</time></trkpt><trkpt lat="42.29118242217828" lon="14.121520910567112"><ele>165.0</ele><time>2026-04-12T11:02:29.998Z</time></trkpt><trkpt lat="42.29123244410429" lon="14.121410192849075"><ele>167.0</ele><time>2026-04-12T11:02:30.998Z</time></trkpt><trkpt lat="42.29129279134943" lon="14.121275731320015"><ele>169.0</ele><time>2026-04-12T11:02:31.998Z</time></trkpt><trkpt lat="42.291349863377455" lon="14.121149645035818"><ele>171.0</ele><time>2026-04-12T11:02:32.998Z</time></trkpt><trkpt lat="42.29140677450684" lon="14.121035148194675"><ele>173.25</ele><time>2026-04-12T11:02:33.998Z</time></trkpt><trkpt lat="42.291477225745254" lon="14.120913875455228"><ele>175.5</ele><time>2026-04-12T11:02:34.998Z</time></trkpt><trkpt lat="42.291530042936365" lon="14.120772333002192"><ele>177.75</ele><time>2026-04-12T11:02:35.998Z</time></trkpt><trkpt lat="42.29159560093465" lon="14.120642386730395"><ele>180.0</ele><time>2026-04-12T11:02:37Z</time></trkpt><trkpt lat="42.29164822897326" lon="14.120523098650903"><ele>182.83333333333334</ele><time>2026-04-12T11:02:38Z</time></trkpt><trkpt lat="42.291691988426685" lon="14.12042091236202"><ele>185.66666666666669</ele><time>2026-04-12T11:02:39Z</time></trkpt><trkpt lat="42.29173952749854" lon="14.120333744496364"><ele>188.5</ele><time>2026-04-12T11:02:40Z</time></trkpt><trkpt lat="42.291791549783255" lon="14.120266756308153"><ele>191.33333333333334</ele><time>2026-04-12T11:02:41Z</time></trkpt><trkpt lat="42.29183099994548" lon="14.120128918730373"><ele>194.16666666666669</ele><time>2026-04-12T11:02:43Z</time></trkpt><trkpt lat="42.291823410287385" lon="14.120008761253388"><ele>197.0</ele><time>2026-04-12T11:02:44Z</time></trkpt><trkpt lat="42.291820300474306" lon="14.119901103447582"><ele>200.6</ele><time>2026-04-12T11:02:45Z</time></trkpt><trkpt lat="42.29181417485262" lon="14.119805347833914"><ele>204.2</ele><time>2026-04-12T11:02:46Z</time></trkpt><trkpt lat="42.291798736749804" lon="14.119697883901308"><ele>207.8</ele><time>2026-04-12T11:02:47Z</time></trkpt><trkpt lat="42.29176853266896" lon="14.119572232422948"><ele>211.4</ele><time>2026-04-12T11:02:48Z</time></trkpt><trkpt lat="42.291742637933694" lon="14.119483719217948"><ele>215.0</ele><time>2026-04-12T11:02:50Z</time></trkpt><trkpt lat="42.29192210906654" lon="14.119548010327254"><ele>215.0</ele><time>2026-04-12T11:02:54Z</time></trkpt><trkpt lat="42.29201916370062" lon="14.119537148823312"><ele>215.0</ele><time>2026-04-12T11:02:55Z</time></trkpt><trkpt lat="42.29209839613952" lon="14.119485074947498"><ele>215.0</ele><time>2026-04-12T11:02:56Z</time></trkpt><trkpt lat="42.29218040080774" lon="14.119454594451929"><ele>215.0</ele><time>2026-04-12T11:02:57Z</time></trkpt><trkpt lat="42.29225652918397" lon="14.119387652327326"><ele>215.0</ele><time>2026-04-12T11:02:58Z</time></trkpt><trkpt lat="42.29233546714907" lon="14.11933154452186"><ele>218.0</ele><time>2026-04-12T11:02:59Z</time></trkpt><trkpt lat="42.292422034198886" lon="14.119281192312226"><ele>221.0</ele><time>2026-04-12T11:03:00Z</time></trkpt><trkpt lat="42.29251349866221" lon="14.119215726891118"><ele>224.0</ele><time>2026-04-12T11:03:01Z</time></trkpt><trkpt lat="42.292593103698266" lon="14.119140374182177"><ele>227.0</ele><time>2026-04-12T11:03:02Z</time></trkpt><trkpt lat="42.2926501405775" lon="14.11906135835232"><ele>230.0</ele><time>2026-04-12T11:03:03Z</time></trkpt><trkpt lat="42.29272204862859" lon="14.118999244260063"><ele>232.83333333333334</ele><time>2026-04-12T11:03:03.999Z</time></trkpt><trkpt lat="42.29278583772638" lon="14.11892445009532"><ele>235.66666666666669</ele><time>2026-04-12T11:03:04.999Z</time></trkpt><trkpt lat="42.29285114901403" lon="14.118853176777945"><ele>238.5</ele><time>2026-04-12T11:03:05.999Z</time></trkpt><trkpt lat="42.29292529468908" lon="14.11878536160239"><ele>241.33333333333331</ele><time>2026-04-12T11:03:06.999Z</time></trkpt><trkpt lat="42.292988369974836" lon="14.118697803328528"><ele>244.16666666666666</ele><time>2026-04-12T11:03:07.999Z</time></trkpt><trkpt lat="42.29305570036554" lon="14.118639788758117"><ele>247.0</ele><time>2026-04-12T11:03:08.999Z</time></trkpt><trkpt lat="42.29307108124906" lon="14.118520768050542"><ele>246.99999999999997</ele><time>2026-04-12T11:03:10.999Z</time></trkpt><trkpt lat="42.29301371762611" lon="14.118422466857355"><ele>247.0</ele><time>2026-04-12T11:03:11.999Z</time></trkpt><trkpt lat="42.29297135375004" lon="14.118308297774652"><ele>247.0</ele><time>2026-04-12T11:03:12.999Z</time></trkpt><trkpt lat="42.292951864653155" lon="14.118195909852734"><ele>247.0</ele><time>2026-04-12T11:03:14.999Z</time></trkpt><trkpt lat="42.29289508123074" lon="14.11809753053424"><ele>246.99999999999997</ele><time>2026-04-12T11:03:17.999Z</time></trkpt><trkpt lat="42.29282665521184" lon="14.118073446732202"><ele>247.0</ele><time>2026-04-12T11:03:18.999Z</time></trkpt><trkpt lat="42.29272655048048" lon="14.118056660612877"><ele>246.16666666666666</ele><time>2026-04-12T11:03:19.999Z</time></trkpt><trkpt lat="42.29262402951274" lon="14.118023962070012"><ele>245.33333333333331</ele><time>2026-04-12T11:03:20.999Z</time></trkpt><trkpt lat="42.292548849013166" lon="14.117980097017316"><ele>244.5</ele><time>2026-04-12T11:03:21.999Z</time></trkpt><trkpt lat="42.29248722416351" lon="14.117949403274944"><ele>243.66666666666669</ele><time>2026-04-12T11:03:22.999Z</time></trkpt><trkpt lat="42.29242605028344" lon="14.117910894144469"><ele>242.83333333333334</ele><time>2026-04-12T11:03:23.999Z</time></trkpt><trkpt lat="42.29237489802458" lon="14.117831726102748"><ele>242.0</ele><time>2026-04-12T11:03:24.999Z</time></trkpt><trkpt lat="42.292346271809635" lon="14.117744726070818"><ele>242.0</ele><time>2026-04-12T11:03:25.999Z</time></trkpt><trkpt lat="42.29235854484134" lon="14.117647767338443"><ele>241.99999999999997</ele><time>2026-04-12T11:03:26.999Z</time></trkpt><trkpt lat="42.29239054095415" lon="14.117564196412376"><ele>242.0</ele><time>2026-04-12T11:03:27.999Z</time></trkpt><trkpt lat="42.29245656863648" lon="14.117519079409943"><ele>242.0</ele><time>2026-04-12T11:03:28.999Z</time></trkpt><trkpt lat="42.292535729523614" lon="14.11751938532542"><ele>241.99999999999997</ele><time>2026-04-12T11:03:29.999Z</time></trkpt><trkpt lat="42.29260538230461" lon="14.117560126957631"><ele>242.0</ele><time>2026-04-12T11:03:30.999Z</time></trkpt><trkpt lat="42.292666186473845" lon="14.117620591942924"><ele>242.0</ele><time>2026-04-12T11:03:31.999Z</time></trkpt><trkpt lat="42.292724874302976" lon="14.117680216581514"><ele>242.00000000000003</ele><time>2026-04-12T11:03:32.999Z</time></trkpt><trkpt lat="42.292787500192986" lon="14.117739202373471"><ele>242.0</ele><time>2026-04-12T11:03:33.999Z</time></trkpt><trkpt lat="42.29285271116141" lon="14.117787773824222"><ele>242.0</ele><time>2026-04-12T11:03:34.999Z</time></trkpt><trkpt lat="42.29291362491654" lon="14.11782871604568"><ele>242.0</ele><time>2026-04-12T11:03:35.999Z</time></trkpt><trkpt lat="42.293023472320606" lon="14.117855884014752"><ele>242.00000000000003</ele><time>2026-04-12T11:03:37.999Z</time></trkpt><trkpt lat="42.293086446014065" lon="14.117842780134165"><ele>242.0</ele><time>2026-04-12T11:03:38.999Z</time></trkpt><trkpt lat="42.293177707763256" lon="14.117733756724062"><ele>242.0</ele><time>2026-04-12T11:03:40.999Z</time></trkpt><trkpt lat="42.2931215918878" lon="14.117628177330992"><ele>242.0</ele><time>2026-04-12T11:03:42.999Z</time></trkpt><trkpt lat="42.2930338429213" lon="14.117539470975013"><ele>242.0</ele><time>2026-04-12T11:03:43.999Z</time></trkpt><trkpt lat="42.29295550413295" lon="14.117465474161653"><ele>242.0</ele><time>2026-04-12T11:03:44.999Z</time></trkpt><trkpt lat="42.292881266260345" lon="14.117383993416269"><ele>242.0</ele><time>2026-04-12T11:03:45.999Z</time></trkpt><trkpt lat="42.29281528315282" lon="14.117290594385885"><ele>238.75</ele><time>2026-04-12T11:03:46.999Z</time></trkpt><trkpt lat="42.29275770986194" lon="14.117196243379091"><ele>235.5</ele><time>2026-04-12T11:03:47.999Z</time></trkpt><trkpt lat="42.29268866653651" lon="14.117076266471145"><ele>232.25</ele><time>2026-04-12T11:03:48.999Z</time></trkpt><trkpt lat="42.29261895834706" lon="14.116933906394223"><ele>229.0</ele><time>2026-04-12T11:03:49.999Z</time></trkpt><trkpt lat="42.29254827323819" lon="14.11678725751658"><ele>229.0</ele><time>2026-04-12T11:03:50.999Z</time></trkpt><trkpt lat="42.29247336137456" lon="14.11664159603043"><ele>229.0</ele><time>2026-04-12T11:03:51.999Z</time></trkpt><trkpt lat="42.292391872461586" lon="14.11650305042894"><ele>229.0</ele><time>2026-04-12T11:03:52.999Z</time></trkpt><trkpt lat="42.29230033515455" lon="14.116372844700475"><ele>229.0</ele><time>2026-04-12T11:03:53.999Z</time></trkpt><trkpt lat="42.292199984487326" lon="14.116251561476723"><ele>225.5</ele><time>2026-04-12T11:03:54.999Z</time></trkpt><trkpt lat="42.2920941305722" lon="14.116133892923"><ele>222.0</ele><time>2026-04-12T11:03:55.999Z</time></trkpt><trkpt lat="42.29198641359806" lon="14.116019251753885"><ele>218.5</ele><time>2026-04-12T11:03:56.999Z</time></trkpt><trkpt lat="42.29188232944025" lon="14.115884154586011"><ele>215.0</ele><time>2026-04-12T11:03:57.999Z</time></trkpt><trkpt lat="42.29178094896925" lon="14.115732865346434"><ele>214.0</ele><time>2026-04-12T11:03:58.999Z</time></trkpt><trkpt lat="42.291677803411616" lon="14.115576399509987"><ele>213.0</ele><time>2026-04-12T11:03:59.999Z</time></trkpt><trkpt lat="42.29157542745879" lon="14.115413668993043"><ele>212.0</ele><time>2026-04-12T11:04:00.999Z</time></trkpt><trkpt lat="42.291477702144725" lon="14.11524576193098"><ele>212.0</ele><time>2026-04-12T11:04:01.999Z</time></trkpt><trkpt lat="42.29138302946632" lon="14.115076060858835"><ele>212.0</ele><time>2026-04-12T11:04:02.999Z</time></trkpt><trkpt lat="42.29129028355361" lon="14.11489698109811"><ele>212.0</ele><time>2026-04-12T11:04:03.999Z</time></trkpt><trkpt lat="42.29119878654709" lon="14.114710102888612"><ele>214.0</ele><time>2026-04-12T11:04:04.999Z</time></trkpt><trkpt lat="42.291109476010185" lon="14.114518701148945"><ele>216.0</ele><time>2026-04-12T11:04:05.998Z</time></trkpt><trkpt lat="42.29102320955982" lon="14.11432334247818"><ele>218.0</ele><time>2026-04-12T11:04:06.998Z</time></trkpt><trkpt lat="42.29093508413748" lon="14.114121390124428"><ele>216.66666666666669</ele><time>2026-04-12T11:04:07.998Z</time></trkpt><trkpt lat="42.29084669157988" lon="14.113922714378045"><ele>215.33333333333331</ele><time>2026-04-12T11:04:08.998Z</time></trkpt><trkpt lat="42.29077996008457" lon="14.113711858534149"><ele>214.0</ele><time>2026-04-12T11:04:09.998Z</time></trkpt><trkpt lat="42.290698765077025" lon="14.11353085061593"><ele>214.0</ele><time>2026-04-12T11:04:10.998Z</time></trkpt><trkpt lat="42.290621152788596" lon="14.113357486777668"><ele>214.0</ele><time>2026-04-12T11:04:11.998Z</time></trkpt><trkpt lat="42.29055102388167" lon="14.113163597066976"><ele>214.0</ele><time>2026-04-12T11:04:12.998Z</time></trkpt><trkpt lat="42.29047625050285" lon="14.11296936563433"><ele>215.66666666666666</ele><time>2026-04-12T11:04:13.998Z</time></trkpt><trkpt lat="42.2904175679379" lon="14.112756370607983"><ele>217.33333333333331</ele><time>2026-04-12T11:04:14.998Z</time></trkpt><trkpt lat="42.290364391497455" lon="14.112553040928798"><ele>219.0</ele><time>2026-04-12T11:04:15.998Z</time></trkpt><trkpt lat="42.29031968191267" lon="14.112353499127519"><ele>219.0</ele><time>2026-04-12T11:04:16.998Z</time></trkpt><trkpt lat="42.29029203122556" lon="14.112144551599197"><ele>219.0</ele><time>2026-04-12T11:04:17.998Z</time></trkpt><trkpt lat="42.290250489643476" lon="14.111937582928594"><ele>219.0</ele><time>2026-04-12T11:04:18.998Z</time></trkpt><trkpt lat="42.2902116574272" lon="14.111742221815256"><ele>217.25</ele><time>2026-04-12T11:04:19.998Z</time></trkpt><trkpt lat="42.29017875300757" lon="14.111566054468165"><ele>215.5</ele><time>2026-04-12T11:04:20.998Z</time></trkpt><trkpt lat="42.290153810070024" lon="14.11140544903317"><ele>213.75</ele><time>2026-04-12T11:04:21.998Z</time></trkpt><trkpt lat="42.29014183194055" lon="14.111246796270818"><ele>212.0</ele><time>2026-04-12T11:04:22.998Z</time></trkpt><trkpt lat="42.29015333985503" lon="14.11108870980857"><ele>212.0</ele><time>2026-04-12T11:04:23.998Z</time></trkpt><trkpt lat="42.29017509170057" lon="14.11094529194877"><ele>212.0</ele><time>2026-04-12T11:04:24.998Z</time></trkpt><trkpt lat="42.29020180786013" lon="14.110810487616135"><ele>212.0</ele><time>2026-04-12T11:04:25.998Z</time></trkpt><trkpt lat="42.29023794343247" lon="14.110675089250435"><ele>212.0</ele><time>2026-04-12T11:04:26.998Z</time></trkpt><trkpt lat="42.29028215698148" lon="14.110546319191577"><ele>212.0</ele><time>2026-04-12T11:04:27.998Z</time></trkpt><trkpt lat="42.290347272846255" lon="14.11042040044175"><ele>212.5</ele><time>2026-04-12T11:04:28.998Z</time></trkpt><trkpt lat="42.29043434240773" lon="14.110317342188232"><ele>213.0</ele><time>2026-04-12T11:04:29.998Z</time></trkpt><trkpt lat="42.29052725879289" lon="14.110235443133123"><ele>213.5</ele><time>2026-04-12T11:04:30.998Z</time></trkpt><trkpt lat="42.29062350963801" lon="14.110158478501376"><ele>214.0</ele><time>2026-04-12T11:04:31.998Z</time></trkpt><trkpt lat="42.29072629574199" lon="14.110086230569893"><ele>214.0</ele><time>2026-04-12T11:04:32.998Z</time></trkpt><trkpt lat="42.29082548982131" lon="14.109993692620355"><ele>214.0</ele><time>2026-04-12T11:04:33.998Z</time></trkpt><trkpt lat="42.29092198791124" lon="14.109885463230965"><ele>214.0</ele><time>2026-04-12T11:04:34.998Z</time></trkpt><trkpt lat="42.291019217032144" lon="14.10977514474938"><ele>214.0</ele><time>2026-04-12T11:04:35.998Z</time></trkpt><trkpt lat="42.291119804948885" lon="14.109660944021877"><ele>212.25</ele><time>2026-04-12T11:04:36.998Z</time></trkpt><trkpt lat="42.29121924110836" lon="14.109541309999035"><ele>210.5</ele><time>2026-04-12T11:04:37.998Z</time></trkpt><trkpt lat="42.29132358861446" lon="14.109427798592291"><ele>208.75</ele><time>2026-04-12T11:04:38.998Z</time></trkpt><trkpt lat="42.291424391888484" lon="14.109327489491601"><ele>207.0</ele><time>2026-04-12T11:04:39.998Z</time></trkpt><trkpt lat="42.29152922455064" lon="14.109254374968705"><ele>210.39999999999998</ele><time>2026-04-12T11:04:40.998Z</time></trkpt><trkpt lat="42.29162765841495" lon="14.10919645985487"><ele>213.79999999999998</ele><time>2026-04-12T11:04:41.998Z</time></trkpt><trkpt lat="42.29172096489174" lon="14.109141285951567"><ele>217.2</ele><time>2026-04-12T11:04:43Z</time></trkpt><trkpt lat="42.29180933483863" lon="14.109084887972386"><ele>220.6</ele><time>2026-04-12T11:04:44Z</time></trkpt><trkpt lat="42.29189164250888" lon="14.109029886073746"><ele>224.0</ele><time>2026-04-12T11:04:45Z</time></trkpt><trkpt lat="42.29196236314205" lon="14.108973999558694"><ele>223.6</ele><time>2026-04-12T11:04:46Z</time></trkpt><trkpt lat="42.29203660385815" lon="14.108916652499358"><ele>223.2</ele><time>2026-04-12T11:04:47Z</time></trkpt><trkpt lat="42.29210551107693" lon="14.108845424183718"><ele>222.79999999999998</ele><time>2026-04-12T11:04:48Z</time></trkpt><trkpt lat="42.29218981315644" lon="14.108730587790408"><ele>222.39999999999998</ele><time>2026-04-12T11:04:49Z</time></trkpt><trkpt lat="42.29229914602572" lon="14.108613280227212"><ele>222.0</ele><time>2026-04-12T11:04:50Z</time></trkpt><trkpt lat="42.29239812313585" lon="14.108448429542385"><ele>222.0</ele><time>2026-04-12T11:04:51Z</time></trkpt><trkpt lat="42.29248636962636" lon="14.108262387885505"><ele>222.0</ele><time>2026-04-12T11:04:52Z</time></trkpt><trkpt lat="42.29257240125044" lon="14.108060782587092"><ele>222.0</ele><time>2026-04-12T11:04:53Z</time></trkpt><trkpt lat="42.292660309940494" lon="14.10784203496413"><ele>223.66666666666669</ele><time>2026-04-12T11:04:54Z</time></trkpt><trkpt lat="42.29275242932886" lon="14.107596851481077"><ele>225.33333333333334</ele><time>2026-04-12T11:04:55Z</time></trkpt><trkpt lat="42.292843725125095" lon="14.107346810139715"><ele>227.0</ele><time>2026-04-12T11:04:56Z</time></trkpt><trkpt lat="42.29293667646715" lon="14.107090179542379"><ele>228.0</ele><time>2026-04-12T11:04:57Z</time></trkpt><trkpt lat="42.293022435790725" lon="14.106848741286864"><ele>229.0</ele><time>2026-04-12T11:04:58Z</time></trkpt><trkpt lat="42.293102128788036" lon="14.106633260290439"><ele>230.0</ele><time>2026-04-12T11:04:59Z</time></trkpt><trkpt lat="42.293175735944" lon="14.106435840709812"><ele>225.66666666666669</ele><time>2026-04-12T11:05:00Z</time></trkpt><trkpt lat="42.29324721695668" lon="14.10622410355719"><ele>221.33333333333331</ele><time>2026-04-12T11:05:01Z</time></trkpt><trkpt lat="42.29336900302252" lon="14.106029314455924"><ele>217.0</ele><time>2026-04-12T11:05:02Z</time></trkpt><trkpt lat="42.29349596707317" lon="14.10582916631819"><ele>218.0</ele><time>2026-04-12T11:05:03Z</time></trkpt><trkpt lat="42.293637397895374" lon="14.105642758478023"><ele>219.0</ele><time>2026-04-12T11:05:04Z</time></trkpt><trkpt lat="42.293767825373024" lon="14.105435255990185"><ele>220.0</ele><time>2026-04-12T11:05:05Z</time></trkpt><trkpt lat="42.29389726788013" lon="14.105231267724264"><ele>216.33333333333331</ele><time>2026-04-12T11:05:06Z</time></trkpt><trkpt lat="42.29401416327286" lon="14.10500672396648"><ele>212.66666666666669</ele><time>2026-04-12T11:05:06.999Z</time></trkpt><trkpt lat="42.29412573509757" lon="14.104772036431159"><ele>209.0</ele><time>2026-04-12T11:05:07.999Z</time></trkpt><trkpt lat="42.2942356995354" lon="14.104538838552715"><ele>209.0</ele><time>2026-04-12T11:05:08.999Z</time></trkpt><trkpt lat="42.294362542493765" lon="14.104322444138923"><ele>209.0</ele><time>2026-04-12T11:05:09.999Z</time></trkpt><trkpt lat="42.294479002362074" lon="14.104095765327342"><ele>209.0</ele><time>2026-04-12T11:05:10.999Z</time></trkpt><trkpt lat="42.29459559308872" lon="14.10386883178487"><ele>209.0</ele><time>2026-04-12T11:05:11.999Z</time></trkpt><trkpt lat="42.29471164263928" lon="14.103637233852565"><ele>209.0</ele><time>2026-04-12T11:05:12.999Z</time></trkpt><trkpt lat="42.29482479713207" lon="14.103401980709606"><ele>209.0</ele><time>2026-04-12T11:05:13.999Z</time></trkpt><trkpt lat="42.294936240602176" lon="14.103167486447278"><ele>207.33333333333334</ele><time>2026-04-12T11:05:14.999Z</time></trkpt><trkpt lat="42.29504905557036" lon="14.102932513556036"><ele>205.66666666666669</ele><time>2026-04-12T11:05:15.999Z</time></trkpt><trkpt lat="42.29516634990135" lon="14.10270381947086"><ele>204.0</ele><time>2026-04-12T11:05:16.999Z</time></trkpt><trkpt lat="42.295281778311235" lon="14.102473912613494"><ele>203.66666666666669</ele><time>2026-04-12T11:05:17.999Z</time></trkpt><trkpt lat="42.295417261039645" lon="14.102269124363714"><ele>203.33333333333334</ele><time>2026-04-12T11:05:18.999Z</time></trkpt><trkpt lat="42.29556035594106" lon="14.10207804903297"><ele>203.0</ele><time>2026-04-12T11:05:19.999Z</time></trkpt><trkpt lat="42.29571411558347" lon="14.101899620821442"><ele>202.66666666666669</ele><time>2026-04-12T11:05:20.999Z</time></trkpt><trkpt lat="42.29587762828516" lon="14.10173707115548"><ele>202.33333333333331</ele><time>2026-04-12T11:05:21.999Z</time></trkpt><trkpt lat="42.296024021254716" lon="14.101539238809938"><ele>202.0</ele><time>2026-04-12T11:05:22.999Z</time></trkpt><trkpt lat="42.29616468055947" lon="14.101331510267732"><ele>203.0</ele><time>2026-04-12T11:05:23.999Z</time></trkpt><trkpt lat="42.29630744274446" lon="14.101125932634936"><ele>204.0</ele><time>2026-04-12T11:05:24.999Z</time></trkpt><trkpt lat="42.29644149527812" lon="14.100935482161075"><ele>205.0</ele><time>2026-04-12T11:05:25.999Z</time></trkpt><trkpt lat="42.29657749351616" lon="14.10075757415311"><ele>203.33333333333331</ele><time>2026-04-12T11:05:26.999Z</time></trkpt><trkpt lat="42.296739056439854" lon="14.100601826517359"><ele>201.66666666666669</ele><time>2026-04-12T11:05:27.999Z</time></trkpt><trkpt lat="42.296897335734975" lon="14.100459332048956"><ele>200.0</ele><time>2026-04-12T11:05:28.999Z</time></trkpt><trkpt lat="42.297044561856126" lon="14.100310886109375"><ele>200.0</ele><time>2026-04-12T11:05:29.999Z</time></trkpt><trkpt lat="42.29717278808603" lon="14.10013986058781"><ele>200.0</ele><time>2026-04-12T11:05:30.999Z</time></trkpt><trkpt lat="42.29728657516346" lon="14.099968941612119"><ele>200.0</ele><time>2026-04-12T11:05:31.999Z</time></trkpt><trkpt lat="42.29739822681159" lon="14.099774787423286"><ele>194.66666666666669</ele><time>2026-04-12T11:05:32.999Z</time></trkpt><trkpt lat="42.29751301300221" lon="14.099569163368379"><ele>189.33333333333334</ele><time>2026-04-12T11:05:33.999Z</time></trkpt><trkpt lat="42.29758180503301" lon="14.0993357810724"><ele>184.0</ele><time>2026-04-12T11:05:34.999Z</time></trkpt><trkpt lat="42.29762125594001" lon="14.09908581089571"><ele>182.33333333333334</ele><time>2026-04-12T11:05:35.999Z</time></trkpt><trkpt lat="42.297630516446944" lon="14.098819843652413"><ele>180.66666666666666</ele><time>2026-04-12T11:05:36.999Z</time></trkpt><trkpt lat="42.29763160872527" lon="14.098550800623267"><ele>179.0</ele><time>2026-04-12T11:05:37.999Z</time></trkpt><trkpt lat="42.2976313122023" lon="14.098304810723373"><ele>179.25</ele><time>2026-04-12T11:05:38.999Z</time></trkpt><trkpt lat="42.29764129388395" lon="14.098081020012225"><ele>179.5</ele><time>2026-04-12T11:05:39.999Z</time></trkpt><trkpt lat="42.29767353161661" lon="14.097879083677821"><ele>179.75</ele><time>2026-04-12T11:05:40.999Z</time></trkpt><trkpt lat="42.29769418132902" lon="14.097730768973788"><ele>180.0</ele><time>2026-04-12T11:05:41.999Z</time></trkpt><trkpt lat="42.29773608999438" lon="14.097662502368234"><ele>180.0</ele><time>2026-04-12T11:05:42.999Z</time></trkpt><trkpt lat="42.29776919446426" lon="14.097773144089281"><ele>180.0</ele><time>2026-04-12T11:05:47.999Z</time></trkpt><trkpt lat="42.297766549733616" lon="14.097893356346502"><ele>180.0</ele><time>2026-04-12T11:05:48.999Z</time></trkpt><trkpt lat="42.297802985735096" lon="14.09799673112444"><ele>180.0</ele><time>2026-04-12T11:05:49.999Z</time></trkpt><trkpt lat="42.29787307995265" lon="14.098069462706606"><ele>180.0</ele><time>2026-04-12T11:05:50.999Z</time></trkpt><trkpt lat="42.29796808157551" lon="14.098113003192532"><ele>180.0</ele><time>2026-04-12T11:05:51.999Z</time></trkpt><trkpt lat="42.29806406188515" lon="14.098167736386731"><ele>180.0</ele><time>2026-04-12T11:05:52.999Z</time></trkpt><trkpt lat="42.29814559255854" lon="14.098239160903434"><ele>180.0</ele><time>2026-04-12T11:05:53.999Z</time></trkpt><trkpt lat="42.29821925977839" lon="14.098331855723634"><ele>180.0</ele><time>2026-04-12T11:05:54.999Z</time></trkpt><trkpt lat="42.29830691618254" lon="14.098419986225473"><ele>180.0</ele><time>2026-04-12T11:05:55.999Z</time></trkpt><trkpt lat="42.29842956223405" lon="14.098507682817626"><ele>175.0</ele><time>2026-04-12T11:05:56.999Z</time></trkpt><trkpt lat="42.29854463536646" lon="14.09858104104952"><ele>170.0</ele><time>2026-04-12T11:05:57.999Z</time></trkpt><trkpt lat="42.29865474350814" lon="14.098632254074726"><ele>165.0</ele><time>2026-04-12T11:05:58.999Z</time></trkpt><trkpt lat="42.29877480730049" lon="14.098662793446472"><ele>160.0</ele><time>2026-04-12T11:05:59.999Z</time></trkpt><trkpt lat="42.29892864805924" lon="14.098690318021935"><ele>153.0</ele><time>2026-04-12T11:06:00.999Z</time></trkpt><trkpt lat="42.299096774370284" lon="14.098735872907248"><ele>146.0</ele><time>2026-04-12T11:06:01.999Z</time></trkpt><trkpt lat="42.29926582964589" lon="14.098776873128532"><ele>139.0</ele><time>2026-04-12T11:06:02.999Z</time></trkpt><trkpt lat="42.29942140367781" lon="14.098797314012788"><ele>139.0</ele><time>2026-04-12T11:06:03.999Z</time></trkpt><trkpt lat="42.299569114432174" lon="14.098789790552065"><ele>139.0</ele><time>2026-04-12T11:06:04.999Z</time></trkpt><trkpt lat="42.29972619459114" lon="14.098759210178912"><ele>139.0</ele><time>2026-04-12T11:06:05.999Z</time></trkpt><trkpt lat="42.29988767262487" lon="14.098718904259655"><ele>134.66666666666669</ele><time>2026-04-12T11:06:06.998Z</time></trkpt><trkpt lat="42.30004308803467" lon="14.098670580809875"><ele>130.33333333333334</ele><time>2026-04-12T11:06:07.998Z</time></trkpt><trkpt lat="42.30018762886624" lon="14.098610502326622"><ele>126.0</ele><time>2026-04-12T11:06:08.998Z</time></trkpt><trkpt lat="42.300329052603736" lon="14.098530226628624"><ele>126.0</ele><time>2026-04-12T11:06:09.998Z</time></trkpt><trkpt lat="42.30046948532774" lon="14.098414710036325"><ele>126.0</ele><time>2026-04-12T11:06:10.998Z</time></trkpt><trkpt lat="42.300597902777795" lon="14.098276695925401"><ele>126.0</ele><time>2026-04-12T11:06:11.998Z</time></trkpt><trkpt lat="42.3007147823578" lon="14.098130052221038"><ele>122.25</ele><time>2026-04-12T11:06:12.998Z</time></trkpt><trkpt lat="42.30083817578003" lon="14.098030204256217"><ele>118.5</ele><time>2026-04-12T11:06:13.998Z</time></trkpt><trkpt lat="42.30096368260866" lon="14.097948792564004"><ele>114.75</ele><time>2026-04-12T11:06:14.998Z</time></trkpt><trkpt lat="42.301091369508775" lon="14.097866623912685"><ele>111.0</ele><time>2026-04-12T11:06:15.998Z</time></trkpt><trkpt lat="42.301248136705404" lon="14.097821078436866"><ele>111.0</ele><time>2026-04-12T11:06:16.998Z</time></trkpt><trkpt lat="42.30139871350675" lon="14.097807799518558"><ele>111.0</ele><time>2026-04-12T11:06:17.998Z</time></trkpt><trkpt lat="42.30151928586098" lon="14.097824884475433"><ele>111.0</ele><time>2026-04-12T11:06:18.998Z</time></trkpt><trkpt lat="42.30160197245703" lon="14.097838444095425"><ele>111.0</ele><time>2026-04-12T11:06:19.998Z</time></trkpt><trkpt lat="42.3016662665729" lon="14.097850972600883"><ele>111.0</ele><time>2026-04-12T11:06:21.998Z</time></trkpt><trkpt lat="42.301669359822064" lon="14.097701116285076"><ele>109.75</ele><time>2026-04-12T11:06:22.998Z</time></trkpt><trkpt lat="42.301672648195805" lon="14.097567548743271"><ele>108.5</ele><time>2026-04-12T11:06:23.998Z</time></trkpt><trkpt lat="42.30168125673022" lon="14.097418795440351"><ele>107.25</ele><time>2026-04-12T11:06:24.998Z</time></trkpt><trkpt lat="42.30171638274284" lon="14.097247296779294"><ele>106.0</ele><time>2026-04-12T11:06:25.998Z</time></trkpt><trkpt lat="42.301751140206854" lon="14.097065433060756"><ele>105.66666666666667</ele><time>2026-04-12T11:06:26.998Z</time></trkpt><trkpt lat="42.30180229210291" lon="14.096882030698124"><ele>105.33333333333334</ele><time>2026-04-12T11:06:27.998Z</time></trkpt><trkpt lat="42.301845718036795" lon="14.096666098144771"><ele>105.0</ele><time>2026-04-12T11:06:28.998Z</time></trkpt><trkpt lat="42.301887492874094" lon="14.096438247966704"><ele>105.33333333333334</ele><time>2026-04-12T11:06:29.998Z</time></trkpt><trkpt lat="42.30192079922147" lon="14.096212417150108"><ele>105.66666666666667</ele><time>2026-04-12T11:06:30.998Z</time></trkpt><trkpt lat="42.30194939696909" lon="14.095977826555472"><ele>106.0</ele><time>2026-04-12T11:06:31.998Z</time></trkpt><trkpt lat="42.30197759341977" lon="14.09572535291027"><ele>106.0</ele><time>2026-04-12T11:06:32.998Z</time></trkpt><trkpt lat="42.30200508371723" lon="14.09546220487172"><ele>106.0</ele><time>2026-04-12T11:06:33.998Z</time></trkpt><trkpt lat="42.30203182964513" lon="14.095205720891103"><ele>106.0</ele><time>2026-04-12T11:06:34.998Z</time></trkpt><trkpt lat="42.30204329724225" lon="14.094983013257734"><ele>105.75</ele><time>2026-04-12T11:06:35.998Z</time></trkpt><trkpt lat="42.30206595484399" lon="14.094803558821658"><ele>105.5</ele><time>2026-04-12T11:06:36.998Z</time></trkpt><trkpt lat="42.302084501148606" lon="14.094662009843203"><ele>105.25</ele><time>2026-04-12T11:06:37.998Z</time></trkpt><trkpt lat="42.302053587926345" lon="14.094516067412357"><ele>105.0</ele><time>2026-04-12T11:06:38.998Z</time></trkpt><trkpt lat="42.30198218464477" lon="14.094372025397664"><ele>105.0</ele><time>2026-04-12T11:06:39.998Z</time></trkpt><trkpt lat="42.30198051221633" lon="14.094185256343442"><ele>105.0</ele><time>2026-04-12T11:06:40.998Z</time></trkpt><trkpt lat="42.301947570498996" lon="14.093999081975765"><ele>105.0</ele><time>2026-04-12T11:06:41.998Z</time></trkpt><trkpt lat="42.30187350109404" lon="14.093851545003332"><ele>105.0</ele><time>2026-04-12T11:06:42.998Z</time></trkpt><trkpt lat="42.30176145798631" lon="14.093731696081992"><ele>105.2</ele><time>2026-04-12T11:06:43.998Z</time></trkpt><trkpt lat="42.3016945308055" lon="14.093590653156426"><ele>105.4</ele><time>2026-04-12T11:06:44.998Z</time></trkpt><trkpt lat="42.30165812671326" lon="14.093479593869995"><ele>105.6</ele><time>2026-04-12T11:06:45.998Z</time></trkpt><trkpt lat="42.30164989282696" lon="14.093394232259918"><ele>105.8</ele><time>2026-04-12T11:06:46.998Z</time></trkpt><trkpt lat="42.301715740367705" lon="14.093327846820115"><ele>106.0</ele><time>2026-04-12T11:06:47.998Z</time></trkpt><trkpt lat="42.301821909641774" lon="14.0933053284023"><ele>108.25</ele><time>2026-04-12T11:06:49Z</time></trkpt><trkpt lat="42.30193183838394" lon="14.093255019433466"><ele>110.5</ele><time>2026-04-12T11:06:50Z</time></trkpt><trkpt lat="42.30204174588613" lon="14.093183402916576"><ele>112.75</ele><time>2026-04-12T11:06:51Z</time></trkpt><trkpt lat="42.30216743989608" lon="14.093118465676108"><ele>115.0</ele><time>2026-04-12T11:06:52Z</time></trkpt><trkpt lat="42.30228670361511" lon="14.093052423298806"><ele>115.0</ele><time>2026-04-12T11:06:53Z</time></trkpt><trkpt lat="42.30241339883438" lon="14.092990160271873"><ele>115.0</ele><time>2026-04-12T11:06:54Z</time></trkpt><trkpt lat="42.30255304235706" lon="14.092916616464178"><ele>115.0</ele><time>2026-04-12T11:06:55Z</time></trkpt><trkpt lat="42.302691732197715" lon="14.092842392162115"><ele>115.0</ele><time>2026-04-12T11:06:56Z</time></trkpt><trkpt lat="42.3028129503756" lon="14.09277164698001"><ele>115.0</ele><time>2026-04-12T11:06:57Z</time></trkpt><trkpt lat="42.30291132802261" lon="14.092684276617572"><ele>115.0</ele><time>2026-04-12T11:06:58Z</time></trkpt><trkpt lat="42.303005829131244" lon="14.092564971948534"><ele>115.0</ele><time>2026-04-12T11:06:59Z</time></trkpt><trkpt lat="42.30310076268528" lon="14.092411633368469"><ele>115.0</ele><time>2026-04-12T11:07:00Z</time></trkpt><trkpt lat="42.30321948205883" lon="14.09225795347356"><ele>113.66666666666667</ele><time>2026-04-12T11:07:01Z</time></trkpt><trkpt lat="42.303335495594766" lon="14.092096861707947"><ele>112.33333333333334</ele><time>2026-04-12T11:07:02Z</time></trkpt><trkpt lat="42.30345736328714" lon="14.091955927825607"><ele>111.0</ele><time>2026-04-12T11:07:03Z</time></trkpt><trkpt lat="42.30358514616747" lon="14.091850183865844"><ele>111.0</ele><time>2026-04-12T11:07:04Z</time></trkpt><trkpt lat="42.30372632214245" lon="14.091765005357335"><ele>111.0</ele><time>2026-04-12T11:07:05Z</time></trkpt><trkpt lat="42.30387407819759" lon="14.091664525810392"><ele>111.0</ele><time>2026-04-12T11:07:06Z</time></trkpt><trkpt lat="42.30403797039098" lon="14.091584388768867"><ele>111.33333333333334</ele><time>2026-04-12T11:07:07Z</time></trkpt><trkpt lat="42.30420442346745" lon="14.091493847201447"><ele>111.66666666666667</ele><time>2026-04-12T11:07:08Z</time></trkpt><trkpt lat="42.30437399736318" lon="14.091401344727164"><ele>112.0</ele><time>2026-04-12T11:07:08.999Z</time></trkpt><trkpt lat="42.30454165815683" lon="14.091317886254036"><ele>112.0</ele><time>2026-04-12T11:07:09.999Z</time></trkpt><trkpt lat="42.30470178593797" lon="14.091222825241868"><ele>112.0</ele><time>2026-04-12T11:07:10.999Z</time></trkpt><trkpt lat="42.30485886535602" lon="14.091115163931057"><ele>112.0</ele><time>2026-04-12T11:07:11.999Z</time></trkpt><trkpt lat="42.305016544291874" lon="14.091015203349558"><ele>110.66666666666667</ele><time>2026-04-12T11:07:12.999Z</time></trkpt><trkpt lat="42.30516885037993" lon="14.090920638989655"><ele>109.33333333333334</ele><time>2026-04-12T11:07:13.999Z</time></trkpt><trkpt lat="42.30530987623793" lon="14.090836785318391"><ele>108.0</ele><time>2026-04-12T11:07:14.999Z</time></trkpt><trkpt lat="42.30545014672764" lon="14.090755275348716"><ele>104.0</ele><time>2026-04-12T11:07:15.999Z</time></trkpt><trkpt lat="42.3055915681942" lon="14.090662020232598"><ele>100.0</ele><time>2026-04-12T11:07:16.999Z</time></trkpt><trkpt lat="42.30573955756206" lon="14.090565224357007"><ele>96.0</ele><time>2026-04-12T11:07:17.999Z</time></trkpt><trkpt lat="42.30588530235991" lon="14.090461130093452"><ele>96.0</ele><time>2026-04-12T11:07:18.999Z</time></trkpt><trkpt lat="42.30602057692603" lon="14.09035921405857"><ele>96.0</ele><time>2026-04-12T11:07:19.999Z</time></trkpt><trkpt lat="42.30614819090144" lon="14.090245248407593"><ele>96.0</ele><time>2026-04-12T11:07:20.999Z</time></trkpt><trkpt lat="42.3062791354738" lon="14.090098362477763"><ele>96.33333333333334</ele><time>2026-04-12T11:07:21.999Z</time></trkpt><trkpt lat="42.306395296932415" lon="14.089916368166378"><ele>96.66666666666667</ele><time>2026-04-12T11:07:22.999Z</time></trkpt><trkpt lat="42.30647414121036" lon="14.089713964687315"><ele>97.0</ele><time>2026-04-12T11:07:23.999Z</time></trkpt><trkpt lat="42.30653403640551" lon="14.089536319283399"><ele>96.0</ele><time>2026-04-12T11:07:24.999Z</time></trkpt><trkpt lat="42.306616340767555" lon="14.08942849259656"><ele>95.0</ele><time>2026-04-12T11:07:25.999Z</time></trkpt><trkpt lat="42.3066923811622" lon="14.08937139041943"><ele>94.0</ele><time>2026-04-12T11:07:26.999Z</time></trkpt><trkpt lat="42.306831385738725" lon="14.089406381426972"><ele>93.0</ele><time>2026-04-12T11:07:28.999Z</time></trkpt><trkpt lat="42.3069379401989" lon="14.089462770634976"><ele>93.0</ele><time>2026-04-12T11:07:29.999Z</time></trkpt><trkpt lat="42.307059566473306" lon="14.08951907221163"><ele>93.0</ele><time>2026-04-12T11:07:30.999Z</time></trkpt><trkpt lat="42.30717841873968" lon="14.089583455756994"><ele>93.0</ele><time>2026-04-12T11:07:31.999Z</time></trkpt><trkpt lat="42.3072785345755" lon="14.089616931391673"><ele>93.0</ele><time>2026-04-12T11:07:32.999Z</time></trkpt><trkpt lat="42.307366421503666" lon="14.08962553028271"><ele>93.0</ele><time>2026-04-12T11:07:33.999Z</time></trkpt><trkpt lat="42.30745229685461" lon="14.089603154933792"><ele>92.80000000000001</ele><time>2026-04-12T11:07:34.999Z</time></trkpt><trkpt lat="42.30752747588292" lon="14.08956921545648"><ele>92.6</ele><time>2026-04-12T11:07:35.999Z</time></trkpt><trkpt lat="42.307612784300545" lon="14.089688102651202"><ele>92.4</ele><time>2026-04-12T11:07:36.999Z</time></trkpt><trkpt lat="42.307718930543956" lon="14.089718406454574"><ele>92.19999999999999</ele><time>2026-04-12T11:07:37.999Z</time></trkpt><trkpt lat="42.30783346075261" lon="14.08976371509305"><ele>92.0</ele><time>2026-04-12T11:07:38.999Z</time></trkpt><trkpt lat="42.30796061769809" lon="14.089823321824849"><ele>90.33333333333334</ele><time>2026-04-12T11:07:39.999Z</time></trkpt><trkpt lat="42.30810889782215" lon="14.089872868660038"><ele>88.66666666666667</ele><time>2026-04-12T11:07:40.999Z</time></trkpt><trkpt lat="42.308262200469386" lon="14.089918492079477"><ele>87.0</ele><time>2026-04-12T11:07:41.999Z</time></trkpt><trkpt lat="42.30840947923523" lon="14.089941632669241"><ele>85.75</ele><time>2026-04-12T11:07:42.999Z</time></trkpt><trkpt lat="42.30855527837026" lon="14.089990421708153"><ele>84.5</ele><time>2026-04-12T11:07:43.999Z</time></trkpt><trkpt lat="42.30868992085502" lon="14.090035141241449"><ele>83.25</ele><time>2026-04-12T11:07:44.999Z</time></trkpt><trkpt lat="42.308811569937006" lon="14.090075849758218"><ele>82.0</ele><time>2026-04-12T11:07:45.999Z</time></trkpt><trkpt lat="42.30890242693828" lon="14.090109822282693"><ele>81.33333333333333</ele><time>2026-04-12T11:07:46.999Z</time></trkpt><trkpt lat="42.30897344912541" lon="14.090182479877015"><ele>80.66666666666666</ele><time>2026-04-12T11:07:48.999Z</time></trkpt><trkpt lat="42.309059275106165" lon="14.09024194701927"><ele>80.0</ele><time>2026-04-12T11:07:52.999Z</time></trkpt><trkpt lat="42.30914844323454" lon="14.090303729814208"><ele>79.33333333333333</ele><time>2026-04-12T11:07:54.999Z</time></trkpt><trkpt lat="42.30921309288071" lon="14.090331673372324"><ele>78.66666666666667</ele><time>2026-04-12T11:07:55.999Z</time></trkpt><trkpt lat="42.30923498212359" lon="14.090433530138041"><ele>78.0</ele><time>2026-04-12T11:07:56.999Z</time></trkpt><trkpt lat="42.30925456116679" lon="14.090532263872888"><ele>78.0</ele><time>2026-04-12T11:07:57.999Z</time></trkpt><trkpt lat="42.30926910958556" lon="14.09062343071165"><ele>78.0</ele><time>2026-04-12T11:07:58.999Z</time></trkpt><trkpt lat="42.30928989256263" lon="14.0907897411656"><ele>78.0</ele><time>2026-04-12T11:08:00.999Z</time></trkpt><trkpt lat="42.30931360823883" lon="14.090870726603837"><ele>78.0</ele><time>2026-04-12T11:08:01.999Z</time></trkpt><trkpt lat="42.309357847703495" lon="14.09093478741755"><ele>78.0</ele><time>2026-04-12T11:08:02.999Z</time></trkpt><trkpt lat="42.30942549776962" lon="14.090982100753147"><ele>78.0</ele><time>2026-04-12T11:08:03.999Z</time></trkpt><trkpt lat="42.30949516054005" lon="14.09102635068634"><ele>77.6</ele><time>2026-04-12T11:08:04.999Z</time></trkpt><trkpt lat="42.30956120939907" lon="14.0910699571405"><ele>77.19999999999999</ele><time>2026-04-12T11:08:05.999Z</time></trkpt><trkpt lat="42.30964272679823" lon="14.091189559015989"><ele>76.8</ele><time>2026-04-12T11:08:07.999Z</time></trkpt><trkpt lat="42.30973358381699" lon="14.091325558734898"><ele>76.39999999999999</ele><time>2026-04-12T11:08:09.998Z</time></trkpt><trkpt lat="42.30979005438955" lon="14.091388481328224"><ele>76.0</ele><time>2026-04-12T11:08:10.998Z</time></trkpt><trkpt lat="42.30985037430938" lon="14.091452321911602"><ele>77.0</ele><time>2026-04-12T11:08:11.998Z</time></trkpt><trkpt lat="42.309926109302786" lon="14.091589190700393"><ele>78.0</ele><time>2026-04-12T11:08:13.998Z</time></trkpt><trkpt lat="42.30998037863613" lon="14.091685696085884"><ele>79.0</ele><time>2026-04-12T11:08:14.998Z</time></trkpt><trkpt lat="42.310042107852965" lon="14.091791607919564"><ele>80.0</ele><time>2026-04-12T11:08:15.998Z</time></trkpt><trkpt lat="42.31010799983606" lon="14.091901295460264"><ele>81.0</ele><time>2026-04-12T11:08:16.998Z</time></trkpt><trkpt lat="42.31017068275613" lon="14.092002311441698"><ele>82.0</ele><time>2026-04-12T11:08:17.998Z</time></trkpt><trkpt lat="42.31023688032236" lon="14.092101338587666"><ele>83.0</ele><time>2026-04-12T11:08:18.998Z</time></trkpt><trkpt lat="42.310303962823404" lon="14.09220069872407"><ele>84.0</ele><time>2026-04-12T11:08:19.998Z</time></trkpt><trkpt lat="42.310371102199746" lon="14.092299744640513"><ele>85.0</ele><time>2026-04-12T11:08:20.998Z</time></trkpt><trkpt lat="42.31043057927716" lon="14.092395189167133"><ele>86.0</ele><time>2026-04-12T11:08:21.998Z</time></trkpt><trkpt lat="42.310491808313785" lon="14.092490650694575"><ele>87.0</ele><time>2026-04-12T11:08:22.998Z</time></trkpt><trkpt lat="42.31053744845223" lon="14.092583227124033"><ele>88.0</ele><time>2026-04-12T11:08:23.998Z</time></trkpt><trkpt lat="42.31057959086805" lon="14.092666881976426"><ele>89.0</ele><time>2026-04-12T11:08:24.998Z</time></trkpt><trkpt lat="42.31063080328391" lon="14.092746388526683"><ele>90.0</ele><time>2026-04-12T11:08:25.998Z</time></trkpt><trkpt lat="42.31068019150996" lon="14.092824364273795"><ele>91.0</ele><time>2026-04-12T11:08:26.998Z</time></trkpt><trkpt lat="42.31072928840106" lon="14.092909905844165"><ele>92.0</ele><time>2026-04-12T11:08:27.998Z</time></trkpt><trkpt lat="42.31078725789973" lon="14.093003236478467"><ele>92.0</ele><time>2026-04-12T11:08:28.998Z</time></trkpt><trkpt lat="42.31084768221425" lon="14.093090279781107"><ele>92.0</ele><time>2026-04-12T11:08:29.998Z</time></trkpt><trkpt lat="42.31091043961319" lon="14.093182786352445"><ele>92.0</ele><time>2026-04-12T11:08:30.998Z</time></trkpt><trkpt lat="42.310965577161305" lon="14.093270275720513"><ele>92.0</ele><time>2026-04-12T11:08:31.998Z</time></trkpt><trkpt lat="42.31102563690062" lon="14.093361231936974"><ele>92.0</ele><time>2026-04-12T11:08:32.998Z</time></trkpt><trkpt lat="42.311084151706865" lon="14.093444759387566"><ele>92.0</ele><time>2026-04-12T11:08:33.998Z</time></trkpt><trkpt lat="42.3111441471341" lon="14.093534846211568"><ele>92.8</ele><time>2026-04-12T11:08:34.998Z</time></trkpt><trkpt lat="42.31120772178645" lon="14.093637888417717"><ele>93.6</ele><time>2026-04-12T11:08:35.998Z</time></trkpt><trkpt lat="42.311272577982365" lon="14.093747774557318"><ele>94.39999999999999</ele><time>2026-04-12T11:08:36.998Z</time></trkpt><trkpt lat="42.311335867963194" lon="14.093841722869984"><ele>95.19999999999999</ele><time>2026-04-12T11:08:37.998Z</time></trkpt><trkpt lat="42.31142650695148" lon="14.093917678166509"><ele>96.0</ele><time>2026-04-12T11:08:39.998Z</time></trkpt><trkpt lat="42.31151884695605" lon="14.093734414925272"><ele>96.0</ele><time>2026-04-12T11:08:42.998Z</time></trkpt><trkpt lat="42.311560682495525" lon="14.093611169421433"><ele>96.0</ele><time>2026-04-12T11:08:43.998Z</time></trkpt><trkpt lat="42.311611835291885" lon="14.093494515323158"><ele>96.0</ele><time>2026-04-12T11:08:44.998Z</time></trkpt><trkpt lat="42.311662298232335" lon="14.09336804393689"><ele>96.0</ele><time>2026-04-12T11:08:45.998Z</time></trkpt><trkpt lat="42.311726545845524" lon="14.093236338764427"><ele>96.0</ele><time>2026-04-12T11:08:46.998Z</time></trkpt><trkpt lat="42.311808410422685" lon="14.09310208196272"><ele>95.0</ele><time>2026-04-12T11:08:47.998Z</time></trkpt><trkpt lat="42.31189436586145" lon="14.092958030615911"><ele>94.0</ele><time>2026-04-12T11:08:48.998Z</time></trkpt><trkpt lat="42.31197975160304" lon="14.092814341755712"><ele>93.0</ele><time>2026-04-12T11:08:49.998Z</time></trkpt><trkpt lat="42.312063093873476" lon="14.092658722593205"><ele>92.0</ele><time>2026-04-12T11:08:50.998Z</time></trkpt><trkpt lat="42.31214519450192" lon="14.092499366696833"><ele>92.5</ele><time>2026-04-12T11:08:51.998Z</time></trkpt><trkpt lat="42.31223106908446" lon="14.09233982879905"><ele>93.0</ele><time>2026-04-12T11:08:52.998Z</time></trkpt><trkpt lat="42.31231804943448" lon="14.092191137196531"><ele>93.5</ele><time>2026-04-12T11:08:53.998Z</time></trkpt><trkpt lat="42.31240351829207" lon="14.092070856903188"><ele>94.0</ele><time>2026-04-12T11:08:55Z</time></trkpt><trkpt lat="42.312491417552536" lon="14.09197544891932"><ele>94.0</ele><time>2026-04-12T11:08:56Z</time></trkpt><trkpt lat="42.31260188616438" lon="14.091882592166872"><ele>94.0</ele><time>2026-04-12T11:08:57Z</time></trkpt><trkpt lat="42.312728877798186" lon="14.091790632446534"><ele>94.0</ele><time>2026-04-12T11:08:58Z</time></trkpt><trkpt lat="42.312845444852854" lon="14.091693183529879"><ele>94.0</ele><time>2026-04-12T11:08:59Z</time></trkpt><trkpt lat="42.312940950377964" lon="14.091584918432968"><ele>94.0</ele><time>2026-04-12T11:09:00Z</time></trkpt><trkpt lat="42.313011552844024" lon="14.091446903834422"><ele>94.0</ele><time>2026-04-12T11:09:01Z</time></trkpt><trkpt lat="42.31306200848197" lon="14.09128070487218"><ele>94.0</ele><time>2026-04-12T11:09:02Z</time></trkpt><trkpt lat="42.313093270474134" lon="14.09108391371554"><ele>94.0</ele><time>2026-04-12T11:09:03Z</time></trkpt><trkpt lat="42.313120752404544" lon="14.090858182747395"><ele>94.0</ele><time>2026-04-12T11:09:04Z</time></trkpt><trkpt lat="42.313154345783936" lon="14.090651664908783"><ele>94.0</ele><time>2026-04-12T11:09:05Z</time></trkpt><trkpt lat="42.31318747606306" lon="14.09044411445863"><ele>94.0</ele><time>2026-04-12T11:09:06Z</time></trkpt><trkpt lat="42.31321387914828" lon="14.090227970198418"><ele>94.0</ele><time>2026-04-12T11:09:07Z</time></trkpt><trkpt lat="42.31324055864002" lon="14.090007755889928"><ele>94.0</ele><time>2026-04-12T11:09:08Z</time></trkpt><trkpt lat="42.313287825684284" lon="14.089789848545552"><ele>94.0</ele><time>2026-04-12T11:09:09Z</time></trkpt><trkpt lat="42.313312228104635" lon="14.089562432226414"><ele>93.33333333333333</ele><time>2026-04-12T11:09:10Z</time></trkpt><trkpt lat="42.313389404655844" lon="14.089347113885934"><ele>92.66666666666667</ele><time>2026-04-12T11:09:11Z</time></trkpt><trkpt lat="42.31345877408338" lon="14.089123499526659"><ele>92.0</ele><time>2026-04-12T11:09:12Z</time></trkpt><trkpt lat="42.31351582237826" lon="14.08890609318288"><ele>91.33333333333334</ele><time>2026-04-12T11:09:12.999Z</time></trkpt><trkpt lat="42.31358354386854" lon="14.08869802401467"><ele>90.66666666666667</ele><time>2026-04-12T11:09:13.999Z</time></trkpt><trkpt lat="42.313671374716975" lon="14.088491803759364"><ele>90.0</ele><time>2026-04-12T11:09:14.999Z</time></trkpt><trkpt lat="42.31379869983148" lon="14.088320570680827"><ele>88.0</ele><time>2026-04-12T11:09:15.999Z</time></trkpt><trkpt lat="42.31391751231279" lon="14.088130294783952"><ele>86.0</ele><time>2026-04-12T11:09:16.999Z</time></trkpt><trkpt lat="42.31405339873853" lon="14.087961184048368"><ele>84.0</ele><time>2026-04-12T11:09:17.999Z</time></trkpt><trkpt lat="42.31418625840653" lon="14.087794879333282"><ele>84.0</ele><time>2026-04-12T11:09:18.999Z</time></trkpt><trkpt lat="42.31431201645228" lon="14.087627037899422"><ele>84.0</ele><time>2026-04-12T11:09:19.999Z</time></trkpt><trkpt lat="42.314440176989585" lon="14.087461835743191"><ele>84.0</ele><time>2026-04-12T11:09:20.999Z</time></trkpt><trkpt lat="42.3145613301201" lon="14.087311005878261"><ele>83.33333333333333</ele><time>2026-04-12T11:09:21.999Z</time></trkpt><trkpt lat="42.31467786359883" lon="14.087172787487377"><ele>82.66666666666666</ele><time>2026-04-12T11:09:22.999Z</time></trkpt><trkpt lat="42.314801619825886" lon="14.087045556417195"><ele>82.0</ele><time>2026-04-12T11:09:23.999Z</time></trkpt><trkpt lat="42.31493265267322" lon="14.086924064444714"><ele>81.25</ele><time>2026-04-12T11:09:24.999Z</time></trkpt><trkpt lat="42.315066187290896" lon="14.086818941493584"><ele>80.5</ele><time>2026-04-12T11:09:25.999Z</time></trkpt><trkpt lat="42.315192437152426" lon="14.086745415188778"><ele>79.75</ele><time>2026-04-12T11:09:26.999Z</time></trkpt><trkpt lat="42.31532675913852" lon="14.08670666815741"><ele>79.0</ele><time>2026-04-12T11:09:27.999Z</time></trkpt><trkpt lat="42.31547831376402" lon="14.086709162432529"><ele>79.33333333333333</ele><time>2026-04-12T11:09:28.999Z</time></trkpt><trkpt lat="42.31563413613933" lon="14.086742461430354"><ele>79.66666666666667</ele><time>2026-04-12T11:09:29.999Z</time></trkpt><trkpt lat="42.315784399332145" lon="14.086779591740004"><ele>80.0</ele><time>2026-04-12T11:09:30.999Z</time></trkpt><trkpt lat="42.31592246640202" lon="14.086805462567444"><ele>80.0</ele><time>2026-04-12T11:09:31.999Z</time></trkpt><trkpt lat="42.31607862686361" lon="14.086826155224305"><ele>80.0</ele><time>2026-04-12T11:09:32.999Z</time></trkpt><trkpt lat="42.31623455839509" lon="14.086850340308015"><ele>80.0</ele><time>2026-04-12T11:09:33.999Z</time></trkpt><trkpt lat="42.316385062894454" lon="14.086890017322615"><ele>79.0</ele><time>2026-04-12T11:09:34.999Z</time></trkpt><trkpt lat="42.316538875379024" lon="14.08698245564796"><ele>78.0</ele><time>2026-04-12T11:09:35.999Z</time></trkpt><trkpt lat="42.31670139924834" lon="14.087093876839173"><ele>77.0</ele><time>2026-04-12T11:09:36.999Z</time></trkpt><trkpt lat="42.316855295947924" lon="14.087190503375455"><ele>77.0</ele><time>2026-04-12T11:09:37.999Z</time></trkpt><trkpt lat="42.31700777749666" lon="14.087280556749446"><ele>77.0</ele><time>2026-04-12T11:09:38.999Z</time></trkpt><trkpt lat="42.317157628732275" lon="14.087360650456013"><ele>77.0</ele><time>2026-04-12T11:09:39.999Z</time></trkpt><trkpt lat="42.31730966000279" lon="14.087440662407126"><ele>73.66666666666667</ele><time>2026-04-12T11:09:40.999Z</time></trkpt><trkpt lat="42.317459594535066" lon="14.087532397629104"><ele>70.33333333333333</ele><time>2026-04-12T11:09:41.999Z</time></trkpt><trkpt lat="42.317600020345296" lon="14.087637775772897"><ele>67.0</ele><time>2026-04-12T11:09:42.999Z</time></trkpt><trkpt lat="42.31771977471646" lon="14.087741009168044"><ele>67.0</ele><time>2026-04-12T11:09:43.999Z</time></trkpt><trkpt lat="42.317833920681196" lon="14.087859277921245"><ele>67.0</ele><time>2026-04-12T11:09:44.999Z</time></trkpt><trkpt lat="42.31793583181189" lon="14.087993431029926"><ele>67.0</ele><time>2026-04-12T11:09:45.999Z</time></trkpt><trkpt lat="42.3180191394295" lon="14.088116237274031"><ele>67.0</ele><time>2026-04-12T11:09:46.999Z</time></trkpt><trkpt lat="42.31810316715825" lon="14.088219739055853"><ele>66.4</ele><time>2026-04-12T11:09:47.999Z</time></trkpt><trkpt lat="42.31819708284128" lon="14.08829579612313"><ele>65.80000000000001</ele><time>2026-04-12T11:09:48.999Z</time></trkpt><trkpt lat="42.318293700158144" lon="14.088330726594405"><ele>65.2</ele><time>2026-04-12T11:09:49.999Z</time></trkpt><trkpt lat="42.31840020040656" lon="14.088340513327132"><ele>64.60000000000001</ele><time>2026-04-12T11:09:50.999Z</time></trkpt><trkpt lat="42.31851274504892" lon="14.088344307363052"><ele>64.0</ele><time>2026-04-12T11:09:51.999Z</time></trkpt><trkpt lat="42.31862502640293" lon="14.088359648309234"><ele>64.0</ele><time>2026-04-12T11:09:52.999Z</time></trkpt><trkpt lat="42.31874325739525" lon="14.088396070335518"><ele>64.0</ele><time>2026-04-12T11:09:53.999Z</time></trkpt><trkpt lat="42.318861367159904" lon="14.088451106801616"><ele>64.0</ele><time>2026-04-12T11:09:54.999Z</time></trkpt><trkpt lat="42.31898325662636" lon="14.08850465027416"><ele>64.0</ele><time>2026-04-12T11:09:55.999Z</time></trkpt><trkpt lat="42.31910904816823" lon="14.088555895771698"><ele>63.6</ele><time>2026-04-12T11:09:56.999Z</time></trkpt><trkpt lat="42.319230177277824" lon="14.088592836164178"><ele>63.2</ele><time>2026-04-12T11:09:57.999Z</time></trkpt><trkpt lat="42.319343411698085" lon="14.088619371546816"><ele>62.800000000000004</ele><time>2026-04-12T11:09:58.999Z</time></trkpt><trkpt lat="42.319435466450706" lon="14.088648775042778"><ele>62.400000000000006</ele><time>2026-04-12T11:09:59.999Z</time></trkpt><trkpt lat="42.319514512081774" lon="14.088697573860623"><ele>62.0</ele><time>2026-04-12T11:10:01.999Z</time></trkpt><trkpt lat="42.319558800668084" lon="14.088569694914298"><ele>62.0</ele><time>2026-04-12T11:10:02.999Z</time></trkpt><trkpt lat="42.319625781540985" lon="14.08845803074139"><ele>62.0</ele><time>2026-04-12T11:10:03.999Z</time></trkpt><trkpt lat="42.31970317603955" lon="14.088315082365664"><ele>62.0</ele><time>2026-04-12T11:10:04.999Z</time></trkpt><trkpt lat="42.31977193996737" lon="14.088186015483023"><ele>62.0</ele><time>2026-04-12T11:10:05.999Z</time></trkpt><trkpt lat="42.31983549040878" lon="14.088064092780387"><ele>61.8</ele><time>2026-04-12T11:10:06.999Z</time></trkpt><trkpt lat="42.31989987417714" lon="14.087940571329709"><ele>61.6</ele><time>2026-04-12T11:10:07.999Z</time></trkpt><trkpt lat="42.31996315136228" lon="14.08781916541543"><ele>61.39999999999999</ele><time>2026-04-12T11:10:08.999Z</time></trkpt><trkpt lat="42.32002228142021" lon="14.087705713376561"><ele>61.199999999999996</ele><time>2026-04-12T11:10:09.999Z</time></trkpt><trkpt lat="42.32008013810791" lon="14.087599234192883"><ele>61.0</ele><time>2026-04-12T11:10:10.999Z</time></trkpt><trkpt lat="42.32013512716071" lon="14.087497595935881"><ele>61.0</ele><time>2026-04-12T11:10:11.999Z</time></trkpt><trkpt lat="42.32022121761484" lon="14.08744302993909"><ele>60.99999999999999</ele><time>2026-04-12T11:10:12.998Z</time></trkpt><trkpt lat="42.32028447932732" lon="14.087385336648182"><ele>60.99999999999999</ele><time>2026-04-12T11:10:13.998Z</time></trkpt><trkpt lat="42.32038958717933" lon="14.08735696857064"><ele>61.0</ele><time>2026-04-12T11:10:17.998Z</time></trkpt><trkpt lat="42.320450427492446" lon="14.08755260396426"><ele>61.0</ele><time>2026-04-12T11:10:18.998Z</time></trkpt><trkpt lat="42.32049547880566" lon="14.087661750155078"><ele>61.0</ele><time>2026-04-12T11:10:19.998Z</time></trkpt><trkpt lat="42.32056266332449" lon="14.087796534848591"><ele>61.0</ele><time>2026-04-12T11:10:20.998Z</time></trkpt><trkpt lat="42.320630425432974" lon="14.087937897834713"><ele>61.0</ele><time>2026-04-12T11:10:21.998Z</time></trkpt><trkpt lat="42.3206993453454" lon="14.088080061344407"><ele>61.0</ele><time>2026-04-12T11:10:22.998Z</time></trkpt><trkpt lat="42.32077535832626" lon="14.088239081353361"><ele>60.75</ele><time>2026-04-12T11:10:23.998Z</time></trkpt><trkpt lat="42.32085807065356" lon="14.088406137658046"><ele>60.5</ele><time>2026-04-12T11:10:24.998Z</time></trkpt><trkpt lat="42.320938274738694" lon="14.088573671885941"><ele>60.25</ele><time>2026-04-12T11:10:25.998Z</time></trkpt><trkpt lat="42.321020542072574" lon="14.0887473196394"><ele>60.0</ele><time>2026-04-12T11:10:26.998Z</time></trkpt><trkpt lat="42.32111247161597" lon="14.088926191235508"><ele>59.66666666666667</ele><time>2026-04-12T11:10:27.998Z</time></trkpt><trkpt lat="42.32120279291574" lon="14.08911097244404"><ele>59.333333333333336</ele><time>2026-04-12T11:10:28.998Z</time></trkpt><trkpt lat="42.32129296074106" lon="14.089289854588896"><ele>59.0</ele><time>2026-04-12T11:10:29.998Z</time></trkpt><trkpt lat="42.32137666702123" lon="14.089462877592052"><ele>59.0</ele><time>2026-04-12T11:10:30.998Z</time></trkpt><trkpt lat="42.321457854254525" lon="14.089638349399857"><ele>59.0</ele><time>2026-04-12T11:10:31.998Z</time></trkpt><trkpt lat="42.321541133586855" lon="14.089820306134907"><ele>59.0</ele><time>2026-04-12T11:10:32.998Z</time></trkpt><trkpt lat="42.321624429731116" lon="14.090005285831113"><ele>58.66666666666667</ele><time>2026-04-12T11:10:33.998Z</time></trkpt><trkpt lat="42.32171523158638" lon="14.090190908954561"><ele>58.33333333333333</ele><time>2026-04-12T11:10:34.998Z</time></trkpt><trkpt lat="42.32180402711752" lon="14.090375384495347"><ele>58.0</ele><time>2026-04-12T11:10:35.998Z</time></trkpt><trkpt lat="42.32189349596112" lon="14.09056278525854"><ele>58.0</ele><time>2026-04-12T11:10:36.998Z</time></trkpt><trkpt lat="42.321979063996956" lon="14.090741608717348"><ele>58.0</ele><time>2026-04-12T11:10:37.998Z</time></trkpt><trkpt lat="42.32205810640872" lon="14.090906780889398"><ele>58.0</ele><time>2026-04-12T11:10:38.998Z</time></trkpt><trkpt lat="42.32213004262857" lon="14.09105467266124"><ele>58.0</ele><time>2026-04-12T11:10:39.998Z</time></trkpt><trkpt lat="42.3221948445535" lon="14.091192235442904"><ele>58.25</ele><time>2026-04-12T11:10:40.998Z</time></trkpt><trkpt lat="42.32226007000717" lon="14.091327395800544"><ele>58.5</ele><time>2026-04-12T11:10:41.998Z</time></trkpt><trkpt lat="42.322319593925215" lon="14.091453768950569"><ele>58.75</ele><time>2026-04-12T11:10:42.998Z</time></trkpt><trkpt lat="42.32237661884194" lon="14.091580046528906"><ele>59.0</ele><time>2026-04-12T11:10:43.998Z</time></trkpt><trkpt lat="42.322439593639174" lon="14.091712983805783"><ele>59.0</ele><time>2026-04-12T11:10:44.998Z</time></trkpt><trkpt lat="42.32250124002624" lon="14.091841203140046"><ele>59.0</ele><time>2026-04-12T11:10:45.998Z</time></trkpt><trkpt lat="42.32256152496364" lon="14.091970236163977"><ele>59.0</ele><time>2026-04-12T11:10:46.998Z</time></trkpt><trkpt lat="42.32262249153963" lon="14.092098857845471"><ele>59.0</ele><time>2026-04-12T11:10:47.998Z</time></trkpt><trkpt lat="42.32268424017055" lon="14.092226808987883"><ele>59.0</ele><time>2026-04-12T11:10:48.998Z</time></trkpt><trkpt lat="42.32274758449882" lon="14.092354825752215"><ele>59.0</ele><time>2026-04-12T11:10:49.998Z</time></trkpt><trkpt lat="42.32280932429932" lon="14.092482463762213"><ele>59.0</ele><time>2026-04-12T11:10:50.998Z</time></trkpt><trkpt lat="42.32287223851868" lon="14.092611651098897"><ele>59.0</ele><time>2026-04-12T11:10:51.998Z</time></trkpt><trkpt lat="42.32293217230607" lon="14.09273654825883"><ele>58.800000000000004</ele><time>2026-04-12T11:10:52.998Z</time></trkpt><trkpt lat="42.32298672988418" lon="14.092848489305249"><ele>58.60000000000001</ele><time>2026-04-12T11:10:53.998Z</time></trkpt><trkpt lat="42.32303400165825" lon="14.092956202346622"><ele>58.4</ele><time>2026-04-12T11:10:54.998Z</time></trkpt><trkpt lat="42.3230850699106" lon="14.093067588807067"><ele>58.2</ele><time>2026-04-12T11:10:55.998Z</time></trkpt><trkpt lat="42.32314167015428" lon="14.093187842401766"><ele>58.0</ele><time>2026-04-12T11:10:56.998Z</time></trkpt><trkpt lat="42.323205175704075" lon="14.093312298689867"><ele>58.0</ele><time>2026-04-12T11:10:57.998Z</time></trkpt><trkpt lat="42.32326447839538" lon="14.093438815578748"><ele>58.0</ele><time>2026-04-12T11:10:58.998Z</time></trkpt><trkpt lat="42.32331697533567" lon="14.09355454133358"><ele>58.0</ele><time>2026-04-12T11:11:00Z</time></trkpt><trkpt lat="42.32337225348233" lon="14.093662315067208"><ele>58.0</ele><time>2026-04-12T11:11:01Z</time></trkpt><trkpt lat="42.32342950539252" lon="14.09378330398575"><ele>58.0</ele><time>2026-04-12T11:11:02Z</time></trkpt><trkpt lat="42.323484978666755" lon="14.093912656414851"><ele>58.0</ele><time>2026-04-12T11:11:03Z</time></trkpt><trkpt lat="42.32353576682798" lon="14.094048858714018"><ele>58.0</ele><time>2026-04-12T11:11:04Z</time></trkpt><trkpt lat="42.323578383392665" lon="14.094186459715026"><ele>58.0</ele><time>2026-04-12T11:11:05Z</time></trkpt><trkpt lat="42.32361592257515" lon="14.09432390193553"><ele>58.0</ele><time>2026-04-12T11:11:06Z</time></trkpt><trkpt lat="42.32364841769197" lon="14.09446073031882"><ele>58.0</ele><time>2026-04-12T11:11:07Z</time></trkpt><trkpt lat="42.32367743077202" lon="14.094593326239872"><ele>58.0</ele><time>2026-04-12T11:11:08Z</time></trkpt><trkpt lat="42.32370615105192" lon="14.094726013408348"><ele>58.0</ele><time>2026-04-12T11:11:09Z</time></trkpt><trkpt lat="42.32373428989107" lon="14.094862393751313"><ele>58.0</ele><time>2026-04-12T11:11:10Z</time></trkpt><trkpt lat="42.323762704248075" lon="14.095000141279547"><ele>58.0</ele><time>2026-04-12T11:11:11Z</time></trkpt><trkpt lat="42.323789751197346" lon="14.095139309131632"><ele>58.0</ele><time>2026-04-12T11:11:12Z</time></trkpt><trkpt lat="42.32381797759879" lon="14.095278689612895"><ele>58.0</ele><time>2026-04-12T11:11:13Z</time></trkpt><trkpt lat="42.32384774260777" lon="14.09541861664753"><ele>58.0</ele><time>2026-04-12T11:11:14Z</time></trkpt><trkpt lat="42.32387664556599" lon="14.095558806535244"><ele>58.0</ele><time>2026-04-12T11:11:14.999Z</time></trkpt><trkpt lat="42.323903757029" lon="14.095699193988612"><ele>58.0</ele><time>2026-04-12T11:11:15.999Z</time></trkpt><trkpt lat="42.32393196735961" lon="14.09583636417152"><ele>58.0</ele><time>2026-04-12T11:11:16.999Z</time></trkpt><trkpt lat="42.323960686091894" lon="14.095973354838465"><ele>58.0</ele><time>2026-04-12T11:11:17.999Z</time></trkpt><trkpt lat="42.323988076781234" lon="14.096110033872671"><ele>58.0</ele><time>2026-04-12T11:11:18.999Z</time></trkpt><trkpt lat="42.32401535256068" lon="14.096250874962086"><ele>58.0</ele><time>2026-04-12T11:11:19.999Z</time></trkpt><trkpt lat="42.32404257829679" lon="14.096390544398616"><ele>58.0</ele><time>2026-04-12T11:11:20.999Z</time></trkpt><trkpt lat="42.324070350438774" lon="14.096531686426513"><ele>58.0</ele><time>2026-04-12T11:11:21.999Z</time></trkpt><trkpt lat="42.324104501761646" lon="14.096682803517428"><ele>58.0</ele><time>2026-04-12T11:11:22.999Z</time></trkpt><trkpt lat="42.32414166440771" lon="14.096842577755105"><ele>58.0</ele><time>2026-04-12T11:11:23.999Z</time></trkpt><trkpt lat="42.324175071630535" lon="14.097003399759302"><ele>58.0</ele><time>2026-04-12T11:11:24.999Z</time></trkpt><trkpt lat="42.32420846065153" lon="14.09715554157259"><ele>58.0</ele><time>2026-04-12T11:11:25.999Z</time></trkpt><trkpt lat="42.32423552268704" lon="14.097297482986507"><ele>57.75</ele><time>2026-04-12T11:11:26.999Z</time></trkpt><trkpt lat="42.32426631293297" lon="14.097444851398501"><ele>57.5</ele><time>2026-04-12T11:11:27.999Z</time></trkpt><trkpt lat="42.32430501220341" lon="14.097598015420004"><ele>57.25</ele><time>2026-04-12T11:11:28.999Z</time></trkpt><trkpt lat="42.32435314721654" lon="14.097754334656072"><ele>57.0</ele><time>2026-04-12T11:11:29.999Z</time></trkpt><trkpt lat="42.32440959629755" lon="14.09791212502375"><ele>57.0</ele><time>2026-04-12T11:11:30.999Z</time></trkpt><trkpt lat="42.32447456114105" lon="14.098069024840347"><ele>57.0</ele><time>2026-04-12T11:11:31.999Z</time></trkpt><trkpt lat="42.324550456142525" lon="14.09822272130507"><ele>57.0</ele><time>2026-04-12T11:11:32.999Z</time></trkpt><trkpt lat="42.324635293061306" lon="14.09837410631227"><ele>57.0</ele><time>2026-04-12T11:11:33.999Z</time></trkpt><trkpt lat="42.32472656285273" lon="14.098520794047598"><ele>56.0</ele><time>2026-04-12T11:11:34.999Z</time></trkpt><trkpt lat="42.32481831390709" lon="14.098664636662539"><ele>55.0</ele><time>2026-04-12T11:11:35.999Z</time></trkpt><trkpt lat="42.324904914024934" lon="14.098802278779461"><ele>54.0</ele><time>2026-04-12T11:11:36.999Z</time></trkpt><trkpt lat="42.3249882236485" lon="14.098937310517545"><ele>53.0</ele><time>2026-04-12T11:11:37.999Z</time></trkpt><trkpt lat="42.32506795021934" lon="14.099068026260598"><ele>53.75</ele><time>2026-04-12T11:11:38.999Z</time></trkpt><trkpt lat="42.3251432106486" lon="14.099189517504758"><ele>54.5</ele><time>2026-04-12T11:11:39.999Z</time></trkpt><trkpt lat="42.32521441399433" lon="14.099305137024988"><ele>55.25</ele><time>2026-04-12T11:11:40.999Z</time></trkpt><trkpt lat="42.325284928150026" lon="14.099421601161103"><ele>56.0</ele><time>2026-04-12T11:11:41.999Z</time></trkpt><trkpt lat="42.32535571567154" lon="14.099537588816343"><ele>56.0</ele><time>2026-04-12T11:11:42.999Z</time></trkpt><trkpt lat="42.32542962239345" lon="14.099654606060884"><ele>56.0</ele><time>2026-04-12T11:11:43.999Z</time></trkpt><trkpt lat="42.325505744218916" lon="14.099772153159401"><ele>56.0</ele><time>2026-04-12T11:11:44.999Z</time></trkpt><trkpt lat="42.325580100402966" lon="14.09988585552001"><ele>56.0</ele><time>2026-04-12T11:11:45.999Z</time></trkpt><trkpt lat="42.32565416640447" lon="14.100000057471659"><ele>55.4</ele><time>2026-04-12T11:11:46.999Z</time></trkpt><trkpt lat="42.325728849299956" lon="14.100109584872586"><ele>54.8</ele><time>2026-04-12T11:11:47.999Z</time></trkpt><trkpt lat="42.325790081547" lon="14.100208697290993"><ele>54.199999999999996</ele><time>2026-04-12T11:11:48.999Z</time></trkpt><trkpt lat="42.3258497140935" lon="14.100304120870009"><ele>53.599999999999994</ele><time>2026-04-12T11:11:49.999Z</time></trkpt><trkpt lat="42.32590832703239" lon="14.10039606871772"><ele>53.0</ele><time>2026-04-12T11:11:50.999Z</time></trkpt><trkpt lat="42.32595967665674" lon="14.10047725532197"><ele>53.00000000000001</ele><time>2026-04-12T11:11:51.999Z</time></trkpt><trkpt lat="42.326007096132415" lon="14.100553619988462"><ele>53.0</ele><time>2026-04-12T11:11:52.999Z</time></trkpt><trkpt lat="42.32605338085098" lon="14.100641730145142"><ele>53.0</ele><time>2026-04-12T11:11:53.999Z</time></trkpt><trkpt lat="42.32609642270926" lon="14.100735534341878"><ele>53.0</ele><time>2026-04-12T11:11:54.999Z</time></trkpt><trkpt lat="42.32612409631653" lon="14.100827584032192"><ele>53.00000000000001</ele><time>2026-04-12T11:11:55.999Z</time></trkpt><trkpt lat="42.32613845176661" lon="14.100919063624026"><ele>53.0</ele><time>2026-04-12T11:11:56.999Z</time></trkpt><trkpt lat="42.3261505060959" lon="14.101016077423369"><ele>53.333333333333336</ele><time>2026-04-12T11:11:57.999Z</time></trkpt><trkpt lat="42.32616757511778" lon="14.10110235000959"><ele>53.66666666666667</ele><time>2026-04-12T11:11:58.999Z</time></trkpt><trkpt lat="42.32626445733108" lon="14.101209283043078"><ele>54.0</ele><time>2026-04-12T11:12:00.999Z</time></trkpt><trkpt lat="42.326339615326745" lon="14.10124139449889"><ele>54.33333333333333</ele><time>2026-04-12T11:12:01.999Z</time></trkpt><trkpt lat="42.32642004837752" lon="14.101283596263542"><ele>54.666666666666664</ele><time>2026-04-12T11:12:02.999Z</time></trkpt><trkpt lat="42.32648976767005" lon="14.10133915964816"><ele>55.0</ele><time>2026-04-12T11:12:03.999Z</time></trkpt><trkpt lat="42.326555750764264" lon="14.101415798917374"><ele>55.0</ele><time>2026-04-12T11:12:04.999Z</time></trkpt><trkpt lat="42.326618453275316" lon="14.101509053080708"><ele>55.0</ele><time>2026-04-12T11:12:05.999Z</time></trkpt><trkpt lat="42.32668236559341" lon="14.101618355634951"><ele>55.0</ele><time>2026-04-12T11:12:06.999Z</time></trkpt><trkpt lat="42.326754978107665" lon="14.101733765951"><ele>55.0</ele><time>2026-04-12T11:12:07.999Z</time></trkpt><trkpt lat="42.326821768326994" lon="14.101839918706"><ele>55.0</ele><time>2026-04-12T11:12:08.999Z</time></trkpt><trkpt lat="42.32687905652797" lon="14.101935836349728"><ele>55.0</ele><time>2026-04-12T11:12:09.999Z</time></trkpt><trkpt lat="42.32693969714532" lon="14.102035446605296"><ele>55.0</ele><time>2026-04-12T11:12:10.999Z</time></trkpt><trkpt lat="42.327001853300665" lon="14.102141720726037"><ele>55.0</ele><time>2026-04-12T11:12:11.999Z</time></trkpt><trkpt lat="42.32706201366134" lon="14.102253372440638"><ele>55.0</ele><time>2026-04-12T11:12:12.999Z</time></trkpt><trkpt lat="42.32712114401287" lon="14.102373494529438"><ele>55.0</ele><time>2026-04-12T11:12:13.999Z</time></trkpt><trkpt lat="42.32717458886168" lon="14.1025006381411"><ele>55.4</ele><time>2026-04-12T11:12:14.999Z</time></trkpt><trkpt lat="42.327225375480594" lon="14.102631116355795"><ele>55.8</ele><time>2026-04-12T11:12:15.998Z</time></trkpt><trkpt lat="42.32726744199598" lon="14.102760764664776"><ele>56.2</ele><time>2026-04-12T11:12:16.998Z</time></trkpt><trkpt lat="42.327308744323055" lon="14.102897821371947"><ele>56.6</ele><time>2026-04-12T11:12:17.998Z</time></trkpt><trkpt lat="42.32735344804486" lon="14.103045775444254"><ele>57.0</ele><time>2026-04-12T11:12:18.998Z</time></trkpt><trkpt lat="42.32740227813383" lon="14.103195950807343"><ele>55.0</ele><time>2026-04-12T11:12:19.998Z</time></trkpt><trkpt lat="42.327449564750246" lon="14.103350831618707"><ele>53.0</ele><time>2026-04-12T11:12:20.998Z</time></trkpt><trkpt lat="42.32749611849064" lon="14.103497890708498"><ele>51.0</ele><time>2026-04-12T11:12:21.998Z</time></trkpt><trkpt lat="42.32753912029671" lon="14.10364799280973"><ele>49.0</ele><time>2026-04-12T11:12:22.998Z</time></trkpt><trkpt lat="42.327593613408304" lon="14.10379955078128"><ele>49.0</ele><time>2026-04-12T11:12:23.998Z</time></trkpt><trkpt lat="42.327643041134756" lon="14.103967072359904"><ele>49.0</ele><time>2026-04-12T11:12:24.998Z</time></trkpt><trkpt lat="42.327690599764736" lon="14.104133220581266"><ele>49.0</ele><time>2026-04-12T11:12:25.998Z</time></trkpt><trkpt lat="42.32773739536205" lon="14.10428341597564"><ele>49.0</ele><time>2026-04-12T11:12:26.998Z</time></trkpt><trkpt lat="42.32778488418846" lon="14.104435747291049"><ele>48.5</ele><time>2026-04-12T11:12:27.998Z</time></trkpt><trkpt lat="42.32783069565031" lon="14.104584220725615"><ele>48.0</ele><time>2026-04-12T11:12:28.998Z</time></trkpt><trkpt lat="42.32787847593554" lon="14.104731459047553"><ele>47.5</ele><time>2026-04-12T11:12:29.998Z</time></trkpt><trkpt lat="42.32792649733853" lon="14.104879010251155"><ele>47.0</ele><time>2026-04-12T11:12:30.998Z</time></trkpt><trkpt lat="42.32797407967977" lon="14.10502443620054"><ele>46.8</ele><time>2026-04-12T11:12:31.998Z</time></trkpt><trkpt lat="42.32802037135212" lon="14.105168607602806"><ele>46.6</ele><time>2026-04-12T11:12:32.998Z</time></trkpt><trkpt lat="42.3280628319027" lon="14.105308464676162"><ele>46.4</ele><time>2026-04-12T11:12:33.998Z</time></trkpt><trkpt lat="42.3281026489238" lon="14.10544481854487"><ele>46.199999999999996</ele><time>2026-04-12T11:12:34.998Z</time></trkpt><trkpt lat="42.32814502613663" lon="14.105580706938845"><ele>46.0</ele><time>2026-04-12T11:12:35.998Z</time></trkpt><trkpt lat="42.32818831482086" lon="14.105714549381172"><ele>46.0</ele><time>2026-04-12T11:12:36.998Z</time></trkpt><trkpt lat="42.32822941841665" lon="14.105838799875437"><ele>46.0</ele><time>2026-04-12T11:12:37.998Z</time></trkpt><trkpt lat="42.32826488000765" lon="14.105949846654251"><ele>46.0</ele><time>2026-04-12T11:12:38.998Z</time></trkpt><trkpt lat="42.32830142141783" lon="14.106055617414382"><ele>46.0</ele><time>2026-04-12T11:12:39.998Z</time></trkpt><trkpt lat="42.328332217249546" lon="14.106157497843036"><ele>46.0</ele><time>2026-04-12T11:12:40.998Z</time></trkpt><trkpt lat="42.32836856653057" lon="14.106269315350907"><ele>46.0</ele><time>2026-04-12T11:12:41.998Z</time></trkpt><trkpt lat="42.32840215339486" lon="14.106378059441084"><ele>46.0</ele><time>2026-04-12T11:12:42.998Z</time></trkpt><trkpt lat="42.328427853672075" lon="14.106469838664257"><ele>46.0</ele><time>2026-04-12T11:12:43.998Z</time></trkpt><trkpt lat="42.32847939609568" lon="14.106622903096811"><ele>46.0</ele><time>2026-04-12T11:12:45.998Z</time></trkpt><trkpt lat="42.3285377177674" lon="14.106782753956587"><ele>46.0</ele><time>2026-04-12T11:12:47.998Z</time></trkpt><trkpt lat="42.32856651715384" lon="14.106891193441697"><ele>46.0</ele><time>2026-04-12T11:12:48.998Z</time></trkpt><trkpt lat="42.32860258923097" lon="14.107015296357325"><ele>46.0</ele><time>2026-04-12T11:12:49.998Z</time></trkpt><trkpt lat="42.32864611243135" lon="14.107149934945756"><ele>46.0</ele><time>2026-04-12T11:12:50.998Z</time></trkpt><trkpt lat="42.328688883720254" lon="14.107277214314403"><ele>46.0</ele><time>2026-04-12T11:12:51.999Z</time></trkpt><trkpt lat="42.328733424520365" lon="14.10740921993151"><ele>46.0</ele><time>2026-04-12T11:12:52.999Z</time></trkpt><trkpt lat="42.328776243193786" lon="14.107554590357296"><ele>46.0</ele><time>2026-04-12T11:12:53.999Z</time></trkpt><trkpt lat="42.32881686679176" lon="14.107709454624759"><ele>46.0</ele><time>2026-04-12T11:12:54.999Z</time></trkpt><trkpt lat="42.32885797218779" lon="14.107853239857794"><ele>46.0</ele><time>2026-04-12T11:12:55.999Z</time></trkpt><trkpt lat="42.32890455073502" lon="14.107992453142547"><ele>46.0</ele><time>2026-04-12T11:12:56.999Z</time></trkpt><trkpt lat="42.328951586311085" lon="14.108136275266178"><ele>46.0</ele><time>2026-04-12T11:12:57.999Z</time></trkpt><trkpt lat="42.32899936901347" lon="14.10828449980025"><ele>44.75</ele><time>2026-04-12T11:12:58.999Z</time></trkpt><trkpt lat="42.32904373304264" lon="14.108427937755526"><ele>43.5</ele><time>2026-04-12T11:12:59.999Z</time></trkpt><trkpt lat="42.32907889430344" lon="14.108573240023318"><ele>42.25</ele><time>2026-04-12T11:13:00.999Z</time></trkpt><trkpt lat="42.329123927091764" lon="14.108718886025235"><ele>41.0</ele><time>2026-04-12T11:13:01.999Z</time></trkpt><trkpt lat="42.32917093588728" lon="14.108863885497053"><ele>41.0</ele><time>2026-04-12T11:13:02.999Z</time></trkpt><trkpt lat="42.32922157346541" lon="14.109011420334726"><ele>41.0</ele><time>2026-04-12T11:13:03.999Z</time></trkpt><trkpt lat="42.32926929412083" lon="14.109162131633244"><ele>41.0</ele><time>2026-04-12T11:13:04.999Z</time></trkpt><trkpt lat="42.32931412284478" lon="14.109313109016584"><ele>41.0</ele><time>2026-04-12T11:13:06Z</time></trkpt><trkpt lat="42.32936227949422" lon="14.109466974529795"><ele>41.5</ele><time>2026-04-12T11:13:07.001Z</time></trkpt><trkpt lat="42.329416522760404" lon="14.109620138913463"><ele>42.0</ele><time>2026-04-12T11:13:08Z</time></trkpt><trkpt lat="42.32946647105812" lon="14.10977105883015"><ele>42.5</ele><time>2026-04-12T11:13:09Z</time></trkpt><trkpt lat="42.32951003325821" lon="14.10992489986128"><ele>43.0</ele><time>2026-04-12T11:13:10.001Z</time></trkpt><trkpt lat="42.329562375492756" lon="14.110082933103625"><ele>43.25</ele><time>2026-04-12T11:13:11Z</time></trkpt><trkpt lat="42.32961160005049" lon="14.110241284820786"><ele>43.5</ele><time>2026-04-12T11:13:12Z</time></trkpt><trkpt lat="42.32966152870914" lon="14.110398584736384"><ele>43.75</ele><time>2026-04-12T11:13:13Z</time></trkpt><trkpt lat="42.329714341415986" lon="14.110553601354866"><ele>44.0</ele><time>2026-04-12T11:13:14Z</time></trkpt><trkpt lat="42.32976101828736" lon="14.11071310935697"><ele>43.5</ele><time>2026-04-12T11:13:15Z</time></trkpt><trkpt lat="42.32981246595537" lon="14.110874534964777"><ele>43.0</ele><time>2026-04-12T11:13:16Z</time></trkpt><trkpt lat="42.32986543395166" lon="14.111045018642702"><ele>42.5</ele><time>2026-04-12T11:13:17Z</time></trkpt><trkpt lat="42.32992384390333" lon="14.111234814098891"><ele>42.0</ele><time>2026-04-12T11:13:18Z</time></trkpt><trkpt lat="42.329986537707356" lon="14.111434573621015"><ele>42.333333333333336</ele><time>2026-04-12T11:13:19Z</time></trkpt><trkpt lat="42.33004878381531" lon="14.111640243637513"><ele>42.66666666666667</ele><time>2026-04-12T11:13:20Z</time></trkpt><trkpt lat="42.330114150943245" lon="14.111848152634881"><ele>43.0</ele><time>2026-04-12T11:13:21Z</time></trkpt><trkpt lat="42.33016837256057" lon="14.112031600364789"><ele>43.0</ele><time>2026-04-12T11:13:22Z</time></trkpt><trkpt lat="42.330218510879604" lon="14.11219315578616"><ele>43.0</ele><time>2026-04-12T11:13:23Z</time></trkpt><trkpt lat="42.330265431333984" lon="14.11234819913043"><ele>43.0</ele><time>2026-04-12T11:13:24Z</time></trkpt><trkpt lat="42.33031212503084" lon="14.11250796166169"><ele>43.0</ele><time>2026-04-12T11:13:25Z</time></trkpt><trkpt lat="42.330362799916706" lon="14.11266761496902"><ele>43.0</ele><time>2026-04-12T11:13:26Z</time></trkpt><trkpt lat="42.33040953010275" lon="14.112820814146078"><ele>43.0</ele><time>2026-04-12T11:13:27Z</time></trkpt><trkpt lat="42.33042987819508" lon="14.112962153763508"><ele>43.0</ele><time>2026-04-12T11:13:28Z</time></trkpt><trkpt lat="42.33044122103445" lon="14.113095801242375"><ele>43.0</ele><time>2026-04-12T11:13:29Z</time></trkpt><trkpt lat="42.33047959963234" lon="14.113219394623329"><ele>43.0</ele><time>2026-04-12T11:13:30Z</time></trkpt><trkpt lat="42.33053962393528" lon="14.113329623946413"><ele>42.0</ele><time>2026-04-12T11:13:31Z</time></trkpt><trkpt lat="42.33061315859933" lon="14.11343574518313"><ele>41.0</ele><time>2026-04-12T11:13:32Z</time></trkpt><trkpt lat="42.33066270669075" lon="14.113564821276157"><ele>40.0</ele><time>2026-04-12T11:13:33Z</time></trkpt><trkpt lat="42.33070796995497" lon="14.113703013209195"><ele>39.0</ele><time>2026-04-12T11:13:34Z</time></trkpt><trkpt lat="42.33075065667289" lon="14.113847893887081"><ele>38.0</ele><time>2026-04-12T11:13:35Z</time></trkpt><trkpt lat="42.330789216680046" lon="14.113990341970231"><ele>38.0</ele><time>2026-04-12T11:13:36Z</time></trkpt><trkpt lat="42.330833525242625" lon="14.114131820774658"><ele>38.0</ele><time>2026-04-12T11:13:37Z</time></trkpt><trkpt lat="42.33088164741061" lon="14.11427862475924"><ele>38.0</ele><time>2026-04-12T11:13:38Z</time></trkpt><trkpt lat="42.33092891204114" lon="14.114430237403335"><ele>38.0</ele><time>2026-04-12T11:13:39Z</time></trkpt><trkpt lat="42.33097742954089" lon="14.114589410965895"><ele>38.0</ele><time>2026-04-12T11:13:40Z</time></trkpt><trkpt lat="42.33102875131368" lon="14.114752313085846"><ele>38.0</ele><time>2026-04-12T11:13:41Z</time></trkpt><trkpt lat="42.33108026271053" lon="14.114919102127178"><ele>38.0</ele><time>2026-04-12T11:13:42Z</time></trkpt><trkpt lat="42.33113079757889" lon="14.115090823906705"><ele>38.0</ele><time>2026-04-12T11:13:43Z</time></trkpt><trkpt lat="42.33118426256966" lon="14.11526599390609"><ele>38.0</ele><time>2026-04-12T11:13:44Z</time></trkpt><trkpt lat="42.33124076884002" lon="14.115444932569574"><ele>38.0</ele><time>2026-04-12T11:13:45Z</time></trkpt><trkpt lat="42.33129898369853" lon="14.115627083542563"><ele>38.0</ele><time>2026-04-12T11:13:46Z</time></trkpt><trkpt lat="42.33135659908604" lon="14.115810546602695"><ele>38.0</ele><time>2026-04-12T11:13:47Z</time></trkpt><trkpt lat="42.33141023876626" lon="14.115992735925163"><ele>38.0</ele><time>2026-04-12T11:13:48Z</time></trkpt><trkpt lat="42.33146855735291" lon="14.116170663826267"><ele>38.0</ele><time>2026-04-12T11:13:49Z</time></trkpt><trkpt lat="42.33152052070522" lon="14.116351771003748"><ele>38.0</ele><time>2026-04-12T11:13:50Z</time></trkpt><trkpt lat="42.33157682024768" lon="14.116534532827869"><ele>38.0</ele><time>2026-04-12T11:13:51Z</time></trkpt><trkpt lat="42.33162089263796" lon="14.116718006667089"><ele>38.0</ele><time>2026-04-12T11:13:52Z</time></trkpt><trkpt lat="42.33168497220093" lon="14.116898708178738"><ele>38.0</ele><time>2026-04-12T11:13:53Z</time></trkpt><trkpt lat="42.33174458459232" lon="14.117079707227107"><ele>38.0</ele><time>2026-04-12T11:13:54Z</time></trkpt><trkpt lat="42.33179272469428" lon="14.117257911056923"><ele>38.0</ele><time>2026-04-12T11:13:55Z</time></trkpt><trkpt lat="42.33186000369062" lon="14.117438704300781"><ele>38.5</ele><time>2026-04-12T11:13:56Z</time></trkpt><trkpt lat="42.331913920404986" lon="14.117620926598763"><ele>39.0</ele><time>2026-04-12T11:13:57Z</time></trkpt><trkpt lat="42.33197064833434" lon="14.117803442628889"><ele>39.5</ele><time>2026-04-12T11:13:58Z</time></trkpt><trkpt lat="42.33203081665879" lon="14.117980048865485"><ele>40.0</ele><time>2026-04-12T11:13:59Z</time></trkpt><trkpt lat="42.33208982632519" lon="14.118159756257441"><ele>40.0</ele><time>2026-04-12T11:14:00Z</time></trkpt><trkpt lat="42.332147466384185" lon="14.118340536860929"><ele>40.0</ele><time>2026-04-12T11:14:01Z</time></trkpt><trkpt lat="42.33220482190708" lon="14.11851973955013"><ele>40.0</ele><time>2026-04-12T11:14:02Z</time></trkpt><trkpt lat="42.33226235009259" lon="14.11869661341366"><ele>40.0</ele><time>2026-04-12T11:14:03Z</time></trkpt><trkpt lat="42.332319985230725" lon="14.118871588279562"><ele>39.5</ele><time>2026-04-12T11:14:04Z</time></trkpt><trkpt lat="42.332377769443355" lon="14.119047724859454"><ele>39.0</ele><time>2026-04-12T11:14:05Z</time></trkpt><trkpt lat="42.33243334823722" lon="14.119219005231836"><ele>38.5</ele><time>2026-04-12T11:14:06Z</time></trkpt><trkpt lat="42.33248819226426" lon="14.119388838870613"><ele>38.0</ele><time>2026-04-12T11:14:07Z</time></trkpt><trkpt lat="42.33254340252909" lon="14.119563412377305"><ele>37.75</ele><time>2026-04-12T11:14:08Z</time></trkpt><trkpt lat="42.332599864781514" lon="14.119740029364642"><ele>37.5</ele><time>2026-04-12T11:14:09Z</time></trkpt><trkpt lat="42.33265548004835" lon="14.11991860650515"><ele>37.25</ele><time>2026-04-12T11:14:10Z</time></trkpt><trkpt lat="42.33271184579485" lon="14.120098786302234"><ele>37.0</ele><time>2026-04-12T11:14:11Z</time></trkpt><trkpt lat="42.33276866639316" lon="14.120280923532192"><ele>37.75</ele><time>2026-04-12T11:14:12Z</time></trkpt><trkpt lat="42.33282569354161" lon="14.120462129548805"><ele>38.5</ele><time>2026-04-12T11:14:13Z</time></trkpt><trkpt lat="42.332880549947944" lon="14.12063618106386"><ele>39.25</ele><time>2026-04-12T11:14:14Z</time></trkpt><trkpt lat="42.3329357267565" lon="14.12081117557287"><ele>40.0</ele><time>2026-04-12T11:14:15Z</time></trkpt><trkpt lat="42.33299057410242" lon="14.120987706922339"><ele>40.0</ele><time>2026-04-12T11:14:16Z</time></trkpt><trkpt lat="42.333046780870845" lon="14.121162393729566"><ele>40.0</ele><time>2026-04-12T11:14:17Z</time></trkpt><trkpt lat="42.333099839723715" lon="14.121335890595764"><ele>40.0</ele><time>2026-04-12T11:14:18Z</time></trkpt><trkpt lat="42.33315652339501" lon="14.121515596080693"><ele>40.0</ele><time>2026-04-12T11:14:19Z</time></trkpt><trkpt lat="42.333212658513276" lon="14.121687242273941"><ele>40.5</ele><time>2026-04-12T11:14:20Z</time></trkpt><trkpt lat="42.33326626852833" lon="14.12186173851128"><ele>41.0</ele><time>2026-04-12T11:14:20.999Z</time></trkpt><trkpt lat="42.33331888970858" lon="14.122039338514515"><ele>41.5</ele><time>2026-04-12T11:14:21.999Z</time></trkpt><trkpt lat="42.33337487474315" lon="14.122211343893847"><ele>42.0</ele><time>2026-04-12T11:14:22.999Z</time></trkpt><trkpt lat="42.33343069683626" lon="14.12238591013307"><ele>42.5</ele><time>2026-04-12T11:14:23.999Z</time></trkpt><trkpt lat="42.33348569844277" lon="14.122560193538556"><ele>43.0</ele><time>2026-04-12T11:14:24.999Z</time></trkpt><trkpt lat="42.33354055602199" lon="14.122738560884239"><ele>43.5</ele><time>2026-04-12T11:14:25.999Z</time></trkpt><trkpt lat="42.33359582096242" lon="14.12291780042522"><ele>44.0</ele><time>2026-04-12T11:14:26.999Z</time></trkpt><trkpt lat="42.33365223318079" lon="14.123096829983751"><ele>43.666666666666664</ele><time>2026-04-12T11:14:27.999Z</time></trkpt><trkpt lat="42.333712894897715" lon="14.123286567591162"><ele>43.333333333333336</ele><time>2026-04-12T11:14:28.999Z</time></trkpt><trkpt lat="42.33377311063356" lon="14.123478250477344"><ele>43.0</ele><time>2026-04-12T11:14:29.999Z</time></trkpt><trkpt lat="42.33383564718215" lon="14.123673526798617"><ele>42.66666666666667</ele><time>2026-04-12T11:14:30.999Z</time></trkpt><trkpt lat="42.333900811191796" lon="14.123873981655708"><ele>42.333333333333336</ele><time>2026-04-12T11:14:31.999Z</time></trkpt><trkpt lat="42.333965094885514" lon="14.124077817471168"><ele>42.0</ele><time>2026-04-12T11:14:32.999Z</time></trkpt><trkpt lat="42.334030570411855" lon="14.12428580030757"><ele>41.666666666666664</ele><time>2026-04-12T11:14:33.999Z</time></trkpt><trkpt lat="42.334095813742344" lon="14.124492868774738"><ele>41.33333333333333</ele><time>2026-04-12T11:14:34.999Z</time></trkpt><trkpt lat="42.33416147285485" lon="14.124700965995485"><ele>41.0</ele><time>2026-04-12T11:14:35.999Z</time></trkpt><trkpt lat="42.33423019122563" lon="14.124910343128214"><ele>41.666666666666664</ele><time>2026-04-12T11:14:36.999Z</time></trkpt><trkpt lat="42.33429860738512" lon="14.12512050763868"><ele>42.333333333333336</ele><time>2026-04-12T11:14:37.999Z</time></trkpt><trkpt lat="42.33436561543388" lon="14.125330468040664"><ele>43.0</ele><time>2026-04-12T11:14:38.999Z</time></trkpt><trkpt lat="42.33443132678923" lon="14.125536695453707"><ele>43.66666666666667</ele><time>2026-04-12T11:14:39.999Z</time></trkpt><trkpt lat="42.33449529478409" lon="14.125739940998681"><ele>44.333333333333336</ele><time>2026-04-12T11:14:40.999Z</time></trkpt><trkpt lat="42.33456004488802" lon="14.125935497301835"><ele>45.0</ele><time>2026-04-12T11:14:41.999Z</time></trkpt><trkpt lat="42.33462460369586" lon="14.126132890881026"><ele>45.0</ele><time>2026-04-12T11:14:42.999Z</time></trkpt><trkpt lat="42.33468752013126" lon="14.126330668007984"><ele>45.0</ele><time>2026-04-12T11:14:43.999Z</time></trkpt><trkpt lat="42.33475106452733" lon="14.126531737225243"><ele>45.0</ele><time>2026-04-12T11:14:44.999Z</time></trkpt><trkpt lat="42.334816622321796" lon="14.12673650280481"><ele>45.333333333333336</ele><time>2026-04-12T11:14:45.999Z</time></trkpt><trkpt lat="42.33488367819104" lon="14.126943251785153"><ele>45.66666666666667</ele><time>2026-04-12T11:14:46.999Z</time></trkpt><trkpt lat="42.334949762076874" lon="14.127152951552505"><ele>46.0</ele><time>2026-04-12T11:14:47.999Z</time></trkpt><trkpt lat="42.33501727353828" lon="14.127364930974373"><ele>46.66666666666667</ele><time>2026-04-12T11:14:48.999Z</time></trkpt><trkpt lat="42.335080889703974" lon="14.127573800343656"><ele>47.333333333333336</ele><time>2026-04-12T11:14:49.999Z</time></trkpt><trkpt lat="42.335143081241185" lon="14.127786887283545"><ele>48.0</ele><time>2026-04-12T11:14:50.999Z</time></trkpt><trkpt lat="42.335208941691874" lon="14.127994229060127"><ele>48.0</ele><time>2026-04-12T11:14:51.999Z</time></trkpt><trkpt lat="42.33527424683964" lon="14.128200938932542"><ele>48.0</ele><time>2026-04-12T11:14:52.999Z</time></trkpt><trkpt lat="42.335337368848876" lon="14.128410823003474"><ele>48.0</ele><time>2026-04-12T11:14:53.999Z</time></trkpt><trkpt lat="42.33540585213825" lon="14.128613970632015"><ele>48.33333333333333</ele><time>2026-04-12T11:14:54.999Z</time></trkpt><trkpt lat="42.33547808935735" lon="14.12881037854889"><ele>48.666666666666664</ele><time>2026-04-12T11:14:55.999Z</time></trkpt><trkpt lat="42.335547572583764" lon="14.12900617136134"><ele>49.0</ele><time>2026-04-12T11:14:56.999Z</time></trkpt><trkpt lat="42.33560295265361" lon="14.12921431655003"><ele>49.33333333333333</ele><time>2026-04-12T11:14:57.999Z</time></trkpt><trkpt lat="42.33566581080911" lon="14.129417568145511"><ele>49.66666666666667</ele><time>2026-04-12T11:14:58.999Z</time></trkpt><trkpt lat="42.335726004370756" lon="14.1296232490587"><ele>50.0</ele><time>2026-04-12T11:14:59.999Z</time></trkpt><trkpt lat="42.33578820219017" lon="14.129830205629453"><ele>50.66666666666667</ele><time>2026-04-12T11:15:00.999Z</time></trkpt><trkpt lat="42.335851691055396" lon="14.130036227865565"><ele>51.33333333333333</ele><time>2026-04-12T11:15:01.999Z</time></trkpt><trkpt lat="42.33591567244993" lon="14.130240041583473"><ele>52.0</ele><time>2026-04-12T11:15:02.999Z</time></trkpt><trkpt lat="42.33597548862558" lon="14.130435627507268"><ele>52.0</ele><time>2026-04-12T11:15:03.999Z</time></trkpt><trkpt lat="42.336040171647774" lon="14.130624497569162"><ele>52.0</ele><time>2026-04-12T11:15:04.999Z</time></trkpt><trkpt lat="42.336101244824775" lon="14.130817287113874"><ele>52.0</ele><time>2026-04-12T11:15:05.999Z</time></trkpt><trkpt lat="42.3361575321105" lon="14.131001545147663"><ele>52.0</ele><time>2026-04-12T11:15:06.999Z</time></trkpt><trkpt lat="42.33620722308918" lon="14.131169152683317"><ele>52.0</ele><time>2026-04-12T11:15:07.999Z</time></trkpt><trkpt lat="42.33625635006027" lon="14.131325534763159"><ele>52.0</ele><time>2026-04-12T11:15:08.999Z</time></trkpt><trkpt lat="42.33630127701749" lon="14.131467809083759"><ele>52.0</ele><time>2026-04-12T11:15:09.999Z</time></trkpt><trkpt lat="42.336344501820186" lon="14.131610695595507"><ele>52.0</ele><time>2026-04-12T11:15:11Z</time></trkpt><trkpt lat="42.336392498993575" lon="14.131763677955034"><ele>52.0</ele><time>2026-04-12T11:15:12Z</time></trkpt><trkpt lat="42.33644549683647" lon="14.13191195671304"><ele>52.0</ele><time>2026-04-12T11:15:13Z</time></trkpt><trkpt lat="42.33650964265742" lon="14.132053366065437"><ele>52.0</ele><time>2026-04-12T11:15:14Z</time></trkpt><trkpt lat="42.33657894473622" lon="14.13218251322338"><ele>52.0</ele><time>2026-04-12T11:15:15Z</time></trkpt><trkpt lat="42.336652590006224" lon="14.132305639512483"><ele>52.0</ele><time>2026-04-12T11:15:16Z</time></trkpt><trkpt lat="42.33673589529852" lon="14.132417453212387"><ele>52.0</ele><time>2026-04-12T11:15:17Z</time></trkpt><trkpt lat="42.33682636293076" lon="14.13251578550418"><ele>52.0</ele><time>2026-04-12T11:15:18Z</time></trkpt><trkpt lat="42.33691715106619" lon="14.132606911232934"><ele>52.5</ele><time>2026-04-12T11:15:19Z</time></trkpt><trkpt lat="42.33701451523746" lon="14.132686328592797"><ele>53.0</ele><time>2026-04-12T11:15:20Z</time></trkpt><trkpt lat="42.337115867086936" lon="14.132760448676699"><ele>53.5</ele><time>2026-04-12T11:15:21Z</time></trkpt><trkpt lat="42.337222889540946" lon="14.132827213783044"><ele>54.0</ele><time>2026-04-12T11:15:22Z</time></trkpt><trkpt lat="42.337340544192756" lon="14.132885813316145"><ele>54.25</ele><time>2026-04-12T11:15:23Z</time></trkpt><trkpt lat="42.33746488193281" lon="14.132933049355671"><ele>54.5</ele><time>2026-04-12T11:15:24Z</time></trkpt><trkpt lat="42.337589848953115" lon="14.132975894474008"><ele>54.75</ele><time>2026-04-12T11:15:25Z</time></trkpt><trkpt lat="42.33771275502302" lon="14.133013405448422"><ele>55.0</ele><time>2026-04-12T11:15:26Z</time></trkpt><trkpt lat="42.337828172696824" lon="14.133046630021028"><ele>55.0</ele><time>2026-04-12T11:15:27Z</time></trkpt><trkpt lat="42.337950471054214" lon="14.133079421809384"><ele>55.0</ele><time>2026-04-12T11:15:28Z</time></trkpt><trkpt lat="42.338071052356064" lon="14.133125184178445"><ele>55.0</ele><time>2026-04-12T11:15:29Z</time></trkpt><trkpt lat="42.33818842933169" lon="14.133162617102798"><ele>55.0</ele><time>2026-04-12T11:15:30Z</time></trkpt><trkpt lat="42.33831283200047" lon="14.133196385412843"><ele>55.0</ele><time>2026-04-12T11:15:31Z</time></trkpt><trkpt lat="42.33842984663583" lon="14.13323583489003"><ele>55.0</ele><time>2026-04-12T11:15:32Z</time></trkpt><trkpt lat="42.33854513343508" lon="14.133278473386627"><ele>55.0</ele><time>2026-04-12T11:15:33Z</time></trkpt><trkpt lat="42.33866469284729" lon="14.133318966355588"><ele>55.0</ele><time>2026-04-12T11:15:34Z</time></trkpt><trkpt lat="42.33878387898068" lon="14.133355751644784"><ele>55.25</ele><time>2026-04-12T11:15:35Z</time></trkpt><trkpt lat="42.338903284637276" lon="14.13339609289393"><ele>55.5</ele><time>2026-04-12T11:15:36Z</time></trkpt><trkpt lat="42.339021752555055" lon="14.133434193550109"><ele>55.75</ele><time>2026-04-12T11:15:37Z</time></trkpt><trkpt lat="42.33913457410637" lon="14.133466236255083"><ele>56.0</ele><time>2026-04-12T11:15:38Z</time></trkpt><trkpt lat="42.33923630386303" lon="14.133496515308298"><ele>56.0</ele><time>2026-04-12T11:15:39Z</time></trkpt><trkpt lat="42.339335192543366" lon="14.133525608273917"><ele>55.99999999999999</ele><time>2026-04-12T11:15:40Z</time></trkpt><trkpt lat="42.339432632861346" lon="14.133557275024229"><ele>55.99999999999999</ele><time>2026-04-12T11:15:41Z</time></trkpt><trkpt lat="42.339532221586076" lon="14.13358728140392"><ele>56.0</ele><time>2026-04-12T11:15:42Z</time></trkpt><trkpt lat="42.33963154783336" lon="14.133614713412598"><ele>56.0</ele><time>2026-04-12T11:15:43Z</time></trkpt><trkpt lat="42.339729108025494" lon="14.1336423947023"><ele>55.833333333333336</ele><time>2026-04-12T11:15:44Z</time></trkpt><trkpt lat="42.33981958757321" lon="14.133670380736127"><ele>55.66666666666667</ele><time>2026-04-12T11:15:45Z</time></trkpt><trkpt lat="42.33990259913958" lon="14.133695743168738"><ele>55.5</ele><time>2026-04-12T11:15:46Z</time></trkpt><trkpt lat="42.339983728645414" lon="14.133721876335851"><ele>55.33333333333333</ele><time>2026-04-12T11:15:47Z</time></trkpt><trkpt lat="42.34006478734593" lon="14.133750244680028"><ele>55.166666666666664</ele><time>2026-04-12T11:15:48Z</time></trkpt><trkpt lat="42.340148968110476" lon="14.133776271260087"><ele>55.0</ele><time>2026-04-12T11:15:49Z</time></trkpt><trkpt lat="42.340232766161115" lon="14.133803826217878"><ele>54.99999999999999</ele><time>2026-04-12T11:15:50Z</time></trkpt><trkpt lat="42.34030405674428" lon="14.133832040629732"><ele>55.0</ele><time>2026-04-12T11:15:51Z</time></trkpt><trkpt lat="42.34041542532492" lon="14.133898616234639"><ele>55.0</ele><time>2026-04-12T11:15:53Z</time></trkpt><trkpt lat="42.3404656276941" lon="14.133961727421374"><ele>55.0</ele><time>2026-04-12T11:15:54Z</time></trkpt><trkpt lat="42.34051526057813" lon="14.134025200503618"><ele>54.99999999999999</ele><time>2026-04-12T11:15:55Z</time></trkpt><trkpt lat="42.34062103921003" lon="14.134057855798815"><ele>55.0</ele><time>2026-04-12T11:15:57Z</time></trkpt><trkpt lat="42.340711178471366" lon="14.133932239043146"><ele>54.666666666666664</ele><time>2026-04-12T11:15:59Z</time></trkpt><trkpt lat="42.34071854357941" lon="14.133830822975002"><ele>54.33333333333333</ele><time>2026-04-12T11:16:00Z</time></trkpt><trkpt lat="42.34069512193304" lon="14.133718083407288"><ele>54.0</ele><time>2026-04-12T11:16:01Z</time></trkpt><trkpt lat="42.34065070776395" lon="14.1336090135974"><ele>53.66666666666667</ele><time>2026-04-12T11:16:02Z</time></trkpt><trkpt lat="42.34064691227638" lon="14.133508852766466"><ele>53.333333333333336</ele><time>2026-04-12T11:16:03Z</time></trkpt><trkpt lat="42.34068361998763" lon="14.13341493596541"><ele>53.0</ele><time>2026-04-12T11:16:04Z</time></trkpt><trkpt lat="42.34073448085926" lon="14.133324561082066"><ele>53.0</ele><time>2026-04-12T11:16:05Z</time></trkpt><trkpt lat="42.34079302825673" lon="14.13323113999701"><ele>53.0</ele><time>2026-04-12T11:16:06Z</time></trkpt><trkpt lat="42.34085316299886" lon="14.13313253371702"><ele>53.0</ele><time>2026-04-12T11:16:07Z</time></trkpt><trkpt lat="42.34091116199849" lon="14.133029911005387"><ele>53.0</ele><time>2026-04-12T11:16:08Z</time></trkpt><trkpt lat="42.34096650683378" lon="14.132924244250116"><ele>53.0</ele><time>2026-04-12T11:16:09Z</time></trkpt><trkpt lat="42.34102563224071" lon="14.132819138708797"><ele>52.66666666666667</ele><time>2026-04-12T11:16:10Z</time></trkpt><trkpt lat="42.34108739179155" lon="14.13271992013075"><ele>52.333333333333336</ele><time>2026-04-12T11:16:11Z</time></trkpt><trkpt lat="42.34114454199747" lon="14.132636142863772"><ele>52.0</ele><time>2026-04-12T11:16:12Z</time></trkpt><trkpt lat="42.341194023367564" lon="14.132559914217163"><ele>51.66666666666667</ele><time>2026-04-12T11:16:13Z</time></trkpt><trkpt lat="42.34124587282373" lon="14.132487844555877"><ele>51.333333333333336</ele><time>2026-04-12T11:16:14Z</time></trkpt><trkpt lat="42.34130343041539" lon="14.132406609623892"><ele>51.0</ele><time>2026-04-12T11:16:15Z</time></trkpt><trkpt lat="42.34136629077731" lon="14.132310168444464"><ele>50.4</ele><time>2026-04-12T11:16:16Z</time></trkpt><trkpt lat="42.34142937890383" lon="14.132200296666436"><ele>49.8</ele><time>2026-04-12T11:16:17Z</time></trkpt><trkpt lat="42.34148470424269" lon="14.132081167120498"><ele>49.199999999999996</ele><time>2026-04-12T11:16:18Z</time></trkpt><trkpt lat="42.341531229174436" lon="14.131956910757388"><ele>48.599999999999994</ele><time>2026-04-12T11:16:19Z</time></trkpt><trkpt lat="42.34156590533092" lon="14.131832858302655"><ele>48.0</ele><time>2026-04-12T11:16:20Z</time></trkpt><trkpt lat="42.341599725622565" lon="14.131711087761122"><ele>48.0</ele><time>2026-04-12T11:16:21Z</time></trkpt><trkpt lat="42.34163986434766" lon="14.131596602891355"><ele>48.0</ele><time>2026-04-12T11:16:22Z</time></trkpt><trkpt lat="42.3416856705431" lon="14.13148981777006"><ele>48.0</ele><time>2026-04-12T11:16:23Z</time></trkpt><trkpt lat="42.341721961293615" lon="14.131332801926511"><ele>48.0</ele><time>2026-04-12T11:16:24.999Z</time></trkpt><trkpt lat="42.341813357716575" lon="14.131238202624612"><ele>48.0</ele><time>2026-04-12T11:16:26.999Z</time></trkpt><trkpt lat="42.341869902031966" lon="14.131107927034913"><ele>47.8</ele><time>2026-04-12T11:16:28.999Z</time></trkpt><trkpt lat="42.34185591691868" lon="14.130982947113853"><ele>47.599999999999994</ele><time>2026-04-12T11:16:29.999Z</time></trkpt><trkpt lat="42.34186848565435" lon="14.130863637202102"><ele>47.400000000000006</ele><time>2026-04-12T11:16:30.999Z</time></trkpt><trkpt lat="42.341885518177655" lon="14.130732036810643"><ele>47.2</ele><time>2026-04-12T11:16:31.999Z</time></trkpt><trkpt lat="42.341917706968054" lon="14.130600234735827"><ele>47.0</ele><time>2026-04-12T11:16:32.999Z</time></trkpt><trkpt lat="42.34194971215802" lon="14.130470475778408"><ele>46.83333333333333</ele><time>2026-04-12T11:16:33.999Z</time></trkpt><trkpt lat="42.34197644615394" lon="14.130349435866762"><ele>46.666666666666664</ele><time>2026-04-12T11:16:34.999Z</time></trkpt><trkpt lat="42.34199704281458" lon="14.130260491906073"><ele>46.5</ele><time>2026-04-12T11:16:35.999Z</time></trkpt><trkpt lat="42.34202098532932" lon="14.13017401703801"><ele>46.333333333333336</ele><time>2026-04-12T11:16:36.999Z</time></trkpt><trkpt lat="42.34203566104884" lon="14.130064919261333"><ele>46.16666666666667</ele><time>2026-04-12T11:16:37.999Z</time></trkpt><trkpt lat="42.34203471040356" lon="14.129969289536952"><ele>46.0</ele><time>2026-04-12T11:16:38.999Z</time></trkpt><trkpt lat="42.34203853615033" lon="14.129809649329006"><ele>45.66666666666667</ele><time>2026-04-12T11:16:40.999Z</time></trkpt><trkpt lat="42.3421092280238" lon="14.129657783303946"><ele>45.333333333333336</ele><time>2026-04-12T11:16:42.999Z</time></trkpt><trkpt lat="42.34215941659803" lon="14.129582131504222"><ele>45.0</ele><time>2026-04-12T11:16:43.999Z</time></trkpt><trkpt lat="42.3422097866708" lon="14.129499963776714"><ele>44.666666666666664</ele><time>2026-04-12T11:16:44.999Z</time></trkpt><trkpt lat="42.34222798262986" lon="14.129405154862877"><ele>44.33333333333333</ele><time>2026-04-12T11:16:45.999Z</time></trkpt><trkpt lat="42.342194153832345" lon="14.129305827434573"><ele>44.0</ele><time>2026-04-12T11:16:46.999Z</time></trkpt><trkpt lat="42.34212808217799" lon="14.129245935386578"><ele>44.0</ele><time>2026-04-12T11:16:47.999Z</time></trkpt><trkpt lat="42.34206585145799" lon="14.12919790604106"><ele>44.0</ele><time>2026-04-12T11:16:48.999Z</time></trkpt><trkpt lat="42.341995586316266" lon="14.129154237613806"><ele>44.0</ele><time>2026-04-12T11:16:49.999Z</time></trkpt><trkpt lat="42.34193299653922" lon="14.129082680404506"><ele>44.0</ele><time>2026-04-12T11:16:50.999Z</time></trkpt><trkpt lat="42.34188097002871" lon="14.128978120460525"><ele>44.0</ele><time>2026-04-12T11:16:51.999Z</time></trkpt><trkpt lat="42.34184748185986" lon="14.128841827543354"><ele>44.0</ele><time>2026-04-12T11:16:52.999Z</time></trkpt><trkpt lat="42.34182258479088" lon="14.128692065189282"><ele>42.75</ele><time>2026-04-12T11:16:53.999Z</time></trkpt><trkpt lat="42.34178652079005" lon="14.128536839858425"><ele>41.5</ele><time>2026-04-12T11:16:54.999Z</time></trkpt><trkpt lat="42.341768282445706" lon="14.128357573552641"><ele>40.25</ele><time>2026-04-12T11:16:55.999Z</time></trkpt><trkpt lat="42.34171991256289" lon="14.128168698199252"><ele>39.0</ele><time>2026-04-12T11:16:56.999Z</time></trkpt><trkpt lat="42.34168519112862" lon="14.127969197979297"><ele>38.5</ele><time>2026-04-12T11:16:57.999Z</time></trkpt><trkpt lat="42.34165231427532" lon="14.1277793768895"><ele>38.0</ele><time>2026-04-12T11:16:58.999Z</time></trkpt><trkpt lat="42.34161998674679" lon="14.127583764563322"><ele>37.5</ele><time>2026-04-12T11:16:59.999Z</time></trkpt><trkpt lat="42.341585197588074" lon="14.127379186424603"><ele>37.0</ele><time>2026-04-12T11:17:00.999Z</time></trkpt><trkpt lat="42.34156494930084" lon="14.127166374654099"><ele>36.333333333333336</ele><time>2026-04-12T11:17:01.999Z</time></trkpt><trkpt lat="42.34152967774602" lon="14.12695516662169"><ele>35.666666666666664</ele><time>2026-04-12T11:17:02.999Z</time></trkpt><trkpt lat="42.34149522657297" lon="14.126748904729396"><ele>35.0</ele><time>2026-04-12T11:17:03.999Z</time></trkpt><trkpt lat="42.34146392857446" lon="14.12656613936202"><ele>35.0</ele><time>2026-04-12T11:17:04.999Z</time></trkpt><trkpt lat="42.341434074982125" lon="14.126393526230132"><ele>35.0</ele><time>2026-04-12T11:17:05.999Z</time></trkpt><trkpt lat="42.34140386121707" lon="14.126222268740273"><ele>35.0</ele><time>2026-04-12T11:17:06.999Z</time></trkpt><trkpt lat="42.341374866589334" lon="14.126057921500685"><ele>35.0</ele><time>2026-04-12T11:17:07.999Z</time></trkpt><trkpt lat="42.341346846356" lon="14.125899097438223"><ele>35.0</ele><time>2026-04-12T11:17:08.999Z</time></trkpt><trkpt lat="42.341319986463255" lon="14.125742144403507"><ele>35.0</ele><time>2026-04-12T11:17:09.999Z</time></trkpt><trkpt lat="42.3412912599951" lon="14.125572569381974"><ele>35.0</ele><time>2026-04-12T11:17:10.999Z</time></trkpt><trkpt lat="42.34124693687161" lon="14.125395513204795"><ele>35.0</ele><time>2026-04-12T11:17:11.999Z</time></trkpt><trkpt lat="42.34121719684027" lon="14.125213007594779"><ele>35.0</ele><time>2026-04-12T11:17:12.999Z</time></trkpt><trkpt lat="42.341188521887375" lon="14.125040141319035"><ele>35.0</ele><time>2026-04-12T11:17:13.999Z</time></trkpt><trkpt lat="42.34115918752288" lon="14.124861042494457"><ele>35.0</ele><time>2026-04-12T11:17:14.999Z</time></trkpt><trkpt lat="42.34112877226599" lon="14.124671109359653"><ele>35.0</ele><time>2026-04-12T11:17:15.999Z</time></trkpt><trkpt lat="42.34109828622605" lon="14.124474699207171"><ele>35.0</ele><time>2026-04-12T11:17:17Z</time></trkpt><trkpt lat="42.341061700362" lon="14.124280711689257"><ele>35.0</ele><time>2026-04-12T11:17:18Z</time></trkpt><trkpt lat="42.341030794978614" lon="14.124090320339114"><ele>35.0</ele><time>2026-04-12T11:17:19Z</time></trkpt><trkpt lat="42.3410035512039" lon="14.123906794765693"><ele>35.0</ele><time>2026-04-12T11:17:20Z</time></trkpt><trkpt lat="42.340978493543425" lon="14.123737105077403"><ele>35.0</ele><time>2026-04-12T11:17:21Z</time></trkpt><trkpt lat="42.34094732107421" lon="14.123570854163976"><ele>35.0</ele><time>2026-04-12T11:17:22Z</time></trkpt><trkpt lat="42.34091637579493" lon="14.123399590469166"><ele>35.0</ele><time>2026-04-12T11:17:23Z</time></trkpt><trkpt lat="42.34089185323569" lon="14.123224960957359"><ele>35.0</ele><time>2026-04-12T11:17:24Z</time></trkpt><trkpt lat="42.34086729302518" lon="14.123036940259384"><ele>35.0</ele><time>2026-04-12T11:17:25Z</time></trkpt><trkpt lat="42.34083584145535" lon="14.122864951456338"><ele>35.0</ele><time>2026-04-12T11:17:26Z</time></trkpt><trkpt lat="42.34080501089807" lon="14.122696997704253"><ele>35.0</ele><time>2026-04-12T11:17:27Z</time></trkpt><trkpt lat="42.34078691583186" lon="14.122531702509734"><ele>35.0</ele><time>2026-04-12T11:17:28Z</time></trkpt><trkpt lat="42.340783865064424" lon="14.122359331468079"><ele>34.8</ele><time>2026-04-12T11:17:29Z</time></trkpt><trkpt lat="42.34079123938296" lon="14.12218361216143"><ele>34.6</ele><time>2026-04-12T11:17:30Z</time></trkpt><trkpt lat="42.3408056972478" lon="14.12201713447021"><ele>34.4</ele><time>2026-04-12T11:17:31Z</time></trkpt><trkpt lat="42.34083197714195" lon="14.121885981454021"><ele>34.2</ele><time>2026-04-12T11:17:32Z</time></trkpt><trkpt lat="42.34086318885192" lon="14.12178528682688"><ele>34.0</ele><time>2026-04-12T11:17:33Z</time></trkpt><trkpt lat="42.34090646938127" lon="14.121695764906518"><ele>34.0</ele><time>2026-04-12T11:17:34Z</time></trkpt><trkpt lat="42.340969673444064" lon="14.121625192306238"><ele>34.0</ele><time>2026-04-12T11:17:35Z</time></trkpt><trkpt lat="42.34104246715401" lon="14.12157956707347"><ele>34.0</ele><time>2026-04-12T11:17:36Z</time></trkpt><trkpt lat="42.34109948464113" lon="14.121542032137972"><ele>34.0</ele><time>2026-04-12T11:17:37Z</time></trkpt><trkpt lat="42.341161848634584" lon="14.121504853018072"><ele>34.0</ele><time>2026-04-12T11:17:38Z</time></trkpt><trkpt lat="42.3412064148253" lon="14.121405273931503"><ele>34.0</ele><time>2026-04-12T11:17:39Z</time></trkpt><trkpt lat="42.34121077439107" lon="14.121260247109323"><ele>33.8</ele><time>2026-04-12T11:17:40Z</time></trkpt><trkpt lat="42.34120472715231" lon="14.121127794620444"><ele>33.599999999999994</ele><time>2026-04-12T11:17:41Z</time></trkpt><trkpt lat="42.34117457306653" lon="14.121008764503841"><ele>33.4</ele><time>2026-04-12T11:17:42Z</time></trkpt><trkpt lat="42.341277853762435" lon="14.120902613716305"><ele>33.199999999999996</ele><time>2026-04-12T11:17:43Z</time></trkpt><trkpt lat="42.34133414697059" lon="14.120795394240307"><ele>33.0</ele><time>2026-04-12T11:17:44Z</time></trkpt><trkpt lat="42.34139606425821" lon="14.120678873787869"><ele>33.0</ele><time>2026-04-12T11:17:45Z</time></trkpt><trkpt lat="42.34145061045572" lon="14.120548901148636"><ele>33.0</ele><time>2026-04-12T11:17:46Z</time></trkpt><trkpt lat="42.34151869842044" lon="14.120428659808622"><ele>33.0</ele><time>2026-04-12T11:17:47Z</time></trkpt><trkpt lat="42.34159423229022" lon="14.120294562747143"><ele>33.0</ele><time>2026-04-12T11:17:48Z</time></trkpt><trkpt lat="42.341677777282584" lon="14.120143759733654"><ele>33.0</ele><time>2026-04-12T11:17:49Z</time></trkpt><trkpt lat="42.34176451546666" lon="14.119983351884375"><ele>33.0</ele><time>2026-04-12T11:17:50Z</time></trkpt><trkpt lat="42.34185403796523" lon="14.11981129224189"><ele>33.0</ele><time>2026-04-12T11:17:51Z</time></trkpt><trkpt lat="42.34194627415432" lon="14.119637015502912"><ele>32.666666666666664</ele><time>2026-04-12T11:17:52Z</time></trkpt><trkpt lat="42.342045811497414" lon="14.119463099349147"><ele>32.33333333333333</ele><time>2026-04-12T11:17:53Z</time></trkpt><trkpt lat="42.34214368252992" lon="14.119285272589927"><ele>32.0</ele><time>2026-04-12T11:17:54Z</time></trkpt><trkpt lat="42.34222788930145" lon="14.119124436848054"><ele>32.33333333333333</ele><time>2026-04-12T11:17:55Z</time></trkpt><trkpt lat="42.342312843166646" lon="14.118960225807065"><ele>32.666666666666664</ele><time>2026-04-12T11:17:56Z</time></trkpt><trkpt lat="42.34239109274443" lon="14.118780108471631"><ele>33.0</ele><time>2026-04-12T11:17:57Z</time></trkpt><trkpt lat="42.342458081601045" lon="14.118582802037162"><ele>33.0</ele><time>2026-04-12T11:17:58Z</time></trkpt><trkpt lat="42.34251479059869" lon="14.118375675672363"><ele>33.0</ele><time>2026-04-12T11:17:59Z</time></trkpt><trkpt lat="42.34256165801511" lon="14.118160601265645"><ele>33.0</ele><time>2026-04-12T11:18:00Z</time></trkpt><trkpt lat="42.34259979551795" lon="14.117943773813982"><ele>35.0</ele><time>2026-04-12T11:18:01Z</time></trkpt><trkpt lat="42.34263349804789" lon="14.117731264038019"><ele>37.0</ele><time>2026-04-12T11:18:02Z</time></trkpt><trkpt lat="42.342685005720426" lon="14.117541644382474"><ele>39.0</ele><time>2026-04-12T11:18:03Z</time></trkpt><trkpt lat="42.342724352820746" lon="14.117334567748697"><ele>41.0</ele><time>2026-04-12T11:18:04Z</time></trkpt><trkpt lat="42.342750686197185" lon="14.117113462798404"><ele>43.0</ele><time>2026-04-12T11:18:05Z</time></trkpt><trkpt lat="42.342794118491646" lon="14.116901171006226"><ele>45.0</ele><time>2026-04-12T11:18:06Z</time></trkpt><trkpt lat="42.34283494609368" lon="14.11668516658288"><ele>45.333333333333336</ele><time>2026-04-12T11:18:07Z</time></trkpt><trkpt lat="42.342874261457986" lon="14.116464081654566"><ele>45.66666666666667</ele><time>2026-04-12T11:18:08Z</time></trkpt><trkpt lat="42.342916763704636" lon="14.116239382517845"><ele>46.0</ele><time>2026-04-12T11:18:09Z</time></trkpt><trkpt lat="42.342957273237616" lon="14.116027287792246"><ele>46.0</ele><time>2026-04-12T11:18:10Z</time></trkpt><trkpt lat="42.34299249327778" lon="14.115824614061614"><ele>46.0</ele><time>2026-04-12T11:18:11Z</time></trkpt><trkpt lat="42.34302617764016" lon="14.115630399327735"><ele>46.0</ele><time>2026-04-12T11:18:12Z</time></trkpt><trkpt lat="42.34305868096112" lon="14.115435412008797"><ele>46.0</ele><time>2026-04-12T11:18:13Z</time></trkpt><trkpt lat="42.34309079743169" lon="14.115239330324206"><ele>46.66666666666667</ele><time>2026-04-12T11:18:14Z</time></trkpt><trkpt lat="42.34312049922949" lon="14.115041868655473"><ele>47.333333333333336</ele><time>2026-04-12T11:18:15Z</time></trkpt><trkpt lat="42.34314922648829" lon="14.114840901859166"><ele>48.0</ele><time>2026-04-12T11:18:16Z</time></trkpt><trkpt lat="42.34317423140846" lon="14.114638251173346"><ele>48.0</ele><time>2026-04-12T11:18:17Z</time></trkpt><trkpt lat="42.34319869301345" lon="14.114431585029944"><ele>48.0</ele><time>2026-04-12T11:18:18Z</time></trkpt><trkpt lat="42.34322474998848" lon="14.114224455445505"><ele>48.0</ele><time>2026-04-12T11:18:19Z</time></trkpt><trkpt lat="42.34325113620008" lon="14.114016615145783"><ele>47.666666666666664</ele><time>2026-04-12T11:18:20Z</time></trkpt><trkpt lat="42.343293061083706" lon="14.11380965379146"><ele>47.33333333333333</ele><time>2026-04-12T11:18:21Z</time></trkpt><trkpt lat="42.34330878934054" lon="14.113592666770435"><ele>47.0</ele><time>2026-04-12T11:18:22Z</time></trkpt><trkpt lat="42.343338861891944" lon="14.113376429038722"><ele>47.0</ele><time>2026-04-12T11:18:23Z</time></trkpt><trkpt lat="42.34336452466781" lon="14.113182133955673"><ele>47.0</ele><time>2026-04-12T11:18:24Z</time></trkpt><trkpt lat="42.343388457253816" lon="14.112992706709726"><ele>47.0</ele><time>2026-04-12T11:18:25Z</time></trkpt><trkpt lat="42.343411267860965" lon="14.112804338925953"><ele>47.0</ele><time>2026-04-12T11:18:26Z</time></trkpt><trkpt lat="42.343435087231825" lon="14.112620436384521"><ele>47.0</ele><time>2026-04-12T11:18:27Z</time></trkpt><trkpt lat="42.34345807611681" lon="14.112448532170072"><ele>47.0</ele><time>2026-04-12T11:18:27.999Z</time></trkpt><trkpt lat="42.3434782327111" lon="14.112285572536297"><ele>47.0</ele><time>2026-04-12T11:18:28.999Z</time></trkpt><trkpt lat="42.34349523601638" lon="14.112140136663951"><ele>47.0</ele><time>2026-04-12T11:18:29.999Z</time></trkpt><trkpt lat="42.343513516780824" lon="14.111995812897286"><ele>47.0</ele><time>2026-04-12T11:18:30.999Z</time></trkpt><trkpt lat="42.343529503112585" lon="14.111863304010337"><ele>47.0</ele><time>2026-04-12T11:18:31.999Z</time></trkpt><trkpt lat="42.34354524643757" lon="14.111747967934381"><ele>47.0</ele><time>2026-04-12T11:18:32.999Z</time></trkpt><trkpt lat="42.343562236813625" lon="14.111654150037907"><ele>47.0</ele><time>2026-04-12T11:18:33.999Z</time></trkpt><trkpt lat="42.34359567100455" lon="14.111536242601955"><ele>47.0</ele><time>2026-04-12T11:18:35.999Z</time></trkpt><trkpt lat="42.34367119855714" lon="14.11146680992289"><ele>47.0</ele><time>2026-04-12T11:18:37.999Z</time></trkpt><trkpt lat="42.34374588793491" lon="14.111469523830158"><ele>47.2</ele><time>2026-04-12T11:18:38.999Z</time></trkpt><trkpt lat="42.343826218638625" lon="14.111510218504137"><ele>47.400000000000006</ele><time>2026-04-12T11:18:39.999Z</time></trkpt><trkpt lat="42.34391281654324" lon="14.111571089966251"><ele>47.599999999999994</ele><time>2026-04-12T11:18:40.999Z</time></trkpt><trkpt lat="42.344015442185714" lon="14.11164697345179"><ele>47.8</ele><time>2026-04-12T11:18:41.999Z</time></trkpt><trkpt lat="42.344131148421816" lon="14.11172791836283"><ele>48.0</ele><time>2026-04-12T11:18:42.999Z</time></trkpt><trkpt lat="42.34423684367409" lon="14.111797169850153"><ele>48.0</ele><time>2026-04-12T11:18:43.999Z</time></trkpt><trkpt lat="42.34434776783083" lon="14.111867182647194"><ele>48.0</ele><time>2026-04-12T11:18:44.999Z</time></trkpt><trkpt lat="42.344464011020655" lon="14.111944061164724"><ele>48.0</ele><time>2026-04-12T11:18:45.999Z</time></trkpt><trkpt lat="42.34458700470336" lon="14.112026439306"><ele>48.0</ele><time>2026-04-12T11:18:46.999Z</time></trkpt><trkpt lat="42.344711735709836" lon="14.112107317571114"><ele>47.25</ele><time>2026-04-12T11:18:47.999Z</time></trkpt><trkpt lat="42.344840035778674" lon="14.112185473572753"><ele>46.5</ele><time>2026-04-12T11:18:48.999Z</time></trkpt><trkpt lat="42.34496792369644" lon="14.112265555023786"><ele>45.75</ele><time>2026-04-12T11:18:49.999Z</time></trkpt><trkpt lat="42.34509286676976" lon="14.112342627579352"><ele>45.0</ele><time>2026-04-12T11:18:50.999Z</time></trkpt><trkpt lat="42.34521192097173" lon="14.112402936291112"><ele>45.25</ele><time>2026-04-12T11:18:51.999Z</time></trkpt><trkpt lat="42.34532777778771" lon="14.112446699080605"><ele>45.5</ele><time>2026-04-12T11:18:52.999Z</time></trkpt><trkpt lat="42.34545175078768" lon="14.11248229453917"><ele>45.75</ele><time>2026-04-12T11:18:53.999Z</time></trkpt><trkpt lat="42.34558540430973" lon="14.112516408642051"><ele>46.0</ele><time>2026-04-12T11:18:54.999Z</time></trkpt><trkpt lat="42.3457232722127" lon="14.112549225600288"><ele>46.0</ele><time>2026-04-12T11:18:55.999Z</time></trkpt><trkpt lat="42.3458642238475" lon="14.112585377730023"><ele>46.0</ele><time>2026-04-12T11:18:56.999Z</time></trkpt><trkpt lat="42.34600769155648" lon="14.112628026938475"><ele>46.0</ele><time>2026-04-12T11:18:57.999Z</time></trkpt><trkpt lat="42.34615335437009" lon="14.112682274400663"><ele>46.0</ele><time>2026-04-12T11:18:58.999Z</time></trkpt><trkpt lat="42.346304231352796" lon="14.112745073226778"><ele>45.333333333333336</ele><time>2026-04-12T11:18:59.999Z</time></trkpt><trkpt lat="42.34644689636932" lon="14.112815524752394"><ele>44.666666666666664</ele><time>2026-04-12T11:19:00.999Z</time></trkpt><trkpt lat="42.34658777446525" lon="14.112886109813495"><ele>44.0</ele><time>2026-04-12T11:19:01.999Z</time></trkpt><trkpt lat="42.34672683030341" lon="14.112958520259578"><ele>44.0</ele><time>2026-04-12T11:19:02.999Z</time></trkpt><trkpt lat="42.34686638407167" lon="14.113024984440502"><ele>44.0</ele><time>2026-04-12T11:19:03.999Z</time></trkpt><trkpt lat="42.34700576287632" lon="14.113090513599913"><ele>44.0</ele><time>2026-04-12T11:19:04.999Z</time></trkpt><trkpt lat="42.347145836929826" lon="14.113155351103222"><ele>44.0</ele><time>2026-04-12T11:19:05.999Z</time></trkpt><trkpt lat="42.34728559601355" lon="14.113222377763956"><ele>44.25</ele><time>2026-04-12T11:19:06.999Z</time></trkpt><trkpt lat="42.34742601540169" lon="14.11329338404514"><ele>44.5</ele><time>2026-04-12T11:19:07.999Z</time></trkpt><trkpt lat="42.347565259182225" lon="14.113362554372928"><ele>44.75</ele><time>2026-04-12T11:19:08.999Z</time></trkpt><trkpt lat="42.34768774272415" lon="14.113420996378203"><ele>45.0</ele><time>2026-04-12T11:19:09.999Z</time></trkpt><trkpt lat="42.34779950005059" lon="14.11347859067837"><ele>45.0</ele><time>2026-04-12T11:19:10.999Z</time></trkpt><trkpt lat="42.34791920105313" lon="14.113542045449767"><ele>45.0</ele><time>2026-04-12T11:19:11.999Z</time></trkpt><trkpt lat="42.34803877687581" lon="14.113600222573888"><ele>45.0</ele><time>2026-04-12T11:19:12.999Z</time></trkpt><trkpt lat="42.3481378698453" lon="14.11364672114235"><ele>45.0</ele><time>2026-04-12T11:19:13.999Z</time></trkpt><trkpt lat="42.34823882377094" lon="14.11367483709889"><ele>45.0</ele><time>2026-04-12T11:19:14.999Z</time></trkpt><trkpt lat="42.348345160899406" lon="14.113683135826214"><ele>45.0</ele><time>2026-04-12T11:19:15.999Z</time></trkpt><trkpt lat="42.34845511866804" lon="14.113656722746022"><ele>45.0</ele><time>2026-04-12T11:19:16.999Z</time></trkpt><trkpt lat="42.348568896030045" lon="14.113604019943846"><ele>45.0</ele><time>2026-04-12T11:19:17.999Z</time></trkpt><trkpt lat="42.34868679312626" lon="14.113529170016964"><ele>45.0</ele><time>2026-04-12T11:19:18.999Z</time></trkpt><trkpt lat="42.34881296328549" lon="14.11344570017047"><ele>45.0</ele><time>2026-04-12T11:19:19.999Z</time></trkpt><trkpt lat="42.348941591426055" lon="14.113367331808233"><ele>45.0</ele><time>2026-04-12T11:19:20.999Z</time></trkpt><trkpt lat="42.34907043371237" lon="14.11328426942478"><ele>45.0</ele><time>2026-04-12T11:19:21.999Z</time></trkpt><trkpt lat="42.34920260129904" lon="14.11319762937859"><ele>44.0</ele><time>2026-04-12T11:19:23Z</time></trkpt><trkpt lat="42.34933590661065" lon="14.113110812294552"><ele>43.0</ele><time>2026-04-12T11:19:24Z</time></trkpt><trkpt lat="42.3494640683438" lon="14.113024338619336"><ele>42.0</ele><time>2026-04-12T11:19:25Z</time></trkpt><trkpt lat="42.34957166311634" lon="14.11294853771705"><ele>41.0</ele><time>2026-04-12T11:19:26Z</time></trkpt><trkpt lat="42.34966220162744" lon="14.112878324550552"><ele>41.599999999999994</ele><time>2026-04-12T11:19:27Z</time></trkpt><trkpt lat="42.34974843007507" lon="14.112818370500149"><ele>42.2</ele><time>2026-04-12T11:19:28Z</time></trkpt><trkpt lat="42.349839048113175" lon="14.11276056136974"><ele>42.8</ele><time>2026-04-12T11:19:29Z</time></trkpt><trkpt lat="42.349924159582734" lon="14.112714969872718"><ele>43.400000000000006</ele><time>2026-04-12T11:19:30Z</time></trkpt><trkpt lat="42.35001451597277" lon="14.112635165677807"><ele>44.0</ele><time>2026-04-12T11:19:31Z</time></trkpt><trkpt lat="42.35012513220471" lon="14.112566827285548"><ele>44.0</ele><time>2026-04-12T11:19:32Z</time></trkpt><trkpt lat="42.350283413376644" lon="14.112562810610738"><ele>44.0</ele><time>2026-04-12T11:19:33Z</time></trkpt><trkpt lat="42.350420402689004" lon="14.112472128886749"><ele>44.0</ele><time>2026-04-12T11:19:34Z</time></trkpt><trkpt lat="42.35060532194843" lon="14.112511733777321"><ele>44.0</ele><time>2026-04-12T11:19:35Z</time></trkpt><trkpt lat="42.350770682771945" lon="14.112527018548874"><ele>44.0</ele><time>2026-04-12T11:19:36Z</time></trkpt><trkpt lat="42.350928994882594" lon="14.112562837421773"><ele>44.0</ele><time>2026-04-12T11:19:37Z</time></trkpt><trkpt lat="42.35109944399512" lon="14.112617218465706"><ele>44.0</ele><time>2026-04-12T11:19:38Z</time></trkpt><trkpt lat="42.35127849782498" lon="14.112682002967166"><ele>44.0</ele><time>2026-04-12T11:19:39Z</time></trkpt><trkpt lat="42.35145785720897" lon="14.112753735303713"><ele>44.0</ele><time>2026-04-12T11:19:40Z</time></trkpt><trkpt lat="42.35163958983895" lon="14.112832669145678"><ele>42.666666666666664</ele><time>2026-04-12T11:19:41Z</time></trkpt><trkpt lat="42.35182291856849" lon="14.112910109450691"><ele>41.333333333333336</ele><time>2026-04-12T11:19:42Z</time></trkpt><trkpt lat="42.35201353901758" lon="14.112996427993606"><ele>40.0</ele><time>2026-04-12T11:19:43Z</time></trkpt><trkpt lat="42.35221596358791" lon="14.113085681783957"><ele>38.66666666666667</ele><time>2026-04-12T11:19:44Z</time></trkpt><trkpt lat="42.35241193044539" lon="14.113161974503665"><ele>37.333333333333336</ele><time>2026-04-12T11:19:45Z</time></trkpt><trkpt lat="42.35261879231235" lon="14.113237246794897"><ele>36.0</ele><time>2026-04-12T11:19:46Z</time></trkpt><trkpt lat="42.35283087813279" lon="14.113321288414696"><ele>35.666666666666664</ele><time>2026-04-12T11:19:47Z</time></trkpt><trkpt lat="42.35304426811191" lon="14.113408123203556"><ele>35.33333333333333</ele><time>2026-04-12T11:19:48Z</time></trkpt><trkpt lat="42.3532614990256" lon="14.113493835725633"><ele>35.0</ele><time>2026-04-12T11:19:49Z</time></trkpt><trkpt lat="42.35347861796591" lon="14.113581184443339"><ele>35.0</ele><time>2026-04-12T11:19:50Z</time></trkpt><trkpt lat="42.35369814956221" lon="14.113669185808247"><ele>35.0</ele><time>2026-04-12T11:19:51Z</time></trkpt><trkpt lat="42.353910634840105" lon="14.113757780658599"><ele>35.33333333333333</ele><time>2026-04-12T11:19:52Z</time></trkpt><trkpt lat="42.3541206735979" lon="14.113843795810629"><ele>35.666666666666664</ele><time>2026-04-12T11:19:53Z</time></trkpt><trkpt lat="42.35432917068434" lon="14.113926222485683"><ele>36.0</ele><time>2026-04-12T11:19:54Z</time></trkpt><trkpt lat="42.3545382412613" lon="14.114012120566574"><ele>36.333333333333336</ele><time>2026-04-12T11:19:55Z</time></trkpt><trkpt lat="42.35474816045447" lon="14.114097389699328"><ele>36.66666666666667</ele><time>2026-04-12T11:19:56Z</time></trkpt><trkpt lat="42.35496103955334" lon="14.114180983630092"><ele>37.0</ele><time>2026-04-12T11:19:57Z</time></trkpt><trkpt lat="42.355173566244524" lon="14.114262391367134"><ele>37.0</ele><time>2026-04-12T11:19:58Z</time></trkpt><trkpt lat="42.35538457225527" lon="14.114345333653393"><ele>37.0</ele><time>2026-04-12T11:19:59Z</time></trkpt><trkpt lat="42.35559671997724" lon="14.114431238221565"><ele>37.0</ele><time>2026-04-12T11:20:00Z</time></trkpt><trkpt lat="42.355811494911656" lon="14.114516584533588"><ele>42.0</ele><time>2026-04-12T11:20:01Z</time></trkpt><trkpt lat="42.356026875607064" lon="14.11460465477276"><ele>47.0</ele><time>2026-04-12T11:20:02Z</time></trkpt><trkpt lat="42.35624334162646" lon="14.114693506105146"><ele>48.0</ele><time>2026-04-12T11:20:03Z</time></trkpt><trkpt lat="42.35646120999723" lon="14.114781980507127"><ele>49.0</ele><time>2026-04-12T11:20:04Z</time></trkpt><trkpt lat="42.35668048813367" lon="14.114871589346345"><ele>44.0</ele><time>2026-04-12T11:20:05Z</time></trkpt><trkpt lat="42.35690018575275" lon="14.114957470290877"><ele>39.0</ele><time>2026-04-12T11:20:06Z</time></trkpt><trkpt lat="42.35711957886924" lon="14.11504482467738"><ele>40.0</ele><time>2026-04-12T11:20:07Z</time></trkpt><trkpt lat="42.35733856866931" lon="14.115132834358683"><ele>41.0</ele><time>2026-04-12T11:20:08Z</time></trkpt><trkpt lat="42.357556891494674" lon="14.115218911560687"><ele>41.0</ele><time>2026-04-12T11:20:09Z</time></trkpt><trkpt lat="42.357776578404184" lon="14.115303717402808"><ele>41.0</ele><time>2026-04-12T11:20:10Z</time></trkpt><trkpt lat="42.35799692538324" lon="14.115394013616141"><ele>41.0</ele><time>2026-04-12T11:20:11Z</time></trkpt><trkpt lat="42.35821683014709" lon="14.115484864497379"><ele>41.0</ele><time>2026-04-12T11:20:12Z</time></trkpt><trkpt lat="42.35843720626455" lon="14.115578034046274"><ele>41.0</ele><time>2026-04-12T11:20:13Z</time></trkpt><trkpt lat="42.35865797954451" lon="14.11567041169632"><ele>41.0</ele><time>2026-04-12T11:20:14Z</time></trkpt><trkpt lat="42.35888012092258" lon="14.115761994294775"><ele>38.5</ele><time>2026-04-12T11:20:15Z</time></trkpt><trkpt lat="42.35910328546468" lon="14.115851762248937"><ele>36.0</ele><time>2026-04-12T11:20:16Z</time></trkpt><trkpt lat="42.359327310277415" lon="14.115940523251208"><ele>36.0</ele><time>2026-04-12T11:20:17Z</time></trkpt><trkpt lat="42.359549618243776" lon="14.116033024547654"><ele>36.0</ele><time>2026-04-12T11:20:18Z</time></trkpt><trkpt lat="42.3597696300976" lon="14.11612805174667"><ele>36.5</ele><time>2026-04-12T11:20:19Z</time></trkpt><trkpt lat="42.35998560487976" lon="14.116226664409702"><ele>37.0</ele><time>2026-04-12T11:20:20Z</time></trkpt><trkpt lat="42.36020052325407" lon="14.116325720178645"><ele>37.0</ele><time>2026-04-12T11:20:21Z</time></trkpt><trkpt lat="42.36041475621273" lon="14.116421351402314"><ele>37.0</ele><time>2026-04-12T11:20:22Z</time></trkpt><trkpt lat="42.36062779103979" lon="14.116517923983931"><ele>34.66666666666667</ele><time>2026-04-12T11:20:23Z</time></trkpt><trkpt lat="42.3608414219526" lon="14.116615822841801"><ele>32.333333333333336</ele><time>2026-04-12T11:20:24Z</time></trkpt><trkpt lat="42.36105351370885" lon="14.116710614676297"><ele>30.0</ele><time>2026-04-12T11:20:25Z</time></trkpt><trkpt lat="42.361265852472435" lon="14.116807765115"><ele>32.0</ele><time>2026-04-12T11:20:26Z</time></trkpt><trkpt lat="42.36147654118721" lon="14.116905877762438"><ele>34.0</ele><time>2026-04-12T11:20:27Z</time></trkpt><trkpt lat="42.361689547620706" lon="14.117004025866411"><ele>36.0</ele><time>2026-04-12T11:20:28Z</time></trkpt><trkpt lat="42.36190401869454" lon="14.117097990246474"><ele>36.0</ele><time>2026-04-12T11:20:29Z</time></trkpt><trkpt lat="42.36211916198581" lon="14.117192159276108"><ele>36.0</ele><time>2026-04-12T11:20:29.999Z</time></trkpt><trkpt lat="42.36233541738008" lon="14.117284697827445"><ele>32.5</ele><time>2026-04-12T11:20:30.999Z</time></trkpt><trkpt lat="42.36255286077904" lon="14.11737190413937"><ele>29.0</ele><time>2026-04-12T11:20:31.999Z</time></trkpt><trkpt lat="42.36277709576707" lon="14.117444088983657"><ele>29.0</ele><time>2026-04-12T11:20:32.999Z</time></trkpt><trkpt lat="42.3630027967697" lon="14.117481956466072"><ele>29.0</ele><time>2026-04-12T11:20:33.999Z</time></trkpt><trkpt lat="42.36322735011712" lon="14.117488239154497"><ele>29.666666666666664</ele><time>2026-04-12T11:20:34.999Z</time></trkpt><trkpt lat="42.363451467645035" lon="14.117482888795433"><ele>30.333333333333336</ele><time>2026-04-12T11:20:35.999Z</time></trkpt><trkpt lat="42.3636746186628" lon="14.117481436979645"><ele>31.0</ele><time>2026-04-12T11:20:36.999Z</time></trkpt><trkpt lat="42.36389684519399" lon="14.117485633420879"><ele>31.666666666666668</ele><time>2026-04-12T11:20:37.999Z</time></trkpt><trkpt lat="42.36411742354043" lon="14.11750749780537"><ele>32.333333333333336</ele><time>2026-04-12T11:20:38.999Z</time></trkpt><trkpt lat="42.36433398154504" lon="14.117561782065374"><ele>33.0</ele><time>2026-04-12T11:20:39.999Z</time></trkpt><trkpt lat="42.364548169175535" lon="14.117655887341282"><ele>32.5</ele><time>2026-04-12T11:20:40.999Z</time></trkpt><trkpt lat="42.36475759581943" lon="14.11777685495643"><ele>32.0</ele><time>2026-04-12T11:20:41.999Z</time></trkpt><trkpt lat="42.364959297255695" lon="14.117909829302343"><ele>32.0</ele><time>2026-04-12T11:20:42.999Z</time></trkpt><trkpt lat="42.36515861872305" lon="14.118044678954634"><ele>32.0</ele><time>2026-04-12T11:20:43.999Z</time></trkpt><trkpt lat="42.3653589824624" lon="14.118178533635565"><ele>32.0</ele><time>2026-04-12T11:20:44.999Z</time></trkpt><trkpt lat="42.36555899191218" lon="14.118311882943113"><ele>30.666666666666664</ele><time>2026-04-12T11:20:45.999Z</time></trkpt><trkpt lat="42.365759059771705" lon="14.118450584016768"><ele>29.333333333333336</ele><time>2026-04-12T11:20:46.999Z</time></trkpt><trkpt lat="42.36595899036275" lon="14.118587711888168"><ele>28.0</ele><time>2026-04-12T11:20:47.999Z</time></trkpt><trkpt lat="42.3661610947991" lon="14.118722710091724"><ele>28.0</ele><time>2026-04-12T11:20:48.999Z</time></trkpt><trkpt lat="42.36636159525396" lon="14.11886125298742"><ele>28.0</ele><time>2026-04-12T11:20:49.999Z</time></trkpt><trkpt lat="42.366562534211965" lon="14.119002618785721"><ele>27.5</ele><time>2026-04-12T11:20:50.999Z</time></trkpt><trkpt lat="42.36676352787028" lon="14.119143964126255"><ele>27.0</ele><time>2026-04-12T11:20:51.999Z</time></trkpt><trkpt lat="42.366964888129104" lon="14.119288314794833"><ele>27.0</ele><time>2026-04-12T11:20:52.999Z</time></trkpt><trkpt lat="42.36716730214377" lon="14.119434261683526"><ele>27.0</ele><time>2026-04-12T11:20:53.999Z</time></trkpt><trkpt lat="42.367371075638054" lon="14.119573978216104"><ele>27.5</ele><time>2026-04-12T11:20:54.999Z</time></trkpt><trkpt lat="42.36757544936049" lon="14.1197132071126"><ele>28.0</ele><time>2026-04-12T11:20:55.999Z</time></trkpt><trkpt lat="42.36778047227894" lon="14.11985489078152"><ele>28.0</ele><time>2026-04-12T11:20:56.999Z</time></trkpt><trkpt lat="42.36798596375887" lon="14.119996298352522"><ele>28.0</ele><time>2026-04-12T11:20:57.999Z</time></trkpt><trkpt lat="42.36819389067319" lon="14.120122284856823"><ele>28.5</ele><time>2026-04-12T11:20:58.999Z</time></trkpt><trkpt lat="42.36841143802522" lon="14.120218117501814"><ele>29.0</ele><time>2026-04-12T11:20:59.999Z</time></trkpt><trkpt lat="42.36863601888769" lon="14.120279146768187"><ele>33.0</ele><time>2026-04-12T11:21:00.999Z</time></trkpt><trkpt lat="42.36886558348988" lon="14.120313802157003"><ele>37.0</ele><time>2026-04-12T11:21:01.999Z</time></trkpt><trkpt lat="42.36909434284988" lon="14.120336568837171"><ele>37.0</ele><time>2026-04-12T11:21:02.999Z</time></trkpt><trkpt lat="42.36932078876226" lon="14.120363614211984"><ele>37.0</ele><time>2026-04-12T11:21:03.999Z</time></trkpt><trkpt lat="42.36954857063401" lon="14.120389997243523"><ele>37.0</ele><time>2026-04-12T11:21:04.999Z</time></trkpt><trkpt lat="42.36977761070111" lon="14.120413180687768"><ele>37.0</ele><time>2026-04-12T11:21:05.999Z</time></trkpt><trkpt lat="42.3700072328544" lon="14.120440641999265"><ele>37.0</ele><time>2026-04-12T11:21:06.999Z</time></trkpt><trkpt lat="42.37023606147174" lon="14.12047420658865"><ele>37.0</ele><time>2026-04-12T11:21:07.999Z</time></trkpt><trkpt lat="42.37046520346556" lon="14.120508171555088"><ele>37.5</ele><time>2026-04-12T11:21:08.999Z</time></trkpt><trkpt lat="42.37069016421504" lon="14.12055217092119"><ele>38.0</ele><time>2026-04-12T11:21:09.999Z</time></trkpt><trkpt lat="42.370911939323" lon="14.120613855667266"><ele>38.0</ele><time>2026-04-12T11:21:10.999Z</time></trkpt><trkpt lat="42.37112983593939" lon="14.120690931882066"><ele>38.0</ele><time>2026-04-12T11:21:11.999Z</time></trkpt><trkpt lat="42.37134301911433" lon="14.120776230467193"><ele>38.0</ele><time>2026-04-12T11:21:12.999Z</time></trkpt><trkpt lat="42.371554146601454" lon="14.120868999475986"><ele>36.33333333333333</ele><time>2026-04-12T11:21:13.999Z</time></trkpt><trkpt lat="42.371762099829496" lon="14.120965903893277"><ele>34.666666666666664</ele><time>2026-04-12T11:21:14.999Z</time></trkpt><trkpt lat="42.37196589069803" lon="14.12106988919494"><ele>33.0</ele><time>2026-04-12T11:21:15.999Z</time></trkpt><trkpt lat="42.372165833885845" lon="14.121184468963415"><ele>33.333333333333336</ele><time>2026-04-12T11:21:16.999Z</time></trkpt><trkpt lat="42.37235833534799" lon="14.121316367486447"><ele>33.66666666666667</ele><time>2026-04-12T11:21:17.999Z</time></trkpt><trkpt lat="42.37254496577689" lon="14.121465924590575"><ele>34.0</ele><time>2026-04-12T11:21:18.999Z</time></trkpt><trkpt lat="42.372734032843276" lon="14.12162190399252"><ele>34.0</ele><time>2026-04-12T11:21:19.999Z</time></trkpt><trkpt lat="42.37292497328488" lon="14.121778452004008"><ele>34.0</ele><time>2026-04-12T11:21:20.999Z</time></trkpt><trkpt lat="42.37310145718658" lon="14.121918466831032"><ele>34.0</ele><time>2026-04-12T11:21:21.999Z</time></trkpt><trkpt lat="42.37326336442475" lon="14.122042855115147"><ele>36.333333333333336</ele><time>2026-04-12T11:21:22.999Z</time></trkpt><trkpt lat="42.37340644178517" lon="14.12215772503708"><ele>38.666666666666664</ele><time>2026-04-12T11:21:23.999Z</time></trkpt><trkpt lat="42.373540493801265" lon="14.12226714743949"><ele>41.0</ele><time>2026-04-12T11:21:24.999Z</time></trkpt><trkpt lat="42.37366598092109" lon="14.12236665717926"><ele>41.0</ele><time>2026-04-12T11:21:25.999Z</time></trkpt><trkpt lat="42.37378070429587" lon="14.122457662171463"><ele>41.0</ele><time>2026-04-12T11:21:26.999Z</time></trkpt><trkpt lat="42.3738774730181" lon="14.122540184014486"><ele>41.0</ele><time>2026-04-12T11:21:27.999Z</time></trkpt><trkpt lat="42.37395161683333" lon="14.122605760608266"><ele>41.0</ele><time>2026-04-12T11:21:29Z</time></trkpt><trkpt lat="42.374010347833185" lon="14.12265613136582"><ele>41.0</ele><time>2026-04-12T11:21:30Z</time></trkpt><trkpt lat="42.37408219488778" lon="14.122715330652355"><ele>41.0</ele><time>2026-04-12T11:21:32Z</time></trkpt><trkpt lat="42.37422575215472" lon="14.122839616034668"><ele>41.0</ele><time>2026-04-12T11:22:11Z</time></trkpt><trkpt lat="42.37430840598793" lon="14.122903913587947"><ele>41.0</ele><time>2026-04-12T11:22:12Z</time></trkpt><trkpt lat="42.37440713858466" lon="14.122985484712697"><ele>41.0</ele><time>2026-04-12T11:22:13Z</time></trkpt><trkpt lat="42.37451725749464" lon="14.123069201738605"><ele>41.0</ele><time>2026-04-12T11:22:14Z</time></trkpt><trkpt lat="42.37463924712318" lon="14.123156364515127"><ele>41.0</ele><time>2026-04-12T11:22:15Z</time></trkpt><trkpt lat="42.37477617680864" lon="14.123260650292206"><ele>41.0</ele><time>2026-04-12T11:22:16Z</time></trkpt><trkpt lat="42.374921490342935" lon="14.123371943377157"><ele>40.33333333333333</ele><time>2026-04-12T11:22:17Z</time></trkpt><trkpt lat="42.37506336073286" lon="14.123484081063797"><ele>39.666666666666664</ele><time>2026-04-12T11:22:18Z</time></trkpt><trkpt lat="42.375214510784446" lon="14.123599895683197"><ele>39.0</ele><time>2026-04-12T11:22:19Z</time></trkpt><trkpt lat="42.375374949050716" lon="14.123726657719894"><ele>40.333333333333336</ele><time>2026-04-12T11:22:20Z</time></trkpt><trkpt lat="42.37554278359939" lon="14.12385021688314"><ele>41.66666666666667</ele><time>2026-04-12T11:22:21Z</time></trkpt><trkpt lat="42.375715982033896" lon="14.123950821163225"><ele>43.0</ele><time>2026-04-12T11:22:22Z</time></trkpt><trkpt lat="42.37587867513361" lon="14.12401412355991"><ele>43.0</ele><time>2026-04-12T11:22:23Z</time></trkpt><trkpt lat="42.376026393599794" lon="14.124048832970665"><ele>43.0</ele><time>2026-04-12T11:22:24Z</time></trkpt><trkpt lat="42.37615750788849" lon="14.124089864875073"><ele>43.0</ele><time>2026-04-12T11:22:25Z</time></trkpt><trkpt lat="42.37625943253903" lon="14.124153703301253"><ele>43.0</ele><time>2026-04-12T11:22:26Z</time></trkpt><trkpt lat="42.376339281020094" lon="14.124251964340344"><ele>42.0</ele><time>2026-04-12T11:22:27Z</time></trkpt><trkpt lat="42.376391720797166" lon="14.124370994883702"><ele>41.0</ele><time>2026-04-12T11:22:28Z</time></trkpt><trkpt lat="42.376432720654755" lon="14.1244739572534"><ele>40.0</ele><time>2026-04-12T11:22:29Z</time></trkpt><trkpt lat="42.376486379694065" lon="14.124534666489463"><ele>39.0</ele><time>2026-04-12T11:22:30Z</time></trkpt><trkpt lat="42.376554878113794" lon="14.124543580133604"><ele>38.0</ele><time>2026-04-12T11:22:31Z</time></trkpt><trkpt lat="42.376632146689836" lon="14.124503896424786"><ele>37.0</ele><time>2026-04-12T11:22:32Z</time></trkpt><trkpt lat="42.37668975712777" lon="14.124409041052184"><ele>37.0</ele><time>2026-04-12T11:22:33Z</time></trkpt><trkpt lat="42.37672020091705" lon="14.124268992651643"><ele>37.0</ele><time>2026-04-12T11:22:34Z</time></trkpt><trkpt lat="42.37680010734943" lon="14.124146217287874"><ele>37.0</ele><time>2026-04-12T11:22:34.999Z</time></trkpt><trkpt lat="42.37690110055193" lon="14.124005233045603"><ele>37.0</ele><time>2026-04-12T11:22:35.999Z</time></trkpt><trkpt lat="42.37699570663039" lon="14.123852024211253"><ele>39.333333333333336</ele><time>2026-04-12T11:22:36.999Z</time></trkpt><trkpt lat="42.37708664275402" lon="14.123688754825723"><ele>41.666666666666664</ele><time>2026-04-12T11:22:37.999Z</time></trkpt><trkpt lat="42.3771810802816" lon="14.123516100098405"><ele>44.0</ele><time>2026-04-12T11:22:38.999Z</time></trkpt><trkpt lat="42.377312190384345" lon="14.123407194592552"><ele>44.666666666666664</ele><time>2026-04-12T11:22:39.999Z</time></trkpt><trkpt lat="42.377450890242955" lon="14.123374915283307"><ele>45.333333333333336</ele><time>2026-04-12T11:22:40.999Z</time></trkpt><trkpt lat="42.37760509881566" lon="14.123395631673787"><ele>46.0</ele><time>2026-04-12T11:22:41.999Z</time></trkpt><trkpt lat="42.37776893865663" lon="14.12343987438346"><ele>46.0</ele><time>2026-04-12T11:22:42.999Z</time></trkpt><trkpt lat="42.377941696863765" lon="14.123474666665143"><ele>46.0</ele><time>2026-04-12T11:22:43.999Z</time></trkpt><trkpt lat="42.3781286916091" lon="14.123508732107428"><ele>46.0</ele><time>2026-04-12T11:22:44.999Z</time></trkpt><trkpt lat="42.37832288594222" lon="14.123533647172218"><ele>49.0</ele><time>2026-04-12T11:22:45.999Z</time></trkpt><trkpt lat="42.37851259305416" lon="14.123562359773263"><ele>52.0</ele><time>2026-04-12T11:22:46.999Z</time></trkpt><trkpt lat="42.37871084527027" lon="14.123593264767496"><ele>55.0</ele><time>2026-04-12T11:22:47.999Z</time></trkpt><trkpt lat="42.37891132292295" lon="14.123623899509216"><ele>56.33333333333333</ele><time>2026-04-12T11:22:48.999Z</time></trkpt><trkpt lat="42.379085824174624" lon="14.123658348152036"><ele>57.66666666666667</ele><time>2026-04-12T11:22:49.999Z</time></trkpt><trkpt lat="42.37924082283034" lon="14.123702336326863"><ele>59.0</ele><time>2026-04-12T11:22:50.999Z</time></trkpt><trkpt lat="42.37939096483155" lon="14.123765260848316"><ele>59.0</ele><time>2026-04-12T11:22:51.999Z</time></trkpt><trkpt lat="42.37952408975072" lon="14.12386678493282"><ele>59.0</ele><time>2026-04-12T11:22:52.999Z</time></trkpt><trkpt lat="42.37964713253421" lon="14.124005036216552"><ele>59.0</ele><time>2026-04-12T11:22:53.999Z</time></trkpt><trkpt lat="42.37977785987268" lon="14.124156991825323"><ele>56.66666666666667</ele><time>2026-04-12T11:22:54.999Z</time></trkpt><trkpt lat="42.379929741192406" lon="14.124289652028864"><ele>54.33333333333333</ele><time>2026-04-12T11:22:55.999Z</time></trkpt><trkpt lat="42.380102225393024" lon="14.12439596862371"><ele>52.0</ele><time>2026-04-12T11:22:56.999Z</time></trkpt><trkpt lat="42.38026685174902" lon="14.124550067051478"><ele>52.0</ele><time>2026-04-12T11:22:57.999Z</time></trkpt><trkpt lat="42.38044166895866" lon="14.12468070403636"><ele>52.0</ele><time>2026-04-12T11:22:58.999Z</time></trkpt><trkpt lat="42.38062253857345" lon="14.124799130297943"><ele>52.0</ele><time>2026-04-12T11:22:59.999Z</time></trkpt><trkpt lat="42.38079507225638" lon="14.124933331006343"><ele>52.33333333333333</ele><time>2026-04-12T11:23:00.999Z</time></trkpt><trkpt lat="42.38097891940938" lon="14.12506843673291"><ele>52.66666666666667</ele><time>2026-04-12T11:23:01.999Z</time></trkpt><trkpt lat="42.38116827356146" lon="14.125206448120972"><ele>53.0</ele><time>2026-04-12T11:23:02.999Z</time></trkpt><trkpt lat="42.38136319503376" lon="14.125341791244482"><ele>53.0</ele><time>2026-04-12T11:23:03.999Z</time></trkpt><trkpt lat="42.381561197780364" lon="14.125479530995822"><ele>53.0</ele><time>2026-04-12T11:23:04.999Z</time></trkpt><trkpt lat="42.38175686186562" lon="14.125626571465247"><ele>53.0</ele><time>2026-04-12T11:23:05.999Z</time></trkpt><trkpt lat="42.38194527938477" lon="14.125786918530272"><ele>53.0</ele><time>2026-04-12T11:23:06.999Z</time></trkpt><trkpt lat="42.38212744605149" lon="14.125953619870446"><ele>53.0</ele><time>2026-04-12T11:23:07.999Z</time></trkpt><trkpt lat="42.38230838863371" lon="14.126113648995977"><ele>53.0</ele><time>2026-04-12T11:23:08.999Z</time></trkpt><trkpt lat="42.38247945148141" lon="14.12626844983854"><ele>53.0</ele><time>2026-04-12T11:23:09.999Z</time></trkpt><trkpt lat="42.38266907855925" lon="14.126336239281494"><ele>53.0</ele><time>2026-04-12T11:23:10.999Z</time></trkpt><trkpt lat="42.38287116556682" lon="14.126392302091988"><ele>53.0</ele><time>2026-04-12T11:23:11.999Z</time></trkpt><trkpt lat="42.38305143167788" lon="14.126412324882525"><ele>53.0</ele><time>2026-04-12T11:23:12.999Z</time></trkpt><trkpt lat="42.38320006789108" lon="14.126412108330568"><ele>53.0</ele><time>2026-04-12T11:23:13.999Z</time></trkpt><trkpt lat="42.38332013428101" lon="14.126420541114191"><ele>53.0</ele><time>2026-04-12T11:23:14.999Z</time></trkpt><trkpt lat="42.383422719026186" lon="14.126443883288552"><ele>53.0</ele><time>2026-04-12T11:23:15.999Z</time></trkpt><trkpt lat="42.38353706838269" lon="14.12648003208602"><ele>49.333333333333336</ele><time>2026-04-12T11:23:16.999Z</time></trkpt><trkpt lat="42.38364577775652" lon="14.126573193884115"><ele>45.66666666666667</ele><time>2026-04-12T11:23:17.999Z</time></trkpt><trkpt lat="42.38379010512279" lon="14.12666153449906"><ele>42.0</ele><time>2026-04-12T11:23:18.999Z</time></trkpt><trkpt lat="42.38394874131368" lon="14.126736988631242"><ele>42.0</ele><time>2026-04-12T11:23:19.999Z</time></trkpt><trkpt lat="42.3841167122081" lon="14.126825264839223"><ele>42.0</ele><time>2026-04-12T11:23:20.999Z</time></trkpt><trkpt lat="42.384304980252665" lon="14.12690504286464"><ele>42.0</ele><time>2026-04-12T11:23:21.999Z</time></trkpt><trkpt lat="42.38449736642513" lon="14.126987419766268"><ele>43.0</ele><time>2026-04-12T11:23:22.999Z</time></trkpt><trkpt lat="42.384685612168575" lon="14.127059631194076"><ele>44.0</ele><time>2026-04-12T11:23:23.999Z</time></trkpt><trkpt lat="42.384864755864974" lon="14.127132081090563"><ele>45.0</ele><time>2026-04-12T11:23:24.999Z</time></trkpt><trkpt lat="42.38504457187428" lon="14.127241121360917"><ele>45.0</ele><time>2026-04-12T11:23:25.999Z</time></trkpt><trkpt lat="42.38521497703677" lon="14.127384293417784"><ele>45.0</ele><time>2026-04-12T11:23:26.999Z</time></trkpt><trkpt lat="42.38537288226285" lon="14.127557448520475"><ele>45.0</ele><time>2026-04-12T11:23:27.999Z</time></trkpt><trkpt lat="42.3855314369293" lon="14.127733827859215"><ele>42.0</ele><time>2026-04-12T11:23:28.999Z</time></trkpt><trkpt lat="42.38569622955977" lon="14.127900267320253"><ele>39.0</ele><time>2026-04-12T11:23:29.999Z</time></trkpt><trkpt lat="42.38586230612123" lon="14.128056864219984"><ele>36.0</ele><time>2026-04-12T11:23:30.999Z</time></trkpt><trkpt lat="42.386024073298216" lon="14.12821852817541"><ele>35.666666666666664</ele><time>2026-04-12T11:23:31.999Z</time></trkpt><trkpt lat="42.386184015974926" lon="14.128383066711478"><ele>35.33333333333333</ele><time>2026-04-12T11:23:32.999Z</time></trkpt><trkpt lat="42.38632926469568" lon="14.128563000267068"><ele>35.0</ele><time>2026-04-12T11:23:34Z</time></trkpt><trkpt lat="42.386457418777205" lon="14.12876209772182"><ele>35.666666666666664</ele><time>2026-04-12T11:23:35Z</time></trkpt><trkpt lat="42.38657988244612" lon="14.128969214969343"><ele>36.333333333333336</ele><time>2026-04-12T11:23:36Z</time></trkpt><trkpt lat="42.38670642998667" lon="14.12917174410547"><ele>37.0</ele><time>2026-04-12T11:23:37Z</time></trkpt><trkpt lat="42.38682620451899" lon="14.129381260222038"><ele>36.66666666666667</ele><time>2026-04-12T11:23:38Z</time></trkpt><trkpt lat="42.38697835186459" lon="14.129541793870395"><ele>36.333333333333336</ele><time>2026-04-12T11:23:39Z</time></trkpt><trkpt lat="42.38712591790501" lon="14.129702188509514"><ele>36.0</ele><time>2026-04-12T11:23:40Z</time></trkpt><trkpt lat="42.387267588682796" lon="14.129831800472646"><ele>34.666666666666664</ele><time>2026-04-12T11:23:41Z</time></trkpt><trkpt lat="42.38739771963605" lon="14.12994604555165"><ele>33.33333333333333</ele><time>2026-04-12T11:23:42Z</time></trkpt><trkpt lat="42.387520636772464" lon="14.1300574249717"><ele>32.0</ele><time>2026-04-12T11:23:43Z</time></trkpt><trkpt lat="42.38764518632521" lon="14.130176183149143"><ele>32.0</ele><time>2026-04-12T11:23:44Z</time></trkpt><trkpt lat="42.387765604657666" lon="14.130290257666932"><ele>32.0</ele><time>2026-04-12T11:23:45Z</time></trkpt><trkpt lat="42.38786741505063" lon="14.130381411847313"><ele>32.0</ele><time>2026-04-12T11:23:46Z</time></trkpt><trkpt lat="42.38795229297688" lon="14.13045359532841"><ele>32.0</ele><time>2026-04-12T11:23:47Z</time></trkpt><trkpt lat="42.388028978367906" lon="14.130507193085503"><ele>31.5</ele><time>2026-04-12T11:23:48Z</time></trkpt><trkpt lat="42.38809400906338" lon="14.13053911357421"><ele>31.0</ele><time>2026-04-12T11:23:49Z</time></trkpt><trkpt lat="42.38823102549213" lon="14.130543192587309"><ele>30.5</ele><time>2026-04-12T11:23:51Z</time></trkpt><trkpt lat="42.38833591227627" lon="14.130651442175138"><ele>30.0</ele><time>2026-04-12T11:23:52Z</time></trkpt><trkpt lat="42.38843796867908" lon="14.130714155309962"><ele>30.5</ele><time>2026-04-12T11:23:53Z</time></trkpt><trkpt lat="42.388557476659884" lon="14.130785624970533"><ele>31.0</ele><time>2026-04-12T11:23:54Z</time></trkpt><trkpt lat="42.388690127198615" lon="14.130865704385227"><ele>31.5</ele><time>2026-04-12T11:23:55Z</time></trkpt><trkpt lat="42.38882358320059" lon="14.130954191177864"><ele>32.0</ele><time>2026-04-12T11:23:56Z</time></trkpt><trkpt lat="42.38896326012071" lon="14.131051849774913"><ele>32.33333333333333</ele><time>2026-04-12T11:23:57Z</time></trkpt><trkpt lat="42.389096553975875" lon="14.131153176340925"><ele>32.666666666666664</ele><time>2026-04-12T11:23:58Z</time></trkpt><trkpt lat="42.3892349691593" lon="14.131258578969122"><ele>33.0</ele><time>2026-04-12T11:23:59Z</time></trkpt><trkpt lat="42.38938408929935" lon="14.131370568794598"><ele>33.0</ele><time>2026-04-12T11:24:00Z</time></trkpt><trkpt lat="42.38953598235356" lon="14.131492922617973"><ele>33.0</ele><time>2026-04-12T11:24:01Z</time></trkpt><trkpt lat="42.389690739497" lon="14.131625885325194"><ele>33.0</ele><time>2026-04-12T11:24:02Z</time></trkpt><trkpt lat="42.389848447158556" lon="14.131765281169836"><ele>32.333333333333336</ele><time>2026-04-12T11:24:03Z</time></trkpt><trkpt lat="42.39000884813656" lon="14.131907536069107"><ele>31.666666666666668</ele><time>2026-04-12T11:24:04Z</time></trkpt><trkpt lat="42.39016846355601" lon="14.132044335228482"><ele>31.0</ele><time>2026-04-12T11:24:05Z</time></trkpt><trkpt lat="42.390327272070195" lon="14.13218244680115"><ele>31.0</ele><time>2026-04-12T11:24:06Z</time></trkpt><trkpt lat="42.39048527413017" lon="14.132322985081673"><ele>31.0</ele><time>2026-04-12T11:24:07Z</time></trkpt><trkpt lat="42.39064403336443" lon="14.132463813768569"><ele>31.0</ele><time>2026-04-12T11:24:08Z</time></trkpt><trkpt lat="42.39080337962553" lon="14.13260799469063"><ele>30.666666666666668</ele><time>2026-04-12T11:24:09Z</time></trkpt><trkpt lat="42.39096252612997" lon="14.132753182300021"><ele>30.333333333333336</ele><time>2026-04-12T11:24:10Z</time></trkpt><trkpt lat="42.391123003316665" lon="14.132897970180482"><ele>30.0</ele><time>2026-04-12T11:24:11Z</time></trkpt><trkpt lat="42.39128489555405" lon="14.133041071243108"><ele>30.0</ele><time>2026-04-12T11:24:12Z</time></trkpt><trkpt lat="42.39144535048415" lon="14.133184159594872"><ele>30.0</ele><time>2026-04-12T11:24:13Z</time></trkpt><trkpt lat="42.3916018369095" lon="14.13332483341122"><ele>30.0</ele><time>2026-04-12T11:24:14Z</time></trkpt><trkpt lat="42.39175407512645" lon="14.133462491976058"><ele>30.0</ele><time>2026-04-12T11:24:15Z</time></trkpt><trkpt lat="42.39190076426601" lon="14.133592730550522"><ele>30.0</ele><time>2026-04-12T11:24:16Z</time></trkpt><trkpt lat="42.39203480415569" lon="14.133715376911125"><ele>30.0</ele><time>2026-04-12T11:24:17Z</time></trkpt><trkpt lat="42.39217312333015" lon="14.133838016157927"><ele>29.666666666666664</ele><time>2026-04-12T11:24:18Z</time></trkpt><trkpt lat="42.392315225046794" lon="14.133962973580942"><ele>29.333333333333332</ele><time>2026-04-12T11:24:19Z</time></trkpt><trkpt lat="42.392460001371745" lon="14.134088885423683"><ele>29.0</ele><time>2026-04-12T11:24:20Z</time></trkpt><trkpt lat="42.39260469999995" lon="14.1342150127207"><ele>29.0</ele><time>2026-04-12T11:24:21Z</time></trkpt><trkpt lat="42.39274753875708" lon="14.134336688851137"><ele>29.0</ele><time>2026-04-12T11:24:22Z</time></trkpt><trkpt lat="42.39287907730532" lon="14.134476639011352"><ele>29.0</ele><time>2026-04-12T11:24:23Z</time></trkpt><trkpt lat="42.39301580251478" lon="14.134599344343073"><ele>29.25</ele><time>2026-04-12T11:24:24Z</time></trkpt><trkpt lat="42.39313491326049" lon="14.134691339432022"><ele>29.5</ele><time>2026-04-12T11:24:25Z</time></trkpt><trkpt lat="42.393254103398085" lon="14.13480952273093"><ele>29.75</ele><time>2026-04-12T11:24:26Z</time></trkpt><trkpt lat="42.393387468665715" lon="14.134926222733926"><ele>30.0</ele><time>2026-04-12T11:24:27Z</time></trkpt><trkpt lat="42.39353353185417" lon="14.135028300443695"><ele>30.0</ele><time>2026-04-12T11:24:28Z</time></trkpt><trkpt lat="42.39366521713762" lon="14.135148548585006"><ele>30.0</ele><time>2026-04-12T11:24:29Z</time></trkpt><trkpt lat="42.39379836662329" lon="14.135270346916426"><ele>30.0</ele><time>2026-04-12T11:24:30Z</time></trkpt><trkpt lat="42.393933137234235" lon="14.135392710126153"><ele>30.0</ele><time>2026-04-12T11:24:31Z</time></trkpt><trkpt lat="42.39406898809378" lon="14.13551522995028"><ele>30.0</ele><time>2026-04-12T11:24:32Z</time></trkpt><trkpt lat="42.3942046069118" lon="14.135639117402544"><ele>30.0</ele><time>2026-04-12T11:24:33Z</time></trkpt><trkpt lat="42.3943282390271" lon="14.135748742661486"><ele>29.75</ele><time>2026-04-12T11:24:34Z</time></trkpt><trkpt lat="42.39444916038463" lon="14.135858486024345"><ele>29.5</ele><time>2026-04-12T11:24:35Z</time></trkpt><trkpt lat="42.39456977727386" lon="14.135969736653403"><ele>29.25</ele><time>2026-04-12T11:24:36Z</time></trkpt><trkpt lat="42.39469041989077" lon="14.136081044623419"><ele>29.0</ele><time>2026-04-12T11:24:37Z</time></trkpt><trkpt lat="42.394812768312434" lon="14.136191046537178"><ele>29.0</ele><time>2026-04-12T11:24:37.999Z</time></trkpt><trkpt lat="42.39493600538703" lon="14.136301482751334"><ele>29.0</ele><time>2026-04-12T11:24:38.999Z</time></trkpt><trkpt lat="42.39505244245812" lon="14.136404035508933"><ele>29.0</ele><time>2026-04-12T11:24:39.999Z</time></trkpt><trkpt lat="42.39515790527556" lon="14.136496492266103"><ele>29.0</ele><time>2026-04-12T11:24:40.999Z</time></trkpt><trkpt lat="42.39525680460746" lon="14.136589188364676"><ele>28.499999999999996</ele><time>2026-04-12T11:24:41.999Z</time></trkpt><trkpt lat="42.395343478441504" lon="14.136682138945298"><ele>28.0</ele><time>2026-04-12T11:24:42.999Z</time></trkpt><trkpt lat="42.39540410602683" lon="14.136777179532514"><ele>27.5</ele><time>2026-04-12T11:24:43.999Z</time></trkpt><trkpt lat="42.39544149864723" lon="14.13687474878468"><ele>27.0</ele><time>2026-04-12T11:24:44.999Z</time></trkpt><trkpt lat="42.39546808885513" lon="14.13695435290258"><ele>26.499999999999996</ele><time>2026-04-12T11:24:45.999Z</time></trkpt><trkpt lat="42.39551070504865" lon="14.137053888973274"><ele>26.0</ele><time>2026-04-12T11:24:47.999Z</time></trkpt><trkpt lat="42.395583969998924" lon="14.136981721566949"><ele>26.0</ele><time>2026-04-12T11:24:48.999Z</time></trkpt><trkpt lat="42.39555451800485" lon="14.137077833336875"><ele>26.0</ele><time>2026-04-12T11:24:50.999Z</time></trkpt><trkpt lat="42.39561921740234" lon="14.13713278175877"><ele>26.0</ele><time>2026-04-12T11:24:54.999Z</time></trkpt><trkpt lat="42.3957994767968" lon="14.137204699115367"><ele>26.0</ele><time>2026-04-12T11:28:04Z</time></trkpt><trkpt lat="42.395878922635646" lon="14.137201465893256"><ele>26.0</ele><time>2026-04-12T11:28:05Z</time></trkpt><trkpt lat="42.395946139456456" lon="14.137214567824307"><ele>26.0</ele><time>2026-04-12T11:28:06Z</time></trkpt><trkpt lat="42.39602028290347" lon="14.137257687035234"><ele>26.0</ele><time>2026-04-12T11:28:07Z</time></trkpt><trkpt lat="42.39611273209979" lon="14.137336491446648"><ele>26.0</ele><time>2026-04-12T11:28:08Z</time></trkpt><trkpt lat="42.39620584749076" lon="14.137441382182448"><ele>26.0</ele><time>2026-04-12T11:28:09Z</time></trkpt><trkpt lat="42.39630136150604" lon="14.137533115772781"><ele>26.0</ele><time>2026-04-12T11:28:10Z</time></trkpt><trkpt lat="42.396411153067305" lon="14.137626424170005"><ele>26.25</ele><time>2026-04-12T11:28:11Z</time></trkpt><trkpt lat="42.396527960728456" lon="14.137728742121418"><ele>26.5</ele><time>2026-04-12T11:28:12Z</time></trkpt><trkpt lat="42.39664729002641" lon="14.137837532999876"><ele>26.75</ele><time>2026-04-12T11:28:13Z</time></trkpt><trkpt lat="42.396766920401376" lon="14.137947229438705"><ele>27.0</ele><time>2026-04-12T11:28:14Z</time></trkpt><trkpt lat="42.39689027543477" lon="14.13805347790521"><ele>27.0</ele><time>2026-04-12T11:28:15Z</time></trkpt><trkpt lat="42.397018537601745" lon="14.138161844869275"><ele>27.0</ele><time>2026-04-12T11:28:16Z</time></trkpt><trkpt lat="42.39715390848215" lon="14.138280219079443"><ele>27.0</ele><time>2026-04-12T11:28:17Z</time></trkpt><trkpt lat="42.39727878485312" lon="14.138383859854702"><ele>26.75</ele><time>2026-04-12T11:28:18Z</time></trkpt><trkpt lat="42.39738609114526" lon="14.138479445192663"><ele>26.5</ele><time>2026-04-12T11:28:19Z</time></trkpt><trkpt lat="42.39749039803179" lon="14.138581424418476"><ele>26.25</ele><time>2026-04-12T11:28:20Z</time></trkpt><trkpt lat="42.39760160211496" lon="14.138692947122156"><ele>26.0</ele><time>2026-04-12T11:28:21Z</time></trkpt><trkpt lat="42.39772653824119" lon="14.138807898290006"><ele>26.0</ele><time>2026-04-12T11:28:22Z</time></trkpt><trkpt lat="42.397859500680426" lon="14.138921644325494"><ele>26.0</ele><time>2026-04-12T11:28:23Z</time></trkpt><trkpt lat="42.3979933032468" lon="14.139036901269238"><ele>26.0</ele><time>2026-04-12T11:28:24Z</time></trkpt><trkpt lat="42.39812985853658" lon="14.139159549090019"><ele>26.0</ele><time>2026-04-12T11:28:25Z</time></trkpt><trkpt lat="42.39826506695326" lon="14.139282144943264"><ele>26.0</ele><time>2026-04-12T11:28:26Z</time></trkpt><trkpt lat="42.39839918214098" lon="14.139402751835835"><ele>26.0</ele><time>2026-04-12T11:28:27Z</time></trkpt><trkpt lat="42.3985349308813" lon="14.139524291503012"><ele>26.0</ele><time>2026-04-12T11:28:28Z</time></trkpt><trkpt lat="42.39867094593573" lon="14.139651132687453"><ele>26.0</ele><time>2026-04-12T11:28:29Z</time></trkpt><trkpt lat="42.39880850406242" lon="14.13977807065159"><ele>26.0</ele><time>2026-04-12T11:28:30Z</time></trkpt><trkpt lat="42.39894563357728" lon="14.139904036461871"><ele>25.666666666666664</ele><time>2026-04-12T11:28:31Z</time></trkpt><trkpt lat="42.399089092749456" lon="14.14002829250562"><ele>25.333333333333336</ele><time>2026-04-12T11:28:32Z</time></trkpt><trkpt lat="42.39923157753047" lon="14.140153007148715"><ele>25.0</ele><time>2026-04-12T11:28:33Z</time></trkpt><trkpt lat="42.399373748638695" lon="14.14027863772172"><ele>25.0</ele><time>2026-04-12T11:28:34Z</time></trkpt><trkpt lat="42.399517648601865" lon="14.140405630292502"><ele>25.0</ele><time>2026-04-12T11:28:35Z</time></trkpt><trkpt lat="42.39966061488201" lon="14.140534578876485"><ele>25.0</ele><time>2026-04-12T11:28:36Z</time></trkpt><trkpt lat="42.3998033479967" lon="14.140666030378028"><ele>25.333333333333336</ele><time>2026-04-12T11:28:37Z</time></trkpt><trkpt lat="42.3999486340697" lon="14.140792735157133"><ele>25.666666666666664</ele><time>2026-04-12T11:28:38Z</time></trkpt><trkpt lat="42.40009341781446" lon="14.14091813178206"><ele>26.0</ele><time>2026-04-12T11:28:39Z</time></trkpt><trkpt lat="42.40023848362653" lon="14.141045517908509"><ele>26.0</ele><time>2026-04-12T11:28:40Z</time></trkpt><trkpt lat="42.40038189467074" lon="14.141173554800698"><ele>26.0</ele><time>2026-04-12T11:28:41Z</time></trkpt><trkpt lat="42.400526122154375" lon="14.141304040002124"><ele>26.0</ele><time>2026-04-12T11:28:42Z</time></trkpt><trkpt lat="42.40067309223343" lon="14.141432967004981"><ele>25.666666666666664</ele><time>2026-04-12T11:28:42.999Z</time></trkpt><trkpt lat="42.40082072856404" lon="14.141562802167536"><ele>25.333333333333336</ele><time>2026-04-12T11:28:43.999Z</time></trkpt><trkpt lat="42.40096721606617" lon="14.141694931916948"><ele>25.0</ele><time>2026-04-12T11:28:44.999Z</time></trkpt><trkpt lat="42.401115228363565" lon="14.1418284120642"><ele>25.0</ele><time>2026-04-12T11:28:45.999Z</time></trkpt><trkpt lat="42.4012643768235" lon="14.14196184969307"><ele>25.0</ele><time>2026-04-12T11:28:46.999Z</time></trkpt><trkpt lat="42.40141318428127" lon="14.14209382802667"><ele>25.0</ele><time>2026-04-12T11:28:47.999Z</time></trkpt><trkpt lat="42.401563261241705" lon="14.142226844248786"><ele>25.0</ele><time>2026-04-12T11:28:48.999Z</time></trkpt><trkpt lat="42.401712277263535" lon="14.142360782053208"><ele>25.0</ele><time>2026-04-12T11:28:49.999Z</time></trkpt><trkpt lat="42.401860131145924" lon="14.142495133208504"><ele>25.0</ele><time>2026-04-12T11:28:50.999Z</time></trkpt><trkpt lat="42.40200877715484" lon="14.142630740070823"><ele>24.666666666666668</ele><time>2026-04-12T11:28:51.999Z</time></trkpt><trkpt lat="42.40215612873706" lon="14.142760646059516"><ele>24.333333333333336</ele><time>2026-04-12T11:28:52.999Z</time></trkpt><trkpt lat="42.40230330995124" lon="14.142889809489532"><ele>24.0</ele><time>2026-04-12T11:28:53.999Z</time></trkpt><trkpt lat="42.40244868769309" lon="14.143019210857332"><ele>24.0</ele><time>2026-04-12T11:28:54.999Z</time></trkpt><trkpt lat="42.40259386593702" lon="14.143145580434588"><ele>24.0</ele><time>2026-04-12T11:28:55.999Z</time></trkpt><trkpt lat="42.402736833010614" lon="14.1432617369345"><ele>24.0</ele><time>2026-04-12T11:28:56.999Z</time></trkpt><trkpt lat="42.40286652441544" lon="14.143371958853292"><ele>24.0</ele><time>2026-04-12T11:28:57.999Z</time></trkpt><trkpt lat="42.4029851866542" lon="14.143473746902268"><ele>24.0</ele><time>2026-04-12T11:28:58.999Z</time></trkpt><trkpt lat="42.403101154187034" lon="14.1435724809247"><ele>24.0</ele><time>2026-04-12T11:28:59.999Z</time></trkpt><trkpt lat="42.4032142885227" lon="14.143671047007782"><ele>24.0</ele><time>2026-04-12T11:29:00.999Z</time></trkpt><trkpt lat="42.40334339522125" lon="14.143779617659774"><ele>24.0</ele><time>2026-04-12T11:29:01.999Z</time></trkpt><trkpt lat="42.4034857397322" lon="14.143895737601579"><ele>24.0</ele><time>2026-04-12T11:29:02.999Z</time></trkpt><trkpt lat="42.403631548826446" lon="14.144023219119578"><ele>24.0</ele><time>2026-04-12T11:29:03.999Z</time></trkpt><trkpt lat="42.403778893574206" lon="14.144159254398334"><ele>24.333333333333336</ele><time>2026-04-12T11:29:04.999Z</time></trkpt><trkpt lat="42.40392570638829" lon="14.144305632527194"><ele>24.666666666666668</ele><time>2026-04-12T11:29:05.999Z</time></trkpt><trkpt lat="42.40407291591414" lon="14.144451685031154"><ele>25.0</ele><time>2026-04-12T11:29:06.999Z</time></trkpt><trkpt lat="42.4042181434625" lon="14.14459174757067"><ele>25.0</ele><time>2026-04-12T11:29:07.999Z</time></trkpt><trkpt lat="42.40436542554639" lon="14.144727368055477"><ele>25.0</ele><time>2026-04-12T11:29:08.999Z</time></trkpt><trkpt lat="42.40451367459985" lon="14.14485966585651"><ele>25.0</ele><time>2026-04-12T11:29:09.999Z</time></trkpt><trkpt lat="42.404662610875235" lon="14.14499056316949"><ele>24.5</ele><time>2026-04-12T11:29:10.999Z</time></trkpt><trkpt lat="42.404795068709646" lon="14.145106659730354"><ele>24.0</ele><time>2026-04-12T11:29:11.999Z</time></trkpt><trkpt lat="42.40490714082168" lon="14.145206990948486"><ele>23.5</ele><time>2026-04-12T11:29:12.999Z</time></trkpt><trkpt lat="42.40500922326887" lon="14.145301114157613"><ele>23.0</ele><time>2026-04-12T11:29:13.999Z</time></trkpt><trkpt lat="42.40510057919487" lon="14.14538499641936"><ele>23.0</ele><time>2026-04-12T11:29:14.999Z</time></trkpt><trkpt lat="42.405187081704725" lon="14.145463301261946"><ele>23.0</ele><time>2026-04-12T11:29:15.999Z</time></trkpt><trkpt lat="42.405262191374824" lon="14.145530406577272"><ele>23.0</ele><time>2026-04-12T11:29:16.999Z</time></trkpt><trkpt lat="42.40532768179364" lon="14.145597796275217"><ele>23.0</ele><time>2026-04-12T11:29:17.999Z</time></trkpt><trkpt lat="42.40538519410955" lon="14.145657794618128"><ele>23.0</ele><time>2026-04-12T11:29:18.999Z</time></trkpt><trkpt lat="42.40545560698948" lon="14.145775182236251"><ele>22.799999999999997</ele><time>2026-04-12T11:29:20.999Z</time></trkpt><trkpt lat="42.405456880399704" lon="14.145881849596854"><ele>22.6</ele><time>2026-04-12T11:29:22.999Z</time></trkpt><trkpt lat="42.40545602856248" lon="14.146008587129398"><ele>22.4</ele><time>2026-04-12T11:29:24.999Z</time></trkpt><trkpt lat="42.40552259000848" lon="14.146116241034747"><ele>22.200000000000003</ele><time>2026-04-12T11:29:26.999Z</time></trkpt><trkpt lat="42.40558898550954" lon="14.146169471244306"><ele>22.0</ele><time>2026-04-12T11:29:28.999Z</time></trkpt><trkpt lat="42.40566357913716" lon="14.146080093134845"><ele>22.0</ele><time>2026-04-12T11:29:29.999Z</time></trkpt><trkpt lat="42.40578598866597" lon="14.146043103811031"><ele>22.0</ele><time>2026-04-12T11:29:31.999Z</time></trkpt><trkpt lat="42.40586102045142" lon="14.146067269819918"><ele>22.0</ele><time>2026-04-12T11:29:32.999Z</time></trkpt><trkpt lat="42.405928410328535" lon="14.14612301664522"><ele>22.0</ele><time>2026-04-12T11:29:33.999Z</time></trkpt><trkpt lat="42.405990031042194" lon="14.14618891044906"><ele>22.0</ele><time>2026-04-12T11:29:34.999Z</time></trkpt><trkpt lat="42.40606319674096" lon="14.146269811419907"><ele>22.0</ele><time>2026-04-12T11:29:35.999Z</time></trkpt><trkpt lat="42.406161671984236" lon="14.146355144655013"><ele>22.0</ele><time>2026-04-12T11:29:36.999Z</time></trkpt><trkpt lat="42.40627702128841" lon="14.146450264690383"><ele>22.0</ele><time>2026-04-12T11:29:37.999Z</time></trkpt><trkpt lat="42.40639062011388" lon="14.14655424880734"><ele>22.0</ele><time>2026-04-12T11:29:38.999Z</time></trkpt><trkpt lat="42.40651190865491" lon="14.146663947342018"><ele>22.0</ele><time>2026-04-12T11:29:39.999Z</time></trkpt><trkpt lat="42.406648428184575" lon="14.14677129756954"><ele>22.0</ele><time>2026-04-12T11:29:40.999Z</time></trkpt><trkpt lat="42.40679218075379" lon="14.146867762718367"><ele>22.0</ele><time>2026-04-12T11:29:41.999Z</time></trkpt><trkpt lat="42.40694212148307" lon="14.146944655054702"><ele>22.0</ele><time>2026-04-12T11:29:42.999Z</time></trkpt><trkpt lat="42.407106933874815" lon="14.147009400776923"><ele>22.0</ele><time>2026-04-12T11:29:43.998Z</time></trkpt><trkpt lat="42.4072845504729" lon="14.14706318272638"><ele>22.0</ele><time>2026-04-12T11:29:44.998Z</time></trkpt><trkpt lat="42.40746520471608" lon="14.147099987245674"><ele>20.666666666666664</ele><time>2026-04-12T11:29:45.998Z</time></trkpt><trkpt lat="42.40764186947223" lon="14.147130364230037"><ele>19.333333333333332</ele><time>2026-04-12T11:29:46.998Z</time></trkpt><trkpt lat="42.40781249426094" lon="14.14715899831025"><ele>18.0</ele><time>2026-04-12T11:29:47.998Z</time></trkpt><trkpt lat="42.40797974176075" lon="14.147192114927655"><ele>17.666666666666668</ele><time>2026-04-12T11:29:48.998Z</time></trkpt><trkpt lat="42.40814405406889" lon="14.147231331441171"><ele>17.333333333333336</ele><time>2026-04-12T11:29:49.998Z</time></trkpt><trkpt lat="42.40830662812834" lon="14.147281312082695"><ele>17.0</ele><time>2026-04-12T11:29:51Z</time></trkpt><trkpt lat="42.4084683635234" lon="14.147348540638394"><ele>17.0</ele><time>2026-04-12T11:29:52Z</time></trkpt><trkpt lat="42.40862514543587" lon="14.147423748352375"><ele>17.0</ele><time>2026-04-12T11:29:53Z</time></trkpt><trkpt lat="42.40878766561563" lon="14.14751408427385"><ele>17.0</ele><time>2026-04-12T11:29:54Z</time></trkpt><trkpt lat="42.408945828079425" lon="14.147646535695351"><ele>17.0</ele><time>2026-04-12T11:29:55Z</time></trkpt><trkpt lat="42.409121025374425" lon="14.147753977248726"><ele>17.0</ele><time>2026-04-12T11:29:56Z</time></trkpt><trkpt lat="42.40928834749872" lon="14.147893170313191"><ele>17.0</ele><time>2026-04-12T11:29:57Z</time></trkpt><trkpt lat="42.409460239516356" lon="14.1480330546399"><ele>17.0</ele><time>2026-04-12T11:29:58Z</time></trkpt><trkpt lat="42.40963836910331" lon="14.148168955023166"><ele>17.0</ele><time>2026-04-12T11:29:59Z</time></trkpt><trkpt lat="42.40981118794947" lon="14.148305517232103"><ele>17.0</ele><time>2026-04-12T11:30:00Z</time></trkpt><trkpt lat="42.40998504928508" lon="14.148448671749044"><ele>17.666666666666668</ele><time>2026-04-12T11:30:01Z</time></trkpt><trkpt lat="42.41015989140389" lon="14.148588207642518"><ele>18.333333333333332</ele><time>2026-04-12T11:30:02Z</time></trkpt><trkpt lat="42.41033361374388" lon="14.14873143681907"><ele>19.0</ele><time>2026-04-12T11:30:03Z</time></trkpt><trkpt lat="42.41050956194405" lon="14.148876853914436"><ele>19.0</ele><time>2026-04-12T11:30:04Z</time></trkpt><trkpt lat="42.41067764561698" lon="14.149017604189257"><ele>19.0</ele><time>2026-04-12T11:30:05Z</time></trkpt><trkpt lat="42.41085188913385" lon="14.149154336881072"><ele>19.0</ele><time>2026-04-12T11:30:06Z</time></trkpt><trkpt lat="42.411030933229604" lon="14.149295478002907"><ele>19.666666666666664</ele><time>2026-04-12T11:30:07Z</time></trkpt><trkpt lat="42.411212488345164" lon="14.149438626785459"><ele>20.333333333333332</ele><time>2026-04-12T11:30:08Z</time></trkpt><trkpt lat="42.411397586595974" lon="14.149582501317898"><ele>21.0</ele><time>2026-04-12T11:30:09Z</time></trkpt><trkpt lat="42.41158434850603" lon="14.149730607613778"><ele>20.0</ele><time>2026-04-12T11:30:10Z</time></trkpt><trkpt lat="42.41177276680046" lon="14.149879613857397"><ele>19.0</ele><time>2026-04-12T11:30:11Z</time></trkpt><trkpt lat="42.411960873897044" lon="14.150029356541678"><ele>18.0</ele><time>2026-04-12T11:30:12Z</time></trkpt><trkpt lat="42.41214820881857" lon="14.15017627075866"><ele>17.0</ele><time>2026-04-12T11:30:13Z</time></trkpt><trkpt lat="42.412335040683246" lon="14.15032177534114"><ele>16.0</ele><time>2026-04-12T11:30:14Z</time></trkpt><trkpt lat="42.41251328734292" lon="14.15046341263442"><ele>15.0</ele><time>2026-04-12T11:30:15Z</time></trkpt><trkpt lat="42.412682955081976" lon="14.150600628103017"><ele>15.0</ele><time>2026-04-12T11:30:16Z</time></trkpt><trkpt lat="42.41283646602088" lon="14.150723490733135"><ele>15.0</ele><time>2026-04-12T11:30:17Z</time></trkpt><trkpt lat="42.41297200097465" lon="14.150847715857209"><ele>15.0</ele><time>2026-04-12T11:30:18Z</time></trkpt><trkpt lat="42.4131023416734" lon="14.150986371350083"><ele>15.0</ele><time>2026-04-12T11:30:19Z</time></trkpt><trkpt lat="42.41323180342262" lon="14.151127819575748"><ele>15.0</ele><time>2026-04-12T11:30:20Z</time></trkpt><trkpt lat="42.413360157094445" lon="14.151266637580031"><ele>15.0</ele><time>2026-04-12T11:30:21Z</time></trkpt><trkpt lat="42.41347958514847" lon="14.151389830549553"><ele>15.0</ele><time>2026-04-12T11:30:22Z</time></trkpt><trkpt lat="42.41360118023733" lon="14.151502027273619"><ele>15.0</ele><time>2026-04-12T11:30:23Z</time></trkpt><trkpt lat="42.41372045217182" lon="14.151598507497122"><ele>15.0</ele><time>2026-04-12T11:30:24Z</time></trkpt><trkpt lat="42.413832998971124" lon="14.151681493919757"><ele>15.0</ele><time>2026-04-12T11:30:25Z</time></trkpt><trkpt lat="42.41394852876509" lon="14.151757558423283"><ele>15.25</ele><time>2026-04-12T11:30:26Z</time></trkpt><trkpt lat="42.414070779666375" lon="14.151824063821616"><ele>15.5</ele><time>2026-04-12T11:30:27Z</time></trkpt><trkpt lat="42.4141863806707" lon="14.151882260382552"><ele>15.75</ele><time>2026-04-12T11:30:28Z</time></trkpt><trkpt lat="42.41430250300233" lon="14.151934674036715"><ele>16.0</ele><time>2026-04-12T11:30:29Z</time></trkpt><trkpt lat="42.41442234247399" lon="14.151980530369952"><ele>16.0</ele><time>2026-04-12T11:30:30Z</time></trkpt><trkpt lat="42.41453205198032" lon="14.152010560386143"><ele>16.0</ele><time>2026-04-12T11:30:31Z</time></trkpt><trkpt lat="42.41464350334521" lon="14.152017048577594"><ele>16.0</ele><time>2026-04-12T11:30:32Z</time></trkpt><trkpt lat="42.41476618587824" lon="14.15204777272351"><ele>16.0</ele><time>2026-04-12T11:30:33Z</time></trkpt><trkpt lat="42.41490867225127" lon="14.152046999410159"><ele>15.666666666666666</ele><time>2026-04-12T11:30:34Z</time></trkpt><trkpt lat="42.41506956175949" lon="14.15207305312623"><ele>15.333333333333332</ele><time>2026-04-12T11:30:35Z</time></trkpt><trkpt lat="42.41524366379354" lon="14.152087608302036"><ele>15.0</ele><time>2026-04-12T11:30:36Z</time></trkpt><trkpt lat="42.41541687703912" lon="14.152099409599847"><ele>15.333333333333332</ele><time>2026-04-12T11:30:37Z</time></trkpt><trkpt lat="42.415602492701055" lon="14.152113203150403"><ele>15.666666666666666</ele><time>2026-04-12T11:30:38Z</time></trkpt><trkpt lat="42.41579356821462" lon="14.152143179423463"><ele>16.0</ele><time>2026-04-12T11:30:39Z</time></trkpt><trkpt lat="42.41598260839081" lon="14.152199250642676"><ele>16.0</ele><time>2026-04-12T11:30:40Z</time></trkpt><trkpt lat="42.41616367280297" lon="14.152289931631383"><ele>16.0</ele><time>2026-04-12T11:30:41Z</time></trkpt><trkpt lat="42.4163299817303" lon="14.152416313434353"><ele>16.0</ele><time>2026-04-12T11:30:42Z</time></trkpt><trkpt lat="42.41647125080994" lon="14.152579015593991"><ele>17.333333333333332</ele><time>2026-04-12T11:30:43Z</time></trkpt><trkpt lat="42.41659717797773" lon="14.152761854317362"><ele>18.666666666666668</ele><time>2026-04-12T11:30:44Z</time></trkpt><trkpt lat="42.41672734267133" lon="14.152941869863886"><ele>20.0</ele><time>2026-04-12T11:30:45Z</time></trkpt><trkpt lat="42.41685904120487" lon="14.15312334918922"><ele>19.666666666666668</ele><time>2026-04-12T11:30:46Z</time></trkpt><trkpt lat="42.4169900549064" lon="14.153303831827097"><ele>19.333333333333332</ele><time>2026-04-12T11:30:47Z</time></trkpt><trkpt lat="42.41711755134583" lon="14.15347780947402"><ele>19.0</ele><time>2026-04-12T11:30:48Z</time></trkpt><trkpt lat="42.4172261310495" lon="14.153632228192501"><ele>19.0</ele><time>2026-04-12T11:30:48.999Z</time></trkpt><trkpt lat="42.41732604208429" lon="14.153771122790896"><ele>19.0</ele><time>2026-04-12T11:30:49.999Z</time></trkpt><trkpt lat="42.41742373014433" lon="14.153899618679214"><ele>19.0</ele><time>2026-04-12T11:30:50.999Z</time></trkpt><trkpt lat="42.41751102665833" lon="14.154020196958875"><ele>19.0</ele><time>2026-04-12T11:30:51.999Z</time></trkpt><trkpt lat="42.41758799636549" lon="14.15412414167297"><ele>19.0</ele><time>2026-04-12T11:30:52.999Z</time></trkpt><trkpt lat="42.41766304253175" lon="14.154219283377778"><ele>19.0</ele><time>2026-04-12T11:30:53.999Z</time></trkpt><trkpt lat="42.417732595452186" lon="14.154312646909037"><ele>19.0</ele><time>2026-04-12T11:30:54.999Z</time></trkpt><trkpt lat="42.41781196529633" lon="14.154421426726694"><ele>19.0</ele><time>2026-04-12T11:30:55.999Z</time></trkpt><trkpt lat="42.41791141710703" lon="14.154550011349176"><ele>19.0</ele><time>2026-04-12T11:30:56.999Z</time></trkpt><trkpt lat="42.41801541737661" lon="14.154679919441435"><ele>19.0</ele><time>2026-04-12T11:30:57.999Z</time></trkpt><trkpt lat="42.418130145337535" lon="14.154827014698267"><ele>19.0</ele><time>2026-04-12T11:30:58.999Z</time></trkpt><trkpt lat="42.418231155100486" lon="14.155017281883131"><ele>18.333333333333332</ele><time>2026-04-12T11:30:59.999Z</time></trkpt><trkpt lat="42.41835466856166" lon="14.155187016468824"><ele>17.666666666666668</ele><time>2026-04-12T11:31:00.999Z</time></trkpt><trkpt lat="42.41847822300967" lon="14.155356807303598"><ele>17.0</ele><time>2026-04-12T11:31:01.999Z</time></trkpt><trkpt lat="42.418618727300434" lon="14.15553376367112"><ele>17.333333333333336</ele><time>2026-04-12T11:31:02.999Z</time></trkpt><trkpt lat="42.4187532347306" lon="14.155725750224242"><ele>17.666666666666668</ele><time>2026-04-12T11:31:03.999Z</time></trkpt><trkpt lat="42.418890348923775" lon="14.15591757488172"><ele>18.0</ele><time>2026-04-12T11:31:04.999Z</time></trkpt><trkpt lat="42.41902773454689" lon="14.156104823609505"><ele>19.666666666666668</ele><time>2026-04-12T11:31:05.999Z</time></trkpt><trkpt lat="42.41917108554388" lon="14.156273315824164"><ele>21.333333333333336</ele><time>2026-04-12T11:31:06.999Z</time></trkpt><trkpt lat="42.4193308966298" lon="14.156401411931611"><ele>23.0</ele><time>2026-04-12T11:31:07.999Z</time></trkpt><trkpt lat="42.4195118115695" lon="14.156495570225175"><ele>22.0</ele><time>2026-04-12T11:31:08.999Z</time></trkpt><trkpt lat="42.41970189144256" lon="14.156567336977004"><ele>21.0</ele><time>2026-04-12T11:31:09.999Z</time></trkpt><trkpt lat="42.41989348712147" lon="14.156641851035788"><ele>20.0</ele><time>2026-04-12T11:31:10.999Z</time></trkpt><trkpt lat="42.42008345551918" lon="14.156717382198792"><ele>20.0</ele><time>2026-04-12T11:31:11.999Z</time></trkpt><trkpt lat="42.42027329984681" lon="14.156796423731373"><ele>20.0</ele><time>2026-04-12T11:31:12.999Z</time></trkpt><trkpt lat="42.42046312292657" lon="14.15687525372099"><ele>20.0</ele><time>2026-04-12T11:31:13.999Z</time></trkpt><trkpt lat="42.420655090191936" lon="14.156957010795669"><ele>20.333333333333336</ele><time>2026-04-12T11:31:14.999Z</time></trkpt><trkpt lat="42.42084642015061" lon="14.157039320541319"><ele>20.666666666666668</ele><time>2026-04-12T11:31:15.999Z</time></trkpt><trkpt lat="42.421037434558755" lon="14.157119909892684"><ele>21.0</ele><time>2026-04-12T11:31:16.999Z</time></trkpt><trkpt lat="42.42122266220739" lon="14.157198103086952"><ele>21.666666666666668</ele><time>2026-04-12T11:31:17.999Z</time></trkpt><trkpt lat="42.42138903965174" lon="14.157267254938068"><ele>22.333333333333336</ele><time>2026-04-12T11:31:18.999Z</time></trkpt><trkpt lat="42.42154225862982" lon="14.15733176900184"><ele>23.0</ele><time>2026-04-12T11:31:19.999Z</time></trkpt><trkpt lat="42.42168314798614" lon="14.15739098977712"><ele>22.25</ele><time>2026-04-12T11:31:20.999Z</time></trkpt><trkpt lat="42.421818684764595" lon="14.157433157816074"><ele>21.5</ele><time>2026-04-12T11:31:21.999Z</time></trkpt><trkpt lat="42.42194838832856" lon="14.157448256315206"><ele>20.75</ele><time>2026-04-12T11:31:22.999Z</time></trkpt><trkpt lat="42.42207591887167" lon="14.157435313304267"><ele>20.0</ele><time>2026-04-12T11:31:23.999Z</time></trkpt><trkpt lat="42.422197946267225" lon="14.157437894153656"><ele>20.0</ele><time>2026-04-12T11:31:24.999Z</time></trkpt><trkpt lat="42.42230613052924" lon="14.157481044078065"><ele>20.0</ele><time>2026-04-12T11:31:25.999Z</time></trkpt><trkpt lat="42.422391815753656" lon="14.15752155418667"><ele>20.0</ele><time>2026-04-12T11:31:26.999Z</time></trkpt><trkpt lat="42.422470013556996" lon="14.157519539667893"><ele>20.0</ele><time>2026-04-12T11:31:27.999Z</time></trkpt><trkpt lat="42.4225410899678" lon="14.15747164676337"><ele>20.0</ele><time>2026-04-12T11:31:28.999Z</time></trkpt><trkpt lat="42.42259513550381" lon="14.157366449257704"><ele>21.0</ele><time>2026-04-12T11:31:29.999Z</time></trkpt><trkpt lat="42.42263421213576" lon="14.15721485703051"><ele>22.0</ele><time>2026-04-12T11:31:30.999Z</time></trkpt><trkpt lat="42.422689032358434" lon="14.157064805134423"><ele>23.0</ele><time>2026-04-12T11:31:31.999Z</time></trkpt><trkpt lat="42.422783541873805" lon="14.156941236728166"><ele>24.0</ele><time>2026-04-12T11:31:32.999Z</time></trkpt><trkpt lat="42.42289089502966" lon="14.156827611323468"><ele>23.4</ele><time>2026-04-12T11:31:33.999Z</time></trkpt><trkpt lat="42.42298394299499" lon="14.156748006528925"><ele>22.799999999999997</ele><time>2026-04-12T11:31:34.999Z</time></trkpt><trkpt lat="42.42308280121118" lon="14.15669489753108"><ele>22.200000000000003</ele><time>2026-04-12T11:31:35.999Z</time></trkpt><trkpt lat="42.42317865419029" lon="14.15663574060924"><ele>21.6</ele><time>2026-04-12T11:31:36.999Z</time></trkpt><trkpt lat="42.423234149125356" lon="14.156570517177572"><ele>21.0</ele><time>2026-04-12T11:31:37.999Z</time></trkpt><trkpt lat="42.423246496535064" lon="14.156429244147033"><ele>21.6</ele><time>2026-04-12T11:31:39.999Z</time></trkpt><trkpt lat="42.42320347053385" lon="14.156314981026414"><ele>22.200000000000003</ele><time>2026-04-12T11:31:41.999Z</time></trkpt><trkpt lat="42.42313333591461" lon="14.156306169197784"><ele>22.799999999999997</ele><time>2026-04-12T11:31:42.999Z</time></trkpt><trkpt lat="42.42302703069023" lon="14.156412240358552"><ele>23.4</ele><time>2026-04-12T11:31:44.999Z</time></trkpt><trkpt lat="42.42298224142334" lon="14.156518252008723"><ele>24.0</ele><time>2026-04-12T11:31:45.999Z</time></trkpt><trkpt lat="42.422928851761384" lon="14.156666853702037"><ele>24.0</ele><time>2026-04-12T11:31:46.999Z</time></trkpt><trkpt lat="42.42283967693431" lon="14.156811468663783"><ele>24.0</ele><time>2026-04-12T11:31:47.999Z</time></trkpt><trkpt lat="42.42272231503683" lon="14.156948264669307"><ele>24.0</ele><time>2026-04-12T11:31:48.999Z</time></trkpt><trkpt lat="42.42261145957493" lon="14.157050230961142"><ele>24.0</ele><time>2026-04-12T11:31:49.998Z</time></trkpt><trkpt lat="42.422507566804235" lon="14.157116053077347"><ele>24.0</ele><time>2026-04-12T11:31:50.998Z</time></trkpt><trkpt lat="42.422385947770245" lon="14.157117737698577"><ele>24.0</ele><time>2026-04-12T11:31:51.998Z</time></trkpt><trkpt lat="42.42230722550793" lon="14.157196994390658"><ele>24.0</ele><time>2026-04-12T11:31:52.998Z</time></trkpt><trkpt lat="42.42226487391202" lon="14.157271491101156"><ele>24.0</ele><time>2026-04-12T11:31:53.998Z</time></trkpt><trkpt lat="42.422259743850326" lon="14.157372249112985"><ele>24.0</ele><time>2026-04-12T11:31:54.998Z</time></trkpt><trkpt lat="42.42229283463943" lon="14.1574923082746"><ele>23.2</ele><time>2026-04-12T11:31:55.998Z</time></trkpt><trkpt lat="42.42237066156878" lon="14.157551161479786"><ele>22.4</ele><time>2026-04-12T11:31:57Z</time></trkpt><trkpt lat="42.42246497706909" lon="14.157593696774823"><ele>21.6</ele><time>2026-04-12T11:31:58Z</time></trkpt><trkpt lat="42.422564558732354" lon="14.157580878711892"><ele>20.8</ele><time>2026-04-12T11:31:59Z</time></trkpt><trkpt lat="42.42266124481238" lon="14.157661414183828"><ele>20.0</ele><time>2026-04-12T11:32:00Z</time></trkpt><trkpt lat="42.4227418230925" lon="14.15774535032961"><ele>20.0</ele><time>2026-04-12T11:32:01Z</time></trkpt><trkpt lat="42.42282369228281" lon="14.157824853561642"><ele>20.0</ele><time>2026-04-12T11:32:02Z</time></trkpt><trkpt lat="42.4229181481943" lon="14.157879578353253"><ele>20.0</ele><time>2026-04-12T11:32:03Z</time></trkpt><trkpt lat="42.423025188171906" lon="14.157914488611786"><ele>20.0</ele><time>2026-04-12T11:32:04Z</time></trkpt><trkpt lat="42.4231381641006" lon="14.157954074828508"><ele>20.0</ele><time>2026-04-12T11:32:05Z</time></trkpt><trkpt lat="42.42325736523725" lon="14.158006471043679"><ele>19.5</ele><time>2026-04-12T11:32:06Z</time></trkpt><trkpt lat="42.42337550211958" lon="14.15806200526912"><ele>19.0</ele><time>2026-04-12T11:32:07Z</time></trkpt><trkpt lat="42.42349128643773" lon="14.158108211520643"><ele>18.5</ele><time>2026-04-12T11:32:08Z</time></trkpt><trkpt lat="42.42360807761019" lon="14.158154452898033"><ele>18.0</ele><time>2026-04-12T11:32:09Z</time></trkpt><trkpt lat="42.42373543403545" lon="14.158206585405301"><ele>17.75</ele><time>2026-04-12T11:32:10Z</time></trkpt><trkpt lat="42.423866645134105" lon="14.15826056016807"><ele>17.5</ele><time>2026-04-12T11:32:11Z</time></trkpt><trkpt lat="42.42399447474689" lon="14.15831132536984"><ele>17.25</ele><time>2026-04-12T11:32:12Z</time></trkpt><trkpt lat="42.424120783228524" lon="14.158367844431586"><ele>17.0</ele><time>2026-04-12T11:32:13Z</time></trkpt><trkpt lat="42.42424493939009" lon="14.158424035308313"><ele>17.0</ele><time>2026-04-12T11:32:14Z</time></trkpt><trkpt lat="42.42437075774622" lon="14.158479460029081"><ele>17.0</ele><time>2026-04-12T11:32:15Z</time></trkpt><trkpt lat="42.42449913023834" lon="14.158531276431676"><ele>17.0</ele><time>2026-04-12T11:32:16Z</time></trkpt><trkpt lat="42.42462738919764" lon="14.158588588398775"><ele>17.0</ele><time>2026-04-12T11:32:17Z</time></trkpt><trkpt lat="42.4247562864672" lon="14.158650927624898"><ele>17.25</ele><time>2026-04-12T11:32:18Z</time></trkpt><trkpt lat="42.424886176436566" lon="14.158709929023896"><ele>17.5</ele><time>2026-04-12T11:32:19Z</time></trkpt><trkpt lat="42.42501586230182" lon="14.158767276018413"><ele>17.75</ele><time>2026-04-12T11:32:20Z</time></trkpt><trkpt lat="42.425147162483206" lon="14.158827646277716"><ele>18.0</ele><time>2026-04-12T11:32:21Z</time></trkpt><trkpt lat="42.42527795463117" lon="14.15888792425178"><ele>18.0</ele><time>2026-04-12T11:32:22Z</time></trkpt><trkpt lat="42.42540616635642" lon="14.158949803624553"><ele>18.0</ele><time>2026-04-12T11:32:23Z</time></trkpt><trkpt lat="42.425534793250854" lon="14.159008494023709"><ele>18.0</ele><time>2026-04-12T11:32:24Z</time></trkpt><trkpt lat="42.42566032570995" lon="14.159067683956744"><ele>18.0</ele><time>2026-04-12T11:32:25Z</time></trkpt><trkpt lat="42.42578536171306" lon="14.159130105599896"><ele>18.25</ele><time>2026-04-12T11:32:26Z</time></trkpt><trkpt lat="42.42590745246037" lon="14.159196470217006"><ele>18.5</ele><time>2026-04-12T11:32:27Z</time></trkpt><trkpt lat="42.42602993254243" lon="14.15926855168096"><ele>18.75</ele><time>2026-04-12T11:32:28Z</time></trkpt><trkpt lat="42.42614988468688" lon="14.159347165332504"><ele>19.0</ele><time>2026-04-12T11:32:29Z</time></trkpt><trkpt lat="42.4262721834532" lon="14.159425494953236"><ele>19.25</ele><time>2026-04-12T11:32:30Z</time></trkpt><trkpt lat="42.42639612462779" lon="14.15950875942226"><ele>19.5</ele><time>2026-04-12T11:32:31Z</time></trkpt><trkpt lat="42.426518978972595" lon="14.159594591485593"><ele>19.75</ele><time>2026-04-12T11:32:32Z</time></trkpt><trkpt lat="42.42664283291471" lon="14.159682171719085"><ele>20.0</ele><time>2026-04-12T11:32:33Z</time></trkpt><trkpt lat="42.42676299235963" lon="14.159773382168694"><ele>20.0</ele><time>2026-04-12T11:32:34Z</time></trkpt><trkpt lat="42.42688480174453" lon="14.159865731015138"><ele>20.0</ele><time>2026-04-12T11:32:35Z</time></trkpt><trkpt lat="42.427005344981936" lon="14.159961960177528"><ele>20.0</ele><time>2026-04-12T11:32:36Z</time></trkpt><trkpt lat="42.42712603505206" lon="14.16006028111804"><ele>20.0</ele><time>2026-04-12T11:32:37Z</time></trkpt><trkpt lat="42.42724763074519" lon="14.16016026021496"><ele>19.5</ele><time>2026-04-12T11:32:38Z</time></trkpt><trkpt lat="42.427372474583045" lon="14.160265001250488"><ele>19.0</ele><time>2026-04-12T11:32:39Z</time></trkpt><trkpt lat="42.42749667166628" lon="14.160371895973954"><ele>18.5</ele><time>2026-04-12T11:32:40Z</time></trkpt><trkpt lat="42.42762195556124" lon="14.16048457824592"><ele>18.0</ele><time>2026-04-12T11:32:41Z</time></trkpt><trkpt lat="42.427746896333154" lon="14.16060037912772"><ele>18.0</ele><time>2026-04-12T11:32:42Z</time></trkpt><trkpt lat="42.42787266729612" lon="14.16072063266491"><ele>18.0</ele><time>2026-04-12T11:32:43Z</time></trkpt><trkpt lat="42.427996633995015" lon="14.160839865350562"><ele>18.0</ele><time>2026-04-12T11:32:44Z</time></trkpt><trkpt lat="42.4281234490233" lon="14.16096973796868"><ele>17.666666666666668</ele><time>2026-04-12T11:32:45Z</time></trkpt><trkpt lat="42.428257670358406" lon="14.161103965179665"><ele>17.333333333333336</ele><time>2026-04-12T11:32:46Z</time></trkpt><trkpt lat="42.42839440680686" lon="14.161237925783546"><ele>17.0</ele><time>2026-04-12T11:32:47Z</time></trkpt><trkpt lat="42.42853275733675" lon="14.161376452818818"><ele>17.0</ele><time>2026-04-12T11:32:48Z</time></trkpt><trkpt lat="42.42866883615465" lon="14.161515147976141"><ele>17.0</ele><time>2026-04-12T11:32:49Z</time></trkpt><trkpt lat="42.42880144192454" lon="14.161649432963761"><ele>17.0</ele><time>2026-04-12T11:32:50Z</time></trkpt><trkpt lat="42.428924128944736" lon="14.161772444990525"><ele>19.5</ele><time>2026-04-12T11:32:50.999Z</time></trkpt><trkpt lat="42.42903932155797" lon="14.161884716614743"><ele>22.0</ele><time>2026-04-12T11:32:51.999Z</time></trkpt><trkpt lat="42.42914884508065" lon="14.161998199234782"><ele>24.5</ele><time>2026-04-12T11:32:52.999Z</time></trkpt><trkpt lat="42.42925874484075" lon="14.162110226392569"><ele>27.0</ele><time>2026-04-12T11:32:53.999Z</time></trkpt><trkpt lat="42.429367644267955" lon="14.162218502359751"><ele>27.0</ele><time>2026-04-12T11:32:54.999Z</time></trkpt><trkpt lat="42.429467474052885" lon="14.162317596000099"><ele>27.0</ele><time>2026-04-12T11:32:55.999Z</time></trkpt><trkpt lat="42.4295604776708" lon="14.16240928639981"><ele>27.0</ele><time>2026-04-12T11:32:56.999Z</time></trkpt><trkpt lat="42.429663308578434" lon="14.162501787659052"><ele>27.0</ele><time>2026-04-12T11:32:57.999Z</time></trkpt><trkpt lat="42.429778829593566" lon="14.162591339644901"><ele>25.5</ele><time>2026-04-12T11:32:58.999Z</time></trkpt><trkpt lat="42.42990279647512" lon="14.162667790835542"><ele>24.0</ele><time>2026-04-12T11:32:59.999Z</time></trkpt><trkpt lat="42.43002968317293" lon="14.16272419381678"><ele>22.5</ele><time>2026-04-12T11:33:00.999Z</time></trkpt><trkpt lat="42.43014947999607" lon="14.162761739916409"><ele>21.0</ele><time>2026-04-12T11:33:01.999Z</time></trkpt><trkpt lat="42.43025899215716" lon="14.16278242245041"><ele>21.0</ele><time>2026-04-12T11:33:02.999Z</time></trkpt><trkpt lat="42.430360330333805" lon="14.162789268691625"><ele>21.0</ele><time>2026-04-12T11:33:03.999Z</time></trkpt><trkpt lat="42.430440880688785" lon="14.162794170761591"><ele>21.0</ele><time>2026-04-12T11:33:04.999Z</time></trkpt><trkpt lat="42.430508853989664" lon="14.162826217317113"><ele>21.0</ele><time>2026-04-12T11:33:06.999Z</time></trkpt><trkpt lat="42.43046812771948" lon="14.162603975602716"><ele>21.0</ele><time>2026-04-12T11:33:08.999Z</time></trkpt><trkpt lat="42.43037683643453" lon="14.162547266318576"><ele>21.0</ele><time>2026-04-12T11:33:09.999Z</time></trkpt><trkpt lat="42.43033749254394" lon="14.162472539829572"><ele>21.0</ele><time>2026-04-12T11:33:10.999Z</time></trkpt><trkpt lat="42.43033139375187" lon="14.16238474428764"><ele>21.0</ele><time>2026-04-12T11:33:11.999Z</time></trkpt><trkpt lat="42.43036403274512" lon="14.162276843941498"><ele>21.0</ele><time>2026-04-12T11:33:12.999Z</time></trkpt><trkpt lat="42.430424899239384" lon="14.162143267051519"><ele>21.0</ele><time>2026-04-12T11:33:13.999Z</time></trkpt><trkpt lat="42.43048258615936" lon="14.161999999736029"><ele>21.5</ele><time>2026-04-12T11:33:14.999Z</time></trkpt><trkpt lat="42.43054674261308" lon="14.161852075249755"><ele>22.0</ele><time>2026-04-12T11:33:15.999Z</time></trkpt><trkpt lat="42.43060581231665" lon="14.161711744333553"><ele>22.5</ele><time>2026-04-12T11:33:16.999Z</time></trkpt><trkpt lat="42.430667849976906" lon="14.161556007871047"><ele>23.0</ele><time>2026-04-12T11:33:17.999Z</time></trkpt><trkpt lat="42.43073141944292" lon="14.161402136906565"><ele>23.799999999999997</ele><time>2026-04-12T11:33:18.999Z</time></trkpt><trkpt lat="42.43078702598299" lon="14.161268922167404"><ele>24.6</ele><time>2026-04-12T11:33:19.999Z</time></trkpt><trkpt lat="42.4308279676942" lon="14.16116000685985"><ele>25.400000000000002</ele><time>2026-04-12T11:33:20.999Z</time></trkpt><trkpt lat="42.430901856140004" lon="14.161097563598181"><ele>26.200000000000003</ele><time>2026-04-12T11:33:21.999Z</time></trkpt><trkpt lat="42.43094340400944" lon="14.16098036688473"><ele>27.0</ele><time>2026-04-12T11:33:22.999Z</time></trkpt><trkpt lat="42.43097070791468" lon="14.160880652704636"><ele>27.0</ele><time>2026-04-12T11:33:23.999Z</time></trkpt><trkpt lat="42.43101446492616" lon="14.16076321346593"><ele>27.0</ele><time>2026-04-12T11:33:24.999Z</time></trkpt><trkpt lat="42.431056134027486" lon="14.16062041189053"><ele>27.0</ele><time>2026-04-12T11:33:25.999Z</time></trkpt><trkpt lat="42.43111759655193" lon="14.16047996924337"><ele>27.0</ele><time>2026-04-12T11:33:26.999Z</time></trkpt><trkpt lat="42.43117741200403" lon="14.160335478968548"><ele>27.0</ele><time>2026-04-12T11:33:27.999Z</time></trkpt><trkpt lat="42.43123607043433" lon="14.160187750339277"><ele>27.0</ele><time>2026-04-12T11:33:28.999Z</time></trkpt><trkpt lat="42.43130165595464" lon="14.160031320753628"><ele>27.0</ele><time>2026-04-12T11:33:29.999Z</time></trkpt><trkpt lat="42.431370597898876" lon="14.15986284765154"><ele>27.0</ele><time>2026-04-12T11:33:30.999Z</time></trkpt><trkpt lat="42.43146305697757" lon="14.159665825666668"><ele>28.666666666666664</ele><time>2026-04-12T11:33:31.999Z</time></trkpt><trkpt lat="42.431548923771985" lon="14.15945904882269"><ele>30.333333333333332</ele><time>2026-04-12T11:33:32.999Z</time></trkpt><trkpt lat="42.43163572166657" lon="14.159253725670895"><ele>32.0</ele><time>2026-04-12T11:33:33.999Z</time></trkpt><trkpt lat="42.431726835646735" lon="14.159036765522558"><ele>32.33333333333333</ele><time>2026-04-12T11:33:34.999Z</time></trkpt><trkpt lat="42.43180081672045" lon="14.15880550723772"><ele>32.666666666666664</ele><time>2026-04-12T11:33:35.999Z</time></trkpt><trkpt lat="42.43189268441986" lon="14.158578938359048"><ele>33.0</ele><time>2026-04-12T11:33:36.999Z</time></trkpt><trkpt lat="42.43199887195934" lon="14.158366085337663"><ele>33.333333333333336</ele><time>2026-04-12T11:33:37.999Z</time></trkpt><trkpt lat="42.432090583361564" lon="14.158144499672101"><ele>33.66666666666667</ele><time>2026-04-12T11:33:38.999Z</time></trkpt><trkpt lat="42.432183645969616" lon="14.157921572896894"><ele>34.0</ele><time>2026-04-12T11:33:39.999Z</time></trkpt><trkpt lat="42.43227721063757" lon="14.157700619487652"><ele>36.333333333333336</ele><time>2026-04-12T11:33:40.999Z</time></trkpt><trkpt lat="42.43237041799028" lon="14.157485382486787"><ele>38.666666666666664</ele><time>2026-04-12T11:33:41.999Z</time></trkpt><trkpt lat="42.43249610684321" lon="14.157307143183429"><ele>41.0</ele><time>2026-04-12T11:33:42.999Z</time></trkpt><trkpt lat="42.43263677065373" lon="14.157148857490249"><ele>42.33333333333333</ele><time>2026-04-12T11:33:43.999Z</time></trkpt><trkpt lat="42.43278876098779" lon="14.157004990851338"><ele>43.666666666666664</ele><time>2026-04-12T11:33:44.999Z</time></trkpt><trkpt lat="42.432946071734" lon="14.15686807592403"><ele>45.0</ele><time>2026-04-12T11:33:45.999Z</time></trkpt><trkpt lat="42.433108451006134" lon="14.15673663116114"><ele>46.66666666666667</ele><time>2026-04-12T11:33:46.999Z</time></trkpt><trkpt lat="42.43327231025287" lon="14.156602497708674"><ele>48.333333333333336</ele><time>2026-04-12T11:33:47.999Z</time></trkpt><trkpt lat="42.43343847279075" lon="14.156467621348162"><ele>50.0</ele><time>2026-04-12T11:33:48.999Z</time></trkpt><trkpt lat="42.433607999722454" lon="14.156339034944011"><ele>50.66666666666667</ele><time>2026-04-12T11:33:49.999Z</time></trkpt><trkpt lat="42.4337795918313" lon="14.156213885024684"><ele>51.33333333333333</ele><time>2026-04-12T11:33:50.999Z</time></trkpt><trkpt lat="42.433947869929305" lon="14.156090829175975"><ele>52.0</ele><time>2026-04-12T11:33:51.998Z</time></trkpt><trkpt lat="42.434111683604556" lon="14.155966151921524"><ele>52.666666666666664</ele><time>2026-04-12T11:33:52.998Z</time></trkpt><trkpt lat="42.43427528447022" lon="14.155845648729695"><ele>53.33333333333333</ele><time>2026-04-12T11:33:53.998Z</time></trkpt><trkpt lat="42.43443571473656" lon="14.155725921936408"><ele>54.0</ele><time>2026-04-12T11:33:54.998Z</time></trkpt><trkpt lat="42.43459619564656" lon="14.155606149819457"><ele>55.66666666666667</ele><time>2026-04-12T11:33:55.998Z</time></trkpt><trkpt lat="42.434759248843086" lon="14.155487306563126"><ele>57.333333333333336</ele><time>2026-04-12T11:33:56.998Z</time></trkpt><trkpt lat="42.4349221911763" lon="14.155365873505643"><ele>59.0</ele><time>2026-04-12T11:33:57.998Z</time></trkpt><trkpt lat="42.43508671760787" lon="14.155240404355611"><ele>59.0</ele><time>2026-04-12T11:33:58.998Z</time></trkpt><trkpt lat="42.43525105993123" lon="14.155113482313245"><ele>59.0</ele><time>2026-04-12T11:33:59.998Z</time></trkpt><trkpt lat="42.43541577169688" lon="14.154984420086677"><ele>59.0</ele><time>2026-04-12T11:34:00.998Z</time></trkpt><trkpt lat="42.435580536661575" lon="14.154855547465901"><ele>60.333333333333336</ele><time>2026-04-12T11:34:01.998Z</time></trkpt><trkpt lat="42.43574618300946" lon="14.15472982388949"><ele>61.66666666666667</ele><time>2026-04-12T11:34:03Z</time></trkpt><trkpt lat="42.43591310117537" lon="14.15460433279093"><ele>63.0</ele><time>2026-04-12T11:34:04Z</time></trkpt><trkpt lat="42.43607422485699" lon="14.154472522877779"><ele>63.0</ele><time>2026-04-12T11:34:05Z</time></trkpt><trkpt lat="42.43624612552337" lon="14.154344902645963"><ele>63.0</ele><time>2026-04-12T11:34:06Z</time></trkpt><trkpt lat="42.43641199113368" lon="14.154205289181144"><ele>63.0</ele><time>2026-04-12T11:34:07Z</time></trkpt><trkpt lat="42.436578300664145" lon="14.154064195129326"><ele>65.33333333333333</ele><time>2026-04-12T11:34:08Z</time></trkpt><trkpt lat="42.4367440873815" lon="14.153919692007847"><ele>67.66666666666666</ele><time>2026-04-12T11:34:09Z</time></trkpt><trkpt lat="42.4369048105356" lon="14.153758875418735"><ele>70.0</ele><time>2026-04-12T11:34:10Z</time></trkpt><trkpt lat="42.437073614450235" lon="14.153614994505034"><ele>69.66666666666666</ele><time>2026-04-12T11:34:11Z</time></trkpt><trkpt lat="42.43724287328229" lon="14.153474805493108"><ele>69.33333333333333</ele><time>2026-04-12T11:34:12Z</time></trkpt><trkpt lat="42.43741753169077" lon="14.153356249310884"><ele>69.0</ele><time>2026-04-12T11:34:13Z</time></trkpt><trkpt lat="42.43760179342792" lon="14.153271701467204"><ele>69.0</ele><time>2026-04-12T11:34:14Z</time></trkpt><trkpt lat="42.43779353249212" lon="14.15322416203644"><ele>69.0</ele><time>2026-04-12T11:34:15Z</time></trkpt><trkpt lat="42.43799078770034" lon="14.153178820033531"><ele>69.0</ele><time>2026-04-12T11:34:16Z</time></trkpt><trkpt lat="42.438183099617014" lon="14.15310846629814"><ele>67.0</ele><time>2026-04-12T11:34:17Z</time></trkpt><trkpt lat="42.43836366360371" lon="14.153003663056802"><ele>65.0</ele><time>2026-04-12T11:34:18Z</time></trkpt><trkpt lat="42.43853362016577" lon="14.152863874866805"><ele>63.0</ele><time>2026-04-12T11:34:19Z</time></trkpt><trkpt lat="42.438693903497864" lon="14.152700377995911"><ele>65.0</ele><time>2026-04-12T11:34:20Z</time></trkpt><trkpt lat="42.43884356034007" lon="14.152512511046178"><ele>67.0</ele><time>2026-04-12T11:34:21Z</time></trkpt><trkpt lat="42.438984295954576" lon="14.152313025783057"><ele>69.0</ele><time>2026-04-12T11:34:22Z</time></trkpt><trkpt lat="42.439120017763166" lon="14.152106167653072"><ele>70.33333333333333</ele><time>2026-04-12T11:34:23Z</time></trkpt><trkpt lat="42.439256587232514" lon="14.151910315283782"><ele>71.66666666666666</ele><time>2026-04-12T11:34:24Z</time></trkpt><trkpt lat="42.439408092903975" lon="14.151738541547063"><ele>73.0</ele><time>2026-04-12T11:34:25Z</time></trkpt><trkpt lat="42.43957359000311" lon="14.151598618504375"><ele>74.0</ele><time>2026-04-12T11:34:26Z</time></trkpt><trkpt lat="42.439751890290815" lon="14.15148859422576"><ele>75.0</ele><time>2026-04-12T11:34:27Z</time></trkpt><trkpt lat="42.43993830206771" lon="14.151410000285615"><ele>76.0</ele><time>2026-04-12T11:34:28Z</time></trkpt><trkpt lat="42.44012090545952" lon="14.15132100303026"><ele>76.0</ele><time>2026-04-12T11:34:29Z</time></trkpt><trkpt lat="42.440295549115085" lon="14.15121059386356"><ele>76.0</ele><time>2026-04-12T11:34:30Z</time></trkpt><trkpt lat="42.44046667014036" lon="14.151083161670094"><ele>76.0</ele><time>2026-04-12T11:34:31Z</time></trkpt><trkpt lat="42.44063984159029" lon="14.15096127332467"><ele>80.0</ele><time>2026-04-12T11:34:32Z</time></trkpt><trkpt lat="42.440813719976745" lon="14.1508736287859"><ele>84.0</ele><time>2026-04-12T11:34:33Z</time></trkpt><trkpt lat="42.44096829980729" lon="14.150823716123888"><ele>88.0</ele><time>2026-04-12T11:34:34Z</time></trkpt><trkpt lat="42.44112127770751" lon="14.150810852590373"><ele>88.0</ele><time>2026-04-12T11:34:35Z</time></trkpt><trkpt lat="42.44128264103666" lon="14.150863289212964"><ele>88.0</ele><time>2026-04-12T11:34:36Z</time></trkpt><trkpt lat="42.44145627098678" lon="14.150910565837792"><ele>88.0</ele><time>2026-04-12T11:34:37Z</time></trkpt><trkpt lat="42.4416271097345" lon="14.15097582242051"><ele>89.0</ele><time>2026-04-12T11:34:38Z</time></trkpt><trkpt lat="42.4418012693119" lon="14.150991761406226"><ele>90.0</ele><time>2026-04-12T11:34:39Z</time></trkpt><trkpt lat="42.44198447992819" lon="14.150953966566222"><ele>91.0</ele><time>2026-04-12T11:34:40Z</time></trkpt><trkpt lat="42.442144380213705" lon="14.150872395626392"><ele>91.75</ele><time>2026-04-12T11:34:41Z</time></trkpt><trkpt lat="42.44225966956133" lon="14.15077065858422"><ele>92.5</ele><time>2026-04-12T11:34:42Z</time></trkpt><trkpt lat="42.4423332611552" lon="14.15064729926833"><ele>93.25</ele><time>2026-04-12T11:34:43Z</time></trkpt><trkpt lat="42.44238114214469" lon="14.150501698544694"><ele>94.0</ele><time>2026-04-12T11:34:44Z</time></trkpt><trkpt lat="42.44241957541097" lon="14.150347657944007"><ele>94.0</ele><time>2026-04-12T11:34:45Z</time></trkpt><trkpt lat="42.442453512581906" lon="14.150169487255763"><ele>94.0</ele><time>2026-04-12T11:34:46Z</time></trkpt><trkpt lat="42.44247728924668" lon="14.149980028867908"><ele>94.0</ele><time>2026-04-12T11:34:47Z</time></trkpt><trkpt lat="42.44253526520766" lon="14.149793504386668"><ele>94.0</ele><time>2026-04-12T11:34:48Z</time></trkpt><trkpt lat="42.44257944351899" lon="14.14960332198629"><ele>95.0</ele><time>2026-04-12T11:34:49Z</time></trkpt><trkpt lat="42.442633254206285" lon="14.149416180752052"><ele>96.0</ele><time>2026-04-12T11:34:50Z</time></trkpt><trkpt lat="42.4426800478943" lon="14.149224122370285"><ele>97.0</ele><time>2026-04-12T11:34:51Z</time></trkpt><trkpt lat="42.44275166856263" lon="14.149043191559024"><ele>98.0</ele><time>2026-04-12T11:34:52Z</time></trkpt><trkpt lat="42.44283019230515" lon="14.148867014728113"><ele>100.0</ele><time>2026-04-12T11:34:53Z</time></trkpt><trkpt lat="42.442917076302486" lon="14.14869967566574"><ele>102.0</ele><time>2026-04-12T11:34:54Z</time></trkpt><trkpt lat="42.44301076317287" lon="14.148541478062912"><ele>104.0</ele><time>2026-04-12T11:34:55Z</time></trkpt><trkpt lat="42.443110436749315" lon="14.148390220753146"><ele>104.0</ele><time>2026-04-12T11:34:55.999Z</time></trkpt><trkpt lat="42.44321607222316" lon="14.148244478021445"><ele>104.0</ele><time>2026-04-12T11:34:56.999Z</time></trkpt><trkpt lat="42.443324341865505" lon="14.148096487154005"><ele>104.0</ele><time>2026-04-12T11:34:57.999Z</time></trkpt><trkpt lat="42.44343200710485" lon="14.147945791899753"><ele>109.0</ele><time>2026-04-12T11:34:58.999Z</time></trkpt><trkpt lat="42.44354284050344" lon="14.147798218043047"><ele>114.0</ele><time>2026-04-12T11:34:59.999Z</time></trkpt><trkpt lat="42.44366054999819" lon="14.147664917664061"><ele>119.0</ele><time>2026-04-12T11:35:00.999Z</time></trkpt><trkpt lat="42.443793932153824" lon="14.147562734411968"><ele>117.75</ele><time>2026-04-12T11:35:01.999Z</time></trkpt><trkpt lat="42.44393761329847" lon="14.147498629832413"><ele>116.5</ele><time>2026-04-12T11:35:02.999Z</time></trkpt><trkpt lat="42.44408402180993" lon="14.147458118916262"><ele>115.25</ele><time>2026-04-12T11:35:03.999Z</time></trkpt><trkpt lat="42.44420753545034" lon="14.14742878816831"><ele>114.0</ele><time>2026-04-12T11:35:04.999Z</time></trkpt><trkpt lat="42.44430983031128" lon="14.147399074206033"><ele>114.0</ele><time>2026-04-12T11:35:05.999Z</time></trkpt><trkpt lat="42.44439406478197" lon="14.14735570797502"><ele>114.0</ele><time>2026-04-12T11:35:06.999Z</time></trkpt><trkpt lat="42.44445370934044" lon="14.147304029720894"><ele>114.0</ele><time>2026-04-12T11:35:07.999Z</time></trkpt><trkpt lat="42.444501568529056" lon="14.147233867733025"><ele>114.0</ele><time>2026-04-12T11:35:09.999Z</time></trkpt><trkpt lat="42.4444485263455" lon="14.147161233524125"><ele>114.0</ele><time>2026-04-12T11:40:40Z</time></trkpt><trkpt lat="42.444378515799606" lon="14.147299583300512"><ele>114.0</ele><time>2026-04-12T11:40:42Z</time></trkpt><trkpt lat="42.444252337141705" lon="14.14738188837385"><ele>114.0</ele><time>2026-04-12T11:40:44Z</time></trkpt><trkpt lat="42.444140079482864" lon="14.147410418358119"><ele>114.0</ele><time>2026-04-12T11:40:45Z</time></trkpt><trkpt lat="42.444020412212026" lon="14.147441199754844"><ele>114.0</ele><time>2026-04-12T11:40:46Z</time></trkpt><trkpt lat="42.443889408877396" lon="14.147470727903793"><ele>114.0</ele><time>2026-04-12T11:40:47Z</time></trkpt><trkpt lat="42.44376105038741" lon="14.147528056804475"><ele>115.66666666666666</ele><time>2026-04-12T11:40:48Z</time></trkpt><trkpt lat="42.44363842184842" lon="14.147623997615977"><ele>117.33333333333333</ele><time>2026-04-12T11:40:49Z</time></trkpt><trkpt lat="42.443522193554266" lon="14.14774463101854"><ele>119.0</ele><time>2026-04-12T11:40:50Z</time></trkpt><trkpt lat="42.44340581323282" lon="14.147897222500891"><ele>119.0</ele><time>2026-04-12T11:40:51Z</time></trkpt><trkpt lat="42.44329890706382" lon="14.148057675887026"><ele>119.0</ele><time>2026-04-12T11:40:52Z</time></trkpt><trkpt lat="42.44318972210273" lon="14.148224212550357"><ele>119.0</ele><time>2026-04-12T11:40:53Z</time></trkpt><trkpt lat="42.44308049721353" lon="14.148386551568843"><ele>114.0</ele><time>2026-04-12T11:40:54Z</time></trkpt><trkpt lat="42.442967520112916" lon="14.148546595585268"><ele>109.0</ele><time>2026-04-12T11:40:55Z</time></trkpt><trkpt lat="42.44286109343006" lon="14.148720251901988"><ele>104.0</ele><time>2026-04-12T11:40:55.999Z</time></trkpt><trkpt lat="42.44276752705005" lon="14.148907009792088"><ele>102.0</ele><time>2026-04-12T11:40:56.999Z</time></trkpt><trkpt lat="42.44268659719086" lon="14.149115520940374"><ele>100.0</ele><time>2026-04-12T11:40:57.999Z</time></trkpt><trkpt lat="42.442608963444876" lon="14.149340159716749"><ele>98.0</ele><time>2026-04-12T11:40:58.999Z</time></trkpt><trkpt lat="42.44254328888115" lon="14.149582587987705"><ele>98.0</ele><time>2026-04-12T11:40:59.999Z</time></trkpt><trkpt lat="42.44248401369912" lon="14.149833761406114"><ele>98.0</ele><time>2026-04-12T11:41:00.999Z</time></trkpt><trkpt lat="42.44243238598433" lon="14.150077234287147"><ele>98.0</ele><time>2026-04-12T11:41:01.999Z</time></trkpt><trkpt lat="42.442394107608" lon="14.15029449145662"><ele>97.0</ele><time>2026-04-12T11:41:02.999Z</time></trkpt><trkpt lat="42.44235201988427" lon="14.150499678445605"><ele>96.0</ele><time>2026-04-12T11:41:03.999Z</time></trkpt><trkpt lat="42.44228053508851" lon="14.150652591387336"><ele>95.0</ele><time>2026-04-12T11:41:04.999Z</time></trkpt><trkpt lat="42.44218515228309" lon="14.150778212861796"><ele>94.0</ele><time>2026-04-12T11:41:05.999Z</time></trkpt><trkpt lat="42.442070092857065" lon="14.150865353988744"><ele>93.0</ele><time>2026-04-12T11:41:06.999Z</time></trkpt><trkpt lat="42.441923610100545" lon="14.150921608230085"><ele>92.0</ele><time>2026-04-12T11:41:07.999Z</time></trkpt><trkpt lat="42.44176435201201" lon="14.150936312850018"><ele>91.0</ele><time>2026-04-12T11:41:08.999Z</time></trkpt><trkpt lat="42.441597475658604" lon="14.150920269750767"><ele>91.0</ele><time>2026-04-12T11:41:09.999Z</time></trkpt><trkpt lat="42.441433750449974" lon="14.150856679191458"><ele>91.0</ele><time>2026-04-12T11:41:10.999Z</time></trkpt><trkpt lat="42.44127671665231" lon="14.15079309295788"><ele>91.0</ele><time>2026-04-12T11:41:11.999Z</time></trkpt><trkpt lat="42.44112465966257" lon="14.150758007375787"><ele>90.0</ele><time>2026-04-12T11:41:12.999Z</time></trkpt><trkpt lat="42.44095734909752" lon="14.150768813276951"><ele>89.0</ele><time>2026-04-12T11:41:13.999Z</time></trkpt><trkpt lat="42.44078758960897" lon="14.150823011096277"><ele>88.0</ele><time>2026-04-12T11:41:14.999Z</time></trkpt><trkpt lat="42.44062117805347" lon="14.150916741454605"><ele>84.0</ele><time>2026-04-12T11:41:15.999Z</time></trkpt><trkpt lat="42.440460381753816" lon="14.151038914145925"><ele>80.0</ele><time>2026-04-12T11:41:16.999Z</time></trkpt><trkpt lat="42.44029712621265" lon="14.151162947583513"><ele>76.0</ele><time>2026-04-12T11:41:17.999Z</time></trkpt><trkpt lat="42.440126292870964" lon="14.151266479675584"><ele>76.0</ele><time>2026-04-12T11:41:18.999Z</time></trkpt><trkpt lat="42.43994389714654" lon="14.151350797891746"><ele>76.0</ele><time>2026-04-12T11:41:19.999Z</time></trkpt><trkpt lat="42.43976648459614" lon="14.151432581883345"><ele>76.0</ele><time>2026-04-12T11:41:20.999Z</time></trkpt><trkpt lat="42.43960057866041" lon="14.151528370289505"><ele>75.0</ele><time>2026-04-12T11:41:21.999Z</time></trkpt><trkpt lat="42.43943741775103" lon="14.151654240292729"><ele>74.0</ele><time>2026-04-12T11:41:22.999Z</time></trkpt><trkpt lat="42.43928434059031" lon="14.151815872310708"><ele>73.0</ele><time>2026-04-12T11:41:23.999Z</time></trkpt><trkpt lat="42.439143501035474" lon="14.15200662419161"><ele>73.0</ele><time>2026-04-12T11:41:24.999Z</time></trkpt><trkpt lat="42.439008848507875" lon="14.152208703513244"><ele>73.0</ele><time>2026-04-12T11:41:25.999Z</time></trkpt><trkpt lat="42.43886977946199" lon="14.152406277462346"><ele>73.0</ele><time>2026-04-12T11:41:26.999Z</time></trkpt><trkpt lat="42.43871800607237" lon="14.15259294487334"><ele>69.66666666666666</ele><time>2026-04-12T11:41:27.999Z</time></trkpt><trkpt lat="42.43855696990172" lon="14.15276450884061"><ele>66.33333333333333</ele><time>2026-04-12T11:41:28.999Z</time></trkpt><trkpt lat="42.43839017783547" lon="14.152918104056075"><ele>63.0</ele><time>2026-04-12T11:41:29.999Z</time></trkpt><trkpt lat="42.43822341819022" lon="14.153037028582665"><ele>63.0</ele><time>2026-04-12T11:41:30.999Z</time></trkpt><trkpt lat="42.43804628381716" lon="14.153110354547936"><ele>63.0</ele><time>2026-04-12T11:41:31.999Z</time></trkpt><trkpt lat="42.43786230363608" lon="14.153158068927954"><ele>63.0</ele><time>2026-04-12T11:41:32.999Z</time></trkpt><trkpt lat="42.43768007230164" lon="14.153199723122956"><ele>65.0</ele><time>2026-04-12T11:41:33.999Z</time></trkpt><trkpt lat="42.43749836141035" lon="14.153270583632978"><ele>67.0</ele><time>2026-04-12T11:41:34.999Z</time></trkpt><trkpt lat="42.43732460685402" lon="14.153371688451026"><ele>69.0</ele><time>2026-04-12T11:41:35.999Z</time></trkpt><trkpt lat="42.43715781205846" lon="14.15350218926699"><ele>69.33333333333333</ele><time>2026-04-12T11:41:36.999Z</time></trkpt><trkpt lat="42.43698995523541" lon="14.153651206391148"><ele>69.66666666666666</ele><time>2026-04-12T11:41:37.999Z</time></trkpt><trkpt lat="42.436820612199604" lon="14.15380485311433"><ele>70.0</ele><time>2026-04-12T11:41:38.999Z</time></trkpt><trkpt lat="42.43664396752927" lon="14.153956518914704"><ele>68.0</ele><time>2026-04-12T11:41:39.999Z</time></trkpt><trkpt lat="42.436465742645396" lon="14.154110160830339"><ele>66.0</ele><time>2026-04-12T11:41:40.999Z</time></trkpt><trkpt lat="42.4362864657207" lon="14.154260905080225"><ele>64.0</ele><time>2026-04-12T11:41:41.999Z</time></trkpt><trkpt lat="42.436104837305244" lon="14.154409453962169"><ele>63.666666666666664</ele><time>2026-04-12T11:41:42.999Z</time></trkpt><trkpt lat="42.435921165206246" lon="14.154557516541031"><ele>63.33333333333333</ele><time>2026-04-12T11:41:43.999Z</time></trkpt><trkpt lat="42.435736069013146" lon="14.154703830304062"><ele>63.0</ele><time>2026-04-12T11:41:44.999Z</time></trkpt><trkpt lat="42.43554950807219" lon="14.154843173897927"><ele>61.66666666666667</ele><time>2026-04-12T11:41:45.999Z</time></trkpt><trkpt lat="42.43536258736524" lon="14.154981494376395"><ele>60.333333333333336</ele><time>2026-04-12T11:41:46.999Z</time></trkpt><trkpt lat="42.43517656129938" lon="14.155123976790136"><ele>59.0</ele><time>2026-04-12T11:41:47.999Z</time></trkpt><trkpt lat="42.43499206729044" lon="14.155265958248021"><ele>59.0</ele><time>2026-04-12T11:41:48.999Z</time></trkpt><trkpt lat="42.43481233710128" lon="14.15540366309773"><ele>59.0</ele><time>2026-04-12T11:41:49.999Z</time></trkpt><trkpt lat="42.43463816907923" lon="14.155532342392204"><ele>59.0</ele><time>2026-04-12T11:41:50.999Z</time></trkpt><trkpt lat="42.43446035580293" lon="14.15566156457541"><ele>57.333333333333336</ele><time>2026-04-12T11:41:51.999Z</time></trkpt><trkpt lat="42.43428329688745" lon="14.155794382624546"><ele>55.66666666666667</ele><time>2026-04-12T11:41:52.999Z</time></trkpt><trkpt lat="42.434106165211354" lon="14.155929423069221"><ele>54.0</ele><time>2026-04-12T11:41:53.999Z</time></trkpt><trkpt lat="42.43392931583327" lon="14.156062247842389"><ele>53.33333333333333</ele><time>2026-04-12T11:41:54.999Z</time></trkpt><trkpt lat="42.43375369067826" lon="14.156193936636916"><ele>52.666666666666664</ele><time>2026-04-12T11:41:55.999Z</time></trkpt><trkpt lat="42.43358078057342" lon="14.156325362170866"><ele>52.0</ele><time>2026-04-12T11:41:56.999Z</time></trkpt><trkpt lat="42.43340842028382" lon="14.156455800928473"><ele>51.33333333333333</ele><time>2026-04-12T11:41:57.999Z</time></trkpt><trkpt lat="42.43323705063457" lon="14.156590892002207"><ele>50.66666666666667</ele><time>2026-04-12T11:41:58.999Z</time></trkpt><trkpt lat="42.433069070516716" lon="14.156729357953047"><ele>50.0</ele><time>2026-04-12T11:41:59.999Z</time></trkpt><trkpt lat="42.43290549492895" lon="14.156865290458333"><ele>48.333333333333336</ele><time>2026-04-12T11:42:00.998Z</time></trkpt><trkpt lat="42.432758007314796" lon="14.156992646386374"><ele>46.66666666666667</ele><time>2026-04-12T11:42:01.998Z</time></trkpt><trkpt lat="42.43261985633788" lon="14.157120954997175"><ele>45.0</ele><time>2026-04-12T11:42:02.998Z</time></trkpt><trkpt lat="42.43249341728255" lon="14.157264025437344"><ele>43.666666666666664</ele><time>2026-04-12T11:42:03.998Z</time></trkpt><trkpt lat="42.432377815187195" lon="14.157435120491076"><ele>42.33333333333333</ele><time>2026-04-12T11:42:04.998Z</time></trkpt><trkpt lat="42.43227375874342" lon="14.157633541631474"><ele>41.0</ele><time>2026-04-12T11:42:05.998Z</time></trkpt><trkpt lat="42.43217849428951" lon="14.157845187690324"><ele>38.666666666666664</ele><time>2026-04-12T11:42:06.998Z</time></trkpt><trkpt lat="42.43208445426" lon="14.15806739153904"><ele>36.333333333333336</ele><time>2026-04-12T11:42:07.998Z</time></trkpt><trkpt lat="42.43199047073101" lon="14.15829554406887"><ele>34.0</ele><time>2026-04-12T11:42:08.998Z</time></trkpt><trkpt lat="42.43189540806427" lon="14.158532610903888"><ele>33.66666666666667</ele><time>2026-04-12T11:42:09.998Z</time></trkpt><trkpt lat="42.431800253552524" lon="14.158771758610673"><ele>33.333333333333336</ele><time>2026-04-12T11:42:10.998Z</time></trkpt><trkpt lat="42.431700938077526" lon="14.159005518297612"><ele>33.0</ele><time>2026-04-12T11:42:11.998Z</time></trkpt><trkpt lat="42.4316024590985" lon="14.159236255915301"><ele>32.666666666666664</ele><time>2026-04-12T11:42:12.998Z</time></trkpt><trkpt lat="42.43150596490701" lon="14.159462828629245"><ele>32.33333333333333</ele><time>2026-04-12T11:42:13.998Z</time></trkpt><trkpt lat="42.43140993173245" lon="14.159687533539142"><ele>32.0</ele><time>2026-04-12T11:42:14.998Z</time></trkpt><trkpt lat="42.4313179683097" lon="14.159911550816817"><ele>30.333333333333332</ele><time>2026-04-12T11:42:15.998Z</time></trkpt><trkpt lat="42.431232459038206" lon="14.160126087488939"><ele>28.666666666666664</ele><time>2026-04-12T11:42:16.998Z</time></trkpt><trkpt lat="42.43115019054404" lon="14.16032624868703"><ele>27.0</ele><time>2026-04-12T11:42:17.998Z</time></trkpt><trkpt lat="42.431068610303136" lon="14.16051598549986"><ele>27.0</ele><time>2026-04-12T11:42:18.998Z</time></trkpt><trkpt lat="42.43099448974517" lon="14.160693660438925"><ele>27.0</ele><time>2026-04-12T11:42:19.998Z</time></trkpt><trkpt lat="42.430930576438655" lon="14.160872074722496"><ele>27.0</ele><time>2026-04-12T11:42:20.998Z</time></trkpt><trkpt lat="42.43089181079802" lon="14.161065977422856"><ele>27.0</ele><time>2026-04-12T11:42:21.998Z</time></trkpt><trkpt lat="42.430889938269466" lon="14.161255652700708"><ele>27.0</ele><time>2026-04-12T11:42:22.998Z</time></trkpt><trkpt lat="42.430922168199544" lon="14.161459603059932"><ele>27.0</ele><time>2026-04-12T11:42:23.998Z</time></trkpt><trkpt lat="42.43096972556906" lon="14.161670607698573"><ele>27.0</ele><time>2026-04-12T11:42:24.998Z</time></trkpt><trkpt lat="42.431018709086054" lon="14.161881593984187"><ele>26.0</ele><time>2026-04-12T11:42:26Z</time></trkpt><trkpt lat="42.431070008389845" lon="14.162073253956269"><ele>25.0</ele><time>2026-04-12T11:42:27Z</time></trkpt><trkpt lat="42.43112683319323" lon="14.16224996772531"><ele>24.0</ele><time>2026-04-12T11:42:28Z</time></trkpt><trkpt lat="42.43118029178463" lon="14.162414378658855"><ele>23.0</ele><time>2026-04-12T11:42:29Z</time></trkpt><trkpt lat="42.43121689839605" lon="14.162563504519158"><ele>22.75</ele><time>2026-04-12T11:42:30Z</time></trkpt><trkpt lat="42.43123294524157" lon="14.16268451588811"><ele>22.5</ele><time>2026-04-12T11:42:31Z</time></trkpt><trkpt lat="42.43124321480643" lon="14.162805834136673"><ele>22.25</ele><time>2026-04-12T11:42:33Z</time></trkpt><trkpt lat="42.43105823923195" lon="14.162841055272867"><ele>22.0</ele><time>2026-04-12T11:42:37Z</time></trkpt><trkpt lat="42.43096085471849" lon="14.162819897080611"><ele>22.0</ele><time>2026-04-12T11:42:38Z</time></trkpt><trkpt lat="42.430852962117676" lon="14.162807387614862"><ele>22.0</ele><time>2026-04-12T11:42:39Z</time></trkpt><trkpt lat="42.43071569187594" lon="14.162790115479185"><ele>22.0</ele><time>2026-04-12T11:42:40Z</time></trkpt><trkpt lat="42.43057429220062" lon="14.162771024423925"><ele>22.0</ele><time>2026-04-12T11:42:41Z</time></trkpt><trkpt lat="42.43042398439965" lon="14.162751333752336"><ele>21.666666666666664</ele><time>2026-04-12T11:42:42Z</time></trkpt><trkpt lat="42.43025982099685" lon="14.162722270108011"><ele>21.333333333333332</ele><time>2026-04-12T11:42:43Z</time></trkpt><trkpt lat="42.430103795779914" lon="14.162678473318634"><ele>21.0</ele><time>2026-04-12T11:42:44Z</time></trkpt><trkpt lat="42.429942747187525" lon="14.162613173931419"><ele>21.0</ele><time>2026-04-12T11:42:45Z</time></trkpt><trkpt lat="42.42978016810267" lon="14.162523119952207"><ele>21.0</ele><time>2026-04-12T11:42:46Z</time></trkpt><trkpt lat="42.42962202310512" lon="14.162404136803676"><ele>21.0</ele><time>2026-04-12T11:42:47Z</time></trkpt><trkpt lat="42.429470294962634" lon="14.16227091836575"><ele>23.0</ele><time>2026-04-12T11:42:48Z</time></trkpt><trkpt lat="42.42932662913432" lon="14.162127457045314"><ele>25.0</ele><time>2026-04-12T11:42:49Z</time></trkpt><trkpt lat="42.42919018028291" lon="14.161980732656112"><ele>27.0</ele><time>2026-04-12T11:42:50Z</time></trkpt><trkpt lat="42.42905406849643" lon="14.161837950285394"><ele>27.0</ele><time>2026-04-12T11:42:51Z</time></trkpt><trkpt lat="42.42891865017461" lon="14.161698657352224"><ele>27.0</ele><time>2026-04-12T11:42:52Z</time></trkpt><trkpt lat="42.428784042154945" lon="14.161563383001907"><ele>27.0</ele><time>2026-04-12T11:42:53Z</time></trkpt><trkpt lat="42.42864915779145" lon="14.16142342238686"><ele>23.666666666666668</ele><time>2026-04-12T11:42:54Z</time></trkpt><trkpt lat="42.42852070077904" lon="14.161287530310581"><ele>20.333333333333336</ele><time>2026-04-12T11:42:55Z</time></trkpt><trkpt lat="42.42839844452278" lon="14.161162007756369"><ele>17.0</ele><time>2026-04-12T11:42:56Z</time></trkpt><trkpt lat="42.428279525249025" lon="14.161042685053108"><ele>17.0</ele><time>2026-04-12T11:42:57Z</time></trkpt><trkpt lat="42.42816181617739" lon="14.16092842248785"><ele>17.0</ele><time>2026-04-12T11:42:58Z</time></trkpt><trkpt lat="42.428047204736174" lon="14.160819878389763"><ele>17.0</ele><time>2026-04-12T11:42:59Z</time></trkpt><trkpt lat="42.42793458873934" lon="14.160710805319518"><ele>17.0</ele><time>2026-04-12T11:43:00Z</time></trkpt><trkpt lat="42.42782549342695" lon="14.160606511678504"><ele>17.25</ele><time>2026-04-12T11:43:01Z</time></trkpt><trkpt lat="42.42771718585632" lon="14.16050758308754"><ele>17.5</ele><time>2026-04-12T11:43:02Z</time></trkpt><trkpt lat="42.42760965987711" lon="14.160409075654357"><ele>17.75</ele><time>2026-04-12T11:43:02.999Z</time></trkpt><trkpt lat="42.42750404498886" lon="14.160305517022108"><ele>18.0</ele><time>2026-04-12T11:43:03.999Z</time></trkpt><trkpt lat="42.427394062965604" lon="14.160203504861128"><ele>18.0</ele><time>2026-04-12T11:43:04.999Z</time></trkpt><trkpt lat="42.42728209200272" lon="14.1601036898397"><ele>18.0</ele><time>2026-04-12T11:43:05.999Z</time></trkpt><trkpt lat="42.427170547999054" lon="14.160003859381572"><ele>18.0</ele><time>2026-04-12T11:43:06.999Z</time></trkpt><trkpt lat="42.42706802450998" lon="14.159909255755151"><ele>18.0</ele><time>2026-04-12T11:43:07.999Z</time></trkpt><trkpt lat="42.42697411508048" lon="14.159824975331404"><ele>18.5</ele><time>2026-04-12T11:43:08.999Z</time></trkpt><trkpt lat="42.426888821093485" lon="14.159754543807258"><ele>19.0</ele><time>2026-04-12T11:43:09.999Z</time></trkpt><trkpt lat="42.42680984609643" lon="14.15970029078377"><ele>19.5</ele><time>2026-04-12T11:43:10.999Z</time></trkpt><trkpt lat="42.42672626538734" lon="14.159650928642456"><ele>20.0</ele><time>2026-04-12T11:43:12.999Z</time></trkpt><trkpt lat="42.42687573481344" lon="14.159835335568435"><ele>19.8</ele><time>2026-04-12T11:43:16.999Z</time></trkpt><trkpt lat="42.42699079841085" lon="14.159935469450465"><ele>19.6</ele><time>2026-04-12T11:43:18.999Z</time></trkpt><trkpt lat="42.42705446347627" lon="14.160011155900278"><ele>19.4</ele><time>2026-04-12T11:43:19.999Z</time></trkpt><trkpt lat="42.4271358091791" lon="14.160080972747293"><ele>19.2</ele><time>2026-04-12T11:43:20.999Z</time></trkpt><trkpt lat="42.427186715838275" lon="14.160179651347752"><ele>19.0</ele><time>2026-04-12T11:43:21.999Z</time></trkpt><trkpt lat="42.42719925843306" lon="14.16028959612536"><ele>19.0</ele><time>2026-04-12T11:43:22.999Z</time></trkpt><trkpt lat="42.42719878667794" lon="14.160424743770426"><ele>19.0</ele><time>2026-04-12T11:43:23.999Z</time></trkpt><trkpt lat="42.42714517415258" lon="14.160536143801947"><ele>19.0</ele><time>2026-04-12T11:43:24.999Z</time></trkpt><trkpt lat="42.42706555827611" lon="14.160634030794855"><ele>19.0</ele><time>2026-04-12T11:43:25.999Z</time></trkpt><trkpt lat="42.42697123821017" lon="14.16073040887046"><ele>19.0</ele><time>2026-04-12T11:43:26.999Z</time></trkpt><trkpt lat="42.42686519396184" lon="14.160826234112594"><ele>18.666666666666664</ele><time>2026-04-12T11:43:27.999Z</time></trkpt><trkpt lat="42.42676051646986" lon="14.16094035986808"><ele>18.333333333333332</ele><time>2026-04-12T11:43:28.999Z</time></trkpt><trkpt lat="42.42664537982202" lon="14.16107904951197"><ele>18.0</ele><time>2026-04-12T11:43:29.999Z</time></trkpt><trkpt lat="42.426523958556736" lon="14.161228819557278"><ele>18.0</ele><time>2026-04-12T11:43:30.999Z</time></trkpt><trkpt lat="42.426408337757564" lon="14.161374506059895"><ele>18.0</ele><time>2026-04-12T11:43:31.999Z</time></trkpt><trkpt lat="42.42628412753659" lon="14.161530303728046"><ele>18.0</ele><time>2026-04-12T11:43:32.999Z</time></trkpt><trkpt lat="42.42615610985885" lon="14.161682740027963"><ele>17.666666666666668</ele><time>2026-04-12T11:43:33.999Z</time></trkpt><trkpt lat="42.42603172773294" lon="14.161843407349172"><ele>17.333333333333336</ele><time>2026-04-12T11:43:34.999Z</time></trkpt><trkpt lat="42.42590835924778" lon="14.162009006110221"><ele>17.0</ele><time>2026-04-12T11:43:35.999Z</time></trkpt><trkpt lat="42.42578471821938" lon="14.162181346983944"><ele>17.0</ele><time>2026-04-12T11:43:36.999Z</time></trkpt><trkpt lat="42.425653873493964" lon="14.162352130915933"><ele>17.0</ele><time>2026-04-12T11:43:37.999Z</time></trkpt><trkpt lat="42.42551655007597" lon="14.162512182998011"><ele>17.0</ele><time>2026-04-12T11:43:38.999Z</time></trkpt><trkpt lat="42.42537385164827" lon="14.162673562200084"><ele>15.333333333333334</ele><time>2026-04-12T11:43:39.999Z</time></trkpt><trkpt lat="42.425224510926185" lon="14.162840949599667"><ele>13.666666666666668</ele><time>2026-04-12T11:43:40.999Z</time></trkpt><trkpt lat="42.4250705059762" lon="14.163016714884684"><ele>12.0</ele><time>2026-04-12T11:43:41.999Z</time></trkpt><trkpt lat="42.424919422732" lon="14.163179027471415"><ele>12.0</ele><time>2026-04-12T11:43:42.999Z</time></trkpt><trkpt lat="42.42476422649925" lon="14.163348455839206"><ele>12.0</ele><time>2026-04-12T11:43:43.999Z</time></trkpt><trkpt lat="42.42460996889348" lon="14.163521964423722"><ele>12.0</ele><time>2026-04-12T11:43:44.999Z</time></trkpt><trkpt lat="42.42445493645505" lon="14.163700280056988"><ele>12.0</ele><time>2026-04-12T11:43:45.999Z</time></trkpt><trkpt lat="42.42429906453502" lon="14.163880901741251"><ele>12.0</ele><time>2026-04-12T11:43:46.999Z</time></trkpt><trkpt lat="42.42414323327194" lon="14.164060883465451"><ele>12.0</ele><time>2026-04-12T11:43:47.999Z</time></trkpt><trkpt lat="42.423978919122135" lon="14.16422848415638"><ele>12.0</ele><time>2026-04-12T11:43:48.999Z</time></trkpt><trkpt lat="42.42380964999316" lon="14.164396517492445"><ele>12.0</ele><time>2026-04-12T11:43:49.999Z</time></trkpt><trkpt lat="42.42364100332533" lon="14.164573584708771"><ele>12.0</ele><time>2026-04-12T11:43:50.999Z</time></trkpt><trkpt lat="42.423478911726406" lon="14.16475365065065"><ele>12.333333333333332</ele><time>2026-04-12T11:43:51.999Z</time></trkpt><trkpt lat="42.42333123288479" lon="14.16492026928246"><ele>12.666666666666666</ele><time>2026-04-12T11:43:52.999Z</time></trkpt><trkpt lat="42.423179629979295" lon="14.165077135564998"><ele>13.0</ele><time>2026-04-12T11:43:53.999Z</time></trkpt><trkpt lat="42.423014117470444" lon="14.165212880325548"><ele>13.0</ele><time>2026-04-12T11:43:54.999Z</time></trkpt><trkpt lat="42.42283307224389" lon="14.16532800149623"><ele>13.0</ele><time>2026-04-12T11:43:55.999Z</time></trkpt><trkpt lat="42.422643077558284" lon="14.165429267704063"><ele>13.0</ele><time>2026-04-12T11:43:56.999Z</time></trkpt><trkpt lat="42.42245062834413" lon="14.165520768614472"><ele>13.0</ele><time>2026-04-12T11:43:57.999Z</time></trkpt><trkpt lat="42.42225390168704" lon="14.165597593659419"><ele>13.0</ele><time>2026-04-12T11:43:58.999Z</time></trkpt><trkpt lat="42.42205138943502" lon="14.165655861340634"><ele>13.0</ele><time>2026-04-12T11:43:59.999Z</time></trkpt><trkpt lat="42.42184444716173" lon="14.165691712178113"><ele>13.333333333333332</ele><time>2026-04-12T11:44:00.999Z</time></trkpt><trkpt lat="42.42163561715231" lon="14.165704316928647"><ele>13.666666666666668</ele><time>2026-04-12T11:44:01.999Z</time></trkpt><trkpt lat="42.4214280605595" lon="14.165701378728832"><ele>14.0</ele><time>2026-04-12T11:44:02.999Z</time></trkpt><trkpt lat="42.42123694555072" lon="14.165699672259299"><ele>13.333333333333334</ele><time>2026-04-12T11:44:03.999Z</time></trkpt><trkpt lat="42.42106821873866" lon="14.165702419530856"><ele>12.666666666666668</ele><time>2026-04-12T11:44:04.999Z</time></trkpt><trkpt lat="42.420913170719956" lon="14.165713477204514"><ele>12.0</ele><time>2026-04-12T11:44:05.999Z</time></trkpt><trkpt lat="42.42077604772619" lon="14.165717742375604"><ele>12.0</ele><time>2026-04-12T11:44:06.999Z</time></trkpt><trkpt lat="42.42066556021128" lon="14.165724735505766"><ele>12.0</ele><time>2026-04-12T11:44:07.999Z</time></trkpt><trkpt lat="42.42057834966385" lon="14.165702821082219"><ele>12.0</ele><time>2026-04-12T11:44:08.998Z</time></trkpt><trkpt lat="42.42051426283437" lon="14.165702821081222"><ele>12.0</ele><time>2026-04-12T11:44:09.998Z</time></trkpt><trkpt lat="42.42045670830174" lon="14.16592884751831"><ele>12.0</ele><time>2026-04-12T11:44:11.998Z</time></trkpt><trkpt lat="42.4204654985293" lon="14.166075995980714"><ele>11.8</ele><time>2026-04-12T11:44:12.998Z</time></trkpt><trkpt lat="42.42045533806285" lon="14.166236064184504"><ele>11.6</ele><time>2026-04-12T11:44:13.998Z</time></trkpt><trkpt lat="42.4204538349035" lon="14.166383540712705"><ele>11.4</ele><time>2026-04-12T11:44:14.998Z</time></trkpt><trkpt lat="42.42045232044084" lon="14.166532126169292"><ele>11.200000000000001</ele><time>2026-04-12T11:44:15.998Z</time></trkpt><trkpt lat="42.420451831103" lon="14.166662352426867"><ele>11.0</ele><time>2026-04-12T11:44:16.998Z</time></trkpt><trkpt lat="42.420425048675064" lon="14.166767223571183"><ele>11.75</ele><time>2026-04-12T11:44:17.998Z</time></trkpt><trkpt lat="42.42038331171621" lon="14.16684339946924"><ele>12.5</ele><time>2026-04-12T11:44:18.998Z</time></trkpt><trkpt lat="42.42022886724083" lon="14.166893137332478"><ele>13.25</ele><time>2026-04-12T11:44:20.998Z</time></trkpt><trkpt lat="42.420129220551964" lon="14.166864431510675"><ele>14.0</ele><time>2026-04-12T11:44:21.998Z</time></trkpt><trkpt lat="42.42001800632759" lon="14.166806925132548"><ele>14.0</ele><time>2026-04-12T11:44:22.998Z</time></trkpt><trkpt lat="42.4198951054058" lon="14.166722803821935"><ele>14.0</ele><time>2026-04-12T11:44:23.998Z</time></trkpt><trkpt lat="42.41976653901713" lon="14.16662679524336"><ele>14.0</ele><time>2026-04-12T11:44:24.998Z</time></trkpt><trkpt lat="42.41962575561455" lon="14.16652838720327"><ele>14.0</ele><time>2026-04-12T11:44:25.998Z</time></trkpt><trkpt lat="42.419479513516364" lon="14.166431373570099"><ele>13.666666666666668</ele><time>2026-04-12T11:44:26.998Z</time></trkpt><trkpt lat="42.41934118207561" lon="14.166334560802019"><ele>13.333333333333332</ele><time>2026-04-12T11:44:27.998Z</time></trkpt><trkpt lat="42.41919400699062" lon="14.166233068184377"><ele>13.0</ele><time>2026-04-12T11:44:28.998Z</time></trkpt><trkpt lat="42.4190646862178" lon="14.16611659363236"><ele>13.0</ele><time>2026-04-12T11:44:29.998Z</time></trkpt><trkpt lat="42.4189442326274" lon="14.166040445974444"><ele>13.0</ele><time>2026-04-12T11:44:30.998Z</time></trkpt><trkpt lat="42.418831673551274" lon="14.166025338551872"><ele>13.0</ele><time>2026-04-12T11:44:32Z</time></trkpt><trkpt lat="42.418732738902946" lon="14.166011920588677"><ele>13.0</ele><time>2026-04-12T11:44:33Z</time></trkpt><trkpt lat="42.41864664040637" lon="14.166105769241797"><ele>13.600000000000001</ele><time>2026-04-12T11:44:34Z</time></trkpt><trkpt lat="42.41857579811537" lon="14.166190503857353"><ele>14.200000000000001</ele><time>2026-04-12T11:44:35Z</time></trkpt><trkpt lat="42.418505899326505" lon="14.166233176856148"><ele>14.8</ele><time>2026-04-12T11:44:36Z</time></trkpt><trkpt lat="42.41841765780653" lon="14.166250329547967"><ele>15.4</ele><time>2026-04-12T11:44:37Z</time></trkpt><trkpt lat="42.41831291976549" lon="14.166277032432777"><ele>16.0</ele><time>2026-04-12T11:44:38Z</time></trkpt><trkpt lat="42.418216519829684" lon="14.166302389428326"><ele>16.0</ele><time>2026-04-12T11:44:39Z</time></trkpt><trkpt lat="42.418152446798416" lon="14.166382201670325"><ele>16.0</ele><time>2026-04-12T11:44:40Z</time></trkpt><trkpt lat="42.41811713727999" lon="14.166521882432773"><ele>16.0</ele><time>2026-04-12T11:44:41Z</time></trkpt><trkpt lat="42.41813590380348" lon="14.166671750749698"><ele>16.0</ele><time>2026-04-12T11:44:42Z</time></trkpt><trkpt lat="42.4181063489831" lon="14.1668147043266"><ele>16.0</ele><time>2026-04-12T11:44:43Z</time></trkpt><trkpt lat="42.41805767921203" lon="14.166974115401125"><ele>16.0</ele><time>2026-04-12T11:44:44Z</time></trkpt><trkpt lat="42.41796827206318" lon="14.167114923355761"><ele>16.0</ele><time>2026-04-12T11:44:45Z</time></trkpt><trkpt lat="42.41789513804958" lon="14.16728670289568"><ele>16.0</ele><time>2026-04-12T11:44:46Z</time></trkpt><trkpt lat="42.41782520628189" lon="14.167453919058634"><ele>16.0</ele><time>2026-04-12T11:44:47Z</time></trkpt><trkpt lat="42.41777223794905" lon="14.167595796148401"><ele>16.333333333333332</ele><time>2026-04-12T11:44:48Z</time></trkpt><trkpt lat="42.417724087555804" lon="14.167727837197887"><ele>16.666666666666664</ele><time>2026-04-12T11:44:49Z</time></trkpt><trkpt lat="42.417683715409645" lon="14.167837868836155"><ele>17.0</ele><time>2026-04-12T11:44:50Z</time></trkpt><trkpt lat="42.417652985695064" lon="14.1679247607481"><ele>17.333333333333332</ele><time>2026-04-12T11:44:51Z</time></trkpt><trkpt lat="42.4176218550338" lon="14.168011095583571"><ele>17.666666666666668</ele><time>2026-04-12T11:44:52Z</time></trkpt><trkpt lat="42.41758467284471" lon="14.168106363320282"><ele>18.0</ele><time>2026-04-12T11:44:53Z</time></trkpt><trkpt lat="42.41753791354798" lon="14.168213362044293"><ele>18.2</ele><time>2026-04-12T11:44:54Z</time></trkpt><trkpt lat="42.41748627502887" lon="14.168336919287205"><ele>18.4</ele><time>2026-04-12T11:44:55Z</time></trkpt><trkpt lat="42.417435611866395" lon="14.168466159018791"><ele>18.599999999999998</ele><time>2026-04-12T11:44:56Z</time></trkpt><trkpt lat="42.417391279377874" lon="14.168576741794082"><ele>18.8</ele><time>2026-04-12T11:44:57Z</time></trkpt><trkpt lat="42.41734895732196" lon="14.16867001791384"><ele>19.0</ele><time>2026-04-12T11:44:58Z</time></trkpt><trkpt lat="42.41730154810136" lon="14.168755824516996"><ele>19.0</ele><time>2026-04-12T11:44:59Z</time></trkpt><trkpt lat="42.41723906223779" lon="14.168821120796474"><ele>19.0</ele><time>2026-04-12T11:45:00Z</time></trkpt><trkpt lat="42.41715693444026" lon="14.168862650370823"><ele>19.0</ele><time>2026-04-12T11:45:01Z</time></trkpt><trkpt lat="42.41706690163864" lon="14.168896957224003"><ele>19.0</ele><time>2026-04-12T11:45:02Z</time></trkpt><trkpt lat="42.416998318979495" lon="14.168951437528246"><ele>19.0</ele><time>2026-04-12T11:45:03Z</time></trkpt><trkpt lat="42.416950767792855" lon="14.169031236711739"><ele>19.0</ele><time>2026-04-12T11:45:04Z</time></trkpt><trkpt lat="42.41690018842475" lon="14.169115298646684"><ele>18.4</ele><time>2026-04-12T11:45:05Z</time></trkpt><trkpt lat="42.41690478121083" lon="14.169232744939471"><ele>17.799999999999997</ele><time>2026-04-12T11:45:06Z</time></trkpt><trkpt lat="42.41695272804923" lon="14.169346378506965"><ele>17.200000000000003</ele><time>2026-04-12T11:45:07Z</time></trkpt><trkpt lat="42.416999537029106" lon="14.169438169185712"><ele>16.6</ele><time>2026-04-12T11:45:08Z</time></trkpt><trkpt lat="42.41712658238739" lon="14.169441673025824"><ele>16.0</ele><time>2026-04-12T11:45:09Z</time></trkpt><trkpt lat="42.4172333092406" lon="14.16942499856384"><ele>16.0</ele><time>2026-04-12T11:45:10Z</time></trkpt><trkpt lat="42.41733586813765" lon="14.169357649077833"><ele>16.0</ele><time>2026-04-12T11:45:10.999Z</time></trkpt><trkpt lat="42.41737851306929" lon="14.169180365548955"><ele>16.0</ele><time>2026-04-12T11:45:11.999Z</time></trkpt><trkpt lat="42.41750476076512" lon="14.169083642529829"><ele>16.0</ele><time>2026-04-12T11:45:12.999Z</time></trkpt><trkpt lat="42.41756444687068" lon="14.168956916839399"><ele>16.6</ele><time>2026-04-12T11:45:13.999Z</time></trkpt><trkpt lat="42.417631975534725" lon="14.168844248030656"><ele>17.200000000000003</ele><time>2026-04-12T11:45:14.999Z</time></trkpt><trkpt lat="42.417693420137304" lon="14.168742554302623"><ele>17.799999999999997</ele><time>2026-04-12T11:45:15.999Z</time></trkpt><trkpt lat="42.41775937461979" lon="14.168649033212263"><ele>18.4</ele><time>2026-04-12T11:45:16.999Z</time></trkpt><trkpt lat="42.41782920454462" lon="14.168571527237832"><ele>19.0</ele><time>2026-04-12T11:45:17.999Z</time></trkpt><trkpt lat="42.417913275254506" lon="14.168507961288967"><ele>18.599999999999998</ele><time>2026-04-12T11:45:18.999Z</time></trkpt><trkpt lat="42.418006355718234" lon="14.168461505671226"><ele>18.2</ele><time>2026-04-12T11:45:19.999Z</time></trkpt><trkpt lat="42.41810902657807" lon="14.16842744314955"><ele>17.799999999999997</ele><time>2026-04-12T11:45:20.999Z</time></trkpt><trkpt lat="42.418218383421426" lon="14.168421195314039"><ele>17.4</ele><time>2026-04-12T11:45:21.999Z</time></trkpt><trkpt lat="42.41832963623303" lon="14.168439356196332"><ele>17.0</ele><time>2026-04-12T11:45:22.999Z</time></trkpt><trkpt lat="42.418440852170654" lon="14.168494113482609"><ele>17.0</ele><time>2026-04-12T11:45:23.999Z</time></trkpt><trkpt lat="42.41854786547543" lon="14.168577028243961"><ele>17.0</ele><time>2026-04-12T11:45:24.999Z</time></trkpt><trkpt lat="42.418658578626285" lon="14.16866004414135"><ele>17.0</ele><time>2026-04-12T11:45:25.999Z</time></trkpt><trkpt lat="42.4187662550941" lon="14.168732092364836"><ele>17.0</ele><time>2026-04-12T11:45:26.999Z</time></trkpt><trkpt lat="42.41885985430306" lon="14.168796882277816"><ele>17.0</ele><time>2026-04-12T11:45:27.999Z</time></trkpt><trkpt lat="42.41894603880378" lon="14.168857406918601"><ele>17.0</ele><time>2026-04-12T11:45:28.999Z</time></trkpt><trkpt lat="42.4190360714982" lon="14.168914928202943"><ele>17.0</ele><time>2026-04-12T11:45:29.999Z</time></trkpt><trkpt lat="42.41914549276135" lon="14.168971494926636"><ele>17.0</ele><time>2026-04-12T11:45:30.999Z</time></trkpt><trkpt lat="42.41926992108038" lon="14.169047218391148"><ele>16.0</ele><time>2026-04-12T11:45:31.999Z</time></trkpt><trkpt lat="42.41940378438477" lon="14.16913916377927"><ele>15.0</ele><time>2026-04-12T11:45:32.999Z</time></trkpt><trkpt lat="42.41953985964759" lon="14.1692237760277"><ele>14.0</ele><time>2026-04-12T11:45:33.999Z</time></trkpt><trkpt lat="42.419693994328824" lon="14.169314848868543"><ele>14.0</ele><time>2026-04-12T11:45:34.999Z</time></trkpt><trkpt lat="42.41985987168137" lon="14.169420227881256"><ele>14.0</ele><time>2026-04-12T11:45:35.999Z</time></trkpt><trkpt lat="42.420039666610805" lon="14.169549707290457"><ele>14.0</ele><time>2026-04-12T11:45:36.999Z</time></trkpt><trkpt lat="42.42022156836484" lon="14.169692942133892"><ele>14.0</ele><time>2026-04-12T11:45:37.999Z</time></trkpt><trkpt lat="42.420399402446854" lon="14.169834339228972"><ele>14.0</ele><time>2026-04-12T11:45:38.999Z</time></trkpt><trkpt lat="42.42058058594101" lon="14.169964833195783"><ele>14.0</ele><time>2026-04-12T11:45:39.999Z</time></trkpt><trkpt lat="42.42076174602908" lon="14.1700879006717"><ele>14.666666666666668</ele><time>2026-04-12T11:45:40.999Z</time></trkpt><trkpt lat="42.42094791712841" lon="14.170205101564699"><ele>15.333333333333332</ele><time>2026-04-12T11:45:41.999Z</time></trkpt><trkpt lat="42.42113632777165" lon="14.170330621808706"><ele>16.0</ele><time>2026-04-12T11:45:42.999Z</time></trkpt><trkpt lat="42.421317398682646" lon="14.170463527355228"><ele>16.0</ele><time>2026-04-12T11:45:43.999Z</time></trkpt><trkpt lat="42.421504746609216" lon="14.170597198618875"><ele>16.0</ele><time>2026-04-12T11:45:44.999Z</time></trkpt><trkpt lat="42.42169395342019" lon="14.17073173760453"><ele>16.0</ele><time>2026-04-12T11:45:45.999Z</time></trkpt><trkpt lat="42.4218822683941" lon="14.170866714889536"><ele>16.333333333333332</ele><time>2026-04-12T11:45:46.999Z</time></trkpt><trkpt lat="42.42207269970069" lon="14.17099701668301"><ele>16.666666666666668</ele><time>2026-04-12T11:45:47.999Z</time></trkpt><trkpt lat="42.42226753655684" lon="14.171132826917928"><ele>17.0</ele><time>2026-04-12T11:45:48.999Z</time></trkpt><trkpt lat="42.422458064841024" lon="14.171271518388629"><ele>17.0</ele><time>2026-04-12T11:45:49.999Z</time></trkpt><trkpt lat="42.422649764444905" lon="14.171414387722553"><ele>17.0</ele><time>2026-04-12T11:45:50.999Z</time></trkpt><trkpt lat="42.42284048740204" lon="14.171562011450394"><ele>17.0</ele><time>2026-04-12T11:45:51.999Z</time></trkpt><trkpt lat="42.423027204845276" lon="14.171719018316852"><ele>16.333333333333336</ele><time>2026-04-12T11:45:52.999Z</time></trkpt><trkpt lat="42.42321334495555" lon="14.171881123126068"><ele>15.666666666666668</ele><time>2026-04-12T11:45:53.999Z</time></trkpt><trkpt lat="42.4233935488931" lon="14.172046150440504"><ele>15.0</ele><time>2026-04-12T11:45:54.999Z</time></trkpt><trkpt lat="42.42357020885075" lon="14.17221555015231"><ele>15.333333333333332</ele><time>2026-04-12T11:45:55.999Z</time></trkpt><trkpt lat="42.42374512336186" lon="14.172386777485356"><ele>15.666666666666666</ele><time>2026-04-12T11:45:56.999Z</time></trkpt><trkpt lat="42.42391961569986" lon="14.172555501254235"><ele>16.0</ele><time>2026-04-12T11:45:57.999Z</time></trkpt><trkpt lat="42.42409902500536" lon="14.172729430735243"><ele>15.0</ele><time>2026-04-12T11:45:58.999Z</time></trkpt><trkpt lat="42.424284918232644" lon="14.172913265389056"><ele>14.0</ele><time>2026-04-12T11:45:59.999Z</time></trkpt><trkpt lat="42.42446743375269" lon="14.173102217077632"><ele>14.5</ele><time>2026-04-12T11:46:00.999Z</time></trkpt><trkpt lat="42.42464764616142" lon="14.173294867354898"><ele>15.0</ele><time>2026-04-12T11:46:01.999Z</time></trkpt><trkpt lat="42.42482721328538" lon="14.173484691603305"><ele>15.0</ele><time>2026-04-12T11:46:02.999Z</time></trkpt><trkpt lat="42.42500443802704" lon="14.173677487621028"><ele>15.0</ele><time>2026-04-12T11:46:03.999Z</time></trkpt><trkpt lat="42.4251831185861" lon="14.173870224843967"><ele>15.0</ele><time>2026-04-12T11:46:04.999Z</time></trkpt><trkpt lat="42.42536285917652" lon="14.174062606849313"><ele>15.0</ele><time>2026-04-12T11:46:05.999Z</time></trkpt><trkpt lat="42.42554393381193" lon="14.174252226720224"><ele>15.0</ele><time>2026-04-12T11:46:06.999Z</time></trkpt><trkpt lat="42.425728080208955" lon="14.174438361100552"><ele>15.0</ele><time>2026-04-12T11:46:07.999Z</time></trkpt><trkpt lat="42.425912161495454" lon="14.174624605712209"><ele>15.0</ele><time>2026-04-12T11:46:08.999Z</time></trkpt><trkpt lat="42.42609695671682" lon="14.174809510457884"><ele>15.0</ele><time>2026-04-12T11:46:09.999Z</time></trkpt><trkpt lat="42.42628149673945" lon="14.1749937172363"><ele>14.0</ele><time>2026-04-12T11:46:10.999Z</time></trkpt><trkpt lat="42.42646276937687" lon="14.175179011766119"><ele>13.0</ele><time>2026-04-12T11:46:11.999Z</time></trkpt><trkpt lat="42.42664250795203" lon="14.175362459396874"><ele>13.0</ele><time>2026-04-12T11:46:12.999Z</time></trkpt><trkpt lat="42.42682454003032" lon="14.175541589420744"><ele>13.0</ele><time>2026-04-12T11:46:13.999Z</time></trkpt><trkpt lat="42.427009317297745" lon="14.175720663291658"><ele>14.0</ele><time>2026-04-12T11:46:14.999Z</time></trkpt><trkpt lat="42.427195066772974" lon="14.175901149881941"><ele>15.0</ele><time>2026-04-12T11:46:15.998Z</time></trkpt><trkpt lat="42.42738193526391" lon="14.176083884070195"><ele>15.0</ele><time>2026-04-12T11:46:16.998Z</time></trkpt><trkpt lat="42.42756843949817" lon="14.17626792135446"><ele>15.0</ele><time>2026-04-12T11:46:17.998Z</time></trkpt><trkpt lat="42.42775507524402" lon="14.176452437116291"><ele>15.0</ele><time>2026-04-12T11:46:18.998Z</time></trkpt><trkpt lat="42.42794175725087" lon="14.176635716781187"><ele>15.0</ele><time>2026-04-12T11:46:19.998Z</time></trkpt><trkpt lat="42.42812871178198" lon="14.17681883057988"><ele>14.0</ele><time>2026-04-12T11:46:20.998Z</time></trkpt><trkpt lat="42.42831828201408" lon="14.17699478124646"><ele>13.0</ele><time>2026-04-12T11:46:21.998Z</time></trkpt><trkpt lat="42.42851010043342" lon="14.177161636251904"><ele>13.0</ele><time>2026-04-12T11:46:22.998Z</time></trkpt><trkpt lat="42.42870507484002" lon="14.17732190523653"><ele>13.0</ele><time>2026-04-12T11:46:23.998Z</time></trkpt><trkpt lat="42.42890353794711" lon="14.17747610466674"><ele>12.5</ele><time>2026-04-12T11:46:24.998Z</time></trkpt><trkpt lat="42.42910554942653" lon="14.17762229759228"><ele>12.0</ele><time>2026-04-12T11:46:25.998Z</time></trkpt><trkpt lat="42.42930966586328" lon="14.177761632425872"><ele>12.0</ele><time>2026-04-12T11:46:26.998Z</time></trkpt><trkpt lat="42.42951775140981" lon="14.177895129211137"><ele>12.0</ele><time>2026-04-12T11:46:27.998Z</time></trkpt><trkpt lat="42.42972722100146" lon="14.178022883521463"><ele>11.0</ele><time>2026-04-12T11:46:28.998Z</time></trkpt><trkpt lat="42.42993812466035" lon="14.178140842628283"><ele>10.0</ele><time>2026-04-12T11:46:29.998Z</time></trkpt><trkpt lat="42.43015120904823" lon="14.178252629960925"><ele>10.0</ele><time>2026-04-12T11:46:30.998Z</time></trkpt><trkpt lat="42.4303659000931" lon="14.178363308613012"><ele>10.0</ele><time>2026-04-12T11:46:31.998Z</time></trkpt><trkpt lat="42.430581555384244" lon="14.178472594290321"><ele>10.0</ele><time>2026-04-12T11:46:32.998Z</time></trkpt><trkpt lat="42.43079660510865" lon="14.178580403349558"><ele>10.0</ele><time>2026-04-12T11:46:33.998Z</time></trkpt><trkpt lat="42.43101250376702" lon="14.17868751061952"><ele>10.0</ele><time>2026-04-12T11:46:34.998Z</time></trkpt><trkpt lat="42.43122731397826" lon="14.178799394589795"><ele>10.0</ele><time>2026-04-12T11:46:35.998Z</time></trkpt><trkpt lat="42.43144100031777" lon="14.178907960085663"><ele>10.5</ele><time>2026-04-12T11:46:36.998Z</time></trkpt><trkpt lat="42.43165750597119" lon="14.179017162507115"><ele>11.0</ele><time>2026-04-12T11:46:38Z</time></trkpt><trkpt lat="42.4318729261091" lon="14.179121909286783"><ele>11.0</ele><time>2026-04-12T11:46:39Z</time></trkpt><trkpt lat="42.43208814175109" lon="14.1792255862128"><ele>11.0</ele><time>2026-04-12T11:46:40Z</time></trkpt><trkpt lat="42.43230177839151" lon="14.179338001287697"><ele>11.0</ele><time>2026-04-12T11:46:41Z</time></trkpt><trkpt lat="42.43251456098248" lon="14.179460493254847"><ele>11.0</ele><time>2026-04-12T11:46:42Z</time></trkpt><trkpt lat="42.43272134808928" lon="14.179594885012332"><ele>11.0</ele><time>2026-04-12T11:46:43Z</time></trkpt><trkpt lat="42.432922779835955" lon="14.179738534215714"><ele>11.0</ele><time>2026-04-12T11:46:44Z</time></trkpt><trkpt lat="42.43312392301025" lon="14.179879319461653"><ele>10.5</ele><time>2026-04-12T11:46:45Z</time></trkpt><trkpt lat="42.433324490994" lon="14.180020435992242"><ele>10.0</ele><time>2026-04-12T11:46:46Z</time></trkpt><trkpt lat="42.433523585760106" lon="14.180162691444869"><ele>10.0</ele><time>2026-04-12T11:46:47Z</time></trkpt><trkpt lat="42.43372335261416" lon="14.180310208663656"><ele>10.0</ele><time>2026-04-12T11:46:48Z</time></trkpt><trkpt lat="42.43392243745561" lon="14.180460396721806"><ele>10.0</ele><time>2026-04-12T11:46:49Z</time></trkpt><trkpt lat="42.43412280678538" lon="14.18061053846129"><ele>10.0</ele><time>2026-04-12T11:46:50Z</time></trkpt><trkpt lat="42.43432323765269" lon="14.180761536532541"><ele>10.5</ele><time>2026-04-12T11:46:51Z</time></trkpt><trkpt lat="42.434522767293736" lon="14.180916867835732"><ele>11.0</ele><time>2026-04-12T11:46:52Z</time></trkpt><trkpt lat="42.434722403637224" lon="14.181071426642244"><ele>11.0</ele><time>2026-04-12T11:46:53Z</time></trkpt><trkpt lat="42.4349229875156" lon="14.181228245302668"><ele>11.0</ele><time>2026-04-12T11:46:54Z</time></trkpt><trkpt lat="42.43512468888487" lon="14.181386506928336"><ele>10.5</ele><time>2026-04-12T11:46:55Z</time></trkpt><trkpt lat="42.43532591104599" lon="14.181546085916963"><ele>10.0</ele><time>2026-04-12T11:46:56Z</time></trkpt><trkpt lat="42.435527229625464" lon="14.181705414390427"><ele>10.0</ele><time>2026-04-12T11:46:57Z</time></trkpt><trkpt lat="42.43572900243089" lon="14.181863587936231"><ele>10.0</ele><time>2026-04-12T11:46:58Z</time></trkpt><trkpt lat="42.43593257187461" lon="14.182018376039107"><ele>10.0</ele><time>2026-04-12T11:46:59Z</time></trkpt><trkpt lat="42.436136218162204" lon="14.182172534813821"><ele>10.0</ele><time>2026-04-12T11:47:00Z</time></trkpt><trkpt lat="42.436339161012306" lon="14.182328768452699"><ele>10.5</ele><time>2026-04-12T11:47:01Z</time></trkpt><trkpt lat="42.43654170750318" lon="14.18248463087965"><ele>11.0</ele><time>2026-04-12T11:47:02Z</time></trkpt><trkpt lat="42.43674392667925" lon="14.18263950367079"><ele>11.0</ele><time>2026-04-12T11:47:03Z</time></trkpt><trkpt lat="42.436946024618244" lon="14.18279492411706"><ele>11.0</ele><time>2026-04-12T11:47:04Z</time></trkpt><trkpt lat="42.43714650225389" lon="14.182950184318928"><ele>11.0</ele><time>2026-04-12T11:47:05Z</time></trkpt><trkpt lat="42.437346939724016" lon="14.183105839713134"><ele>11.0</ele><time>2026-04-12T11:47:06Z</time></trkpt><trkpt lat="42.43754852058136" lon="14.183259255923499"><ele>11.0</ele><time>2026-04-12T11:47:07Z</time></trkpt><trkpt lat="42.43775023209663" lon="14.183412480491544"><ele>11.0</ele><time>2026-04-12T11:47:08Z</time></trkpt><trkpt lat="42.43795150708018" lon="14.183565371695988"><ele>11.5</ele><time>2026-04-12T11:47:09Z</time></trkpt><trkpt lat="42.43815219377774" lon="14.183718796785799"><ele>12.0</ele><time>2026-04-12T11:47:10Z</time></trkpt><trkpt lat="42.438352566192556" lon="14.183870126698405"><ele>12.5</ele><time>2026-04-12T11:47:11Z</time></trkpt><trkpt lat="42.438553400440334" lon="14.184022823015122"><ele>13.0</ele><time>2026-04-12T11:47:12Z</time></trkpt><trkpt lat="42.43875241217068" lon="14.184177695276745"><ele>12.5</ele><time>2026-04-12T11:47:13Z</time></trkpt><trkpt lat="42.43895244327811" lon="14.184331763294223"><ele>12.0</ele><time>2026-04-12T11:47:14Z</time></trkpt><trkpt lat="42.43915287607151" lon="14.184484889000439"><ele>12.0</ele><time>2026-04-12T11:47:15Z</time></trkpt><trkpt lat="42.4393533016557" lon="14.184638836050997"><ele>12.0</ele><time>2026-04-12T11:47:16Z</time></trkpt><trkpt lat="42.43955277294996" lon="14.184793122656247"><ele>11.5</ele><time>2026-04-12T11:47:17Z</time></trkpt><trkpt lat="42.43975377083844" lon="14.184946288212121"><ele>11.0</ele><time>2026-04-12T11:47:18Z</time></trkpt><trkpt lat="42.4399538941385" lon="14.185101294111309"><ele>11.0</ele><time>2026-04-12T11:47:18.999Z</time></trkpt><trkpt lat="42.440154425081836" lon="14.1852567795555"><ele>11.0</ele><time>2026-04-12T11:47:19.999Z</time></trkpt><trkpt lat="42.440355336872905" lon="14.185411016143835"><ele>11.0</ele><time>2026-04-12T11:47:20.999Z</time></trkpt><trkpt lat="42.440556691031034" lon="14.185562915223434"><ele>11.0</ele><time>2026-04-12T11:47:21.999Z</time></trkpt><trkpt lat="42.44075833294065" lon="14.185718053767731"><ele>11.0</ele><time>2026-04-12T11:47:22.999Z</time></trkpt><trkpt lat="42.4409573743801" lon="14.185872982071098"><ele>11.0</ele><time>2026-04-12T11:47:23.999Z</time></trkpt><trkpt lat="42.441156451816305" lon="14.186026956249345"><ele>11.5</ele><time>2026-04-12T11:47:24.999Z</time></trkpt><trkpt lat="42.44135677295244" lon="14.18617993607883"><ele>12.0</ele><time>2026-04-12T11:47:25.999Z</time></trkpt><trkpt lat="42.44155794903719" lon="14.186330731293648"><ele>12.0</ele><time>2026-04-12T11:47:26.999Z</time></trkpt><trkpt lat="42.441759087315326" lon="14.186483804288054"><ele>12.0</ele><time>2026-04-12T11:47:27.999Z</time></trkpt><trkpt lat="42.441959621617066" lon="14.186639268980098"><ele>11.5</ele><time>2026-04-12T11:47:28.999Z</time></trkpt><trkpt lat="42.44215994512713" lon="14.186792767256048"><ele>11.0</ele><time>2026-04-12T11:47:29.999Z</time></trkpt><trkpt lat="42.4423618869037" lon="14.186946983375227"><ele>11.0</ele><time>2026-04-12T11:47:30.999Z</time></trkpt><trkpt lat="42.44256277706991" lon="14.187099211993932"><ele>11.0</ele><time>2026-04-12T11:47:31.999Z</time></trkpt><trkpt lat="42.442762946621926" lon="14.18725378861274"><ele>11.0</ele><time>2026-04-12T11:47:32.999Z</time></trkpt><trkpt lat="42.44296167479186" lon="14.18740967844081"><ele>11.0</ele><time>2026-04-12T11:47:33.999Z</time></trkpt><trkpt lat="42.44316091222235" lon="14.187566813522295"><ele>11.0</ele><time>2026-04-12T11:47:34.999Z</time></trkpt><trkpt lat="42.443359678654026" lon="14.187721045897135"><ele>11.0</ele><time>2026-04-12T11:47:35.999Z</time></trkpt><trkpt lat="42.44355785422646" lon="14.187875421814374"><ele>11.0</ele><time>2026-04-12T11:47:36.999Z</time></trkpt><trkpt lat="42.44375537110961" lon="14.188029841926374"><ele>11.0</ele><time>2026-04-12T11:47:37.999Z</time></trkpt><trkpt lat="42.44394419965502" lon="14.18817657494609"><ele>11.0</ele><time>2026-04-12T11:47:38.999Z</time></trkpt><trkpt lat="42.4441160667357" lon="14.188308769162006"><ele>10.333333333333332</ele><time>2026-04-12T11:47:39.999Z</time></trkpt><trkpt lat="42.4442747746227" lon="14.188443783964313"><ele>9.666666666666666</ele><time>2026-04-12T11:47:40.999Z</time></trkpt><trkpt lat="42.44441927816176" lon="14.188595320231414"><ele>9.0</ele><time>2026-04-12T11:47:41.999Z</time></trkpt><trkpt lat="42.44453809254542" lon="14.18874274980562"><ele>9.75</ele><time>2026-04-12T11:47:42.999Z</time></trkpt><trkpt lat="42.44464287207106" lon="14.188883159167982"><ele>10.5</ele><time>2026-04-12T11:47:43.999Z</time></trkpt><trkpt lat="42.44474714904747" lon="14.18901956989809"><ele>11.25</ele><time>2026-04-12T11:47:44.999Z</time></trkpt><trkpt lat="42.444834595149224" lon="14.189164232787174"><ele>12.0</ele><time>2026-04-12T11:47:45.999Z</time></trkpt><trkpt lat="42.444888770290724" lon="14.189311100241104"><ele>12.0</ele><time>2026-04-12T11:47:46.999Z</time></trkpt><trkpt lat="42.444905657244426" lon="14.189464536235999"><ele>12.0</ele><time>2026-04-12T11:47:47.999Z</time></trkpt><trkpt lat="42.44488821387923" lon="14.189624094639743"><ele>12.0</ele><time>2026-04-12T11:47:48.999Z</time></trkpt><trkpt lat="42.444839311570384" lon="14.189784472727991"><ele>12.0</ele><time>2026-04-12T11:47:49.999Z</time></trkpt><trkpt lat="42.44475746174147" lon="14.189933102676429"><ele>12.0</ele><time>2026-04-12T11:47:50.999Z</time></trkpt><trkpt lat="42.44465050558742" lon="14.19006782642485"><ele>12.0</ele><time>2026-04-12T11:47:51.999Z</time></trkpt><trkpt lat="42.44455801776103" lon="14.19021484231342"><ele>12.0</ele><time>2026-04-12T11:47:52.999Z</time></trkpt><trkpt lat="42.44446594309498" lon="14.190374347343633"><ele>12.0</ele><time>2026-04-12T11:47:53.999Z</time></trkpt><trkpt lat="42.44437479906206" lon="14.190530335543551"><ele>12.0</ele><time>2026-04-12T11:47:54.999Z</time></trkpt><trkpt lat="42.4442933834096" lon="14.190663751615167"><ele>12.0</ele><time>2026-04-12T11:47:55.999Z</time></trkpt><trkpt lat="42.44421996544835" lon="14.190792764747059"><ele>12.0</ele><time>2026-04-12T11:47:56.999Z</time></trkpt><trkpt lat="42.44415554015352" lon="14.190917538373672"><ele>12.0</ele><time>2026-04-12T11:47:57.999Z</time></trkpt><trkpt lat="42.444096255836136" lon="14.191044394304535"><ele>12.0</ele><time>2026-04-12T11:47:58.999Z</time></trkpt><trkpt lat="42.444034407507544" lon="14.191162578214238"><ele>12.0</ele><time>2026-04-12T11:47:59.999Z</time></trkpt><trkpt lat="42.44397033473129" lon="14.191274054225717"><ele>12.0</ele><time>2026-04-12T11:48:00.999Z</time></trkpt><trkpt lat="42.4439057495802" lon="14.191390611313635"><ele>12.0</ele><time>2026-04-12T11:48:01.999Z</time></trkpt><trkpt lat="42.44383283505125" lon="14.191532171736595"><ele>12.0</ele><time>2026-04-12T11:48:02.999Z</time></trkpt><trkpt lat="42.443749071101564" lon="14.191690129984606"><ele>11.0</ele><time>2026-04-12T11:48:03.999Z</time></trkpt><trkpt lat="42.44365101819729" lon="14.191857099021895"><ele>10.0</ele><time>2026-04-12T11:48:04.999Z</time></trkpt><trkpt lat="42.44354567738685" lon="14.192028521124291"><ele>9.0</ele><time>2026-04-12T11:48:05.999Z</time></trkpt><trkpt lat="42.443433686844266" lon="14.192212017923719"><ele>9.0</ele><time>2026-04-12T11:48:06.999Z</time></trkpt><trkpt lat="42.443315154288825" lon="14.192409820188088"><ele>9.0</ele><time>2026-04-12T11:48:07.999Z</time></trkpt><trkpt lat="42.443197683621555" lon="14.192609403547726"><ele>9.0</ele><time>2026-04-12T11:48:08.999Z</time></trkpt><trkpt lat="42.443077709463466" lon="14.192810332938645"><ele>9.333333333333334</ele><time>2026-04-12T11:48:09.999Z</time></trkpt><trkpt lat="42.44295296745225" lon="14.193025076952734"><ele>9.666666666666668</ele><time>2026-04-12T11:48:10.999Z</time></trkpt><trkpt lat="42.44282152432543" lon="14.193240498863243"><ele>10.0</ele><time>2026-04-12T11:48:11.999Z</time></trkpt><trkpt lat="42.44269007809562" lon="14.193453936779537"><ele>10.0</ele><time>2026-04-12T11:48:12.999Z</time></trkpt><trkpt lat="42.44255642457461" lon="14.193669719684745"><ele>10.0</ele><time>2026-04-12T11:48:13.999Z</time></trkpt><trkpt lat="42.44241802973234" lon="14.193895496424144"><ele>10.0</ele><time>2026-04-12T11:48:14.999Z</time></trkpt><trkpt lat="42.442276591306836" lon="14.19412807576077"><ele>10.0</ele><time>2026-04-12T11:48:15.999Z</time></trkpt><trkpt lat="42.44213421062118" lon="14.19436295459531"><ele>10.0</ele><time>2026-04-12T11:48:16.999Z</time></trkpt><trkpt lat="42.441996807018796" lon="14.194593629530997"><ele>10.0</ele><time>2026-04-12T11:48:17.999Z</time></trkpt><trkpt lat="42.441871599853265" lon="14.19481292271751"><ele>9.333333333333334</ele><time>2026-04-12T11:48:18.999Z</time></trkpt><trkpt lat="42.44173713554215" lon="14.19504724626175"><ele>8.666666666666666</ele><time>2026-04-12T11:48:19.999Z</time></trkpt><trkpt lat="42.44159538624234" lon="14.195285671891948"><ele>8.0</ele><time>2026-04-12T11:48:20.999Z</time></trkpt><trkpt lat="42.441450962854574" lon="14.195521223523386"><ele>9.0</ele><time>2026-04-12T11:48:21.999Z</time></trkpt><trkpt lat="42.44130422647083" lon="14.19575779073459"><ele>10.0</ele><time>2026-04-12T11:48:22.999Z</time></trkpt><trkpt lat="42.44115718701869" lon="14.195993769440706"><ele>10.5</ele><time>2026-04-12T11:48:23.998Z</time></trkpt><trkpt lat="42.441008584284084" lon="14.196232013551935"><ele>11.0</ele><time>2026-04-12T11:48:24.998Z</time></trkpt><trkpt lat="42.440858946084994" lon="14.196472369159324"><ele>10.5</ele><time>2026-04-12T11:48:25.998Z</time></trkpt><trkpt lat="42.440710609879474" lon="14.196712990695302"><ele>10.0</ele><time>2026-04-12T11:48:26.998Z</time></trkpt><trkpt lat="42.440562688792035" lon="14.196952963774486"><ele>10.5</ele><time>2026-04-12T11:48:27.998Z</time></trkpt><trkpt lat="42.44041405829563" lon="14.197197008405427"><ele>11.0</ele><time>2026-04-12T11:48:28.998Z</time></trkpt><trkpt lat="42.440267306643335" lon="14.197437497842637"><ele>11.0</ele><time>2026-04-12T11:48:29.998Z</time></trkpt><trkpt lat="42.44012126777952" lon="14.197675492107308"><ele>11.0</ele><time>2026-04-12T11:48:30.998Z</time></trkpt><trkpt lat="42.439975685131195" lon="14.197914714675964"><ele>11.0</ele><time>2026-04-12T11:48:31.998Z</time></trkpt><trkpt lat="42.4398287630841" lon="14.198154257267122"><ele>11.0</ele><time>2026-04-12T11:48:32.998Z</time></trkpt><trkpt lat="42.43968175821644" lon="14.198392367175407"><ele>11.0</ele><time>2026-04-12T11:48:33.998Z</time></trkpt><trkpt lat="42.43953391366419" lon="14.198629461048052"><ele>11.0</ele><time>2026-04-12T11:48:34.998Z</time></trkpt><trkpt lat="42.43938304806371" lon="14.198866364523015"><ele>11.0</ele><time>2026-04-12T11:48:35.998Z</time></trkpt><trkpt lat="42.43923387358418" lon="14.199102606113808"><ele>11.0</ele><time>2026-04-12T11:48:36.998Z</time></trkpt><trkpt lat="42.43908365290418" lon="14.199338344700031"><ele>11.0</ele><time>2026-04-12T11:48:37.998Z</time></trkpt><trkpt lat="42.43893242366922" lon="14.199572000819277"><ele>11.0</ele><time>2026-04-12T11:48:38.998Z</time></trkpt><trkpt lat="42.43877953615157" lon="14.199803445613597"><ele>10.0</ele><time>2026-04-12T11:48:39.998Z</time></trkpt><trkpt lat="42.438625955432194" lon="14.200035357494965"><ele>9.0</ele><time>2026-04-12T11:48:40.998Z</time></trkpt><trkpt lat="42.43847025514243" lon="14.200267037447682"><ele>9.0</ele><time>2026-04-12T11:48:41.998Z</time></trkpt><trkpt lat="42.43831297742116" lon="14.200496516690238"><ele>9.0</ele><time>2026-04-12T11:48:42.998Z</time></trkpt><trkpt lat="42.438155210097854" lon="14.200725568868794"><ele>9.5</ele><time>2026-04-12T11:48:44Z</time></trkpt><trkpt lat="42.437995097087885" lon="14.200953279501705"><ele>10.0</ele><time>2026-04-12T11:48:45Z</time></trkpt><trkpt lat="42.43783510503924" lon="14.201179348719824"><ele>10.0</ele><time>2026-04-12T11:48:46Z</time></trkpt><trkpt lat="42.437671874134345" lon="14.201405252363221"><ele>10.0</ele><time>2026-04-12T11:48:47Z</time></trkpt><trkpt lat="42.43750815987164" lon="14.201630143479726"><ele>11.0</ele><time>2026-04-12T11:48:48Z</time></trkpt><trkpt lat="42.43734247200421" lon="14.201854191508843"><ele>12.0</ele><time>2026-04-12T11:48:49Z</time></trkpt><trkpt lat="42.43717561010578" lon="14.202076131397774"><ele>12.5</ele><time>2026-04-12T11:48:50Z</time></trkpt><trkpt lat="42.43700788913123" lon="14.202298417785421"><ele>13.0</ele><time>2026-04-12T11:48:51Z</time></trkpt><trkpt lat="42.43683899215403" lon="14.202520423532764"><ele>13.0</ele><time>2026-04-12T11:48:52Z</time></trkpt><trkpt lat="42.436668839280124" lon="14.202743073897214"><ele>13.0</ele><time>2026-04-12T11:48:53Z</time></trkpt><trkpt lat="42.43650020130982" lon="14.202965254032117"><ele>12.0</ele><time>2026-04-12T11:48:54Z</time></trkpt><trkpt lat="42.43633560466366" lon="14.203193914971473"><ele>11.0</ele><time>2026-04-12T11:48:55Z</time></trkpt><trkpt lat="42.43618021575896" lon="14.203433089165776"><ele>11.0</ele><time>2026-04-12T11:48:56Z</time></trkpt><trkpt lat="42.43603414015352" lon="14.203678324752287"><ele>11.0</ele><time>2026-04-12T11:48:57Z</time></trkpt><trkpt lat="42.43589827367484" lon="14.203934434872233"><ele>12.5</ele><time>2026-04-12T11:48:58Z</time></trkpt><trkpt lat="42.435774227253596" lon="14.204201732651711"><ele>14.0</ele><time>2026-04-12T11:48:59Z</time></trkpt><trkpt lat="42.43566171664816" lon="14.204480253933848"><ele>14.0</ele><time>2026-04-12T11:49:00Z</time></trkpt><trkpt lat="42.43556503864541" lon="14.204770280659309"><ele>14.0</ele><time>2026-04-12T11:49:01Z</time></trkpt><trkpt lat="42.43548241186941" lon="14.20506521122084"><ele>14.0</ele><time>2026-04-12T11:49:02Z</time></trkpt><trkpt lat="42.43541096278839" lon="14.20536179496351"><ele>14.0</ele><time>2026-04-12T11:49:03Z</time></trkpt><trkpt lat="42.43536035972338" lon="14.205663480990992"><ele>14.666666666666668</ele><time>2026-04-12T11:49:04Z</time></trkpt><trkpt lat="42.4353196646793" lon="14.205946495518074"><ele>15.333333333333332</ele><time>2026-04-12T11:49:05Z</time></trkpt><trkpt lat="42.435292656533974" lon="14.206205800829883"><ele>16.0</ele><time>2026-04-12T11:49:06Z</time></trkpt><trkpt lat="42.43526797896356" lon="14.206440406626813"><ele>16.75</ele><time>2026-04-12T11:49:07Z</time></trkpt><trkpt lat="42.43523276998002" lon="14.206645362375118"><ele>17.5</ele><time>2026-04-12T11:49:08Z</time></trkpt><trkpt lat="42.435180455175114" lon="14.206807155393234"><ele>18.25</ele><time>2026-04-12T11:49:09Z</time></trkpt><trkpt lat="42.435102391417175" lon="14.206938389937894"><ele>19.0</ele><time>2026-04-12T11:49:10Z</time></trkpt><trkpt lat="42.435007656798426" lon="14.207028528422438"><ele>19.0</ele><time>2026-04-12T11:49:11Z</time></trkpt><trkpt lat="42.43489541454531" lon="14.207080714665492"><ele>19.0</ele><time>2026-04-12T11:49:12Z</time></trkpt><trkpt lat="42.43478362309902" lon="14.207073677694758"><ele>19.0</ele><time>2026-04-12T11:49:13Z</time></trkpt><trkpt lat="42.434678564043296" lon="14.207015738668801"><ele>19.0</ele><time>2026-04-12T11:49:14Z</time></trkpt><trkpt lat="42.43458372436315" lon="14.206916098115524"><ele>20.0</ele><time>2026-04-12T11:49:15Z</time></trkpt><trkpt lat="42.434515498318284" lon="14.20676967166826"><ele>21.0</ele><time>2026-04-12T11:49:16Z</time></trkpt><trkpt lat="42.43448772684617" lon="14.206617272262324"><ele>22.0</ele><time>2026-04-12T11:49:17Z</time></trkpt><trkpt lat="42.43450524306029" lon="14.206465843880148"><ele>23.0</ele><time>2026-04-12T11:49:18Z</time></trkpt><trkpt lat="42.43455630679501" lon="14.206314097330242"><ele>21.25</ele><time>2026-04-12T11:49:19Z</time></trkpt><trkpt lat="42.43464149570925" lon="14.206186005564883"><ele>19.5</ele><time>2026-04-12T11:49:20Z</time></trkpt><trkpt lat="42.434757465711556" lon="14.206084277374336"><ele>17.75</ele><time>2026-04-12T11:49:21Z</time></trkpt><trkpt lat="42.43489077071859" lon="14.205997420339425"><ele>16.0</ele><time>2026-04-12T11:49:22Z</time></trkpt><trkpt lat="42.43501334048292" lon="14.205920433045446"><ele>16.0</ele><time>2026-04-12T11:49:23Z</time></trkpt><trkpt lat="42.43512012412828" lon="14.205866991993851"><ele>16.0</ele><time>2026-04-12T11:49:24Z</time></trkpt><trkpt lat="42.43522270160329" lon="14.205841687654663"><ele>16.0</ele><time>2026-04-12T11:49:24.999Z</time></trkpt><trkpt lat="42.43532015248119" lon="14.205850143027856"><ele>16.0</ele><time>2026-04-12T11:49:25.999Z</time></trkpt><trkpt lat="42.43541941254963" lon="14.20584788140347"><ele>16.0</ele><time>2026-04-12T11:49:26.999Z</time></trkpt><trkpt lat="42.43550699538193" lon="14.20580671028815"><ele>15.833333333333332</ele><time>2026-04-12T11:49:27.999Z</time></trkpt><trkpt lat="42.435567541847" lon="14.205733254241736"><ele>15.666666666666666</ele><time>2026-04-12T11:49:28.999Z</time></trkpt><trkpt lat="42.435593946568616" lon="14.205638093868213"><ele>15.5</ele><time>2026-04-12T11:49:29.999Z</time></trkpt><trkpt lat="42.43558314175386" lon="14.205538861165676"><ele>15.333333333333332</ele><time>2026-04-12T11:49:30.999Z</time></trkpt><trkpt lat="42.43553457700812" lon="14.205443584941607"><ele>15.166666666666666</ele><time>2026-04-12T11:49:31.999Z</time></trkpt><trkpt lat="42.4354581358472" lon="14.205376393341709"><ele>15.0</ele><time>2026-04-12T11:49:32.999Z</time></trkpt><trkpt lat="42.43537611323236" lon="14.205314713526475"><ele>15.0</ele><time>2026-04-12T11:49:33.999Z</time></trkpt><trkpt lat="42.435340363400705" lon="14.205215803445286"><ele>15.0</ele><time>2026-04-12T11:49:34.999Z</time></trkpt><trkpt lat="42.435338633516146" lon="14.205082404825404"><ele>15.0</ele><time>2026-04-12T11:49:35.999Z</time></trkpt><trkpt lat="42.435377950960245" lon="14.204910995484443"><ele>15.0</ele><time>2026-04-12T11:49:36.999Z</time></trkpt><trkpt lat="42.435423922131655" lon="14.204805634992548"><ele>15.0</ele><time>2026-04-12T11:49:37.999Z</time></trkpt><trkpt lat="42.43591046905038" lon="14.205362377226836"><ele>15.0</ele><time>2026-04-12T11:49:39.999Z</time></trkpt><trkpt lat="42.43589457454534" lon="14.205220429041281"><ele>15.0</ele><time>2026-04-12T11:49:41.999Z</time></trkpt><trkpt lat="42.43589107441091" lon="14.205131622117102"><ele>15.0</ele><time>2026-04-12T11:49:42.999Z</time></trkpt><trkpt lat="42.4358813738034" lon="14.205017085404219"><ele>15.0</ele><time>2026-04-12T11:49:43.999Z</time></trkpt><trkpt lat="42.435879315357624" lon="14.204895253880455"><ele>15.0</ele><time>2026-04-12T11:49:44.999Z</time></trkpt><trkpt lat="42.43586296687478" lon="14.204732479402685"><ele>14.8</ele><time>2026-04-12T11:49:46.999Z</time></trkpt><trkpt lat="42.43588315501109" lon="14.204651205469608"><ele>14.6</ele><time>2026-04-12T11:49:48.999Z</time></trkpt><trkpt lat="42.43590682381827" lon="14.204549293363478"><ele>14.399999999999999</ele><time>2026-04-12T11:49:50.999Z</time></trkpt><trkpt lat="42.43603264671571" lon="14.204475916073019"><ele>14.2</ele><time>2026-04-12T11:49:52.999Z</time></trkpt><trkpt lat="42.436188996599654" lon="14.20444842778881"><ele>14.0</ele><time>2026-04-12T11:49:54.999Z</time></trkpt><trkpt lat="42.43631263970208" lon="14.20446681039417"><ele>13.25</ele><time>2026-04-12T11:49:55.999Z</time></trkpt><trkpt lat="42.436433950554225" lon="14.204482428797261"><ele>12.5</ele><time>2026-04-12T11:49:56.999Z</time></trkpt><trkpt lat="42.43657181228934" lon="14.204518268452519"><ele>11.75</ele><time>2026-04-12T11:49:57.999Z</time></trkpt><trkpt lat="42.4367176622276" lon="14.204561179376716"><ele>11.0</ele><time>2026-04-12T11:49:58.999Z</time></trkpt><trkpt lat="42.43683383588086" lon="14.204595624070613"><ele>11.0</ele><time>2026-04-12T11:49:59.999Z</time></trkpt><trkpt lat="42.436955745784125" lon="14.204639194961251"><ele>11.0</ele><time>2026-04-12T11:50:00.999Z</time></trkpt><trkpt lat="42.43709474673612" lon="14.204698451174629"><ele>11.0</ele><time>2026-04-12T11:50:01.999Z</time></trkpt><trkpt lat="42.4372183048177" lon="14.204725158462761"><ele>11.0</ele><time>2026-04-12T11:50:02.999Z</time></trkpt><trkpt lat="42.437333026557006" lon="14.204759976444342"><ele>10.5</ele><time>2026-04-12T11:50:03.999Z</time></trkpt><trkpt lat="42.43744038183565" lon="14.204803923185253"><ele>10.0</ele><time>2026-04-12T11:50:04.999Z</time></trkpt><trkpt lat="42.43754106122383" lon="14.204859324161836"><ele>9.5</ele><time>2026-04-12T11:50:05.999Z</time></trkpt><trkpt lat="42.43764460434548" lon="14.204928270792047"><ele>9.0</ele><time>2026-04-12T11:50:06.999Z</time></trkpt><trkpt lat="42.43774074920311" lon="14.205015207387882"><ele>9.0</ele><time>2026-04-12T11:50:07.999Z</time></trkpt><trkpt lat="42.437826353902246" lon="14.205115624888002"><ele>9.0</ele><time>2026-04-12T11:50:08.999Z</time></trkpt><trkpt lat="42.437898822736095" lon="14.205210538337164"><ele>9.0</ele><time>2026-04-12T11:50:09.999Z</time></trkpt><trkpt lat="42.43796275186262" lon="14.205298564068233"><ele>9.0</ele><time>2026-04-12T11:50:10.999Z</time></trkpt><trkpt lat="42.43802742746671" lon="14.205381430095605"><ele>9.0</ele><time>2026-04-12T11:50:11.999Z</time></trkpt><trkpt lat="42.438092431215104" lon="14.205463801093426"><ele>8.6</ele><time>2026-04-12T11:50:12.999Z</time></trkpt><trkpt lat="42.43815832791971" lon="14.205547874356418"><ele>8.2</ele><time>2026-04-12T11:50:13.999Z</time></trkpt><trkpt lat="42.43822696574685" lon="14.205634786869185"><ele>7.799999999999999</ele><time>2026-04-12T11:50:14.999Z</time></trkpt><trkpt lat="42.438301219149466" lon="14.205728612222146"><ele>7.3999999999999995</ele><time>2026-04-12T11:50:15.999Z</time></trkpt><trkpt lat="42.43838207052024" lon="14.205826481655084"><ele>7.0</ele><time>2026-04-12T11:50:16.999Z</time></trkpt><trkpt lat="42.43847877580618" lon="14.205934576685312"><ele>7.0</ele><time>2026-04-12T11:50:17.999Z</time></trkpt><trkpt lat="42.4385668828632" lon="14.206077053977657"><ele>7.0</ele><time>2026-04-12T11:50:18.999Z</time></trkpt><trkpt lat="42.438672220882786" lon="14.206211649033186"><ele>7.0</ele><time>2026-04-12T11:50:19.999Z</time></trkpt><trkpt lat="42.43876392258629" lon="14.206355769869058"><ele>7.0</ele><time>2026-04-12T11:50:20.999Z</time></trkpt><trkpt lat="42.43885723504399" lon="14.20649420199688"><ele>7.0</ele><time>2026-04-12T11:50:21.999Z</time></trkpt><trkpt lat="42.43896105359745" lon="14.206643041986702"><ele>7.0</ele><time>2026-04-12T11:50:22.999Z</time></trkpt><trkpt lat="42.439074216745524" lon="14.20679708895152"><ele>7.0</ele><time>2026-04-12T11:50:23.999Z</time></trkpt><trkpt lat="42.439190910945925" lon="14.206952041439372"><ele>7.0</ele><time>2026-04-12T11:50:24.999Z</time></trkpt><trkpt lat="42.439305368569" lon="14.2071183020621"><ele>7.0</ele><time>2026-04-12T11:50:25.999Z</time></trkpt><trkpt lat="42.43942309470449" lon="14.207285664160274"><ele>7.0</ele><time>2026-04-12T11:50:26.999Z</time></trkpt><trkpt lat="42.43954291989279" lon="14.207451049063033"><ele>8.666666666666668</ele><time>2026-04-12T11:50:27.999Z</time></trkpt><trkpt lat="42.439660288992954" lon="14.207621928561894"><ele>10.333333333333334</ele><time>2026-04-12T11:50:28.998Z</time></trkpt><trkpt lat="42.439778970236915" lon="14.20779373097488"><ele>12.0</ele><time>2026-04-12T11:50:29.998Z</time></trkpt><trkpt lat="42.43989871706367" lon="14.207961730334208"><ele>12.0</ele><time>2026-04-12T11:50:30.998Z</time></trkpt><trkpt lat="42.44001775993921" lon="14.208125601756464"><ele>12.0</ele><time>2026-04-12T11:50:31.998Z</time></trkpt><trkpt lat="42.44012976121073" lon="14.208289344516645"><ele>12.0</ele><time>2026-04-12T11:50:32.998Z</time></trkpt><trkpt lat="42.44024502160195" lon="14.208450641112492"><ele>10.666666666666666</ele><time>2026-04-12T11:50:33.998Z</time></trkpt><trkpt lat="42.44036234035234" lon="14.208618539062934"><ele>9.333333333333332</ele><time>2026-04-12T11:50:34.998Z</time></trkpt><trkpt lat="42.440482336838905" lon="14.208785390654704"><ele>8.0</ele><time>2026-04-12T11:50:35.998Z</time></trkpt><trkpt lat="42.44060201058904" lon="14.208955120680486"><ele>7.0</ele><time>2026-04-12T11:50:36.998Z</time></trkpt><trkpt lat="42.440719550141836" lon="14.209127158383659"><ele>6.0</ele><time>2026-04-12T11:50:37.998Z</time></trkpt><trkpt lat="42.44083091949107" lon="14.209307919513249"><ele>5.0</ele><time>2026-04-12T11:50:38.998Z</time></trkpt><trkpt lat="42.440939229685284" lon="14.209491642835243"><ele>5.0</ele><time>2026-04-12T11:50:39.998Z</time></trkpt><trkpt lat="42.441038792560924" lon="14.20968371967802"><ele>5.0</ele><time>2026-04-12T11:50:40.998Z</time></trkpt><trkpt lat="42.441135822429786" lon="14.209884217412437"><ele>5.0</ele><time>2026-04-12T11:50:41.998Z</time></trkpt><trkpt lat="42.44122928126849" lon="14.210086648759992"><ele>5.0</ele><time>2026-04-12T11:50:42.998Z</time></trkpt><trkpt lat="42.441323744185944" lon="14.210286160855023"><ele>5.0</ele><time>2026-04-12T11:50:43.998Z</time></trkpt><trkpt lat="42.44142133687793" lon="14.210485973156567"><ele>5.0</ele><time>2026-04-12T11:50:44.998Z</time></trkpt><trkpt lat="42.441519509997136" lon="14.210686961614595"><ele>4.666666666666667</ele><time>2026-04-12T11:50:45.998Z</time></trkpt><trkpt lat="42.441614195943814" lon="14.210884570934654"><ele>4.333333333333333</ele><time>2026-04-12T11:50:46.998Z</time></trkpt><trkpt lat="42.44170865866311" lon="14.211083073801152"><ele>4.0</ele><time>2026-04-12T11:50:47.998Z</time></trkpt><trkpt lat="42.441804111188084" lon="14.211280187491116"><ele>4.0</ele><time>2026-04-12T11:50:48.998Z</time></trkpt><trkpt lat="42.441898586207856" lon="14.21147629590551"><ele>4.0</ele><time>2026-04-12T11:50:50Z</time></trkpt><trkpt lat="42.44199361127318" lon="14.211674095475527"><ele>4.0</ele><time>2026-04-12T11:50:51Z</time></trkpt><trkpt lat="42.44208611994953" lon="14.211874303975728"><ele>5.0</ele><time>2026-04-12T11:50:52Z</time></trkpt><trkpt lat="42.44218121700522" lon="14.212072526688592"><ele>6.0</ele><time>2026-04-12T11:50:53Z</time></trkpt><trkpt lat="42.44227208218383" lon="14.212273884295488"><ele>7.0</ele><time>2026-04-12T11:50:54Z</time></trkpt><trkpt lat="42.44236347892355" lon="14.212476890864682"><ele>8.0</ele><time>2026-04-12T11:50:55Z</time></trkpt><trkpt lat="42.4424567676531" lon="14.212671877442874"><ele>9.0</ele><time>2026-04-12T11:50:56Z</time></trkpt><trkpt lat="42.4425563792977" lon="14.212863864689924"><ele>10.0</ele><time>2026-04-12T11:50:57Z</time></trkpt><trkpt lat="42.44263560460437" lon="14.213070493446848"><ele>9.666666666666668</ele><time>2026-04-12T11:50:58Z</time></trkpt><trkpt lat="42.44272589055669" lon="14.213262586381132"><ele>9.333333333333334</ele><time>2026-04-12T11:50:59Z</time></trkpt><trkpt lat="42.44281721081066" lon="14.213460083269995"><ele>9.0</ele><time>2026-04-12T11:51:00Z</time></trkpt><trkpt lat="42.44289858886441" lon="14.213635671542821"><ele>9.0</ele><time>2026-04-12T11:51:01Z</time></trkpt><trkpt lat="42.44295609788201" lon="14.213759757992243"><ele>9.0</ele><time>2026-04-12T11:51:02Z</time></trkpt><trkpt lat="42.44299609027" lon="14.213846404855358"><ele>9.0</ele><time>2026-04-12T11:51:03Z</time></trkpt><trkpt lat="42.44287131407835" lon="14.213884252903538"><ele>9.0</ele><time>2026-04-12T11:51:07Z</time></trkpt><trkpt lat="42.44277918483999" lon="14.213875552222154"><ele>9.0</ele><time>2026-04-12T11:51:08Z</time></trkpt><trkpt lat="42.442684230506366" lon="14.213866295416523"><ele>9.0</ele><time>2026-04-12T11:51:09Z</time></trkpt><trkpt lat="42.4425645054201" lon="14.21385474419189"><ele>9.0</ele><time>2026-04-12T11:51:10Z</time></trkpt><trkpt lat="42.442431827955936" lon="14.213843929592965"><ele>9.0</ele><time>2026-04-12T11:51:11Z</time></trkpt><trkpt lat="42.44230468218803" lon="14.213839494632527"><ele>9.0</ele><time>2026-04-12T11:51:12Z</time></trkpt><trkpt lat="42.44217399848294" lon="14.213837084556193"><ele>8.666666666666666</ele><time>2026-04-12T11:51:13Z</time></trkpt><trkpt lat="42.44203013528737" lon="14.213834431425237"><ele>8.333333333333332</ele><time>2026-04-12T11:51:14Z</time></trkpt><trkpt lat="42.44187670586591" lon="14.21383091460679"><ele>8.0</ele><time>2026-04-12T11:51:15Z</time></trkpt><trkpt lat="42.44172269065392" lon="14.213825321729896"><ele>8.0</ele><time>2026-04-12T11:51:16Z</time></trkpt><trkpt lat="42.441563598928475" lon="14.213818423831226"><ele>8.0</ele><time>2026-04-12T11:51:17Z</time></trkpt><trkpt lat="42.44140148746105" lon="14.213826552512266"><ele>8.0</ele><time>2026-04-12T11:51:18Z</time></trkpt><trkpt lat="42.441240674124565" lon="14.213805637532527"><ele>12.0</ele><time>2026-04-12T11:51:19Z</time></trkpt><trkpt lat="42.44108120446966" lon="14.213783274305444"><ele>16.0</ele><time>2026-04-12T11:51:20Z</time></trkpt><trkpt lat="42.44092458969938" lon="14.213758349208844"><ele>20.0</ele><time>2026-04-12T11:51:21Z</time></trkpt><trkpt lat="42.440767943681244" lon="14.213729850883151"><ele>20.0</ele><time>2026-04-12T11:51:22Z</time></trkpt><trkpt lat="42.44061311919906" lon="14.213714742321708"><ele>20.0</ele><time>2026-04-12T11:51:23Z</time></trkpt><trkpt lat="42.440463414050946" lon="14.213724428589524"><ele>20.0</ele><time>2026-04-12T11:51:24Z</time></trkpt><trkpt lat="42.440320185921" lon="14.213768577378305"><ele>20.333333333333336</ele><time>2026-04-12T11:51:25Z</time></trkpt><trkpt lat="42.440183868683775" lon="14.213846641487756"><ele>20.666666666666668</ele><time>2026-04-12T11:51:26Z</time></trkpt><trkpt lat="42.44005429891076" lon="14.213956884726192"><ele>21.0</ele><time>2026-04-12T11:51:27Z</time></trkpt><trkpt lat="42.4399242528311" lon="14.21407667589967"><ele>21.0</ele><time>2026-04-12T11:51:27.999Z</time></trkpt><trkpt lat="42.4397837888583" lon="14.214178349826318"><ele>21.0</ele><time>2026-04-12T11:51:28.999Z</time></trkpt><trkpt lat="42.43963944072996" lon="14.214268300962177"><ele>21.0</ele><time>2026-04-12T11:51:29.999Z</time></trkpt><trkpt lat="42.43948947358332" lon="14.214350104878465"><ele>24.0</ele><time>2026-04-12T11:51:30.999Z</time></trkpt><trkpt lat="42.4393420150214" lon="14.214439586241099"><ele>27.0</ele><time>2026-04-12T11:51:31.999Z</time></trkpt><trkpt lat="42.43919833130012" lon="14.214537911431025"><ele>30.0</ele><time>2026-04-12T11:51:32.999Z</time></trkpt><trkpt lat="42.439059226701154" lon="14.214639831262183"><ele>30.0</ele><time>2026-04-12T11:51:33.999Z</time></trkpt><trkpt lat="42.43892002833205" lon="14.214752199039074"><ele>30.0</ele><time>2026-04-12T11:51:34.999Z</time></trkpt><trkpt lat="42.43877909295092" lon="14.214857535648624"><ele>30.0</ele><time>2026-04-12T11:51:35.999Z</time></trkpt><trkpt lat="42.43862929303765" lon="14.214934568127104"><ele>34.333333333333336</ele><time>2026-04-12T11:51:36.999Z</time></trkpt><trkpt lat="42.43847435120179" lon="14.214993602130194"><ele>38.66666666666667</ele><time>2026-04-12T11:51:37.999Z</time></trkpt><trkpt lat="42.438321317498215" lon="14.21503997808135"><ele>43.0</ele><time>2026-04-12T11:51:38.999Z</time></trkpt><trkpt lat="42.43817017613154" lon="14.215065782685699"><ele>43.0</ele><time>2026-04-12T11:51:39.999Z</time></trkpt><trkpt lat="42.43801158807157" lon="14.21506621374291"><ele>43.0</ele><time>2026-04-12T11:51:40.999Z</time></trkpt><trkpt lat="42.43785947223716" lon="14.215040629015386"><ele>43.0</ele><time>2026-04-12T11:51:41.999Z</time></trkpt><trkpt lat="42.43773383342822" lon="14.215015131559955"><ele>43.0</ele><time>2026-04-12T11:51:42.999Z</time></trkpt><trkpt lat="42.43762690905702" lon="14.21500217222994"><ele>43.4</ele><time>2026-04-12T11:51:43.999Z</time></trkpt><trkpt lat="42.43753825347538" lon="14.214998668991699"><ele>43.8</ele><time>2026-04-12T11:51:44.999Z</time></trkpt><trkpt lat="42.43745482292119" lon="14.21501144307431"><ele>44.2</ele><time>2026-04-12T11:51:45.999Z</time></trkpt><trkpt lat="42.437354330170805" lon="14.215016058807525"><ele>44.6</ele><time>2026-04-12T11:51:46.999Z</time></trkpt><trkpt lat="42.437246291000314" lon="14.215022459559775"><ele>45.0</ele><time>2026-04-12T11:51:47.999Z</time></trkpt><trkpt lat="42.43713827690301" lon="14.215068127449243"><ele>44.25</ele><time>2026-04-12T11:51:48.999Z</time></trkpt><trkpt lat="42.4370267283299" lon="14.215166598697214"><ele>43.5</ele><time>2026-04-12T11:51:49.999Z</time></trkpt><trkpt lat="42.43693809356393" lon="14.215283602932862"><ele>42.75</ele><time>2026-04-12T11:51:50.999Z</time></trkpt><trkpt lat="42.43684925116579" lon="14.215389300686466"><ele>42.0</ele><time>2026-04-12T11:51:51.999Z</time></trkpt><trkpt lat="42.436759745425064" lon="14.215514600417922"><ele>45.33333333333333</ele><time>2026-04-12T11:51:52.999Z</time></trkpt><trkpt lat="42.436660723230396" lon="14.215679408756138"><ele>48.666666666666664</ele><time>2026-04-12T11:51:53.999Z</time></trkpt><trkpt lat="42.436568515158235" lon="14.21584661304345"><ele>52.0</ele><time>2026-04-12T11:51:54.999Z</time></trkpt><trkpt lat="42.43646739030119" lon="14.216005195004824"><ele>52.0</ele><time>2026-04-12T11:51:55.999Z</time></trkpt><trkpt lat="42.43636793735179" lon="14.216158346312943"><ele>52.0</ele><time>2026-04-12T11:51:56.999Z</time></trkpt><trkpt lat="42.43628401726307" lon="14.216282243729902"><ele>52.0</ele><time>2026-04-12T11:51:57.999Z</time></trkpt><trkpt lat="42.43620510607838" lon="14.216390169470063"><ele>52.0</ele><time>2026-04-12T11:51:58.999Z</time></trkpt><trkpt lat="42.43612007516634" lon="14.216501663006964"><ele>52.400000000000006</ele><time>2026-04-12T11:51:59.999Z</time></trkpt><trkpt lat="42.43602349665249" lon="14.216605992705412"><ele>52.800000000000004</ele><time>2026-04-12T11:52:00.999Z</time></trkpt><trkpt lat="42.435932186203985" lon="14.216681574980488"><ele>53.2</ele><time>2026-04-12T11:52:01.999Z</time></trkpt><trkpt lat="42.435850973487376" lon="14.216741239240633"><ele>53.6</ele><time>2026-04-12T11:52:02.999Z</time></trkpt><trkpt lat="42.43578131405759" lon="14.21678370555783"><ele>54.0</ele><time>2026-04-12T11:52:03.999Z</time></trkpt><trkpt lat="42.43561649125281" lon="14.216768628935208"><ele>54.0</ele><time>2026-04-12T11:52:05.999Z</time></trkpt><trkpt lat="42.43549462674087" lon="14.216730938686961"><ele>54.0</ele><time>2026-04-12T11:52:06.999Z</time></trkpt><trkpt lat="42.43537070965313" lon="14.21668890380727"><ele>54.0</ele><time>2026-04-12T11:52:07.999Z</time></trkpt><trkpt lat="42.43527660754906" lon="14.216681115003396"><ele>54.0</ele><time>2026-04-12T11:52:08.999Z</time></trkpt><trkpt lat="42.435164732443056" lon="14.216568019537815"><ele>56.6</ele><time>2026-04-12T11:52:10.999Z</time></trkpt><trkpt lat="42.43508535311854" lon="14.216469428694632"><ele>59.2</ele><time>2026-04-12T11:52:11.999Z</time></trkpt><trkpt lat="42.434994490799944" lon="14.21637056005245"><ele>61.800000000000004</ele><time>2026-04-12T11:52:12.999Z</time></trkpt><trkpt lat="42.43491491983294" lon="14.21626851191199"><ele>64.4</ele><time>2026-04-12T11:52:13.999Z</time></trkpt><trkpt lat="42.43485266988301" lon="14.216190134517769"><ele>67.0</ele><time>2026-04-12T11:52:14.999Z</time></trkpt><trkpt lat="42.434774797510876" lon="14.216112835299867"><ele>67.0</ele><time>2026-04-12T11:52:15.999Z</time></trkpt><trkpt lat="42.43467313090287" lon="14.216039619726669"><ele>67.0</ele><time>2026-04-12T11:52:16.999Z</time></trkpt><trkpt lat="42.43456748824533" lon="14.215943459856454"><ele>67.0</ele><time>2026-04-12T11:52:17.999Z</time></trkpt><trkpt lat="42.434463397866814" lon="14.215838384667913"><ele>67.0</ele><time>2026-04-12T11:52:18.999Z</time></trkpt><trkpt lat="42.434358946128796" lon="14.215723591192864"><ele>70.5</ele><time>2026-04-12T11:52:19.999Z</time></trkpt><trkpt lat="42.434271895546125" lon="14.215621754883342"><ele>74.0</ele><time>2026-04-12T11:52:20.999Z</time></trkpt><trkpt lat="42.434180152476785" lon="14.215531510085372"><ele>77.5</ele><time>2026-04-12T11:52:21.999Z</time></trkpt><trkpt lat="42.43405717144683" lon="14.21550986962208"><ele>81.0</ele><time>2026-04-12T11:52:22.999Z</time></trkpt><trkpt lat="42.43393370530741" lon="14.215470623807546"><ele>81.0</ele><time>2026-04-12T11:52:23.999Z</time></trkpt><trkpt lat="42.433806767317044" lon="14.21544580544119"><ele>81.0</ele><time>2026-04-12T11:52:24.999Z</time></trkpt><trkpt lat="42.43367531760981" lon="14.215451082921533"><ele>81.0</ele><time>2026-04-12T11:52:25.999Z</time></trkpt><trkpt lat="42.433553609276686" lon="14.215456541830497"><ele>81.0</ele><time>2026-04-12T11:52:26.999Z</time></trkpt><trkpt lat="42.433443697041454" lon="14.215478198704206"><ele>80.6</ele><time>2026-04-12T11:52:27.999Z</time></trkpt><trkpt lat="42.43333436634687" lon="14.215460558239077"><ele>80.19999999999999</ele><time>2026-04-12T11:52:28.999Z</time></trkpt><trkpt lat="42.43322273974005" lon="14.215467158659772"><ele>79.80000000000001</ele><time>2026-04-12T11:52:29.999Z</time></trkpt><trkpt lat="42.4331230528416" lon="14.215462992445241"><ele>79.4</ele><time>2026-04-12T11:52:30.998Z</time></trkpt><trkpt lat="42.43301984695716" lon="14.215460433121356"><ele>79.0</ele><time>2026-04-12T11:52:31.998Z</time></trkpt><trkpt lat="42.43291560063574" lon="14.21542621319709"><ele>78.0</ele><time>2026-04-12T11:52:32.998Z</time></trkpt><trkpt lat="42.432833455838264" lon="14.215388158103218"><ele>77.0</ele><time>2026-04-12T11:52:33.998Z</time></trkpt><trkpt lat="42.43273850367691" lon="14.215333144107442"><ele>76.0</ele><time>2026-04-12T11:52:34.998Z</time></trkpt><trkpt lat="42.43263312457376" lon="14.215277711648152"><ele>75.0</ele><time>2026-04-12T11:52:35.998Z</time></trkpt><trkpt lat="42.432533874277304" lon="14.215271011745358"><ele>74.0</ele><time>2026-04-12T11:52:36.998Z</time></trkpt><trkpt lat="42.43246135055584" lon="14.215253748810634"><ele>74.0</ele><time>2026-04-12T11:52:37.998Z</time></trkpt><trkpt lat="42.43239273419833" lon="14.215257642515787"><ele>74.0</ele><time>2026-04-12T11:52:38.998Z</time></trkpt><trkpt lat="42.43231178148661" lon="14.215281540337804"><ele>74.0</ele><time>2026-04-12T11:52:39.998Z</time></trkpt><trkpt lat="42.43224877714118" lon="14.215296793244287"><ele>74.0</ele><time>2026-04-12T11:52:40.998Z</time></trkpt><trkpt lat="42.43218586209007" lon="14.215313100688585"><ele>74.0</ele><time>2026-04-12T11:52:41.998Z</time></trkpt><trkpt lat="42.43211729185023" lon="14.215342924961469"><ele>74.0</ele><time>2026-04-12T11:52:50.998Z</time></trkpt><trkpt lat="42.43203935708612" lon="14.215322973217425"><ele>74.0</ele><time>2026-04-12T11:52:53.998Z</time></trkpt><trkpt lat="42.432009464710276" lon="14.215230437054878"><ele>73.0</ele><time>2026-04-12T11:52:56Z</time></trkpt><trkpt lat="42.43188595251999" lon="14.215144755956427"><ele>72.0</ele><time>2026-04-12T11:52:58Z</time></trkpt><trkpt lat="42.431821599467234" lon="14.215092100429233"><ele>71.0</ele><time>2026-04-12T11:52:59Z</time></trkpt><trkpt lat="42.43173070688193" lon="14.21502615185596"><ele>70.0</ele><time>2026-04-12T11:53:00Z</time></trkpt><trkpt lat="42.431625227360804" lon="14.214958276291242"><ele>69.0</ele><time>2026-04-12T11:53:01Z</time></trkpt><trkpt lat="42.43150651511082" lon="14.214891655306332"><ele>69.0</ele><time>2026-04-12T11:53:02Z</time></trkpt><trkpt lat="42.431390692108316" lon="14.21484297173211"><ele>69.0</ele><time>2026-04-12T11:53:03Z</time></trkpt><trkpt lat="42.43128218453195" lon="14.214818884513216"><ele>69.0</ele><time>2026-04-12T11:53:04Z</time></trkpt><trkpt lat="42.43119869552293" lon="14.214809226180511"><ele>69.0</ele><time>2026-04-12T11:53:05Z</time></trkpt><trkpt lat="42.43111836369801" lon="14.214783167249426"><ele>69.0</ele><time>2026-04-12T11:53:06Z</time></trkpt><trkpt lat="42.43103707906789" lon="14.214716851656275"><ele>70.5</ele><time>2026-04-12T11:53:07Z</time></trkpt><trkpt lat="42.43093673257603" lon="14.214637271389437"><ele>72.0</ele><time>2026-04-12T11:53:08Z</time></trkpt><trkpt lat="42.43082053121634" lon="14.21454920295282"><ele>73.5</ele><time>2026-04-12T11:53:09Z</time></trkpt><trkpt lat="42.43070300798374" lon="14.21447531524673"><ele>75.0</ele><time>2026-04-12T11:53:10Z</time></trkpt><trkpt lat="42.43060336027093" lon="14.214415718962458"><ele>75.0</ele><time>2026-04-12T11:53:11Z</time></trkpt><trkpt lat="42.43053068220386" lon="14.214343445002127"><ele>75.0</ele><time>2026-04-12T11:53:12Z</time></trkpt><trkpt lat="42.43046525470559" lon="14.214255077953245"><ele>75.0</ele><time>2026-04-12T11:53:13Z</time></trkpt><trkpt lat="42.430410536757776" lon="14.214173429028028"><ele>75.0</ele><time>2026-04-12T11:53:14Z</time></trkpt><trkpt lat="42.430344272851144" lon="14.214112917651242"><ele>75.0</ele><time>2026-04-12T11:53:15Z</time></trkpt><trkpt lat="42.430259679167385" lon="14.214057080198284"><ele>75.0</ele><time>2026-04-12T11:53:16Z</time></trkpt><trkpt lat="42.43017326267337" lon="14.213992792123543"><ele>76.0</ele><time>2026-04-12T11:53:17Z</time></trkpt><trkpt lat="42.43008987993786" lon="14.213917660863256"><ele>77.0</ele><time>2026-04-12T11:53:18Z</time></trkpt><trkpt lat="42.4300074695199" lon="14.213826308160264"><ele>78.0</ele><time>2026-04-12T11:53:19Z</time></trkpt><trkpt lat="42.429934561949935" lon="14.213728980402092"><ele>79.0</ele><time>2026-04-12T11:53:20Z</time></trkpt><trkpt lat="42.42985685308464" lon="14.213641908871082"><ele>80.0</ele><time>2026-04-12T11:53:21Z</time></trkpt><trkpt lat="42.42978104075801" lon="14.213557658459845"><ele>80.0</ele><time>2026-04-12T11:53:22Z</time></trkpt><trkpt lat="42.42969441367634" lon="14.213465869790427"><ele>80.0</ele><time>2026-04-12T11:53:23Z</time></trkpt><trkpt lat="42.42961008504028" lon="14.213377931588164"><ele>80.0</ele><time>2026-04-12T11:53:24Z</time></trkpt><trkpt lat="42.429518682212084" lon="14.213296428987162"><ele>80.0</ele><time>2026-04-12T11:53:25Z</time></trkpt><trkpt lat="42.429445611190886" lon="14.21319166352196"><ele>80.0</ele><time>2026-04-12T11:53:26Z</time></trkpt><trkpt lat="42.42936409051475" lon="14.21309202576067"><ele>80.4</ele><time>2026-04-12T11:53:27Z</time></trkpt><trkpt lat="42.429269819914666" lon="14.213003056465228"><ele>80.8</ele><time>2026-04-12T11:53:28Z</time></trkpt><trkpt lat="42.42916866250314" lon="14.212912683676038"><ele>81.19999999999999</ele><time>2026-04-12T11:53:29Z</time></trkpt><trkpt lat="42.429079379659484" lon="14.212834296894052"><ele>81.6</ele><time>2026-04-12T11:53:30Z</time></trkpt><trkpt lat="42.42899543460867" lon="14.212761231628612"><ele>82.0</ele><time>2026-04-12T11:53:31Z</time></trkpt><trkpt lat="42.42890646269503" lon="14.21267728551196"><ele>82.25</ele><time>2026-04-12T11:53:31.999Z</time></trkpt><trkpt lat="42.428805222815434" lon="14.212594445931382"><ele>82.5</ele><time>2026-04-12T11:53:32.999Z</time></trkpt><trkpt lat="42.428701018269365" lon="14.212506072195389"><ele>82.75</ele><time>2026-04-12T11:53:33.999Z</time></trkpt><trkpt lat="42.42860016269105" lon="14.212417346854753"><ele>83.0</ele><time>2026-04-12T11:53:34.999Z</time></trkpt><trkpt lat="42.42851083882307" lon="14.212337433385734"><ele>83.60000000000001</ele><time>2026-04-12T11:53:35.999Z</time></trkpt><trkpt lat="42.428457961481314" lon="14.212278083646932"><ele>84.2</ele><time>2026-04-12T11:53:36.999Z</time></trkpt><trkpt lat="42.42838145087187" lon="14.21221616217284"><ele>84.8</ele><time>2026-04-12T11:53:39.999Z</time></trkpt><trkpt lat="42.428259732248115" lon="14.212168232250743"><ele>85.4</ele><time>2026-04-12T11:54:01.999Z</time></trkpt><trkpt lat="42.42819084330709" lon="14.21209372367448"><ele>86.0</ele><time>2026-04-12T11:54:02.999Z</time></trkpt><trkpt lat="42.42810565902487" lon="14.211997780033313"><ele>86.0</ele><time>2026-04-12T11:54:03.999Z</time></trkpt><trkpt lat="42.42800548572893" lon="14.211888520737189"><ele>86.0</ele><time>2026-04-12T11:54:04.999Z</time></trkpt><trkpt lat="42.427900922268215" lon="14.211795961647516"><ele>86.0</ele><time>2026-04-12T11:54:05.999Z</time></trkpt><trkpt lat="42.427821747271295" lon="14.211707747150854"><ele>86.0</ele><time>2026-04-12T11:54:06.999Z</time></trkpt><trkpt lat="42.42776460343609" lon="14.21159873637787"><ele>86.75</ele><time>2026-04-12T11:54:07.999Z</time></trkpt><trkpt lat="42.4277095874045" lon="14.211463849283405"><ele>87.5</ele><time>2026-04-12T11:54:08.999Z</time></trkpt><trkpt lat="42.427622085152535" lon="14.211326288422459"><ele>88.25</ele><time>2026-04-12T11:54:09.999Z</time></trkpt><trkpt lat="42.4275221332611" lon="14.211202139046707"><ele>89.0</ele><time>2026-04-12T11:54:10.999Z</time></trkpt><trkpt lat="42.427430394258735" lon="14.211085791391408"><ele>89.0</ele><time>2026-04-12T11:54:11.999Z</time></trkpt><trkpt lat="42.42734528777671" lon="14.210997768529243"><ele>89.0</ele><time>2026-04-12T11:54:12.999Z</time></trkpt><trkpt lat="42.42725599408033" lon="14.21092593156486"><ele>89.0</ele><time>2026-04-12T11:54:13.999Z</time></trkpt><trkpt lat="42.42718950133863" lon="14.210895434896644"><ele>89.0</ele><time>2026-04-12T11:54:14.999Z</time></trkpt><trkpt lat="42.42710849161776" lon="14.210872474716707"><ele>89.0</ele><time>2026-04-12T11:54:15.999Z</time></trkpt><trkpt lat="42.427015833613034" lon="14.21085323114504"><ele>89.80000000000001</ele><time>2026-04-12T11:54:16.999Z</time></trkpt><trkpt lat="42.426910579456056" lon="14.210814460062176"><ele>90.60000000000001</ele><time>2026-04-12T11:54:17.999Z</time></trkpt><trkpt lat="42.4267967085489" lon="14.210780879018383"><ele>91.4</ele><time>2026-04-12T11:54:18.999Z</time></trkpt><trkpt lat="42.4266878027753" lon="14.21073837631164"><ele>92.2</ele><time>2026-04-12T11:54:19.999Z</time></trkpt><trkpt lat="42.42658640122125" lon="14.21069082061954"><ele>93.0</ele><time>2026-04-12T11:54:20.999Z</time></trkpt><trkpt lat="42.42648350288922" lon="14.210648598233957"><ele>93.0</ele><time>2026-04-12T11:54:21.999Z</time></trkpt><trkpt lat="42.42638480349208" lon="14.210586554054776"><ele>93.0</ele><time>2026-04-12T11:54:22.999Z</time></trkpt><trkpt lat="42.42629641991335" lon="14.210533814929315"><ele>93.0</ele><time>2026-04-12T11:54:23.999Z</time></trkpt><trkpt lat="42.42621528537623" lon="14.210502251511931"><ele>93.0</ele><time>2026-04-12T11:54:24.999Z</time></trkpt><trkpt lat="42.426149300636546" lon="14.210452691985456"><ele>93.0</ele><time>2026-04-12T11:54:25.999Z</time></trkpt><trkpt lat="42.42608916637031" lon="14.210416546946131"><ele>93.0</ele><time>2026-04-12T11:54:26.999Z</time></trkpt><trkpt lat="42.426014619495774" lon="14.210361189182464"><ele>93.0</ele><time>2026-04-12T11:54:27.999Z</time></trkpt><trkpt lat="42.425918647430585" lon="14.210326415602745"><ele>93.0</ele><time>2026-04-12T11:54:28.999Z</time></trkpt><trkpt lat="42.42583326427881" lon="14.210282348451845"><ele>93.0</ele><time>2026-04-12T11:54:29.999Z</time></trkpt><trkpt lat="42.425714405235" lon="14.210229712821098"><ele>93.0</ele><time>2026-04-12T11:54:30.999Z</time></trkpt><trkpt lat="42.425609611696096" lon="14.210175470152478"><ele>93.0</ele><time>2026-04-12T11:54:31.999Z</time></trkpt><trkpt lat="42.42551897211076" lon="14.210111233589412"><ele>93.0</ele><time>2026-04-12T11:54:32.999Z</time></trkpt><trkpt lat="42.42545311755263" lon="14.210065915310476"><ele>93.0</ele><time>2026-04-12T11:54:33.998Z</time></trkpt><trkpt lat="42.42537442262544" lon="14.209994970705702"><ele>93.0</ele><time>2026-04-12T11:54:35.998Z</time></trkpt><trkpt lat="42.425292837899356" lon="14.210019848609504"><ele>93.0</ele><time>2026-04-12T11:54:38.998Z</time></trkpt><trkpt lat="42.4252448348772" lon="14.210077122314448"><ele>93.0</ele><time>2026-04-12T11:54:39.998Z</time></trkpt><trkpt lat="42.42522952694621" lon="14.210175401240086"><ele>93.0</ele><time>2026-04-12T11:54:42.998Z</time></trkpt><trkpt lat="42.42518104270299" lon="14.210266734599168"><ele>93.0</ele><time>2026-04-12T11:54:43.998Z</time></trkpt><trkpt lat="42.42512257728609" lon="14.210384508836189"><ele>93.0</ele><time>2026-04-12T11:54:44.998Z</time></trkpt><trkpt lat="42.42506556280161" lon="14.210523324351401"><ele>93.0</ele><time>2026-04-12T11:54:45.998Z</time></trkpt><trkpt lat="42.425035224423624" lon="14.21066003986307"><ele>93.0</ele><time>2026-04-12T11:54:46.998Z</time></trkpt><trkpt lat="42.42500513204008" lon="14.21081816782212"><ele>93.0</ele><time>2026-04-12T11:54:47.998Z</time></trkpt><trkpt lat="42.424962404349785" lon="14.210998880370362"><ele>95.75</ele><time>2026-04-12T11:54:48.998Z</time></trkpt><trkpt lat="42.42492059824517" lon="14.211170041703205"><ele>98.5</ele><time>2026-04-12T11:54:49.998Z</time></trkpt><trkpt lat="42.42488217406592" lon="14.211334670556884"><ele>101.25</ele><time>2026-04-12T11:54:50.998Z</time></trkpt><trkpt lat="42.424836432965755" lon="14.211506523793743"><ele>104.0</ele><time>2026-04-12T11:54:51.998Z</time></trkpt><trkpt lat="42.42481648422957" lon="14.211666140664539"><ele>104.75</ele><time>2026-04-12T11:54:52.998Z</time></trkpt><trkpt lat="42.42480727610887" lon="14.211840751385866"><ele>105.5</ele><time>2026-04-12T11:54:53.998Z</time></trkpt><trkpt lat="42.42479521749719" lon="14.212021984917635"><ele>106.25</ele><time>2026-04-12T11:54:54.998Z</time></trkpt><trkpt lat="42.424783010239715" lon="14.212207703545369"><ele>107.0</ele><time>2026-04-12T11:54:55.998Z</time></trkpt><trkpt lat="42.42474640979548" lon="14.212398787253242"><ele>108.25</ele><time>2026-04-12T11:54:56.998Z</time></trkpt><trkpt lat="42.42469740688525" lon="14.212568784181899"><ele>109.5</ele><time>2026-04-12T11:54:57.998Z</time></trkpt><trkpt lat="42.42464888545388" lon="14.212754794034502"><ele>110.75</ele><time>2026-04-12T11:54:58.998Z</time></trkpt><trkpt lat="42.42461783409976" lon="14.212919118761741"><ele>112.0</ele><time>2026-04-12T11:54:59.998Z</time></trkpt><trkpt lat="42.42460143231217" lon="14.213058331917887"><ele>113.6</ele><time>2026-04-12T11:55:01Z</time></trkpt><trkpt lat="42.424560206731364" lon="14.213172105715511"><ele>115.19999999999999</ele><time>2026-04-12T11:55:02Z</time></trkpt><trkpt lat="42.42448686004634" lon="14.213282191543046"><ele>116.8</ele><time>2026-04-12T11:55:03Z</time></trkpt><trkpt lat="42.42445305898297" lon="14.213419555598788"><ele>118.4</ele><time>2026-04-12T11:55:04Z</time></trkpt><trkpt lat="42.42434891971471" lon="14.213499625072215"><ele>120.0</ele><time>2026-04-12T11:55:05Z</time></trkpt><trkpt lat="42.42428657197281" lon="14.213562950512133"><ele>120.0</ele><time>2026-04-12T11:55:06Z</time></trkpt><trkpt lat="42.4242316490411" lon="14.213613959713573"><ele>120.0</ele><time>2026-04-12T11:55:07Z</time></trkpt><trkpt lat="42.42421266712648" lon="14.213778620864856"><ele>120.0</ele><time>2026-04-12T11:55:09Z</time></trkpt><trkpt lat="42.42420577457801" lon="14.213902198280536"><ele>120.0</ele><time>2026-04-12T11:55:10Z</time></trkpt><trkpt lat="42.42416950581321" lon="14.21400811099642"><ele>120.0</ele><time>2026-04-12T11:55:11Z</time></trkpt><trkpt lat="42.424116710459245" lon="14.214101544361347"><ele>122.0</ele><time>2026-04-12T11:55:12Z</time></trkpt><trkpt lat="42.42405315514284" lon="14.214189316429094"><ele>124.0</ele><time>2026-04-12T11:55:13Z</time></trkpt><trkpt lat="42.42397194896231" lon="14.2142665249189"><ele>126.0</ele><time>2026-04-12T11:55:14Z</time></trkpt><trkpt lat="42.42388730767724" lon="14.214348612982107"><ele>128.0</ele><time>2026-04-12T11:55:15Z</time></trkpt><trkpt lat="42.423811885713505" lon="14.214444773707182"><ele>130.0</ele><time>2026-04-12T11:55:16Z</time></trkpt><trkpt lat="42.42374206177073" lon="14.214555980873945"><ele>130.8</ele><time>2026-04-12T11:55:17Z</time></trkpt><trkpt lat="42.42368418721497" lon="14.214659704839464"><ele>131.6</ele><time>2026-04-12T11:55:18Z</time></trkpt><trkpt lat="42.42363749932006" lon="14.214780311979755"><ele>132.4</ele><time>2026-04-12T11:55:19Z</time></trkpt><trkpt lat="42.423587979075656" lon="14.214878142353118"><ele>133.2</ele><time>2026-04-12T11:55:20Z</time></trkpt><trkpt lat="42.42353919405306" lon="14.214981227514796"><ele>134.0</ele><time>2026-04-12T11:55:21Z</time></trkpt><trkpt lat="42.42347612427887" lon="14.215087853987633"><ele>134.0</ele><time>2026-04-12T11:55:22Z</time></trkpt><trkpt lat="42.42342044682064" lon="14.215195242690493"><ele>134.0</ele><time>2026-04-12T11:55:23Z</time></trkpt><trkpt lat="42.423381051017905" lon="14.21531639741064"><ele>134.0</ele><time>2026-04-12T11:55:24Z</time></trkpt><trkpt lat="42.42333491398291" lon="14.215450579193204"><ele>134.0</ele><time>2026-04-12T11:55:25Z</time></trkpt><trkpt lat="42.42328738167651" lon="14.215584864934094"><ele>134.0</ele><time>2026-04-12T11:55:26Z</time></trkpt><trkpt lat="42.42323424846623" lon="14.215721806987665"><ele>135.4</ele><time>2026-04-12T11:55:27Z</time></trkpt><trkpt lat="42.42317937714301" lon="14.215856429571902"><ele>136.8</ele><time>2026-04-12T11:55:28Z</time></trkpt><trkpt lat="42.42314131511591" lon="14.216008890674486"><ele>138.2</ele><time>2026-04-12T11:55:29Z</time></trkpt><trkpt lat="42.42308896209111" lon="14.21613938596236"><ele>139.6</ele><time>2026-04-12T11:55:30Z</time></trkpt><trkpt lat="42.42304813223821" lon="14.216271567497621"><ele>141.0</ele><time>2026-04-12T11:55:31Z</time></trkpt><trkpt lat="42.42302418111388" lon="14.216406162414847"><ele>142.8</ele><time>2026-04-12T11:55:32Z</time></trkpt><trkpt lat="42.42300018699455" lon="14.216539041089574"><ele>144.6</ele><time>2026-04-12T11:55:33Z</time></trkpt><trkpt lat="42.422954375735344" lon="14.216659697542365"><ele>146.4</ele><time>2026-04-12T11:55:33.999Z</time></trkpt><trkpt lat="42.422929559357634" lon="14.216789239904976"><ele>148.2</ele><time>2026-04-12T11:55:34.999Z</time></trkpt><trkpt lat="42.42289583999788" lon="14.216902744452067"><ele>150.0</ele><time>2026-04-12T11:55:35.999Z</time></trkpt><trkpt lat="42.4228272726015" lon="14.217011902148899"><ele>150.0</ele><time>2026-04-12T11:55:37.999Z</time></trkpt><trkpt lat="42.42276323796602" lon="14.217088893716692"><ele>150.0</ele><time>2026-04-12T11:55:41.999Z</time></trkpt><trkpt lat="42.422816934083855" lon="14.217248869197626"><ele>150.0</ele><time>2026-04-12T11:55:42.999Z</time></trkpt><trkpt lat="42.42285465728684" lon="14.217351975131832"><ele>150.0</ele><time>2026-04-12T11:55:43.999Z</time></trkpt><trkpt lat="42.422901597578644" lon="14.217452435192016"><ele>150.0</ele><time>2026-04-12T11:55:44.999Z</time></trkpt><trkpt lat="42.422954848232116" lon="14.21758064024723"><ele>152.0</ele><time>2026-04-12T11:55:45.999Z</time></trkpt><trkpt lat="42.423029232317" lon="14.21771676897009"><ele>154.0</ele><time>2026-04-12T11:55:46.999Z</time></trkpt><trkpt lat="42.42312495858466" lon="14.217841426658996"><ele>156.0</ele><time>2026-04-12T11:55:47.999Z</time></trkpt><trkpt lat="42.42323043332881" lon="14.217952058563828"><ele>158.0</ele><time>2026-04-12T11:55:48.999Z</time></trkpt><trkpt lat="42.42332418760008" lon="14.21807418565729"><ele>153.25</ele><time>2026-04-12T11:55:49.999Z</time></trkpt><trkpt lat="42.42338202544731" lon="14.218220602391826"><ele>148.5</ele><time>2026-04-12T11:55:50.999Z</time></trkpt><trkpt lat="42.423426280204794" lon="14.218357092477515"><ele>143.75</ele><time>2026-04-12T11:55:51.999Z</time></trkpt><trkpt lat="42.423460836660055" lon="14.218513676951956"><ele>139.0</ele><time>2026-04-12T11:55:52.999Z</time></trkpt><trkpt lat="42.423509863586084" lon="14.218676335686435"><ele>139.0</ele><time>2026-04-12T11:55:53.999Z</time></trkpt><trkpt lat="42.42356920684307" lon="14.218806989451952"><ele>139.0</ele><time>2026-04-12T11:55:54.999Z</time></trkpt><trkpt lat="42.423617907797116" lon="14.218891212652833"><ele>139.0</ele><time>2026-04-12T11:55:55.999Z</time></trkpt><trkpt lat="42.42366252915238" lon="14.218952084781101"><ele>139.0</ele><time>2026-04-12T11:55:56.999Z</time></trkpt><trkpt lat="42.42354604013504" lon="14.218878586365442"><ele>139.0</ele><time>2026-04-12T11:56:01.999Z</time></trkpt><trkpt lat="42.42349873568236" lon="14.218796249552398"><ele>139.0</ele><time>2026-04-12T11:56:02.999Z</time></trkpt><trkpt lat="42.42343999013302" lon="14.218714698247664"><ele>139.0</ele><time>2026-04-12T11:56:03.999Z</time></trkpt><trkpt lat="42.42337810186868" lon="14.218634919325378"><ele>139.0</ele><time>2026-04-12T11:56:04.999Z</time></trkpt><trkpt lat="42.423314668910876" lon="14.218550132183871"><ele>139.0</ele><time>2026-04-12T11:56:05.999Z</time></trkpt><trkpt lat="42.42324775208281" lon="14.21846259247862"><ele>139.0</ele><time>2026-04-12T11:56:06.999Z</time></trkpt><trkpt lat="42.4231606294215" lon="14.218350093075456"><ele>139.0</ele><time>2026-04-12T11:56:07.999Z</time></trkpt><trkpt lat="42.423067109078325" lon="14.218251420741653"><ele>139.0</ele><time>2026-04-12T11:56:08.999Z</time></trkpt><trkpt lat="42.422982528684656" lon="14.218090828598356"><ele>139.0</ele><time>2026-04-12T11:56:09.999Z</time></trkpt><trkpt lat="42.42280901476693" lon="14.218145470986139"><ele>139.0</ele><time>2026-04-12T11:56:10.999Z</time></trkpt><trkpt lat="42.42266012490556" lon="14.218157616307801"><ele>138.5</ele><time>2026-04-12T11:56:11.999Z</time></trkpt><trkpt lat="42.4225251881315" lon="14.218183804490076"><ele>138.0</ele><time>2026-04-12T11:56:12.999Z</time></trkpt><trkpt lat="42.42240500544872" lon="14.21817270886574"><ele>137.5</ele><time>2026-04-12T11:56:13.999Z</time></trkpt><trkpt lat="42.42228830006091" lon="14.21811958094087"><ele>137.0</ele><time>2026-04-12T11:56:14.999Z</time></trkpt><trkpt lat="42.42217087906708" lon="14.21803081700926"><ele>131.0</ele><time>2026-04-12T11:56:15.999Z</time></trkpt><trkpt lat="42.422051441092904" lon="14.217912504642895"><ele>125.0</ele><time>2026-04-12T11:56:16.999Z</time></trkpt><trkpt lat="42.42191929836717" lon="14.21780155537776"><ele>119.0</ele><time>2026-04-12T11:56:17.999Z</time></trkpt><trkpt lat="42.42177380581189" lon="14.217708104988715"><ele>119.0</ele><time>2026-04-12T11:56:18.999Z</time></trkpt><trkpt lat="42.421621097642834" lon="14.21764306020608"><ele>119.0</ele><time>2026-04-12T11:56:19.999Z</time></trkpt><trkpt lat="42.42146351777744" lon="14.217579685008467"><ele>119.0</ele><time>2026-04-12T11:56:20.999Z</time></trkpt><trkpt lat="42.421329187661996" lon="14.217512151323435"><ele>117.75</ele><time>2026-04-12T11:56:21.999Z</time></trkpt><trkpt lat="42.42121442621422" lon="14.217430625797734"><ele>116.5</ele><time>2026-04-12T11:56:22.999Z</time></trkpt><trkpt lat="42.42111381910606" lon="14.217329711538811"><ele>115.25</ele><time>2026-04-12T11:56:23.999Z</time></trkpt><trkpt lat="42.421036010959305" lon="14.217212714252701"><ele>114.0</ele><time>2026-04-12T11:56:24.999Z</time></trkpt><trkpt lat="42.42097298369785" lon="14.21708721956614"><ele>114.0</ele><time>2026-04-12T11:56:25.999Z</time></trkpt><trkpt lat="42.42095693781047" lon="14.216943151156357"><ele>114.0</ele><time>2026-04-12T11:56:26.999Z</time></trkpt><trkpt lat="42.42096886585629" lon="14.216804263480869"><ele>114.0</ele><time>2026-04-12T11:56:27.999Z</time></trkpt><trkpt lat="42.42096346748453" lon="14.216665971269418"><ele>114.0</ele><time>2026-04-12T11:56:28.999Z</time></trkpt><trkpt lat="42.42094781487646" lon="14.21655206181979"><ele>114.0</ele><time>2026-04-12T11:56:29.999Z</time></trkpt><trkpt lat="42.420897246346144" lon="14.216448850937196"><ele>114.0</ele><time>2026-04-12T11:56:30.999Z</time></trkpt><trkpt lat="42.42084369376645" lon="14.216390653344378"><ele>114.0</ele><time>2026-04-12T11:56:32.999Z</time></trkpt><trkpt lat="42.420777236707536" lon="14.216671079015628"><ele>114.0</ele><time>2026-04-12T11:56:34.999Z</time></trkpt><trkpt lat="42.420771623326374" lon="14.216835986297271"><ele>114.0</ele><time>2026-04-12T11:56:35.998Z</time></trkpt><trkpt lat="42.420753931386706" lon="14.216993840289692"><ele>114.0</ele><time>2026-04-12T11:56:36.998Z</time></trkpt><trkpt lat="42.42076845613699" lon="14.217146175953236"><ele>114.0</ele><time>2026-04-12T11:56:37.998Z</time></trkpt><trkpt lat="42.42079681846009" lon="14.217280576563432"><ele>114.0</ele><time>2026-04-12T11:56:38.998Z</time></trkpt><trkpt lat="42.42082119433382" lon="14.217432570069796"><ele>114.0</ele><time>2026-04-12T11:56:39.998Z</time></trkpt><trkpt lat="42.42085579572606" lon="14.217572176027508"><ele>114.0</ele><time>2026-04-12T11:56:40.998Z</time></trkpt><trkpt lat="42.42088069174413" lon="14.21769257841155"><ele>112.0</ele><time>2026-04-12T11:56:41.998Z</time></trkpt><trkpt lat="42.42089014949068" lon="14.217817754450815"><ele>110.0</ele><time>2026-04-12T11:56:42.998Z</time></trkpt><trkpt lat="42.42090804532365" lon="14.217922947698389"><ele>108.0</ele><time>2026-04-12T11:56:43.998Z</time></trkpt><trkpt lat="42.420913955460556" lon="14.2180158449429"><ele>106.0</ele><time>2026-04-12T11:56:44.998Z</time></trkpt><trkpt lat="42.42092829903418" lon="14.218115787062265"><ele>104.0</ele><time>2026-04-12T11:56:45.998Z</time></trkpt><trkpt lat="42.42090771753604" lon="14.218198987709082"><ele>102.0</ele><time>2026-04-12T11:56:46.998Z</time></trkpt><trkpt lat="42.42086272563642" lon="14.218282502700635"><ele>99.75</ele><time>2026-04-12T11:56:48.998Z</time></trkpt><trkpt lat="42.420699273583836" lon="14.218301512745327"><ele>97.5</ele><time>2026-04-12T11:56:52.998Z</time></trkpt><trkpt lat="42.42064690120572" lon="14.218429230532145"><ele>95.25</ele><time>2026-04-12T11:56:54.998Z</time></trkpt><trkpt lat="42.420592329432736" lon="14.218555511055582"><ele>93.0</ele><time>2026-04-12T11:56:56.998Z</time></trkpt><trkpt lat="42.42055453550616" lon="14.218645282434759"><ele>93.0</ele><time>2026-04-12T11:56:58.998Z</time></trkpt><trkpt lat="42.42050382778337" lon="14.218785875474556"><ele>93.0</ele><time>2026-04-12T11:57:00.998Z</time></trkpt><trkpt lat="42.420493495764575" lon="14.21889349094989"><ele>93.0</ele><time>2026-04-12T11:57:01.998Z</time></trkpt><trkpt lat="42.420474256951735" lon="14.218984514762129"><ele>93.0</ele><time>2026-04-12T11:57:02.998Z</time></trkpt><trkpt lat="42.42041062780653" lon="14.219138641591156"><ele>93.0</ele><time>2026-04-12T11:57:04.998Z</time></trkpt><trkpt lat="42.420375937531325" lon="14.219222854083268"><ele>90.00000000000001</ele><time>2026-04-12T11:57:06Z</time></trkpt><trkpt lat="42.420343768337126" lon="14.219304118131642"><ele>87.0</ele><time>2026-04-12T11:57:07Z</time></trkpt><trkpt lat="42.420309418554886" lon="14.219382865931465"><ele>84.0</ele><time>2026-04-12T11:57:08Z</time></trkpt><trkpt lat="42.42028517921295" lon="14.219466172064756"><ele>81.0</ele><time>2026-04-12T11:57:09Z</time></trkpt><trkpt lat="42.420256853582885" lon="14.219557074253085"><ele>78.0</ele><time>2026-04-12T11:57:10Z</time></trkpt><trkpt lat="42.420227267461414" lon="14.219650725749965"><ele>75.00000000000001</ele><time>2026-04-12T11:57:11Z</time></trkpt><trkpt lat="42.42019347779054" lon="14.219745827273655"><ele>72.0</ele><time>2026-04-12T11:57:12Z</time></trkpt><trkpt lat="42.42015790896077" lon="14.219831376313367"><ele>70.33333333333333</ele><time>2026-04-12T11:57:13Z</time></trkpt><trkpt lat="42.420113999387446" lon="14.219922312053269"><ele>68.66666666666667</ele><time>2026-04-12T11:57:14Z</time></trkpt><trkpt lat="42.42006860955756" lon="14.220020262284685"><ele>67.0</ele><time>2026-04-12T11:57:15Z</time></trkpt><trkpt lat="42.42003121075774" lon="14.220126326139349"><ele>65.33333333333334</ele><time>2026-04-12T11:57:16Z</time></trkpt><trkpt lat="42.41999901325584" lon="14.22023652912381"><ele>63.66666666666667</ele><time>2026-04-12T11:57:17Z</time></trkpt><trkpt lat="42.41995766076759" lon="14.220347040341784"><ele>62.0</ele><time>2026-04-12T11:57:18Z</time></trkpt><trkpt lat="42.41992839098808" lon="14.220459404891285"><ele>62.00000000000001</ele><time>2026-04-12T11:57:19Z</time></trkpt><trkpt lat="42.41990088238447" lon="14.22057017360592"><ele>62.0</ele><time>2026-04-12T11:57:20Z</time></trkpt><trkpt lat="42.41988378032228" lon="14.220664480031484"><ele>62.0</ele><time>2026-04-12T11:57:21Z</time></trkpt><trkpt lat="42.41986789203451" lon="14.220747769268069"><ele>62.0</ele><time>2026-04-12T11:57:22Z</time></trkpt><trkpt lat="42.419814770928" lon="14.220871041061532"><ele>62.00000000000001</ele><time>2026-04-12T11:57:24Z</time></trkpt><trkpt lat="42.41978077837479" lon="14.220948959156"><ele>62.0</ele><time>2026-04-12T11:57:25Z</time></trkpt><trkpt lat="42.41970781276237" lon="14.221026873896207"><ele>59.6</ele><time>2026-04-12T11:57:27Z</time></trkpt><trkpt lat="42.41961944501904" lon="14.220945372870426"><ele>57.2</ele><time>2026-04-12T11:57:29Z</time></trkpt><trkpt lat="42.41953692715126" lon="14.220878010988937"><ele>54.8</ele><time>2026-04-12T11:57:30Z</time></trkpt><trkpt lat="42.419443891299494" lon="14.220840783124643"><ele>52.4</ele><time>2026-04-12T11:57:31Z</time></trkpt><trkpt lat="42.41935211546496" lon="14.220774905087707"><ele>50.0</ele><time>2026-04-12T11:57:32Z</time></trkpt><trkpt lat="42.41926383604992" lon="14.220722185910725"><ele>50.00000000000001</ele><time>2026-04-12T11:57:33Z</time></trkpt><trkpt lat="42.419174094830815" lon="14.220659782568813"><ele>50.0</ele><time>2026-04-12T11:57:34Z</time></trkpt><trkpt lat="42.41909583933811" lon="14.220574445765747"><ele>50.0</ele><time>2026-04-12T11:57:35Z</time></trkpt><trkpt lat="42.41904719799274" lon="14.220469688051791"><ele>50.0</ele><time>2026-04-12T11:57:36Z</time></trkpt><trkpt lat="42.419003461130316" lon="14.220394022255412"><ele>50.00000000000001</ele><time>2026-04-12T11:57:36.999Z</time></trkpt><trkpt lat="42.41893433300245" lon="14.220358814159047"><ele>50.0</ele><time>2026-04-12T11:57:37.999Z</time></trkpt><trkpt lat="42.41884384777169" lon="14.220333494669758"><ele>50.4</ele><time>2026-04-12T11:57:38.999Z</time></trkpt><trkpt lat="42.41874113860853" lon="14.220345100514455"><ele>50.8</ele><time>2026-04-12T11:57:39.999Z</time></trkpt><trkpt lat="42.41863653299506" lon="14.220351828647997"><ele>51.2</ele><time>2026-04-12T11:57:40.999Z</time></trkpt><trkpt lat="42.41854511939965" lon="14.220338944108093"><ele>51.6</ele><time>2026-04-12T11:57:41.999Z</time></trkpt><trkpt lat="42.418458672991044" lon="14.220282246382675"><ele>52.0</ele><time>2026-04-12T11:57:42.999Z</time></trkpt><trkpt lat="42.41835125445274" lon="14.220173756379149"><ele>52.0</ele><time>2026-04-12T11:57:43.999Z</time></trkpt><trkpt lat="42.41828313824659" lon="14.22007078870468"><ele>52.0</ele><time>2026-04-12T11:57:44.999Z</time></trkpt><trkpt lat="42.41821974982163" lon="14.219967667546433"><ele>52.0</ele><time>2026-04-12T11:57:45.999Z</time></trkpt><trkpt lat="42.41815572784736" lon="14.219869326328828"><ele>52.0</ele><time>2026-04-12T11:57:46.999Z</time></trkpt><trkpt lat="42.41807178330155" lon="14.219784815938045"><ele>52.0</ele><time>2026-04-12T11:57:47.999Z</time></trkpt><trkpt lat="42.41797826941373" lon="14.219722449549"><ele>52.0</ele><time>2026-04-12T11:57:48.999Z</time></trkpt><trkpt lat="42.41787069388397" lon="14.219653402450966"><ele>52.0</ele><time>2026-04-12T11:57:49.999Z</time></trkpt><trkpt lat="42.417771400122874" lon="14.219625466706804"><ele>52.0</ele><time>2026-04-12T11:57:50.999Z</time></trkpt><trkpt lat="42.417689257363804" lon="14.219595374615883"><ele>52.0</ele><time>2026-04-12T11:57:51.999Z</time></trkpt><trkpt lat="42.417625797704794" lon="14.219556939084185"><ele>52.0</ele><time>2026-04-12T11:57:52.999Z</time></trkpt><trkpt lat="42.41763830354462" lon="14.219406970723831"><ele>51.99999999999999</ele><time>2026-04-12T11:57:54.999Z</time></trkpt><trkpt lat="42.41760402610016" lon="14.219308101966892"><ele>52.0</ele><time>2026-04-12T11:57:56.999Z</time></trkpt><trkpt lat="42.417525444713476" lon="14.219320914272165"><ele>52.0</ele><time>2026-04-12T11:57:57.999Z</time></trkpt><trkpt lat="42.41746792381818" lon="14.219360899909095"><ele>52.0</ele><time>2026-04-12T11:57:58.999Z</time></trkpt><trkpt lat="42.41743448427677" lon="14.21927528561896"><ele>51.99999999999999</ele><time>2026-04-12T11:58:00.999Z</time></trkpt><trkpt lat="42.41737512148711" lon="14.219143369655301"><ele>52.0</ele><time>2026-04-12T11:58:03.999Z</time></trkpt><trkpt lat="42.417232791044675" lon="14.21893826103483"><ele>52.8</ele><time>2026-04-12T11:58:05.999Z</time></trkpt><trkpt lat="42.41718749277145" lon="14.21885934518421"><ele>53.6</ele><time>2026-04-12T11:58:06.999Z</time></trkpt><trkpt lat="42.41713413978767" lon="14.218750626967417"><ele>54.39999999999999</ele><time>2026-04-12T11:58:08.999Z</time></trkpt><trkpt lat="42.417073734360336" lon="14.218659362526333"><ele>55.199999999999996</ele><time>2026-04-12T11:58:11.999Z</time></trkpt><trkpt lat="42.416944386496375" lon="14.21856019146435"><ele>56.0</ele><time>2026-04-12T11:59:12Z</time></trkpt><trkpt lat="42.416878230072925" lon="14.218523408958818"><ele>56.0</ele><time>2026-04-12T11:59:13Z</time></trkpt><trkpt lat="42.416800809781684" lon="14.218467474744504"><ele>55.99999999999999</ele><time>2026-04-12T11:59:14Z</time></trkpt><trkpt lat="42.41673450007794" lon="14.21838997376578"><ele>55.99999999999999</ele><time>2026-04-12T11:59:15Z</time></trkpt><trkpt lat="42.41669139621329" lon="14.218273190891924"><ele>56.0</ele><time>2026-04-12T11:59:16Z</time></trkpt><trkpt lat="42.41665053457871" lon="14.218140271652059"><ele>56.0</ele><time>2026-04-12T11:59:17Z</time></trkpt><trkpt lat="42.41658597441794" lon="14.217993333243989"><ele>56.75</ele><time>2026-04-12T11:59:18Z</time></trkpt><trkpt lat="42.41651583117374" lon="14.217862914631922"><ele>57.5</ele><time>2026-04-12T11:59:19Z</time></trkpt><trkpt lat="42.41645204539766" lon="14.217750498090801"><ele>58.25</ele><time>2026-04-12T11:59:20Z</time></trkpt><trkpt lat="42.41639027489444" lon="14.21761324609199"><ele>59.0</ele><time>2026-04-12T11:59:21Z</time></trkpt><trkpt lat="42.41631633345089" lon="14.217485435414412"><ele>59.0</ele><time>2026-04-12T11:59:22Z</time></trkpt><trkpt lat="42.41623154281748" lon="14.217360114091777"><ele>59.0</ele><time>2026-04-12T11:59:23Z</time></trkpt><trkpt lat="42.416133517940715" lon="14.21724237693594"><ele>59.0</ele><time>2026-04-12T11:59:24Z</time></trkpt><trkpt lat="42.41603515568503" lon="14.217135323124518"><ele>59.0</ele><time>2026-04-12T11:59:25Z</time></trkpt><trkpt lat="42.41593430100497" lon="14.217031783690793"><ele>58.800000000000004</ele><time>2026-04-12T11:59:26Z</time></trkpt><trkpt lat="42.41585563474641" lon="14.216933970531736"><ele>58.60000000000001</ele><time>2026-04-12T11:59:27Z</time></trkpt><trkpt lat="42.41579282346102" lon="14.216830473848596"><ele>58.4</ele><time>2026-04-12T11:59:28Z</time></trkpt><trkpt lat="42.41572487872364" lon="14.216724325167217"><ele>58.2</ele><time>2026-04-12T11:59:29Z</time></trkpt><trkpt lat="42.41564024843677" lon="14.216635318812243"><ele>58.0</ele><time>2026-04-12T11:59:30Z</time></trkpt><trkpt lat="42.41555389840001" lon="14.21661250510872"><ele>58.33333333333333</ele><time>2026-04-12T11:59:31Z</time></trkpt><trkpt lat="42.415467547748285" lon="14.21658125997582"><ele>58.666666666666664</ele><time>2026-04-12T11:59:32Z</time></trkpt><trkpt lat="42.415396306513834" lon="14.216519178349632"><ele>59.0</ele><time>2026-04-12T11:59:33Z</time></trkpt><trkpt lat="42.41535127370086" lon="14.216451726520908"><ele>59.33333333333333</ele><time>2026-04-12T11:59:34Z</time></trkpt><trkpt lat="42.41532583359916" lon="14.216356655865724"><ele>59.666666666666664</ele><time>2026-04-12T11:59:35Z</time></trkpt><trkpt lat="42.41528768263714" lon="14.21623766164837"><ele>60.0</ele><time>2026-04-12T11:59:36Z</time></trkpt><trkpt lat="42.41523801464117" lon="14.216099780739926"><ele>60.0</ele><time>2026-04-12T11:59:37Z</time></trkpt><trkpt lat="42.41517013688155" lon="14.21602084741981"><ele>60.0</ele><time>2026-04-12T11:59:38Z</time></trkpt><trkpt lat="42.41507469347503" lon="14.21594310193086"><ele>60.0</ele><time>2026-04-12T11:59:38.999Z</time></trkpt><trkpt lat="42.41498180330911" lon="14.21585066418743"><ele>60.0</ele><time>2026-04-12T11:59:39.999Z</time></trkpt><trkpt lat="42.414890725341394" lon="14.215760496179259"><ele>60.0</ele><time>2026-04-12T11:59:40.999Z</time></trkpt><trkpt lat="42.41483575631153" lon="14.215648811234082"><ele>61.0</ele><time>2026-04-12T11:59:41.999Z</time></trkpt><trkpt lat="42.41481387300455" lon="14.215517113232826"><ele>62.0</ele><time>2026-04-12T11:59:42.999Z</time></trkpt><trkpt lat="42.41480162207873" lon="14.21537183914185"><ele>63.0</ele><time>2026-04-12T11:59:43.999Z</time></trkpt><trkpt lat="42.414781530577514" lon="14.21523758587149"><ele>64.0</ele><time>2026-04-12T11:59:44.999Z</time></trkpt><trkpt lat="42.41475129753789" lon="14.215072515070828"><ele>65.0</ele><time>2026-04-12T11:59:45.999Z</time></trkpt><trkpt lat="42.41472500173838" lon="14.214929753428898"><ele>65.66666666666667</ele><time>2026-04-12T11:59:46.999Z</time></trkpt><trkpt lat="42.41471954218038" lon="14.21481952534328"><ele>66.33333333333334</ele><time>2026-04-12T11:59:47.999Z</time></trkpt><trkpt lat="42.41473645497538" lon="14.214717135716535"><ele>67.0</ele><time>2026-04-12T11:59:48.999Z</time></trkpt><trkpt lat="42.41475676730574" lon="14.21460852356987"><ele>67.66666666666667</ele><time>2026-04-12T11:59:49.999Z</time></trkpt><trkpt lat="42.41475375268844" lon="14.214514532514439"><ele>68.33333333333333</ele><time>2026-04-12T11:59:50.999Z</time></trkpt><trkpt lat="42.4147201340274" lon="14.214423988390456"><ele>69.0</ele><time>2026-04-12T11:59:51.999Z</time></trkpt><trkpt lat="42.414677559393134" lon="14.214334380087289"><ele>68.4</ele><time>2026-04-12T11:59:52.999Z</time></trkpt><trkpt lat="42.41460815872624" lon="14.21422112165258"><ele>67.80000000000001</ele><time>2026-04-12T11:59:53.999Z</time></trkpt><trkpt lat="42.414552517983225" lon="14.214119233743654"><ele>67.19999999999999</ele><time>2026-04-12T11:59:54.999Z</time></trkpt><trkpt lat="42.41451493222832" lon="14.214031097473539"><ele>66.6</ele><time>2026-04-12T11:59:55.999Z</time></trkpt><trkpt lat="42.41441326866562" lon="14.213856505446257"><ele>66.0</ele><time>2026-04-12T11:59:57.999Z</time></trkpt><trkpt lat="42.41440067633458" lon="14.213725086992005"><ele>66.2</ele><time>2026-04-12T11:59:58.999Z</time></trkpt><trkpt lat="42.41443832057023" lon="14.21361735089596"><ele>66.39999999999999</ele><time>2026-04-12T11:59:59.999Z</time></trkpt><trkpt lat="42.41449776866412" lon="14.21350754502671"><ele>66.6</ele><time>2026-04-12T12:00:00.999Z</time></trkpt><trkpt lat="42.41450959427732" lon="14.213382113434799"><ele>66.8</ele><time>2026-04-12T12:00:01.999Z</time></trkpt><trkpt lat="42.41448774899066" lon="14.213263027307327"><ele>67.0</ele><time>2026-04-12T12:00:02.999Z</time></trkpt><trkpt lat="42.41452403790727" lon="14.213137551758553"><ele>67.0</ele><time>2026-04-12T12:00:03.999Z</time></trkpt><trkpt lat="42.41452880432646" lon="14.213011384470464"><ele>67.0</ele><time>2026-04-12T12:00:04.999Z</time></trkpt><trkpt lat="42.414512334982355" lon="14.212880793058941"><ele>67.0</ele><time>2026-04-12T12:00:05.999Z</time></trkpt><trkpt lat="42.41447930847692" lon="14.21275089126485"><ele>67.0</ele><time>2026-04-12T12:00:06.999Z</time></trkpt><trkpt lat="42.414405642452614" lon="14.212614487670452"><ele>67.0</ele><time>2026-04-12T12:00:07.999Z</time></trkpt><trkpt lat="42.41434029346728" lon="14.212494460731502"><ele>67.0</ele><time>2026-04-12T12:00:08.999Z</time></trkpt><trkpt lat="42.41428803092346" lon="14.212350602629623"><ele>67.0</ele><time>2026-04-12T12:00:09.999Z</time></trkpt><trkpt lat="42.41423234122107" lon="14.212204733555167"><ele>67.0</ele><time>2026-04-12T12:00:10.999Z</time></trkpt><trkpt lat="42.41417293244262" lon="14.212065531151211"><ele>67.0</ele><time>2026-04-12T12:00:11.999Z</time></trkpt><trkpt lat="42.41411838406214" lon="14.21192879781261"><ele>67.25</ele><time>2026-04-12T12:00:12.999Z</time></trkpt><trkpt lat="42.4140728867703" lon="14.211799808402477"><ele>67.5</ele><time>2026-04-12T12:00:13.999Z</time></trkpt><trkpt lat="42.414021096816505" lon="14.21164536766562"><ele>67.75</ele><time>2026-04-12T12:00:14.999Z</time></trkpt><trkpt lat="42.41395833048757" lon="14.211496689471355"><ele>68.0</ele><time>2026-04-12T12:00:15.999Z</time></trkpt><trkpt lat="42.413899559299146" lon="14.211338537101744"><ele>68.75</ele><time>2026-04-12T12:00:16.999Z</time></trkpt><trkpt lat="42.41384533360549" lon="14.211192438079904"><ele>69.5</ele><time>2026-04-12T12:00:17.999Z</time></trkpt><trkpt lat="42.41378796067973" lon="14.211042692712084"><ele>70.25</ele><time>2026-04-12T12:00:18.999Z</time></trkpt><trkpt lat="42.41373665652846" lon="14.210889864012369"><ele>71.0</ele><time>2026-04-12T12:00:19.999Z</time></trkpt><trkpt lat="42.41370840476432" lon="14.210741068260138"><ele>71.2</ele><time>2026-04-12T12:00:20.999Z</time></trkpt><trkpt lat="42.4137188737755" lon="14.210600992907985"><ele>71.39999999999999</ele><time>2026-04-12T12:00:21.999Z</time></trkpt><trkpt lat="42.41373113608579" lon="14.210474629933461"><ele>71.6</ele><time>2026-04-12T12:00:22.999Z</time></trkpt><trkpt lat="42.41370998352564" lon="14.210361874838538"><ele>71.8</ele><time>2026-04-12T12:00:23.999Z</time></trkpt><trkpt lat="42.41365540519239" lon="14.210261402842695"><ele>72.0</ele><time>2026-04-12T12:00:24.999Z</time></trkpt><trkpt lat="42.41358944678541" lon="14.210163956474318"><ele>72.0</ele><time>2026-04-12T12:00:25.999Z</time></trkpt><trkpt lat="42.413521925257825" lon="14.210075184379079"><ele>72.0</ele><time>2026-04-12T12:00:26.999Z</time></trkpt><trkpt lat="42.41344222583253" lon="14.210012071703503"><ele>72.0</ele><time>2026-04-12T12:00:27.999Z</time></trkpt><trkpt lat="42.4133428887305" lon="14.209962695169143"><ele>72.0</ele><time>2026-04-12T12:00:28.999Z</time></trkpt><trkpt lat="42.41326688284864" lon="14.209914681568408"><ele>72.0</ele><time>2026-04-12T12:00:29.999Z</time></trkpt><trkpt lat="42.41321709901868" lon="14.209844755858509"><ele>72.0</ele><time>2026-04-12T12:00:30.999Z</time></trkpt><trkpt lat="42.413177167492854" lon="14.209747954303483"><ele>72.2</ele><time>2026-04-12T12:00:31.999Z</time></trkpt><trkpt lat="42.41312247788476" lon="14.209657054073675"><ele>72.4</ele><time>2026-04-12T12:00:32.999Z</time></trkpt><trkpt lat="42.413044964074295" lon="14.209590340409024"><ele>72.6</ele><time>2026-04-12T12:00:33.999Z</time></trkpt><trkpt lat="42.41297924529228" lon="14.209563599306405"><ele>72.8</ele><time>2026-04-12T12:00:34.999Z</time></trkpt><trkpt lat="42.41288500340806" lon="14.209554584295757"><ele>73.0</ele><time>2026-04-12T12:00:36.999Z</time></trkpt><trkpt lat="42.4130231567942" lon="14.209607414707557"><ele>73.0</ele><time>2026-04-12T12:00:49.998Z</time></trkpt><trkpt lat="42.413116850197994" lon="14.209659204841829"><ele>73.0</ele><time>2026-04-12T12:00:50.998Z</time></trkpt><trkpt lat="42.41318399096649" lon="14.209731136006448"><ele>73.0</ele><time>2026-04-12T12:00:51.998Z</time></trkpt><trkpt lat="42.41322536609994" lon="14.209808945414235"><ele>73.0</ele><time>2026-04-12T12:00:52.998Z</time></trkpt><trkpt lat="42.413171582764676" lon="14.209898864454786"><ele>73.0</ele><time>2026-04-12T12:00:55.998Z</time></trkpt><trkpt lat="42.41303520416982" lon="14.209991265642511"><ele>74.2</ele><time>2026-04-12T12:00:57.998Z</time></trkpt><trkpt lat="42.412952232143546" lon="14.21004968337972"><ele>75.4</ele><time>2026-04-12T12:00:58.998Z</time></trkpt><trkpt lat="42.41287209197645" lon="14.210104198704975"><ele>76.60000000000001</ele><time>2026-04-12T12:00:59.998Z</time></trkpt><trkpt lat="42.412845754237345" lon="14.210224797036878"><ele>77.8</ele><time>2026-04-12T12:01:02.998Z</time></trkpt><trkpt lat="42.41283562625084" lon="14.210336210887535"><ele>79.0</ele><time>2026-04-12T12:01:03.998Z</time></trkpt><trkpt lat="42.412850678495666" lon="14.21046657298244"><ele>79.0</ele><time>2026-04-12T12:01:04.998Z</time></trkpt><trkpt lat="42.41284965307878" lon="14.210613741204929"><ele>79.0</ele><time>2026-04-12T12:01:05.998Z</time></trkpt><trkpt lat="42.41284640453513" lon="14.210793642469943"><ele>79.0</ele><time>2026-04-12T12:01:06.998Z</time></trkpt><trkpt lat="42.41283449741444" lon="14.210999459405853"><ele>79.0</ele><time>2026-04-12T12:01:07.998Z</time></trkpt><trkpt lat="42.41282279548236" lon="14.211190847573222"><ele>80.0</ele><time>2026-04-12T12:01:08.998Z</time></trkpt><trkpt lat="42.41282744207885" lon="14.21141635901364"><ele>81.0</ele><time>2026-04-12T12:01:09.998Z</time></trkpt><trkpt lat="42.412858095156295" lon="14.21165504122981"><ele>82.0</ele><time>2026-04-12T12:01:10.998Z</time></trkpt><trkpt lat="42.41288573182723" lon="14.211890632867117"><ele>82.0</ele><time>2026-04-12T12:01:11.998Z</time></trkpt><trkpt lat="42.412904606718975" lon="14.212124083395187"><ele>82.0</ele><time>2026-04-12T12:01:12.998Z</time></trkpt><trkpt lat="42.41296032868238" lon="14.212347243372907"><ele>82.0</ele><time>2026-04-12T12:01:13.998Z</time></trkpt><trkpt lat="42.41300369638331" lon="14.212585302715292"><ele>79.66666666666666</ele><time>2026-04-12T12:01:14.998Z</time></trkpt><trkpt lat="42.413070560864234" lon="14.212821261426907"><ele>77.33333333333333</ele><time>2026-04-12T12:01:15.998Z</time></trkpt><trkpt lat="42.41314745423512" lon="14.213071624013175"><ele>75.0</ele><time>2026-04-12T12:01:16.998Z</time></trkpt><trkpt lat="42.413226344328585" lon="14.21332374195344"><ele>75.0</ele><time>2026-04-12T12:01:18Z</time></trkpt><trkpt lat="42.41329625923598" lon="14.213553372734617"><ele>75.0</ele><time>2026-04-12T12:01:19Z</time></trkpt><trkpt lat="42.41333804499565" lon="14.213763805077654"><ele>75.0</ele><time>2026-04-12T12:01:20Z</time></trkpt><trkpt lat="42.41336236926926" lon="14.21398577387007"><ele>78.0</ele><time>2026-04-12T12:01:21Z</time></trkpt><trkpt lat="42.41339734432291" lon="14.214195147650441"><ele>81.0</ele><time>2026-04-12T12:01:22Z</time></trkpt><trkpt lat="42.413459395155954" lon="14.214395349183542"><ele>84.0</ele><time>2026-04-12T12:01:23Z</time></trkpt><trkpt lat="42.413534883395236" lon="14.214614702172847"><ele>86.0</ele><time>2026-04-12T12:01:24Z</time></trkpt><trkpt lat="42.41363632294279" lon="14.214821052034317"><ele>88.0</ele><time>2026-04-12T12:01:25Z</time></trkpt><trkpt lat="42.41372970739403" lon="14.215038152549853"><ele>90.0</ele><time>2026-04-12T12:01:26Z</time></trkpt><trkpt lat="42.41379724249739" lon="14.215281348992487"><ele>85.0</ele><time>2026-04-12T12:01:27Z</time></trkpt><trkpt lat="42.413867831760584" lon="14.215516758780673"><ele>80.0</ele><time>2026-04-12T12:01:28Z</time></trkpt><trkpt lat="42.413948829048564" lon="14.21575354253774"><ele>75.0</ele><time>2026-04-12T12:01:29Z</time></trkpt><trkpt lat="42.41405903633374" lon="14.215973990651234"><ele>75.0</ele><time>2026-04-12T12:01:30Z</time></trkpt><trkpt lat="42.414157487872316" lon="14.216210718064726"><ele>75.0</ele><time>2026-04-12T12:01:31Z</time></trkpt><trkpt lat="42.414258868545176" lon="14.21644663268408"><ele>75.0</ele><time>2026-04-12T12:01:32Z</time></trkpt><trkpt lat="42.41434638625402" lon="14.216657660148691"><ele>77.0</ele><time>2026-04-12T12:01:33Z</time></trkpt><trkpt lat="42.41441909858747" lon="14.216842615339262"><ele>79.0</ele><time>2026-04-12T12:01:34Z</time></trkpt><trkpt lat="42.414485629114175" lon="14.217038452695924"><ele>81.0</ele><time>2026-04-12T12:01:35Z</time></trkpt><trkpt lat="42.41453116040605" lon="14.217233893415639"><ele>83.19999999999999</ele><time>2026-04-12T12:01:36Z</time></trkpt><trkpt lat="42.41454844633955" lon="14.217443528526015"><ele>85.39999999999999</ele><time>2026-04-12T12:01:37Z</time></trkpt><trkpt lat="42.4145496133382" lon="14.217597841493188"><ele>87.6</ele><time>2026-04-12T12:01:38Z</time></trkpt><trkpt lat="42.414537021745545" lon="14.217688739417751"><ele>89.8</ele><time>2026-04-12T12:01:39Z</time></trkpt><trkpt lat="42.41448139900151" lon="14.217765824937919"><ele>92.0</ele><time>2026-04-12T12:01:40Z</time></trkpt><trkpt lat="42.41439514873135" lon="14.21783847246594"><ele>92.0</ele><time>2026-04-12T12:01:41Z</time></trkpt><trkpt lat="42.414292823282764" lon="14.217916132091126"><ele>92.0</ele><time>2026-04-12T12:01:41.999Z</time></trkpt><trkpt lat="42.41419111033486" lon="14.218005973775107"><ele>92.0</ele><time>2026-04-12T12:01:42.999Z</time></trkpt><trkpt lat="42.414108469761054" lon="14.21812585967249"><ele>92.0</ele><time>2026-04-12T12:01:43.999Z</time></trkpt><trkpt lat="42.4140430462131" lon="14.218283705977324"><ele>90.6</ele><time>2026-04-12T12:01:44.999Z</time></trkpt><trkpt lat="42.41397800793683" lon="14.218432563759706"><ele>89.19999999999999</ele><time>2026-04-12T12:01:45.999Z</time></trkpt><trkpt lat="42.41392065779681" lon="14.218557839785078"><ele>87.8</ele><time>2026-04-12T12:01:46.999Z</time></trkpt><trkpt lat="42.4138658219262" lon="14.218640787313273"><ele>86.4</ele><time>2026-04-12T12:01:47.999Z</time></trkpt><trkpt lat="42.41382773084056" lon="14.218711693196447"><ele>85.0</ele><time>2026-04-12T12:01:48.999Z</time></trkpt><trkpt lat="42.41374091544425" lon="14.218811687854263"><ele>85.5</ele><time>2026-04-12T12:01:50.999Z</time></trkpt><trkpt lat="42.4136581252517" lon="14.218893542568493"><ele>86.0</ele><time>2026-04-12T12:01:52.999Z</time></trkpt><trkpt lat="42.4135775175685" lon="14.21954747897579"><ele>86.0</ele><time>2026-04-12T12:02:02.999Z</time></trkpt><trkpt lat="42.41359104476683" lon="14.219687662707985"><ele>86.0</ele><time>2026-04-12T12:02:05.999Z</time></trkpt><trkpt lat="42.413599409068006" lon="14.219848405666008"><ele>86.0</ele><time>2026-04-12T12:02:07.999Z</time></trkpt><trkpt lat="42.413590265178094" lon="14.219952541129668"><ele>86.0</ele><time>2026-04-12T12:02:08.999Z</time></trkpt><trkpt lat="42.413588402903834" lon="14.220065833278781"><ele>86.0</ele><time>2026-04-12T12:02:09.999Z</time></trkpt><trkpt lat="42.413615428153285" lon="14.220180721732337"><ele>83.8</ele><time>2026-04-12T12:02:10.999Z</time></trkpt><trkpt lat="42.41362800486386" lon="14.220269198879658"><ele>81.6</ele><time>2026-04-12T12:02:11.999Z</time></trkpt><trkpt lat="42.413629051927494" lon="14.220400144411002"><ele>79.4</ele><time>2026-04-12T12:02:12.999Z</time></trkpt><trkpt lat="42.41361952615598" lon="14.220568328824529"><ele>77.2</ele><time>2026-04-12T12:02:13.999Z</time></trkpt><trkpt lat="42.413633515694514" lon="14.220708340786224"><ele>75.0</ele><time>2026-04-12T12:02:14.999Z</time></trkpt><trkpt lat="42.413618174547565" lon="14.220802683346658"><ele>75.0</ele><time>2026-04-12T12:02:15.999Z</time></trkpt><trkpt lat="42.41359640380938" lon="14.220896256334763"><ele>75.0</ele><time>2026-04-12T12:02:16.999Z</time></trkpt><trkpt lat="42.41353940667884" lon="14.221010004647065"><ele>75.0</ele><time>2026-04-12T12:02:18.999Z</time></trkpt><trkpt lat="42.413429541733514" lon="14.221110174554303"><ele>75.0</ele><time>2026-04-12T12:02:21.999Z</time></trkpt><trkpt lat="42.413339528503" lon="14.221124870857333"><ele>75.0</ele><time>2026-04-12T12:02:23.999Z</time></trkpt><trkpt lat="42.41324786009941" lon="14.221201423002654"><ele>75.0</ele><time>2026-04-12T12:02:25.999Z</time></trkpt><trkpt lat="42.41328544558146" lon="14.221351016891017"><ele>75.0</ele><time>2026-04-12T12:02:27.999Z</time></trkpt><trkpt lat="42.41341202602641" lon="14.221373084048214"><ele>75.0</ele><time>2026-04-12T12:02:29.999Z</time></trkpt><trkpt lat="42.41347645339319" lon="14.22139255635625"><ele>75.0</ele><time>2026-04-12T12:02:30.999Z</time></trkpt><trkpt lat="42.413557705468435" lon="14.221407117958426"><ele>75.0</ele><time>2026-04-12T12:02:31.999Z</time></trkpt><trkpt lat="42.413622661119305" lon="14.221410005425504"><ele>75.0</ele><time>2026-04-12T12:02:32.999Z</time></trkpt><trkpt lat="42.4136924784018" lon="14.221477289791562"><ele>75.0</ele><time>2026-04-12T12:02:33.999Z</time></trkpt><trkpt lat="42.41374756580185" lon="14.221544729632264"><ele>75.0</ele><time>2026-04-12T12:02:34.999Z</time></trkpt><trkpt lat="42.41377786868304" lon="14.221652443655707"><ele>75.0</ele><time>2026-04-12T12:02:35.999Z</time></trkpt><trkpt lat="42.41385120783834" lon="14.221742583491643"><ele>75.0</ele><time>2026-04-12T12:02:37.999Z</time></trkpt><trkpt lat="42.41397530727566" lon="14.221851197586885"><ele>77.83333333333333</ele><time>2026-04-12T12:02:39.999Z</time></trkpt><trkpt lat="42.41402067495651" lon="14.221945405810237"><ele>80.66666666666667</ele><time>2026-04-12T12:02:40.999Z</time></trkpt><trkpt lat="42.414073262826335" lon="14.222010750613167"><ele>83.5</ele><time>2026-04-12T12:02:41.999Z</time></trkpt><trkpt lat="42.41413932674943" lon="14.222051120763355"><ele>86.33333333333334</ele><time>2026-04-12T12:02:42.998Z</time></trkpt><trkpt lat="42.41419510825394" lon="14.222101754271183"><ele>89.16666666666667</ele><time>2026-04-12T12:02:43.998Z</time></trkpt><trkpt lat="42.41426517499376" lon="14.222163693678306"><ele>92.0</ele><time>2026-04-12T12:02:44.998Z</time></trkpt><trkpt lat="42.414308621120064" lon="14.222279071624232"><ele>92.0</ele><time>2026-04-12T12:02:46.998Z</time></trkpt><trkpt lat="42.41454967196643" lon="14.222311675346251"><ele>92.0</ele><time>2026-04-12T12:02:50.998Z</time></trkpt><trkpt lat="42.41461718005063" lon="14.222595893746806"><ele>94.6</ele><time>2026-04-12T12:02:53.998Z</time></trkpt><trkpt lat="42.414624888219905" lon="14.222695367106551"><ele>97.19999999999999</ele><time>2026-04-12T12:02:54.998Z</time></trkpt><trkpt lat="42.41462628103617" lon="14.22278366927166"><ele>99.8</ele><time>2026-04-12T12:02:55.998Z</time></trkpt><trkpt lat="42.414618634812925" lon="14.222963698651322"><ele>102.4</ele><time>2026-04-12T12:02:57.998Z</time></trkpt><trkpt lat="42.41457557704361" lon="14.22314577226545"><ele>105.0</ele><time>2026-04-12T12:02:59.998Z</time></trkpt><trkpt lat="42.41455487588824" lon="14.223260559195486"><ele>107.33333333333333</ele><time>2026-04-12T12:03:00.998Z</time></trkpt><trkpt lat="42.41455273277299" lon="14.22336165247023"><ele>109.66666666666666</ele><time>2026-04-12T12:03:01.998Z</time></trkpt><trkpt lat="42.41452540565361" lon="14.22345523276935"><ele>112.0</ele><time>2026-04-12T12:03:02.998Z</time></trkpt><trkpt lat="42.41450768700486" lon="14.22355717205219"><ele>114.33333333333333</ele><time>2026-04-12T12:03:03.998Z</time></trkpt><trkpt lat="42.41445494776415" lon="14.223636050276351"><ele>116.66666666666666</ele><time>2026-04-12T12:03:04.998Z</time></trkpt><trkpt lat="42.414386414047854" lon="14.223756284803267"><ele>119.0</ele><time>2026-04-12T12:03:06.998Z</time></trkpt><trkpt lat="42.41442439866884" lon="14.223850518737178"><ele>119.0</ele><time>2026-04-12T12:03:08.998Z</time></trkpt><trkpt lat="42.4144683428359" lon="14.223918157817657"><ele>119.0</ele><time>2026-04-12T12:03:09.998Z</time></trkpt><trkpt lat="42.41452339541495" lon="14.223981158367105"><ele>119.0</ele><time>2026-04-12T12:03:14.998Z</time></trkpt><trkpt lat="42.41475707511836" lon="14.2238712578592"><ele>119.0</ele><time>2026-04-12T12:03:20.998Z</time></trkpt><trkpt lat="42.41490316792328" lon="14.223736526048144"><ele>120.6</ele><time>2026-04-12T12:03:21.998Z</time></trkpt><trkpt lat="42.415032521913005" lon="14.223668139901068"><ele>122.2</ele><time>2026-04-12T12:03:22.998Z</time></trkpt><trkpt lat="42.41511202868441" lon="14.223603194232014"><ele>123.79999999999998</ele><time>2026-04-12T12:03:24Z</time></trkpt><trkpt lat="42.41522309230841" lon="14.223564337508098"><ele>125.39999999999999</ele><time>2026-04-12T12:03:26Z</time></trkpt><trkpt lat="42.41521119190165" lon="14.223478218286102"><ele>127.0</ele><time>2026-04-12T12:03:30Z</time></trkpt><trkpt lat="42.41568702338063" lon="14.22327396993409"><ele>127.0</ele><time>2026-04-12T12:03:34Z</time></trkpt><trkpt lat="42.4156108036263" lon="14.223388042511433"><ele>126.99999999999999</ele><time>2026-04-12T12:03:41Z</time></trkpt><trkpt lat="42.41552512731768" lon="14.223475723888715"><ele>126.99999999999999</ele><time>2026-04-12T12:03:43Z</time></trkpt><trkpt lat="42.41546439422134" lon="14.223594474593488"><ele>127.0</ele><time>2026-04-12T12:03:44.999Z</time></trkpt><trkpt lat="42.41541932428309" lon="14.223656530808157"><ele>127.0</ele><time>2026-04-12T12:03:45.999Z</time></trkpt><trkpt lat="42.415348505035425" lon="14.223719386294652"><ele>127.0</ele><time>2026-04-12T12:03:46.999Z</time></trkpt><trkpt lat="42.41527657822071" lon="14.223787298137758"><ele>127.0</ele><time>2026-04-12T12:03:48.999Z</time></trkpt><trkpt lat="42.41511883476372" lon="14.223901520314731"><ele>127.0</ele><time>2026-04-12T12:03:50.999Z</time></trkpt><trkpt lat="42.41511353015091" lon="14.224026554680366"><ele>127.0</ele><time>2026-04-12T12:03:53.999Z</time></trkpt><trkpt lat="42.41507411787132" lon="14.224146465227463"><ele>134.0</ele><time>2026-04-12T12:03:54.999Z</time></trkpt><trkpt lat="42.41501984908659" lon="14.224239568073749"><ele>141.0</ele><time>2026-04-12T12:03:55.999Z</time></trkpt><trkpt lat="42.41496537212911" lon="14.224339170293735"><ele>148.0</ele><time>2026-04-12T12:03:56.999Z</time></trkpt><trkpt lat="42.41452446188787" lon="14.225352739646183"><ele>148.66666666666669</ele><time>2026-04-12T12:03:57.999Z</time></trkpt><trkpt lat="42.41460430858561" lon="14.225294813854239"><ele>149.33333333333334</ele><time>2026-04-12T12:03:59.999Z</time></trkpt><trkpt lat="42.41465785956781" lon="14.225469542510806"><ele>150.0</ele><time>2026-04-12T12:04:05.999Z</time></trkpt><trkpt lat="42.414600278928624" lon="14.22553663007403"><ele>150.66666666666666</ele><time>2026-04-12T12:04:07.999Z</time></trkpt><trkpt lat="42.41459733718546" lon="14.225640686788392"><ele>151.33333333333331</ele><time>2026-04-12T12:04:11.999Z</time></trkpt><trkpt lat="42.414590705345425" lon="14.225727139800505"><ele>152.0</ele><time>2026-04-12T12:04:13.999Z</time></trkpt><trkpt lat="42.41501190012838" lon="14.225194961673"><ele>154.2</ele><time>2026-04-12T12:04:14.999Z</time></trkpt><trkpt lat="42.415018236920304" lon="14.225302137275056"><ele>156.39999999999998</ele><time>2026-04-12T12:04:17.999Z</time></trkpt><trkpt lat="42.415042210778914" lon="14.225386467012807"><ele>158.60000000000002</ele><time>2026-04-12T12:04:19.999Z</time></trkpt><trkpt lat="42.41511259880049" lon="14.22547217678599"><ele>160.8</ele><time>2026-04-12T12:04:21.999Z</time></trkpt><trkpt lat="42.41512367911276" lon="14.225567889394858"><ele>163.0</ele><time>2026-04-12T12:04:23.999Z</time></trkpt><trkpt lat="42.41498248272821" lon="14.22583867246691"><ele>165.0</ele><time>2026-04-12T12:04:24.999Z</time></trkpt><trkpt lat="42.41487570420272" lon="14.226039869713347"><ele>167.0</ele><time>2026-04-12T12:04:25.999Z</time></trkpt><trkpt lat="42.41456408083445" lon="14.226487745624697"><ele>167.0</ele><time>2026-04-12T12:04:26.999Z</time></trkpt><trkpt lat="42.41447762290263" lon="14.226574977529003"><ele>167.0</ele><time>2026-04-12T12:04:33.999Z</time></trkpt><trkpt lat="42.41382570969834" lon="14.227596081669995"><ele>161.0</ele><time>2026-04-12T12:04:34.999Z</time></trkpt><trkpt lat="42.41444459614982" lon="14.226399114654471"><ele>164.0</ele><time>2026-04-12T12:04:38.999Z</time></trkpt><trkpt lat="42.414260928657534" lon="14.226754339638916"><ele>167.0</ele><time>2026-04-12T12:04:39.999Z</time></trkpt><trkpt lat="42.41387834641487" lon="14.227494278805617"><ele>167.5</ele><time>2026-04-12T12:04:41.999Z</time></trkpt><trkpt lat="42.41382885790647" lon="14.227589992828857"><ele>168.0</ele><time>2026-04-12T12:04:42.999Z</time></trkpt><trkpt lat="42.413944108583635" lon="14.227759537176789"><ele>168.5</ele><time>2026-04-12T12:06:49.998Z</time></trkpt><trkpt lat="42.414035420793745" lon="14.227794475448007"><ele>169.0</ele><time>2026-04-12T12:06:50.998Z</time></trkpt><trkpt lat="42.41413233538748" lon="14.227841398593588"><ele>169.0</ele><time>2026-04-12T12:06:51.998Z</time></trkpt><trkpt lat="42.41421027393611" lon="14.228009748909871"><ele>169.0</ele><time>2026-04-12T12:06:52.998Z</time></trkpt><trkpt lat="42.41435039664183" lon="14.227982965388234"><ele>169.0</ele><time>2026-04-12T12:06:53.998Z</time></trkpt><trkpt lat="42.41447197942599" lon="14.228069637617953"><ele>169.0</ele><time>2026-04-12T12:06:54.998Z</time></trkpt><trkpt lat="42.41459871238635" lon="14.228166051439898"><ele>169.33333333333334</ele><time>2026-04-12T12:06:55.998Z</time></trkpt><trkpt lat="42.41473110265089" lon="14.22828713626882"><ele>169.66666666666666</ele><time>2026-04-12T12:06:56.998Z</time></trkpt><trkpt lat="42.414853123810715" lon="14.228409032289305"><ele>170.0</ele><time>2026-04-12T12:06:57.998Z</time></trkpt><trkpt lat="42.41497797361706" lon="14.228535374668224"><ele>170.0</ele><time>2026-04-12T12:06:58.998Z</time></trkpt><trkpt lat="42.41511228428889" lon="14.228672927467288"><ele>170.0</ele><time>2026-04-12T12:06:59.998Z</time></trkpt><trkpt lat="42.415212126699856" lon="14.228881529679187"><ele>170.0</ele><time>2026-04-12T12:07:00.998Z</time></trkpt><trkpt lat="42.41534935033381" lon="14.229025447991777"><ele>169.33333333333331</ele><time>2026-04-12T12:07:01.998Z</time></trkpt><trkpt lat="42.41548585157528" lon="14.229174379896355"><ele>168.66666666666666</ele><time>2026-04-12T12:07:02.998Z</time></trkpt><trkpt lat="42.41562391097202" lon="14.229325011823018"><ele>168.0</ele><time>2026-04-12T12:07:03.998Z</time></trkpt><trkpt lat="42.41575320468514" lon="14.22946607974123"><ele>168.0</ele><time>2026-04-12T12:07:04.998Z</time></trkpt><trkpt lat="42.41587469262727" lon="14.229599500750856"><ele>168.0</ele><time>2026-04-12T12:07:05.998Z</time></trkpt><trkpt lat="42.41600285390053" lon="14.229740805464145"><ele>168.0</ele><time>2026-04-12T12:07:06.998Z</time></trkpt><trkpt lat="42.41612596442856" lon="14.229876869921677"><ele>168.0</ele><time>2026-04-12T12:07:07.998Z</time></trkpt><trkpt lat="42.41624555123887" lon="14.230019059816446"><ele>168.0</ele><time>2026-04-12T12:07:08.998Z</time></trkpt><trkpt lat="42.41636001674923" lon="14.230165585198344"><ele>168.0</ele><time>2026-04-12T12:07:09.998Z</time></trkpt><trkpt lat="42.416462106274736" lon="14.230304114934796"><ele>168.0</ele><time>2026-04-12T12:07:10.998Z</time></trkpt><trkpt lat="42.41655519294446" lon="14.230436433127476"><ele>168.0</ele><time>2026-04-12T12:07:11.998Z</time></trkpt><trkpt lat="42.41663872042486" lon="14.230566080829185"><ele>168.0</ele><time>2026-04-12T12:07:12.998Z</time></trkpt><trkpt lat="42.416706229271185" lon="14.23067743130065"><ele>168.0</ele><time>2026-04-12T12:07:13.998Z</time></trkpt><trkpt lat="42.41676698943092" lon="14.230780231967302"><ele>168.0</ele><time>2026-04-12T12:07:14.998Z</time></trkpt><trkpt lat="42.41681062448173" lon="14.23085542381633"><ele>168.0</ele><time>2026-04-12T12:07:15.998Z</time></trkpt><trkpt lat="42.41685908218085" lon="14.230939128593096"><ele>168.0</ele><time>2026-04-12T12:07:16.998Z</time></trkpt><trkpt lat="42.416921595364514" lon="14.23104759918938"><ele>168.0</ele><time>2026-04-12T12:07:17.998Z</time></trkpt><trkpt lat="42.416972601238314" lon="14.231140518069088"><ele>168.0</ele><time>2026-04-12T12:07:18.998Z</time></trkpt><trkpt lat="42.41700129387289" lon="14.231244277869367"><ele>168.0</ele><time>2026-04-12T12:07:20.998Z</time></trkpt><trkpt lat="42.41686153734492" lon="14.231325697605158"><ele>168.0</ele><time>2026-04-12T12:07:22.998Z</time></trkpt><trkpt lat="42.416768733581506" lon="14.231397364972532"><ele>168.0</ele><time>2026-04-12T12:07:23.998Z</time></trkpt><trkpt lat="42.41666016134525" lon="14.231480831158345"><ele>168.0</ele><time>2026-04-12T12:07:24.998Z</time></trkpt><trkpt lat="42.41654618479587" lon="14.231568328314284"><ele>168.0</ele><time>2026-04-12T12:07:25.998Z</time></trkpt><trkpt lat="42.41643008341367" lon="14.231658649300753"><ele>168.33333333333334</ele><time>2026-04-12T12:07:26.998Z</time></trkpt><trkpt lat="42.41630953156602" lon="14.231775596484894"><ele>168.66666666666669</ele><time>2026-04-12T12:07:27.998Z</time></trkpt><trkpt lat="42.41617503977514" lon="14.23188085723737"><ele>169.0</ele><time>2026-04-12T12:07:28.998Z</time></trkpt><trkpt lat="42.41604092910065" lon="14.231979026729018"><ele>169.0</ele><time>2026-04-12T12:07:29.998Z</time></trkpt><trkpt lat="42.41591104717394" lon="14.23208149636636"><ele>169.0</ele><time>2026-04-12T12:07:30.998Z</time></trkpt><trkpt lat="42.41577621038161" lon="14.232157273626658"><ele>169.0</ele><time>2026-04-12T12:07:31.998Z</time></trkpt><trkpt lat="42.41564825509478" lon="14.23225290503709"><ele>169.0</ele><time>2026-04-12T12:07:32.998Z</time></trkpt><trkpt lat="42.41551932301035" lon="14.232347904011927"><ele>167.0</ele><time>2026-04-12T12:07:33.998Z</time></trkpt><trkpt lat="42.41538196740934" lon="14.232444747462502"><ele>165.0</ele><time>2026-04-12T12:07:35Z</time></trkpt><trkpt lat="42.41526541082268" lon="14.232552541598677"><ele>163.0</ele><time>2026-04-12T12:07:36Z</time></trkpt><trkpt lat="42.41515718789076" lon="14.232632848674132"><ele>161.0</ele><time>2026-04-12T12:07:37Z</time></trkpt><trkpt lat="42.415049762267735" lon="14.23268329998455"><ele>161.0</ele><time>2026-04-12T12:07:38Z</time></trkpt><trkpt lat="42.41496227379733" lon="14.232741053981158"><ele>161.0</ele><time>2026-04-12T12:07:39Z</time></trkpt><trkpt lat="42.41486897860729" lon="14.232746983498048"><ele>161.0</ele><time>2026-04-12T12:07:40Z</time></trkpt><trkpt lat="42.4148024601418" lon="14.232759494847663"><ele>161.0</ele><time>2026-04-12T12:07:41Z</time></trkpt><trkpt lat="42.41490339444893" lon="14.232549666554043"><ele>161.0</ele><time>2026-04-12T12:07:46Z</time></trkpt><trkpt lat="42.41492525318839" lon="14.232453489501111"><ele>160.60000000000002</ele><time>2026-04-12T12:07:47Z</time></trkpt><trkpt lat="42.41494142608209" lon="14.232298972096832"><ele>160.20000000000002</ele><time>2026-04-12T12:07:49Z</time></trkpt><trkpt lat="42.41494010439317" lon="14.232201360571622"><ele>159.8</ele><time>2026-04-12T12:07:50Z</time></trkpt><trkpt lat="42.414907141055195" lon="14.232097523524345"><ele>159.4</ele><time>2026-04-12T12:07:50.999Z</time></trkpt><trkpt lat="42.41483738659697" lon="14.23200114425345"><ele>159.0</ele><time>2026-04-12T12:07:51.999Z</time></trkpt><trkpt lat="42.41476361609956" lon="14.231927624771622"><ele>159.0</ele><time>2026-04-12T12:07:52.999Z</time></trkpt><trkpt lat="42.414734054709086" lon="14.231847868767385"><ele>159.0</ele><time>2026-04-12T12:07:53.999Z</time></trkpt><trkpt lat="42.41471183570668" lon="14.231718527034591"><ele>159.0</ele><time>2026-04-12T12:07:56.999Z</time></trkpt><trkpt lat="42.41469299440242" lon="14.231574037395813"><ele>159.0</ele><time>2026-04-12T12:07:58.999Z</time></trkpt><trkpt lat="42.41468495332452" lon="14.23147180083984"><ele>159.0</ele><time>2026-04-12T12:07:59.999Z</time></trkpt><trkpt lat="42.4146606230858" lon="14.231313457608717"><ele>155.2</ele><time>2026-04-12T12:08:00.999Z</time></trkpt><trkpt lat="42.41464597416425" lon="14.231161285104628"><ele>151.4</ele><time>2026-04-12T12:08:01.999Z</time></trkpt><trkpt lat="42.41463788742226" lon="14.231006939144114"><ele>147.6</ele><time>2026-04-12T12:08:02.999Z</time></trkpt><trkpt lat="42.414631254269665" lon="14.230872318134606"><ele>143.8</ele><time>2026-04-12T12:08:03.999Z</time></trkpt><trkpt lat="42.41463350013524" lon="14.23076868396121"><ele>140.0</ele><time>2026-04-12T12:08:04.999Z</time></trkpt><trkpt lat="42.41463489399693" lon="14.230637087168104"><ele>140.0</ele><time>2026-04-12T12:08:05.999Z</time></trkpt><trkpt lat="42.41462548836272" lon="14.230471901968697"><ele>140.0</ele><time>2026-04-12T12:08:06.999Z</time></trkpt><trkpt lat="42.4146066719255" lon="14.230312698213778"><ele>140.0</ele><time>2026-04-12T12:08:07.999Z</time></trkpt><trkpt lat="42.41457525168452" lon="14.230152344993554"><ele>140.0</ele><time>2026-04-12T12:08:08.999Z</time></trkpt><trkpt lat="42.41454605544049" lon="14.230006163989307"><ele>140.0</ele><time>2026-04-12T12:08:09.999Z</time></trkpt><trkpt lat="42.414510878368645" lon="14.229872503473189"><ele>140.0</ele><time>2026-04-12T12:08:10.999Z</time></trkpt><trkpt lat="42.41448728833343" lon="14.229740609202466"><ele>140.0</ele><time>2026-04-12T12:08:11.999Z</time></trkpt><trkpt lat="42.414452982855245" lon="14.229602405180284"><ele>140.0</ele><time>2026-04-12T12:08:12.999Z</time></trkpt><trkpt lat="42.41441630556894" lon="14.229481903742531"><ele>140.0</ele><time>2026-04-12T12:08:13.999Z</time></trkpt><trkpt lat="42.414364963219924" lon="14.229387172177221"><ele>142.33333333333331</ele><time>2026-04-12T12:08:14.999Z</time></trkpt><trkpt lat="42.41430041655734" lon="14.229355409059112"><ele>144.66666666666666</ele><time>2026-04-12T12:08:15.999Z</time></trkpt><trkpt lat="42.414212719573236" lon="14.229361834783038"><ele>147.0</ele><time>2026-04-12T12:08:16.999Z</time></trkpt><trkpt lat="42.41412375012709" lon="14.229365843092111"><ele>149.33333333333334</ele><time>2026-04-12T12:08:17.999Z</time></trkpt><trkpt lat="42.41405419067823" lon="14.229387816149455"><ele>151.66666666666669</ele><time>2026-04-12T12:08:18.999Z</time></trkpt><trkpt lat="42.41396372714417" lon="14.229433783696761"><ele>154.0</ele><time>2026-04-12T12:08:19.999Z</time></trkpt><trkpt lat="42.413875729221076" lon="14.229473487773447"><ele>154.0</ele><time>2026-04-12T12:08:20.999Z</time></trkpt><trkpt lat="42.413822078364035" lon="14.229526398234965"><ele>154.0</ele><time>2026-04-12T12:08:21.999Z</time></trkpt><trkpt lat="42.41380771762609" lon="14.229726003808834"><ele>154.0</ele><time>2026-04-12T12:08:23.999Z</time></trkpt><trkpt lat="42.413849821295386" lon="14.229879363246905"><ele>154.0</ele><time>2026-04-12T12:08:24.999Z</time></trkpt><trkpt lat="42.41387532236348" lon="14.230044646346256"><ele>150.5</ele><time>2026-04-12T12:08:25.999Z</time></trkpt><trkpt lat="42.41389590082864" lon="14.230230858932776"><ele>147.0</ele><time>2026-04-12T12:08:26.999Z</time></trkpt><trkpt lat="42.41391500525745" lon="14.230425574081856"><ele>143.5</ele><time>2026-04-12T12:08:27.999Z</time></trkpt><trkpt lat="42.413923889235406" lon="14.230615347188749"><ele>140.0</ele><time>2026-04-12T12:08:28.999Z</time></trkpt><trkpt lat="42.413922735826745" lon="14.230810154192241"><ele>139.66666666666666</ele><time>2026-04-12T12:08:29.999Z</time></trkpt><trkpt lat="42.41392501744634" lon="14.231008821584922"><ele>139.33333333333334</ele><time>2026-04-12T12:08:30.999Z</time></trkpt><trkpt lat="42.41391943632262" lon="14.231213319589688"><ele>139.0</ele><time>2026-04-12T12:08:31.999Z</time></trkpt><trkpt lat="42.4139148775266" lon="14.231442701955295"><ele>137.33333333333334</ele><time>2026-04-12T12:08:32.999Z</time></trkpt><trkpt lat="42.413916850122234" lon="14.231674577304963"><ele>135.66666666666666</ele><time>2026-04-12T12:08:33.999Z</time></trkpt><trkpt lat="42.41392129060541" lon="14.231909679972029"><ele>134.0</ele><time>2026-04-12T12:08:34.999Z</time></trkpt><trkpt lat="42.413916736610204" lon="14.232138885778362"><ele>136.5</ele><time>2026-04-12T12:08:35.999Z</time></trkpt><trkpt lat="42.41390492502743" lon="14.232354330884302"><ele>139.0</ele><time>2026-04-12T12:08:36.999Z</time></trkpt><trkpt lat="42.41389211325903" lon="14.232547079684707"><ele>141.5</ele><time>2026-04-12T12:08:37.999Z</time></trkpt><trkpt lat="42.41383395096097" lon="14.232671177997194"><ele>144.0</ele><time>2026-04-12T12:08:38.999Z</time></trkpt><trkpt lat="42.41380800411784" lon="14.232795197227425"><ele>144.0</ele><time>2026-04-12T12:08:39.999Z</time></trkpt><trkpt lat="42.41388521707373" lon="14.232958778919548"><ele>144.0</ele><time>2026-04-12T12:08:40.999Z</time></trkpt><trkpt lat="42.41387850773358" lon="14.233100654613146"><ele>144.0</ele><time>2026-04-12T12:08:41.999Z</time></trkpt><trkpt lat="42.413875726085266" lon="14.23325337569004"><ele>144.0</ele><time>2026-04-12T12:08:42.999Z</time></trkpt><trkpt lat="42.41388701737712" lon="14.233394065503688"><ele>145.66666666666666</ele><time>2026-04-12T12:08:43.999Z</time></trkpt><trkpt lat="42.41412846346143" lon="14.233534086092716"><ele>147.33333333333331</ele><time>2026-04-12T12:08:44.999Z</time></trkpt><trkpt lat="42.41413769029587" lon="14.233701332412071"><ele>149.0</ele><time>2026-04-12T12:08:45.999Z</time></trkpt><trkpt lat="42.41414730202738" lon="14.23387555551291"><ele>145.5</ele><time>2026-04-12T12:08:46.999Z</time></trkpt><trkpt lat="42.414156318255266" lon="14.234038984823817"><ele>142.0</ele><time>2026-04-12T12:08:47.999Z</time></trkpt><trkpt lat="42.41416418252134" lon="14.234181533361086"><ele>138.5</ele><time>2026-04-12T12:08:48.999Z</time></trkpt><trkpt lat="42.41417311669057" lon="14.234344184010888"><ele>135.0</ele><time>2026-04-12T12:08:49.999Z</time></trkpt><trkpt lat="42.41418200339706" lon="14.234512086632405"><ele>135.0</ele><time>2026-04-12T12:08:50.999Z</time></trkpt><trkpt lat="42.4141917200303" lon="14.234698087311326"><ele>135.0</ele><time>2026-04-12T12:08:51.999Z</time></trkpt><trkpt lat="42.414200819567526" lon="14.23487227530981"><ele>135.0</ele><time>2026-04-12T12:08:52.998Z</time></trkpt><trkpt lat="42.414212776731894" lon="14.235105758550624"><ele>135.0</ele><time>2026-04-12T12:08:53.998Z</time></trkpt><trkpt lat="42.414223501015705" lon="14.235324968228781"><ele>131.8</ele><time>2026-04-12T12:08:54.998Z</time></trkpt><trkpt lat="42.41423329531084" lon="14.235504401937732"><ele>128.6</ele><time>2026-04-12T12:08:55.998Z</time></trkpt><trkpt lat="42.41424172525283" lon="14.235643594828723"><ele>125.4</ele><time>2026-04-12T12:08:56.998Z</time></trkpt><trkpt lat="42.414251087678686" lon="14.23577709820188"><ele>122.2</ele><time>2026-04-12T12:08:57.998Z</time></trkpt><trkpt lat="42.4142624592791" lon="14.235930310879878"><ele>119.0</ele><time>2026-04-12T12:08:58.998Z</time></trkpt><trkpt lat="42.414272772665896" lon="14.236065166093542"><ele>116.75</ele><time>2026-04-12T12:08:59.998Z</time></trkpt><trkpt lat="42.41408098565964" lon="14.23604515049228"><ele>114.5</ele><time>2026-04-12T12:09:03.998Z</time></trkpt><trkpt lat="42.4140133890891" lon="14.235953344724415"><ele>112.25</ele><time>2026-04-12T12:09:04.998Z</time></trkpt><trkpt lat="42.41395371744561" lon="14.235827383825486"><ele>110.0</ele><time>2026-04-12T12:09:05.998Z</time></trkpt><trkpt lat="42.413896209650126" lon="14.235720599514615"><ele>110.0</ele><time>2026-04-12T12:09:06.998Z</time></trkpt><trkpt lat="42.41383121616906" lon="14.235642802453238"><ele>110.0</ele><time>2026-04-12T12:09:07.998Z</time></trkpt><trkpt lat="42.41377961031933" lon="14.235584566261984"><ele>110.0</ele><time>2026-04-12T12:09:08.998Z</time></trkpt><trkpt lat="42.413653046119514" lon="14.23556628695843"><ele>110.0</ele><time>2026-04-12T12:09:10.998Z</time></trkpt><trkpt lat="42.41357010724442" lon="14.235534861346242"><ele>110.0</ele><time>2026-04-12T12:09:11.998Z</time></trkpt><trkpt lat="42.41351015129515" lon="14.235453377768414"><ele>107.83333333333333</ele><time>2026-04-12T12:09:12.998Z</time></trkpt><trkpt lat="42.413452755502" lon="14.235378128697619"><ele>105.66666666666666</ele><time>2026-04-12T12:09:13.998Z</time></trkpt><trkpt lat="42.41339142035623" lon="14.235290368664975"><ele>103.5</ele><time>2026-04-12T12:09:14.998Z</time></trkpt><trkpt lat="42.413325861893576" lon="14.23521910009101"><ele>101.33333333333334</ele><time>2026-04-12T12:09:15.998Z</time></trkpt><trkpt lat="42.41323430729021" lon="14.235194301322956"><ele>99.16666666666667</ele><time>2026-04-12T12:09:16.998Z</time></trkpt><trkpt lat="42.4131545379755" lon="14.235149565344104"><ele>97.0</ele><time>2026-04-12T12:09:17.998Z</time></trkpt><trkpt lat="42.413053134328074" lon="14.235138737096898"><ele>93.39999999999999</ele><time>2026-04-12T12:09:19.998Z</time></trkpt><trkpt lat="42.41297181951977" lon="14.235198433099859"><ele>89.8</ele><time>2026-04-12T12:09:20.998Z</time></trkpt><trkpt lat="42.41286820313973" lon="14.235245210785237"><ele>86.2</ele><time>2026-04-12T12:09:21.998Z</time></trkpt><trkpt lat="42.41280129801482" lon="14.23529580307896"><ele>82.6</ele><time>2026-04-12T12:09:22.998Z</time></trkpt><trkpt lat="42.412808724302046" lon="14.235491544696375"><ele>79.0</ele><time>2026-04-12T12:09:25.998Z</time></trkpt><trkpt lat="42.412845476274185" lon="14.23561868035599"><ele>78.0</ele><time>2026-04-12T12:09:26.998Z</time></trkpt><trkpt lat="42.41289361618999" lon="14.235779784517659"><ele>77.0</ele><time>2026-04-12T12:09:27.998Z</time></trkpt><trkpt lat="42.41294307013208" lon="14.235902765176142"><ele>76.0</ele><time>2026-04-12T12:09:28.998Z</time></trkpt><trkpt lat="42.41300619921358" lon="14.236047656263299"><ele>75.0</ele><time>2026-04-12T12:09:29.999Z</time></trkpt><trkpt lat="42.41307908638488" lon="14.236184065261794"><ele>75.2</ele><time>2026-04-12T12:09:30.999Z</time></trkpt><trkpt lat="42.41314937142346" lon="14.236312539137533"><ele>75.4</ele><time>2026-04-12T12:09:31.999Z</time></trkpt><trkpt lat="42.4132234300554" lon="14.236418078635987"><ele>75.6</ele><time>2026-04-12T12:09:32.999Z</time></trkpt><trkpt lat="42.41329314594831" lon="14.236495333591368"><ele>75.8</ele><time>2026-04-12T12:09:33.999Z</time></trkpt><trkpt lat="42.413364217529725" lon="14.236558957168446"><ele>76.0</ele><time>2026-04-12T12:09:34.999Z</time></trkpt><trkpt lat="42.413431216926085" lon="14.236645395548647"><ele>76.0</ele><time>2026-04-12T12:09:35.999Z</time></trkpt><trkpt lat="42.41349150410095" lon="14.236764637575986"><ele>76.0</ele><time>2026-04-12T12:09:36.999Z</time></trkpt><trkpt lat="42.41354773171217" lon="14.236894956846108"><ele>76.0</ele><time>2026-04-12T12:09:37.999Z</time></trkpt><trkpt lat="42.413606588196906" lon="14.23703266278046"><ele>76.0</ele><time>2026-04-12T12:09:38.999Z</time></trkpt><trkpt lat="42.413665323941004" lon="14.237167845775318"><ele>74.25</ele><time>2026-04-12T12:09:39.999Z</time></trkpt><trkpt lat="42.41372407302033" lon="14.237310211256947"><ele>72.5</ele><time>2026-04-12T12:09:41Z</time></trkpt><trkpt lat="42.41377943903477" lon="14.237464842040794"><ele>70.75</ele><time>2026-04-12T12:09:42.001Z</time></trkpt><trkpt lat="42.41382121797397" lon="14.237624480320676"><ele>69.0</ele><time>2026-04-12T12:09:43Z</time></trkpt><trkpt lat="42.413850653290886" lon="14.237785657242084"><ele>72.4</ele><time>2026-04-12T12:09:44Z</time></trkpt><trkpt lat="42.41388161017813" lon="14.237936041869919"><ele>75.80000000000001</ele><time>2026-04-12T12:09:45Z</time></trkpt><trkpt lat="42.41392321641602" lon="14.238068142954107"><ele>79.19999999999999</ele><time>2026-04-12T12:09:46Z</time></trkpt><trkpt lat="42.413963039549856" lon="14.238202049047018"><ele>82.6</ele><time>2026-04-12T12:09:47Z</time></trkpt><trkpt lat="42.413981251448355" lon="14.238308050546541"><ele>86.0</ele><time>2026-04-12T12:09:48Z</time></trkpt><trkpt lat="42.413950058511055" lon="14.238409171015933"><ele>86.0</ele><time>2026-04-12T12:09:50Z</time></trkpt><trkpt lat="42.413933253585064" lon="14.238564800267"><ele>86.0</ele><time>2026-04-12T12:09:52Z</time></trkpt><trkpt lat="42.413944971217994" lon="14.238682780837014"><ele>86.0</ele><time>2026-04-12T12:09:53Z</time></trkpt><trkpt lat="42.41397434732033" lon="14.238778724353068"><ele>86.0</ele><time>2026-04-12T12:09:54Z</time></trkpt><trkpt lat="42.41399428021624" lon="14.238861896485158"><ele>86.0</ele><time>2026-04-12T12:09:55Z</time></trkpt><trkpt lat="42.413996973750486" lon="14.238963447119065"><ele>86.0</ele><time>2026-04-12T12:09:56Z</time></trkpt><trkpt lat="42.41398953203791" lon="14.239070227474523"><ele>85.16666666666667</ele><time>2026-04-12T12:09:57Z</time></trkpt><trkpt lat="42.414012838761934" lon="14.239160756545372"><ele>84.33333333333334</ele><time>2026-04-12T12:09:58Z</time></trkpt><trkpt lat="42.41406521788192" lon="14.239259313659675"><ele>83.5</ele><time>2026-04-12T12:09:59Z</time></trkpt><trkpt lat="42.41414208230072" lon="14.2393584125961"><ele>82.66666666666667</ele><time>2026-04-12T12:10:00Z</time></trkpt><trkpt lat="42.41421633006356" lon="14.239440867089701"><ele>81.83333333333333</ele><time>2026-04-12T12:10:01Z</time></trkpt><trkpt lat="42.41425300112062" lon="14.239535520744594"><ele>81.0</ele><time>2026-04-12T12:10:02Z</time></trkpt><trkpt lat="42.41424137179325" lon="14.239631221352818"><ele>81.0</ele><time>2026-04-12T12:10:03Z</time></trkpt><trkpt lat="42.41423226233482" lon="14.239719056366159"><ele>81.0</ele><time>2026-04-12T12:10:04Z</time></trkpt><trkpt lat="42.414201975585" lon="14.239828403116583"><ele>81.0</ele><time>2026-04-12T12:10:05Z</time></trkpt><trkpt lat="42.41419211535321" lon="14.23992876282523"><ele>81.0</ele><time>2026-04-12T12:10:06Z</time></trkpt><trkpt lat="42.41421674797595" lon="14.240022255622351"><ele>81.0</ele><time>2026-04-12T12:10:07Z</time></trkpt><trkpt lat="42.414256820996826" lon="14.24011146054812"><ele>81.0</ele><time>2026-04-12T12:10:08Z</time></trkpt><trkpt lat="42.414316813214555" lon="14.240207845409275"><ele>79.6</ele><time>2026-04-12T12:10:09Z</time></trkpt><trkpt lat="42.41438650473803" lon="14.240321020341037"><ele>78.19999999999999</ele><time>2026-04-12T12:10:10Z</time></trkpt><trkpt lat="42.41445463292139" lon="14.240450527574732"><ele>76.80000000000001</ele><time>2026-04-12T12:10:11Z</time></trkpt><trkpt lat="42.41451062174702" lon="14.240537934985428"><ele>75.4</ele><time>2026-04-12T12:10:12Z</time></trkpt><trkpt lat="42.41457523325484" lon="14.240616691686595"><ele>74.0</ele><time>2026-04-12T12:10:13Z</time></trkpt><trkpt lat="42.41461957480486" lon="14.240729810370157"><ele>72.4</ele><time>2026-04-12T12:10:14Z</time></trkpt><trkpt lat="42.414648468265945" lon="14.240866434321488"><ele>70.80000000000001</ele><time>2026-04-12T12:10:15Z</time></trkpt><trkpt lat="42.41466029559496" lon="14.241004121717653"><ele>69.19999999999999</ele><time>2026-04-12T12:10:16Z</time></trkpt><trkpt lat="42.414666391674956" lon="14.241107523368388"><ele>67.6</ele><time>2026-04-12T12:10:17Z</time></trkpt><trkpt lat="42.414696684395835" lon="14.241205889773298"><ele>66.0</ele><time>2026-04-12T12:10:18Z</time></trkpt><trkpt lat="42.414770658851346" lon="14.241285753879358"><ele>66.25</ele><time>2026-04-12T12:10:19Z</time></trkpt><trkpt lat="42.41484858534096" lon="14.24137246368251"><ele>66.5</ele><time>2026-04-12T12:10:20Z</time></trkpt><trkpt lat="42.41494081637311" lon="14.241474605656833"><ele>66.75</ele><time>2026-04-12T12:10:21Z</time></trkpt><trkpt lat="42.41503375317345" lon="14.24157796786117"><ele>67.0</ele><time>2026-04-12T12:10:22Z</time></trkpt><trkpt lat="42.41512175861012" lon="14.241689509228713"><ele>67.0</ele><time>2026-04-12T12:10:23Z</time></trkpt><trkpt lat="42.415203850144465" lon="14.24177243905091"><ele>67.0</ele><time>2026-04-12T12:10:24Z</time></trkpt><trkpt lat="42.41527319863154" lon="14.241864059387604"><ele>67.0</ele><time>2026-04-12T12:10:25Z</time></trkpt><trkpt lat="42.41533184832817" lon="14.241978927746366"><ele>67.0</ele><time>2026-04-12T12:10:26Z</time></trkpt><trkpt lat="42.415359410844786" lon="14.242085903436179"><ele>67.0</ele><time>2026-04-12T12:10:27Z</time></trkpt><trkpt lat="42.41540349311445" lon="14.242212280641166"><ele>68.4</ele><time>2026-04-12T12:10:28Z</time></trkpt><trkpt lat="42.41545039666883" lon="14.242354647414327"><ele>69.80000000000001</ele><time>2026-04-12T12:10:29Z</time></trkpt><trkpt lat="42.41548797516838" lon="14.242492673401157"><ele>71.2</ele><time>2026-04-12T12:10:30Z</time></trkpt><trkpt lat="42.41551062801667" lon="14.242617798732004"><ele>72.60000000000001</ele><time>2026-04-12T12:10:31Z</time></trkpt><trkpt lat="42.41554641202306" lon="14.242713508387748"><ele>74.0</ele><time>2026-04-12T12:10:32Z</time></trkpt><trkpt lat="42.41560018941987" lon="14.24284068368757"><ele>74.0</ele><time>2026-04-12T12:10:33Z</time></trkpt><trkpt lat="42.415652134042126" lon="14.242973441469294"><ele>74.0</ele><time>2026-04-12T12:10:34Z</time></trkpt><trkpt lat="42.41570816502286" lon="14.243076063175963"><ele>74.0</ele><time>2026-04-12T12:10:35Z</time></trkpt><trkpt lat="42.4157986837156" lon="14.243160065783464"><ele>74.0</ele><time>2026-04-12T12:10:37Z</time></trkpt><trkpt lat="42.41588531640021" lon="14.243120230160038"><ele>74.0</ele><time>2026-04-12T12:10:39Z</time></trkpt><trkpt lat="42.41595962669081" lon="14.243108130509935"><ele>75.0</ele><time>2026-04-12T12:10:40Z</time></trkpt><trkpt lat="42.41605907179108" lon="14.243136740918942"><ele>76.0</ele><time>2026-04-12T12:10:41Z</time></trkpt><trkpt lat="42.416148494452344" lon="14.243173011389347"><ele>77.0</ele><time>2026-04-12T12:10:42Z</time></trkpt><trkpt lat="42.41620615590015" lon="14.243245516143169"><ele>78.0</ele><time>2026-04-12T12:10:43Z</time></trkpt><trkpt lat="42.41628208512985" lon="14.243289881968433"><ele>79.0</ele><time>2026-04-12T12:10:44Z</time></trkpt><trkpt lat="42.41637688319499" lon="14.243331414599302"><ele>79.0</ele><time>2026-04-12T12:10:45Z</time></trkpt><trkpt lat="42.41646117407936" lon="14.243396295726395"><ele>79.0</ele><time>2026-04-12T12:10:46Z</time></trkpt><trkpt lat="42.416554209502955" lon="14.243442641793607"><ele>79.0</ele><time>2026-04-12T12:10:47Z</time></trkpt><trkpt lat="42.41663086803334" lon="14.243525905801414"><ele>79.0</ele><time>2026-04-12T12:10:48Z</time></trkpt><trkpt lat="42.416705568359845" lon="14.243622838106075"><ele>79.0</ele><time>2026-04-12T12:10:49Z</time></trkpt><trkpt lat="42.41675869721121" lon="14.243738803104423"><ele>79.0</ele><time>2026-04-12T12:10:50Z</time></trkpt><trkpt lat="42.416816809290275" lon="14.24387927973515"><ele>79.0</ele><time>2026-04-12T12:10:51Z</time></trkpt><trkpt lat="42.416882691765295" lon="14.243975936889354"><ele>79.0</ele><time>2026-04-12T12:10:52Z</time></trkpt><trkpt lat="42.41692714606797" lon="14.244072267822983"><ele>79.0</ele><time>2026-04-12T12:10:53Z</time></trkpt><trkpt lat="42.41698287731953" lon="14.244171706943295"><ele>79.0</ele><time>2026-04-12T12:10:54Z</time></trkpt><trkpt lat="42.417042836443905" lon="14.244233015922529"><ele>79.6</ele><time>2026-04-12T12:10:54.999Z</time></trkpt><trkpt lat="42.417111095669384" lon="14.244123465518992"><ele>80.2</ele><time>2026-04-12T12:10:58.999Z</time></trkpt><trkpt lat="42.417206694686584" lon="14.244054211688255"><ele>80.8</ele><time>2026-04-12T12:11:00.999Z</time></trkpt><trkpt lat="42.41734621528723" lon="14.243951494719257"><ele>81.39999999999999</ele><time>2026-04-12T12:11:02.999Z</time></trkpt><trkpt lat="42.41740107469765" lon="14.243898855802756"><ele>82.0</ele><time>2026-04-12T12:11:03.999Z</time></trkpt><trkpt lat="42.41744831886274" lon="14.243788892402534"><ele>84.0</ele><time>2026-04-12T12:11:04.999Z</time></trkpt><trkpt lat="42.41750770619868" lon="14.243675217895193"><ele>86.0</ele><time>2026-04-12T12:11:06.999Z</time></trkpt><trkpt lat="42.41760769925352" lon="14.243631065431167"><ele>88.0</ele><time>2026-04-12T12:11:08.999Z</time></trkpt><trkpt lat="42.417730429340416" lon="14.243600116454735"><ele>90.0</ele><time>2026-04-12T12:11:10.999Z</time></trkpt><trkpt lat="42.41782811084312" lon="14.243578992222945"><ele>92.0</ele><time>2026-04-12T12:11:11.999Z</time></trkpt><trkpt lat="42.41790732343163" lon="14.243582941953253"><ele>94.19999999999999</ele><time>2026-04-12T12:11:12.999Z</time></trkpt><trkpt lat="42.41799113128751" lon="14.243644168394582"><ele>96.4</ele><time>2026-04-12T12:11:13.999Z</time></trkpt><trkpt lat="42.41802344188723" lon="14.243771009970875"><ele>98.6</ele><time>2026-04-12T12:11:14.999Z</time></trkpt><trkpt lat="42.41808952954435" lon="14.24391492104088"><ele>100.80000000000001</ele><time>2026-04-12T12:11:15.999Z</time></trkpt><trkpt lat="42.41817288068589" lon="14.244006665190135"><ele>103.0</ele><time>2026-04-12T12:11:16.999Z</time></trkpt><trkpt lat="42.4183014057092" lon="14.24411471574079"><ele>103.0</ele><time>2026-04-12T12:11:18.999Z</time></trkpt><trkpt lat="42.4184340787337" lon="14.244121393499745"><ele>103.0</ele><time>2026-04-12T12:11:19.999Z</time></trkpt><trkpt lat="42.418547121132356" lon="14.244179735889919"><ele>103.0</ele><time>2026-04-12T12:11:20.999Z</time></trkpt><trkpt lat="42.418642938229596" lon="14.24425110500419"><ele>103.0</ele><time>2026-04-12T12:11:21.999Z</time></trkpt><trkpt lat="42.41873548481508" lon="14.244283902354002"><ele>103.00000000000001</ele><time>2026-04-12T12:11:22.999Z</time></trkpt><trkpt lat="42.41881233988695" lon="14.244302853967834"><ele>103.0</ele><time>2026-04-12T12:11:23.999Z</time></trkpt><trkpt lat="42.41889576474133" lon="14.24441741671049"><ele>103.0</ele><time>2026-04-12T12:11:25.999Z</time></trkpt><trkpt lat="42.41893081990244" lon="14.244526112333055"><ele>103.0</ele><time>2026-04-12T12:11:26.999Z</time></trkpt><trkpt lat="42.418934322136145" lon="14.244652402691372"><ele>103.00000000000001</ele><time>2026-04-12T12:11:27.999Z</time></trkpt><trkpt lat="42.41894607566619" lon="14.244738920509011"><ele>103.0</ele><time>2026-04-12T12:11:28.999Z</time></trkpt><trkpt lat="42.41911158309408" lon="14.24462471160477"><ele>102.66666666666667</ele><time>2026-04-12T12:11:32.999Z</time></trkpt><trkpt lat="42.419174511317415" lon="14.244518552669394"><ele>102.33333333333334</ele><time>2026-04-12T12:11:33.999Z</time></trkpt><trkpt lat="42.41924014895873" lon="14.244487626219469"><ele>102.0</ele><time>2026-04-12T12:11:34.999Z</time></trkpt><trkpt lat="42.4193300538737" lon="14.244559389093375"><ele>101.66666666666666</ele><time>2026-04-12T12:11:36.999Z</time></trkpt><trkpt lat="42.41937027352318" lon="14.244638832455632"><ele>101.33333333333333</ele><time>2026-04-12T12:11:37.999Z</time></trkpt><trkpt lat="42.419401088383225" lon="14.244754458581232"><ele>101.0</ele><time>2026-04-12T12:11:38.999Z</time></trkpt><trkpt lat="42.419431307071164" lon="14.244920954808368"><ele>101.0</ele><time>2026-04-12T12:11:39.999Z</time></trkpt><trkpt lat="42.419462987725126" lon="14.245102146544335"><ele>101.0</ele><time>2026-04-12T12:11:40.999Z</time></trkpt><trkpt lat="42.419502135226786" lon="14.24528621803054"><ele>101.0</ele><time>2026-04-12T12:11:41.999Z</time></trkpt><trkpt lat="42.41957009035751" lon="14.245482297187195"><ele>101.0</ele><time>2026-04-12T12:11:42.999Z</time></trkpt><trkpt lat="42.419640105669444" lon="14.24568187229263"><ele>105.33333333333333</ele><time>2026-04-12T12:11:43.999Z</time></trkpt><trkpt lat="42.41970100290376" lon="14.245896425845947"><ele>109.66666666666666</ele><time>2026-04-12T12:11:44.999Z</time></trkpt><trkpt lat="42.41975550032434" lon="14.24610450739366"><ele>114.0</ele><time>2026-04-12T12:11:45.999Z</time></trkpt><trkpt lat="42.41980973357693" lon="14.246316596581726"><ele>114.2</ele><time>2026-04-12T12:11:47Z</time></trkpt><trkpt lat="42.41986245812752" lon="14.246499177167868"><ele>114.4</ele><time>2026-04-12T12:11:48Z</time></trkpt><trkpt lat="42.41988524788714" lon="14.246644035234345"><ele>114.6</ele><time>2026-04-12T12:11:49Z</time></trkpt><trkpt lat="42.41990732961224" lon="14.246726760505549"><ele>114.8</ele><time>2026-04-12T12:11:50Z</time></trkpt><trkpt lat="42.4199167348902" lon="14.246897504083972"><ele>115.0</ele><time>2026-04-12T12:11:52Z</time></trkpt><trkpt lat="42.419913689886236" lon="14.247045345698114"><ele>115.0</ele><time>2026-04-12T12:11:53Z</time></trkpt><trkpt lat="42.41991673721012" lon="14.247227115229228"><ele>115.0</ele><time>2026-04-12T12:11:54Z</time></trkpt><trkpt lat="42.4199341515102" lon="14.247428822907512"><ele>115.0</ele><time>2026-04-12T12:11:55Z</time></trkpt><trkpt lat="42.419978861600505" lon="14.24764649965675"><ele>113.66666666666667</ele><time>2026-04-12T12:11:56Z</time></trkpt><trkpt lat="42.42001170098734" lon="14.247863894378613"><ele>112.33333333333334</ele><time>2026-04-12T12:11:57Z</time></trkpt><trkpt lat="42.42003138396613" lon="14.248081569140291"><ele>111.0</ele><time>2026-04-12T12:11:58Z</time></trkpt><trkpt lat="42.42006670310646" lon="14.248299721467909"><ele>109.8</ele><time>2026-04-12T12:11:59Z</time></trkpt><trkpt lat="42.420102255328985" lon="14.248487299256189"><ele>108.6</ele><time>2026-04-12T12:12:00Z</time></trkpt><trkpt lat="42.42013164316977" lon="14.24863059461931"><ele>107.4</ele><time>2026-04-12T12:12:01Z</time></trkpt><trkpt lat="42.420159547511375" lon="14.248737044441254"><ele>106.2</ele><time>2026-04-12T12:12:02Z</time></trkpt><trkpt lat="42.42015800702374" lon="14.248851242527177"><ele>105.0</ele><time>2026-04-12T12:12:04Z</time></trkpt><trkpt lat="42.420098482696574" lon="14.248912921784047"><ele>103.8</ele><time>2026-04-12T12:12:05Z</time></trkpt><trkpt lat="42.420017702872194" lon="14.248974259985498"><ele>102.6</ele><time>2026-04-12T12:12:06Z</time></trkpt><trkpt lat="42.41993680050591" lon="14.249057514864184"><ele>101.4</ele><time>2026-04-12T12:12:07Z</time></trkpt><trkpt lat="42.4198492244634" lon="14.2491411123617"><ele>100.2</ele><time>2026-04-12T12:12:08Z</time></trkpt><trkpt lat="42.41977578844055" lon="14.249240951958503"><ele>99.0</ele><time>2026-04-12T12:12:09Z</time></trkpt><trkpt lat="42.41972071208259" lon="14.249307755941222"><ele>99.0</ele><time>2026-04-12T12:12:10Z</time></trkpt><trkpt lat="42.41966610736271" lon="14.249378578537247"><ele>99.0</ele><time>2026-04-12T12:12:12Z</time></trkpt><trkpt lat="42.41959012361515" lon="14.249431497016728"><ele>99.0</ele><time>2026-04-12T12:12:14Z</time></trkpt><trkpt lat="42.41934450112125" lon="14.249177251240285"><ele>96.0</ele><time>2026-04-12T12:12:15Z</time></trkpt><trkpt lat="42.41924457442687" lon="14.249144454356289"><ele>93.0</ele><time>2026-04-12T12:12:16Z</time></trkpt><trkpt lat="42.419141938118266" lon="14.249112513689187"><ele>90.0</ele><time>2026-04-12T12:12:17Z</time></trkpt><trkpt lat="42.419032380913265" lon="14.249086570946027"><ele>87.0</ele><time>2026-04-12T12:12:18Z</time></trkpt><trkpt lat="42.4189180429487" lon="14.249066077668273"><ele>84.0</ele><time>2026-04-12T12:12:19Z</time></trkpt><trkpt lat="42.41880648273543" lon="14.249036698266575"><ele>81.2</ele><time>2026-04-12T12:12:20Z</time></trkpt><trkpt lat="42.41869871472055" lon="14.249012633421987"><ele>78.4</ele><time>2026-04-12T12:12:21Z</time></trkpt><trkpt lat="42.41859045126621" lon="14.248986770555357"><ele>75.6</ele><time>2026-04-12T12:12:22Z</time></trkpt><trkpt lat="42.418484339189675" lon="14.248961676598672"><ele>72.8</ele><time>2026-04-12T12:12:23Z</time></trkpt><trkpt lat="42.41838297038371" lon="14.248938587105396"><ele>70.0</ele><time>2026-04-12T12:12:24Z</time></trkpt><trkpt lat="42.41828394470126" lon="14.24891585023932"><ele>69.66666666666666</ele><time>2026-04-12T12:12:25Z</time></trkpt><trkpt lat="42.41818783854659" lon="14.248891467678192"><ele>69.33333333333333</ele><time>2026-04-12T12:12:26Z</time></trkpt><trkpt lat="42.41809666364374" lon="14.248868194417415"><ele>69.0</ele><time>2026-04-12T12:12:27Z</time></trkpt><trkpt lat="42.418026257951205" lon="14.24884497737703"><ele>68.66666666666667</ele><time>2026-04-12T12:12:28Z</time></trkpt><trkpt lat="42.417950089989176" lon="14.248815908661884"><ele>68.33333333333334</ele><time>2026-04-12T12:12:29Z</time></trkpt><trkpt lat="42.41787444781563" lon="14.248790464970297"><ele>68.0</ele><time>2026-04-12T12:12:30Z</time></trkpt><trkpt lat="42.417819430733466" lon="14.248736880844767"><ele>65.0</ele><time>2026-04-12T12:12:31Z</time></trkpt><trkpt lat="42.417741172579454" lon="14.24866873443641"><ele>62.0</ele><time>2026-04-12T12:12:32Z</time></trkpt><trkpt lat="42.41764004956358" lon="14.248619211985014"><ele>59.0</ele><time>2026-04-12T12:12:33Z</time></trkpt><trkpt lat="42.417527340793434" lon="14.24857198701542"><ele>56.0</ele><time>2026-04-12T12:12:34Z</time></trkpt><trkpt lat="42.417428413239584" lon="14.24852284852883"><ele>53.0</ele><time>2026-04-12T12:12:35Z</time></trkpt><trkpt lat="42.41734138002182" lon="14.248468262097632"><ele>53.00000000000001</ele><time>2026-04-12T12:12:36Z</time></trkpt><trkpt lat="42.417281260969354" lon="14.2483893454405"><ele>53.0</ele><time>2026-04-12T12:12:37Z</time></trkpt><trkpt lat="42.41723613315822" lon="14.248282075255467"><ele>53.0</ele><time>2026-04-12T12:12:38Z</time></trkpt><trkpt lat="42.41721758498532" lon="14.248169580880875"><ele>53.0</ele><time>2026-04-12T12:12:39Z</time></trkpt><trkpt lat="42.4172201843302" lon="14.248034141240458"><ele>53.00000000000001</ele><time>2026-04-12T12:12:40Z</time></trkpt><trkpt lat="42.41723204461286" lon="14.247914296590391"><ele>53.0</ele><time>2026-04-12T12:12:41Z</time></trkpt><trkpt lat="42.41714683570723" lon="14.247907558501398"><ele>51.333333333333336</ele><time>2026-04-12T12:12:44Z</time></trkpt><trkpt lat="42.41707211332836" lon="14.247895051326795"><ele>49.66666666666667</ele><time>2026-04-12T12:12:45Z</time></trkpt><trkpt lat="42.417002244271835" lon="14.24787038502605"><ele>48.0</ele><time>2026-04-12T12:12:46Z</time></trkpt><trkpt lat="42.41692254933807" lon="14.247846348098275"><ele>46.333333333333336</ele><time>2026-04-12T12:12:47Z</time></trkpt><trkpt lat="42.4168365623831" lon="14.247830524114288"><ele>44.66666666666667</ele><time>2026-04-12T12:12:48Z</time></trkpt><trkpt lat="42.41675461528649" lon="14.247798540420293"><ele>43.0</ele><time>2026-04-12T12:12:49Z</time></trkpt><trkpt lat="42.416673275707325" lon="14.24776606937548"><ele>43.0</ele><time>2026-04-12T12:12:50Z</time></trkpt><trkpt lat="42.41658785208397" lon="14.247757750512946"><ele>43.0</ele><time>2026-04-12T12:12:51Z</time></trkpt><trkpt lat="42.416496171253385" lon="14.247755710260405"><ele>43.0</ele><time>2026-04-12T12:12:52Z</time></trkpt><trkpt lat="42.416425575498984" lon="14.247837797678034"><ele>43.0</ele><time>2026-04-12T12:12:54Z</time></trkpt><trkpt lat="42.41637869401702" lon="14.247934319208113"><ele>43.0</ele><time>2026-04-12T12:12:55Z</time></trkpt><trkpt lat="42.41630080132831" lon="14.248046087574773"><ele>45.75</ele><time>2026-04-12T12:12:56Z</time></trkpt><trkpt lat="42.41622248839128" lon="14.248157700451937"><ele>48.5</ele><time>2026-04-12T12:12:57Z</time></trkpt><trkpt lat="42.41613918973958" lon="14.24827083976944"><ele>51.25</ele><time>2026-04-12T12:12:58Z</time></trkpt><trkpt lat="42.416050004597345" lon="14.248380319744095"><ele>54.0</ele><time>2026-04-12T12:12:58.999Z</time></trkpt><trkpt lat="42.41596320885166" lon="14.248495035621586"><ele>54.0</ele><time>2026-04-12T12:12:59.999Z</time></trkpt><trkpt lat="42.415874098807095" lon="14.248606116616521"><ele>54.0</ele><time>2026-04-12T12:13:00.999Z</time></trkpt><trkpt lat="42.415784962243634" lon="14.248710109180239"><ele>54.0</ele><time>2026-04-12T12:13:01.999Z</time></trkpt><trkpt lat="42.415700383784824" lon="14.248800176287748"><ele>54.0</ele><time>2026-04-12T12:13:02.999Z</time></trkpt><trkpt lat="42.41560684619094" lon="14.24889140081"><ele>53.25</ele><time>2026-04-12T12:13:03.999Z</time></trkpt><trkpt lat="42.415518460114384" lon="14.248982426929398"><ele>52.5</ele><time>2026-04-12T12:13:04.999Z</time></trkpt><trkpt lat="42.415437599591115" lon="14.249080692940408"><ele>51.75</ele><time>2026-04-12T12:13:05.999Z</time></trkpt><trkpt lat="42.41535960456431" lon="14.249205180497617"><ele>51.0</ele><time>2026-04-12T12:13:06.999Z</time></trkpt><trkpt lat="42.41529900864651" lon="14.249333600427024"><ele>55.166666666666664</ele><time>2026-04-12T12:13:07.999Z</time></trkpt><trkpt lat="42.415241955728376" lon="14.249446329412354"><ele>59.33333333333333</ele><time>2026-04-12T12:13:08.999Z</time></trkpt><trkpt lat="42.41517371287273" lon="14.249538671704526"><ele>63.5</ele><time>2026-04-12T12:13:09.999Z</time></trkpt><trkpt lat="42.415115479835805" lon="14.249613134912725"><ele>67.66666666666666</ele><time>2026-04-12T12:13:10.999Z</time></trkpt><trkpt lat="42.415061710106556" lon="14.249662995594063"><ele>71.83333333333333</ele><time>2026-04-12T12:13:11.999Z</time></trkpt><trkpt lat="42.41499714073853" lon="14.24971359368681"><ele>76.0</ele><time>2026-04-12T12:13:12.999Z</time></trkpt><trkpt lat="42.41492234859427" lon="14.249749196438962"><ele>74.2</ele><time>2026-04-12T12:13:13.999Z</time></trkpt><trkpt lat="42.41484906204443" lon="14.249802621148481"><ele>72.39999999999999</ele><time>2026-04-12T12:13:14.999Z</time></trkpt><trkpt lat="42.41477570252243" lon="14.249873778342636"><ele>70.6</ele><time>2026-04-12T12:13:15.999Z</time></trkpt><trkpt lat="42.41469328579097" lon="14.24996012995715"><ele>68.8</ele><time>2026-04-12T12:13:16.999Z</time></trkpt><trkpt lat="42.414606240242065" lon="14.250041526098919"><ele>67.0</ele><time>2026-04-12T12:13:17.999Z</time></trkpt><trkpt lat="42.41451694505525" lon="14.250131970667443"><ele>70.8</ele><time>2026-04-12T12:13:18.999Z</time></trkpt><trkpt lat="42.41442258746989" lon="14.250227863699399"><ele>74.6</ele><time>2026-04-12T12:13:19.999Z</time></trkpt><trkpt lat="42.41434545834056" lon="14.250305099747571"><ele>78.39999999999999</ele><time>2026-04-12T12:13:20.999Z</time></trkpt><trkpt lat="42.41427943787334" lon="14.250328995886905"><ele>82.2</ele><time>2026-04-12T12:13:21.999Z</time></trkpt><trkpt lat="42.41417977877402" lon="14.250187453601551"><ele>86.0</ele><time>2026-04-12T12:13:23.999Z</time></trkpt><trkpt lat="42.41412405510821" lon="14.250031756319109"><ele>86.0</ele><time>2026-04-12T12:13:24.999Z</time></trkpt><trkpt lat="42.414009603239215" lon="14.249928104410852"><ele>86.0</ele><time>2026-04-12T12:13:25.999Z</time></trkpt><trkpt lat="42.41388159024886" lon="14.249842039048755"><ele>86.0</ele><time>2026-04-12T12:13:26.999Z</time></trkpt><trkpt lat="42.41377648720898" lon="14.24980772742489"><ele>86.0</ele><time>2026-04-12T12:13:27.999Z</time></trkpt><trkpt lat="42.413654189184676" lon="14.249791227852272"><ele>86.6</ele><time>2026-04-12T12:13:28.999Z</time></trkpt><trkpt lat="42.41353722455663" lon="14.249812431959421"><ele>87.19999999999999</ele><time>2026-04-12T12:13:29.999Z</time></trkpt><trkpt lat="42.41343215494602" lon="14.249837472734756"><ele>87.80000000000001</ele><time>2026-04-12T12:13:30.999Z</time></trkpt><trkpt lat="42.41333583282835" lon="14.24987317826673"><ele>88.4</ele><time>2026-04-12T12:13:31.999Z</time></trkpt><trkpt lat="42.41326516565101" lon="14.249915029758387"><ele>89.0</ele><time>2026-04-12T12:13:32.999Z</time></trkpt><trkpt lat="42.413194789196226" lon="14.249917393908822"><ele>90.25</ele><time>2026-04-12T12:13:34.999Z</time></trkpt><trkpt lat="42.41318399853752" lon="14.24975454526303"><ele>91.5</ele><time>2026-04-12T12:13:37.999Z</time></trkpt><trkpt lat="42.41315700926946" lon="14.24964194661402"><ele>92.75</ele><time>2026-04-12T12:13:38.999Z</time></trkpt><trkpt lat="42.41314444795249" lon="14.249448635642477"><ele>94.0</ele><time>2026-04-12T12:13:39.999Z</time></trkpt><trkpt lat="42.413128510282775" lon="14.249274923308702"><ele>94.0</ele><time>2026-04-12T12:13:40.999Z</time></trkpt><trkpt lat="42.413108283476895" lon="14.24910657079659"><ele>94.0</ele><time>2026-04-12T12:13:41.999Z</time></trkpt><trkpt lat="42.41308201647691" lon="14.248922303044015"><ele>94.0</ele><time>2026-04-12T12:13:42.999Z</time></trkpt><trkpt lat="42.41305076485028" lon="14.248714645104654"><ele>94.0</ele><time>2026-04-12T12:13:43.999Z</time></trkpt><trkpt lat="42.41301267308157" lon="14.248515778200678"><ele>95.0</ele><time>2026-04-12T12:13:44.999Z</time></trkpt><trkpt lat="42.412972248362244" lon="14.248328129896022"><ele>96.0</ele><time>2026-04-12T12:13:45.999Z</time></trkpt><trkpt lat="42.41293420995545" lon="14.248117589986224"><ele>97.0</ele><time>2026-04-12T12:13:46.999Z</time></trkpt><trkpt lat="42.41289168301304" lon="14.24788575566183"><ele>97.0</ele><time>2026-04-12T12:13:47.999Z</time></trkpt><trkpt lat="42.4128531525788" lon="14.247677250135984"><ele>97.0</ele><time>2026-04-12T12:13:48.999Z</time></trkpt><trkpt lat="42.412812646743184" lon="14.247514685589978"><ele>97.0</ele><time>2026-04-12T12:13:49.999Z</time></trkpt><trkpt lat="42.412802493283436" lon="14.24736566308534"><ele>97.0</ele><time>2026-04-12T12:13:50.999Z</time></trkpt><trkpt lat="42.41277627852831" lon="14.247275714531996"><ele>98.8</ele><time>2026-04-12T12:13:51.999Z</time></trkpt><trkpt lat="42.41281312899225" lon="14.247167049856655"><ele>100.6</ele><time>2026-04-12T12:13:54Z</time></trkpt><trkpt lat="42.41294959377047" lon="14.247121750859145"><ele>102.39999999999999</ele><time>2026-04-12T12:13:57Z</time></trkpt><trkpt lat="42.413065346561694" lon="14.24705577142039"><ele>104.19999999999999</ele><time>2026-04-12T12:13:59Z</time></trkpt><trkpt lat="42.41314558099236" lon="14.247010118739272"><ele>106.0</ele><time>2026-04-12T12:14:00Z</time></trkpt><trkpt lat="42.41323575526262" lon="14.246959277318837"><ele>106.50000000000001</ele><time>2026-04-12T12:14:01Z</time></trkpt><trkpt lat="42.4133345902058" lon="14.2469221674931"><ele>107.0</ele><time>2026-04-12T12:14:02Z</time></trkpt><trkpt lat="42.41341770674446" lon="14.24686091875862"><ele>107.5</ele><time>2026-04-12T12:14:03Z</time></trkpt><trkpt lat="42.41349338974579" lon="14.24680918401698"><ele>108.0</ele><time>2026-04-12T12:14:04Z</time></trkpt><trkpt lat="42.413570410966976" lon="14.24676256335725"><ele>108.50000000000001</ele><time>2026-04-12T12:14:05Z</time></trkpt><trkpt lat="42.41364175294104" lon="14.246739928370618"><ele>109.0</ele><time>2026-04-12T12:14:06Z</time></trkpt><trkpt lat="42.413701467286614" lon="14.24670807527486"><ele>109.0</ele><time>2026-04-12T12:14:07Z</time></trkpt><trkpt lat="42.41378920047813" lon="14.246654368959183"><ele>109.0</ele><time>2026-04-12T12:14:09Z</time></trkpt><trkpt lat="42.41374396604276" lon="14.246309257039115"><ele>109.0</ele><time>2026-04-12T12:14:10Z</time></trkpt><trkpt lat="42.41376635508988" lon="14.246224702668506"><ele>109.0</ele><time>2026-04-12T12:14:11Z</time></trkpt><trkpt lat="42.413784121601715" lon="14.246129942661533"><ele>110.4</ele><time>2026-04-12T12:14:13Z</time></trkpt><trkpt lat="42.41380820878628" lon="14.245977141031151"><ele>111.80000000000001</ele><time>2026-04-12T12:14:15Z</time></trkpt><trkpt lat="42.413821397537724" lon="14.24587349882298"><ele>113.19999999999999</ele><time>2026-04-12T12:14:16Z</time></trkpt><trkpt lat="42.413818859043786" lon="14.245782613853104"><ele>114.6</ele><time>2026-04-12T12:14:17Z</time></trkpt><trkpt lat="42.413778014765136" lon="14.245603044874523"><ele>116.0</ele><time>2026-04-12T12:14:19Z</time></trkpt><trkpt lat="42.4137381520137" lon="14.24547625273268"><ele>117.0</ele><time>2026-04-12T12:14:20Z</time></trkpt><trkpt lat="42.41370252285834" lon="14.245343216369081"><ele>118.0</ele><time>2026-04-12T12:14:21Z</time></trkpt><trkpt lat="42.41365989413322" lon="14.245200570545393"><ele>119.0</ele><time>2026-04-12T12:14:22Z</time></trkpt><trkpt lat="42.413609548320494" lon="14.24509592916332"><ele>120.0</ele><time>2026-04-12T12:14:23Z</time></trkpt><trkpt lat="42.4135831740443" lon="14.245010315073033"><ele>121.0</ele><time>2026-04-12T12:14:24Z</time></trkpt><trkpt lat="42.41354360482813" lon="14.244849180775828"><ele>121.33333333333334</ele><time>2026-04-12T12:14:26Z</time></trkpt><trkpt lat="42.41354293609793" lon="14.244737577287074"><ele>121.66666666666667</ele><time>2026-04-12T12:14:27Z</time></trkpt><trkpt lat="42.413536613628516" lon="14.244615781457671"><ele>122.0</ele><time>2026-04-12T12:14:28Z</time></trkpt><trkpt lat="42.41351670694235" lon="14.244509966948383"><ele>122.33333333333334</ele><time>2026-04-12T12:14:29Z</time></trkpt><trkpt lat="42.4134747631892" lon="14.244426579980791"><ele>122.66666666666667</ele><time>2026-04-12T12:14:30Z</time></trkpt><trkpt lat="42.413418502703564" lon="14.244368268606365"><ele>123.0</ele><time>2026-04-12T12:14:31Z</time></trkpt><trkpt lat="42.413354713322725" lon="14.244330264879315"><ele>123.0</ele><time>2026-04-12T12:14:32Z</time></trkpt><trkpt lat="42.413290847679875" lon="14.244253480205254"><ele>123.0</ele><time>2026-04-12T12:14:33Z</time></trkpt><trkpt lat="42.413302827104395" lon="14.243991400541862"><ele>123.0</ele><time>2026-04-12T12:14:34Z</time></trkpt><trkpt lat="42.41322996863295" lon="14.24386119127357"><ele>123.0</ele><time>2026-04-12T12:14:35Z</time></trkpt><trkpt lat="42.41317468031239" lon="14.243740406031394"><ele>121.5</ele><time>2026-04-12T12:14:36Z</time></trkpt><trkpt lat="42.41312941170274" lon="14.243597708102303"><ele>120.0</ele><time>2026-04-12T12:14:37Z</time></trkpt><trkpt lat="42.41308725030345" lon="14.243433330668095"><ele>118.5</ele><time>2026-04-12T12:14:38Z</time></trkpt><trkpt lat="42.41306095993939" lon="14.243255720399176"><ele>117.0</ele><time>2026-04-12T12:14:39Z</time></trkpt><trkpt lat="42.41304539519315" lon="14.243065084981243"><ele>115.75</ele><time>2026-04-12T12:14:40Z</time></trkpt><trkpt lat="42.41306321331706" lon="14.242850501714335"><ele>114.5</ele><time>2026-04-12T12:14:41Z</time></trkpt><trkpt lat="42.413072609407536" lon="14.242653224542163"><ele>113.25</ele><time>2026-04-12T12:14:42Z</time></trkpt><trkpt lat="42.413060549412755" lon="14.24247822306096"><ele>112.0</ele><time>2026-04-12T12:14:43Z</time></trkpt><trkpt lat="42.412997953419286" lon="14.242307021202752"><ele>118.0</ele><time>2026-04-12T12:14:44Z</time></trkpt><trkpt lat="42.41291420899301" lon="14.242119324140823"><ele>124.0</ele><time>2026-04-12T12:14:45Z</time></trkpt><trkpt lat="42.412832017042476" lon="14.241928364221883"><ele>130.0</ele><time>2026-04-12T12:14:46Z</time></trkpt><trkpt lat="42.41277778719318" lon="14.241749487566077"><ele>130.0</ele><time>2026-04-12T12:14:47Z</time></trkpt><trkpt lat="42.41273489709127" lon="14.241584143442777"><ele>130.0</ele><time>2026-04-12T12:14:48Z</time></trkpt><trkpt lat="42.41269150151858" lon="14.24142608274319"><ele>130.0</ele><time>2026-04-12T12:14:49Z</time></trkpt><trkpt lat="42.41263209105826" lon="14.241259841802924"><ele>130.0</ele><time>2026-04-12T12:14:50Z</time></trkpt><trkpt lat="42.41256163307521" lon="14.241108231124661"><ele>127.0</ele><time>2026-04-12T12:14:51Z</time></trkpt><trkpt lat="42.412472438779496" lon="14.240968679407276"><ele>124.0</ele><time>2026-04-12T12:14:52Z</time></trkpt><trkpt lat="42.41238459345709" lon="14.24085094172613"><ele>121.0</ele><time>2026-04-12T12:14:53Z</time></trkpt><trkpt lat="42.412283054494885" lon="14.24072457035271"><ele>118.0</ele><time>2026-04-12T12:14:54Z</time></trkpt><trkpt lat="42.41218758029863" lon="14.24058887762947"><ele>119.4</ele><time>2026-04-12T12:14:55Z</time></trkpt><trkpt lat="42.412105588242845" lon="14.240484587811409"><ele>120.80000000000001</ele><time>2026-04-12T12:14:56Z</time></trkpt><trkpt lat="42.412025188974006" lon="14.24040395374813"><ele>122.2</ele><time>2026-04-12T12:14:57Z</time></trkpt><trkpt lat="42.41193748356003" lon="14.240353787073207"><ele>123.6</ele><time>2026-04-12T12:14:58Z</time></trkpt><trkpt lat="42.4118287527984" lon="14.240288701613306"><ele>125.0</ele><time>2026-04-12T12:15:00Z</time></trkpt><trkpt lat="42.411819296023886" lon="14.240194553448388"><ele>125.0</ele><time>2026-04-12T12:15:01Z</time></trkpt><trkpt lat="42.411770056533776" lon="14.240068308796003"><ele>125.0</ele><time>2026-04-12T12:15:02.999Z</time></trkpt><trkpt lat="42.411726691767775" lon="14.239961150505195"><ele>125.0</ele><time>2026-04-12T12:15:03.999Z</time></trkpt><trkpt lat="42.411676982720124" lon="14.23985316904983"><ele>125.0</ele><time>2026-04-12T12:15:04.999Z</time></trkpt><trkpt lat="42.4116259636075" lon="14.23974828308965"><ele>125.0</ele><time>2026-04-12T12:15:05.999Z</time></trkpt><trkpt lat="42.41158805702037" lon="14.239635201710563"><ele>123.0</ele><time>2026-04-12T12:15:06.999Z</time></trkpt><trkpt lat="42.4115471972979" lon="14.239497506274727"><ele>121.0</ele><time>2026-04-12T12:15:07.999Z</time></trkpt><trkpt lat="42.411497838569616" lon="14.239332689491622"><ele>119.0</ele><time>2026-04-12T12:15:08.999Z</time></trkpt><trkpt lat="42.41143588913914" lon="14.239167153805784"><ele>117.0</ele><time>2026-04-12T12:15:09.999Z</time></trkpt><trkpt lat="42.411363630936485" lon="14.239023043912587"><ele>123.25</ele><time>2026-04-12T12:15:10.999Z</time></trkpt><trkpt lat="42.411292362052926" lon="14.238883812558521"><ele>129.5</ele><time>2026-04-12T12:15:11.999Z</time></trkpt><trkpt lat="42.41123069697963" lon="14.238725960919599"><ele>135.75</ele><time>2026-04-12T12:15:12.999Z</time></trkpt><trkpt lat="42.41116168826543" lon="14.238560819041405"><ele>142.0</ele><time>2026-04-12T12:15:13.999Z</time></trkpt><trkpt lat="42.4110673506642" lon="14.2383939872202"><ele>142.0</ele><time>2026-04-12T12:15:14.999Z</time></trkpt><trkpt lat="42.41098571183764" lon="14.238222133610732"><ele>142.0</ele><time>2026-04-12T12:15:15.999Z</time></trkpt><trkpt lat="42.41091621690258" lon="14.238042331034839"><ele>142.0</ele><time>2026-04-12T12:15:16.999Z</time></trkpt><trkpt lat="42.41085433757538" lon="14.237865354253824"><ele>142.0</ele><time>2026-04-12T12:15:17.999Z</time></trkpt><trkpt lat="42.41080192802268" lon="14.237713496323853"><ele>142.0</ele><time>2026-04-12T12:15:18.999Z</time></trkpt><trkpt lat="42.41076148495848" lon="14.237563370958672"><ele>142.0</ele><time>2026-04-12T12:15:19.999Z</time></trkpt><trkpt lat="42.41072222574441" lon="14.237443443634787"><ele>142.0</ele><time>2026-04-12T12:15:20.999Z</time></trkpt><trkpt lat="42.41066953616516" lon="14.237341928379484"><ele>142.0</ele><time>2026-04-12T12:15:21.999Z</time></trkpt><trkpt lat="42.410598411873934" lon="14.237245006836373"><ele>142.0</ele><time>2026-04-12T12:15:22.999Z</time></trkpt><trkpt lat="42.41052395644203" lon="14.237130406576656"><ele>144.2</ele><time>2026-04-12T12:15:23.999Z</time></trkpt><trkpt lat="42.410448675783904" lon="14.237034035104196"><ele>146.39999999999998</ele><time>2026-04-12T12:15:24.999Z</time></trkpt><trkpt lat="42.41039942491052" lon="14.236963732935918"><ele>148.60000000000002</ele><time>2026-04-12T12:15:25.999Z</time></trkpt><trkpt lat="42.410377741679575" lon="14.236869181896434"><ele>150.8</ele><time>2026-04-12T12:15:26.999Z</time></trkpt><trkpt lat="42.41033380899413" lon="14.23672244968416"><ele>153.0</ele><time>2026-04-12T12:15:27.999Z</time></trkpt><trkpt lat="42.410289857458835" lon="14.236564945405808"><ele>151.75</ele><time>2026-04-12T12:15:28.999Z</time></trkpt><trkpt lat="42.41023144633413" lon="14.236410633926846"><ele>150.5</ele><time>2026-04-12T12:15:29.999Z</time></trkpt><trkpt lat="42.41017428724548" lon="14.236268089395326"><ele>149.25</ele><time>2026-04-12T12:15:30.999Z</time></trkpt><trkpt lat="42.41009319777426" lon="14.236167264894664"><ele>148.0</ele><time>2026-04-12T12:15:31.999Z</time></trkpt><trkpt lat="42.40999024476954" lon="14.236057157175244"><ele>148.0</ele><time>2026-04-12T12:15:32.999Z</time></trkpt><trkpt lat="42.40988533797143" lon="14.235956679768893"><ele>148.0</ele><time>2026-04-12T12:15:33.999Z</time></trkpt><trkpt lat="42.409779453257244" lon="14.235848341522875"><ele>148.0</ele><time>2026-04-12T12:15:34.999Z</time></trkpt><trkpt lat="42.40969436331736" lon="14.235744693141767"><ele>148.0</ele><time>2026-04-12T12:15:35.999Z</time></trkpt><trkpt lat="42.40961236584509" lon="14.235637255003345"><ele>148.0</ele><time>2026-04-12T12:15:36.999Z</time></trkpt><trkpt lat="42.40951877838559" lon="14.235516298336451"><ele>148.0</ele><time>2026-04-12T12:15:37.999Z</time></trkpt><trkpt lat="42.40940000932237" lon="14.235363784091447"><ele>148.0</ele><time>2026-04-12T12:15:38.999Z</time></trkpt><trkpt lat="42.40930189823265" lon="14.235230521560643"><ele>148.0</ele><time>2026-04-12T12:15:39.999Z</time></trkpt><trkpt lat="42.40922852303087" lon="14.235133116102494"><ele>148.0</ele><time>2026-04-12T12:15:40.999Z</time></trkpt><trkpt lat="42.409162819426925" lon="14.235059312337727"><ele>148.0</ele><time>2026-04-12T12:15:41.999Z</time></trkpt><trkpt lat="42.409097772643456" lon="14.234993952927798"><ele>148.0</ele><time>2026-04-12T12:15:42.999Z</time></trkpt><trkpt lat="42.409046452732845" lon="14.234912426297797"><ele>148.0</ele><time>2026-04-12T12:15:43.999Z</time></trkpt><trkpt lat="42.409012959070886" lon="14.234818847373353"><ele>148.0</ele><time>2026-04-12T12:15:44.999Z</time></trkpt><trkpt lat="42.40898493120838" lon="14.234671749062741"><ele>148.0</ele><time>2026-04-12T12:15:45.999Z</time></trkpt><trkpt lat="42.4089515936192" lon="14.23458944238185"><ele>149.6</ele><time>2026-04-12T12:15:46.999Z</time></trkpt><trkpt lat="42.408892268174306" lon="14.234517057564771"><ele>151.20000000000002</ele><time>2026-04-12T12:15:47.999Z</time></trkpt><trkpt lat="42.40881372423054" lon="14.23446668371181"><ele>152.8</ele><time>2026-04-12T12:15:48.999Z</time></trkpt><trkpt lat="42.408713442512415" lon="14.234389118500866"><ele>154.4</ele><time>2026-04-12T12:15:49.999Z</time></trkpt><trkpt lat="42.40863838330866" lon="14.234304465066762"><ele>156.0</ele><time>2026-04-12T12:15:50.999Z</time></trkpt><trkpt lat="42.40857495073496" lon="14.234179914255014"><ele>156.0</ele><time>2026-04-12T12:15:51.999Z</time></trkpt><trkpt lat="42.40849285480455" lon="14.234068222478315"><ele>156.0</ele><time>2026-04-12T12:15:52.999Z</time></trkpt><trkpt lat="42.408387574538125" lon="14.23394608463383"><ele>156.0</ele><time>2026-04-12T12:15:53.999Z</time></trkpt><trkpt lat="42.40830710245967" lon="14.233822575965354"><ele>156.0</ele><time>2026-04-12T12:15:54.999Z</time></trkpt><trkpt lat="42.40824808378103" lon="14.233696419077562"><ele>154.5</ele><time>2026-04-12T12:15:55.999Z</time></trkpt><trkpt lat="42.408191942747834" lon="14.233550135455719"><ele>153.0</ele><time>2026-04-12T12:15:56.999Z</time></trkpt><trkpt lat="42.4081484244198" lon="14.233370766921077"><ele>151.5</ele><time>2026-04-12T12:15:57.999Z</time></trkpt><trkpt lat="42.40808806997738" lon="14.233198076893284"><ele>150.0</ele><time>2026-04-12T12:15:59Z</time></trkpt><trkpt lat="42.40801856114158" lon="14.233027450140385"><ele>154.33333333333334</ele><time>2026-04-12T12:16:00Z</time></trkpt><trkpt lat="42.40793413653213" lon="14.232866341826599"><ele>158.66666666666669</ele><time>2026-04-12T12:16:01Z</time></trkpt><trkpt lat="42.407843622401955" lon="14.232711459429682"><ele>163.0</ele><time>2026-04-12T12:16:02Z</time></trkpt><trkpt lat="42.40772386354919" lon="14.232564333635171"><ele>163.0</ele><time>2026-04-12T12:16:03Z</time></trkpt><trkpt lat="42.407612158051435" lon="14.232407542179619"><ele>163.0</ele><time>2026-04-12T12:16:04Z</time></trkpt><trkpt lat="42.407489272379536" lon="14.232238387928158"><ele>163.0</ele><time>2026-04-12T12:16:05Z</time></trkpt><trkpt lat="42.40737808518854" lon="14.232073300968484"><ele>164.5</ele><time>2026-04-12T12:16:06Z</time></trkpt><trkpt lat="42.40727602935304" lon="14.23192116360443"><ele>166.0</ele><time>2026-04-12T12:16:07Z</time></trkpt><trkpt lat="42.40719193331737" lon="14.231772501699355"><ele>167.5</ele><time>2026-04-12T12:16:08Z</time></trkpt><trkpt lat="42.40712786749102" lon="14.231626743967436"><ele>169.0</ele><time>2026-04-12T12:16:09Z</time></trkpt><trkpt lat="42.40709717489564" lon="14.231498460668929"><ele>168.25</ele><time>2026-04-12T12:16:10Z</time></trkpt><trkpt lat="42.40706569540276" lon="14.231344997981003"><ele>167.5</ele><time>2026-04-12T12:16:11Z</time></trkpt><trkpt lat="42.40701863617658" lon="14.231192451873387"><ele>166.75</ele><time>2026-04-12T12:16:12Z</time></trkpt><trkpt lat="42.406938656935175" lon="14.23103567965829"><ele>166.0</ele><time>2026-04-12T12:16:13Z</time></trkpt><trkpt lat="42.406854220520174" lon="14.230906397301434"><ele>166.0</ele><time>2026-04-12T12:16:14Z</time></trkpt><trkpt lat="42.406753097779585" lon="14.23080154974001"><ele>166.0</ele><time>2026-04-12T12:16:15Z</time></trkpt><trkpt lat="42.40664080489418" lon="14.230693630078198"><ele>166.0</ele><time>2026-04-12T12:16:16Z</time></trkpt><trkpt lat="42.40652953910607" lon="14.230578828158224"><ele>166.0</ele><time>2026-04-12T12:16:17Z</time></trkpt><trkpt lat="42.40642265268871" lon="14.230446876856625"><ele>167.0</ele><time>2026-04-12T12:16:18Z</time></trkpt><trkpt lat="42.40632591696497" lon="14.230307183785564"><ele>168.0</ele><time>2026-04-12T12:16:19Z</time></trkpt><trkpt lat="42.40622886381864" lon="14.230172418883416"><ele>169.0</ele><time>2026-04-12T12:16:20Z</time></trkpt><trkpt lat="42.40614022848811" lon="14.230047720560481"><ele>170.0</ele><time>2026-04-12T12:16:21Z</time></trkpt><trkpt lat="42.406075821398424" lon="14.229926692014754"><ele>170.0</ele><time>2026-04-12T12:16:22Z</time></trkpt><trkpt lat="42.40601556528243" lon="14.229838188903472"><ele>170.0</ele><time>2026-04-12T12:16:23Z</time></trkpt><trkpt lat="42.405958370624276" lon="14.229762558697113"><ele>170.0</ele><time>2026-04-12T12:16:24Z</time></trkpt><trkpt lat="42.405893954907185" lon="14.229707076565498"><ele>170.0</ele><time>2026-04-12T12:16:25Z</time></trkpt><trkpt lat="42.40581943641786" lon="14.229686137310892"><ele>170.0</ele><time>2026-04-12T12:16:26Z</time></trkpt><trkpt lat="42.405747962724156" lon="14.229692436408532"><ele>170.0</ele><time>2026-04-12T12:16:27Z</time></trkpt><trkpt lat="42.40566222790127" lon="14.229711127594852"><ele>170.6</ele><time>2026-04-12T12:16:28Z</time></trkpt><trkpt lat="42.40557568358349" lon="14.229711232870768"><ele>171.2</ele><time>2026-04-12T12:16:29Z</time></trkpt><trkpt lat="42.40550053102741" lon="14.22971927073229"><ele>171.8</ele><time>2026-04-12T12:16:30Z</time></trkpt><trkpt lat="42.4054330070875" lon="14.229731947710338"><ele>172.4</ele><time>2026-04-12T12:16:31Z</time></trkpt><trkpt lat="42.405317940163144" lon="14.229744792709083"><ele>173.0</ele><time>2026-04-12T12:16:33Z</time></trkpt><trkpt lat="42.40522119553227" lon="14.229373253719574"><ele>173.0</ele><time>2026-04-12T12:16:34Z</time></trkpt><trkpt lat="42.40517734063633" lon="14.229306089601272"><ele>173.0</ele><time>2026-04-12T12:16:35Z</time></trkpt><trkpt lat="42.405127027963985" lon="14.229193922971033"><ele>173.0</ele><time>2026-04-12T12:16:37Z</time></trkpt><trkpt lat="42.40521029696577" lon="14.229357024597528"><ele>173.0</ele><time>2026-04-12T12:16:42Z</time></trkpt><trkpt lat="42.405285645776225" lon="14.22944947900408"><ele>173.0</ele><time>2026-04-12T12:16:43Z</time></trkpt><trkpt lat="42.40536031829934" lon="14.22953320630647"><ele>173.0</ele><time>2026-04-12T12:16:44Z</time></trkpt><trkpt lat="42.40542582106899" lon="14.22960640047984"><ele>173.0</ele><time>2026-04-12T12:16:45Z</time></trkpt><trkpt lat="42.40548818966476" lon="14.229682529431049"><ele>173.0</ele><time>2026-04-12T12:16:46Z</time></trkpt><trkpt lat="42.40555318623851" lon="14.229731109540241"><ele>173.0</ele><time>2026-04-12T12:16:47Z</time></trkpt><trkpt lat="42.40563444967602" lon="14.229767606628906"><ele>173.0</ele><time>2026-04-12T12:16:48Z</time></trkpt><trkpt lat="42.40571116440819" lon="14.229769845439098"><ele>173.0</ele><time>2026-04-12T12:16:49Z</time></trkpt><trkpt lat="42.405780895360344" lon="14.229681878769826"><ele>173.0</ele><time>2026-04-12T12:16:51Z</time></trkpt><trkpt lat="42.405734057157446" lon="14.229596664740962"><ele>173.0</ele><time>2026-04-12T12:16:53Z</time></trkpt><trkpt lat="42.40564477342051" lon="14.229561817671868"><ele>173.0</ele><time>2026-04-12T12:16:54Z</time></trkpt><trkpt lat="42.40557301587787" lon="14.229491378011948"><ele>173.0</ele><time>2026-04-12T12:16:55Z</time></trkpt><trkpt lat="42.40548285653863" lon="14.22940469858944"><ele>173.0</ele><time>2026-04-12T12:16:56Z</time></trkpt><trkpt lat="42.40538365569834" lon="14.229301689050699"><ele>173.0</ele><time>2026-04-12T12:16:57Z</time></trkpt><trkpt lat="42.405283313082705" lon="14.22918886351056"><ele>173.0</ele><time>2026-04-12T12:16:58Z</time></trkpt><trkpt lat="42.405190443950694" lon="14.229082875946911"><ele>173.0</ele><time>2026-04-12T12:16:59Z</time></trkpt><trkpt lat="42.405081539850116" lon="14.228966147474665"><ele>173.0</ele><time>2026-04-12T12:17:00Z</time></trkpt><trkpt lat="42.40500710089545" lon="14.228752485600564"><ele>170.8</ele><time>2026-04-12T12:17:01Z</time></trkpt><trkpt lat="42.404952775234804" lon="14.228623355958625"><ele>168.60000000000002</ele><time>2026-04-12T12:17:02Z</time></trkpt><trkpt lat="42.40490883870409" lon="14.228492836870815"><ele>166.39999999999998</ele><time>2026-04-12T12:17:03Z</time></trkpt><trkpt lat="42.40484564899331" lon="14.228368165044905"><ele>164.2</ele><time>2026-04-12T12:17:04Z</time></trkpt><trkpt lat="42.40482680083336" lon="14.228230072092684"><ele>162.0</ele><time>2026-04-12T12:17:05Z</time></trkpt><trkpt lat="42.404793410557396" lon="14.22805245931678"><ele>165.33333333333334</ele><time>2026-04-12T12:17:05.999Z</time></trkpt><trkpt lat="42.40471292607688" lon="14.22782439496485"><ele>168.66666666666669</ele><time>2026-04-12T12:17:06.999Z</time></trkpt><trkpt lat="42.40465170246638" lon="14.227679476076347"><ele>172.0</ele><time>2026-04-12T12:17:07.999Z</time></trkpt><trkpt lat="42.40457783125294" lon="14.22751435262836"><ele>172.0</ele><time>2026-04-12T12:17:08.999Z</time></trkpt><trkpt lat="42.40451300399652" lon="14.227341659165623"><ele>172.0</ele><time>2026-04-12T12:17:09.999Z</time></trkpt><trkpt lat="42.40442958589108" lon="14.227207351681313"><ele>172.0</ele><time>2026-04-12T12:17:10.999Z</time></trkpt><trkpt lat="42.40437222742251" lon="14.227093302832786"><ele>172.0</ele><time>2026-04-12T12:17:11.999Z</time></trkpt><trkpt lat="42.40435893826498" lon="14.22695335370604"><ele>169.0</ele><time>2026-04-12T12:17:12.999Z</time></trkpt><trkpt lat="42.40433461604864" lon="14.226785785023264"><ele>166.0</ele><time>2026-04-12T12:17:13.999Z</time></trkpt><trkpt lat="42.404291632453806" lon="14.22667035627255"><ele>163.0</ele><time>2026-04-12T12:17:14.999Z</time></trkpt><trkpt lat="42.40424697427327" lon="14.226607851757192"><ele>160.0</ele><time>2026-04-12T12:17:15.999Z</time></trkpt><trkpt lat="42.40417485637503" lon="14.226561903328216"><ele>157.0</ele><time>2026-04-12T12:17:17.999Z</time></trkpt><trkpt lat="42.40407740483917" lon="14.226500372618125"><ele>155.0</ele><time>2026-04-12T12:17:18.999Z</time></trkpt><trkpt lat="42.40398792311014" lon="14.226392326321664"><ele>153.0</ele><time>2026-04-12T12:17:19.999Z</time></trkpt><trkpt lat="42.403897681044015" lon="14.226243430064223"><ele>151.0</ele><time>2026-04-12T12:17:20.999Z</time></trkpt><trkpt lat="42.40381068863578" lon="14.22611365349759"><ele>149.0</ele><time>2026-04-12T12:17:21.999Z</time></trkpt><trkpt lat="42.40373912231272" lon="14.225986346063992"><ele>154.5</ele><time>2026-04-12T12:17:22.999Z</time></trkpt><trkpt lat="42.40367450744033" lon="14.225821005402391"><ele>160.0</ele><time>2026-04-12T12:17:23.999Z</time></trkpt><trkpt lat="42.40363932228026" lon="14.225665272706694"><ele>165.5</ele><time>2026-04-12T12:17:24.999Z</time></trkpt><trkpt lat="42.403594373123184" lon="14.225467057626906"><ele>171.0</ele><time>2026-04-12T12:17:25.999Z</time></trkpt><trkpt lat="42.40354280297791" lon="14.225267221884527"><ele>171.0</ele><time>2026-04-12T12:17:26.999Z</time></trkpt><trkpt lat="42.40351775772817" lon="14.22506232311404"><ele>171.0</ele><time>2026-04-12T12:17:27.999Z</time></trkpt><trkpt lat="42.40349454302084" lon="14.224900000864226"><ele>171.0</ele><time>2026-04-12T12:17:28.999Z</time></trkpt><trkpt lat="42.40347706930722" lon="14.224755621730713"><ele>171.0</ele><time>2026-04-12T12:17:29.999Z</time></trkpt><trkpt lat="42.4034303852851" lon="14.224623185676899"><ele>168.5</ele><time>2026-04-12T12:17:30.999Z</time></trkpt><trkpt lat="42.40334910886453" lon="14.22449588011508"><ele>166.0</ele><time>2026-04-12T12:17:31.999Z</time></trkpt><trkpt lat="42.40327052731459" lon="14.22438638384942"><ele>163.5</ele><time>2026-04-12T12:17:32.999Z</time></trkpt><trkpt lat="42.40321870352326" lon="14.22424510948448"><ele>161.0</ele><time>2026-04-12T12:17:33.999Z</time></trkpt><trkpt lat="42.4031552883628" lon="14.224108219056058"><ele>161.0</ele><time>2026-04-12T12:17:34.999Z</time></trkpt><trkpt lat="42.40307278127963" lon="14.223988334538697"><ele>161.0</ele><time>2026-04-12T12:17:35.999Z</time></trkpt><trkpt lat="42.40299575969045" lon="14.223904663319047"><ele>161.0</ele><time>2026-04-12T12:17:36.999Z</time></trkpt><trkpt lat="42.402887126494846" lon="14.22386779886191"><ele>161.0</ele><time>2026-04-12T12:17:37.999Z</time></trkpt><trkpt lat="42.40276373899257" lon="14.223837838012692"><ele>162.5</ele><time>2026-04-12T12:17:38.999Z</time></trkpt><trkpt lat="42.40265099313151" lon="14.223826258696315"><ele>164.0</ele><time>2026-04-12T12:17:39.999Z</time></trkpt><trkpt lat="42.40256196303346" lon="14.223757351882023"><ele>165.5</ele><time>2026-04-12T12:17:40.999Z</time></trkpt><trkpt lat="42.402470929922565" lon="14.22364291147555"><ele>167.0</ele><time>2026-04-12T12:17:41.999Z</time></trkpt><trkpt lat="42.402373123133465" lon="14.223528153307711"><ele>167.0</ele><time>2026-04-12T12:17:42.999Z</time></trkpt><trkpt lat="42.402264724946065" lon="14.223429928269114"><ele>167.0</ele><time>2026-04-12T12:17:43.999Z</time></trkpt><trkpt lat="42.402185049575344" lon="14.223376304896389"><ele>167.0</ele><time>2026-04-12T12:17:44.999Z</time></trkpt><trkpt lat="42.40202812102422" lon="14.223443383117232"><ele>167.0</ele><time>2026-04-12T12:17:46.999Z</time></trkpt><trkpt lat="42.40191381060167" lon="14.223544809858142"><ele>170.5</ele><time>2026-04-12T12:17:47.999Z</time></trkpt><trkpt lat="42.40179718264006" lon="14.223629814319088"><ele>174.0</ele><time>2026-04-12T12:17:48.999Z</time></trkpt><trkpt lat="42.40166537141774" lon="14.22369378701758"><ele>177.5</ele><time>2026-04-12T12:17:49.999Z</time></trkpt><trkpt lat="42.40153015598975" lon="14.223748305245508"><ele>181.0</ele><time>2026-04-12T12:17:50.999Z</time></trkpt><trkpt lat="42.40139709725624" lon="14.223805080556627"><ele>182.60000000000002</ele><time>2026-04-12T12:17:51.999Z</time></trkpt><trkpt lat="42.40127470503883" lon="14.223863733690493"><ele>184.2</ele><time>2026-04-12T12:17:52.999Z</time></trkpt><trkpt lat="42.40118765400396" lon="14.223931382852353"><ele>185.8</ele><time>2026-04-12T12:17:53.999Z</time></trkpt><trkpt lat="42.40110228751531" lon="14.224001527618752"><ele>187.39999999999998</ele><time>2026-04-12T12:17:54.999Z</time></trkpt><trkpt lat="42.40100181795575" lon="14.224074667218222"><ele>189.0</ele><time>2026-04-12T12:17:55.999Z</time></trkpt><trkpt lat="42.4008998271205" lon="14.224160783795885"><ele>189.5</ele><time>2026-04-12T12:17:56.999Z</time></trkpt><trkpt lat="42.400795537942464" lon="14.224245811752196"><ele>190.0</ele><time>2026-04-12T12:17:57.999Z</time></trkpt><trkpt lat="42.40070458117337" lon="14.224332385689571"><ele>190.5</ele><time>2026-04-12T12:17:58.999Z</time></trkpt><trkpt lat="42.40064551917428" lon="14.224391253106694"><ele>191.0</ele><time>2026-04-12T12:17:59.999Z</time></trkpt><trkpt lat="42.40058128788181" lon="14.224358070133997"><ele>191.5</ele><time>2026-04-12T12:18:01.999Z</time></trkpt><trkpt lat="42.400534223073734" lon="14.224297656762596"><ele>192.0</ele><time>2026-04-12T12:18:02.999Z</time></trkpt><trkpt lat="42.40049448666268" lon="14.22417295613659"><ele>192.0</ele><time>2026-04-12T12:18:04Z</time></trkpt><trkpt lat="42.400443275437624" lon="14.22405072225078"><ele>192.0</ele><time>2026-04-12T12:18:05Z</time></trkpt><trkpt lat="42.40036795066303" lon="14.223910816258275"><ele>192.0</ele><time>2026-04-12T12:18:06Z</time></trkpt><trkpt lat="42.40028195050912" lon="14.223763839611115"><ele>192.0</ele><time>2026-04-12T12:18:07Z</time></trkpt><trkpt lat="42.40018581035928" lon="14.22361951872427"><ele>192.66666666666669</ele><time>2026-04-12T12:18:08Z</time></trkpt><trkpt lat="42.40007519495682" lon="14.223469606782368"><ele>193.33333333333334</ele><time>2026-04-12T12:18:09Z</time></trkpt><trkpt lat="42.399944360069966" lon="14.22330944455044"><ele>194.0</ele><time>2026-04-12T12:18:10Z</time></trkpt><trkpt lat="42.39980479673342" lon="14.223156144007206"><ele>194.0</ele><time>2026-04-12T12:18:11Z</time></trkpt><trkpt lat="42.39967781161853" lon="14.223015479679948"><ele>194.0</ele><time>2026-04-12T12:18:12Z</time></trkpt><trkpt lat="42.39954981909101" lon="14.222865418825043"><ele>194.0</ele><time>2026-04-12T12:18:13Z</time></trkpt><trkpt lat="42.399416708082825" lon="14.222703891362523"><ele>194.0</ele><time>2026-04-12T12:18:14Z</time></trkpt><trkpt lat="42.39926340477961" lon="14.222538490492132"><ele>194.0</ele><time>2026-04-12T12:18:15Z</time></trkpt><trkpt lat="42.39911094734195" lon="14.222366991300087"><ele>194.0</ele><time>2026-04-12T12:18:16Z</time></trkpt><trkpt lat="42.398955928981984" lon="14.222196464852159"><ele>194.33333333333334</ele><time>2026-04-12T12:18:17Z</time></trkpt><trkpt lat="42.398816920184764" lon="14.222040450788878"><ele>194.66666666666669</ele><time>2026-04-12T12:18:18Z</time></trkpt><trkpt lat="42.398702805212956" lon="14.221889670339172"><ele>195.0</ele><time>2026-04-12T12:18:19Z</time></trkpt><trkpt lat="42.398609303056055" lon="14.221748778471113"><ele>195.0</ele><time>2026-04-12T12:18:20Z</time></trkpt><trkpt lat="42.39853289991976" lon="14.221616109888549"><ele>195.0</ele><time>2026-04-12T12:18:21Z</time></trkpt><trkpt lat="42.39847629355432" lon="14.221495106992386"><ele>195.0</ele><time>2026-04-12T12:18:22Z</time></trkpt><trkpt lat="42.39842789667537" lon="14.22139132268286"><ele>195.0</ele><time>2026-04-12T12:18:23Z</time></trkpt><trkpt lat="42.39838486527732" lon="14.221313478710229"><ele>195.0</ele><time>2026-04-12T12:18:24Z</time></trkpt><trkpt lat="42.398336786261126" lon="14.221215233972206"><ele>195.8</ele><time>2026-04-12T12:18:25Z</time></trkpt><trkpt lat="42.398281241220765" lon="14.221100324057815"><ele>196.6</ele><time>2026-04-12T12:18:26Z</time></trkpt><trkpt lat="42.3982192061874" lon="14.22097864897487"><ele>197.39999999999998</ele><time>2026-04-12T12:18:27Z</time></trkpt><trkpt lat="42.398169398297775" lon="14.220868578011444"><ele>198.2</ele><time>2026-04-12T12:18:28Z</time></trkpt><trkpt lat="42.39813324398022" lon="14.220784878410623"><ele>199.0</ele><time>2026-04-12T12:18:29Z</time></trkpt><trkpt lat="42.39792792416359" lon="14.22090506029821"><ele>199.0</ele><time>2026-04-12T12:18:32Z</time></trkpt><trkpt lat="42.39786536759195" lon="14.22104540769662"><ele>199.0</ele><time>2026-04-12T12:18:33Z</time></trkpt><trkpt lat="42.39777036107825" lon="14.221163336741027"><ele>199.0</ele><time>2026-04-12T12:18:34Z</time></trkpt><trkpt lat="42.397672484899296" lon="14.221267445547067"><ele>199.0</ele><time>2026-04-12T12:18:35Z</time></trkpt><trkpt lat="42.397557159717884" lon="14.221394249178616"><ele>198.0</ele><time>2026-04-12T12:18:36Z</time></trkpt><trkpt lat="42.39743819880357" lon="14.2215095600561"><ele>197.0</ele><time>2026-04-12T12:18:37Z</time></trkpt><trkpt lat="42.397332943877686" lon="14.221607930069336"><ele>196.0</ele><time>2026-04-12T12:18:38Z</time></trkpt><trkpt lat="42.39724393481647" lon="14.221698963490551"><ele>195.0</ele><time>2026-04-12T12:18:39Z</time></trkpt><trkpt lat="42.39717418485614" lon="14.221779264647838"><ele>194.6</ele><time>2026-04-12T12:18:40Z</time></trkpt><trkpt lat="42.39712512278507" lon="14.221873245560205"><ele>194.2</ele><time>2026-04-12T12:18:41Z</time></trkpt><trkpt lat="42.39708418656745" lon="14.221971589609671"><ele>193.8</ele><time>2026-04-12T12:18:42Z</time></trkpt><trkpt lat="42.397099138491846" lon="14.222096492420457"><ele>193.4</ele><time>2026-04-12T12:18:43Z</time></trkpt><trkpt lat="42.397143820682665" lon="14.22222955303151"><ele>193.0</ele><time>2026-04-12T12:18:44Z</time></trkpt><trkpt lat="42.39720470974577" lon="14.222375278215335"><ele>193.0</ele><time>2026-04-12T12:18:45Z</time></trkpt><trkpt lat="42.39727998845871" lon="14.222525242190871"><ele>193.0</ele><time>2026-04-12T12:18:46Z</time></trkpt><trkpt lat="42.39735694368636" lon="14.22266558149403"><ele>193.0</ele><time>2026-04-12T12:18:47Z</time></trkpt><trkpt lat="42.39742223485754" lon="14.222784587499252"><ele>193.0</ele><time>2026-04-12T12:18:48Z</time></trkpt><trkpt lat="42.39747277562554" lon="14.222885799793733"><ele>193.0</ele><time>2026-04-12T12:18:49Z</time></trkpt><trkpt lat="42.39752764625726" lon="14.222997640258995"><ele>193.0</ele><time>2026-04-12T12:18:50Z</time></trkpt><trkpt lat="42.39759139934286" lon="14.223134085419039"><ele>193.0</ele><time>2026-04-12T12:18:51Z</time></trkpt><trkpt lat="42.39764738514732" lon="14.22327297386524"><ele>193.0</ele><time>2026-04-12T12:18:52Z</time></trkpt><trkpt lat="42.397684371513705" lon="14.223389670728542"><ele>193.0</ele><time>2026-04-12T12:18:53Z</time></trkpt><trkpt lat="42.397715638469734" lon="14.223469699532663"><ele>192.25</ele><time>2026-04-12T12:18:54Z</time></trkpt><trkpt lat="42.39773509549508" lon="14.22356349988347"><ele>191.5</ele><time>2026-04-12T12:18:55Z</time></trkpt><trkpt lat="42.39777501316953" lon="14.223658253985564"><ele>190.75</ele><time>2026-04-12T12:18:56Z</time></trkpt><trkpt lat="42.39779824244455" lon="14.223773299829462"><ele>190.0</ele><time>2026-04-12T12:18:57Z</time></trkpt><trkpt lat="42.397565223212915" lon="14.224289891256614"><ele>188.25</ele><time>2026-04-12T12:18:59Z</time></trkpt><trkpt lat="42.39753999319204" lon="14.224497706221932"><ele>186.5</ele><time>2026-04-12T12:19:00Z</time></trkpt><trkpt lat="42.39750685377369" lon="14.224687760968498"><ele>184.75</ele><time>2026-04-12T12:19:01Z</time></trkpt><trkpt lat="42.39747954205964" lon="14.224868951503238"><ele>183.0</ele><time>2026-04-12T12:19:02Z</time></trkpt><trkpt lat="42.39746945486459" lon="14.225044223489737"><ele>181.0</ele><time>2026-04-12T12:19:03Z</time></trkpt><trkpt lat="42.39747904264751" lon="14.22522064160207"><ele>179.0</ele><time>2026-04-12T12:19:04Z</time></trkpt><trkpt lat="42.39752053056895" lon="14.225396719157857"><ele>177.0</ele><time>2026-04-12T12:19:05Z</time></trkpt><trkpt lat="42.39756197731874" lon="14.225579036849725"><ele>175.0</ele><time>2026-04-12T12:19:06Z</time></trkpt><trkpt lat="42.3975805729255" lon="14.225727654315056"><ele>172.8</ele><time>2026-04-12T12:19:07Z</time></trkpt><trkpt lat="42.397582528731526" lon="14.225842767068796"><ele>170.6</ele><time>2026-04-12T12:19:08Z</time></trkpt><trkpt lat="42.3975263141613" lon="14.225938342861134"><ele>168.39999999999998</ele><time>2026-04-12T12:19:09.999Z</time></trkpt><trkpt lat="42.39741102158078" lon="14.22594829086858"><ele>166.2</ele><time>2026-04-12T12:19:11.999Z</time></trkpt><trkpt lat="42.39736099396258" lon="14.225877999667686"><ele>164.0</ele><time>2026-04-12T12:19:12.999Z</time></trkpt><trkpt lat="42.39731117530011" lon="14.225722286026237"><ele>162.79999999999998</ele><time>2026-04-12T12:19:13.999Z</time></trkpt><trkpt lat="42.39725000416347" lon="14.225581469963972"><ele>161.6</ele><time>2026-04-12T12:19:14.999Z</time></trkpt><trkpt lat="42.39718301827017" lon="14.225475595262097"><ele>160.4</ele><time>2026-04-12T12:19:15.999Z</time></trkpt><trkpt lat="42.39710549105667" lon="14.225399730942687"><ele>159.2</ele><time>2026-04-12T12:19:16.999Z</time></trkpt><trkpt lat="42.39702424495003" lon="14.22532546060555"><ele>158.0</ele><time>2026-04-12T12:19:17.999Z</time></trkpt><trkpt lat="42.396923288537145" lon="14.225265122423165"><ele>158.0</ele><time>2026-04-12T12:19:18.999Z</time></trkpt><trkpt lat="42.39683546347669" lon="14.225239900727894"><ele>158.0</ele><time>2026-04-12T12:19:19.999Z</time></trkpt><trkpt lat="42.39673759346273" lon="14.225240817118864"><ele>158.0</ele><time>2026-04-12T12:19:20.999Z</time></trkpt><trkpt lat="42.396633079726385" lon="14.22525871715762"><ele>158.0</ele><time>2026-04-12T12:19:21.999Z</time></trkpt><trkpt lat="42.396543460020595" lon="14.225274297787948"><ele>158.0</ele><time>2026-04-12T12:19:22.999Z</time></trkpt><trkpt lat="42.396457694627195" lon="14.225281300904816"><ele>158.0</ele><time>2026-04-12T12:19:23.999Z</time></trkpt><trkpt lat="42.396383116562895" lon="14.225248335923059"><ele>158.0</ele><time>2026-04-12T12:19:24.999Z</time></trkpt><trkpt lat="42.39629387125705" lon="14.22519629345479"><ele>158.0</ele><time>2026-04-12T12:19:25.999Z</time></trkpt><trkpt lat="42.39617432561533" lon="14.225138303398888"><ele>158.0</ele><time>2026-04-12T12:19:26.999Z</time></trkpt><trkpt lat="42.3960524775922" lon="14.225086040336706"><ele>158.0</ele><time>2026-04-12T12:19:27.999Z</time></trkpt><trkpt lat="42.39595123119468" lon="14.225038411629995"><ele>156.0</ele><time>2026-04-12T12:19:28.999Z</time></trkpt><trkpt lat="42.395833652211024" lon="14.224982861878418"><ele>154.0</ele><time>2026-04-12T12:19:29.999Z</time></trkpt><trkpt lat="42.39572121070862" lon="14.22492962277747"><ele>152.0</ele><time>2026-04-12T12:19:30.999Z</time></trkpt><trkpt lat="42.395611862168714" lon="14.224881477487417"><ele>150.0</ele><time>2026-04-12T12:19:31.999Z</time></trkpt><trkpt lat="42.395512058997795" lon="14.22479516294969"><ele>142.0</ele><time>2026-04-12T12:19:32.999Z</time></trkpt><trkpt lat="42.39541024930393" lon="14.22472950816529"><ele>134.0</ele><time>2026-04-12T12:19:33.999Z</time></trkpt><trkpt lat="42.39530744825001" lon="14.224686849145437"><ele>126.0</ele><time>2026-04-12T12:19:34.999Z</time></trkpt><trkpt lat="42.39519826871952" lon="14.224637887239195"><ele>118.0</ele><time>2026-04-12T12:19:35.999Z</time></trkpt><trkpt lat="42.39508172960185" lon="14.224622797549216"><ele>118.0</ele><time>2026-04-12T12:19:36.999Z</time></trkpt><trkpt lat="42.39495941041471" lon="14.224627040932639"><ele>118.00000000000001</ele><time>2026-04-12T12:19:37.999Z</time></trkpt><trkpt lat="42.394863197187036" lon="14.22459127784081"><ele>118.00000000000001</ele><time>2026-04-12T12:19:38.999Z</time></trkpt><trkpt lat="42.39476734701962" lon="14.224570920660325"><ele>118.0</ele><time>2026-04-12T12:19:39.999Z</time></trkpt><trkpt lat="42.394659687377654" lon="14.224526634525624"><ele>118.0</ele><time>2026-04-12T12:19:40.999Z</time></trkpt><trkpt lat="42.394575291705976" lon="14.22444955350869"><ele>113.75</ele><time>2026-04-12T12:19:41.999Z</time></trkpt><trkpt lat="42.39445730929939" lon="14.22435541165717"><ele>109.5</ele><time>2026-04-12T12:19:42.999Z</time></trkpt><trkpt lat="42.39436464324876" lon="14.224242166598707"><ele>105.25</ele><time>2026-04-12T12:19:43.999Z</time></trkpt><trkpt lat="42.39429273590407" lon="14.224134848377012"><ele>101.0</ele><time>2026-04-12T12:19:44.999Z</time></trkpt><trkpt lat="42.39422659215738" lon="14.224033226961234"><ele>101.33333333333333</ele><time>2026-04-12T12:19:45.999Z</time></trkpt><trkpt lat="42.394161902545314" lon="14.223954331475055"><ele>101.66666666666666</ele><time>2026-04-12T12:19:46.999Z</time></trkpt><trkpt lat="42.39407587155881" lon="14.22387772759564"><ele>102.0</ele><time>2026-04-12T12:19:47.999Z</time></trkpt><trkpt lat="42.394020892595" lon="14.223820995624852"><ele>102.33333333333334</ele><time>2026-04-12T12:19:48.999Z</time></trkpt><trkpt lat="42.39396674984806" lon="14.223776862365918"><ele>102.66666666666667</ele><time>2026-04-12T12:19:50.999Z</time></trkpt><trkpt lat="42.39386797021785" lon="14.223835620783248"><ele>103.0</ele><time>2026-04-12T12:19:52.999Z</time></trkpt><trkpt lat="42.393806762372705" lon="14.223879911919596"><ele>103.0</ele><time>2026-04-12T12:19:53.999Z</time></trkpt><trkpt lat="42.393737516747315" lon="14.223901839085713"><ele>103.0</ele><time>2026-04-12T12:19:54.999Z</time></trkpt><trkpt lat="42.39362492339969" lon="14.223894380382163"><ele>103.0</ele><time>2026-04-12T12:19:55.999Z</time></trkpt><trkpt lat="42.39354037860753" lon="14.223889044046228"><ele>103.0</ele><time>2026-04-12T12:19:56.999Z</time></trkpt><trkpt lat="42.39358815996432" lon="14.224033727878217"><ele>103.0</ele><time>2026-04-12T12:20:01.999Z</time></trkpt><trkpt lat="42.39363331156076" lon="14.224143053428595"><ele>104.0</ele><time>2026-04-12T12:20:02.999Z</time></trkpt><trkpt lat="42.39355263159511" lon="14.224225523756656"><ele>105.0</ele><time>2026-04-12T12:20:04.999Z</time></trkpt><trkpt lat="42.393640479050156" lon="14.22438524690198"><ele>106.0</ele><time>2026-04-12T12:20:05.999Z</time></trkpt><trkpt lat="42.393682895339516" lon="14.224580231073038"><ele>107.0</ele><time>2026-04-12T12:20:06.999Z</time></trkpt><trkpt lat="42.39372438748259" lon="14.224781446719536"><ele>107.66666666666666</ele><time>2026-04-12T12:20:07.999Z</time></trkpt><trkpt lat="42.39378488231713" lon="14.225004210038323"><ele>108.33333333333334</ele><time>2026-04-12T12:20:09Z</time></trkpt><trkpt lat="42.39385879373559" lon="14.22524111679339"><ele>109.0</ele><time>2026-04-12T12:20:10Z</time></trkpt><trkpt lat="42.393934126060955" lon="14.225477958665024"><ele>104.33333333333334</ele><time>2026-04-12T12:20:11Z</time></trkpt><trkpt lat="42.39400956778038" lon="14.225720553599484"><ele>99.66666666666667</ele><time>2026-04-12T12:20:12Z</time></trkpt><trkpt lat="42.394077777637655" lon="14.225948815683514"><ele>95.0</ele><time>2026-04-12T12:20:13Z</time></trkpt><trkpt lat="42.39415794108257" lon="14.226194238390438"><ele>95.0</ele><time>2026-04-12T12:20:14Z</time></trkpt><trkpt lat="42.39423172527155" lon="14.226447957565457"><ele>95.0</ele><time>2026-04-12T12:20:15Z</time></trkpt><trkpt lat="42.394326625930255" lon="14.226682303839048"><ele>95.0</ele><time>2026-04-12T12:20:16Z</time></trkpt><trkpt lat="42.39441774478967" lon="14.22692275658819"><ele>95.66666666666667</ele><time>2026-04-12T12:20:17Z</time></trkpt><trkpt lat="42.394501673928076" lon="14.227194189032666"><ele>96.33333333333334</ele><time>2026-04-12T12:20:18Z</time></trkpt><trkpt lat="42.39459315071152" lon="14.227453670684506"><ele>97.0</ele><time>2026-04-12T12:20:19Z</time></trkpt><trkpt lat="42.3946747769161" lon="14.227726637461728"><ele>95.33333333333334</ele><time>2026-04-12T12:20:20Z</time></trkpt><trkpt lat="42.39474920398043" lon="14.227967697857308"><ele>93.66666666666667</ele><time>2026-04-12T12:20:21Z</time></trkpt><trkpt lat="42.394800319391074" lon="14.228194895695355"><ele>92.0</ele><time>2026-04-12T12:20:22Z</time></trkpt><trkpt lat="42.394877808631435" lon="14.228414547799101"><ele>91.33333333333334</ele><time>2026-04-12T12:20:23Z</time></trkpt><trkpt lat="42.39496693729364" lon="14.228639414516921"><ele>90.66666666666667</ele><time>2026-04-12T12:20:24Z</time></trkpt><trkpt lat="42.39505677449182" lon="14.228865824655694"><ele>90.0</ele><time>2026-04-12T12:20:25Z</time></trkpt><trkpt lat="42.39514052139602" lon="14.229078605086183"><ele>91.33333333333333</ele><time>2026-04-12T12:20:26Z</time></trkpt><trkpt lat="42.39522783873674" lon="14.229303548502376"><ele>92.66666666666666</ele><time>2026-04-12T12:20:27Z</time></trkpt><trkpt lat="42.39530889021221" lon="14.229539613617721"><ele>94.0</ele><time>2026-04-12T12:20:28Z</time></trkpt><trkpt lat="42.39539078260666" lon="14.229784421334578"><ele>94.33333333333333</ele><time>2026-04-12T12:20:29Z</time></trkpt><trkpt lat="42.395472202746134" lon="14.230027288785882"><ele>94.66666666666667</ele><time>2026-04-12T12:20:30Z</time></trkpt><trkpt lat="42.39555692514706" lon="14.230280006512054"><ele>95.0</ele><time>2026-04-12T12:20:31Z</time></trkpt><trkpt lat="42.39563685615036" lon="14.230513560473195"><ele>90.33333333333334</ele><time>2026-04-12T12:20:32Z</time></trkpt><trkpt lat="42.395715122724496" lon="14.23073034773668"><ele>85.66666666666667</ele><time>2026-04-12T12:20:33Z</time></trkpt><trkpt lat="42.395794146178254" lon="14.230965117199698"><ele>81.0</ele><time>2026-04-12T12:20:34Z</time></trkpt><trkpt lat="42.39586672837351" lon="14.231198208891797"><ele>81.0</ele><time>2026-04-12T12:20:35Z</time></trkpt><trkpt lat="42.3959377158188" lon="14.231426179130889"><ele>81.0</ele><time>2026-04-12T12:20:36Z</time></trkpt><trkpt lat="42.396010456765325" lon="14.231655666640608"><ele>81.0</ele><time>2026-04-12T12:20:37Z</time></trkpt><trkpt lat="42.39608620239314" lon="14.231891079270188"><ele>81.33333333333333</ele><time>2026-04-12T12:20:38Z</time></trkpt><trkpt lat="42.3961548279966" lon="14.232108229386453"><ele>81.66666666666666</ele><time>2026-04-12T12:20:39Z</time></trkpt><trkpt lat="42.396197458256935" lon="14.232305078939484"><ele>82.0</ele><time>2026-04-12T12:20:40Z</time></trkpt><trkpt lat="42.396224224800974" lon="14.232481609675679"><ele>82.33333333333333</ele><time>2026-04-12T12:20:41Z</time></trkpt><trkpt lat="42.39622908180384" lon="14.23266309445072"><ele>82.66666666666667</ele><time>2026-04-12T12:20:42Z</time></trkpt><trkpt lat="42.39621927571795" lon="14.232876686330622"><ele>83.0</ele><time>2026-04-12T12:20:43Z</time></trkpt><trkpt lat="42.39619769853673" lon="14.23310634323032"><ele>82.0</ele><time>2026-04-12T12:20:44Z</time></trkpt><trkpt lat="42.39618211843721" lon="14.233352192957303"><ele>81.0</ele><time>2026-04-12T12:20:45Z</time></trkpt><trkpt lat="42.39617047972211" lon="14.233613368578299"><ele>80.0</ele><time>2026-04-12T12:20:46Z</time></trkpt><trkpt lat="42.396153599239796" lon="14.233854505652516"><ele>80.0</ele><time>2026-04-12T12:20:47Z</time></trkpt><trkpt lat="42.39613640896263" lon="14.234097092449222"><ele>80.0</ele><time>2026-04-12T12:20:48Z</time></trkpt><trkpt lat="42.396135126959926" lon="14.234307688864552"><ele>80.0</ele><time>2026-04-12T12:20:49Z</time></trkpt><trkpt lat="42.396148785488165" lon="14.23448550842889"><ele>80.0</ele><time>2026-04-12T12:20:50Z</time></trkpt><trkpt lat="42.39618241012438" lon="14.234623355107344"><ele>80.0</ele><time>2026-04-12T12:20:51Z</time></trkpt><trkpt lat="42.3962299755835" lon="14.234732943617555"><ele>80.0</ele><time>2026-04-12T12:20:52Z</time></trkpt><trkpt lat="42.39626350178135" lon="14.234846851034192"><ele>80.0</ele><time>2026-04-12T12:20:53Z</time></trkpt><trkpt lat="42.39629360296165" lon="14.234939956469423"><ele>80.0</ele><time>2026-04-12T12:20:54Z</time></trkpt><trkpt lat="42.396320331759675" lon="14.235055236745593"><ele>78.16666666666667</ele><time>2026-04-12T12:20:55Z</time></trkpt><trkpt lat="42.39634408985255" lon="14.235164470404449"><ele>76.33333333333334</ele><time>2026-04-12T12:20:56Z</time></trkpt><trkpt lat="42.396365011578034" lon="14.23526467837352"><ele>74.5</ele><time>2026-04-12T12:20:57Z</time></trkpt><trkpt lat="42.39638171352419" lon="14.235362136317056"><ele>72.66666666666667</ele><time>2026-04-12T12:20:58Z</time></trkpt><trkpt lat="42.39638938607925" lon="14.23547561002134"><ele>70.83333333333333</ele><time>2026-04-12T12:20:59Z</time></trkpt><trkpt lat="42.39637387825177" lon="14.235594695244108"><ele>69.0</ele><time>2026-04-12T12:21:00Z</time></trkpt><trkpt lat="42.39635234891055" lon="14.235726568051636"><ele>70.5</ele><time>2026-04-12T12:21:01Z</time></trkpt><trkpt lat="42.39631789566569" lon="14.235865955340415"><ele>72.0</ele><time>2026-04-12T12:21:02Z</time></trkpt><trkpt lat="42.396262417415926" lon="14.236027809322804"><ele>73.5</ele><time>2026-04-12T12:21:03Z</time></trkpt><trkpt lat="42.39619654793346" lon="14.236208377314709"><ele>75.0</ele><time>2026-04-12T12:21:04Z</time></trkpt><trkpt lat="42.3961649817022" lon="14.236411774160802"><ele>74.75</ele><time>2026-04-12T12:21:05Z</time></trkpt><trkpt lat="42.39613559065715" lon="14.23660243895089"><ele>74.5</ele><time>2026-04-12T12:21:06Z</time></trkpt><trkpt lat="42.396098851852265" lon="14.236787950951019"><ele>74.25</ele><time>2026-04-12T12:21:07Z</time></trkpt><trkpt lat="42.39610245143316" lon="14.236966634176998"><ele>74.0</ele><time>2026-04-12T12:21:08Z</time></trkpt><trkpt lat="42.39609582261307" lon="14.237142204060449"><ele>74.0</ele><time>2026-04-12T12:21:09Z</time></trkpt><trkpt lat="42.39610644870382" lon="14.23728024143078"><ele>74.0</ele><time>2026-04-12T12:21:10Z</time></trkpt><trkpt lat="42.396131593180364" lon="14.237416388353434"><ele>74.0</ele><time>2026-04-12T12:21:11Z</time></trkpt><trkpt lat="42.396182747392565" lon="14.237568755026789"><ele>74.0</ele><time>2026-04-12T12:21:12Z</time></trkpt><trkpt lat="42.39622490017904" lon="14.237743230442744"><ele>73.25</ele><time>2026-04-12T12:21:12.999Z</time></trkpt><trkpt lat="42.396253366044" lon="14.237905143047637"><ele>72.5</ele><time>2026-04-12T12:21:13.999Z</time></trkpt><trkpt lat="42.39628261716181" lon="14.238091271687571"><ele>71.75</ele><time>2026-04-12T12:21:14.999Z</time></trkpt><trkpt lat="42.39631875240462" lon="14.238280253474295"><ele>71.0</ele><time>2026-04-12T12:21:15.999Z</time></trkpt><trkpt lat="42.39635280492097" lon="14.238444579263275"><ele>69.75</ele><time>2026-04-12T12:21:16.999Z</time></trkpt><trkpt lat="42.396396972945965" lon="14.238592725209525"><ele>68.5</ele><time>2026-04-12T12:21:17.999Z</time></trkpt><trkpt lat="42.39643745356247" lon="14.238756338866507"><ele>67.25</ele><time>2026-04-12T12:21:18.999Z</time></trkpt><trkpt lat="42.39646177825012" lon="14.238916720424324"><ele>66.0</ele><time>2026-04-12T12:21:19.999Z</time></trkpt><trkpt lat="42.39646285993624" lon="14.239077784135064"><ele>65.5</ele><time>2026-04-12T12:21:20.999Z</time></trkpt><trkpt lat="42.39645294981211" lon="14.239250350780791"><ele>65.0</ele><time>2026-04-12T12:21:21.999Z</time></trkpt><trkpt lat="42.39642941900622" lon="14.239462044205839"><ele>64.5</ele><time>2026-04-12T12:21:22.999Z</time></trkpt><trkpt lat="42.39640388576627" lon="14.239665709073622"><ele>64.0</ele><time>2026-04-12T12:21:23.999Z</time></trkpt><trkpt lat="42.39634460864405" lon="14.239870034247524"><ele>62.33333333333333</ele><time>2026-04-12T12:21:24.999Z</time></trkpt><trkpt lat="42.39630566515487" lon="14.240074513913195"><ele>60.66666666666667</ele><time>2026-04-12T12:21:25.999Z</time></trkpt><trkpt lat="42.39627478278479" lon="14.240272407123012"><ele>59.0</ele><time>2026-04-12T12:21:26.999Z</time></trkpt><trkpt lat="42.39624476830272" lon="14.2404845272571"><ele>58.0</ele><time>2026-04-12T12:21:27.999Z</time></trkpt><trkpt lat="42.396211063153196" lon="14.240696983080454"><ele>57.0</ele><time>2026-04-12T12:21:28.999Z</time></trkpt><trkpt lat="42.396169952832444" lon="14.240901669480545"><ele>56.0</ele><time>2026-04-12T12:21:29.999Z</time></trkpt><trkpt lat="42.39612187945372" lon="14.241106997782227"><ele>56.0</ele><time>2026-04-12T12:21:30.999Z</time></trkpt><trkpt lat="42.39609169713872" lon="14.241293656055927"><ele>56.0</ele><time>2026-04-12T12:21:31.999Z</time></trkpt><trkpt lat="42.396043949365165" lon="14.241462752358158"><ele>56.0</ele><time>2026-04-12T12:21:32.999Z</time></trkpt><trkpt lat="42.39598132353444" lon="14.241636444535764"><ele>56.0</ele><time>2026-04-12T12:21:33.999Z</time></trkpt><trkpt lat="42.39592181186768" lon="14.241821462577269"><ele>55.25</ele><time>2026-04-12T12:21:34.999Z</time></trkpt><trkpt lat="42.39584712763978" lon="14.241986730910162"><ele>54.5</ele><time>2026-04-12T12:21:35.999Z</time></trkpt><trkpt lat="42.39577037906095" lon="14.242142290049907"><ele>53.75</ele><time>2026-04-12T12:21:36.999Z</time></trkpt><trkpt lat="42.39572498961641" lon="14.242281735099855"><ele>53.0</ele><time>2026-04-12T12:21:37.999Z</time></trkpt><trkpt lat="42.3956732777262" lon="14.242400393276746"><ele>52.25</ele><time>2026-04-12T12:21:38.999Z</time></trkpt><trkpt lat="42.39564527658117" lon="14.24254436056409"><ele>51.5</ele><time>2026-04-12T12:21:39.999Z</time></trkpt><trkpt lat="42.39563647642528" lon="14.242726376394543"><ele>50.75</ele><time>2026-04-12T12:21:40.999Z</time></trkpt><trkpt lat="42.395635549442765" lon="14.242932444932466"><ele>50.0</ele><time>2026-04-12T12:21:41.999Z</time></trkpt><trkpt lat="42.39563282869379" lon="14.243147926835658"><ele>50.0</ele><time>2026-04-12T12:21:42.999Z</time></trkpt><trkpt lat="42.39561721236447" lon="14.243356986280581"><ele>50.0</ele><time>2026-04-12T12:21:43.999Z</time></trkpt><trkpt lat="42.39561485545413" lon="14.24356510056196"><ele>50.0</ele><time>2026-04-12T12:21:44.999Z</time></trkpt><trkpt lat="42.39560977413541" lon="14.243776089426028"><ele>49.66666666666667</ele><time>2026-04-12T12:21:45.999Z</time></trkpt><trkpt lat="42.39560440537311" lon="14.243999013711445"><ele>49.33333333333333</ele><time>2026-04-12T12:21:46.999Z</time></trkpt><trkpt lat="42.395598953963564" lon="14.244225369634677"><ele>49.0</ele><time>2026-04-12T12:21:47.999Z</time></trkpt><trkpt lat="42.395595617633035" lon="14.244447282559664"><ele>49.0</ele><time>2026-04-12T12:21:48.999Z</time></trkpt><trkpt lat="42.39559281144921" lon="14.244656179835468"><ele>49.0</ele><time>2026-04-12T12:21:49.999Z</time></trkpt><trkpt lat="42.3956037691715" lon="14.244859726089"><ele>49.0</ele><time>2026-04-12T12:21:50.999Z</time></trkpt><trkpt lat="42.395592214794306" lon="14.245060093708132"><ele>48.75</ele><time>2026-04-12T12:21:51.999Z</time></trkpt><trkpt lat="42.395589089538475" lon="14.245236423140646"><ele>48.5</ele><time>2026-04-12T12:21:52.999Z</time></trkpt><trkpt lat="42.39559346296749" lon="14.245403930322732"><ele>48.25</ele><time>2026-04-12T12:21:53.999Z</time></trkpt><trkpt lat="42.395586351955345" lon="14.245589609562321"><ele>48.0</ele><time>2026-04-12T12:21:54.999Z</time></trkpt><trkpt lat="42.39558264022075" lon="14.245749921677547"><ele>47.75</ele><time>2026-04-12T12:21:55.999Z</time></trkpt><trkpt lat="42.39557615115155" lon="14.245893201676484"><ele>47.5</ele><time>2026-04-12T12:21:56.999Z</time></trkpt><trkpt lat="42.3955507077944" lon="14.24606047958737"><ele>47.25</ele><time>2026-04-12T12:21:57.999Z</time></trkpt><trkpt lat="42.3954864231778" lon="14.246235116120975"><ele>47.0</ele><time>2026-04-12T12:21:58.999Z</time></trkpt><trkpt lat="42.39542652429435" lon="14.246423216605029"><ele>47.0</ele><time>2026-04-12T12:21:59.999Z</time></trkpt><trkpt lat="42.39538586856102" lon="14.246610886335374"><ele>47.0</ele><time>2026-04-12T12:22:00.999Z</time></trkpt><trkpt lat="42.39534535799999" lon="14.24672942537522"><ele>47.0</ele><time>2026-04-12T12:22:01.999Z</time></trkpt><trkpt lat="42.39531722843265" lon="14.246868584091352"><ele>47.0</ele><time>2026-04-12T12:22:02.999Z</time></trkpt><trkpt lat="42.39528573641234" lon="14.247036560782618"><ele>47.0</ele><time>2026-04-12T12:22:03.999Z</time></trkpt><trkpt lat="42.39525281747305" lon="14.24723153962561"><ele>47.0</ele><time>2026-04-12T12:22:04.999Z</time></trkpt><trkpt lat="42.395225195353234" lon="14.247436371764456"><ele>47.0</ele><time>2026-04-12T12:22:05.999Z</time></trkpt><trkpt lat="42.39519322694239" lon="14.247630913623574"><ele>47.0</ele><time>2026-04-12T12:22:06.999Z</time></trkpt><trkpt lat="42.39516705370285" lon="14.247811458044348"><ele>46.25</ele><time>2026-04-12T12:22:07.999Z</time></trkpt><trkpt lat="42.39515957328921" lon="14.247975945007733"><ele>45.5</ele><time>2026-04-12T12:22:08.999Z</time></trkpt><trkpt lat="42.3951697909011" lon="14.2481505614017"><ele>44.75</ele><time>2026-04-12T12:22:09.999Z</time></trkpt><trkpt lat="42.39519839135441" lon="14.248340299954272"><ele>44.0</ele><time>2026-04-12T12:22:10.999Z</time></trkpt><trkpt lat="42.395207676409406" lon="14.248531572266536"><ele>43.0</ele><time>2026-04-12T12:22:11.999Z</time></trkpt><trkpt lat="42.395193068675795" lon="14.248712252080798"><ele>42.0</ele><time>2026-04-12T12:22:12.999Z</time></trkpt><trkpt lat="42.39516363474234" lon="14.248917434817422"><ele>41.0</ele><time>2026-04-12T12:22:13.999Z</time></trkpt><trkpt lat="42.39514378755799" lon="14.24914440107984"><ele>41.0</ele><time>2026-04-12T12:22:15Z</time></trkpt><trkpt lat="42.39509254568549" lon="14.249335747109228"><ele>41.0</ele><time>2026-04-12T12:22:16Z</time></trkpt><trkpt lat="42.3950488287232" lon="14.249511128311742"><ele>41.0</ele><time>2026-04-12T12:22:17Z</time></trkpt><trkpt lat="42.39498941401504" lon="14.249704773113244"><ele>41.0</ele><time>2026-04-12T12:22:18Z</time></trkpt><trkpt lat="42.3949246592724" lon="14.249912374328506"><ele>40.0</ele><time>2026-04-12T12:22:19Z</time></trkpt><trkpt lat="42.39485975964477" lon="14.25011490841124"><ele>39.0</ele><time>2026-04-12T12:22:20Z</time></trkpt><trkpt lat="42.394792019454094" lon="14.250320819620166"><ele>38.0</ele><time>2026-04-12T12:22:21Z</time></trkpt><trkpt lat="42.39472681456225" lon="14.250519024190927"><ele>39.5</ele><time>2026-04-12T12:22:22Z</time></trkpt><trkpt lat="42.394666374880174" lon="14.250701811971355"><ele>41.0</ele><time>2026-04-12T12:22:23Z</time></trkpt><trkpt lat="42.39461241696984" lon="14.250858494349005"><ele>42.5</ele><time>2026-04-12T12:22:24Z</time></trkpt><trkpt lat="42.394556133923416" lon="14.251013969322734"><ele>44.0</ele><time>2026-04-12T12:22:25Z</time></trkpt><trkpt lat="42.39449823803252" lon="14.25118168680135"><ele>44.0</ele><time>2026-04-12T12:22:26Z</time></trkpt><trkpt lat="42.39444097599462" lon="14.251362859511442"><ele>44.0</ele><time>2026-04-12T12:22:27Z</time></trkpt><trkpt lat="42.394385864344194" lon="14.251544527955492"><ele>44.0</ele><time>2026-04-12T12:22:28Z</time></trkpt><trkpt lat="42.39433348481094" lon="14.251722039521846"><ele>44.0</ele><time>2026-04-12T12:22:29Z</time></trkpt><trkpt lat="42.39428640340312" lon="14.25188947992989"><ele>43.0</ele><time>2026-04-12T12:22:30Z</time></trkpt><trkpt lat="42.39424973372251" lon="14.25201989189346"><ele>42.0</ele><time>2026-04-12T12:22:31Z</time></trkpt><trkpt lat="42.39422241408656" lon="14.252115118444483"><ele>41.0</ele><time>2026-04-12T12:22:32Z</time></trkpt><trkpt lat="42.39416383635762" lon="14.252278148403608"><ele>40.0</ele><time>2026-04-12T12:22:34Z</time></trkpt><trkpt lat="42.394195545575066" lon="14.252442154749556"><ele>39.0</ele><time>2026-04-12T12:22:35Z</time></trkpt><trkpt lat="42.394192690813504" lon="14.252579224342245"><ele>38.25</ele><time>2026-04-12T12:22:36Z</time></trkpt><trkpt lat="42.39419649323188" lon="14.252711686630388"><ele>37.5</ele><time>2026-04-12T12:22:37Z</time></trkpt><trkpt lat="42.39417654017413" lon="14.252805878964086"><ele>36.75</ele><time>2026-04-12T12:22:38Z</time></trkpt><trkpt lat="42.39429002138941" lon="14.253019684033845"><ele>36.0</ele><time>2026-04-12T12:22:45Z</time></trkpt><trkpt lat="42.39438547922594" lon="14.253078414092144"><ele>35.0</ele><time>2026-04-12T12:22:46Z</time></trkpt><trkpt lat="42.39449840360911" lon="14.253152760407712"><ele>34.0</ele><time>2026-04-12T12:22:47Z</time></trkpt><trkpt lat="42.39461792709683" lon="14.253233548654185"><ele>33.0</ele><time>2026-04-12T12:22:48Z</time></trkpt><trkpt lat="42.39475065548584" lon="14.253318815917929"><ele>32.0</ele><time>2026-04-12T12:22:49Z</time></trkpt><trkpt lat="42.39489984243251" lon="14.253408135923667"><ele>32.0</ele><time>2026-04-12T12:22:50Z</time></trkpt><trkpt lat="42.39505009956706" lon="14.25350220797519"><ele>32.0</ele><time>2026-04-12T12:22:51Z</time></trkpt><trkpt lat="42.395203156215395" lon="14.253599405712926"><ele>32.0</ele><time>2026-04-12T12:22:52Z</time></trkpt><trkpt lat="42.395375229319704" lon="14.253702595524299"><ele>32.0</ele><time>2026-04-12T12:22:53Z</time></trkpt><trkpt lat="42.39555188088756" lon="14.253811763950262"><ele>32.0</ele><time>2026-04-12T12:22:54Z</time></trkpt><trkpt lat="42.39572751125347" lon="14.253918654945734"><ele>32.0</ele><time>2026-04-12T12:22:55Z</time></trkpt><trkpt lat="42.3959041839615" lon="14.254023349010344"><ele>32.0</ele><time>2026-04-12T12:22:56Z</time></trkpt><trkpt lat="42.39607985705243" lon="14.254132109274089"><ele>32.0</ele><time>2026-04-12T12:22:57Z</time></trkpt><trkpt lat="42.396256359682255" lon="14.254243389989792"><ele>32.0</ele><time>2026-04-12T12:22:58Z</time></trkpt><trkpt lat="42.39642545817816" lon="14.254344256896067"><ele>32.666666666666664</ele><time>2026-04-12T12:22:59Z</time></trkpt><trkpt lat="42.3965779601232" lon="14.254433853220082"><ele>33.333333333333336</ele><time>2026-04-12T12:23:00Z</time></trkpt><trkpt lat="42.39671701003122" lon="14.254516659749223"><ele>34.0</ele><time>2026-04-12T12:23:01Z</time></trkpt><trkpt lat="42.39685115720464" lon="14.254598160913886"><ele>34.0</ele><time>2026-04-12T12:23:02Z</time></trkpt><trkpt lat="42.39698429715161" lon="14.254675396210375"><ele>34.0</ele><time>2026-04-12T12:23:03Z</time></trkpt><trkpt lat="42.397111375394964" lon="14.254752100573725"><ele>34.0</ele><time>2026-04-12T12:23:04Z</time></trkpt><trkpt lat="42.397240004768065" lon="14.25483176086717"><ele>34.0</ele><time>2026-04-12T12:23:05Z</time></trkpt><trkpt lat="42.39736830186949" lon="14.254912642824346"><ele>33.75</ele><time>2026-04-12T12:23:06Z</time></trkpt><trkpt lat="42.39750228316652" lon="14.25499210008079"><ele>33.5</ele><time>2026-04-12T12:23:07Z</time></trkpt><trkpt lat="42.397634933371855" lon="14.25507446226723"><ele>33.25</ele><time>2026-04-12T12:23:08Z</time></trkpt><trkpt lat="42.39776332345234" lon="14.25515377940123"><ele>33.0</ele><time>2026-04-12T12:23:09Z</time></trkpt><trkpt lat="42.397886232772265" lon="14.255230493279228"><ele>33.75</ele><time>2026-04-12T12:23:10Z</time></trkpt><trkpt lat="42.398006397378396" lon="14.255305017263284"><ele>34.5</ele><time>2026-04-12T12:23:11Z</time></trkpt><trkpt lat="42.39812196342397" lon="14.25537727098544"><ele>35.25</ele><time>2026-04-12T12:23:12Z</time></trkpt><trkpt lat="42.398236272786406" lon="14.255447324443459"><ele>36.0</ele><time>2026-04-12T12:23:13Z</time></trkpt><trkpt lat="42.398351257089764" lon="14.25551671208033"><ele>36.0</ele><time>2026-04-12T12:23:14Z</time></trkpt><trkpt lat="42.398466372569104" lon="14.25558796989282"><ele>36.0</ele><time>2026-04-12T12:23:15Z</time></trkpt><trkpt lat="42.39858206645758" lon="14.255658485710692"><ele>36.0</ele><time>2026-04-12T12:23:16Z</time></trkpt><trkpt lat="42.39869970176858" lon="14.255728741405994"><ele>36.0</ele><time>2026-04-12T12:23:16.999Z</time></trkpt><trkpt lat="42.398816345750426" lon="14.255800183940377"><ele>35.0</ele><time>2026-04-12T12:23:17.999Z</time></trkpt><trkpt lat="42.398932736615585" lon="14.255872315904737"><ele>34.0</ele><time>2026-04-12T12:23:18.999Z</time></trkpt><trkpt lat="42.39905019677783" lon="14.255941690758455"><ele>33.0</ele><time>2026-04-12T12:23:19.999Z</time></trkpt><trkpt lat="42.399168053527475" lon="14.256011817750961"><ele>32.0</ele><time>2026-04-12T12:23:20.999Z</time></trkpt><trkpt lat="42.39928370530056" lon="14.256085751893663"><ele>32.0</ele><time>2026-04-12T12:23:21.999Z</time></trkpt><trkpt lat="42.39940035530602" lon="14.25615687748928"><ele>32.0</ele><time>2026-04-12T12:23:22.999Z</time></trkpt><trkpt lat="42.39952089772132" lon="14.256229691124798"><ele>32.0</ele><time>2026-04-12T12:23:23.999Z</time></trkpt><trkpt lat="42.39964367202395" lon="14.25630695847762"><ele>32.0</ele><time>2026-04-12T12:23:24.999Z</time></trkpt><trkpt lat="42.399766666381446" lon="14.256383516703995"><ele>31.25</ele><time>2026-04-12T12:23:25.999Z</time></trkpt><trkpt lat="42.39988640409021" lon="14.2564612541101"><ele>30.5</ele><time>2026-04-12T12:23:26.999Z</time></trkpt><trkpt lat="42.400004627158175" lon="14.256534938159414"><ele>29.75</ele><time>2026-04-12T12:23:27.999Z</time></trkpt><trkpt lat="42.400121538219814" lon="14.256609769465799"><ele>29.0</ele><time>2026-04-12T12:23:28.999Z</time></trkpt><trkpt lat="42.40023957791573" lon="14.256684587893682"><ele>29.0</ele><time>2026-04-12T12:23:29.999Z</time></trkpt><trkpt lat="42.40036614801302" lon="14.256760230267693"><ele>29.0</ele><time>2026-04-12T12:23:30.999Z</time></trkpt><trkpt lat="42.40049605503109" lon="14.256842949930748"><ele>29.0</ele><time>2026-04-12T12:23:31.999Z</time></trkpt><trkpt lat="42.4006322952663" lon="14.256927296051375"><ele>29.0</ele><time>2026-04-12T12:23:32.999Z</time></trkpt><trkpt lat="42.40077287729092" lon="14.25701050987286"><ele>29.25</ele><time>2026-04-12T12:23:33.999Z</time></trkpt><trkpt lat="42.40090464019229" lon="14.257089153161155"><ele>29.5</ele><time>2026-04-12T12:23:34.999Z</time></trkpt><trkpt lat="42.40102889814935" lon="14.2571632279906"><ele>29.75</ele><time>2026-04-12T12:23:35.999Z</time></trkpt><trkpt lat="42.40115355194757" lon="14.257239465069112"><ele>30.0</ele><time>2026-04-12T12:23:36.999Z</time></trkpt><trkpt lat="42.401277957701986" lon="14.257320213016477"><ele>29.75</ele><time>2026-04-12T12:23:37.999Z</time></trkpt><trkpt lat="42.40140491781368" lon="14.257401903493799"><ele>29.5</ele><time>2026-04-12T12:23:38.999Z</time></trkpt><trkpt lat="42.40153037663019" lon="14.257478265855584"><ele>29.25</ele><time>2026-04-12T12:23:39.999Z</time></trkpt><trkpt lat="42.40165366820176" lon="14.257552700986395"><ele>29.0</ele><time>2026-04-12T12:23:40.999Z</time></trkpt><trkpt lat="42.40177648466541" lon="14.257627656872293"><ele>29.0</ele><time>2026-04-12T12:23:41.999Z</time></trkpt><trkpt lat="42.401904849467165" lon="14.257699800807153"><ele>29.0</ele><time>2026-04-12T12:23:42.999Z</time></trkpt><trkpt lat="42.402037385454875" lon="14.257768012771123"><ele>29.0</ele><time>2026-04-12T12:23:43.999Z</time></trkpt><trkpt lat="42.402174149849515" lon="14.25782930908766"><ele>29.0</ele><time>2026-04-12T12:23:44.999Z</time></trkpt><trkpt lat="42.40231242409166" lon="14.25788379345445"><ele>29.25</ele><time>2026-04-12T12:23:45.999Z</time></trkpt><trkpt lat="42.40244911599019" lon="14.25792676023925"><ele>29.5</ele><time>2026-04-12T12:23:46.999Z</time></trkpt><trkpt lat="42.40258155369599" lon="14.257962758175687"><ele>29.75</ele><time>2026-04-12T12:23:47.999Z</time></trkpt><trkpt lat="42.402713175268595" lon="14.257989494023022"><ele>30.0</ele><time>2026-04-12T12:23:48.999Z</time></trkpt><trkpt lat="42.4028430482242" lon="14.258016146475796"><ele>30.0</ele><time>2026-04-12T12:23:49.999Z</time></trkpt><trkpt lat="42.40297529235068" lon="14.258037640697115"><ele>30.0</ele><time>2026-04-12T12:23:50.999Z</time></trkpt><trkpt lat="42.40311229831585" lon="14.258052004897895"><ele>30.0</ele><time>2026-04-12T12:23:51.999Z</time></trkpt><trkpt lat="42.40325083900534" lon="14.258065716938097"><ele>30.0</ele><time>2026-04-12T12:23:52.999Z</time></trkpt><trkpt lat="42.40338805906526" lon="14.258077492178433"><ele>29.75</ele><time>2026-04-12T12:23:53.999Z</time></trkpt><trkpt lat="42.40352909841226" lon="14.258090734791434"><ele>29.5</ele><time>2026-04-12T12:23:54.999Z</time></trkpt><trkpt lat="42.40366467563597" lon="14.258102552602548"><ele>29.25</ele><time>2026-04-12T12:23:55.999Z</time></trkpt><trkpt lat="42.40379495811208" lon="14.258115951859459"><ele>29.0</ele><time>2026-04-12T12:23:56.999Z</time></trkpt><trkpt lat="42.40392129267385" lon="14.258130080617764"><ele>29.0</ele><time>2026-04-12T12:23:57.999Z</time></trkpt><trkpt lat="42.404048677678695" lon="14.258146384154402"><ele>29.0</ele><time>2026-04-12T12:23:58.999Z</time></trkpt><trkpt lat="42.40417683927379" lon="14.258162234534034"><ele>29.0</ele><time>2026-04-12T12:23:59.999Z</time></trkpt><trkpt lat="42.404305863179616" lon="14.258175878683929"><ele>29.0</ele><time>2026-04-12T12:24:00.999Z</time></trkpt><trkpt lat="42.404435701470256" lon="14.25818938887011"><ele>29.0</ele><time>2026-04-12T12:24:01.999Z</time></trkpt><trkpt lat="42.404566860214686" lon="14.258203297865546"><ele>29.0</ele><time>2026-04-12T12:24:02.999Z</time></trkpt><trkpt lat="42.40469877460033" lon="14.258216674601579"><ele>29.0</ele><time>2026-04-12T12:24:03.999Z</time></trkpt><trkpt lat="42.404832157375814" lon="14.258232466754622"><ele>29.0</ele><time>2026-04-12T12:24:04.999Z</time></trkpt><trkpt lat="42.40496610434271" lon="14.258249369920442"><ele>28.0</ele><time>2026-04-12T12:24:05.999Z</time></trkpt><trkpt lat="42.40509819969177" lon="14.25826576461543"><ele>27.0</ele><time>2026-04-12T12:24:06.999Z</time></trkpt><trkpt lat="42.40522893837524" lon="14.258282815546584"><ele>26.0</ele><time>2026-04-12T12:24:07.999Z</time></trkpt><trkpt lat="42.40535925357409" lon="14.25829862555384"><ele>25.0</ele><time>2026-04-12T12:24:08.999Z</time></trkpt><trkpt lat="42.40548822571914" lon="14.258315296189487"><ele>25.25</ele><time>2026-04-12T12:24:09.999Z</time></trkpt><trkpt lat="42.40561701738991" lon="14.258332827192708"><ele>25.5</ele><time>2026-04-12T12:24:10.999Z</time></trkpt><trkpt lat="42.40574454090815" lon="14.2583490727739"><ele>25.75</ele><time>2026-04-12T12:24:11.999Z</time></trkpt><trkpt lat="42.405871344728126" lon="14.25836414534625"><ele>26.0</ele><time>2026-04-12T12:24:12.999Z</time></trkpt><trkpt lat="42.40599757198664" lon="14.258380622444902"><ele>26.0</ele><time>2026-04-12T12:24:13.999Z</time></trkpt><trkpt lat="42.40612452554103" lon="14.258396903947308"><ele>26.0</ele><time>2026-04-12T12:24:14.999Z</time></trkpt><trkpt lat="42.406250009381" lon="14.258411598911906"><ele>26.0</ele><time>2026-04-12T12:24:15.999Z</time></trkpt><trkpt lat="42.40637351682755" lon="14.25842442460628"><ele>26.0</ele><time>2026-04-12T12:24:16.999Z</time></trkpt><trkpt lat="42.406498779187025" lon="14.258444877448536"><ele>27.0</ele><time>2026-04-12T12:24:17.998Z</time></trkpt><trkpt lat="42.40662657236647" lon="14.25846701959432"><ele>28.0</ele><time>2026-04-12T12:24:18.998Z</time></trkpt><trkpt lat="42.40675268465822" lon="14.258487276886253"><ele>29.0</ele><time>2026-04-12T12:24:19.998Z</time></trkpt><trkpt lat="42.40688197766562" lon="14.258512260131706"><ele>30.0</ele><time>2026-04-12T12:24:21Z</time></trkpt><trkpt lat="42.40701101616619" lon="14.258537128337053"><ele>30.0</ele><time>2026-04-12T12:24:22Z</time></trkpt><trkpt lat="42.40713968432341" lon="14.258559071331446"><ele>30.0</ele><time>2026-04-12T12:24:23Z</time></trkpt><trkpt lat="42.40726505724326" lon="14.258581229844893"><ele>30.0</ele><time>2026-04-12T12:24:24Z</time></trkpt><trkpt lat="42.40738717371955" lon="14.25860504894065"><ele>30.0</ele><time>2026-04-12T12:24:25Z</time></trkpt><trkpt lat="42.407506869094476" lon="14.258632890352262"><ele>30.4</ele><time>2026-04-12T12:24:26Z</time></trkpt><trkpt lat="42.407621107819985" lon="14.258656472060363"><ele>30.8</ele><time>2026-04-12T12:24:27Z</time></trkpt><trkpt lat="42.407733215961066" lon="14.258678234888697"><ele>31.200000000000003</ele><time>2026-04-12T12:24:28Z</time></trkpt><trkpt lat="42.40784351044834" lon="14.258699587774938"><ele>31.6</ele><time>2026-04-12T12:24:29Z</time></trkpt><trkpt lat="42.407948180864" lon="14.258719725140391"><ele>32.0</ele><time>2026-04-12T12:24:30Z</time></trkpt><trkpt lat="42.40803523890598" lon="14.258740189021424"><ele>32.0</ele><time>2026-04-12T12:24:31Z</time></trkpt><trkpt lat="42.408106070516105" lon="14.258764726688163"><ele>31.999999999999996</ele><time>2026-04-12T12:24:32Z</time></trkpt><trkpt lat="42.408178379152936" lon="14.25880108335056"><ele>32.0</ele><time>2026-04-12T12:24:33Z</time></trkpt><trkpt lat="42.40825279796994" lon="14.258852994948349"><ele>32.0</ele><time>2026-04-12T12:24:34Z</time></trkpt><trkpt lat="42.40832717971003" lon="14.258878367407474"><ele>31.999999999999996</ele><time>2026-04-12T12:24:35Z</time></trkpt><trkpt lat="42.40839827677072" lon="14.25887021689419"><ele>32.0</ele><time>2026-04-12T12:24:36Z</time></trkpt><trkpt lat="42.40845782664038" lon="14.258834933417667"><ele>32.0</ele><time>2026-04-12T12:24:37Z</time></trkpt><trkpt lat="42.408493824591396" lon="14.258759798453998"><ele>32.0</ele><time>2026-04-12T12:24:38Z</time></trkpt><trkpt lat="42.40849347022473" lon="14.258653065447715"><ele>32.0</ele><time>2026-04-12T12:24:39Z</time></trkpt><trkpt lat="42.40845319060721" lon="14.258540222971629"><ele>32.0</ele><time>2026-04-12T12:24:40Z</time></trkpt><trkpt lat="42.40840345550313" lon="14.258423191186106"><ele>32.0</ele><time>2026-04-12T12:24:41Z</time></trkpt><trkpt lat="42.408373342959905" lon="14.258268110051072"><ele>32.0</ele><time>2026-04-12T12:24:42Z</time></trkpt><trkpt lat="42.40837466507362" lon="14.25808694000292"><ele>33.25</ele><time>2026-04-12T12:24:43Z</time></trkpt><trkpt lat="42.40836837312457" lon="14.257890202026282"><ele>34.5</ele><time>2026-04-12T12:24:44Z</time></trkpt><trkpt lat="42.40833418299758" lon="14.257697978305975"><ele>35.75</ele><time>2026-04-12T12:24:45Z</time></trkpt><trkpt lat="42.40826538730236" lon="14.257505769303544"><ele>37.0</ele><time>2026-04-12T12:24:46Z</time></trkpt><trkpt lat="42.4081679105124" lon="14.257331843382994"><ele>38.66666666666667</ele><time>2026-04-12T12:24:47Z</time></trkpt><trkpt lat="42.40804485911157" lon="14.25718432952613"><ele>40.333333333333336</ele><time>2026-04-12T12:24:48Z</time></trkpt><trkpt lat="42.407898830716675" lon="14.257073179176142"><ele>42.0</ele><time>2026-04-12T12:24:49Z</time></trkpt><trkpt lat="42.407746415568404" lon="14.256989276563992"><ele>42.333333333333336</ele><time>2026-04-12T12:24:50Z</time></trkpt><trkpt lat="42.407599568402865" lon="14.256877419691996"><ele>42.66666666666667</ele><time>2026-04-12T12:24:51Z</time></trkpt><trkpt lat="42.40744848672805" lon="14.256784073134893"><ele>43.0</ele><time>2026-04-12T12:24:52Z</time></trkpt><trkpt lat="42.40729858552275" lon="14.256691455935282"><ele>44.66666666666667</ele><time>2026-04-12T12:24:53Z</time></trkpt><trkpt lat="42.40714861073041" lon="14.256606620275111"><ele>46.333333333333336</ele><time>2026-04-12T12:24:54Z</time></trkpt><trkpt lat="42.40699535006504" lon="14.256525361573908"><ele>48.0</ele><time>2026-04-12T12:24:55Z</time></trkpt><trkpt lat="42.40686763369262" lon="14.256396442000263"><ele>48.0</ele><time>2026-04-12T12:24:56Z</time></trkpt><trkpt lat="42.40678239835713" lon="14.256250606366478"><ele>48.0</ele><time>2026-04-12T12:24:57Z</time></trkpt><trkpt lat="42.40673075062282" lon="14.256082233500814"><ele>48.0</ele><time>2026-04-12T12:24:58Z</time></trkpt><trkpt lat="42.4067300087141" lon="14.255920760104779"><ele>48.0</ele><time>2026-04-12T12:24:59Z</time></trkpt><trkpt lat="42.40675977253487" lon="14.255752667941822"><ele>50.5</ele><time>2026-04-12T12:25:00Z</time></trkpt><trkpt lat="42.406827668656945" lon="14.255602846250175"><ele>53.0</ele><time>2026-04-12T12:25:01Z</time></trkpt><trkpt lat="42.40693508240069" lon="14.255484057477688"><ele>55.5</ele><time>2026-04-12T12:25:02Z</time></trkpt><trkpt lat="42.40706835417512" lon="14.255398446551988"><ele>58.0</ele><time>2026-04-12T12:25:03Z</time></trkpt><trkpt lat="42.40721414525044" lon="14.255335959365986"><ele>58.0</ele><time>2026-04-12T12:25:04Z</time></trkpt><trkpt lat="42.407370063751905" lon="14.255292149951797"><ele>58.0</ele><time>2026-04-12T12:25:05Z</time></trkpt><trkpt lat="42.407518308841674" lon="14.255240083712192"><ele>58.0</ele><time>2026-04-12T12:25:06Z</time></trkpt><trkpt lat="42.4076301342154" lon="14.25517316103382"><ele>58.0</ele><time>2026-04-12T12:25:07Z</time></trkpt><trkpt lat="42.40770434589904" lon="14.255085525775062"><ele>58.0</ele><time>2026-04-12T12:25:08Z</time></trkpt><trkpt lat="42.40773833792405" lon="14.254958923697037"><ele>58.0</ele><time>2026-04-12T12:25:09Z</time></trkpt><trkpt lat="42.40773238289432" lon="14.25480881038817"><ele>58.0</ele><time>2026-04-12T12:25:10Z</time></trkpt><trkpt lat="42.40770390327676" lon="14.254639637381235"><ele>58.0</ele><time>2026-04-12T12:25:11Z</time></trkpt><trkpt lat="42.4076703623153" lon="14.25444952970929"><ele>60.25</ele><time>2026-04-12T12:25:12Z</time></trkpt><trkpt lat="42.40764554663419" lon="14.254250701746157"><ele>62.5</ele><time>2026-04-12T12:25:13Z</time></trkpt><trkpt lat="42.407624309596706" lon="14.254050289407841"><ele>64.75</ele><time>2026-04-12T12:25:14Z</time></trkpt><trkpt lat="42.407601655864426" lon="14.253872300602904"><ele>67.0</ele><time>2026-04-12T12:25:15Z</time></trkpt><trkpt lat="42.4075821043367" lon="14.253728891818877"><ele>67.8</ele><time>2026-04-12T12:25:16Z</time></trkpt><trkpt lat="42.407562234706546" lon="14.253628962899178"><ele>68.6</ele><time>2026-04-12T12:25:17Z</time></trkpt><trkpt lat="42.40743740429099" lon="14.253573656753652"><ele>69.39999999999999</ele><time>2026-04-12T12:25:19.999Z</time></trkpt><trkpt lat="42.40740792883457" lon="14.253726273405398"><ele>70.2</ele><time>2026-04-12T12:25:20.999Z</time></trkpt><trkpt lat="42.40736827829137" lon="14.253840201901397"><ele>71.0</ele><time>2026-04-12T12:25:21.999Z</time></trkpt><trkpt lat="42.40732542092366" lon="14.253953566163178"><ele>70.8</ele><time>2026-04-12T12:25:22.999Z</time></trkpt><trkpt lat="42.407298228166944" lon="14.254073759062958"><ele>70.6</ele><time>2026-04-12T12:25:23.999Z</time></trkpt><trkpt lat="42.407242390811476" lon="14.254160941857421"><ele>70.4</ele><time>2026-04-12T12:25:24.999Z</time></trkpt><trkpt lat="42.407142008881074" lon="14.254208533147835"><ele>70.2</ele><time>2026-04-12T12:25:26.999Z</time></trkpt><trkpt lat="42.40706952163246" lon="14.254156376757114"><ele>70.0</ele><time>2026-04-12T12:25:28.999Z</time></trkpt><trkpt lat="42.40709743097636" lon="14.253849808947484"><ele>70.0</ele><time>2026-04-12T12:25:34.999Z</time></trkpt><trkpt lat="42.407105109224396" lon="14.253764904283626"><ele>70.0</ele><time>2026-04-12T12:25:35.999Z</time></trkpt><trkpt lat="42.407120507729125" lon="14.253646229436546"><ele>70.0</ele><time>2026-04-12T12:25:37.999Z</time></trkpt><trkpt lat="42.40707298486176" lon="14.253723509208365"><ele>70.0</ele><time>2026-04-12T12:25:41.999Z</time></trkpt><trkpt lat="42.40708533611896" lon="14.253807144336779"><ele>70.0</ele><time>2026-04-12T12:25:42.999Z</time></trkpt><trkpt lat="42.40706742897249" lon="14.253957902631724"><ele>70.0</ele><time>2026-04-12T12:25:44.999Z</time></trkpt><trkpt lat="42.40722000525015" lon="14.254207093323561"><ele>70.16666666666666</ele><time>2026-04-12T12:26:22.998Z</time></trkpt><trkpt lat="42.40728525068468" lon="14.254176103600487"><ele>70.33333333333333</ele><time>2026-04-12T12:26:23.998Z</time></trkpt><trkpt lat="42.40733192725939" lon="14.254103025497939"><ele>70.5</ele><time>2026-04-12T12:26:24.998Z</time></trkpt><trkpt lat="42.40736624589117" lon="14.254003884425156"><ele>70.66666666666667</ele><time>2026-04-12T12:26:26Z</time></trkpt><trkpt lat="42.407403460039795" lon="14.253869363620025"><ele>70.83333333333334</ele><time>2026-04-12T12:26:27Z</time></trkpt><trkpt lat="42.40744166511772" lon="14.253734649249049"><ele>71.0</ele><time>2026-04-12T12:26:28Z</time></trkpt><trkpt lat="42.4074770618043" lon="14.25362847447677"><ele>71.0</ele><time>2026-04-12T12:26:29Z</time></trkpt><trkpt lat="42.40753175782541" lon="14.25355713662128"><ele>71.0</ele><time>2026-04-12T12:26:31Z</time></trkpt><trkpt lat="42.407586971775515" lon="14.253647933661844"><ele>71.0</ele><time>2026-04-12T12:26:33Z</time></trkpt><trkpt lat="42.40759288931015" lon="14.25375895526499"><ele>71.0</ele><time>2026-04-12T12:26:34Z</time></trkpt><trkpt lat="42.407597633159604" lon="14.253900115576084"><ele>71.0</ele><time>2026-04-12T12:26:35Z</time></trkpt><trkpt lat="42.40761449465158" lon="14.254042296470802"><ele>70.0</ele><time>2026-04-12T12:26:36Z</time></trkpt><trkpt lat="42.40763654789668" lon="14.254197517458236"><ele>69.0</ele><time>2026-04-12T12:26:37Z</time></trkpt><trkpt lat="42.40765796691897" lon="14.254372295516086"><ele>68.0</ele><time>2026-04-12T12:26:38Z</time></trkpt><trkpt lat="42.40767809559367" lon="14.25453240769505"><ele>67.0</ele><time>2026-04-12T12:26:39Z</time></trkpt><trkpt lat="42.40770870475796" lon="14.254683041342041"><ele>65.2</ele><time>2026-04-12T12:26:40Z</time></trkpt><trkpt lat="42.40773000633669" lon="14.254823325813012"><ele>63.400000000000006</ele><time>2026-04-12T12:26:41Z</time></trkpt><trkpt lat="42.40772608950966" lon="14.25495355436477"><ele>61.599999999999994</ele><time>2026-04-12T12:26:42Z</time></trkpt><trkpt lat="42.40768225702732" lon="14.255096566275643"><ele>59.8</ele><time>2026-04-12T12:26:43Z</time></trkpt><trkpt lat="42.40759865249165" lon="14.25519145281363"><ele>58.0</ele><time>2026-04-12T12:26:44Z</time></trkpt><trkpt lat="42.40762696303693" lon="14.255309878912529"><ele>58.0</ele><time>2026-04-12T12:26:45Z</time></trkpt><trkpt lat="42.407470916268565" lon="14.255330400385443"><ele>58.0</ele><time>2026-04-12T12:26:46Z</time></trkpt><trkpt lat="42.40731341326382" lon="14.25534797685839"><ele>58.0</ele><time>2026-04-12T12:26:47Z</time></trkpt><trkpt lat="42.40714932315647" lon="14.255378148998384"><ele>58.5</ele><time>2026-04-12T12:26:48Z</time></trkpt><trkpt lat="42.407000687537916" lon="14.25542667481296"><ele>59.0</ele><time>2026-04-12T12:26:49Z</time></trkpt><trkpt lat="42.40688857248421" lon="14.255503798327872"><ele>59.5</ele><time>2026-04-12T12:26:50Z</time></trkpt><trkpt lat="42.40679938120832" lon="14.255614444769204"><ele>60.0</ele><time>2026-04-12T12:26:51Z</time></trkpt><trkpt lat="42.40673172903394" lon="14.25574673366609"><ele>57.0</ele><time>2026-04-12T12:26:52Z</time></trkpt><trkpt lat="42.40669695876448" lon="14.255920516803977"><ele>54.0</ele><time>2026-04-12T12:26:53Z</time></trkpt><trkpt lat="42.406656871593086" lon="14.25609648874866"><ele>51.0</ele><time>2026-04-12T12:26:54Z</time></trkpt><trkpt lat="42.40675695939348" lon="14.256293040341147"><ele>48.0</ele><time>2026-04-12T12:26:55Z</time></trkpt><trkpt lat="42.40685152517164" lon="14.256455084083182"><ele>46.333333333333336</ele><time>2026-04-12T12:26:56Z</time></trkpt><trkpt lat="42.40697751401618" lon="14.256582146204051"><ele>44.66666666666667</ele><time>2026-04-12T12:26:57Z</time></trkpt><trkpt lat="42.40709027788977" lon="14.256705071776452"><ele>43.0</ele><time>2026-04-12T12:26:58Z</time></trkpt><trkpt lat="42.40726754962641" lon="14.2567464284347"><ele>43.0</ele><time>2026-04-12T12:26:59Z</time></trkpt><trkpt lat="42.4074256423711" lon="14.256864760957242"><ele>43.0</ele><time>2026-04-12T12:27:00Z</time></trkpt><trkpt lat="42.4075802642558" lon="14.256963964386152"><ele>43.0</ele><time>2026-04-12T12:27:01Z</time></trkpt><trkpt lat="42.40773775100466" lon="14.257046625809593"><ele>43.0</ele><time>2026-04-12T12:27:02Z</time></trkpt><trkpt lat="42.40788437823354" lon="14.257130779459512"><ele>43.0</ele><time>2026-04-12T12:27:03Z</time></trkpt><trkpt lat="42.408019991496495" lon="14.257218488223126"><ele>43.0</ele><time>2026-04-12T12:27:04Z</time></trkpt><trkpt lat="42.408141933644224" lon="14.257325374934892"><ele>41.5</ele><time>2026-04-12T12:27:05Z</time></trkpt><trkpt lat="42.40822299162065" lon="14.257496084350494"><ele>40.0</ele><time>2026-04-12T12:27:06Z</time></trkpt><trkpt lat="42.40827809481004" lon="14.257662121850418"><ele>38.5</ele><time>2026-04-12T12:27:07Z</time></trkpt><trkpt lat="42.408313125277914" lon="14.257831834261605"><ele>37.0</ele><time>2026-04-12T12:27:08Z</time></trkpt><trkpt lat="42.40832579590026" lon="14.258022333904266"><ele>36.0</ele><time>2026-04-12T12:27:09Z</time></trkpt><trkpt lat="42.40832525426136" lon="14.2582045970449"><ele>35.0</ele><time>2026-04-12T12:27:10Z</time></trkpt><trkpt lat="42.408320023337644" lon="14.25835228899686"><ele>34.0</ele><time>2026-04-12T12:27:11Z</time></trkpt><trkpt lat="42.40831385511641" lon="14.258485123814022"><ele>33.0</ele><time>2026-04-12T12:27:12Z</time></trkpt><trkpt lat="42.40830775687027" lon="14.258583554797124"><ele>32.0</ele><time>2026-04-12T12:27:13Z</time></trkpt><trkpt lat="42.40822413800225" lon="14.258667284197701"><ele>32.0</ele><time>2026-04-12T12:27:14Z</time></trkpt><trkpt lat="42.4081136720508" lon="14.258720002312607"><ele>32.0</ele><time>2026-04-12T12:27:15Z</time></trkpt><trkpt lat="42.40797606817591" lon="14.258737363039133"><ele>32.0</ele><time>2026-04-12T12:27:16Z</time></trkpt><trkpt lat="42.40782585384815" lon="14.258655237876082"><ele>32.0</ele><time>2026-04-12T12:27:17Z</time></trkpt><trkpt lat="42.4076501050853" lon="14.258637253196866"><ele>32.33333333333333</ele><time>2026-04-12T12:27:18Z</time></trkpt><trkpt lat="42.40747743951373" lon="14.258591354574166"><ele>32.666666666666664</ele><time>2026-04-12T12:27:19Z</time></trkpt><trkpt lat="42.40729450758555" lon="14.258542537667278"><ele>33.0</ele><time>2026-04-12T12:27:20Z</time></trkpt><trkpt lat="42.40710767211772" lon="14.258496614674005"><ele>32.0</ele><time>2026-04-12T12:27:21Z</time></trkpt><trkpt lat="42.40691448328758" lon="14.25844460509066"><ele>31.0</ele><time>2026-04-12T12:27:22Z</time></trkpt><trkpt lat="42.40671316742297" lon="14.258400887899803"><ele>30.0</ele><time>2026-04-12T12:27:22.999Z</time></trkpt><trkpt lat="42.40651538177207" lon="14.25836477360703"><ele>28.666666666666664</ele><time>2026-04-12T12:27:23.999Z</time></trkpt><trkpt lat="42.40631579584204" lon="14.258332199538096"><ele>27.333333333333332</ele><time>2026-04-12T12:27:24.999Z</time></trkpt><trkpt lat="42.40610352385668" lon="14.258300681558183"><ele>26.0</ele><time>2026-04-12T12:27:25.999Z</time></trkpt><trkpt lat="42.405888946510515" lon="14.258275701270941"><ele>26.0</ele><time>2026-04-12T12:27:26.999Z</time></trkpt><trkpt lat="42.40567258318182" lon="14.25825347642596"><ele>26.0</ele><time>2026-04-12T12:27:27.999Z</time></trkpt><trkpt lat="42.405456602714835" lon="14.258230140195064"><ele>26.0</ele><time>2026-04-12T12:27:28.999Z</time></trkpt><trkpt lat="42.405238213550135" lon="14.258205871175031"><ele>25.666666666666664</ele><time>2026-04-12T12:27:29.999Z</time></trkpt><trkpt lat="42.40502012197371" lon="14.25817924811945"><ele>25.333333333333336</ele><time>2026-04-12T12:27:30.999Z</time></trkpt><trkpt lat="42.40480026842927" lon="14.258157882586692"><ele>25.0</ele><time>2026-04-12T12:27:31.999Z</time></trkpt><trkpt lat="42.40458110241181" lon="14.258140971118623"><ele>27.666666666666668</ele><time>2026-04-12T12:27:32.999Z</time></trkpt><trkpt lat="42.40436292242" lon="14.258117104503034"><ele>30.333333333333336</ele><time>2026-04-12T12:27:33.999Z</time></trkpt><trkpt lat="42.404146422903544" lon="14.258096472327209"><ele>33.0</ele><time>2026-04-12T12:27:34.999Z</time></trkpt><trkpt lat="42.403927126712404" lon="14.25806919573844"><ele>32.666666666666664</ele><time>2026-04-12T12:27:35.999Z</time></trkpt><trkpt lat="42.40371338948072" lon="14.25804615514456"><ele>32.33333333333333</ele><time>2026-04-12T12:27:36.999Z</time></trkpt><trkpt lat="42.40350100501287" lon="14.25802221217975"><ele>32.0</ele><time>2026-04-12T12:27:37.999Z</time></trkpt><trkpt lat="42.40328344073638" lon="14.257997761094254"><ele>32.0</ele><time>2026-04-12T12:27:38.999Z</time></trkpt><trkpt lat="42.403069707048274" lon="14.257969014853977"><ele>32.0</ele><time>2026-04-12T12:27:39.999Z</time></trkpt><trkpt lat="42.402857662976" lon="14.257944096645865"><ele>32.0</ele><time>2026-04-12T12:27:40.999Z</time></trkpt><trkpt lat="42.402653293799155" lon="14.257904052795473"><ele>31.333333333333332</ele><time>2026-04-12T12:27:41.999Z</time></trkpt><trkpt lat="42.40244054787295" lon="14.257851850084897"><ele>30.666666666666664</ele><time>2026-04-12T12:27:42.999Z</time></trkpt><trkpt lat="42.40222915374994" lon="14.257783009034315"><ele>30.0</ele><time>2026-04-12T12:27:43.999Z</time></trkpt><trkpt lat="42.40202433740011" lon="14.257699864914482"><ele>29.666666666666664</ele><time>2026-04-12T12:27:44.999Z</time></trkpt><trkpt lat="42.40182403594617" lon="14.257597532340876"><ele>29.333333333333332</ele><time>2026-04-12T12:27:45.999Z</time></trkpt><trkpt lat="42.40162846713269" lon="14.257480790917365"><ele>29.0</ele><time>2026-04-12T12:27:46.999Z</time></trkpt><trkpt lat="42.40143783093035" lon="14.257359773040747"><ele>29.333333333333332</ele><time>2026-04-12T12:27:47.999Z</time></trkpt><trkpt lat="42.401247838488686" lon="14.257238233012778"><ele>29.666666666666664</ele><time>2026-04-12T12:27:48.999Z</time></trkpt><trkpt lat="42.40105549463685" lon="14.257121935105284"><ele>30.0</ele><time>2026-04-12T12:27:49.999Z</time></trkpt><trkpt lat="42.400866461765965" lon="14.257003187490303"><ele>30.0</ele><time>2026-04-12T12:27:50.999Z</time></trkpt><trkpt lat="42.40067617059618" lon="14.256884567124356"><ele>30.0</ele><time>2026-04-12T12:27:51.999Z</time></trkpt><trkpt lat="42.400484575189466" lon="14.256766452166062"><ele>30.0</ele><time>2026-04-12T12:27:52.999Z</time></trkpt><trkpt lat="42.40029286705917" lon="14.256650806171217"><ele>29.666666666666664</ele><time>2026-04-12T12:27:53.999Z</time></trkpt><trkpt lat="42.400100685843476" lon="14.256535354444695"><ele>29.333333333333332</ele><time>2026-04-12T12:27:54.999Z</time></trkpt><trkpt lat="42.39990589600652" lon="14.256417613734106"><ele>29.0</ele><time>2026-04-12T12:27:55.999Z</time></trkpt><trkpt lat="42.39971283760856" lon="14.256295755929727"><ele>30.0</ele><time>2026-04-12T12:27:56.999Z</time></trkpt><trkpt lat="42.39952082027976" lon="14.256174606187797"><ele>31.0</ele><time>2026-04-12T12:27:57.999Z</time></trkpt><trkpt lat="42.3993268827266" lon="14.25605397441137"><ele>32.0</ele><time>2026-04-12T12:27:58.999Z</time></trkpt><trkpt lat="42.39913049936766" lon="14.255934953028635"><ele>32.0</ele><time>2026-04-12T12:27:59.999Z</time></trkpt><trkpt lat="42.39893413870846" lon="14.255814318023734"><ele>32.0</ele><time>2026-04-12T12:28:00.999Z</time></trkpt><trkpt lat="42.39873501274055" lon="14.255693343166426"><ele>32.0</ele><time>2026-04-12T12:28:01.999Z</time></trkpt><trkpt lat="42.39853605576434" lon="14.255571083054994"><ele>32.33333333333333</ele><time>2026-04-12T12:28:02.999Z</time></trkpt><trkpt lat="42.39833646772039" lon="14.25544942772242"><ele>32.666666666666664</ele><time>2026-04-12T12:28:03.999Z</time></trkpt><trkpt lat="42.398134257381464" lon="14.255325635292603"><ele>33.0</ele><time>2026-04-12T12:28:04.999Z</time></trkpt><trkpt lat="42.397929011098974" lon="14.255203356629247"><ele>33.0</ele><time>2026-04-12T12:28:05.999Z</time></trkpt><trkpt lat="42.39772647590266" lon="14.255082203355716"><ele>33.0</ele><time>2026-04-12T12:28:06.999Z</time></trkpt><trkpt lat="42.39752016648338" lon="14.254956765994413"><ele>33.0</ele><time>2026-04-12T12:28:07.999Z</time></trkpt><trkpt lat="42.39731497336878" lon="14.254830627116297"><ele>33.333333333333336</ele><time>2026-04-12T12:28:08.999Z</time></trkpt><trkpt lat="42.397113030468695" lon="14.254708207225772"><ele>33.66666666666667</ele><time>2026-04-12T12:28:09.999Z</time></trkpt><trkpt lat="42.39690812562434" lon="14.254583012245499"><ele>34.0</ele><time>2026-04-12T12:28:10.999Z</time></trkpt><trkpt lat="42.396705653157824" lon="14.254456689566684"><ele>34.0</ele><time>2026-04-12T12:28:11.999Z</time></trkpt><trkpt lat="42.39650185815251" lon="14.254333103556466"><ele>34.0</ele><time>2026-04-12T12:28:12.999Z</time></trkpt><trkpt lat="42.39630190092144" lon="14.254208586295718"><ele>34.0</ele><time>2026-04-12T12:28:13.999Z</time></trkpt><trkpt lat="42.39609683626308" lon="14.254084699793482"><ele>33.333333333333336</ele><time>2026-04-12T12:28:14.999Z</time></trkpt><trkpt lat="42.395893814895885" lon="14.253961172647063"><ele>32.666666666666664</ele><time>2026-04-12T12:28:15.999Z</time></trkpt><trkpt lat="42.395691493288695" lon="14.253833454971904"><ele>32.0</ele><time>2026-04-12T12:28:16.999Z</time></trkpt><trkpt lat="42.39548841281864" lon="14.253707915056642"><ele>32.0</ele><time>2026-04-12T12:28:17.999Z</time></trkpt><trkpt lat="42.39528529556946" lon="14.253586575154811"><ele>32.0</ele><time>2026-04-12T12:28:18.999Z</time></trkpt><trkpt lat="42.39508232059054" lon="14.253465574744475"><ele>32.0</ele><time>2026-04-12T12:28:19.999Z</time></trkpt><trkpt lat="42.394882628953624" lon="14.253343628495214"><ele>32.0</ele><time>2026-04-12T12:28:20.999Z</time></trkpt><trkpt lat="42.39468279833366" lon="14.25321728801394"><ele>32.0</ele><time>2026-04-12T12:28:21.999Z</time></trkpt><trkpt lat="42.394486559487405" lon="14.253083418548234"><ele>32.0</ele><time>2026-04-12T12:28:22.999Z</time></trkpt><trkpt lat="42.39429198962599" lon="14.252955889206707"><ele>32.666666666666664</ele><time>2026-04-12T12:28:23.998Z</time></trkpt><trkpt lat="42.3941014604656" lon="14.252824722200836"><ele>33.333333333333336</ele><time>2026-04-12T12:28:24.998Z</time></trkpt><trkpt lat="42.39392867326766" lon="14.25269049719"><ele>34.0</ele><time>2026-04-12T12:28:25.998Z</time></trkpt><trkpt lat="42.39375543257176" lon="14.252543782071253"><ele>34.0</ele><time>2026-04-12T12:28:26.998Z</time></trkpt><trkpt lat="42.39358164170463" lon="14.252395247058612"><ele>34.0</ele><time>2026-04-12T12:28:27.998Z</time></trkpt><trkpt lat="42.393406067995336" lon="14.252246231475985"><ele>34.0</ele><time>2026-04-12T12:28:28.998Z</time></trkpt><trkpt lat="42.393230482947445" lon="14.252091142639786"><ele>34.66666666666667</ele><time>2026-04-12T12:28:29.998Z</time></trkpt><trkpt lat="42.3930521059549" lon="14.251936664315977"><ele>35.333333333333336</ele><time>2026-04-12T12:28:30.998Z</time></trkpt><trkpt lat="42.392873184978896" lon="14.251782646855665"><ele>36.0</ele><time>2026-04-12T12:28:32Z</time></trkpt><trkpt lat="42.39269266318411" lon="14.251629067612278"><ele>36.0</ele><time>2026-04-12T12:28:33Z</time></trkpt><trkpt lat="42.39250983690055" lon="14.251473666037374"><ele>36.0</ele><time>2026-04-12T12:28:34Z</time></trkpt><trkpt lat="42.39232693204795" lon="14.251315839368452"><ele>36.0</ele><time>2026-04-12T12:28:35Z</time></trkpt><trkpt lat="42.39214138741662" lon="14.251154987972487"><ele>35.666666666666664</ele><time>2026-04-12T12:28:36Z</time></trkpt><trkpt lat="42.391957224593" lon="14.250992317150526"><ele>35.33333333333333</ele><time>2026-04-12T12:28:37Z</time></trkpt><trkpt lat="42.39177099080863" lon="14.25082746241927"><ele>35.0</ele><time>2026-04-12T12:28:38Z</time></trkpt><trkpt lat="42.391586172271204" lon="14.2506643925242"><ele>35.666666666666664</ele><time>2026-04-12T12:28:39Z</time></trkpt><trkpt lat="42.391399277834374" lon="14.250503886752654"><ele>36.333333333333336</ele><time>2026-04-12T12:28:40Z</time></trkpt><trkpt lat="42.39121332919986" lon="14.250346816610552"><ele>37.0</ele><time>2026-04-12T12:28:41Z</time></trkpt><trkpt lat="42.391025038035394" lon="14.250192406732197"><ele>37.0</ele><time>2026-04-12T12:28:42Z</time></trkpt><trkpt lat="42.39083622747731" lon="14.25003867843266"><ele>37.0</ele><time>2026-04-12T12:28:43Z</time></trkpt><trkpt lat="42.39064730815166" lon="14.249886246275528"><ele>37.0</ele><time>2026-04-12T12:28:44Z</time></trkpt><trkpt lat="42.39045768318787" lon="14.24973422856786"><ele>38.0</ele><time>2026-04-12T12:28:45Z</time></trkpt><trkpt lat="42.39026546007746" lon="14.249589392559042"><ele>39.0</ele><time>2026-04-12T12:28:46Z</time></trkpt><trkpt lat="42.39006798585407" lon="14.249458983016087"><ele>40.0</ele><time>2026-04-12T12:28:47Z</time></trkpt><trkpt lat="42.38986534378669" lon="14.249340605814877"><ele>38.333333333333336</ele><time>2026-04-12T12:28:48Z</time></trkpt><trkpt lat="42.38966367560537" lon="14.249223508607045"><ele>36.666666666666664</ele><time>2026-04-12T12:28:49Z</time></trkpt><trkpt lat="42.38946458634928" lon="14.249103787551222"><ele>35.0</ele><time>2026-04-12T12:28:50Z</time></trkpt><trkpt lat="42.38926739571653" lon="14.248978550583306"><ele>36.0</ele><time>2026-04-12T12:28:51Z</time></trkpt><trkpt lat="42.389077501708734" lon="14.248844747105645"><ele>37.0</ele><time>2026-04-12T12:28:52Z</time></trkpt><trkpt lat="42.38889317482568" lon="14.24869840016475"><ele>38.0</ele><time>2026-04-12T12:28:53Z</time></trkpt><trkpt lat="42.38871612036827" lon="14.248536685576632"><ele>38.0</ele><time>2026-04-12T12:28:54Z</time></trkpt><trkpt lat="42.38854446736388" lon="14.248359235618842"><ele>38.0</ele><time>2026-04-12T12:28:55Z</time></trkpt><trkpt lat="42.38837977930045" lon="14.248165867977114"><ele>38.0</ele><time>2026-04-12T12:28:56Z</time></trkpt><trkpt lat="42.38822324424845" lon="14.247952113885223"><ele>37.33333333333333</ele><time>2026-04-12T12:28:57Z</time></trkpt><trkpt lat="42.38806839944823" lon="14.247737449438299"><ele>36.666666666666664</ele><time>2026-04-12T12:28:58Z</time></trkpt><trkpt lat="42.38791516072691" lon="14.247516942836432"><ele>36.0</ele><time>2026-04-12T12:28:59Z</time></trkpt><trkpt lat="42.3877630003708" lon="14.247294909262907"><ele>38.333333333333336</ele><time>2026-04-12T12:29:00Z</time></trkpt><trkpt lat="42.38761932927378" lon="14.247091903395956"><ele>40.66666666666667</ele><time>2026-04-12T12:29:01Z</time></trkpt><trkpt lat="42.387491524232594" lon="14.246910364495276"><ele>43.0</ele><time>2026-04-12T12:29:02Z</time></trkpt><trkpt lat="42.38737187045729" lon="14.246742028234188"><ele>43.0</ele><time>2026-04-12T12:29:03Z</time></trkpt><trkpt lat="42.387256935988425" lon="14.24658166485385"><ele>43.0</ele><time>2026-04-12T12:29:04Z</time></trkpt><trkpt lat="42.3871660902536" lon="14.246448916470769"><ele>43.0</ele><time>2026-04-12T12:29:05Z</time></trkpt><trkpt lat="42.38710665057612" lon="14.24633616916325"><ele>43.0</ele><time>2026-04-12T12:29:06Z</time></trkpt><trkpt lat="42.38708526135972" lon="14.246229522556781"><ele>42.8</ele><time>2026-04-12T12:29:07Z</time></trkpt><trkpt lat="42.38708160760735" lon="14.24612358910034"><ele>42.599999999999994</ele><time>2026-04-12T12:29:08Z</time></trkpt><trkpt lat="42.38704274368429" lon="14.246020884802812"><ele>42.400000000000006</ele><time>2026-04-12T12:29:09Z</time></trkpt><trkpt lat="42.38695698422198" lon="14.24589941872372"><ele>42.2</ele><time>2026-04-12T12:29:10Z</time></trkpt><trkpt lat="42.38684691127014" lon="14.245749159158217"><ele>42.0</ele><time>2026-04-12T12:29:11Z</time></trkpt><trkpt lat="42.38673397594985" lon="14.245586690635644"><ele>42.666666666666664</ele><time>2026-04-12T12:29:12Z</time></trkpt><trkpt lat="42.38661528997739" lon="14.24542837942404"><ele>43.33333333333333</ele><time>2026-04-12T12:29:13Z</time></trkpt><trkpt lat="42.38649845215062" lon="14.245287903371764"><ele>44.0</ele><time>2026-04-12T12:29:14Z</time></trkpt><trkpt lat="42.386363600386616" lon="14.245161933689616"><ele>43.33333333333333</ele><time>2026-04-12T12:29:15Z</time></trkpt><trkpt lat="42.38622211528763" lon="14.245022862331592"><ele>42.666666666666664</ele><time>2026-04-12T12:29:16Z</time></trkpt><trkpt lat="42.3860691196642" lon="14.24488469662339"><ele>42.0</ele><time>2026-04-12T12:29:17Z</time></trkpt><trkpt lat="42.38592149123934" lon="14.244743785726147"><ele>42.333333333333336</ele><time>2026-04-12T12:29:18Z</time></trkpt><trkpt lat="42.38577271426083" lon="14.244612542164438"><ele>42.66666666666667</ele><time>2026-04-12T12:29:19Z</time></trkpt><trkpt lat="42.38562201201452" lon="14.244475463508536"><ele>43.0</ele><time>2026-04-12T12:29:20Z</time></trkpt><trkpt lat="42.38545957587752" lon="14.244339955846847"><ele>43.0</ele><time>2026-04-12T12:29:21Z</time></trkpt><trkpt lat="42.385295639986445" lon="14.244198039958368"><ele>43.0</ele><time>2026-04-12T12:29:22Z</time></trkpt><trkpt lat="42.3851346691517" lon="14.244048029200183"><ele>43.0</ele><time>2026-04-12T12:29:23Z</time></trkpt><trkpt lat="42.3849977719987" lon="14.243895616790399"><ele>42.5</ele><time>2026-04-12T12:29:24Z</time></trkpt><trkpt lat="42.38489682123425" lon="14.2437378196814"><ele>42.0</ele><time>2026-04-12T12:29:25Z</time></trkpt><trkpt lat="42.384838618696506" lon="14.243583546732824"><ele>41.5</ele><time>2026-04-12T12:29:26Z</time></trkpt><trkpt lat="42.38476515455978" lon="14.243453824783364"><ele>41.0</ele><time>2026-04-12T12:29:27Z</time></trkpt><trkpt lat="42.384635153248745" lon="14.24335245010277"><ele>41.0</ele><time>2026-04-12T12:29:27.999Z</time></trkpt><trkpt lat="42.384480299436596" lon="14.243277558711158"><ele>41.0</ele><time>2026-04-12T12:29:28.999Z</time></trkpt><trkpt lat="42.38431769742985" lon="14.24321864124464"><ele>41.0</ele><time>2026-04-12T12:29:29.999Z</time></trkpt><trkpt lat="42.384150077601795" lon="14.243129822788111"><ele>41.666666666666664</ele><time>2026-04-12T12:29:30.999Z</time></trkpt><trkpt lat="42.3839856883571" lon="14.24300405332036"><ele>42.333333333333336</ele><time>2026-04-12T12:29:31.999Z</time></trkpt><trkpt lat="42.38382757748945" lon="14.24285691487096"><ele>43.0</ele><time>2026-04-12T12:29:32.999Z</time></trkpt><trkpt lat="42.383671885810784" lon="14.24270692006834"><ele>43.0</ele><time>2026-04-12T12:29:33.999Z</time></trkpt><trkpt lat="42.38351846114129" lon="14.24255442269524"><ele>43.0</ele><time>2026-04-12T12:29:34.999Z</time></trkpt><trkpt lat="42.38336840840319" lon="14.24239784112528"><ele>43.0</ele><time>2026-04-12T12:29:35.999Z</time></trkpt><trkpt lat="42.38320965481663" lon="14.242244366945236"><ele>44.0</ele><time>2026-04-12T12:29:36.999Z</time></trkpt><trkpt lat="42.38304897406778" lon="14.242093803955113"><ele>45.0</ele><time>2026-04-12T12:29:37.999Z</time></trkpt><trkpt lat="42.38288921354218" lon="14.241941860744184"><ele>46.0</ele><time>2026-04-12T12:29:38.999Z</time></trkpt><trkpt lat="42.38274480120358" lon="14.241795883549514"><ele>46.0</ele><time>2026-04-12T12:29:39.999Z</time></trkpt><trkpt lat="42.38262203109718" lon="14.241671201397663"><ele>46.0</ele><time>2026-04-12T12:29:40.999Z</time></trkpt><trkpt lat="42.38250527346902" lon="14.241556857470197"><ele>46.0</ele><time>2026-04-12T12:29:41.999Z</time></trkpt><trkpt lat="42.38237131580951" lon="14.241423066866558"><ele>46.66666666666667</ele><time>2026-04-12T12:29:42.999Z</time></trkpt><trkpt lat="42.38223464456719" lon="14.241312375201346"><ele>47.333333333333336</ele><time>2026-04-12T12:29:43.999Z</time></trkpt><trkpt lat="42.38209778831719" lon="14.241205344817788"><ele>48.0</ele><time>2026-04-12T12:29:44.999Z</time></trkpt><trkpt lat="42.381967540403416" lon="14.241054101161366"><ele>48.0</ele><time>2026-04-12T12:29:45.999Z</time></trkpt><trkpt lat="42.38182307085363" lon="14.240910721377976"><ele>48.0</ele><time>2026-04-12T12:29:46.999Z</time></trkpt><trkpt lat="42.38166768234891" lon="14.240787139702936"><ele>48.0</ele><time>2026-04-12T12:29:47.999Z</time></trkpt><trkpt lat="42.38151928594645" lon="14.240651202973211"><ele>49.33333333333333</ele><time>2026-04-12T12:29:48.999Z</time></trkpt><trkpt lat="42.381356629242234" lon="14.24052811300043"><ele>50.666666666666664</ele><time>2026-04-12T12:29:49.999Z</time></trkpt><trkpt lat="42.3811999515675" lon="14.240370626856631"><ele>52.0</ele><time>2026-04-12T12:29:50.999Z</time></trkpt><trkpt lat="42.381023254360926" lon="14.24024753284736"><ele>53.0</ele><time>2026-04-12T12:29:51.999Z</time></trkpt><trkpt lat="42.380862182710004" lon="14.240095656912985"><ele>54.0</ele><time>2026-04-12T12:29:52.999Z</time></trkpt><trkpt lat="42.38070879192715" lon="14.239945781115573"><ele>55.0</ele><time>2026-04-12T12:29:53.999Z</time></trkpt><trkpt lat="42.38057985022565" lon="14.239824161120088"><ele>55.5</ele><time>2026-04-12T12:29:54.999Z</time></trkpt><trkpt lat="42.38046808159107" lon="14.239716115470552"><ele>56.0</ele><time>2026-04-12T12:29:55.999Z</time></trkpt><trkpt lat="42.38037520877999" lon="14.239576096850863"><ele>56.5</ele><time>2026-04-12T12:29:56.999Z</time></trkpt><trkpt lat="42.380281624712865" lon="14.239424577499081"><ele>57.0</ele><time>2026-04-12T12:29:57.999Z</time></trkpt><trkpt lat="42.38019816535141" lon="14.239303778609996"><ele>57.0</ele><time>2026-04-12T12:29:58.999Z</time></trkpt><trkpt lat="42.380139780938066" lon="14.23922424612074"><ele>57.0</ele><time>2026-04-12T12:29:59.999Z</time></trkpt><trkpt lat="42.38010002857096" lon="14.239148611929565"><ele>57.0</ele><time>2026-04-12T12:30:00.999Z</time></trkpt><trkpt lat="42.380084186749485" lon="14.239047848920928"><ele>57.0</ele><time>2026-04-12T12:30:01.999Z</time></trkpt><trkpt lat="42.3800548927261" lon="14.238948639184557"><ele>57.0</ele><time>2026-04-12T12:30:03.999Z</time></trkpt><trkpt lat="42.38008247497303" lon="14.239030171290572"><ele>57.0</ele><time>2026-04-12T12:30:06.999Z</time></trkpt><trkpt lat="42.3799744332462" lon="14.239107593302728"><ele>57.0</ele><time>2026-04-12T12:30:07.999Z</time></trkpt><trkpt lat="42.37989809166193" lon="14.23923484004255"><ele>57.0</ele><time>2026-04-12T12:30:09.999Z</time></trkpt><trkpt lat="42.37983357868571" lon="14.239309004404571"><ele>57.0</ele><time>2026-04-12T12:30:10.999Z</time></trkpt><trkpt lat="42.379757751192685" lon="14.239376958955267"><ele>57.0</ele><time>2026-04-12T12:30:11.999Z</time></trkpt><trkpt lat="42.37968692174239" lon="14.239437432162786"><ele>57.0</ele><time>2026-04-12T12:30:12.999Z</time></trkpt><trkpt lat="42.379619760548074" lon="14.239492565061822"><ele>56.2</ele><time>2026-04-12T12:30:13.999Z</time></trkpt><trkpt lat="42.379544439694556" lon="14.239546714434798"><ele>55.400000000000006</ele><time>2026-04-12T12:30:14.999Z</time></trkpt><trkpt lat="42.37946527113853" lon="14.239588410331695"><ele>54.599999999999994</ele><time>2026-04-12T12:30:15.999Z</time></trkpt><trkpt lat="42.37939377671073" lon="14.239613602393025"><ele>53.8</ele><time>2026-04-12T12:30:16.999Z</time></trkpt><trkpt lat="42.37926531778448" lon="14.239632682240424"><ele>53.0</ele><time>2026-04-12T12:30:18.999Z</time></trkpt><trkpt lat="42.37915676048192" lon="14.239696600204176"><ele>53.0</ele><time>2026-04-12T12:30:20.999Z</time></trkpt><trkpt lat="42.379052681535114" lon="14.239766738450255"><ele>53.0</ele><time>2026-04-12T12:30:22.999Z</time></trkpt><trkpt lat="42.3790199066825" lon="14.2396667226666"><ele>53.0</ele><time>2026-04-12T12:30:25.999Z</time></trkpt><trkpt lat="42.37901798633476" lon="14.239543572493213"><ele>53.0</ele><time>2026-04-12T12:30:26.999Z</time></trkpt><trkpt lat="42.37901665278021" lon="14.239429907421856"><ele>53.0</ele><time>2026-04-12T12:30:27.999Z</time></trkpt><trkpt lat="42.379017498163925" lon="14.239302499142019"><ele>53.00000000000001</ele><time>2026-04-12T12:30:28.998Z</time></trkpt><trkpt lat="42.379023386738375" lon="14.239169150613872"><ele>53.0</ele><time>2026-04-12T12:30:29.998Z</time></trkpt><trkpt lat="42.37901739429689" lon="14.239043320414927"><ele>53.0</ele><time>2026-04-12T12:30:30.998Z</time></trkpt><trkpt lat="42.379015792058674" lon="14.238928819784295"><ele>53.0</ele><time>2026-04-12T12:30:31.998Z</time></trkpt><trkpt lat="42.37900509919643" lon="14.238826081827177"><ele>53.00000000000001</ele><time>2026-04-12T12:30:32.998Z</time></trkpt><trkpt lat="42.37899316894849" lon="14.238741529445102"><ele>53.0</ele><time>2026-04-12T12:30:33.998Z</time></trkpt><trkpt lat="42.37896191142503" lon="14.238580538217594"><ele>53.4</ele><time>2026-04-12T12:30:35.998Z</time></trkpt><trkpt lat="42.37893961668329" lon="14.238460000614854"><ele>53.8</ele><time>2026-04-12T12:30:38Z</time></trkpt><trkpt lat="42.37892428174815" lon="14.238328121372431"><ele>54.2</ele><time>2026-04-12T12:30:42Z</time></trkpt><trkpt lat="42.378892036822855" lon="14.238216542898607"><ele>54.6</ele><time>2026-04-12T12:30:44Z</time></trkpt><trkpt lat="42.378825293543656" lon="14.238090799437192"><ele>55.0</ele><time>2026-04-12T12:30:46Z</time></trkpt><trkpt lat="42.3787634440556" lon="14.237953510757123"><ele>57.8</ele><time>2026-04-12T12:30:48Z</time></trkpt><trkpt lat="42.37867596061628" lon="14.237856527009066"><ele>60.6</ele><time>2026-04-12T12:30:50Z</time></trkpt><trkpt lat="42.37858216141634" lon="14.237725931928178"><ele>63.400000000000006</ele><time>2026-04-12T12:30:52Z</time></trkpt><trkpt lat="42.37852787197125" lon="14.237649389904687"><ele>66.2</ele><time>2026-04-12T12:30:53Z</time></trkpt><trkpt lat="42.37847712083051" lon="14.237570051170739"><ele>69.0</ele><time>2026-04-12T12:30:54Z</time></trkpt><trkpt lat="42.37844944770816" lon="14.237452110425505"><ele>69.0</ele><time>2026-04-12T12:30:56Z</time></trkpt><trkpt lat="42.37849377521685" lon="14.237391201512912"><ele>69.0</ele><time>2026-04-12T12:30:57Z</time></trkpt><trkpt lat="42.37853452835297" lon="14.237280770928013"><ele>69.0</ele><time>2026-04-12T12:30:58Z</time></trkpt><trkpt lat="42.37860118994644" lon="14.237119975548236"><ele>69.0</ele><time>2026-04-12T12:30:59Z</time></trkpt><trkpt lat="42.378626032947786" lon="14.236978632895667"><ele>69.0</ele><time>2026-04-12T12:31:00Z</time></trkpt><trkpt lat="42.37861830115224" lon="14.236858610479803"><ele>70.8</ele><time>2026-04-12T12:31:01Z</time></trkpt><trkpt lat="42.37861693295982" lon="14.236735069468685"><ele>72.60000000000001</ele><time>2026-04-12T12:31:02Z</time></trkpt><trkpt lat="42.37862105722087" lon="14.236591070486387"><ele>74.4</ele><time>2026-04-12T12:31:03Z</time></trkpt><trkpt lat="42.37862919194423" lon="14.236450617705"><ele>76.2</ele><time>2026-04-12T12:31:04Z</time></trkpt><trkpt lat="42.37864943167758" lon="14.236302682101934"><ele>78.0</ele><time>2026-04-12T12:31:05Z</time></trkpt><trkpt lat="42.378653333149984" lon="14.236099879389483"><ele>79.0</ele><time>2026-04-12T12:31:06Z</time></trkpt><trkpt lat="42.378658449185394" lon="14.23595587981601"><ele>80.0</ele><time>2026-04-12T12:31:07Z</time></trkpt><trkpt lat="42.37863557684163" lon="14.235855807961121"><ele>81.0</ele><time>2026-04-12T12:31:08Z</time></trkpt><trkpt lat="42.37862617605983" lon="14.235751031816985"><ele>82.0</ele><time>2026-04-12T12:31:09Z</time></trkpt><trkpt lat="42.37860867144679" lon="14.235624876203673"><ele>83.0</ele><time>2026-04-12T12:31:10Z</time></trkpt><trkpt lat="42.378613007888525" lon="14.23548932765019"><ele>83.75</ele><time>2026-04-12T12:31:11Z</time></trkpt><trkpt lat="42.378610927254755" lon="14.23529524417017"><ele>84.5</ele><time>2026-04-12T12:31:12Z</time></trkpt><trkpt lat="42.37862286397721" lon="14.235124794593828"><ele>85.25</ele><time>2026-04-12T12:31:13Z</time></trkpt><trkpt lat="42.37863453170198" lon="14.234985664475774"><ele>86.0</ele><time>2026-04-12T12:31:14Z</time></trkpt><trkpt lat="42.3786626164913" lon="14.234846474367833"><ele>86.25</ele><time>2026-04-12T12:31:15Z</time></trkpt><trkpt lat="42.37870288062365" lon="14.234692879431957"><ele>86.5</ele><time>2026-04-12T12:31:16Z</time></trkpt><trkpt lat="42.378754777058376" lon="14.234584296597669"><ele>86.75</ele><time>2026-04-12T12:31:17Z</time></trkpt><trkpt lat="42.37882754237254" lon="14.234456660873258"><ele>87.0</ele><time>2026-04-12T12:31:18Z</time></trkpt><trkpt lat="42.37891442849603" lon="14.234325472247685"><ele>84.0</ele><time>2026-04-12T12:31:19Z</time></trkpt><trkpt lat="42.37898089755468" lon="14.2342285760672"><ele>81.0</ele><time>2026-04-12T12:31:20Z</time></trkpt><trkpt lat="42.379022492412616" lon="14.23413299818529"><ele>78.0</ele><time>2026-04-12T12:31:21Z</time></trkpt><trkpt lat="42.3790298679377" lon="14.234029704583003"><ele>75.0</ele><time>2026-04-12T12:31:22Z</time></trkpt><trkpt lat="42.378995841106665" lon="14.23387747231012"><ele>72.0</ele><time>2026-04-12T12:31:23Z</time></trkpt><trkpt lat="42.37895270416309" lon="14.233696807953578"><ele>72.0</ele><time>2026-04-12T12:31:24Z</time></trkpt><trkpt lat="42.37892992871615" lon="14.23353743952791"><ele>72.0</ele><time>2026-04-12T12:31:25Z</time></trkpt><trkpt lat="42.37888300268748" lon="14.233286412004087"><ele>72.0</ele><time>2026-04-12T12:31:26Z</time></trkpt><trkpt lat="42.37887432440907" lon="14.23315344681224"><ele>72.0</ele><time>2026-04-12T12:31:27Z</time></trkpt><trkpt lat="42.37888368730431" lon="14.233040174893665"><ele>74.0</ele><time>2026-04-12T12:31:28Z</time></trkpt><trkpt lat="42.37883835095936" lon="14.23294060626094"><ele>76.0</ele><time>2026-04-12T12:31:29Z</time></trkpt><trkpt lat="42.378770986416455" lon="14.232821111533747"><ele>78.0</ele><time>2026-04-12T12:31:30Z</time></trkpt><trkpt lat="42.37871403612643" lon="14.232716560128628"><ele>80.0</ele><time>2026-04-12T12:31:30.999Z</time></trkpt><trkpt lat="42.378654412909995" lon="14.232580459821495"><ele>82.0</ele><time>2026-04-12T12:31:31.999Z</time></trkpt><trkpt lat="42.37859420632621" lon="14.232460952767338"><ele>82.0</ele><time>2026-04-12T12:31:32.999Z</time></trkpt><trkpt lat="42.37853900219722" lon="14.232367958123314"><ele>82.0</ele><time>2026-04-12T12:31:33.999Z</time></trkpt><trkpt lat="42.37848660863392" lon="14.232297329471015"><ele>82.0</ele><time>2026-04-12T12:31:34.999Z</time></trkpt><trkpt lat="42.378408335798504" lon="14.232167021106443"><ele>82.0</ele><time>2026-04-12T12:31:36.999Z</time></trkpt><trkpt lat="42.37836328943521" lon="14.23207084398411"><ele>82.0</ele><time>2026-04-12T12:31:38.999Z</time></trkpt><trkpt lat="42.378320500784895" lon="14.231988613302216"><ele>82.0</ele><time>2026-04-12T12:31:39.999Z</time></trkpt><trkpt lat="42.37824654548182" lon="14.231878878212669"><ele>81.25</ele><time>2026-04-12T12:31:40.999Z</time></trkpt><trkpt lat="42.378158206240585" lon="14.231770969279038"><ele>80.5</ele><time>2026-04-12T12:31:41.999Z</time></trkpt><trkpt lat="42.37806863227771" lon="14.231635766822857"><ele>79.75</ele><time>2026-04-12T12:31:42.999Z</time></trkpt><trkpt lat="42.377988073665584" lon="14.231538337624729"><ele>79.0</ele><time>2026-04-12T12:31:43.999Z</time></trkpt><trkpt lat="42.37790620668274" lon="14.231431559974924"><ele>81.4</ele><time>2026-04-12T12:31:44.999Z</time></trkpt><trkpt lat="42.37784088795263" lon="14.231319962802155"><ele>83.80000000000001</ele><time>2026-04-12T12:31:45.999Z</time></trkpt><trkpt lat="42.377768306125674" lon="14.231201493208305"><ele>86.19999999999999</ele><time>2026-04-12T12:31:46.999Z</time></trkpt><trkpt lat="42.37770017536372" lon="14.231107097277713"><ele>88.6</ele><time>2026-04-12T12:31:47.999Z</time></trkpt><trkpt lat="42.37763533297939" lon="14.230987386927504"><ele>91.0</ele><time>2026-04-12T12:31:48.999Z</time></trkpt><trkpt lat="42.37756777510357" lon="14.230846129556086"><ele>91.0</ele><time>2026-04-12T12:31:49.999Z</time></trkpt><trkpt lat="42.377491073275905" lon="14.230725009106617"><ele>91.0</ele><time>2026-04-12T12:31:50.999Z</time></trkpt><trkpt lat="42.37741780773906" lon="14.230613164047337"><ele>91.0</ele><time>2026-04-12T12:31:51.999Z</time></trkpt><trkpt lat="42.37734944342743" lon="14.230481011745546"><ele>91.0</ele><time>2026-04-12T12:31:52.999Z</time></trkpt><trkpt lat="42.37728815845406" lon="14.230323357460831"><ele>90.75</ele><time>2026-04-12T12:31:53.999Z</time></trkpt><trkpt lat="42.37720991296169" lon="14.230170195378669"><ele>90.5</ele><time>2026-04-12T12:31:54.999Z</time></trkpt><trkpt lat="42.37714396793048" lon="14.229995955345693"><ele>90.25</ele><time>2026-04-12T12:31:55.999Z</time></trkpt><trkpt lat="42.3770684690278" lon="14.229806499081937"><ele>90.0</ele><time>2026-04-12T12:31:56.999Z</time></trkpt><trkpt lat="42.37699290407871" lon="14.229620885450634"><ele>94.66666666666666</ele><time>2026-04-12T12:31:57.999Z</time></trkpt><trkpt lat="42.376930267962685" lon="14.22942444457922"><ele>99.33333333333333</ele><time>2026-04-12T12:31:58.999Z</time></trkpt><trkpt lat="42.376851895487604" lon="14.229247964465092"><ele>104.0</ele><time>2026-04-12T12:31:59.999Z</time></trkpt><trkpt lat="42.37676209598526" lon="14.229073867534026"><ele>104.0</ele><time>2026-04-12T12:32:00.999Z</time></trkpt><trkpt lat="42.37666613052043" lon="14.22890394347727"><ele>104.0</ele><time>2026-04-12T12:32:01.999Z</time></trkpt><trkpt lat="42.37657429787583" lon="14.228742238101285"><ele>104.0</ele><time>2026-04-12T12:32:02.999Z</time></trkpt><trkpt lat="42.37649166317457" lon="14.228598722444154"><ele>104.0</ele><time>2026-04-12T12:32:03.999Z</time></trkpt><trkpt lat="42.37643290696285" lon="14.228498975276096"><ele>104.0</ele><time>2026-04-12T12:32:04.999Z</time></trkpt><trkpt lat="42.37637204130286" lon="14.228462375981534"><ele>104.0</ele><time>2026-04-12T12:32:06.999Z</time></trkpt><trkpt lat="42.376294619700026" lon="14.228543021962382"><ele>104.0</ele><time>2026-04-12T12:32:08.999Z</time></trkpt><trkpt lat="42.37618084567327" lon="14.228573392098033"><ele>104.0</ele><time>2026-04-12T12:32:10.999Z</time></trkpt><trkpt lat="42.376099672260615" lon="14.22858826983831"><ele>104.0</ele><time>2026-04-12T12:32:11.999Z</time></trkpt><trkpt lat="42.37601259179498" lon="14.22861040074505"><ele>106.33333333333333</ele><time>2026-04-12T12:32:12.999Z</time></trkpt><trkpt lat="42.37592957002708" lon="14.22863444257221"><ele>108.66666666666666</ele><time>2026-04-12T12:32:13.999Z</time></trkpt><trkpt lat="42.37585300377999" lon="14.22865502858455"><ele>111.0</ele><time>2026-04-12T12:32:14.999Z</time></trkpt><trkpt lat="42.375775243123" lon="14.228680901567424"><ele>113.33333333333334</ele><time>2026-04-12T12:32:15.999Z</time></trkpt><trkpt lat="42.375699805896275" lon="14.228699019048861"><ele>115.66666666666667</ele><time>2026-04-12T12:32:16.999Z</time></trkpt><trkpt lat="42.37562327445542" lon="14.228789666792586"><ele>118.0</ele><time>2026-04-12T12:32:19.999Z</time></trkpt><trkpt lat="42.375578195266264" lon="14.228868638445899"><ele>118.00000000000001</ele><time>2026-04-12T12:32:20.999Z</time></trkpt><trkpt lat="42.37558605505468" lon="14.22896522630269"><ele>118.0</ele><time>2026-04-12T12:32:21.999Z</time></trkpt><trkpt lat="42.375601811679346" lon="14.229077103276293"><ele>118.0</ele><time>2026-04-12T12:32:22.999Z</time></trkpt><trkpt lat="42.37562847429678" lon="14.22918267932489"><ele>118.0</ele><time>2026-04-12T12:32:23.999Z</time></trkpt><trkpt lat="42.37562637566185" lon="14.229295185866286"><ele>118.00000000000001</ele><time>2026-04-12T12:32:24.999Z</time></trkpt><trkpt lat="42.37559926619011" lon="14.22941328137174"><ele>118.0</ele><time>2026-04-12T12:32:25.999Z</time></trkpt><trkpt lat="42.375531950460044" lon="14.229546101422509"><ele>119.2</ele><time>2026-04-12T12:32:26.999Z</time></trkpt><trkpt lat="42.37545180301161" lon="14.229659529383506"><ele>120.4</ele><time>2026-04-12T12:32:27.999Z</time></trkpt><trkpt lat="42.37539128121209" lon="14.229780742531254"><ele>121.60000000000001</ele><time>2026-04-12T12:32:28.999Z</time></trkpt><trkpt lat="42.37535646841948" lon="14.229879209547704"><ele>122.80000000000001</ele><time>2026-04-12T12:32:29.999Z</time></trkpt><trkpt lat="42.37530542550202" lon="14.230034883714985"><ele>124.0</ele><time>2026-04-12T12:32:30.999Z</time></trkpt><trkpt lat="42.37523338976252" lon="14.230216797392025"><ele>124.0</ele><time>2026-04-12T12:32:31.998Z</time></trkpt><trkpt lat="42.37516893054484" lon="14.230380791646246"><ele>124.0</ele><time>2026-04-12T12:32:32.998Z</time></trkpt><trkpt lat="42.37512155477335" lon="14.230540912910033"><ele>124.0</ele><time>2026-04-12T12:32:33.998Z</time></trkpt><trkpt lat="42.37508127009296" lon="14.230716616799072"><ele>124.0</ele><time>2026-04-12T12:32:34.998Z</time></trkpt><trkpt lat="42.375088222664004" lon="14.230926128287438"><ele>122.33333333333334</ele><time>2026-04-12T12:32:35.998Z</time></trkpt><trkpt lat="42.37514122326128" lon="14.231135813991175"><ele>120.66666666666666</ele><time>2026-04-12T12:32:36.998Z</time></trkpt><trkpt lat="42.37520104385267" lon="14.23135044664245"><ele>119.0</ele><time>2026-04-12T12:32:37.998Z</time></trkpt><trkpt lat="42.37526234698129" lon="14.231562372245278"><ele>116.5</ele><time>2026-04-12T12:32:38.998Z</time></trkpt><trkpt lat="42.375313492273705" lon="14.23174699452832"><ele>114.0</ele><time>2026-04-12T12:32:39.998Z</time></trkpt><trkpt lat="42.37535175370744" lon="14.231914261160172"><ele>111.5</ele><time>2026-04-12T12:32:40.998Z</time></trkpt><trkpt lat="42.37536694562609" lon="14.232073765467145"><ele>109.0</ele><time>2026-04-12T12:32:41.998Z</time></trkpt><trkpt lat="42.37534621502597" lon="14.232224529014072"><ele>108.25</ele><time>2026-04-12T12:32:43Z</time></trkpt><trkpt lat="42.37528387442059" lon="14.232382709444732"><ele>107.5</ele><time>2026-04-12T12:32:44Z</time></trkpt><trkpt lat="42.37519600124295" lon="14.232535403124968"><ele>106.75</ele><time>2026-04-12T12:32:45Z</time></trkpt><trkpt lat="42.37508618277366" lon="14.232653830218615"><ele>106.0</ele><time>2026-04-12T12:32:46Z</time></trkpt><trkpt lat="42.37497354164112" lon="14.23273218273434"><ele>106.0</ele><time>2026-04-12T12:32:47Z</time></trkpt><trkpt lat="42.37484500840767" lon="14.2327617501864"><ele>106.0</ele><time>2026-04-12T12:32:48Z</time></trkpt><trkpt lat="42.37469752637552" lon="14.232761725158118"><ele>106.0</ele><time>2026-04-12T12:32:49Z</time></trkpt><trkpt lat="42.374541299257345" lon="14.232749508055523"><ele>106.0</ele><time>2026-04-12T12:32:50Z</time></trkpt><trkpt lat="42.374379079215444" lon="14.23275022949224"><ele>104.33333333333334</ele><time>2026-04-12T12:32:51Z</time></trkpt><trkpt lat="42.37420616025099" lon="14.23277270630701"><ele>102.66666666666666</ele><time>2026-04-12T12:32:52Z</time></trkpt><trkpt lat="42.3740195021804" lon="14.232817369444478"><ele>101.0</ele><time>2026-04-12T12:32:53Z</time></trkpt><trkpt lat="42.37383993085922" lon="14.232852543696255"><ele>100.66666666666666</ele><time>2026-04-12T12:32:54Z</time></trkpt><trkpt lat="42.373665738444274" lon="14.232875913181429"><ele>100.33333333333334</ele><time>2026-04-12T12:32:55Z</time></trkpt><trkpt lat="42.37348518199128" lon="14.232883203851559"><ele>100.0</ele><time>2026-04-12T12:32:56Z</time></trkpt><trkpt lat="42.37330545354493" lon="14.23286901662329"><ele>100.0</ele><time>2026-04-12T12:32:57Z</time></trkpt><trkpt lat="42.37314207388099" lon="14.232840065141117"><ele>100.0</ele><time>2026-04-12T12:32:58Z</time></trkpt><trkpt lat="42.37300359752825" lon="14.232801467631184"><ele>100.0</ele><time>2026-04-12T12:32:59Z</time></trkpt><trkpt lat="42.37289215572315" lon="14.232779876134654"><ele>100.0</ele><time>2026-04-12T12:33:00Z</time></trkpt><trkpt lat="42.372791481654666" lon="14.232798232693298"><ele>98.2</ele><time>2026-04-12T12:33:01Z</time></trkpt><trkpt lat="42.372696206572776" lon="14.232850432669482"><ele>96.4</ele><time>2026-04-12T12:33:02Z</time></trkpt><trkpt lat="42.37261486711205" lon="14.232939017008649"><ele>94.6</ele><time>2026-04-12T12:33:03Z</time></trkpt><trkpt lat="42.3725594585926" lon="14.233074538867903"><ele>92.8</ele><time>2026-04-12T12:33:04Z</time></trkpt><trkpt lat="42.37253736004044" lon="14.233216537873188"><ele>91.0</ele><time>2026-04-12T12:33:05Z</time></trkpt><trkpt lat="42.37256688972941" lon="14.233368202069224"><ele>88.0</ele><time>2026-04-12T12:33:06Z</time></trkpt><trkpt lat="42.372630089186934" lon="14.233503063824495"><ele>85.0</ele><time>2026-04-12T12:33:07Z</time></trkpt><trkpt lat="42.37272334743216" lon="14.233606981284597"><ele>82.0</ele><time>2026-04-12T12:33:08Z</time></trkpt><trkpt lat="42.37286979612359" lon="14.233625779504738"><ele>79.0</ele><time>2026-04-12T12:33:09Z</time></trkpt><trkpt lat="42.37301356716309" lon="14.233630221255487"><ele>81.25</ele><time>2026-04-12T12:33:10Z</time></trkpt><trkpt lat="42.37316396203385" lon="14.23362192734082"><ele>83.5</ele><time>2026-04-12T12:33:11Z</time></trkpt><trkpt lat="42.37330365875177" lon="14.233613590363076"><ele>85.75</ele><time>2026-04-12T12:33:12Z</time></trkpt><trkpt lat="42.373421371391224" lon="14.233620321294472"><ele>88.0</ele><time>2026-04-12T12:33:13Z</time></trkpt><trkpt lat="42.37352399336418" lon="14.233642569483985"><ele>88.0</ele><time>2026-04-12T12:33:14Z</time></trkpt><trkpt lat="42.37361271910893" lon="14.233678132727048"><ele>88.0</ele><time>2026-04-12T12:33:15Z</time></trkpt><trkpt lat="42.373666849643904" lon="14.233779489237055"><ele>88.0</ele><time>2026-04-12T12:33:16Z</time></trkpt><trkpt lat="42.37369156891562" lon="14.233879139457779"><ele>88.0</ele><time>2026-04-12T12:33:17Z</time></trkpt><trkpt lat="42.373686787596924" lon="14.233996676017238"><ele>88.0</ele><time>2026-04-12T12:33:18Z</time></trkpt><trkpt lat="42.37364250532375" lon="14.2341208227412"><ele>84.75</ele><time>2026-04-12T12:33:19Z</time></trkpt><trkpt lat="42.37356721282999" lon="14.234257962809508"><ele>81.5</ele><time>2026-04-12T12:33:20Z</time></trkpt><trkpt lat="42.37348272540305" lon="14.23441519939413"><ele>78.25</ele><time>2026-04-12T12:33:21Z</time></trkpt><trkpt lat="42.37342740709118" lon="14.23457945941071"><ele>75.0</ele><time>2026-04-12T12:33:22Z</time></trkpt><trkpt lat="42.37341182462281" lon="14.234755431558598"><ele>73.25</ele><time>2026-04-12T12:33:23Z</time></trkpt><trkpt lat="42.37344985721849" lon="14.23494128425202"><ele>71.5</ele><time>2026-04-12T12:33:24Z</time></trkpt><trkpt lat="42.373511318286596" lon="14.235098757754137"><ele>69.75</ele><time>2026-04-12T12:33:25Z</time></trkpt><trkpt lat="42.37354536583113" lon="14.235229270789098"><ele>68.0</ele><time>2026-04-12T12:33:26Z</time></trkpt><trkpt lat="42.373529095079085" lon="14.235327719974661"><ele>68.0</ele><time>2026-04-12T12:33:27Z</time></trkpt><trkpt lat="42.37343284387434" lon="14.235421085733211"><ele>68.0</ele><time>2026-04-12T12:33:29Z</time></trkpt><trkpt lat="42.37333541123991" lon="14.23538148854508"><ele>68.0</ele><time>2026-04-12T12:33:30Z</time></trkpt><trkpt lat="42.373228941141576" lon="14.235291832292774"><ele>68.0</ele><time>2026-04-12T12:33:31Z</time></trkpt><trkpt lat="42.37311558669299" lon="14.235187369897439"><ele>65.66666666666667</ele><time>2026-04-12T12:33:32Z</time></trkpt><trkpt lat="42.3729792881092" lon="14.235092754184416"><ele>63.33333333333333</ele><time>2026-04-12T12:33:32.999Z</time></trkpt><trkpt lat="42.37283604449601" lon="14.234996725705653"><ele>61.0</ele><time>2026-04-12T12:33:33.999Z</time></trkpt><trkpt lat="42.372708931670694" lon="14.234907031675613"><ele>61.0</ele><time>2026-04-12T12:33:34.999Z</time></trkpt><trkpt lat="42.372578330917364" lon="14.234828081473209"><ele>61.0</ele><time>2026-04-12T12:33:35.999Z</time></trkpt><trkpt lat="42.372434403774925" lon="14.234789032173847"><ele>61.0</ele><time>2026-04-12T12:33:36.999Z</time></trkpt><trkpt lat="42.37227885598654" lon="14.234795577686132"><ele>61.0</ele><time>2026-04-12T12:33:37.999Z</time></trkpt><trkpt lat="42.372117795295694" lon="14.23480008512476"><ele>59.75</ele><time>2026-04-12T12:33:38.999Z</time></trkpt><trkpt lat="42.37195976849748" lon="14.234784285649015"><ele>58.5</ele><time>2026-04-12T12:33:39.999Z</time></trkpt><trkpt lat="42.3718192426285" lon="14.23473729963036"><ele>57.25</ele><time>2026-04-12T12:33:40.999Z</time></trkpt><trkpt lat="42.371694959118294" lon="14.234673201424611"><ele>56.0</ele><time>2026-04-12T12:33:41.999Z</time></trkpt><trkpt lat="42.37157780217365" lon="14.234585199210196"><ele>56.0</ele><time>2026-04-12T12:33:42.999Z</time></trkpt><trkpt lat="42.371464270931945" lon="14.23447302965385"><ele>56.0</ele><time>2026-04-12T12:33:43.999Z</time></trkpt><trkpt lat="42.3713467113553" lon="14.234351300739563"><ele>56.0</ele><time>2026-04-12T12:33:44.999Z</time></trkpt><trkpt lat="42.37121381167698" lon="14.234247581347"><ele>56.0</ele><time>2026-04-12T12:33:45.999Z</time></trkpt><trkpt lat="42.371064620383386" lon="14.234173488969011"><ele>54.333333333333336</ele><time>2026-04-12T12:33:46.999Z</time></trkpt><trkpt lat="42.37090629422564" lon="14.234136394687715"><ele>52.66666666666667</ele><time>2026-04-12T12:33:47.999Z</time></trkpt><trkpt lat="42.370732766274884" lon="14.234138917824948"><ele>51.0</ele><time>2026-04-12T12:33:48.999Z</time></trkpt><trkpt lat="42.37055115476307" lon="14.234168949438104"><ele>49.333333333333336</ele><time>2026-04-12T12:33:49.999Z</time></trkpt><trkpt lat="42.370361895263024" lon="14.234198321246556"><ele>47.66666666666667</ele><time>2026-04-12T12:33:50.999Z</time></trkpt><trkpt lat="42.37016910330847" lon="14.234222539819308"><ele>46.0</ele><time>2026-04-12T12:33:51.999Z</time></trkpt><trkpt lat="42.36997875184643" lon="14.23424875352767"><ele>46.0</ele><time>2026-04-12T12:33:52.999Z</time></trkpt><trkpt lat="42.36979064187901" lon="14.234270371399758"><ele>46.0</ele><time>2026-04-12T12:33:53.999Z</time></trkpt><trkpt lat="42.36960707504967" lon="14.234294413938724"><ele>46.0</ele><time>2026-04-12T12:33:54.999Z</time></trkpt><trkpt lat="42.369438590626814" lon="14.234317540618857"><ele>46.8</ele><time>2026-04-12T12:33:55.999Z</time></trkpt><trkpt lat="42.36929462138485" lon="14.234339396876907"><ele>47.599999999999994</ele><time>2026-04-12T12:33:56.999Z</time></trkpt><trkpt lat="42.36917051763744" lon="14.234359474713393"><ele>48.4</ele><time>2026-04-12T12:33:57.999Z</time></trkpt><trkpt lat="42.36907416280749" lon="14.23437893172547"><ele>49.2</ele><time>2026-04-12T12:33:58.999Z</time></trkpt><trkpt lat="42.3690105968467" lon="14.234378128807178"><ele>50.0</ele><time>2026-04-12T12:34:00.999Z</time></trkpt><trkpt lat="42.36907840741464" lon="14.23455744723583"><ele>50.0</ele><time>2026-04-12T12:34:02.999Z</time></trkpt><trkpt lat="42.36917999311194" lon="14.234587816702604"><ele>50.0</ele><time>2026-04-12T12:34:03.999Z</time></trkpt><trkpt lat="42.36929752335281" lon="14.234625838293024"><ele>50.0</ele><time>2026-04-12T12:34:04.999Z</time></trkpt><trkpt lat="42.369424039557835" lon="14.234614725340608"><ele>50.0</ele><time>2026-04-12T12:34:05.999Z</time></trkpt><trkpt lat="42.36955567057361" lon="14.234642818434475"><ele>50.0</ele><time>2026-04-12T12:34:06.999Z</time></trkpt><trkpt lat="42.369686581311946" lon="14.234653225560326"><ele>50.0</ele><time>2026-04-12T12:34:07.999Z</time></trkpt><trkpt lat="42.36980878328862" lon="14.234661919603601"><ele>50.0</ele><time>2026-04-12T12:34:08.999Z</time></trkpt><trkpt lat="42.36988435273419" lon="14.234704537253434"><ele>50.0</ele><time>2026-04-12T12:34:09.999Z</time></trkpt><trkpt lat="42.369975064543816" lon="14.234788011500864"><ele>50.0</ele><time>2026-04-12T12:34:11.999Z</time></trkpt><trkpt lat="42.36997345381727" lon="14.234899717331936"><ele>48.0</ele><time>2026-04-12T12:34:12.999Z</time></trkpt><trkpt lat="42.36995823197007" lon="14.235046376748267"><ele>46.0</ele><time>2026-04-12T12:34:13.999Z</time></trkpt><trkpt lat="42.36997245459719" lon="14.235204457883137"><ele>44.0</ele><time>2026-04-12T12:34:14.999Z</time></trkpt><trkpt lat="42.37000606933267" lon="14.235372205655459"><ele>42.0</ele><time>2026-04-12T12:34:15.999Z</time></trkpt><trkpt lat="42.3700448331694" lon="14.235540553609344"><ele>42.0</ele><time>2026-04-12T12:34:16.999Z</time></trkpt><trkpt lat="42.37006466497602" lon="14.235710101350836"><ele>42.0</ele><time>2026-04-12T12:34:17.999Z</time></trkpt><trkpt lat="42.37006343008707" lon="14.235869966385774"><ele>42.0</ele><time>2026-04-12T12:34:18.999Z</time></trkpt><trkpt lat="42.37004929374305" lon="14.236014471627575"><ele>42.0</ele><time>2026-04-12T12:34:19.999Z</time></trkpt><trkpt lat="42.37002519298695" lon="14.236182141014696"><ele>42.0</ele><time>2026-04-12T12:34:20.999Z</time></trkpt><trkpt lat="42.37000507014208" lon="14.236373316491527"><ele>42.0</ele><time>2026-04-12T12:34:21.999Z</time></trkpt><trkpt lat="42.36995272991307" lon="14.236569398407669"><ele>42.0</ele><time>2026-04-12T12:34:22.999Z</time></trkpt><trkpt lat="42.36992464371825" lon="14.23676975371689"><ele>42.0</ele><time>2026-04-12T12:34:23.999Z</time></trkpt><trkpt lat="42.3699321235968" lon="14.236939959846369"><ele>42.0</ele><time>2026-04-12T12:34:24.999Z</time></trkpt><trkpt lat="42.36995790902281" lon="14.237070746776995"><ele>42.0</ele><time>2026-04-12T12:34:25.999Z</time></trkpt><trkpt lat="42.37003572552574" lon="14.237169451659717"><ele>42.0</ele><time>2026-04-12T12:34:26.999Z</time></trkpt><trkpt lat="42.3701084220336" lon="14.237265117337866"><ele>42.0</ele><time>2026-04-12T12:34:27.999Z</time></trkpt><trkpt lat="42.37020347176397" lon="14.237345929521771"><ele>42.0</ele><time>2026-04-12T12:34:28.999Z</time></trkpt><trkpt lat="42.37031215251668" lon="14.2374297990783"><ele>42.0</ele><time>2026-04-12T12:34:29.999Z</time></trkpt><trkpt lat="42.3704215059868" lon="14.237543203727968"><ele>42.0</ele><time>2026-04-12T12:34:30.999Z</time></trkpt><trkpt lat="42.370548382793" lon="14.237645898444569"><ele>42.0</ele><time>2026-04-12T12:34:31.999Z</time></trkpt><trkpt lat="42.37069267696536" lon="14.2377393125811"><ele>42.0</ele><time>2026-04-12T12:34:32.999Z</time></trkpt><trkpt lat="42.37083370099996" lon="14.237860597058175"><ele>42.0</ele><time>2026-04-12T12:34:33.998Z</time></trkpt><trkpt lat="42.370972481603694" lon="14.237973590758838"><ele>42.0</ele><time>2026-04-12T12:34:34.998Z</time></trkpt><trkpt lat="42.37111121990169" lon="14.238077755192958"><ele>42.0</ele><time>2026-04-12T12:34:35.998Z</time></trkpt><trkpt lat="42.37124561635492" lon="14.238178541678694"><ele>42.333333333333336</ele><time>2026-04-12T12:34:36.998Z</time></trkpt><trkpt lat="42.37137498774644" lon="14.238310782872842"><ele>42.66666666666667</ele><time>2026-04-12T12:34:37.998Z</time></trkpt><trkpt lat="42.37151063938803" lon="14.238406093039025"><ele>43.0</ele><time>2026-04-12T12:34:38.998Z</time></trkpt><trkpt lat="42.37163543122899" lon="14.238529742458157"><ele>43.0</ele><time>2026-04-12T12:34:39.998Z</time></trkpt><trkpt lat="42.37175154066388" lon="14.238655765471437"><ele>43.0</ele><time>2026-04-12T12:34:40.998Z</time></trkpt><trkpt lat="42.37186141902742" lon="14.238811383274236"><ele>43.0</ele><time>2026-04-12T12:34:41.998Z</time></trkpt><trkpt lat="42.37197835949935" lon="14.238991561491302"><ele>42.333333333333336</ele><time>2026-04-12T12:34:42.998Z</time></trkpt><trkpt lat="42.372093159579634" lon="14.239174779855613"><ele>41.666666666666664</ele><time>2026-04-12T12:34:43.998Z</time></trkpt><trkpt lat="42.372214193258124" lon="14.239347977667661"><ele>41.0</ele><time>2026-04-12T12:34:44.998Z</time></trkpt><trkpt lat="42.37232930258554" lon="14.239478586937292"><ele>41.0</ele><time>2026-04-12T12:34:45.998Z</time></trkpt><trkpt lat="42.37244873452267" lon="14.2395986377684"><ele>41.0</ele><time>2026-04-12T12:34:46.998Z</time></trkpt><trkpt lat="42.37256210957059" lon="14.239712816895942"><ele>41.0</ele><time>2026-04-12T12:34:47.998Z</time></trkpt><trkpt lat="42.37264621506948" lon="14.23982103988598"><ele>41.0</ele><time>2026-04-12T12:34:49Z</time></trkpt><trkpt lat="42.37277230155225" lon="14.23993163203371"><ele>41.25</ele><time>2026-04-12T12:34:50Z</time></trkpt><trkpt lat="42.37289781040815" lon="14.240056419272204"><ele>41.5</ele><time>2026-04-12T12:34:51Z</time></trkpt><trkpt lat="42.37301208792263" lon="14.240161081450957"><ele>41.75</ele><time>2026-04-12T12:34:52Z</time></trkpt><trkpt lat="42.37312110615039" lon="14.240250425234873"><ele>42.0</ele><time>2026-04-12T12:34:53Z</time></trkpt><trkpt lat="42.373231975820744" lon="14.240325928061639"><ele>42.75</ele><time>2026-04-12T12:34:54Z</time></trkpt><trkpt lat="42.37333965111555" lon="14.240399080684233"><ele>43.5</ele><time>2026-04-12T12:34:55Z</time></trkpt><trkpt lat="42.373450062931795" lon="14.240493035480464"><ele>44.25</ele><time>2026-04-12T12:34:56Z</time></trkpt><trkpt lat="42.37356424681669" lon="14.240613875289796"><ele>45.0</ele><time>2026-04-12T12:34:57Z</time></trkpt><trkpt lat="42.373680700322815" lon="14.240758020646677"><ele>45.0</ele><time>2026-04-12T12:34:58Z</time></trkpt><trkpt lat="42.3738063613253" lon="14.240903407835184"><ele>45.0</ele><time>2026-04-12T12:34:59Z</time></trkpt><trkpt lat="42.37392835518301" lon="14.24104212789772"><ele>45.0</ele><time>2026-04-12T12:35:00Z</time></trkpt><trkpt lat="42.37403846313414" lon="14.24116365960673"><ele>42.0</ele><time>2026-04-12T12:35:01Z</time></trkpt><trkpt lat="42.3741636058577" lon="14.24126907549178"><ele>39.0</ele><time>2026-04-12T12:35:02Z</time></trkpt><trkpt lat="42.37431535027194" lon="14.241365016238648"><ele>36.0</ele><time>2026-04-12T12:35:03Z</time></trkpt><trkpt lat="42.374461473254" lon="14.241447148501017"><ele>35.333333333333336</ele><time>2026-04-12T12:35:04Z</time></trkpt><trkpt lat="42.37458628020329" lon="14.241549015091476"><ele>34.66666666666667</ele><time>2026-04-12T12:35:05Z</time></trkpt><trkpt lat="42.37468710946892" lon="14.241702033757573"><ele>34.0</ele><time>2026-04-12T12:35:06Z</time></trkpt><trkpt lat="42.37481472519727" lon="14.24184219383352"><ele>34.0</ele><time>2026-04-12T12:35:07Z</time></trkpt><trkpt lat="42.37493305714179" lon="14.241993708258732"><ele>34.0</ele><time>2026-04-12T12:35:08Z</time></trkpt><trkpt lat="42.375040653345785" lon="14.242123696402839"><ele>34.0</ele><time>2026-04-12T12:35:09Z</time></trkpt><trkpt lat="42.37512375386042" lon="14.2422493241948"><ele>34.0</ele><time>2026-04-12T12:35:10Z</time></trkpt><trkpt lat="42.37519753912185" lon="14.242360227801017"><ele>35.0</ele><time>2026-04-12T12:35:11Z</time></trkpt><trkpt lat="42.37524427974387" lon="14.242462888794387"><ele>36.0</ele><time>2026-04-12T12:35:12Z</time></trkpt><trkpt lat="42.3752730814756" lon="14.242575535247033"><ele>37.0</ele><time>2026-04-12T12:35:13Z</time></trkpt><trkpt lat="42.37523315988011" lon="14.242670398673754"><ele>38.0</ele><time>2026-04-12T12:35:14Z</time></trkpt><trkpt lat="42.37520865773436" lon="14.242809113448624"><ele>39.0</ele><time>2026-04-12T12:35:15Z</time></trkpt><trkpt lat="42.375169916921585" lon="14.242966956768415"><ele>40.5</ele><time>2026-04-12T12:35:16Z</time></trkpt><trkpt lat="42.37511735086968" lon="14.243136185275354"><ele>42.0</ele><time>2026-04-12T12:35:17Z</time></trkpt><trkpt lat="42.37505993744544" lon="14.243316280808092"><ele>43.5</ele><time>2026-04-12T12:35:18Z</time></trkpt><trkpt lat="42.375002694665014" lon="14.243501401947007"><ele>45.0</ele><time>2026-04-12T12:35:19Z</time></trkpt><trkpt lat="42.3749429903705" lon="14.243688413373109"><ele>45.0</ele><time>2026-04-12T12:35:20Z</time></trkpt><trkpt lat="42.37487833964599" lon="14.243884075194902"><ele>45.0</ele><time>2026-04-12T12:35:21Z</time></trkpt><trkpt lat="42.37481100912636" lon="14.244085065313307"><ele>45.0</ele><time>2026-04-12T12:35:22Z</time></trkpt><trkpt lat="42.37474736611008" lon="14.244267435752786"><ele>47.0</ele><time>2026-04-12T12:35:23Z</time></trkpt><trkpt lat="42.3746974281175" lon="14.244466007231045"><ele>49.0</ele><time>2026-04-12T12:35:24Z</time></trkpt><trkpt lat="42.37463730066992" lon="14.244669616980866"><ele>51.0</ele><time>2026-04-12T12:35:25Z</time></trkpt><trkpt lat="42.374571430729645" lon="14.244876795406386"><ele>56.33333333333333</ele><time>2026-04-12T12:35:26Z</time></trkpt><trkpt lat="42.37453555211503" lon="14.245104486989664"><ele>61.666666666666664</ele><time>2026-04-12T12:35:27Z</time></trkpt><trkpt lat="42.374487260151" lon="14.245329217288065"><ele>67.0</ele><time>2026-04-12T12:35:28Z</time></trkpt><trkpt lat="42.37444301014928" lon="14.245560804875431"><ele>69.0</ele><time>2026-04-12T12:35:29Z</time></trkpt><trkpt lat="42.37439281349596" lon="14.245791696363172"><ele>71.0</ele><time>2026-04-12T12:35:30Z</time></trkpt><trkpt lat="42.374340426790894" lon="14.246017911500175"><ele>73.0</ele><time>2026-04-12T12:35:31Z</time></trkpt><trkpt lat="42.37426582466596" lon="14.246207013228906"><ele>73.0</ele><time>2026-04-12T12:35:32Z</time></trkpt><trkpt lat="42.37418819170038" lon="14.246374953350577"><ele>73.0</ele><time>2026-04-12T12:35:33Z</time></trkpt><trkpt lat="42.37409608302472" lon="14.246544310076487"><ele>73.0</ele><time>2026-04-12T12:35:34Z</time></trkpt><trkpt lat="42.374034622100545" lon="14.246714082288179"><ele>73.0</ele><time>2026-04-12T12:35:35Z</time></trkpt><trkpt lat="42.373994809137876" lon="14.246851752828645"><ele>73.5</ele><time>2026-04-12T12:35:36Z</time></trkpt><trkpt lat="42.37399287916095" lon="14.246988628277204"><ele>74.0</ele><time>2026-04-12T12:35:36.999Z</time></trkpt><trkpt lat="42.3740120216128" lon="14.2471520788077"><ele>74.5</ele><time>2026-04-12T12:35:37.999Z</time></trkpt><trkpt lat="42.37398152279191" lon="14.247320522598203"><ele>75.0</ele><time>2026-04-12T12:35:38.999Z</time></trkpt><trkpt lat="42.373955820327694" lon="14.247498555498835"><ele>76.5</ele><time>2026-04-12T12:35:39.999Z</time></trkpt><trkpt lat="42.373902652753436" lon="14.247677069932966"><ele>78.0</ele><time>2026-04-12T12:35:40.999Z</time></trkpt><trkpt lat="42.37384790335189" lon="14.247829896301484"><ele>79.5</ele><time>2026-04-12T12:35:41.999Z</time></trkpt><trkpt lat="42.3738415715336" lon="14.247973811337921"><ele>81.0</ele><time>2026-04-12T12:35:42.999Z</time></trkpt><trkpt lat="42.37384440532244" lon="14.248137851250764"><ele>86.0</ele><time>2026-04-12T12:35:43.999Z</time></trkpt><trkpt lat="42.373848870031594" lon="14.24832243090863"><ele>91.0</ele><time>2026-04-12T12:35:44.999Z</time></trkpt><trkpt lat="42.37384665447561" lon="14.248517642835056"><ele>96.0</ele><time>2026-04-12T12:35:45.999Z</time></trkpt><trkpt lat="42.37383856109946" lon="14.248716974106012"><ele>101.0</ele><time>2026-04-12T12:35:46.999Z</time></trkpt><trkpt lat="42.37379395795615" lon="14.248907163523736"><ele>103.0</ele><time>2026-04-12T12:35:47.999Z</time></trkpt><trkpt lat="42.373753456372626" lon="14.249105481194341"><ele>105.0</ele><time>2026-04-12T12:35:48.999Z</time></trkpt><trkpt lat="42.3737113584877" lon="14.249308921357967"><ele>107.0</ele><time>2026-04-12T12:35:49.999Z</time></trkpt><trkpt lat="42.373683739827186" lon="14.249525080168405"><ele>107.0</ele><time>2026-04-12T12:35:50.999Z</time></trkpt><trkpt lat="42.37362399757625" lon="14.249732179967614"><ele>107.0</ele><time>2026-04-12T12:35:51.999Z</time></trkpt><trkpt lat="42.37358416492775" lon="14.249902628397964"><ele>107.0</ele><time>2026-04-12T12:35:52.999Z</time></trkpt><trkpt lat="42.373544226871296" lon="14.250047446661693"><ele>107.0</ele><time>2026-04-12T12:35:53.999Z</time></trkpt><trkpt lat="42.37350483584874" lon="14.250173088414911"><ele>107.6</ele><time>2026-04-12T12:35:54.999Z</time></trkpt><trkpt lat="42.37349987795303" lon="14.250285872399722"><ele>108.19999999999999</ele><time>2026-04-12T12:35:55.999Z</time></trkpt><trkpt lat="42.373548748761785" lon="14.250380085666027"><ele>108.8</ele><time>2026-04-12T12:35:56.999Z</time></trkpt><trkpt lat="42.37365754194188" lon="14.250424511914622"><ele>109.4</ele><time>2026-04-12T12:35:57.999Z</time></trkpt><trkpt lat="42.373756385316504" lon="14.250514315703848"><ele>110.0</ele><time>2026-04-12T12:35:58.999Z</time></trkpt><trkpt lat="42.37385426107757" lon="14.250597994846206"><ele>110.0</ele><time>2026-04-12T12:35:59.999Z</time></trkpt><trkpt lat="42.37394188180141" lon="14.250693264064722"><ele>110.0</ele><time>2026-04-12T12:36:00.999Z</time></trkpt><trkpt lat="42.37401545600413" lon="14.250825400543553"><ele>110.0</ele><time>2026-04-12T12:36:01.999Z</time></trkpt><trkpt lat="42.3740572005879" lon="14.250980845115514"><ele>110.0</ele><time>2026-04-12T12:36:02.999Z</time></trkpt><trkpt lat="42.374082432985205" lon="14.251126509821944"><ele>110.0</ele><time>2026-04-12T12:36:03.999Z</time></trkpt><trkpt lat="42.37407875054654" lon="14.251280379714938"><ele>110.0</ele><time>2026-04-12T12:36:04.999Z</time></trkpt><trkpt lat="42.37405560939725" lon="14.251459404042349"><ele>110.0</ele><time>2026-04-12T12:36:05.999Z</time></trkpt><trkpt lat="42.37401873443533" lon="14.251644480762094"><ele>110.0</ele><time>2026-04-12T12:36:06.999Z</time></trkpt><trkpt lat="42.37397423295748" lon="14.2518390771997"><ele>113.0</ele><time>2026-04-12T12:36:07.999Z</time></trkpt><trkpt lat="42.373925326171864" lon="14.252039946856334"><ele>116.0</ele><time>2026-04-12T12:36:08.999Z</time></trkpt><trkpt lat="42.37387537446799" lon="14.252245410896245"><ele>119.0</ele><time>2026-04-12T12:36:09.999Z</time></trkpt><trkpt lat="42.37383051229855" lon="14.25245081896349"><ele>127.0</ele><time>2026-04-12T12:36:10.999Z</time></trkpt><trkpt lat="42.373792504895675" lon="14.252659691402654"><ele>135.0</ele><time>2026-04-12T12:36:11.999Z</time></trkpt><trkpt lat="42.37377265271967" lon="14.252869430035906"><ele>143.0</ele><time>2026-04-12T12:36:12.999Z</time></trkpt><trkpt lat="42.37376739996274" lon="14.2530845778295"><ele>149.0</ele><time>2026-04-12T12:36:13.999Z</time></trkpt><trkpt lat="42.373769534247145" lon="14.253297799200773"><ele>155.0</ele><time>2026-04-12T12:36:14.999Z</time></trkpt><trkpt lat="42.37377786255886" lon="14.253506359521975"><ele>161.0</ele><time>2026-04-12T12:36:15.999Z</time></trkpt><trkpt lat="42.373792940024124" lon="14.253705284930644"><ele>161.0</ele><time>2026-04-12T12:36:16.999Z</time></trkpt><trkpt lat="42.37382768885176" lon="14.253876891143651"><ele>161.0</ele><time>2026-04-12T12:36:17.999Z</time></trkpt><trkpt lat="42.37383708574953" lon="14.254094226125718"><ele>161.0</ele><time>2026-04-12T12:36:18.999Z</time></trkpt><trkpt lat="42.3738774905191" lon="14.254316488328639"><ele>162.0</ele><time>2026-04-12T12:36:19.999Z</time></trkpt><trkpt lat="42.373954170341605" lon="14.25452136217059"><ele>163.0</ele><time>2026-04-12T12:36:20.999Z</time></trkpt><trkpt lat="42.37406532420261" lon="14.254693714601094"><ele>164.0</ele><time>2026-04-12T12:36:21.999Z</time></trkpt><trkpt lat="42.37415869404683" lon="14.254920787214461"><ele>164.0</ele><time>2026-04-12T12:36:22.999Z</time></trkpt><trkpt lat="42.37424237894795" lon="14.255118115317174"><ele>164.0</ele><time>2026-04-12T12:36:23.999Z</time></trkpt><trkpt lat="42.37429600465569" lon="14.255279052356551"><ele>164.0</ele><time>2026-04-12T12:36:24.999Z</time></trkpt><trkpt lat="42.37433752401173" lon="14.255436599213594"><ele>164.0</ele><time>2026-04-12T12:36:25.999Z</time></trkpt><trkpt lat="42.37437013741023" lon="14.255606413567891"><ele>164.39999999999998</ele><time>2026-04-12T12:36:26.999Z</time></trkpt><trkpt lat="42.37438502799131" lon="14.25575167065654"><ele>164.8</ele><time>2026-04-12T12:36:27.999Z</time></trkpt><trkpt lat="42.37437760040007" lon="14.255850497571322"><ele>165.2</ele><time>2026-04-12T12:36:28.999Z</time></trkpt><trkpt lat="42.37437609957646" lon="14.255950540829552"><ele>165.60000000000002</ele><time>2026-04-12T12:36:30.999Z</time></trkpt><trkpt lat="42.37435298042244" lon="14.256032518013646"><ele>166.0</ele><time>2026-04-12T12:36:44.998Z</time></trkpt><trkpt lat="42.374522295808795" lon="14.256211053344432"><ele>166.0</ele><time>2026-04-12T12:36:46.998Z</time></trkpt><trkpt lat="42.374631976151086" lon="14.25629768164197"><ele>166.0</ele><time>2026-04-12T12:36:47.998Z</time></trkpt><trkpt lat="42.374746845674366" lon="14.256396160203273"><ele>166.0</ele><time>2026-04-12T12:36:48.998Z</time></trkpt><trkpt lat="42.37487217515515" lon="14.25652752491879"><ele>166.0</ele><time>2026-04-12T12:36:49.998Z</time></trkpt><trkpt lat="42.375002255321654" lon="14.256664161456138"><ele>166.66666666666669</ele><time>2026-04-12T12:36:50.998Z</time></trkpt><trkpt lat="42.375138480028525" lon="14.256797915703128"><ele>167.33333333333334</ele><time>2026-04-12T12:36:51.998Z</time></trkpt><trkpt lat="42.375276995490594" lon="14.256960907237044"><ele>168.0</ele><time>2026-04-12T12:36:52.998Z</time></trkpt><trkpt lat="42.37540544440845" lon="14.25715349988453"><ele>168.66666666666666</ele><time>2026-04-12T12:36:53.998Z</time></trkpt><trkpt lat="42.375525001880824" lon="14.257349502012753"><ele>169.33333333333331</ele><time>2026-04-12T12:36:55Z</time></trkpt><trkpt lat="42.37564822626358" lon="14.257555737253679"><ele>170.0</ele><time>2026-04-12T12:36:56Z</time></trkpt><trkpt lat="42.37577790347454" lon="14.2577681005093"><ele>170.0</ele><time>2026-04-12T12:36:57Z</time></trkpt><trkpt lat="42.37591145085915" lon="14.2579852242967"><ele>170.0</ele><time>2026-04-12T12:36:58Z</time></trkpt><trkpt lat="42.37604923648979" lon="14.258201768206547"><ele>170.0</ele><time>2026-04-12T12:36:59Z</time></trkpt><trkpt lat="42.37618656843967" lon="14.258423401537552"><ele>171.33333333333331</ele><time>2026-04-12T12:37:00Z</time></trkpt><trkpt lat="42.376325472679525" lon="14.258641525945782"><ele>172.66666666666666</ele><time>2026-04-12T12:37:01Z</time></trkpt><trkpt lat="42.376462972261194" lon="14.258860552821629"><ele>174.0</ele><time>2026-04-12T12:37:02Z</time></trkpt><trkpt lat="42.37659057155024" lon="14.259063301277035"><ele>174.0</ele><time>2026-04-12T12:37:03Z</time></trkpt><trkpt lat="42.37667865531673" lon="14.2592114319426"><ele>174.0</ele><time>2026-04-12T12:37:04Z</time></trkpt><trkpt lat="42.37675319574602" lon="14.259333534905515"><ele>174.0</ele><time>2026-04-12T12:37:05Z</time></trkpt><trkpt lat="42.37680152465245" lon="14.25943499862923"><ele>174.0</ele><time>2026-04-12T12:37:06Z</time></trkpt><trkpt lat="42.37680623965007" lon="14.259548633413244"><ele>174.0</ele><time>2026-04-12T12:37:07Z</time></trkpt><trkpt lat="42.37674465376674" lon="14.25969667324329"><ele>172.75</ele><time>2026-04-12T12:37:08Z</time></trkpt><trkpt lat="42.37675036507344" lon="14.259870731602115"><ele>171.5</ele><time>2026-04-12T12:37:09Z</time></trkpt><trkpt lat="42.37675888269719" lon="14.260072501847114"><ele>170.25</ele><time>2026-04-12T12:37:10Z</time></trkpt><trkpt lat="42.37676690221253" lon="14.260283953263267"><ele>169.0</ele><time>2026-04-12T12:37:11Z</time></trkpt><trkpt lat="42.37677014587353" lon="14.26049712834291"><ele>167.33333333333334</ele><time>2026-04-12T12:37:12Z</time></trkpt><trkpt lat="42.37676496461044" lon="14.260713209797956"><ele>165.66666666666666</ele><time>2026-04-12T12:37:13Z</time></trkpt><trkpt lat="42.3767378606406" lon="14.26092831579901"><ele>164.0</ele><time>2026-04-12T12:37:14Z</time></trkpt><trkpt lat="42.376708374439765" lon="14.261132487587759"><ele>164.0</ele><time>2026-04-12T12:37:15Z</time></trkpt><trkpt lat="42.37667895263716" lon="14.261317040778366"><ele>164.0</ele><time>2026-04-12T12:37:16Z</time></trkpt><trkpt lat="42.37666089686087" lon="14.261489526517408"><ele>164.0</ele><time>2026-04-12T12:37:17Z</time></trkpt><trkpt lat="42.37667043757943" lon="14.26169419601847"><ele>164.0</ele><time>2026-04-12T12:37:18Z</time></trkpt><trkpt lat="42.3767016420049" lon="14.261921992543893"><ele>162.66666666666666</ele><time>2026-04-12T12:37:19Z</time></trkpt><trkpt lat="42.37673108076767" lon="14.262160758224239"><ele>161.33333333333334</ele><time>2026-04-12T12:37:20Z</time></trkpt><trkpt lat="42.37675507784794" lon="14.262384546061083"><ele>160.0</ele><time>2026-04-12T12:37:21Z</time></trkpt><trkpt lat="42.376778602047196" lon="14.262596362412742"><ele>156.66666666666669</ele><time>2026-04-12T12:37:22Z</time></trkpt><trkpt lat="42.376804894397154" lon="14.262801902716177"><ele>153.33333333333334</ele><time>2026-04-12T12:37:23Z</time></trkpt><trkpt lat="42.37685652839099" lon="14.263027690594834"><ele>150.0</ele><time>2026-04-12T12:37:24Z</time></trkpt><trkpt lat="42.376939970938274" lon="14.263252493375903"><ele>147.66666666666666</ele><time>2026-04-12T12:37:25Z</time></trkpt><trkpt lat="42.37701989076187" lon="14.263486993174618"><ele>145.33333333333331</ele><time>2026-04-12T12:37:26Z</time></trkpt><trkpt lat="42.377104412789066" lon="14.263731350756157"><ele>143.0</ele><time>2026-04-12T12:37:27Z</time></trkpt><trkpt lat="42.377191897082895" lon="14.263972865777927"><ele>143.0</ele><time>2026-04-12T12:37:28Z</time></trkpt><trkpt lat="42.37728084655052" lon="14.26420901365615"><ele>143.0</ele><time>2026-04-12T12:37:29Z</time></trkpt><trkpt lat="42.377378617806514" lon="14.264435051167046"><ele>143.0</ele><time>2026-04-12T12:37:30Z</time></trkpt><trkpt lat="42.37747543611187" lon="14.264642969204054"><ele>141.0</ele><time>2026-04-12T12:37:31Z</time></trkpt><trkpt lat="42.37755198162271" lon="14.264819146967804"><ele>139.0</ele><time>2026-04-12T12:37:32Z</time></trkpt><trkpt lat="42.37761117189227" lon="14.264999644800815"><ele>137.0</ele><time>2026-04-12T12:37:33Z</time></trkpt><trkpt lat="42.37763858913183" lon="14.265196011283964"><ele>135.0</ele><time>2026-04-12T12:37:34Z</time></trkpt><trkpt lat="42.37763594415124" lon="14.265384104467989"><ele>135.0</ele><time>2026-04-12T12:37:35Z</time></trkpt><trkpt lat="42.377629936034296" lon="14.26560081990078"><ele>135.0</ele><time>2026-04-12T12:37:36Z</time></trkpt><trkpt lat="42.377637531200826" lon="14.265824326327188"><ele>135.0</ele><time>2026-04-12T12:37:37Z</time></trkpt><trkpt lat="42.37764901958589" lon="14.266026021200972"><ele>133.5</ele><time>2026-04-12T12:37:38Z</time></trkpt><trkpt lat="42.3776586997926" lon="14.266219448009323"><ele>132.0</ele><time>2026-04-12T12:37:38.999Z</time></trkpt><trkpt lat="42.37765279214702" lon="14.266409114017817"><ele>130.5</ele><time>2026-04-12T12:37:39.999Z</time></trkpt><trkpt lat="42.377642194521044" lon="14.266587773839145"><ele>129.0</ele><time>2026-04-12T12:37:40.999Z</time></trkpt><trkpt lat="42.37764238716053" lon="14.266741249997793"><ele>127.4</ele><time>2026-04-12T12:37:41.999Z</time></trkpt><trkpt lat="42.37765493495473" lon="14.266900255608336"><ele>125.80000000000001</ele><time>2026-04-12T12:37:42.999Z</time></trkpt><trkpt lat="42.37766557369367" lon="14.267042409835565"><ele>124.19999999999999</ele><time>2026-04-12T12:37:43.999Z</time></trkpt><trkpt lat="42.37767286625089" lon="14.267134783648228"><ele>122.6</ele><time>2026-04-12T12:37:44.999Z</time></trkpt><trkpt lat="42.37761641375791" lon="14.267258247068225"><ele>121.0</ele><time>2026-04-12T12:37:46.999Z</time></trkpt><trkpt lat="42.37750381273334" lon="14.26722826306766"><ele>121.0</ele><time>2026-04-12T12:37:47.999Z</time></trkpt><trkpt lat="42.37735983414441" lon="14.267262989093872"><ele>121.0</ele><time>2026-04-12T12:37:48.999Z</time></trkpt><trkpt lat="42.37720293342796" lon="14.267308458649772"><ele>121.0</ele><time>2026-04-12T12:37:49.999Z</time></trkpt><trkpt lat="42.377034125627574" lon="14.267355072478237"><ele>118.25</ele><time>2026-04-12T12:37:50.999Z</time></trkpt><trkpt lat="42.376879044412256" lon="14.267389246799368"><ele>115.5</ele><time>2026-04-12T12:37:51.999Z</time></trkpt><trkpt lat="42.37673942332925" lon="14.267420037823594"><ele>112.75</ele><time>2026-04-12T12:37:52.999Z</time></trkpt><trkpt lat="42.37659721778928" lon="14.267431319265581"><ele>110.0</ele><time>2026-04-12T12:37:53.999Z</time></trkpt><trkpt lat="42.37647925939759" lon="14.267461664532142"><ele>110.0</ele><time>2026-04-12T12:37:54.999Z</time></trkpt><trkpt lat="42.37636894102961" lon="14.26756875918859"><ele>110.0</ele><time>2026-04-12T12:37:55.999Z</time></trkpt><trkpt lat="42.376266947495026" lon="14.267707090062885"><ele>110.0</ele><time>2026-04-12T12:37:56.999Z</time></trkpt><trkpt lat="42.37623000754235" lon="14.267871531078413"><ele>110.0</ele><time>2026-04-12T12:37:57.999Z</time></trkpt><trkpt lat="42.376185471486934" lon="14.268060751277838"><ele>116.33333333333333</ele><time>2026-04-12T12:37:58.999Z</time></trkpt><trkpt lat="42.37612579606983" lon="14.268289931561998"><ele>122.66666666666666</ele><time>2026-04-12T12:37:59.999Z</time></trkpt><trkpt lat="42.37606563429263" lon="14.268501044129103"><ele>129.0</ele><time>2026-04-12T12:38:00.999Z</time></trkpt><trkpt lat="42.376000872472154" lon="14.268713307789096"><ele>129.0</ele><time>2026-04-12T12:38:01.999Z</time></trkpt><trkpt lat="42.37595534857434" lon="14.268900218423784"><ele>129.0</ele><time>2026-04-12T12:38:02.999Z</time></trkpt><trkpt lat="42.375902484462415" lon="14.269093064607715"><ele>129.0</ele><time>2026-04-12T12:38:03.999Z</time></trkpt><trkpt lat="42.37584189451505" lon="14.269297802231836"><ele>128.25</ele><time>2026-04-12T12:38:04.999Z</time></trkpt><trkpt lat="42.375780052943526" lon="14.269482775407822"><ele>127.5</ele><time>2026-04-12T12:38:05.999Z</time></trkpt><trkpt lat="42.37571302036412" lon="14.269663177308775"><ele>126.75</ele><time>2026-04-12T12:38:06.999Z</time></trkpt><trkpt lat="42.375648481551146" lon="14.26982793325632"><ele>126.0</ele><time>2026-04-12T12:38:07.999Z</time></trkpt><trkpt lat="42.37558755591561" lon="14.269980090227493"><ele>133.25</ele><time>2026-04-12T12:38:08.999Z</time></trkpt><trkpt lat="42.37551848627033" lon="14.270145117597261"><ele>140.5</ele><time>2026-04-12T12:38:09.999Z</time></trkpt><trkpt lat="42.375459328339616" lon="14.270282274986304"><ele>147.75</ele><time>2026-04-12T12:38:10.999Z</time></trkpt><trkpt lat="42.37539565065705" lon="14.270422425148316"><ele>155.0</ele><time>2026-04-12T12:38:11.999Z</time></trkpt><trkpt lat="42.37532536762417" lon="14.27055125394947"><ele>152.25</ele><time>2026-04-12T12:38:12.999Z</time></trkpt><trkpt lat="42.375256131214456" lon="14.270664429993928"><ele>149.5</ele><time>2026-04-12T12:38:13.999Z</time></trkpt><trkpt lat="42.37517274302876" lon="14.270786076037107"><ele>146.75</ele><time>2026-04-12T12:38:14.999Z</time></trkpt><trkpt lat="42.375096823234834" lon="14.270887471256438"><ele>144.0</ele><time>2026-04-12T12:38:15.999Z</time></trkpt><trkpt lat="42.37496667462614" lon="14.270931843175362"><ele>144.0</ele><time>2026-04-12T12:38:17.999Z</time></trkpt><trkpt lat="42.37487601900676" lon="14.270969451030922"><ele>144.0</ele><time>2026-04-12T12:38:18.999Z</time></trkpt><trkpt lat="42.374797513972055" lon="14.270916582498664"><ele>144.0</ele><time>2026-04-12T12:38:19.999Z</time></trkpt><trkpt lat="42.37466612191132" lon="14.270869235468131"><ele>144.0</ele><time>2026-04-12T12:38:20.999Z</time></trkpt><trkpt lat="42.37453014984296" lon="14.270848522027611"><ele>146.0</ele><time>2026-04-12T12:38:21.999Z</time></trkpt><trkpt lat="42.37440217911827" lon="14.270867756822236"><ele>148.0</ele><time>2026-04-12T12:38:22.999Z</time></trkpt><trkpt lat="42.37430813291376" lon="14.270875419576592"><ele>150.0</ele><time>2026-04-12T12:38:23.999Z</time></trkpt><trkpt lat="42.37423678475526" lon="14.270903534081048"><ele>152.0</ele><time>2026-04-12T12:38:25.999Z</time></trkpt><trkpt lat="42.37415544964922" lon="14.270900768053021"><ele>154.0</ele><time>2026-04-12T12:38:26.999Z</time></trkpt><trkpt lat="42.37408629925489" lon="14.271076815547133"><ele>154.0</ele><time>2026-04-12T12:38:27.999Z</time></trkpt><trkpt lat="42.37404021122528" lon="14.27118772667726"><ele>154.0</ele><time>2026-04-12T12:38:28.999Z</time></trkpt><trkpt lat="42.37402123645453" lon="14.27131060936119"><ele>154.0</ele><time>2026-04-12T12:38:29.999Z</time></trkpt><trkpt lat="42.373998115741806" lon="14.271434030597739"><ele>154.0</ele><time>2026-04-12T12:38:30.999Z</time></trkpt><trkpt lat="42.37392572925415" lon="14.271526217397993"><ele>154.0</ele><time>2026-04-12T12:38:31.999Z</time></trkpt><trkpt lat="42.373866098236306" lon="14.271621873929977"><ele>149.5</ele><time>2026-04-12T12:38:32.999Z</time></trkpt><trkpt lat="42.37374954637391" lon="14.27168493045198"><ele>145.0</ele><time>2026-04-12T12:38:33.999Z</time></trkpt><trkpt lat="42.37361344229933" lon="14.271776681600628"><ele>140.5</ele><time>2026-04-12T12:38:34.999Z</time></trkpt><trkpt lat="42.37347130097558" lon="14.271864339087077"><ele>136.0</ele><time>2026-04-12T12:38:35.999Z</time></trkpt><trkpt lat="42.37334044629878" lon="14.271929601835412"><ele>136.0</ele><time>2026-04-12T12:38:36.999Z</time></trkpt><trkpt lat="42.3732102385976" lon="14.27194961402992"><ele>136.0</ele><time>2026-04-12T12:38:37.999Z</time></trkpt><trkpt lat="42.373051464342424" lon="14.271951597560056"><ele>136.0</ele><time>2026-04-12T12:38:38.999Z</time></trkpt><trkpt lat="42.37287395994841" lon="14.271953682208014"><ele>132.66666666666669</ele><time>2026-04-12T12:38:39.998Z</time></trkpt><trkpt lat="42.37268390939768" lon="14.271964867067396"><ele>129.33333333333334</ele><time>2026-04-12T12:38:40.998Z</time></trkpt><trkpt lat="42.37249715474517" lon="14.271983141203618"><ele>126.0</ele><time>2026-04-12T12:38:41.998Z</time></trkpt><trkpt lat="42.3723432264816" lon="14.272013776343815"><ele>126.0</ele><time>2026-04-12T12:38:42.998Z</time></trkpt><trkpt lat="42.372229979489134" lon="14.271988377454774"><ele>126.0</ele><time>2026-04-12T12:38:43.998Z</time></trkpt><trkpt lat="42.372140143874326" lon="14.271987822514662"><ele>126.0</ele><time>2026-04-12T12:38:44.998Z</time></trkpt><trkpt lat="42.37207497662052" lon="14.272018363133556"><ele>126.0</ele><time>2026-04-12T12:38:45.998Z</time></trkpt><trkpt lat="42.3720037536125" lon="14.272085409916029"><ele>126.0</ele><time>2026-04-12T12:38:46.998Z</time></trkpt><trkpt lat="42.371922943133896" lon="14.272217316769503"><ele>119.33333333333334</ele><time>2026-04-12T12:38:47.998Z</time></trkpt><trkpt lat="42.371845119584535" lon="14.272395976390753"><ele>112.66666666666667</ele><time>2026-04-12T12:38:48.998Z</time></trkpt><trkpt lat="42.37175527029129" lon="14.272597784150738"><ele>106.0</ele><time>2026-04-12T12:38:49.998Z</time></trkpt><trkpt lat="42.37167088920491" lon="14.27283142470357"><ele>106.0</ele><time>2026-04-12T12:38:50.998Z</time></trkpt><trkpt lat="42.37158331159053" lon="14.273082936137618"><ele>106.0</ele><time>2026-04-12T12:38:51.998Z</time></trkpt><trkpt lat="42.37148275977279" lon="14.273381517570556"><ele>106.0</ele><time>2026-04-12T12:38:52.998Z</time></trkpt><trkpt lat="42.37140240002924" lon="14.273632642304362"><ele>100.33333333333334</ele><time>2026-04-12T12:38:53.998Z</time></trkpt><trkpt lat="42.37133672875484" lon="14.273855261154246"><ele>94.66666666666667</ele><time>2026-04-12T12:38:54.998Z</time></trkpt><trkpt lat="42.37128552884834" lon="14.274054224813865"><ele>89.0</ele><time>2026-04-12T12:38:55.998Z</time></trkpt><trkpt lat="42.37125416658858" lon="14.27424928398832"><ele>86.66666666666667</ele><time>2026-04-12T12:38:56.998Z</time></trkpt><trkpt lat="42.371237573823414" lon="14.274449293024682"><ele>84.33333333333333</ele><time>2026-04-12T12:38:57.998Z</time></trkpt><trkpt lat="42.37124931231807" lon="14.274663470760602"><ele>82.0</ele><time>2026-04-12T12:38:58.998Z</time></trkpt><trkpt lat="42.371266968621605" lon="14.274890890394651"><ele>81.0</ele><time>2026-04-12T12:38:59.998Z</time></trkpt><trkpt lat="42.37126453142605" lon="14.275126706403755"><ele>80.0</ele><time>2026-04-12T12:39:01Z</time></trkpt><trkpt lat="42.37124303391583" lon="14.275359584574588"><ele>79.0</ele><time>2026-04-12T12:39:02Z</time></trkpt><trkpt lat="42.37121002241429" lon="14.275594019723183"><ele>79.0</ele><time>2026-04-12T12:39:03Z</time></trkpt><trkpt lat="42.37116660652851" lon="14.275822362164629"><ele>79.0</ele><time>2026-04-12T12:39:04Z</time></trkpt><trkpt lat="42.371116163444796" lon="14.276059988634357"><ele>79.0</ele><time>2026-04-12T12:39:05Z</time></trkpt><trkpt lat="42.37105551716972" lon="14.276310747415781"><ele>78.33333333333333</ele><time>2026-04-12T12:39:06Z</time></trkpt><trkpt lat="42.37099315725943" lon="14.276566603205064"><ele>77.66666666666667</ele><time>2026-04-12T12:39:07Z</time></trkpt><trkpt lat="42.37093370271981" lon="14.276827987253126"><ele>77.0</ele><time>2026-04-12T12:39:08Z</time></trkpt><trkpt lat="42.37087605243672" lon="14.27708728558561"><ele>77.0</ele><time>2026-04-12T12:39:09Z</time></trkpt><trkpt lat="42.3708258959671" lon="14.277314208286334"><ele>77.0</ele><time>2026-04-12T12:39:10Z</time></trkpt><trkpt lat="42.37077832912472" lon="14.277522807089147"><ele>77.0</ele><time>2026-04-12T12:39:11Z</time></trkpt><trkpt lat="42.370727251628956" lon="14.277727812076787"><ele>77.0</ele><time>2026-04-12T12:39:12Z</time></trkpt><trkpt lat="42.37070547117786" lon="14.27796181533568"><ele>77.0</ele><time>2026-04-12T12:39:13Z</time></trkpt><trkpt lat="42.370635204652054" lon="14.278173717475465"><ele>77.0</ele><time>2026-04-12T12:39:14Z</time></trkpt><trkpt lat="42.37055189664316" lon="14.278376482302034"><ele>74.33333333333334</ele><time>2026-04-12T12:39:15Z</time></trkpt><trkpt lat="42.370450580387974" lon="14.278566878878353"><ele>71.66666666666667</ele><time>2026-04-12T12:39:16Z</time></trkpt><trkpt lat="42.370309159367224" lon="14.2787134918362"><ele>69.0</ele><time>2026-04-12T12:39:17Z</time></trkpt><trkpt lat="42.37017944272374" lon="14.27886504599877"><ele>68.33333333333333</ele><time>2026-04-12T12:39:18Z</time></trkpt><trkpt lat="42.37003243093036" lon="14.278990643482436"><ele>67.66666666666666</ele><time>2026-04-12T12:39:19Z</time></trkpt><trkpt lat="42.36989235041179" lon="14.279105021210919"><ele>67.0</ele><time>2026-04-12T12:39:20Z</time></trkpt><trkpt lat="42.36978872674229" lon="14.279217839340891"><ele>67.0</ele><time>2026-04-12T12:39:21Z</time></trkpt><trkpt lat="42.3697135925435" lon="14.279304053667358"><ele>67.0</ele><time>2026-04-12T12:39:22Z</time></trkpt><trkpt lat="42.36964743186795" lon="14.279403370473423"><ele>67.0</ele><time>2026-04-12T12:39:23Z</time></trkpt><trkpt lat="42.36963972879525" lon="14.279565485103427"><ele>67.0</ele><time>2026-04-12T12:39:24Z</time></trkpt><trkpt lat="42.369648141618576" lon="14.279755336854954"><ele>66.66666666666666</ele><time>2026-04-12T12:39:25Z</time></trkpt><trkpt lat="42.3696620461439" lon="14.279958900643123"><ele>66.33333333333333</ele><time>2026-04-12T12:39:26Z</time></trkpt><trkpt lat="42.36967369529859" lon="14.28016950498311"><ele>66.0</ele><time>2026-04-12T12:39:27Z</time></trkpt><trkpt lat="42.369682668246135" lon="14.280385919167816"><ele>65.66666666666667</ele><time>2026-04-12T12:39:28Z</time></trkpt><trkpt lat="42.369686123574695" lon="14.280618656634882"><ele>65.33333333333334</ele><time>2026-04-12T12:39:29Z</time></trkpt><trkpt lat="42.36968905030096" lon="14.280861199975693"><ele>65.0</ele><time>2026-04-12T12:39:30Z</time></trkpt><trkpt lat="42.36969090728931" lon="14.281109118097907"><ele>65.0</ele><time>2026-04-12T12:39:31Z</time></trkpt><trkpt lat="42.36969059387218" lon="14.281355439603434"><ele>65.0</ele><time>2026-04-12T12:39:32Z</time></trkpt><trkpt lat="42.36968883740922" lon="14.281595051679204"><ele>65.0</ele><time>2026-04-12T12:39:33Z</time></trkpt><trkpt lat="42.369689454586194" lon="14.281806979006756"><ele>64.4</ele><time>2026-04-12T12:39:34Z</time></trkpt><trkpt lat="42.36968891421554" lon="14.281985189434872"><ele>63.8</ele><time>2026-04-12T12:39:35Z</time></trkpt><trkpt lat="42.36967490430202" lon="14.282126018996754"><ele>63.2</ele><time>2026-04-12T12:39:36Z</time></trkpt><trkpt lat="42.369651767374975" lon="14.282214326149541"><ele>62.6</ele><time>2026-04-12T12:39:37Z</time></trkpt><trkpt lat="42.36958862233353" lon="14.28226228296619"><ele>62.0</ele><time>2026-04-12T12:39:39Z</time></trkpt><trkpt lat="42.36953032439989" lon="14.282204311664689"><ele>62.0</ele><time>2026-04-12T12:39:40Z</time></trkpt><trkpt lat="42.369481159444604" lon="14.282084635787678"><ele>62.0</ele><time>2026-04-12T12:39:41Z</time></trkpt><trkpt lat="42.36941092391046" lon="14.281961887484565"><ele>62.0</ele><time>2026-04-12T12:39:42Z</time></trkpt><trkpt lat="42.36935462156744" lon="14.281820890621598"><ele>62.0</ele><time>2026-04-12T12:39:43Z</time></trkpt><trkpt lat="42.36926299039166" lon="14.281671539781502"><ele>62.0</ele><time>2026-04-12T12:39:43.999Z</time></trkpt><trkpt lat="42.36915141550813" lon="14.281502777964056"><ele>62.0</ele><time>2026-04-12T12:39:44.999Z</time></trkpt><trkpt lat="42.36903698133876" lon="14.281326648363546"><ele>62.0</ele><time>2026-04-12T12:39:45.999Z</time></trkpt><trkpt lat="42.368906143327294" lon="14.281097165375963"><ele>62.333333333333336</ele><time>2026-04-12T12:39:46.999Z</time></trkpt><trkpt lat="42.36878049383789" lon="14.280878875073077"><ele>62.66666666666667</ele><time>2026-04-12T12:39:47.999Z</time></trkpt><trkpt lat="42.368668038536384" lon="14.280676343587157"><ele>63.0</ele><time>2026-04-12T12:39:48.999Z</time></trkpt><trkpt lat="42.368558888162354" lon="14.280500071347234"><ele>62.599999999999994</ele><time>2026-04-12T12:39:49.999Z</time></trkpt><trkpt lat="42.368487412329905" lon="14.280344505991026"><ele>62.199999999999996</ele><time>2026-04-12T12:39:50.999Z</time></trkpt><trkpt lat="42.36843738848028" lon="14.280252516557217"><ele>61.8</ele><time>2026-04-12T12:39:51.999Z</time></trkpt><trkpt lat="42.368348968772715" lon="14.280140913811902"><ele>61.4</ele><time>2026-04-12T12:39:52.999Z</time></trkpt><trkpt lat="42.368274523847155" lon="14.280105414509181"><ele>61.0</ele><time>2026-04-12T12:39:53.999Z</time></trkpt><trkpt lat="42.36819502572727" lon="14.280123918034331"><ele>61.0</ele><time>2026-04-12T12:39:54.999Z</time></trkpt><trkpt lat="42.368097680134014" lon="14.280195093811946"><ele>61.0</ele><time>2026-04-12T12:39:55.999Z</time></trkpt><trkpt lat="42.36794554123812" lon="14.280303213348244"><ele>61.0</ele><time>2026-04-12T12:39:56.999Z</time></trkpt><trkpt lat="42.36778000444835" lon="14.28039289260971"><ele>59.0</ele><time>2026-04-12T12:39:57.999Z</time></trkpt><trkpt lat="42.367630099416466" lon="14.280489787611293"><ele>57.0</ele><time>2026-04-12T12:39:58.999Z</time></trkpt><trkpt lat="42.36746677314806" lon="14.280591685309995"><ele>55.0</ele><time>2026-04-12T12:39:59.999Z</time></trkpt><trkpt lat="42.36728381244701" lon="14.280674430426577"><ele>53.0</ele><time>2026-04-12T12:40:00.999Z</time></trkpt><trkpt lat="42.367064616721606" lon="14.280733769608972"><ele>51.0</ele><time>2026-04-12T12:40:01.999Z</time></trkpt><trkpt lat="42.366851754611176" lon="14.280780591141841"><ele>49.0</ele><time>2026-04-12T12:40:02.999Z</time></trkpt><trkpt lat="42.36664290624541" lon="14.280827272618971"><ele>49.0</ele><time>2026-04-12T12:40:03.999Z</time></trkpt><trkpt lat="42.366426641716394" lon="14.280877622797986"><ele>49.0</ele><time>2026-04-12T12:40:04.999Z</time></trkpt><trkpt lat="42.36621596550571" lon="14.280926328405227"><ele>49.0</ele><time>2026-04-12T12:40:05.999Z</time></trkpt><trkpt lat="42.366027153793716" lon="14.28096997917833"><ele>48.0</ele><time>2026-04-12T12:40:06.999Z</time></trkpt><trkpt lat="42.36584899275406" lon="14.281033157950882"><ele>47.0</ele><time>2026-04-12T12:40:07.999Z</time></trkpt><trkpt lat="42.36571248027479" lon="14.281058989691136"><ele>46.0</ele><time>2026-04-12T12:40:08.999Z</time></trkpt><trkpt lat="42.365601513192054" lon="14.28107746257425"><ele>45.0</ele><time>2026-04-12T12:40:09.999Z</time></trkpt><trkpt lat="42.3655230013582" lon="14.281082003981032"><ele>45.0</ele><time>2026-04-12T12:40:10.999Z</time></trkpt><trkpt lat="42.365421011232364" lon="14.281009875404047"><ele>45.0</ele><time>2026-04-12T12:40:12.999Z</time></trkpt><trkpt lat="42.36540067918387" lon="14.280884657901659"><ele>45.0</ele><time>2026-04-12T12:40:13.999Z</time></trkpt><trkpt lat="42.3653333511083" lon="14.280752627584612"><ele>45.0</ele><time>2026-04-12T12:40:14.999Z</time></trkpt><trkpt lat="42.36523975017797" lon="14.280584739398273"><ele>45.0</ele><time>2026-04-12T12:40:15.999Z</time></trkpt><trkpt lat="42.36516299357024" lon="14.280420474079111"><ele>45.0</ele><time>2026-04-12T12:40:16.999Z</time></trkpt><trkpt lat="42.36503737483166" lon="14.280190789204523"><ele>45.0</ele><time>2026-04-12T12:40:17.999Z</time></trkpt><trkpt lat="42.36493965815681" lon="14.27999075323417"><ele>45.0</ele><time>2026-04-12T12:40:18.999Z</time></trkpt><trkpt lat="42.36483285811602" lon="14.279781894983424"><ele>45.0</ele><time>2026-04-12T12:40:19.999Z</time></trkpt><trkpt lat="42.36472098728424" lon="14.279557666799235"><ele>45.0</ele><time>2026-04-12T12:40:20.999Z</time></trkpt><trkpt lat="42.36460737989372" lon="14.279323632852861"><ele>45.333333333333336</ele><time>2026-04-12T12:40:21.999Z</time></trkpt><trkpt lat="42.36449150716873" lon="14.279098716272319"><ele>45.66666666666667</ele><time>2026-04-12T12:40:22.999Z</time></trkpt><trkpt lat="42.364363296513716" lon="14.278898067401602"><ele>46.0</ele><time>2026-04-12T12:40:23.999Z</time></trkpt><trkpt lat="42.36421477363104" lon="14.278724906235782"><ele>46.333333333333336</ele><time>2026-04-12T12:40:24.999Z</time></trkpt><trkpt lat="42.36404170744334" lon="14.278581148927337"><ele>46.666666666666664</ele><time>2026-04-12T12:40:25.999Z</time></trkpt><trkpt lat="42.363857139548024" lon="14.278445763798391"><ele>47.0</ele><time>2026-04-12T12:40:26.999Z</time></trkpt><trkpt lat="42.36367548023026" lon="14.278305645190294"><ele>47.0</ele><time>2026-04-12T12:40:27.999Z</time></trkpt><trkpt lat="42.363501352765624" lon="14.278158639694928"><ele>47.0</ele><time>2026-04-12T12:40:28.999Z</time></trkpt><trkpt lat="42.363329521799926" lon="14.278015834111182"><ele>47.0</ele><time>2026-04-12T12:40:29.999Z</time></trkpt><trkpt lat="42.3631697387767" lon="14.27789253239882"><ele>48.0</ele><time>2026-04-12T12:40:30.999Z</time></trkpt><trkpt lat="42.36301725079787" lon="14.277779941550069"><ele>49.0</ele><time>2026-04-12T12:40:31.999Z</time></trkpt><trkpt lat="42.362851914382105" lon="14.277706634454265"><ele>50.0</ele><time>2026-04-12T12:40:32.999Z</time></trkpt><trkpt lat="42.362671973119106" lon="14.27767590244489"><ele>50.0</ele><time>2026-04-12T12:40:33.999Z</time></trkpt><trkpt lat="42.36248006941479" lon="14.277679067448084"><ele>50.0</ele><time>2026-04-12T12:40:34.999Z</time></trkpt><trkpt lat="42.36228161679993" lon="14.277705600617601"><ele>50.0</ele><time>2026-04-12T12:40:35.999Z</time></trkpt><trkpt lat="42.362076959306926" lon="14.27773630445984"><ele>50.0</ele><time>2026-04-12T12:40:36.999Z</time></trkpt><trkpt lat="42.361874914228046" lon="14.27775649814396"><ele>50.0</ele><time>2026-04-12T12:40:37.999Z</time></trkpt><trkpt lat="42.361667926608646" lon="14.277776935613833"><ele>50.0</ele><time>2026-04-12T12:40:38.999Z</time></trkpt><trkpt lat="42.361462136812584" lon="14.277793954018874"><ele>50.0</ele><time>2026-04-12T12:40:39.999Z</time></trkpt><trkpt lat="42.3612583045027" lon="14.277811764048476"><ele>50.0</ele><time>2026-04-12T12:40:40.999Z</time></trkpt><trkpt lat="42.36105910125695" lon="14.27792240191045"><ele>50.0</ele><time>2026-04-12T12:40:41.999Z</time></trkpt><trkpt lat="42.36085052621507" lon="14.277844457184337"><ele>50.0</ele><time>2026-04-12T12:40:42.999Z</time></trkpt><trkpt lat="42.36065867186052" lon="14.277861727932846"><ele>50.0</ele><time>2026-04-12T12:40:43.999Z</time></trkpt><trkpt lat="42.360487760654166" lon="14.277873667470988"><ele>50.0</ele><time>2026-04-12T12:40:44.998Z</time></trkpt><trkpt lat="42.36032683017781" lon="14.277876641533725"><ele>50.25</ele><time>2026-04-12T12:40:45.998Z</time></trkpt><trkpt lat="42.36018172498093" lon="14.277856397321967"><ele>50.5</ele><time>2026-04-12T12:40:46.998Z</time></trkpt><trkpt lat="42.360049843933986" lon="14.277797937305095"><ele>50.75</ele><time>2026-04-12T12:40:47.998Z</time></trkpt><trkpt lat="42.35992748888629" lon="14.277701224318527"><ele>51.0</ele><time>2026-04-12T12:40:48.998Z</time></trkpt><trkpt lat="42.3598352240181" lon="14.277573894291518"><ele>51.0</ele><time>2026-04-12T12:40:49.998Z</time></trkpt><trkpt lat="42.35979514020245" lon="14.277408003902845"><ele>51.0</ele><time>2026-04-12T12:40:50.998Z</time></trkpt><trkpt lat="42.35974007551099" lon="14.2772364528205"><ele>51.0</ele><time>2026-04-12T12:40:51.998Z</time></trkpt><trkpt lat="42.35972004443666" lon="14.277071266233039"><ele>51.0</ele><time>2026-04-12T12:40:52.998Z</time></trkpt><trkpt lat="42.35969526277019" lon="14.276965547463709"><ele>50.75</ele><time>2026-04-12T12:40:53.998Z</time></trkpt><trkpt lat="42.3596387059313" lon="14.276864871366719"><ele>50.5</ele><time>2026-04-12T12:40:55.998Z</time></trkpt><trkpt lat="42.35949859569559" lon="14.277087816037575"><ele>50.25</ele><time>2026-04-12T12:40:57.998Z</time></trkpt><trkpt lat="42.359477764570755" lon="14.277269431834595"><ele>50.0</ele><time>2026-04-12T12:40:58.998Z</time></trkpt><trkpt lat="42.35948890599787" lon="14.277469590096441"><ele>50.0</ele><time>2026-04-12T12:40:59.998Z</time></trkpt><trkpt lat="42.3595090773616" lon="14.277687441863073"><ele>50.0</ele><time>2026-04-12T12:41:00.998Z</time></trkpt><trkpt lat="42.35955083257478" lon="14.277922640455555"><ele>50.0</ele><time>2026-04-12T12:41:01.998Z</time></trkpt><trkpt lat="42.359594062426616" lon="14.278135402566596"><ele>49.0</ele><time>2026-04-12T12:41:02.998Z</time></trkpt><trkpt lat="42.35961454998235" lon="14.278317887842652"><ele>48.0</ele><time>2026-04-12T12:41:03.998Z</time></trkpt><trkpt lat="42.35960281292663" lon="14.278506057804575"><ele>47.0</ele><time>2026-04-12T12:41:04.998Z</time></trkpt><trkpt lat="42.35956128038894" lon="14.278699607811507"><ele>46.0</ele><time>2026-04-12T12:41:05.998Z</time></trkpt><trkpt lat="42.35948355782903" lon="14.278927437480773"><ele>45.333333333333336</ele><time>2026-04-12T12:41:07Z</time></trkpt><trkpt lat="42.35940347314343" lon="14.279150233950796"><ele>44.666666666666664</ele><time>2026-04-12T12:41:08Z</time></trkpt><trkpt lat="42.35931773403295" lon="14.279391095584252"><ele>44.0</ele><time>2026-04-12T12:41:09Z</time></trkpt><trkpt lat="42.35923230209094" lon="14.279629692560865"><ele>43.33333333333333</ele><time>2026-04-12T12:41:10Z</time></trkpt><trkpt lat="42.359157897330086" lon="14.279834093641416"><ele>42.666666666666664</ele><time>2026-04-12T12:41:11Z</time></trkpt><trkpt lat="42.35908347015899" lon="14.280021973229257"><ele>42.0</ele><time>2026-04-12T12:41:12Z</time></trkpt><trkpt lat="42.358998251867874" lon="14.28019075172409"><ele>42.0</ele><time>2026-04-12T12:41:13Z</time></trkpt><trkpt lat="42.35887893220782" lon="14.280353353327715"><ele>42.0</ele><time>2026-04-12T12:41:14Z</time></trkpt><trkpt lat="42.35875127937596" lon="14.280488299460707"><ele>42.0</ele><time>2026-04-12T12:41:15Z</time></trkpt><trkpt lat="42.35863711979819" lon="14.280600243824978"><ele>41.8</ele><time>2026-04-12T12:41:16Z</time></trkpt><trkpt lat="42.35853262978637" lon="14.280699587278052"><ele>41.6</ele><time>2026-04-12T12:41:17Z</time></trkpt><trkpt lat="42.35845148393098" lon="14.280778386796987"><ele>41.4</ele><time>2026-04-12T12:41:18Z</time></trkpt><trkpt lat="42.35839659672054" lon="14.280831369178951"><ele>41.199999999999996</ele><time>2026-04-12T12:41:19Z</time></trkpt><trkpt lat="42.35852799725563" lon="14.280907274913154"><ele>41.0</ele><time>2026-04-12T12:41:23Z</time></trkpt><trkpt lat="42.35861611245839" lon="14.280848188551715"><ele>41.0</ele><time>2026-04-12T12:41:24Z</time></trkpt><trkpt lat="42.35876065000341" lon="14.280720341121185"><ele>41.0</ele><time>2026-04-12T12:41:25Z</time></trkpt><trkpt lat="42.358882139594265" lon="14.280607000711381"><ele>41.0</ele><time>2026-04-12T12:41:26Z</time></trkpt><trkpt lat="42.35900287950437" lon="14.280467360711727"><ele>41.25</ele><time>2026-04-12T12:41:27Z</time></trkpt><trkpt lat="42.35910893825005" lon="14.28034125335933"><ele>41.5</ele><time>2026-04-12T12:41:28Z</time></trkpt><trkpt lat="42.35919860240205" lon="14.28023361146587"><ele>41.75</ele><time>2026-04-12T12:41:29Z</time></trkpt><trkpt lat="42.35927861836745" lon="14.280111092751882"><ele>42.0</ele><time>2026-04-12T12:41:30Z</time></trkpt><trkpt lat="42.359316509051304" lon="14.279983916162521"><ele>42.0</ele><time>2026-04-12T12:41:31Z</time></trkpt><trkpt lat="42.35936114209644" lon="14.279901280908495"><ele>42.0</ele><time>2026-04-12T12:41:32Z</time></trkpt><trkpt lat="42.35939745705968" lon="14.279828852807762"><ele>42.0</ele><time>2026-04-12T12:41:33Z</time></trkpt><trkpt lat="42.359505733016995" lon="14.279860595907591"><ele>42.0</ele><time>2026-04-12T12:41:34Z</time></trkpt><trkpt lat="42.359621383962825" lon="14.279842034545796"><ele>42.0</ele><time>2026-04-12T12:41:35Z</time></trkpt><trkpt lat="42.35975204981063" lon="14.279848021472022"><ele>41.75</ele><time>2026-04-12T12:41:36Z</time></trkpt><trkpt lat="42.35987686340547" lon="14.279887136528158"><ele>41.5</ele><time>2026-04-12T12:41:37Z</time></trkpt><trkpt lat="42.36001517680697" lon="14.27992681168317"><ele>41.25</ele><time>2026-04-12T12:41:38Z</time></trkpt><trkpt lat="42.36017524835076" lon="14.27996794608569"><ele>41.0</ele><time>2026-04-12T12:41:39Z</time></trkpt><trkpt lat="42.36033343902685" lon="14.280009585991952"><ele>41.0</ele><time>2026-04-12T12:41:40Z</time></trkpt><trkpt lat="42.360495247649595" lon="14.280040007792257"><ele>41.0</ele><time>2026-04-12T12:41:41Z</time></trkpt><trkpt lat="42.36066250288279" lon="14.280070224944982"><ele>41.0</ele><time>2026-04-12T12:41:42Z</time></trkpt><trkpt lat="42.36081050817092" lon="14.280105376765112"><ele>41.4</ele><time>2026-04-12T12:41:43Z</time></trkpt><trkpt lat="42.360930515071075" lon="14.280137588328552"><ele>41.8</ele><time>2026-04-12T12:41:44Z</time></trkpt><trkpt lat="42.36102718203704" lon="14.28016046965516"><ele>42.199999999999996</ele><time>2026-04-12T12:41:45Z</time></trkpt><trkpt lat="42.361116248461684" lon="14.280137645837517"><ele>42.599999999999994</ele><time>2026-04-12T12:41:46Z</time></trkpt><trkpt lat="42.36121269969259" lon="14.2800603786831"><ele>43.0</ele><time>2026-04-12T12:41:47Z</time></trkpt><trkpt lat="42.36131127676901" lon="14.279954575161026"><ele>43.0</ele><time>2026-04-12T12:41:47.999Z</time></trkpt><trkpt lat="42.36141421771114" lon="14.279841410256678"><ele>43.0</ele><time>2026-04-12T12:41:48.999Z</time></trkpt><trkpt lat="42.361488124785886" lon="14.279765816578838"><ele>43.0</ele><time>2026-04-12T12:41:49.999Z</time></trkpt><trkpt lat="42.361588915847335" lon="14.279736543158014"><ele>43.0</ele><time>2026-04-12T12:41:50.999Z</time></trkpt><trkpt lat="42.361719559098646" lon="14.27967741556062"><ele>43.0</ele><time>2026-04-12T12:41:51.999Z</time></trkpt><trkpt lat="42.361863746977235" lon="14.279604684257691"><ele>43.0</ele><time>2026-04-12T12:41:52.999Z</time></trkpt><trkpt lat="42.36198781409192" lon="14.279533926719555"><ele>43.0</ele><time>2026-04-12T12:41:53.999Z</time></trkpt><trkpt lat="42.36209935467119" lon="14.279472907495606"><ele>43.0</ele><time>2026-04-12T12:41:54.999Z</time></trkpt><trkpt lat="42.36220758554901" lon="14.279468680639596"><ele>43.0</ele><time>2026-04-12T12:41:55.999Z</time></trkpt><trkpt lat="42.36231410270732" lon="14.279444266393194"><ele>43.0</ele><time>2026-04-12T12:41:56.999Z</time></trkpt><trkpt lat="42.36242135468464" lon="14.279502392701623"><ele>43.0</ele><time>2026-04-12T12:41:57.999Z</time></trkpt><trkpt lat="42.36249699033478" lon="14.279579120170812"><ele>43.0</ele><time>2026-04-12T12:41:58.999Z</time></trkpt><trkpt lat="42.36260996394642" lon="14.279674831434809"><ele>43.0</ele><time>2026-04-12T12:41:59.999Z</time></trkpt><trkpt lat="42.36273500933964" lon="14.2797635035431"><ele>43.0</ele><time>2026-04-12T12:42:00.999Z</time></trkpt><trkpt lat="42.36286341959486" lon="14.279851377768937"><ele>43.0</ele><time>2026-04-12T12:42:01.999Z</time></trkpt><trkpt lat="42.362987126871715" lon="14.279909165413327"><ele>43.0</ele><time>2026-04-12T12:42:02.999Z</time></trkpt><trkpt lat="42.36310681237375" lon="14.279983984591118"><ele>42.75</ele><time>2026-04-12T12:42:03.999Z</time></trkpt><trkpt lat="42.36323339224423" lon="14.280073006227532"><ele>42.5</ele><time>2026-04-12T12:42:04.999Z</time></trkpt><trkpt lat="42.3633648463906" lon="14.280140147569472"><ele>42.25</ele><time>2026-04-12T12:42:05.999Z</time></trkpt><trkpt lat="42.363500347001285" lon="14.280198156780772"><ele>42.0</ele><time>2026-04-12T12:42:06.999Z</time></trkpt><trkpt lat="42.363625209176355" lon="14.28023583420555"><ele>42.0</ele><time>2026-04-12T12:42:07.999Z</time></trkpt><trkpt lat="42.36373665698565" lon="14.28029305684896"><ele>42.0</ele><time>2026-04-12T12:42:08.999Z</time></trkpt><trkpt lat="42.363819372837405" lon="14.280370455881316"><ele>42.0</ele><time>2026-04-12T12:42:09.999Z</time></trkpt><trkpt lat="42.363896275743556" lon="14.280455827472128"><ele>42.0</ele><time>2026-04-12T12:42:10.999Z</time></trkpt><trkpt lat="42.36396320288343" lon="14.28056253814791"><ele>42.0</ele><time>2026-04-12T12:42:11.999Z</time></trkpt><trkpt lat="42.36402103912581" lon="14.280662095836478"><ele>41.333333333333336</ele><time>2026-04-12T12:42:12.999Z</time></trkpt><trkpt lat="42.36406768640032" lon="14.280750362031531"><ele>40.666666666666664</ele><time>2026-04-12T12:42:13.999Z</time></trkpt><trkpt lat="42.36410986873479" lon="14.28083480539498"><ele>40.0</ele><time>2026-04-12T12:42:14.999Z</time></trkpt><trkpt lat="42.36416862254301" lon="14.280955800447598"><ele>39.33333333333333</ele><time>2026-04-12T12:42:16.999Z</time></trkpt><trkpt lat="42.36422205800476" lon="14.281065948851587"><ele>38.666666666666664</ele><time>2026-04-12T12:42:18.999Z</time></trkpt><trkpt lat="42.3642674152963" lon="14.281162625929603"><ele>38.0</ele><time>2026-04-12T12:42:20.999Z</time></trkpt><trkpt lat="42.364304177467645" lon="14.281255233532992"><ele>38.0</ele><time>2026-04-12T12:42:22.999Z</time></trkpt><trkpt lat="42.36435342628459" lon="14.281323634487666"><ele>38.0</ele><time>2026-04-12T12:42:24.999Z</time></trkpt><trkpt lat="42.36437960191501" lon="14.28143819505148"><ele>38.0</ele><time>2026-04-12T12:42:26.999Z</time></trkpt><trkpt lat="42.36437517851905" lon="14.281599602759787"><ele>38.0</ele><time>2026-04-12T12:42:28.999Z</time></trkpt><trkpt lat="42.36435904501153" lon="14.281696818659675"><ele>38.0</ele><time>2026-04-12T12:42:29.999Z</time></trkpt><trkpt lat="42.364317840328" lon="14.281797959197581"><ele>38.0</ele><time>2026-04-12T12:42:30.999Z</time></trkpt><trkpt lat="42.364305738464545" lon="14.281932232860715"><ele>37.6</ele><time>2026-04-12T12:42:31.999Z</time></trkpt><trkpt lat="42.364267645716275" lon="14.28205148606451"><ele>37.199999999999996</ele><time>2026-04-12T12:42:32.999Z</time></trkpt><trkpt lat="42.36421481325209" lon="14.282163836824706"><ele>36.8</ele><time>2026-04-12T12:42:33.999Z</time></trkpt><trkpt lat="42.36415714170062" lon="14.282273775926807"><ele>36.4</ele><time>2026-04-12T12:42:34.999Z</time></trkpt><trkpt lat="42.36412272635627" lon="14.282376669885874"><ele>36.0</ele><time>2026-04-12T12:42:35.999Z</time></trkpt><trkpt lat="42.36411407090545" lon="14.282490344520841"><ele>36.0</ele><time>2026-04-12T12:42:36.999Z</time></trkpt><trkpt lat="42.36412638766781" lon="14.282641463467503"><ele>36.0</ele><time>2026-04-12T12:42:37.999Z</time></trkpt><trkpt lat="42.36412361064224" lon="14.282811965216899"><ele>36.0</ele><time>2026-04-12T12:42:38.999Z</time></trkpt><trkpt lat="42.36416447151532" lon="14.282921144296527"><ele>36.0</ele><time>2026-04-12T12:42:39.999Z</time></trkpt><trkpt lat="42.36419240940287" lon="14.283016900052523"><ele>36.0</ele><time>2026-04-12T12:42:40.999Z</time></trkpt><trkpt lat="42.36423408129689" lon="14.283108532156861"><ele>35.75</ele><time>2026-04-12T12:42:41.999Z</time></trkpt><trkpt lat="42.36426308416282" lon="14.28324789436674"><ele>35.5</ele><time>2026-04-12T12:42:42.999Z</time></trkpt><trkpt lat="42.364276511485684" lon="14.283395782879111"><ele>35.25</ele><time>2026-04-12T12:42:43.999Z</time></trkpt><trkpt lat="42.36428409954037" lon="14.28355056624985"><ele>35.0</ele><time>2026-04-12T12:42:44.999Z</time></trkpt><trkpt lat="42.3642947279237" lon="14.283713390828831"><ele>35.0</ele><time>2026-04-12T12:42:45.999Z</time></trkpt><trkpt lat="42.364296400435585" lon="14.283833005307597"><ele>35.0</ele><time>2026-04-12T12:42:46.999Z</time></trkpt><trkpt lat="42.364290386317336" lon="14.283944391861244"><ele>35.0</ele><time>2026-04-12T12:42:47.999Z</time></trkpt><trkpt lat="42.364281361545736" lon="14.284061472638609"><ele>35.0</ele><time>2026-04-12T12:42:48.998Z</time></trkpt><trkpt lat="42.36427087985678" lon="14.28417409878036"><ele>35.0</ele><time>2026-04-12T12:42:49.998Z</time></trkpt><trkpt lat="42.364264150786155" lon="14.284275172462642"><ele>35.0</ele><time>2026-04-12T12:42:50.998Z</time></trkpt><trkpt lat="42.36426222157122" lon="14.28438140909183"><ele>34.666666666666664</ele><time>2026-04-12T12:42:51.998Z</time></trkpt><trkpt lat="42.36425224627022" lon="14.28448524200921"><ele>34.33333333333333</ele><time>2026-04-12T12:42:52.998Z</time></trkpt><trkpt lat="42.36423179944342" lon="14.284575141973622"><ele>34.0</ele><time>2026-04-12T12:42:53.998Z</time></trkpt><trkpt lat="42.364222501318785" lon="14.28466765307488"><ele>33.666666666666664</ele><time>2026-04-12T12:42:54.998Z</time></trkpt><trkpt lat="42.36420799373205" lon="14.28478976519536"><ele>33.333333333333336</ele><time>2026-04-12T12:42:55.998Z</time></trkpt><trkpt lat="42.364187364658115" lon="14.28493947647952"><ele>33.0</ele><time>2026-04-12T12:42:56.998Z</time></trkpt><trkpt lat="42.36416769710763" lon="14.285099151260487"><ele>33.0</ele><time>2026-04-12T12:42:57.998Z</time></trkpt><trkpt lat="42.364163827830865" lon="14.285254687784864"><ele>33.0</ele><time>2026-04-12T12:42:58.998Z</time></trkpt><trkpt lat="42.364176649079155" lon="14.28541017767557"><ele>33.0</ele><time>2026-04-12T12:42:59.998Z</time></trkpt><trkpt lat="42.36420267024044" lon="14.285580796976532"><ele>33.0</ele><time>2026-04-12T12:43:00.998Z</time></trkpt><trkpt lat="42.36423046322664" lon="14.285754629308551"><ele>33.75</ele><time>2026-04-12T12:43:01.998Z</time></trkpt><trkpt lat="42.364272070513245" lon="14.285912739544944"><ele>34.5</ele><time>2026-04-12T12:43:02.998Z</time></trkpt><trkpt lat="42.36432561079691" lon="14.28606069710984"><ele>35.25</ele><time>2026-04-12T12:43:03.998Z</time></trkpt><trkpt lat="42.364400584271294" lon="14.286224431143394"><ele>36.0</ele><time>2026-04-12T12:43:04.998Z</time></trkpt><trkpt lat="42.36448494501621" lon="14.286373254311592"><ele>35.75</ele><time>2026-04-12T12:43:05.998Z</time></trkpt><trkpt lat="42.36457562141623" lon="14.286492793772139"><ele>35.5</ele><time>2026-04-12T12:43:06.998Z</time></trkpt><trkpt lat="42.36469070204189" lon="14.2866158386816"><ele>35.25</ele><time>2026-04-12T12:43:07.998Z</time></trkpt><trkpt lat="42.364819853245734" lon="14.28672533036062"><ele>35.0</ele><time>2026-04-12T12:43:08.998Z</time></trkpt><trkpt lat="42.36494370804936" lon="14.286870156450256"><ele>35.0</ele><time>2026-04-12T12:43:09.998Z</time></trkpt><trkpt lat="42.36507000483272" lon="14.286998168327308"><ele>35.0</ele><time>2026-04-12T12:43:10.998Z</time></trkpt><trkpt lat="42.365194051095536" lon="14.287123949176278"><ele>35.0</ele><time>2026-04-12T12:43:11.998Z</time></trkpt><trkpt lat="42.365300639506124" lon="14.28720865402756"><ele>35.0</ele><time>2026-04-12T12:43:13Z</time></trkpt><trkpt lat="42.365390659175745" lon="14.287287402888051"><ele>35.2</ele><time>2026-04-12T12:43:14Z</time></trkpt><trkpt lat="42.36549333328119" lon="14.287355517571363"><ele>35.4</ele><time>2026-04-12T12:43:15Z</time></trkpt><trkpt lat="42.36558401373231" lon="14.287398240437081"><ele>35.6</ele><time>2026-04-12T12:43:16Z</time></trkpt><trkpt lat="42.36568520809988" lon="14.287429542792921"><ele>35.8</ele><time>2026-04-12T12:43:17Z</time></trkpt><trkpt lat="42.365783795841566" lon="14.287435145845407"><ele>36.0</ele><time>2026-04-12T12:43:18Z</time></trkpt><trkpt lat="42.365867549752046" lon="14.2874404989832"><ele>35.6</ele><time>2026-04-12T12:43:19Z</time></trkpt><trkpt lat="42.365949473655654" lon="14.287414361039636"><ele>35.2</ele><time>2026-04-12T12:43:22Z</time></trkpt><trkpt lat="42.36600868764134" lon="14.28738101620301"><ele>34.8</ele><time>2026-04-12T12:43:23Z</time></trkpt><trkpt lat="42.36607883371813" lon="14.287346705979946"><ele>34.4</ele><time>2026-04-12T12:43:24Z</time></trkpt><trkpt lat="42.36617665564869" lon="14.28729530672772"><ele>34.0</ele><time>2026-04-12T12:43:25Z</time></trkpt><trkpt lat="42.36629896805996" lon="14.287233590964457"><ele>34.2</ele><time>2026-04-12T12:43:26Z</time></trkpt><trkpt lat="42.36641235641188" lon="14.287208555667664"><ele>34.4</ele><time>2026-04-12T12:43:27Z</time></trkpt><trkpt lat="42.36649338585431" lon="14.287229691766898"><ele>34.6</ele><time>2026-04-12T12:43:28Z</time></trkpt><trkpt lat="42.36655385439439" lon="14.287305722790508"><ele>34.8</ele><time>2026-04-12T12:43:29Z</time></trkpt><trkpt lat="42.36658119591142" lon="14.287438975427639"><ele>35.0</ele><time>2026-04-12T12:43:30Z</time></trkpt><trkpt lat="42.36660347022566" lon="14.287598678552284"><ele>35.0</ele><time>2026-04-12T12:43:31Z</time></trkpt><trkpt lat="42.36663378278781" lon="14.287778318913693"><ele>35.0</ele><time>2026-04-12T12:43:32Z</time></trkpt><trkpt lat="42.366663401577654" lon="14.287951067245782"><ele>35.0</ele><time>2026-04-12T12:43:33Z</time></trkpt><trkpt lat="42.36669752578226" lon="14.288137609644085"><ele>35.0</ele><time>2026-04-12T12:43:34Z</time></trkpt><trkpt lat="42.36674045290606" lon="14.28834532856751"><ele>34.75</ele><time>2026-04-12T12:43:35Z</time></trkpt><trkpt lat="42.36679906360571" lon="14.2885524784037"><ele>34.5</ele><time>2026-04-12T12:43:36Z</time></trkpt><trkpt lat="42.3668664933485" lon="14.28873303748342"><ele>34.25</ele><time>2026-04-12T12:43:37Z</time></trkpt><trkpt lat="42.36689489600575" lon="14.288912479120766"><ele>34.0</ele><time>2026-04-12T12:43:38Z</time></trkpt><trkpt lat="42.366907281263124" lon="14.289104986237573"><ele>33.333333333333336</ele><time>2026-04-12T12:43:39Z</time></trkpt><trkpt lat="42.36692922987183" lon="14.289306913145506"><ele>32.666666666666664</ele><time>2026-04-12T12:43:40Z</time></trkpt><trkpt lat="42.366938936193044" lon="14.289517990414808"><ele>32.0</ele><time>2026-04-12T12:43:41Z</time></trkpt><trkpt lat="42.366957781452214" lon="14.28974541316587"><ele>32.25</ele><time>2026-04-12T12:43:42Z</time></trkpt><trkpt lat="42.36698133699548" lon="14.289966810637289"><ele>32.5</ele><time>2026-04-12T12:43:43Z</time></trkpt><trkpt lat="42.367013453961874" lon="14.2901616375655"><ele>32.75</ele><time>2026-04-12T12:43:44Z</time></trkpt><trkpt lat="42.36704478918645" lon="14.290341084631079"><ele>33.0</ele><time>2026-04-12T12:43:45Z</time></trkpt><trkpt lat="42.367083234954805" lon="14.29049986408203"><ele>32.75</ele><time>2026-04-12T12:43:46Z</time></trkpt><trkpt lat="42.36713560127553" lon="14.290654026797931"><ele>32.5</ele><time>2026-04-12T12:43:47Z</time></trkpt><trkpt lat="42.36722590345502" lon="14.290776117460354"><ele>32.25</ele><time>2026-04-12T12:43:48Z</time></trkpt><trkpt lat="42.36730048674753" lon="14.290893929388089"><ele>32.0</ele><time>2026-04-12T12:43:49Z</time></trkpt><trkpt lat="42.36739454095024" lon="14.290991958904128"><ele>32.666666666666664</ele><time>2026-04-12T12:43:50Z</time></trkpt><trkpt lat="42.36751810952825" lon="14.291111749297194"><ele>33.333333333333336</ele><time>2026-04-12T12:43:51Z</time></trkpt><trkpt lat="42.36762736982658" lon="14.291270998395971"><ele>34.0</ele><time>2026-04-12T12:43:51.999Z</time></trkpt><trkpt lat="42.36773086543413" lon="14.291462685346653"><ele>32.66666666666667</ele><time>2026-04-12T12:43:52.999Z</time></trkpt><trkpt lat="42.36782909765999" lon="14.291659774249782"><ele>31.333333333333336</ele><time>2026-04-12T12:43:53.999Z</time></trkpt><trkpt lat="42.36792120231586" lon="14.29185096905653"><ele>30.0</ele><time>2026-04-12T12:43:54.999Z</time></trkpt><trkpt lat="42.368008834917084" lon="14.292036637241157"><ele>30.0</ele><time>2026-04-12T12:43:55.999Z</time></trkpt><trkpt lat="42.36808238230832" lon="14.292241160339593"><ele>30.0</ele><time>2026-04-12T12:43:56.999Z</time></trkpt><trkpt lat="42.36813528429339" lon="14.292447395119261"><ele>30.0</ele><time>2026-04-12T12:43:57.999Z</time></trkpt><trkpt lat="42.36818339917685" lon="14.292665608675943"><ele>30.0</ele><time>2026-04-12T12:43:58.999Z</time></trkpt><trkpt lat="42.36822802234425" lon="14.292909911423717"><ele>30.0</ele><time>2026-04-12T12:43:59.999Z</time></trkpt><trkpt lat="42.36828177161541" lon="14.293163379135269"><ele>30.0</ele><time>2026-04-12T12:44:00.999Z</time></trkpt><trkpt lat="42.368343168614345" lon="14.293414456387975"><ele>30.0</ele><time>2026-04-12T12:44:01.999Z</time></trkpt><trkpt lat="42.36839652426979" lon="14.293633574251999"><ele>30.0</ele><time>2026-04-12T12:44:02.999Z</time></trkpt><trkpt lat="42.36844325685726" lon="14.293812818820685"><ele>30.0</ele><time>2026-04-12T12:44:03.999Z</time></trkpt><trkpt lat="42.368480797091955" lon="14.293971186202958"><ele>30.0</ele><time>2026-04-12T12:44:04.999Z</time></trkpt><trkpt lat="42.36852214649942" lon="14.294122468814777"><ele>29.75</ele><time>2026-04-12T12:44:05.999Z</time></trkpt><trkpt lat="42.36855222992478" lon="14.294317117709204"><ele>29.5</ele><time>2026-04-12T12:44:06.999Z</time></trkpt><trkpt lat="42.36857086322443" lon="14.2945268889262"><ele>29.25</ele><time>2026-04-12T12:44:07.999Z</time></trkpt><trkpt lat="42.36859227522806" lon="14.29471305840494"><ele>29.0</ele><time>2026-04-12T12:44:08.999Z</time></trkpt><trkpt lat="42.368601457348625" lon="14.29488559810887"><ele>29.0</ele><time>2026-04-12T12:44:09.999Z</time></trkpt><trkpt lat="42.36858756560598" lon="14.295028020179872"><ele>29.0</ele><time>2026-04-12T12:44:10.999Z</time></trkpt><trkpt lat="42.36856933063878" lon="14.295136407419896"><ele>29.0</ele><time>2026-04-12T12:44:11.999Z</time></trkpt><trkpt lat="42.36858221290562" lon="14.295276149803865"><ele>29.0</ele><time>2026-04-12T12:44:13.999Z</time></trkpt><trkpt lat="42.36861754614081" lon="14.295424731067927"><ele>29.0</ele><time>2026-04-12T12:44:16.999Z</time></trkpt><trkpt lat="42.368661282432726" lon="14.29552578249667"><ele>29.0</ele><time>2026-04-12T12:44:17.999Z</time></trkpt><trkpt lat="42.368715219138984" lon="14.295657685229742"><ele>29.0</ele><time>2026-04-12T12:44:18.999Z</time></trkpt><trkpt lat="42.36873369140591" lon="14.29576317420234"><ele>29.0</ele><time>2026-04-12T12:44:19.999Z</time></trkpt><trkpt lat="42.36875822515974" lon="14.295889320482793"><ele>29.0</ele><time>2026-04-12T12:44:20.999Z</time></trkpt><trkpt lat="42.36880426936455" lon="14.296048674188084"><ele>29.0</ele><time>2026-04-12T12:44:21.999Z</time></trkpt><trkpt lat="42.36886879565659" lon="14.296258056133096"><ele>29.333333333333332</ele><time>2026-04-12T12:44:22.999Z</time></trkpt><trkpt lat="42.36902214961714" lon="14.296505663818113"><ele>29.666666666666664</ele><time>2026-04-12T12:44:23.999Z</time></trkpt><trkpt lat="42.36910545026734" lon="14.296637603195991"><ele>30.0</ele><time>2026-04-12T12:44:24.999Z</time></trkpt><trkpt lat="42.36918969243643" lon="14.296819728507602"><ele>30.0</ele><time>2026-04-12T12:44:25.999Z</time></trkpt><trkpt lat="42.36927604765169" lon="14.297000924020212"><ele>30.0</ele><time>2026-04-12T12:44:26.999Z</time></trkpt><trkpt lat="42.36937320633382" lon="14.297201897240479"><ele>30.0</ele><time>2026-04-12T12:44:27.999Z</time></trkpt><trkpt lat="42.36947408911501" lon="14.297408266207123"><ele>30.0</ele><time>2026-04-12T12:44:28.999Z</time></trkpt><trkpt lat="42.36957600927245" lon="14.297620530521732"><ele>30.0</ele><time>2026-04-12T12:44:29.999Z</time></trkpt><trkpt lat="42.369676916786126" lon="14.297831460314242"><ele>30.0</ele><time>2026-04-12T12:44:30.999Z</time></trkpt><trkpt lat="42.369787380461105" lon="14.298032438264165"><ele>29.75</ele><time>2026-04-12T12:44:31.999Z</time></trkpt><trkpt lat="42.369896022450135" lon="14.298201533879405"><ele>29.5</ele><time>2026-04-12T12:44:32.999Z</time></trkpt><trkpt lat="42.36999554808407" lon="14.298340211331029"><ele>29.25</ele><time>2026-04-12T12:44:33.999Z</time></trkpt><trkpt lat="42.370081794406886" lon="14.298453414174906"><ele>29.0</ele><time>2026-04-12T12:44:34.999Z</time></trkpt><trkpt lat="42.37018725469002" lon="14.298584747790985"><ele>29.0</ele><time>2026-04-12T12:44:35.999Z</time></trkpt><trkpt lat="42.37032435207677" lon="14.298699506414119"><ele>29.0</ele><time>2026-04-12T12:44:36.999Z</time></trkpt><trkpt lat="42.37045619062287" lon="14.298842753456597"><ele>29.0</ele><time>2026-04-12T12:44:37.999Z</time></trkpt><trkpt lat="42.37060473204215" lon="14.298986861518719"><ele>28.5</ele><time>2026-04-12T12:44:38.999Z</time></trkpt><trkpt lat="42.37074948709063" lon="14.299123559443283"><ele>28.0</ele><time>2026-04-12T12:44:39.999Z</time></trkpt><trkpt lat="42.37087519716987" lon="14.299241233735504"><ele>27.5</ele><time>2026-04-12T12:44:40.999Z</time></trkpt><trkpt lat="42.370975927106635" lon="14.299324442605803"><ele>27.0</ele><time>2026-04-12T12:44:41.999Z</time></trkpt><trkpt lat="42.37107841427874" lon="14.299390534379057"><ele>27.0</ele><time>2026-04-12T12:44:42.999Z</time></trkpt><trkpt lat="42.37117827604977" lon="14.299417456424782"><ele>27.0</ele><time>2026-04-12T12:44:43.999Z</time></trkpt><trkpt lat="42.37128889245051" lon="14.299428909768043"><ele>27.0</ele><time>2026-04-12T12:44:44.999Z</time></trkpt><trkpt lat="42.37141466158208" lon="14.299426695322323"><ele>27.0</ele><time>2026-04-12T12:44:45.999Z</time></trkpt><trkpt lat="42.37154568400658" lon="14.299415003265496"><ele>26.75</ele><time>2026-04-12T12:44:46.999Z</time></trkpt><trkpt lat="42.3716828133774" lon="14.299417725170802"><ele>26.5</ele><time>2026-04-12T12:44:47.999Z</time></trkpt><trkpt lat="42.37184349695631" lon="14.299424473170843"><ele>26.25</ele><time>2026-04-12T12:44:48.999Z</time></trkpt><trkpt lat="42.37196998377608" lon="14.299437172747075"><ele>26.0</ele><time>2026-04-12T12:44:49.999Z</time></trkpt><trkpt lat="42.37206607731878" lon="14.299461231978993"><ele>26.0</ele><time>2026-04-12T12:44:50.999Z</time></trkpt><trkpt lat="42.372154072521475" lon="14.299522423694317"><ele>26.0</ele><time>2026-04-12T12:44:51.999Z</time></trkpt><trkpt lat="42.372209104204785" lon="14.299611782751652"><ele>26.0</ele><time>2026-04-12T12:44:52.998Z</time></trkpt><trkpt lat="42.37226794677399" lon="14.299714911240079"><ele>26.0</ele><time>2026-04-12T12:44:53.998Z</time></trkpt><trkpt lat="42.37235095876657" lon="14.299888863873365"><ele>26.0</ele><time>2026-04-12T12:44:54.998Z</time></trkpt><trkpt lat="42.37243743458818" lon="14.300082939423833"><ele>25.666666666666664</ele><time>2026-04-12T12:44:55.998Z</time></trkpt><trkpt lat="42.37249624581817" lon="14.300285887104012"><ele>25.333333333333336</ele><time>2026-04-12T12:44:56.998Z</time></trkpt><trkpt lat="42.372587003877925" lon="14.300458517317734"><ele>25.0</ele><time>2026-04-12T12:44:57.998Z</time></trkpt><trkpt lat="42.372650100341524" lon="14.300633782317346"><ele>24.5</ele><time>2026-04-12T12:44:58.998Z</time></trkpt><trkpt lat="42.37272227806322" lon="14.300785901135436"><ele>24.0</ele><time>2026-04-12T12:44:59.998Z</time></trkpt><trkpt lat="42.37280779669977" lon="14.300893576579831"><ele>23.5</ele><time>2026-04-12T12:45:00.998Z</time></trkpt><trkpt lat="42.37291646406593" lon="14.300985437524494"><ele>23.0</ele><time>2026-04-12T12:45:01.998Z</time></trkpt><trkpt lat="42.37304570576002" lon="14.301044720210877"><ele>23.0</ele><time>2026-04-12T12:45:02.998Z</time></trkpt><trkpt lat="42.3731689440063" lon="14.301045026116942"><ele>23.0</ele><time>2026-04-12T12:45:03.998Z</time></trkpt><trkpt lat="42.3732943252191" lon="14.301043419928455"><ele>23.0</ele><time>2026-04-12T12:45:04.998Z</time></trkpt><trkpt lat="42.37342872408673" lon="14.301004327764561"><ele>23.0</ele><time>2026-04-12T12:45:05.998Z</time></trkpt><trkpt lat="42.37359140124444" lon="14.300897805150491"><ele>23.0</ele><time>2026-04-12T12:45:06.998Z</time></trkpt><trkpt lat="42.37375466371793" lon="14.300801536968091"><ele>23.0</ele><time>2026-04-12T12:45:07.998Z</time></trkpt><trkpt lat="42.373923151753765" lon="14.300729411090499"><ele>23.0</ele><time>2026-04-12T12:45:08.998Z</time></trkpt><trkpt lat="42.37408981812009" lon="14.300654720381438"><ele>22.5</ele><time>2026-04-12T12:45:09.998Z</time></trkpt><trkpt lat="42.37424394070781" lon="14.300569185565992"><ele>22.0</ele><time>2026-04-12T12:45:10.998Z</time></trkpt><trkpt lat="42.374376338077134" lon="14.300507872677494"><ele>21.5</ele><time>2026-04-12T12:45:11.998Z</time></trkpt><trkpt lat="42.374504731144356" lon="14.300462495251601"><ele>21.0</ele><time>2026-04-12T12:45:12.998Z</time></trkpt><trkpt lat="42.37461981260059" lon="14.300469234727466"><ele>21.5</ele><time>2026-04-12T12:45:13.998Z</time></trkpt><trkpt lat="42.374716999071715" lon="14.300523322870786"><ele>22.0</ele><time>2026-04-12T12:45:14.998Z</time></trkpt><trkpt lat="42.374818448351064" lon="14.300613928611583"><ele>22.5</ele><time>2026-04-12T12:45:15.998Z</time></trkpt><trkpt lat="42.37490306452367" lon="14.300732504528328"><ele>23.0</ele><time>2026-04-12T12:45:16.998Z</time></trkpt><trkpt lat="42.374968978792445" lon="14.300875620839447"><ele>23.0</ele><time>2026-04-12T12:45:18Z</time></trkpt><trkpt lat="42.374977592497274" lon="14.30106701520886"><ele>23.0</ele><time>2026-04-12T12:45:19Z</time></trkpt><trkpt lat="42.37497451419026" lon="14.301271592767588"><ele>23.0</ele><time>2026-04-12T12:45:20Z</time></trkpt><trkpt lat="42.3749563927651" lon="14.301497686311775"><ele>23.25</ele><time>2026-04-12T12:45:21Z</time></trkpt><trkpt lat="42.37493681142192" lon="14.301712743365197"><ele>23.5</ele><time>2026-04-12T12:45:22Z</time></trkpt><trkpt lat="42.37494075415369" lon="14.30190848843605"><ele>23.75</ele><time>2026-04-12T12:45:23Z</time></trkpt><trkpt lat="42.37494232764078" lon="14.302095036083777"><ele>24.0</ele><time>2026-04-12T12:45:24Z</time></trkpt><trkpt lat="42.37496096895046" lon="14.302275801304136"><ele>24.0</ele><time>2026-04-12T12:45:25Z</time></trkpt><trkpt lat="42.375012035109485" lon="14.30243053940748"><ele>24.0</ele><time>2026-04-12T12:45:26Z</time></trkpt><trkpt lat="42.3750900208254" lon="14.302541749030858"><ele>24.0</ele><time>2026-04-12T12:45:27Z</time></trkpt><trkpt lat="42.37517881360585" lon="14.302676390466106"><ele>24.0</ele><time>2026-04-12T12:45:28Z</time></trkpt><trkpt lat="42.375283230925184" lon="14.3027995517623"><ele>24.0</ele><time>2026-04-12T12:45:29Z</time></trkpt><trkpt lat="42.375413458020205" lon="14.302897223373755"><ele>24.0</ele><time>2026-04-12T12:45:30Z</time></trkpt><trkpt lat="42.37556364365892" lon="14.302972298702954"><ele>24.0</ele><time>2026-04-12T12:45:31Z</time></trkpt><trkpt lat="42.37571039673045" lon="14.303065638004659"><ele>23.5</ele><time>2026-04-12T12:45:32Z</time></trkpt><trkpt lat="42.37585573999247" lon="14.303167006686529"><ele>23.0</ele><time>2026-04-12T12:45:33Z</time></trkpt><trkpt lat="42.375965048198424" lon="14.30323861500733"><ele>22.5</ele><time>2026-04-12T12:45:34Z</time></trkpt><trkpt lat="42.376052347519696" lon="14.303324933368748"><ele>22.0</ele><time>2026-04-12T12:45:35Z</time></trkpt><trkpt lat="42.37614646947265" lon="14.303409064532785"><ele>22.0</ele><time>2026-04-12T12:45:36Z</time></trkpt><trkpt lat="42.376222248376116" lon="14.303443882008924"><ele>22.0</ele><time>2026-04-12T12:45:37Z</time></trkpt><trkpt lat="42.376303068647566" lon="14.303374051659098"><ele>22.0</ele><time>2026-04-12T12:45:39Z</time></trkpt><trkpt lat="42.37633726437537" lon="14.303233528614324"><ele>22.0</ele><time>2026-04-12T12:45:41Z</time></trkpt><trkpt lat="42.376353663574925" lon="14.302946637599584"><ele>22.200000000000003</ele><time>2026-04-12T12:46:07.999Z</time></trkpt><trkpt lat="42.376371049226265" lon="14.302815832713314"><ele>22.4</ele><time>2026-04-12T12:46:08.999Z</time></trkpt><trkpt lat="42.37634811661764" lon="14.30268382460684"><ele>22.6</ele><time>2026-04-12T12:46:10.999Z</time></trkpt><trkpt lat="42.37628649341668" lon="14.302636702744179"><ele>22.799999999999997</ele><time>2026-04-12T12:46:11.999Z</time></trkpt><trkpt lat="42.376185669596744" lon="14.302609908197573"><ele>23.0</ele><time>2026-04-12T12:46:12.999Z</time></trkpt><trkpt lat="42.37603468077737" lon="14.302623618269985"><ele>22.599999999999998</ele><time>2026-04-12T12:46:13.999Z</time></trkpt><trkpt lat="42.375902109543595" lon="14.302644710559402"><ele>22.2</ele><time>2026-04-12T12:46:14.999Z</time></trkpt><trkpt lat="42.37583701662285" lon="14.302622767909389"><ele>21.8</ele><time>2026-04-12T12:46:15.999Z</time></trkpt><trkpt lat="42.37585462359692" lon="14.302506375235915"><ele>21.4</ele><time>2026-04-12T12:46:18.999Z</time></trkpt><trkpt lat="42.375892524996964" lon="14.302406680386602"><ele>21.0</ele><time>2026-04-12T12:46:19.999Z</time></trkpt><trkpt lat="42.375924659765005" lon="14.302266828414808"><ele>22.0</ele><time>2026-04-12T12:46:20.999Z</time></trkpt><trkpt lat="42.37594094439592" lon="14.302099931070385"><ele>23.0</ele><time>2026-04-12T12:46:21.999Z</time></trkpt><trkpt lat="42.37597259588608" lon="14.301918906924262"><ele>24.0</ele><time>2026-04-12T12:46:22.999Z</time></trkpt><trkpt lat="42.376013279453836" lon="14.301751426292613"><ele>25.0</ele><time>2026-04-12T12:46:23.999Z</time></trkpt><trkpt lat="42.376072834860274" lon="14.301572749163713"><ele>26.333333333333336</ele><time>2026-04-12T12:46:24.999Z</time></trkpt><trkpt lat="42.37614936756362" lon="14.30137075944113"><ele>27.666666666666664</ele><time>2026-04-12T12:46:25.999Z</time></trkpt><trkpt lat="42.37622692195719" lon="14.30117433961715"><ele>29.0</ele><time>2026-04-12T12:46:26.999Z</time></trkpt><trkpt lat="42.37629675017044" lon="14.300989471309808"><ele>29.0</ele><time>2026-04-12T12:46:27.999Z</time></trkpt><trkpt lat="42.37632079773041" lon="14.30077702782047"><ele>29.0</ele><time>2026-04-12T12:46:28.999Z</time></trkpt><trkpt lat="42.376381544374354" lon="14.300617536739788"><ele>29.0</ele><time>2026-04-12T12:46:29.999Z</time></trkpt><trkpt lat="42.37643445872423" lon="14.300478878615365"><ele>29.0</ele><time>2026-04-12T12:46:30.999Z</time></trkpt><trkpt lat="42.37647358715776" lon="14.30037634548236"><ele>30.0</ele><time>2026-04-12T12:46:31.999Z</time></trkpt><trkpt lat="42.37651398009634" lon="14.300270498797904"><ele>31.0</ele><time>2026-04-12T12:46:33.999Z</time></trkpt><trkpt lat="42.37666964737299" lon="14.300385129135272"><ele>32.0</ele><time>2026-04-12T12:46:36.999Z</time></trkpt><trkpt lat="42.37673077760149" lon="14.300469617875518"><ele>33.0</ele><time>2026-04-12T12:46:37.999Z</time></trkpt><trkpt lat="42.376802592539846" lon="14.30056604275884"><ele>32.5</ele><time>2026-04-12T12:46:38.999Z</time></trkpt><trkpt lat="42.37689282076823" lon="14.300677929451032"><ele>32.0</ele><time>2026-04-12T12:46:39.999Z</time></trkpt><trkpt lat="42.377008112757395" lon="14.30079702403775"><ele>31.5</ele><time>2026-04-12T12:46:40.999Z</time></trkpt><trkpt lat="42.377139216445336" lon="14.300909582474693"><ele>31.0</ele><time>2026-04-12T12:46:41.999Z</time></trkpt><trkpt lat="42.37728932562241" lon="14.301010466729931"><ele>30.666666666666668</ele><time>2026-04-12T12:46:42.999Z</time></trkpt><trkpt lat="42.37745468781194" lon="14.301099344250748"><ele>30.333333333333336</ele><time>2026-04-12T12:46:43.999Z</time></trkpt><trkpt lat="42.37764961337521" lon="14.301162534084535"><ele>30.0</ele><time>2026-04-12T12:46:44.999Z</time></trkpt><trkpt lat="42.37785342631696" lon="14.301210724771554"><ele>30.0</ele><time>2026-04-12T12:46:45.999Z</time></trkpt><trkpt lat="42.37805653633731" lon="14.301286096364427"><ele>30.0</ele><time>2026-04-12T12:46:46.999Z</time></trkpt><trkpt lat="42.37826416134693" lon="14.301348452833706"><ele>30.0</ele><time>2026-04-12T12:46:47.999Z</time></trkpt><trkpt lat="42.378476619822926" lon="14.301396522091327"><ele>29.0</ele><time>2026-04-12T12:46:48.999Z</time></trkpt><trkpt lat="42.37868948068931" lon="14.301464707687817"><ele>28.0</ele><time>2026-04-12T12:46:49.999Z</time></trkpt><trkpt lat="42.378900554542604" lon="14.301527181867755"><ele>27.0</ele><time>2026-04-12T12:46:50.999Z</time></trkpt><trkpt lat="42.379113530782284" lon="14.30158939493174"><ele>26.5</ele><time>2026-04-12T12:46:51.999Z</time></trkpt><trkpt lat="42.3793317672075" lon="14.301656392752355"><ele>26.0</ele><time>2026-04-12T12:46:52.999Z</time></trkpt><trkpt lat="42.379553787835604" lon="14.30172748280084"><ele>26.0</ele><time>2026-04-12T12:46:53.999Z</time></trkpt><trkpt lat="42.37977936788302" lon="14.301796935473645"><ele>26.0</ele><time>2026-04-12T12:46:54.999Z</time></trkpt><trkpt lat="42.38000791481311" lon="14.301867302084647"><ele>26.0</ele><time>2026-04-12T12:46:55.998Z</time></trkpt><trkpt lat="42.38023587461179" lon="14.301934599805572"><ele>26.0</ele><time>2026-04-12T12:46:56.998Z</time></trkpt><trkpt lat="42.38046606255865" lon="14.302001904573062"><ele>25.5</ele><time>2026-04-12T12:46:57.998Z</time></trkpt><trkpt lat="42.380697136543745" lon="14.30206909311067"><ele>25.0</ele><time>2026-04-12T12:46:58.998Z</time></trkpt><trkpt lat="42.38092347016605" lon="14.302138661026897"><ele>25.0</ele><time>2026-04-12T12:46:59.998Z</time></trkpt><trkpt lat="42.38115115340117" lon="14.302212617000526"><ele>25.0</ele><time>2026-04-12T12:47:00.998Z</time></trkpt><trkpt lat="42.38137932583056" lon="14.302297316375533"><ele>23.5</ele><time>2026-04-12T12:47:01.998Z</time></trkpt><trkpt lat="42.381605165805844" lon="14.302396838826345"><ele>22.0</ele><time>2026-04-12T12:47:02.998Z</time></trkpt><trkpt lat="42.381824289358924" lon="14.302511600389257"><ele>22.0</ele><time>2026-04-12T12:47:03.998Z</time></trkpt><trkpt lat="42.38203762596445" lon="14.30263743800954"><ele>22.0</ele><time>2026-04-12T12:47:04.998Z</time></trkpt><trkpt lat="42.382220817992966" lon="14.30275392227472"><ele>22.0</ele><time>2026-04-12T12:47:05.998Z</time></trkpt><trkpt lat="42.38235349543363" lon="14.302856926541207"><ele>22.0</ele><time>2026-04-12T12:47:06.998Z</time></trkpt><trkpt lat="42.38245205907466" lon="14.302940712521243"><ele>22.0</ele><time>2026-04-12T12:47:07.998Z</time></trkpt><trkpt lat="42.38252452040867" lon="14.303024388020255"><ele>22.0</ele><time>2026-04-12T12:47:08.998Z</time></trkpt><trkpt lat="42.38255900188716" lon="14.30311959062792"><ele>22.0</ele><time>2026-04-12T12:47:09.998Z</time></trkpt><trkpt lat="42.38249527763504" lon="14.303402030609707"><ele>22.0</ele><time>2026-04-12T12:47:11.998Z</time></trkpt><trkpt lat="42.38246090736999" lon="14.303590919742105"><ele>22.0</ele><time>2026-04-12T12:47:12.998Z</time></trkpt><trkpt lat="42.38242339260488" lon="14.303801925986383"><ele>22.0</ele><time>2026-04-12T12:47:13.998Z</time></trkpt><trkpt lat="42.38243473022271" lon="14.304031490567048"><ele>21.666666666666664</ele><time>2026-04-12T12:47:14.998Z</time></trkpt><trkpt lat="42.38240566173891" lon="14.304267376049188"><ele>21.333333333333332</ele><time>2026-04-12T12:47:15.998Z</time></trkpt><trkpt lat="42.382382471454605" lon="14.304521807321152"><ele>21.0</ele><time>2026-04-12T12:47:16.998Z</time></trkpt><trkpt lat="42.38235580423482" lon="14.304792177737989"><ele>20.333333333333332</ele><time>2026-04-12T12:47:17.998Z</time></trkpt><trkpt lat="42.3822803253956" lon="14.305058494395958"><ele>19.666666666666664</ele><time>2026-04-12T12:47:18.998Z</time></trkpt><trkpt lat="42.38224802930068" lon="14.305333111906748"><ele>19.0</ele><time>2026-04-12T12:47:19.998Z</time></trkpt><trkpt lat="42.38221314746451" lon="14.305582131829947"><ele>18.5</ele><time>2026-04-12T12:47:20.998Z</time></trkpt><trkpt lat="42.38217879397353" lon="14.305794718191146"><ele>18.0</ele><time>2026-04-12T12:47:21.998Z</time></trkpt><trkpt lat="42.38214732799318" lon="14.30598101946287"><ele>17.5</ele><time>2026-04-12T12:47:23Z</time></trkpt><trkpt lat="42.38211871251609" lon="14.30613498692059"><ele>17.0</ele><time>2026-04-12T12:47:24Z</time></trkpt><trkpt lat="42.382089598758895" lon="14.306242878117002"><ele>17.0</ele><time>2026-04-12T12:47:25Z</time></trkpt><trkpt lat="42.38203970388853" lon="14.306378700091383"><ele>17.0</ele><time>2026-04-12T12:47:27Z</time></trkpt><trkpt lat="42.38213858780065" lon="14.306562785099507"><ele>17.0</ele><time>2026-04-12T12:47:28Z</time></trkpt><trkpt lat="42.38221397341417" lon="14.306661720177072"><ele>17.0</ele><time>2026-04-12T12:47:29Z</time></trkpt><trkpt lat="42.38228873166486" lon="14.306793800923437"><ele>17.0</ele><time>2026-04-12T12:47:30Z</time></trkpt><trkpt lat="42.38236416773075" lon="14.306950260982122"><ele>17.0</ele><time>2026-04-12T12:47:31Z</time></trkpt><trkpt lat="42.38244603394646" lon="14.30713177277492"><ele>17.0</ele><time>2026-04-12T12:47:32Z</time></trkpt><trkpt lat="42.38253374509588" lon="14.307327469720486"><ele>16.666666666666668</ele><time>2026-04-12T12:47:33Z</time></trkpt><trkpt lat="42.382621807135024" lon="14.307529201107833"><ele>16.333333333333332</ele><time>2026-04-12T12:47:34Z</time></trkpt><trkpt lat="42.382716202730315" lon="14.307745451049907"><ele>16.0</ele><time>2026-04-12T12:47:35Z</time></trkpt><trkpt lat="42.38282116959335" lon="14.30797754821323"><ele>16.0</ele><time>2026-04-12T12:47:36Z</time></trkpt><trkpt lat="42.382931451805426" lon="14.308219050404169"><ele>16.0</ele><time>2026-04-12T12:47:37Z</time></trkpt><trkpt lat="42.38304299218859" lon="14.3084630974259"><ele>16.0</ele><time>2026-04-12T12:47:38Z</time></trkpt><trkpt lat="42.38315286114912" lon="14.308703487396356"><ele>15.333333333333332</ele><time>2026-04-12T12:47:39Z</time></trkpt><trkpt lat="42.38326882962705" lon="14.30895722296629"><ele>14.666666666666668</ele><time>2026-04-12T12:47:40Z</time></trkpt><trkpt lat="42.38338716117074" lon="14.309218014759029"><ele>14.0</ele><time>2026-04-12T12:47:41Z</time></trkpt><trkpt lat="42.38350669887716" lon="14.309482852616966"><ele>14.0</ele><time>2026-04-12T12:47:42Z</time></trkpt><trkpt lat="42.38362724828919" lon="14.309749931909916"><ele>14.0</ele><time>2026-04-12T12:47:43Z</time></trkpt><trkpt lat="42.38374818049211" lon="14.310016317646573"><ele>14.333333333333334</ele><time>2026-04-12T12:47:44Z</time></trkpt><trkpt lat="42.38386163465396" lon="14.31025976206012"><ele>14.666666666666668</ele><time>2026-04-12T12:47:45Z</time></trkpt><trkpt lat="42.38397570067845" lon="14.310476700385966"><ele>15.0</ele><time>2026-04-12T12:47:46Z</time></trkpt><trkpt lat="42.38409853537482" lon="14.310651557660515"><ele>15.0</ele><time>2026-04-12T12:47:47Z</time></trkpt><trkpt lat="42.38426381585851" lon="14.310777735669983"><ele>15.0</ele><time>2026-04-12T12:47:48Z</time></trkpt><trkpt lat="42.38444583446309" lon="14.310890657241"><ele>15.0</ele><time>2026-04-12T12:47:49Z</time></trkpt><trkpt lat="42.38464344356128" lon="14.310982569345548"><ele>14.666666666666668</ele><time>2026-04-12T12:47:50Z</time></trkpt><trkpt lat="42.38483977807033" lon="14.311095934646364"><ele>14.333333333333334</ele><time>2026-04-12T12:47:51Z</time></trkpt><trkpt lat="42.38504269587386" lon="14.311201422295317"><ele>14.0</ele><time>2026-04-12T12:47:52Z</time></trkpt><trkpt lat="42.38524664051161" lon="14.311310799697624"><ele>14.0</ele><time>2026-04-12T12:47:53Z</time></trkpt><trkpt lat="42.38543909870405" lon="14.311414017050852"><ele>14.0</ele><time>2026-04-12T12:47:54Z</time></trkpt><trkpt lat="42.38557734644151" lon="14.311487303528207"><ele>14.0</ele><time>2026-04-12T12:47:55Z</time></trkpt><trkpt lat="42.385698776419616" lon="14.311550875176245"><ele>14.0</ele><time>2026-04-12T12:47:56Z</time></trkpt><trkpt lat="42.38581724200481" lon="14.311612894804348"><ele>14.0</ele><time>2026-04-12T12:47:56.999Z</time></trkpt><trkpt lat="42.38594268921798" lon="14.31167856950347"><ele>14.0</ele><time>2026-04-12T12:47:57.999Z</time></trkpt><trkpt lat="42.38606034048657" lon="14.311740162809858"><ele>14.0</ele><time>2026-04-12T12:47:58.999Z</time></trkpt><trkpt lat="42.3861659076315" lon="14.311772857447943"><ele>14.0</ele><time>2026-04-12T12:47:59.999Z</time></trkpt><trkpt lat="42.38625870819184" lon="14.311820447574698"><ele>13.999999999999998</ele><time>2026-04-12T12:48:00.999Z</time></trkpt><trkpt lat="42.386348780365054" lon="14.311871581119979"><ele>13.999999999999998</ele><time>2026-04-12T12:48:01.999Z</time></trkpt><trkpt lat="42.386423005642854" lon="14.311921707211809"><ele>14.0</ele><time>2026-04-12T12:48:02.999Z</time></trkpt><trkpt lat="42.386484807120894" lon="14.3119862408748"><ele>14.0</ele><time>2026-04-12T12:48:04.999Z</time></trkpt><trkpt lat="42.38642397025612" lon="14.312211396208683"><ele>14.0</ele><time>2026-04-12T12:48:06.999Z</time></trkpt><trkpt lat="42.38640128793915" lon="14.312348614361438"><ele>13.999999999999998</ele><time>2026-04-12T12:48:07.999Z</time></trkpt><trkpt lat="42.38637457410813" lon="14.312473988569659"><ele>13.999999999999998</ele><time>2026-04-12T12:48:08.999Z</time></trkpt><trkpt lat="42.386339024054614" lon="14.312603140197593"><ele>14.0</ele><time>2026-04-12T12:48:09.999Z</time></trkpt><trkpt lat="42.38630516024835" lon="14.312738265436982"><ele>14.0</ele><time>2026-04-12T12:48:10.999Z</time></trkpt><trkpt lat="42.38627505590396" lon="14.312880533944599"><ele>13.75</ele><time>2026-04-12T12:48:11.999Z</time></trkpt><trkpt lat="42.38624260719209" lon="14.313025148013637"><ele>13.5</ele><time>2026-04-12T12:48:12.999Z</time></trkpt><trkpt lat="42.38620700888859" lon="14.313172070727223"><ele>13.25</ele><time>2026-04-12T12:48:13.999Z</time></trkpt><trkpt lat="42.38617020332071" lon="14.313321122062916"><ele>13.0</ele><time>2026-04-12T12:48:14.999Z</time></trkpt><trkpt lat="42.38613330433582" lon="14.313470594996039"><ele>13.0</ele><time>2026-04-12T12:48:15.999Z</time></trkpt><trkpt lat="42.386096959435584" lon="14.313625374094524"><ele>13.0</ele><time>2026-04-12T12:48:16.999Z</time></trkpt><trkpt lat="42.38606046112666" lon="14.313791185196656"><ele>13.0</ele><time>2026-04-12T12:48:17.999Z</time></trkpt><trkpt lat="42.386021230088986" lon="14.313962746050358"><ele>13.0</ele><time>2026-04-12T12:48:18.999Z</time></trkpt><trkpt lat="42.38598196843229" lon="14.31412975745296"><ele>13.0</ele><time>2026-04-12T12:48:19.999Z</time></trkpt><trkpt lat="42.38594193052769" lon="14.31430155338058"><ele>13.0</ele><time>2026-04-12T12:48:20.999Z</time></trkpt><trkpt lat="42.38590633158558" lon="14.31446721150647"><ele>13.0</ele><time>2026-04-12T12:48:21.999Z</time></trkpt><trkpt lat="42.38587484767716" lon="14.31460847176439"><ele>13.0</ele><time>2026-04-12T12:48:22.999Z</time></trkpt><trkpt lat="42.385846908864025" lon="14.314748921420133"><ele>12.25</ele><time>2026-04-12T12:48:23.999Z</time></trkpt><trkpt lat="42.385816580280164" lon="14.314896996999979"><ele>11.5</ele><time>2026-04-12T12:48:24.999Z</time></trkpt><trkpt lat="42.385778621109" lon="14.315042680033295"><ele>10.75</ele><time>2026-04-12T12:48:25.999Z</time></trkpt><trkpt lat="42.385745054532315" lon="14.315189069669975"><ele>10.0</ele><time>2026-04-12T12:48:26.999Z</time></trkpt><trkpt lat="42.38571180720126" lon="14.315353861143588"><ele>10.0</ele><time>2026-04-12T12:48:27.999Z</time></trkpt><trkpt lat="42.385674002599956" lon="14.31549963472234"><ele>10.0</ele><time>2026-04-12T12:48:28.999Z</time></trkpt><trkpt lat="42.38563779148055" lon="14.315641597096214"><ele>10.0</ele><time>2026-04-12T12:48:29.999Z</time></trkpt><trkpt lat="42.38560168750358" lon="14.315778267826262"><ele>10.0</ele><time>2026-04-12T12:48:30.999Z</time></trkpt><trkpt lat="42.38557299630339" lon="14.315901205607776"><ele>10.0</ele><time>2026-04-12T12:48:31.999Z</time></trkpt><trkpt lat="42.385560901965114" lon="14.315991794362338"><ele>9.666666666666668</ele><time>2026-04-12T12:48:32.999Z</time></trkpt><trkpt lat="42.38555170336119" lon="14.316078073226603"><ele>9.333333333333334</ele><time>2026-04-12T12:48:34.999Z</time></trkpt><trkpt lat="42.38564402841422" lon="14.31614026767508"><ele>9.0</ele><time>2026-04-12T12:48:36.999Z</time></trkpt><trkpt lat="42.38572101802397" lon="14.316161611473373"><ele>8.666666666666666</ele><time>2026-04-12T12:48:37.999Z</time></trkpt><trkpt lat="42.38579084901355" lon="14.316202352971233"><ele>8.333333333333332</ele><time>2026-04-12T12:48:38.999Z</time></trkpt><trkpt lat="42.38585597733765" lon="14.316244649351784"><ele>8.0</ele><time>2026-04-12T12:48:39.999Z</time></trkpt><trkpt lat="42.385954375755055" lon="14.316306338373103"><ele>8.0</ele><time>2026-04-12T12:48:41.999Z</time></trkpt><trkpt lat="42.38597556431573" lon="14.316399991283221"><ele>8.0</ele><time>2026-04-12T12:48:43.999Z</time></trkpt><trkpt lat="42.38591985357238" lon="14.316562980274847"><ele>8.0</ele><time>2026-04-12T12:48:45.999Z</time></trkpt><trkpt lat="42.3858803821897" lon="14.31668624152052"><ele>8.0</ele><time>2026-04-12T12:48:46.999Z</time></trkpt><trkpt lat="42.38583839936646" lon="14.316825637676859"><ele>8.0</ele><time>2026-04-12T12:48:47.999Z</time></trkpt><trkpt lat="42.38579148622398" lon="14.316978981139478"><ele>7.75</ele><time>2026-04-12T12:48:48.999Z</time></trkpt><trkpt lat="42.38573755401875" lon="14.317138753525352"><ele>7.5</ele><time>2026-04-12T12:48:49.999Z</time></trkpt><trkpt lat="42.38568559300015" lon="14.317291744450234"><ele>7.25</ele><time>2026-04-12T12:48:50.999Z</time></trkpt><trkpt lat="42.38563088457502" lon="14.317445715805219"><ele>7.0</ele><time>2026-04-12T12:48:51.999Z</time></trkpt><trkpt lat="42.38558290170656" lon="14.317566581239209"><ele>7.199999999999999</ele><time>2026-04-12T12:48:52.999Z</time></trkpt><trkpt lat="42.38554388370883" lon="14.317692335100896"><ele>7.3999999999999995</ele><time>2026-04-12T12:48:53.999Z</time></trkpt><trkpt lat="42.385502001482116" lon="14.31782378487729"><ele>7.6000000000000005</ele><time>2026-04-12T12:48:54.999Z</time></trkpt><trkpt lat="42.385450916657646" lon="14.317944385338034"><ele>7.800000000000001</ele><time>2026-04-12T12:48:55.999Z</time></trkpt><trkpt lat="42.385414388951745" lon="14.31803271472893"><ele>8.0</ele><time>2026-04-12T12:48:56.999Z</time></trkpt><trkpt lat="42.3853920106752" lon="14.31812249814719"><ele>8.4</ele><time>2026-04-12T12:48:57.998Z</time></trkpt><trkpt lat="42.385370294464494" lon="14.318223343410477"><ele>8.8</ele><time>2026-04-12T12:48:58.998Z</time></trkpt><trkpt lat="42.38536015044748" lon="14.318354769542331"><ele>9.2</ele><time>2026-04-12T12:49:00.998Z</time></trkpt><trkpt lat="42.38543350263825" lon="14.318440810064361"><ele>9.6</ele><time>2026-04-12T12:49:02.998Z</time></trkpt><trkpt lat="42.38550639544432" lon="14.318433383411977"><ele>10.0</ele><time>2026-04-12T12:49:03.998Z</time></trkpt><trkpt lat="42.38560581156454" lon="14.318389410350322"><ele>10.25</ele><time>2026-04-12T12:49:04.998Z</time></trkpt><trkpt lat="42.38571597599176" lon="14.31832253731338"><ele>10.5</ele><time>2026-04-12T12:49:05.998Z</time></trkpt><trkpt lat="42.38584933315902" lon="14.318245829582487"><ele>10.75</ele><time>2026-04-12T12:49:06.998Z</time></trkpt><trkpt lat="42.38598151135631" lon="14.318185211364801"><ele>11.0</ele><time>2026-04-12T12:49:07.998Z</time></trkpt><trkpt lat="42.38613946697175" lon="14.3181487639731"><ele>11.0</ele><time>2026-04-12T12:49:08.998Z</time></trkpt><trkpt lat="42.38629806554154" lon="14.318109195686075"><ele>11.0</ele><time>2026-04-12T12:49:09.998Z</time></trkpt><trkpt lat="42.38646124252531" lon="14.318078336493128"><ele>11.0</ele><time>2026-04-12T12:49:10.998Z</time></trkpt><trkpt lat="42.38658465033337" lon="14.318035003232303"><ele>10.8</ele><time>2026-04-12T12:49:11.998Z</time></trkpt><trkpt lat="42.386704443285545" lon="14.317979413220458"><ele>10.600000000000001</ele><time>2026-04-12T12:49:12.998Z</time></trkpt><trkpt lat="42.386803777123035" lon="14.317962168524147"><ele>10.4</ele><time>2026-04-12T12:49:13.998Z</time></trkpt><trkpt lat="42.38687532703016" lon="14.318017569139876"><ele>10.2</ele><time>2026-04-12T12:49:14.998Z</time></trkpt><trkpt lat="42.38693692402148" lon="14.318054012843596"><ele>10.0</ele><time>2026-04-12T12:49:16.998Z</time></trkpt><trkpt lat="42.38683683509426" lon="14.318253440007496"><ele>10.0</ele><time>2026-04-12T12:49:17.998Z</time></trkpt><trkpt lat="42.38680203924732" lon="14.31840414278469"><ele>10.0</ele><time>2026-04-12T12:49:18.998Z</time></trkpt><trkpt lat="42.38675658336042" lon="14.318581842335405"><ele>10.0</ele><time>2026-04-12T12:49:19.998Z</time></trkpt><trkpt lat="42.38671240884295" lon="14.31874855623098"><ele>10.0</ele><time>2026-04-12T12:49:20.998Z</time></trkpt><trkpt lat="42.386682983813444" lon="14.318858822725145"><ele>10.0</ele><time>2026-04-12T12:49:21.998Z</time></trkpt><trkpt lat="42.38656860220348" lon="14.318824759366134"><ele>10.0</ele><time>2026-04-12T12:49:24.998Z</time></trkpt><trkpt lat="42.38645253540258" lon="14.318721464437528"><ele>10.0</ele><time>2026-04-12T12:49:25.998Z</time></trkpt><trkpt lat="42.386303546973096" lon="14.318674904952413"><ele>10.0</ele><time>2026-04-12T12:49:26.998Z</time></trkpt><trkpt lat="42.386176579163376" lon="14.318684693167123"><ele>10.333333333333334</ele><time>2026-04-12T12:49:27.998Z</time></trkpt><trkpt lat="42.38604441908415" lon="14.31873350066616"><ele>10.666666666666666</ele><time>2026-04-12T12:49:29Z</time></trkpt><trkpt lat="42.385884599939246" lon="14.318812035113822"><ele>11.0</ele><time>2026-04-12T12:49:30Z</time></trkpt><trkpt lat="42.38573328350396" lon="14.318862630485373"><ele>11.0</ele><time>2026-04-12T12:49:31Z</time></trkpt><trkpt lat="42.38561388505642" lon="14.318900196448919"><ele>11.0</ele><time>2026-04-12T12:49:32Z</time></trkpt><trkpt lat="42.38551285678509" lon="14.318924045277337"><ele>11.0</ele><time>2026-04-12T12:49:33Z</time></trkpt><trkpt lat="42.38539457613689" lon="14.318954426973795"><ele>11.0</ele><time>2026-04-12T12:49:34Z</time></trkpt><trkpt lat="42.385264765999516" lon="14.318958333057575"><ele>10.8</ele><time>2026-04-12T12:49:35Z</time></trkpt><trkpt lat="42.385149240019985" lon="14.318916859489894"><ele>10.600000000000001</ele><time>2026-04-12T12:49:36Z</time></trkpt><trkpt lat="42.38503002831823" lon="14.31887687559917"><ele>10.4</ele><time>2026-04-12T12:49:37Z</time></trkpt><trkpt lat="42.38496569332832" lon="14.31884717975672"><ele>10.2</ele><time>2026-04-12T12:49:38Z</time></trkpt><trkpt lat="42.385033429576765" lon="14.318924355762505"><ele>10.0</ele><time>2026-04-12T12:49:46Z</time></trkpt><trkpt lat="42.3851129690093" lon="14.31891476215078"><ele>10.0</ele><time>2026-04-12T12:49:47Z</time></trkpt><trkpt lat="42.385199365873554" lon="14.318942058044899"><ele>10.0</ele><time>2026-04-12T12:49:48Z</time></trkpt><trkpt lat="42.385301238424816" lon="14.318964193003843"><ele>10.0</ele><time>2026-04-12T12:49:49Z</time></trkpt><trkpt lat="42.38542276029274" lon="14.318963535896932"><ele>10.0</ele><time>2026-04-12T12:49:50Z</time></trkpt><trkpt lat="42.38555328707597" lon="14.31894552891884"><ele>10.0</ele><time>2026-04-12T12:49:51Z</time></trkpt><trkpt lat="42.38568727817751" lon="14.318914376495478"><ele>10.25</ele><time>2026-04-12T12:49:52Z</time></trkpt><trkpt lat="42.38582210278551" lon="14.318871778363912"><ele>10.5</ele><time>2026-04-12T12:49:53Z</time></trkpt><trkpt lat="42.38596331282985" lon="14.31881242048709"><ele>10.75</ele><time>2026-04-12T12:49:54Z</time></trkpt><trkpt lat="42.386113590910746" lon="14.318743040415432"><ele>11.0</ele><time>2026-04-12T12:49:55Z</time></trkpt><trkpt lat="42.38625426581302" lon="14.318701785953511"><ele>10.75</ele><time>2026-04-12T12:49:56Z</time></trkpt><trkpt lat="42.38637797888541" lon="14.31870586682778"><ele>10.5</ele><time>2026-04-12T12:49:57Z</time></trkpt><trkpt lat="42.386489440485065" lon="14.318751774978397"><ele>10.25</ele><time>2026-04-12T12:49:58Z</time></trkpt><trkpt lat="42.38659115217475" lon="14.318827686113979"><ele>10.0</ele><time>2026-04-12T12:49:59Z</time></trkpt><trkpt lat="42.38667064860623" lon="14.318907570593302"><ele>9.6</ele><time>2026-04-12T12:50:00Z</time></trkpt><trkpt lat="42.38672416936201" lon="14.319042457448154"><ele>9.2</ele><time>2026-04-12T12:50:01.999Z</time></trkpt><trkpt lat="42.38671043523477" lon="14.319139386370363"><ele>8.8</ele><time>2026-04-12T12:50:02.999Z</time></trkpt><trkpt lat="42.38662733774642" lon="14.319203882711783"><ele>8.4</ele><time>2026-04-12T12:50:04.999Z</time></trkpt><trkpt lat="42.386505821446704" lon="14.319130066316507"><ele>8.0</ele><time>2026-04-12T12:50:06.999Z</time></trkpt><trkpt lat="42.386408175568945" lon="14.319080497836008"><ele>8.25</ele><time>2026-04-12T12:50:07.999Z</time></trkpt><trkpt lat="42.386290954782886" lon="14.319036142280073"><ele>8.5</ele><time>2026-04-12T12:50:08.999Z</time></trkpt><trkpt lat="42.38618359656438" lon="14.319014050308091"><ele>8.75</ele><time>2026-04-12T12:50:09.999Z</time></trkpt><trkpt lat="42.386061237878266" lon="14.319022675662872"><ele>9.0</ele><time>2026-04-12T12:50:10.999Z</time></trkpt><trkpt lat="42.38592492303629" lon="14.319049448545286"><ele>9.0</ele><time>2026-04-12T12:50:11.999Z</time></trkpt><trkpt lat="42.38577388642022" lon="14.319102964419372"><ele>9.0</ele><time>2026-04-12T12:50:12.999Z</time></trkpt><trkpt lat="42.38558486241397" lon="14.3189074918917"><ele>9.0</ele><time>2026-04-12T12:50:13.999Z</time></trkpt><trkpt lat="42.38544106705915" lon="14.318935992075485"><ele>9.25</ele><time>2026-04-12T12:50:14.999Z</time></trkpt><trkpt lat="42.385312447913485" lon="14.318940394089534"><ele>9.5</ele><time>2026-04-12T12:50:15.999Z</time></trkpt><trkpt lat="42.38518524126405" lon="14.31892529002658"><ele>9.75</ele><time>2026-04-12T12:50:16.999Z</time></trkpt><trkpt lat="42.38506439219833" lon="14.318889106131639"><ele>10.0</ele><time>2026-04-12T12:50:17.999Z</time></trkpt><trkpt lat="42.38493325639636" lon="14.318831094411204"><ele>10.0</ele><time>2026-04-12T12:50:18.999Z</time></trkpt><trkpt lat="42.384810236611884" lon="14.318761569861195"><ele>10.0</ele><time>2026-04-12T12:50:19.999Z</time></trkpt><trkpt lat="42.38471674674988" lon="14.318690735900182"><ele>10.0</ele><time>2026-04-12T12:50:20.999Z</time></trkpt><trkpt lat="42.384613362901874" lon="14.318601461844741"><ele>10.0</ele><time>2026-04-12T12:50:21.999Z</time></trkpt><trkpt lat="42.38453080051001" lon="14.31851679741152"><ele>10.0</ele><time>2026-04-12T12:50:22.999Z</time></trkpt><trkpt lat="42.38447333836854" lon="14.318441701802595"><ele>10.0</ele><time>2026-04-12T12:50:23.999Z</time></trkpt><trkpt lat="42.38440577697065" lon="14.31834283291664"><ele>10.0</ele><time>2026-04-12T12:50:24.999Z</time></trkpt><trkpt lat="42.38432605172558" lon="14.31819568128339"><ele>10.0</ele><time>2026-04-12T12:50:25.999Z</time></trkpt><trkpt lat="42.384250107359776" lon="14.318028222628039"><ele>10.0</ele><time>2026-04-12T12:50:26.999Z</time></trkpt><trkpt lat="42.384190132502795" lon="14.317868299003939"><ele>10.0</ele><time>2026-04-12T12:50:27.999Z</time></trkpt><trkpt lat="42.384143688931296" lon="14.317708443521207"><ele>10.0</ele><time>2026-04-12T12:50:28.999Z</time></trkpt><trkpt lat="42.38411991311241" lon="14.317575609674682"><ele>10.0</ele><time>2026-04-12T12:50:29.999Z</time></trkpt><trkpt lat="42.38410163907205" lon="14.317432259177515"><ele>10.0</ele><time>2026-04-12T12:50:30.999Z</time></trkpt><trkpt lat="42.38409492073867" lon="14.31727344303071"><ele>10.0</ele><time>2026-04-12T12:50:31.999Z</time></trkpt><trkpt lat="42.38410156228387" lon="14.317094726671508"><ele>10.0</ele><time>2026-04-12T12:50:32.999Z</time></trkpt><trkpt lat="42.38411387783851" lon="14.316888202526895"><ele>10.0</ele><time>2026-04-12T12:50:33.999Z</time></trkpt><trkpt lat="42.38412441252827" lon="14.316694102364355"><ele>10.0</ele><time>2026-04-12T12:50:34.999Z</time></trkpt><trkpt lat="42.38412008892801" lon="14.316508985494758"><ele>10.0</ele><time>2026-04-12T12:50:35.999Z</time></trkpt><trkpt lat="42.384106684291325" lon="14.316388094730913"><ele>10.0</ele><time>2026-04-12T12:50:36.999Z</time></trkpt><trkpt lat="42.38408124196913" lon="14.316239146579996"><ele>10.0</ele><time>2026-04-12T12:50:37.999Z</time></trkpt><trkpt lat="42.38404117593691" lon="14.316083550621604"><ele>10.0</ele><time>2026-04-12T12:50:38.999Z</time></trkpt><trkpt lat="42.38398071007203" lon="14.315915101440536"><ele>10.0</ele><time>2026-04-12T12:50:39.999Z</time></trkpt><trkpt lat="42.38388990436653" lon="14.31572966579785"><ele>10.0</ele><time>2026-04-12T12:50:40.999Z</time></trkpt><trkpt lat="42.383780637280935" lon="14.315566533152015"><ele>10.0</ele><time>2026-04-12T12:50:41.999Z</time></trkpt><trkpt lat="42.38367546395762" lon="14.315408419100445"><ele>10.0</ele><time>2026-04-12T12:50:42.999Z</time></trkpt><trkpt lat="42.38355982323445" lon="14.315244449397959"><ele>10.0</ele><time>2026-04-12T12:50:43.999Z</time></trkpt><trkpt lat="42.38344014297342" lon="14.315079720394607"><ele>10.0</ele><time>2026-04-12T12:50:44.999Z</time></trkpt><trkpt lat="42.383333165865814" lon="14.314934089318209"><ele>10.0</ele><time>2026-04-12T12:50:45.999Z</time></trkpt><trkpt lat="42.38323464914654" lon="14.314794090875418"><ele>10.0</ele><time>2026-04-12T12:50:46.999Z</time></trkpt><trkpt lat="42.383139003859796" lon="14.314650557557403"><ele>10.0</ele><time>2026-04-12T12:50:47.999Z</time></trkpt><trkpt lat="42.3830588787996" lon="14.314524989590721"><ele>10.0</ele><time>2026-04-12T12:50:48.999Z</time></trkpt><trkpt lat="42.38297972459124" lon="14.31438766000294"><ele>10.0</ele><time>2026-04-12T12:50:49.999Z</time></trkpt><trkpt lat="42.38291559665559" lon="14.314241174139559"><ele>10.0</ele><time>2026-04-12T12:50:50.999Z</time></trkpt><trkpt lat="42.3828821368633" lon="14.31407342564529"><ele>10.0</ele><time>2026-04-12T12:50:51.999Z</time></trkpt><trkpt lat="42.38286913348378" lon="14.31388558199088"><ele>10.333333333333334</ele><time>2026-04-12T12:50:52.999Z</time></trkpt><trkpt lat="42.38286018990948" lon="14.313671698724033"><ele>10.666666666666666</ele><time>2026-04-12T12:50:53.999Z</time></trkpt><trkpt lat="42.38285090747391" lon="14.313449711903617"><ele>11.0</ele><time>2026-04-12T12:50:54.999Z</time></trkpt><trkpt lat="42.38284095864584" lon="14.313211788419066"><ele>11.0</ele><time>2026-04-12T12:50:55.999Z</time></trkpt><trkpt lat="42.382830988470324" lon="14.312973354346918"><ele>11.0</ele><time>2026-04-12T12:50:56.999Z</time></trkpt><trkpt lat="42.382821073559285" lon="14.312730813878707"><ele>11.0</ele><time>2026-04-12T12:50:57.999Z</time></trkpt><trkpt lat="42.3828129396769" lon="14.312503789636192"><ele>11.0</ele><time>2026-04-12T12:50:58.999Z</time></trkpt><trkpt lat="42.38280537719279" lon="14.31229271356627"><ele>11.0</ele><time>2026-04-12T12:50:59.999Z</time></trkpt><trkpt lat="42.38279871707322" lon="14.312106823506165"><ele>11.0</ele><time>2026-04-12T12:51:00.999Z</time></trkpt><trkpt lat="42.382791428111325" lon="14.311949053268265"><ele>11.0</ele><time>2026-04-12T12:51:01.999Z</time></trkpt><trkpt lat="42.382783534352846" lon="14.311818530816879"><ele>11.25</ele><time>2026-04-12T12:51:02.998Z</time></trkpt><trkpt lat="42.38277718506876" lon="14.311698983831837"><ele>11.5</ele><time>2026-04-12T12:51:03.998Z</time></trkpt><trkpt lat="42.38277204638682" lon="14.311584532308368"><ele>11.75</ele><time>2026-04-12T12:51:04.998Z</time></trkpt><trkpt lat="42.38274600042682" lon="14.311367459059579"><ele>12.0</ele><time>2026-04-12T12:51:05.998Z</time></trkpt><trkpt lat="42.38260245381682" lon="14.311163273543265"><ele>12.5</ele><time>2026-04-12T12:51:06.998Z</time></trkpt><trkpt lat="42.38230394783624" lon="14.311197167714115"><ele>13.0</ele><time>2026-04-12T12:51:07.998Z</time></trkpt><trkpt lat="42.38218149068839" lon="14.311431958892427"><ele>13.0</ele><time>2026-04-12T12:51:08.998Z</time></trkpt><trkpt lat="42.38211812097224" lon="14.311424516737812"><ele>13.0</ele><time>2026-04-12T12:51:09.998Z</time></trkpt><trkpt lat="42.38212110779262" lon="14.311559319330577"><ele>13.0</ele><time>2026-04-12T12:51:10.998Z</time></trkpt><trkpt lat="42.38208209440703" lon="14.311656794484053"><ele>13.0</ele><time>2026-04-12T12:51:11.998Z</time></trkpt><trkpt lat="42.381999861152046" lon="14.311779446827112"><ele>13.0</ele><time>2026-04-12T12:51:12.998Z</time></trkpt><trkpt lat="42.38192721628485" lon="14.311916089950541"><ele>13.0</ele><time>2026-04-12T12:51:13.998Z</time></trkpt><trkpt lat="42.38185364663828" lon="14.31206645495051"><ele>13.0</ele><time>2026-04-12T12:51:14.998Z</time></trkpt><trkpt lat="42.381727229954485" lon="14.31219381729933"><ele>13.0</ele><time>2026-04-12T12:51:15.998Z</time></trkpt><trkpt lat="42.3816392393799" lon="14.312302726562793"><ele>13.0</ele><time>2026-04-12T12:51:16.998Z</time></trkpt><trkpt lat="42.381580068551564" lon="14.312392776113995"><ele>12.75</ele><time>2026-04-12T12:51:17.998Z</time></trkpt><trkpt lat="42.381494092962456" lon="14.312444843525586"><ele>12.5</ele><time>2026-04-12T12:51:18.998Z</time></trkpt><trkpt lat="42.38138946891966" lon="14.312413045992974"><ele>12.25</ele><time>2026-04-12T12:51:19.998Z</time></trkpt><trkpt lat="42.38127395101144" lon="14.312339528910261"><ele>12.0</ele><time>2026-04-12T12:51:20.998Z</time></trkpt><trkpt lat="42.381127886553855" lon="14.312264273615742"><ele>12.666666666666668</ele><time>2026-04-12T12:51:21.998Z</time></trkpt><trkpt lat="42.380952586697866" lon="14.312198874335461"><ele>13.333333333333334</ele><time>2026-04-12T12:51:22.998Z</time></trkpt><trkpt lat="42.380792328044976" lon="14.31215983014669"><ele>14.0</ele><time>2026-04-12T12:51:23.998Z</time></trkpt><trkpt lat="42.3806591805685" lon="14.31214072531858"><ele>14.0</ele><time>2026-04-12T12:51:24.998Z</time></trkpt><trkpt lat="42.38056898670377" lon="14.312126354792124"><ele>13.999999999999998</ele><time>2026-04-12T12:51:25.998Z</time></trkpt><trkpt lat="42.38049949294738" lon="14.312041260912672"><ele>13.999999999999998</ele><time>2026-04-12T12:51:26.998Z</time></trkpt><trkpt lat="42.38038779544341" lon="14.31195572567101"><ele>14.0</ele><time>2026-04-12T12:51:27.998Z</time></trkpt><trkpt lat="42.38034643029713" lon="14.311779557547641"><ele>14.0</ele><time>2026-04-12T12:51:28.998Z</time></trkpt><trkpt lat="42.380259127542004" lon="14.311661705967166"><ele>14.0</ele><time>2026-04-12T12:51:29.998Z</time></trkpt><trkpt lat="42.380053886302356" lon="14.311766202524304"><ele>14.0</ele><time>2026-04-12T12:51:30.998Z</time></trkpt><trkpt lat="42.37997791415472" lon="14.311697472728753"><ele>14.0</ele><time>2026-04-12T12:51:31.998Z</time></trkpt><trkpt lat="42.379898265454386" lon="14.311604372363094"><ele>14.0</ele><time>2026-04-12T12:51:32.998Z</time></trkpt><trkpt lat="42.37978938526003" lon="14.311528553773082"><ele>14.0</ele><time>2026-04-12T12:51:33.998Z</time></trkpt><trkpt lat="42.37967070755217" lon="14.311494368274143"><ele>13.999999999999998</ele><time>2026-04-12T12:51:35Z</time></trkpt><trkpt lat="42.37957382081307" lon="14.311467458851624"><ele>13.999999999999998</ele><time>2026-04-12T12:51:36Z</time></trkpt><trkpt lat="42.37950308681279" lon="14.31145009547939"><ele>14.0</ele><time>2026-04-12T12:51:37Z</time></trkpt><trkpt lat="42.37943264133887" lon="14.311467767794381"><ele>14.0</ele><time>2026-04-12T12:51:38Z</time></trkpt><trkpt lat="42.37932449470179" lon="14.311477600575405"><ele>14.0</ele><time>2026-04-12T12:51:39Z</time></trkpt><trkpt lat="42.37919127189919" lon="14.311479414697486"><ele>14.0</ele><time>2026-04-12T12:51:40Z</time></trkpt><trkpt lat="42.37905226275281" lon="14.311457463734973"><ele>14.0</ele><time>2026-04-12T12:51:41Z</time></trkpt><trkpt lat="42.378916202464374" lon="14.31146111251779"><ele>14.0</ele><time>2026-04-12T12:51:42Z</time></trkpt><trkpt lat="42.37878045491296" lon="14.311483827695655"><ele>14.25</ele><time>2026-04-12T12:51:43Z</time></trkpt><trkpt lat="42.3786666811985" lon="14.311503561120173"><ele>14.5</ele><time>2026-04-12T12:51:44Z</time></trkpt><trkpt lat="42.378567802443854" lon="14.311483987625799"><ele>14.75</ele><time>2026-04-12T12:51:45Z</time></trkpt><trkpt lat="42.37847403783789" lon="14.311415099011514"><ele>15.0</ele><time>2026-04-12T12:51:46Z</time></trkpt><trkpt lat="42.37835868957621" lon="14.311327960291953"><ele>15.0</ele><time>2026-04-12T12:51:47Z</time></trkpt><trkpt lat="42.37824266153204" lon="14.311275922824315"><ele>15.0</ele><time>2026-04-12T12:51:48Z</time></trkpt><trkpt lat="42.37814717036848" lon="14.311240318546"><ele>15.0</ele><time>2026-04-12T12:51:49Z</time></trkpt><trkpt lat="42.378030177303586" lon="14.311187257499636"><ele>15.0</ele><time>2026-04-12T12:51:50Z</time></trkpt><trkpt lat="42.37790254043323" lon="14.311119798803697"><ele>15.25</ele><time>2026-04-12T12:51:51Z</time></trkpt><trkpt lat="42.37777305719642" lon="14.311029354659466"><ele>15.5</ele><time>2026-04-12T12:51:52Z</time></trkpt><trkpt lat="42.377635251651355" lon="14.3109306266373"><ele>15.75</ele><time>2026-04-12T12:51:53Z</time></trkpt><trkpt lat="42.3775240158315" lon="14.310839239397698"><ele>16.0</ele><time>2026-04-12T12:51:54Z</time></trkpt><trkpt lat="42.377435082706604" lon="14.3107993050624"><ele>15.999999999999998</ele><time>2026-04-12T12:51:55Z</time></trkpt><trkpt lat="42.37736159208219" lon="14.310772808604012"><ele>16.0</ele><time>2026-04-12T12:51:57Z</time></trkpt><trkpt lat="42.377298816783274" lon="14.310763059524726"><ele>16.0</ele><time>2026-04-12T12:51:58Z</time></trkpt><trkpt lat="42.3772307519744" lon="14.31074345212768"><ele>16.0</ele><time>2026-04-12T12:51:59Z</time></trkpt><trkpt lat="42.377134150416246" lon="14.31067511393018"><ele>15.999999999999998</ele><time>2026-04-12T12:52:00Z</time></trkpt><trkpt lat="42.377044875330036" lon="14.31062658671453"><ele>16.0</ele><time>2026-04-12T12:52:01Z</time></trkpt><trkpt lat="42.37694296590275" lon="14.310617580965134"><ele>16.400000000000002</ele><time>2026-04-12T12:52:02Z</time></trkpt><trkpt lat="42.37686429843774" lon="14.31060664712032"><ele>16.8</ele><time>2026-04-12T12:52:03Z</time></trkpt><trkpt lat="42.37676939059798" lon="14.310629930049428"><ele>17.200000000000003</ele><time>2026-04-12T12:52:03.999Z</time></trkpt><trkpt lat="42.376660761680775" lon="14.310660127375458"><ele>17.6</ele><time>2026-04-12T12:52:04.999Z</time></trkpt><trkpt lat="42.376537196381435" lon="14.310639167440335"><ele>18.0</ele><time>2026-04-12T12:52:05.999Z</time></trkpt><trkpt lat="42.37641779572556" lon="14.310598348769119"><ele>17.6</ele><time>2026-04-12T12:52:06.999Z</time></trkpt><trkpt lat="42.376300268064966" lon="14.310582869572638"><ele>17.200000000000003</ele><time>2026-04-12T12:52:07.999Z</time></trkpt><trkpt lat="42.376191963521045" lon="14.310566366697396"><ele>16.8</ele><time>2026-04-12T12:52:08.999Z</time></trkpt><trkpt lat="42.37609590939744" lon="14.310527853656382"><ele>16.400000000000002</ele><time>2026-04-12T12:52:09.999Z</time></trkpt><trkpt lat="42.376016309663676" lon="14.310500463289252"><ele>16.0</ele><time>2026-04-12T12:52:10.999Z</time></trkpt><trkpt lat="42.37592034700524" lon="14.310462166916084"><ele>16.0</ele><time>2026-04-12T12:52:11.999Z</time></trkpt><trkpt lat="42.375829936745866" lon="14.310440452650568"><ele>16.0</ele><time>2026-04-12T12:52:12.999Z</time></trkpt><trkpt lat="42.375727623590855" lon="14.310425492365601"><ele>16.0</ele><time>2026-04-12T12:52:13.999Z</time></trkpt><trkpt lat="42.37561548855403" lon="14.310388680033688"><ele>16.0</ele><time>2026-04-12T12:52:14.999Z</time></trkpt><trkpt lat="42.375475413111666" lon="14.31032983366316"><ele>17.666666666666664</ele><time>2026-04-12T12:52:15.999Z</time></trkpt><trkpt lat="42.37532443495838" lon="14.310253308690434"><ele>19.333333333333332</ele><time>2026-04-12T12:52:16.999Z</time></trkpt><trkpt lat="42.37515416559521" lon="14.31015022183962"><ele>21.0</ele><time>2026-04-12T12:52:17.999Z</time></trkpt><trkpt lat="42.37500913386749" lon="14.310017387337128"><ele>21.0</ele><time>2026-04-12T12:52:18.999Z</time></trkpt><trkpt lat="42.37489693089307" lon="14.309930388326524"><ele>21.0</ele><time>2026-04-12T12:52:19.999Z</time></trkpt><trkpt lat="42.37483377662145" lon="14.30988742222435"><ele>21.0</ele><time>2026-04-12T12:52:20.999Z</time></trkpt><trkpt lat="42.37473814451287" lon="14.309932919897134"><ele>21.0</ele><time>2026-04-12T12:52:22.999Z</time></trkpt><trkpt lat="42.37462458218268" lon="14.309993839819874"><ele>21.0</ele><time>2026-04-12T12:52:23.999Z</time></trkpt><trkpt lat="42.37451817747574" lon="14.310067105665802"><ele>21.200000000000003</ele><time>2026-04-12T12:52:24.999Z</time></trkpt><trkpt lat="42.37444342836981" lon="14.31010622638164"><ele>21.400000000000002</ele><time>2026-04-12T12:52:25.999Z</time></trkpt><trkpt lat="42.3743685443819" lon="14.310117493239684"><ele>21.6</ele><time>2026-04-12T12:52:26.999Z</time></trkpt><trkpt lat="42.37429365292515" lon="14.310086653033634"><ele>21.8</ele><time>2026-04-12T12:52:27.999Z</time></trkpt><trkpt lat="42.374198360843124" lon="14.310028126602331"><ele>22.0</ele><time>2026-04-12T12:52:28.999Z</time></trkpt><trkpt lat="42.37409202228432" lon="14.309925080429997"><ele>22.0</ele><time>2026-04-12T12:52:29.999Z</time></trkpt><trkpt lat="42.37397550637305" lon="14.309827105187997"><ele>22.0</ele><time>2026-04-12T12:52:30.999Z</time></trkpt><trkpt lat="42.373877993607266" lon="14.309724726001216"><ele>22.0</ele><time>2026-04-12T12:52:31.999Z</time></trkpt><trkpt lat="42.373804252864986" lon="14.309613740789377"><ele>22.0</ele><time>2026-04-12T12:52:32.999Z</time></trkpt><trkpt lat="42.37374558817595" lon="14.309552204538518"><ele>22.0</ele><time>2026-04-12T12:52:33.999Z</time></trkpt><trkpt lat="42.37371356198818" lon="14.309627270797485"><ele>26.200000000000003</ele><time>2026-04-12T12:52:35.999Z</time></trkpt><trkpt lat="42.37370831713913" lon="14.309821358743468"><ele>30.4</ele><time>2026-04-12T12:52:37.999Z</time></trkpt><trkpt lat="42.37374184814827" lon="14.309956449043751"><ele>34.599999999999994</ele><time>2026-04-12T12:52:38.999Z</time></trkpt><trkpt lat="42.373768488956145" lon="14.31007420463297"><ele>38.8</ele><time>2026-04-12T12:52:39.999Z</time></trkpt><trkpt lat="42.373781649531985" lon="14.310182441321034"><ele>43.0</ele><time>2026-04-12T12:52:40.999Z</time></trkpt><trkpt lat="42.373844399577834" lon="14.310298209389021"><ele>43.0</ele><time>2026-04-12T12:52:41.999Z</time></trkpt><trkpt lat="42.373832724837044" lon="14.310464250357281"><ele>43.0</ele><time>2026-04-12T12:52:42.999Z</time></trkpt><trkpt lat="42.37382089267408" lon="14.31059183639948"><ele>43.0</ele><time>2026-04-12T12:52:43.999Z</time></trkpt><trkpt lat="42.37379352286206" lon="14.310688452677004"><ele>43.0</ele><time>2026-04-12T12:52:44.999Z</time></trkpt><trkpt lat="42.37374715249106" lon="14.310764107137418"><ele>43.0</ele><time>2026-04-12T12:52:45.999Z</time></trkpt><trkpt lat="42.37369998386715" lon="14.310848402541545"><ele>43.0</ele><time>2026-04-12T12:52:46.999Z</time></trkpt><trkpt lat="42.373640972868195" lon="14.310958792906385"><ele>43.5</ele><time>2026-04-12T12:52:48.999Z</time></trkpt><trkpt lat="42.37356953111539" lon="14.31103613899434"><ele>44.0</ele><time>2026-04-12T12:52:50.999Z</time></trkpt><trkpt lat="42.37350468521455" lon="14.311073824436482"><ele>44.5</ele><time>2026-04-12T12:52:53.999Z</time></trkpt><trkpt lat="42.373478788757325" lon="14.311154074334558"><ele>45.0</ele><time>2026-04-12T12:52:56.999Z</time></trkpt><trkpt lat="42.37351918329611" lon="14.311078205896177"><ele>45.5</ele><time>2026-04-12T12:53:00.999Z</time></trkpt><trkpt lat="42.37360299113987" lon="14.31098797785503"><ele>46.0</ele><time>2026-04-12T12:53:02.999Z</time></trkpt><trkpt lat="42.373635097749734" lon="14.310911034088793"><ele>46.0</ele><time>2026-04-12T12:53:04.999Z</time></trkpt><trkpt lat="42.37356005188262" lon="14.31083645404263"><ele>46.0</ele><time>2026-04-12T12:53:07.998Z</time></trkpt><trkpt lat="42.37348553370693" lon="14.310781073480552"><ele>46.0</ele><time>2026-04-12T12:53:08.998Z</time></trkpt><trkpt lat="42.37343485730328" lon="14.310728783015799"><ele>46.0</ele><time>2026-04-12T12:53:09.998Z</time></trkpt><trkpt lat="42.37337258389996" lon="14.310675042017772"><ele>46.0</ele><time>2026-04-12T12:53:10.998Z</time></trkpt><trkpt lat="42.373290566077316" lon="14.310615390551751"><ele>46.0</ele><time>2026-04-12T12:53:11.998Z</time></trkpt><trkpt lat="42.37316040716681" lon="14.310582810093479"><ele>46.0</ele><time>2026-04-12T12:53:13.998Z</time></trkpt><trkpt lat="42.373074039491115" lon="14.310655042277324"><ele>46.0</ele><time>2026-04-12T12:53:14.998Z</time></trkpt><trkpt lat="42.37299374019056" lon="14.310736681477978"><ele>46.0</ele><time>2026-04-12T12:53:15.998Z</time></trkpt><trkpt lat="42.37291909245772" lon="14.310822467015415"><ele>46.0</ele><time>2026-04-12T12:53:16.998Z</time></trkpt><trkpt lat="42.37284953328251" lon="14.310876701312976"><ele>46.0</ele><time>2026-04-12T12:53:17.998Z</time></trkpt><trkpt lat="42.372809977393175" lon="14.310956974924984"><ele>48.8</ele><time>2026-04-12T12:53:18.998Z</time></trkpt><trkpt lat="42.37278998907538" lon="14.311038477447413"><ele>51.599999999999994</ele><time>2026-04-12T12:53:19.998Z</time></trkpt><trkpt lat="42.372727166349705" lon="14.311176144946833"><ele>54.4</ele><time>2026-04-12T12:53:20.998Z</time></trkpt><trkpt lat="42.37269663068595" lon="14.31131517141631"><ele>57.2</ele><time>2026-04-12T12:53:21.998Z</time></trkpt><trkpt lat="42.37267977199806" lon="14.311428403545271"><ele>60.0</ele><time>2026-04-12T12:53:22.998Z</time></trkpt><trkpt lat="42.372642021852386" lon="14.311574207988212"><ele>61.4</ele><time>2026-04-12T12:53:23.998Z</time></trkpt><trkpt lat="42.37259804123003" lon="14.311666675010311"><ele>62.8</ele><time>2026-04-12T12:53:24.998Z</time></trkpt><trkpt lat="42.37249155387524" lon="14.311784651311694"><ele>64.2</ele><time>2026-04-12T12:53:26.998Z</time></trkpt><trkpt lat="42.37242432923143" lon="14.311810594518999"><ele>65.6</ele><time>2026-04-12T12:53:27.998Z</time></trkpt><trkpt lat="42.372299052982555" lon="14.311887589678403"><ele>67.0</ele><time>2026-04-12T12:53:29.998Z</time></trkpt><trkpt lat="42.372223673055245" lon="14.311906200574802"><ele>67.33333333333333</ele><time>2026-04-12T12:53:32.998Z</time></trkpt><trkpt lat="42.37211798710773" lon="14.311955627345752"><ele>67.66666666666666</ele><time>2026-04-12T12:53:33.998Z</time></trkpt><trkpt lat="42.37208828067462" lon="14.312061512953285"><ele>68.0</ele><time>2026-04-12T12:53:34.998Z</time></trkpt><trkpt lat="42.372059637845" lon="14.312157909695062"><ele>68.33333333333333</ele><time>2026-04-12T12:53:35.998Z</time></trkpt><trkpt lat="42.37205109956494" lon="14.312256874019054"><ele>68.66666666666667</ele><time>2026-04-12T12:53:36.998Z</time></trkpt><trkpt lat="42.37202463034317" lon="14.31235538006023"><ele>69.0</ele><time>2026-04-12T12:53:37.998Z</time></trkpt><trkpt lat="42.3719774001422" lon="14.312430512651169"><ele>71.28571428571429</ele><time>2026-04-12T12:53:38.998Z</time></trkpt><trkpt lat="42.371949444608944" lon="14.312524953159464"><ele>73.57142857142858</ele><time>2026-04-12T12:53:39.998Z</time></trkpt><trkpt lat="42.37191335563281" lon="14.312612376426491"><ele>75.85714285714286</ele><time>2026-04-12T12:53:41Z</time></trkpt><trkpt lat="42.37191912461269" lon="14.312711416280473"><ele>78.14285714285714</ele><time>2026-04-12T12:53:43Z</time></trkpt><trkpt lat="42.371891841981764" lon="14.31280805174476"><ele>80.42857142857142</ele><time>2026-04-12T12:53:45Z</time></trkpt><trkpt lat="42.371850085820164" lon="14.31287412367699"><ele>82.71428571428572</ele><time>2026-04-12T12:53:47Z</time></trkpt><trkpt lat="42.37178227373792" lon="14.312934624322729"><ele>85.0</ele><time>2026-04-12T12:53:49Z</time></trkpt><trkpt lat="42.37156046888609" lon="14.313210246782798"><ele>87.0</ele><time>2026-04-12T12:53:53Z</time></trkpt><trkpt lat="42.37149434703035" lon="14.313311641985019"><ele>89.0</ele><time>2026-04-12T12:53:55Z</time></trkpt><trkpt lat="42.37143041658159" lon="14.313394291385043"><ele>91.0</ele><time>2026-04-12T12:53:57Z</time></trkpt><trkpt lat="42.371364168900456" lon="14.31348020980978"><ele>93.0</ele><time>2026-04-12T12:53:59Z</time></trkpt><trkpt lat="42.371278177581864" lon="14.313583492132517"><ele>95.0</ele><time>2026-04-12T12:54:01Z</time></trkpt><trkpt lat="42.37120025046882" lon="14.313699124122897"><ele>100.5</ele><time>2026-04-12T12:54:03Z</time></trkpt><trkpt lat="42.37113541229725" lon="14.31376841387517"><ele>106.0</ele><time>2026-04-12T12:54:05Z</time></trkpt><trkpt lat="42.37104829443513" lon="14.313783866320918"><ele>111.5</ele><time>2026-04-12T12:54:07Z</time></trkpt><trkpt lat="42.370968971047134" lon="14.313860060268436"><ele>117.0</ele><time>2026-04-12T12:54:08.999Z</time></trkpt><trkpt lat="42.37071621182842" lon="14.313939381914386"><ele>117.0</ele><time>2026-04-12T12:54:10.999Z</time></trkpt><trkpt lat="42.37059674454741" lon="14.31378927278392"><ele>117.0</ele><time>2026-04-12T12:54:11.999Z</time></trkpt><trkpt lat="42.370512282645194" lon="14.31383290718172"><ele>117.0</ele><time>2026-04-12T12:54:12.999Z</time></trkpt><trkpt lat="42.37042053609557" lon="14.313865481303264"><ele>117.0</ele><time>2026-04-12T12:54:13.999Z</time></trkpt><trkpt lat="42.3703059911532" lon="14.313881221976123"><ele>120.5</ele><time>2026-04-12T12:54:14.999Z</time></trkpt><trkpt lat="42.37018031868915" lon="14.313834131355282"><ele>124.0</ele><time>2026-04-12T12:54:15.999Z</time></trkpt><trkpt lat="42.37005311473627" lon="14.313819547418227"><ele>127.5</ele><time>2026-04-12T12:54:16.999Z</time></trkpt><trkpt lat="42.3699672595872" lon="14.313866671559495"><ele>131.0</ele><time>2026-04-12T12:54:17.999Z</time></trkpt><trkpt lat="42.369804474573876" lon="14.313917412468912"><ele>131.0</ele><time>2026-04-12T12:54:18.999Z</time></trkpt><trkpt lat="42.369735636326496" lon="14.313922095110744"><ele>131.0</ele><time>2026-04-12T12:54:20.999Z</time></trkpt><trkpt lat="42.36973497852256" lon="14.313819788318288"><ele>131.0</ele><time>2026-04-12T12:54:21.999Z</time></trkpt><trkpt lat="42.36972570138731" lon="14.313704305756124"><ele>131.0</ele><time>2026-04-12T12:54:22.999Z</time></trkpt><trkpt lat="42.36966794559312" lon="14.313600424325331"><ele>131.0</ele><time>2026-04-12T12:54:23.999Z</time></trkpt><trkpt lat="42.36959929012592" lon="14.313479024467895"><ele>131.0</ele><time>2026-04-12T12:54:24.999Z</time></trkpt><trkpt lat="42.36952848800574" lon="14.313346569810987"><ele>132.25</ele><time>2026-04-12T12:54:25.999Z</time></trkpt><trkpt lat="42.36947832409166" lon="14.313148255031528"><ele>133.5</ele><time>2026-04-12T12:54:26.999Z</time></trkpt><trkpt lat="42.36943340370772" lon="14.31298855092303"><ele>134.75</ele><time>2026-04-12T12:54:27.999Z</time></trkpt><trkpt lat="42.369403530178346" lon="14.31285730152892"><ele>136.0</ele><time>2026-04-12T12:54:28.999Z</time></trkpt><trkpt lat="42.36940252150184" lon="14.312727297741715"><ele>136.0</ele><time>2026-04-12T12:54:29.999Z</time></trkpt><trkpt lat="42.36940343827295" lon="14.312578955373285"><ele>136.0</ele><time>2026-04-12T12:54:30.999Z</time></trkpt><trkpt lat="42.369408606247354" lon="14.312418046919895"><ele>136.0</ele><time>2026-04-12T12:54:31.999Z</time></trkpt><trkpt lat="42.36942592589286" lon="14.312259243187308"><ele>136.0</ele><time>2026-04-12T12:54:32.999Z</time></trkpt><trkpt lat="42.36943366875043" lon="14.312108963333415"><ele>134.8</ele><time>2026-04-12T12:54:33.999Z</time></trkpt><trkpt lat="42.36944300317735" lon="14.311987420057417"><ele>133.6</ele><time>2026-04-12T12:54:34.999Z</time></trkpt><trkpt lat="42.369425620357816" lon="14.311828186045062"><ele>132.4</ele><time>2026-04-12T12:54:36.999Z</time></trkpt><trkpt lat="42.36936030044592" lon="14.31176572691006"><ele>131.2</ele><time>2026-04-12T12:54:37.999Z</time></trkpt><trkpt lat="42.369277931344506" lon="14.311727738126475"><ele>130.0</ele><time>2026-04-12T12:54:38.999Z</time></trkpt><trkpt lat="42.36920661497282" lon="14.311703271524166"><ele>130.0</ele><time>2026-04-12T12:54:39.999Z</time></trkpt><trkpt lat="42.36913939041825" lon="14.311641056449018"><ele>130.0</ele><time>2026-04-12T12:54:40.999Z</time></trkpt><trkpt lat="42.36907498445477" lon="14.311642022385053"><ele>130.0</ele><time>2026-04-12T12:54:41.999Z</time></trkpt><trkpt lat="42.3689859620864" lon="14.311615275448025"><ele>130.0</ele><time>2026-04-12T12:54:43.999Z</time></trkpt><trkpt lat="42.368913999558266" lon="14.31162142565252"><ele>130.0</ele><time>2026-04-12T12:54:46.999Z</time></trkpt><trkpt lat="42.36885671884338" lon="14.311756667020124"><ele>130.0</ele><time>2026-04-12T12:54:48.999Z</time></trkpt><trkpt lat="42.368768502510946" lon="14.311722457577636"><ele>130.66666666666669</ele><time>2026-04-12T12:54:50.999Z</time></trkpt><trkpt lat="42.36871631931039" lon="14.311616706884728"><ele>131.33333333333334</ele><time>2026-04-12T12:54:51.999Z</time></trkpt><trkpt lat="42.36865796375632" lon="14.311525097523845"><ele>132.0</ele><time>2026-04-12T12:54:52.999Z</time></trkpt><trkpt lat="42.36860566746576" lon="14.311414696396145"><ele>132.66666666666666</ele><time>2026-04-12T12:54:53.999Z</time></trkpt><trkpt lat="42.36856093943555" lon="14.311319549329776"><ele>133.33333333333331</ele><time>2026-04-12T12:54:54.999Z</time></trkpt><trkpt lat="42.368519441236835" lon="14.311247120679155"><ele>134.0</ele><time>2026-04-12T12:54:55.999Z</time></trkpt><trkpt lat="42.36846566656083" lon="14.311178401652949"><ele>132.0</ele><time>2026-04-12T12:54:56.999Z</time></trkpt><trkpt lat="42.368420377399545" lon="14.31108811656692"><ele>130.0</ele><time>2026-04-12T12:54:57.999Z</time></trkpt><trkpt lat="42.36837065938282" lon="14.310938176772884"><ele>128.0</ele><time>2026-04-12T12:54:58.999Z</time></trkpt><trkpt lat="42.368340844222395" lon="14.31082643166203"><ele>126.0</ele><time>2026-04-12T12:54:59.999Z</time></trkpt><trkpt lat="42.36826371704629" lon="14.310736702441687"><ele>124.0</ele><time>2026-04-12T12:55:01.999Z</time></trkpt><trkpt lat="42.368239741611035" lon="14.310656791290345"><ele>124.00000000000001</ele><time>2026-04-12T12:55:05.999Z</time></trkpt><trkpt lat="42.36817139457382" lon="14.310584830905004"><ele>124.0</ele><time>2026-04-12T12:55:09.998Z</time></trkpt><trkpt lat="42.368143322730624" lon="14.310475499854622"><ele>124.0</ele><time>2026-04-12T12:55:14.998Z</time></trkpt><trkpt lat="42.368119631824705" lon="14.310391197649114"><ele>124.0</ele><time>2026-04-12T12:55:18.998Z</time></trkpt><trkpt lat="42.36807034845047" lon="14.310331645567036"><ele>124.00000000000001</ele><time>2026-04-12T12:55:22.998Z</time></trkpt><trkpt lat="42.368087378127235" lon="14.310427593686313"><ele>124.0</ele><time>2026-04-12T12:55:38.998Z</time></trkpt><trkpt lat="42.368041411562835" lon="14.310261910226098"><ele>126.0</ele><time>2026-04-12T12:55:41.998Z</time></trkpt><trkpt lat="42.36797052998138" lon="14.310119978912313"><ele>128.0</ele><time>2026-04-12T12:55:42.998Z</time></trkpt><trkpt lat="42.36789780788652" lon="14.310000396328856"><ele>130.0</ele><time>2026-04-12T12:55:43.998Z</time></trkpt><trkpt lat="42.36785344111418" lon="14.309910122425931"><ele>132.0</ele><time>2026-04-12T12:55:44.998Z</time></trkpt><trkpt lat="42.36777094620181" lon="14.309801316332905"><ele>134.0</ele><time>2026-04-12T12:55:45.998Z</time></trkpt><trkpt lat="42.36771495631244" lon="14.30970068821619"><ele>130.5</ele><time>2026-04-12T12:55:47Z</time></trkpt><trkpt lat="42.36764948441693" lon="14.309613696389741"><ele>127.0</ele><time>2026-04-12T12:55:48Z</time></trkpt><trkpt lat="42.367524752142074" lon="14.309536735089322"><ele>123.5</ele><time>2026-04-12T12:55:50Z</time></trkpt><trkpt lat="42.367462682877964" lon="14.309499587678726"><ele>120.0</ele><time>2026-04-12T12:55:51Z</time></trkpt><trkpt lat="42.367377958159516" lon="14.30949129853193"><ele>116.49999999999999</ele><time>2026-04-12T12:55:52Z</time></trkpt><trkpt lat="42.36731860538096" lon="14.309460090810074"><ele>113.0</ele><time>2026-04-12T12:55:53Z</time></trkpt><trkpt lat="42.36726255114931" lon="14.30950445532723"><ele>113.0</ele><time>2026-04-12T12:55:54Z</time></trkpt><trkpt lat="42.36720388697903" lon="14.309607412832905"><ele>113.00000000000001</ele><time>2026-04-12T12:55:55Z</time></trkpt><trkpt lat="42.36712829953522" lon="14.30968001648268"><ele>113.00000000000001</ele><time>2026-04-12T12:55:56Z</time></trkpt><trkpt lat="42.36704096356269" lon="14.30975116385345"><ele>113.0</ele><time>2026-04-12T12:55:57Z</time></trkpt><trkpt lat="42.36694720210889" lon="14.309850828812381"><ele>113.0</ele><time>2026-04-12T12:55:58Z</time></trkpt><trkpt lat="42.36685509728357" lon="14.309930537479826"><ele>116.75</ele><time>2026-04-12T12:55:59Z</time></trkpt><trkpt lat="42.36675017921214" lon="14.309990875992725"><ele>120.5</ele><time>2026-04-12T12:56:00Z</time></trkpt><trkpt lat="42.36663973408181" lon="14.31005950280814"><ele>124.25</ele><time>2026-04-12T12:56:01Z</time></trkpt><trkpt lat="42.366544049100696" lon="14.310128694550219"><ele>128.0</ele><time>2026-04-12T12:56:02Z</time></trkpt><trkpt lat="42.36643920624916" lon="14.310195417000669"><ele>123.0</ele><time>2026-04-12T12:56:03Z</time></trkpt><trkpt lat="42.36635653411882" lon="14.310244252982194"><ele>118.00000000000001</ele><time>2026-04-12T12:56:04Z</time></trkpt><trkpt lat="42.3662989189738" lon="14.310283380047895"><ele>113.0</ele><time>2026-04-12T12:56:05Z</time></trkpt><trkpt lat="42.36624935193346" lon="14.310215714463217"><ele>108.0</ele><time>2026-04-12T12:56:07Z</time></trkpt><trkpt lat="42.36627776816863" lon="14.310065284890703"><ele>103.0</ele><time>2026-04-12T12:56:08Z</time></trkpt><trkpt lat="42.366312841641346" lon="14.309885264530491"><ele>103.00000000000001</ele><time>2026-04-12T12:56:09Z</time></trkpt><trkpt lat="42.36633886369195" lon="14.309745392826512"><ele>103.0</ele><time>2026-04-12T12:56:10Z</time></trkpt><trkpt lat="42.36636504612758" lon="14.30963923908727"><ele>103.0</ele><time>2026-04-12T12:56:11Z</time></trkpt><trkpt lat="42.36638635573412" lon="14.309552806301628"><ele>103.0</ele><time>2026-04-12T12:56:11.999Z</time></trkpt><trkpt lat="42.36640809916348" lon="14.309468305826977"><ele>103.00000000000001</ele><time>2026-04-12T12:56:12.999Z</time></trkpt><trkpt lat="42.36641839141725" lon="14.309354311207722"><ele>103.0</ele><time>2026-04-12T12:56:13.999Z</time></trkpt><trkpt lat="42.36643217322766" lon="14.30921297910508"><ele>104.16666666666667</ele><time>2026-04-12T12:56:15.999Z</time></trkpt><trkpt lat="42.36645073316801" lon="14.309110002764031"><ele>105.33333333333334</ele><time>2026-04-12T12:56:17.999Z</time></trkpt><trkpt lat="42.36646989392205" lon="14.309017316096634"><ele>106.5</ele><time>2026-04-12T12:56:19.999Z</time></trkpt><trkpt lat="42.366441067134744" lon="14.308884160767832"><ele>107.66666666666666</ele><time>2026-04-12T12:56:26.999Z</time></trkpt><trkpt lat="42.36651275078191" lon="14.308746523920489"><ele>108.83333333333333</ele><time>2026-04-12T12:56:39.999Z</time></trkpt><trkpt lat="42.3665727058013" lon="14.30870229247371"><ele>110.0</ele><time>2026-04-12T12:56:56.999Z</time></trkpt><trkpt lat="42.36656723358042" lon="14.308593165167682"><ele>107.28571428571428</ele><time>2026-04-12T13:00:01.999Z</time></trkpt><trkpt lat="42.36655915844932" lon="14.308503716002038"><ele>104.57142857142857</ele><time>2026-04-12T13:00:03.999Z</time></trkpt><trkpt lat="42.36654874904971" lon="14.308413155678933"><ele>101.85714285714286</ele><time>2026-04-12T13:00:06.999Z</time></trkpt><trkpt lat="42.36650214060419" lon="14.308344996409966"><ele>99.14285714285714</ele><time>2026-04-12T13:00:10.999Z</time></trkpt><trkpt lat="42.36649100633501" lon="14.308238176698774"><ele>96.42857142857143</ele><time>2026-04-12T13:00:12.999Z</time></trkpt><trkpt lat="42.36648705378053" lon="14.308137435045401"><ele>93.71428571428571</ele><time>2026-04-12T13:00:15.999Z</time></trkpt><trkpt lat="42.36648223688193" lon="14.308033666602695"><ele>91.0</ele><time>2026-04-12T13:00:20.999Z</time></trkpt><trkpt lat="42.36649292465194" lon="14.30794336961548"><ele>87.83333333333333</ele><time>2026-04-12T13:00:24.999Z</time></trkpt><trkpt lat="42.366487160348335" lon="14.30784015080836"><ele>84.66666666666666</ele><time>2026-04-12T13:00:30.999Z</time></trkpt><trkpt lat="42.36648266773547" lon="14.307733563200722"><ele>81.5</ele><time>2026-04-12T13:00:33.999Z</time></trkpt><trkpt lat="42.36648163481208" lon="14.30761406183119"><ele>78.33333333333333</ele><time>2026-04-12T13:00:36.999Z</time></trkpt><trkpt lat="42.36648991081755" lon="14.307488137311369"><ele>75.16666666666667</ele><time>2026-04-12T13:00:39.999Z</time></trkpt><trkpt lat="42.36649392113752" lon="14.307375630388247"><ele>72.0</ele><time>2026-04-12T13:00:42.999Z</time></trkpt><trkpt lat="42.3665049398065" lon="14.30728453412744"><ele>68.66666666666667</ele><time>2026-04-12T13:00:45.999Z</time></trkpt><trkpt lat="42.366501867930275" lon="14.307174284082574"><ele>65.33333333333333</ele><time>2026-04-12T13:00:48.999Z</time></trkpt><trkpt lat="42.36649982032232" lon="14.307053415655076"><ele>62.0</ele><time>2026-04-12T13:00:52.999Z</time></trkpt><trkpt lat="42.36649402751033" lon="14.306924038006072"><ele>58.666666666666664</ele><time>2026-04-12T13:00:56.999Z</time></trkpt><trkpt lat="42.366470541590395" lon="14.306842474110441"><ele>55.33333333333333</ele><time>2026-04-12T13:00:58.999Z</time></trkpt><trkpt lat="42.36637069086285" lon="14.30675744343306"><ele>52.0</ele><time>2026-04-12T13:01:00.999Z</time></trkpt><trkpt lat="42.3662920762273" lon="14.306692178103875"><ele>50.83333333333333</ele><time>2026-04-12T13:01:02.999Z</time></trkpt><trkpt lat="42.36624109509047" lon="14.306608878075103"><ele>49.666666666666664</ele><time>2026-04-12T13:01:04.999Z</time></trkpt><trkpt lat="42.3661873195889" lon="14.306504355900742"><ele>48.5</ele><time>2026-04-12T13:01:07.999Z</time></trkpt><trkpt lat="42.366155009251614" lon="14.306428701681627"><ele>47.33333333333333</ele><time>2026-04-12T13:01:10.999Z</time></trkpt><trkpt lat="42.36605056130142" lon="14.306344384662022"><ele>46.166666666666664</ele><time>2026-04-12T13:01:13.999Z</time></trkpt><trkpt lat="42.366020250264505" lon="14.30626575051939"><ele>45.0</ele><time>2026-04-12T13:01:15.999Z</time></trkpt><trkpt lat="42.365949263383335" lon="14.306261935895872"><ele>43.8</ele><time>2026-04-12T13:01:17.998Z</time></trkpt><trkpt lat="42.36584341838318" lon="14.306275255965225"><ele>42.6</ele><time>2026-04-12T13:01:19.998Z</time></trkpt><trkpt lat="42.36574149091409" lon="14.306267279522606"><ele>41.4</ele><time>2026-04-12T13:01:20.998Z</time></trkpt><trkpt lat="42.36562560213651" lon="14.306266079577284"><ele>40.2</ele><time>2026-04-12T13:01:21.998Z</time></trkpt><trkpt lat="42.36552506875391" lon="14.306262990121237"><ele>39.0</ele><time>2026-04-12T13:01:22.998Z</time></trkpt><trkpt lat="42.365441400903585" lon="14.30627066609947"><ele>39.0</ele><time>2026-04-12T13:01:23.998Z</time></trkpt><trkpt lat="42.365371443139566" lon="14.306203039751159"><ele>39.0</ele><time>2026-04-12T13:01:24.998Z</time></trkpt><trkpt lat="42.365290393369236" lon="14.306172637928844"><ele>39.0</ele><time>2026-04-12T13:01:25.998Z</time></trkpt><trkpt lat="42.36517905106605" lon="14.306138921565468"><ele>39.0</ele><time>2026-04-12T13:01:26.998Z</time></trkpt><trkpt lat="42.36506362471738" lon="14.306122755404651"><ele>39.0</ele><time>2026-04-12T13:01:27.998Z</time></trkpt><trkpt lat="42.364964985381846" lon="14.306129192510591"><ele>39.0</ele><time>2026-04-12T13:01:28.998Z</time></trkpt><trkpt lat="42.36485437288512" lon="14.30615987205335"><ele>39.0</ele><time>2026-04-12T13:01:29.998Z</time></trkpt><trkpt lat="42.36471963881549" lon="14.30621275972431"><ele>39.0</ele><time>2026-04-12T13:01:30.998Z</time></trkpt><trkpt lat="42.36457902080505" lon="14.306287876866715"><ele>39.0</ele><time>2026-04-12T13:01:31.998Z</time></trkpt><trkpt lat="42.36444088122009" lon="14.306385779788751"><ele>40.0</ele><time>2026-04-12T13:01:32.998Z</time></trkpt><trkpt lat="42.36433292894575" lon="14.30648444519326"><ele>41.0</ele><time>2026-04-12T13:01:33.998Z</time></trkpt><trkpt lat="42.364239978169046" lon="14.306602041353852"><ele>42.0</ele><time>2026-04-12T13:01:34.998Z</time></trkpt><trkpt lat="42.36411628953393" lon="14.306690604131564"><ele>43.0</ele><time>2026-04-12T13:01:35.998Z</time></trkpt><trkpt lat="42.3640148146307" lon="14.306792644592262"><ele>43.0</ele><time>2026-04-12T13:01:36.998Z</time></trkpt><trkpt lat="42.363941697561344" lon="14.306841882062573"><ele>43.0</ele><time>2026-04-12T13:01:37.998Z</time></trkpt><trkpt lat="42.363884336976945" lon="14.306879782583046"><ele>43.0</ele><time>2026-04-12T13:01:38.998Z</time></trkpt><trkpt lat="42.363812678640755" lon="14.30691893065594"><ele>43.0</ele><time>2026-04-12T13:01:39.998Z</time></trkpt><trkpt lat="42.363715229909566" lon="14.306939936608456"><ele>43.0</ele><time>2026-04-12T13:01:40.998Z</time></trkpt><trkpt lat="42.36359241456934" lon="14.306979034030574"><ele>43.0</ele><time>2026-04-12T13:01:41.998Z</time></trkpt><trkpt lat="42.36345822136284" lon="14.307014683062395"><ele>42.0</ele><time>2026-04-12T13:01:42.998Z</time></trkpt><trkpt lat="42.36332247318237" lon="14.307036260250904"><ele>41.0</ele><time>2026-04-12T13:01:43.998Z</time></trkpt><trkpt lat="42.36320183170819" lon="14.307032212985801"><ele>40.0</ele><time>2026-04-12T13:01:44.998Z</time></trkpt><trkpt lat="42.36309770326843" lon="14.30702439654412"><ele>39.0</ele><time>2026-04-12T13:01:45.998Z</time></trkpt><trkpt lat="42.362974598307524" lon="14.30703134521016"><ele>38.75</ele><time>2026-04-12T13:01:46.998Z</time></trkpt><trkpt lat="42.36283791127802" lon="14.307002124548662"><ele>38.5</ele><time>2026-04-12T13:01:47.998Z</time></trkpt><trkpt lat="42.362692676977225" lon="14.306969270440925"><ele>38.25</ele><time>2026-04-12T13:01:48.998Z</time></trkpt><trkpt lat="42.36254536081082" lon="14.306947382825117"><ele>38.0</ele><time>2026-04-12T13:01:49.998Z</time></trkpt><trkpt lat="42.362401791290104" lon="14.306936128791447"><ele>38.0</ele><time>2026-04-12T13:01:50.998Z</time></trkpt><trkpt lat="42.362260947521705" lon="14.306940193216686"><ele>38.0</ele><time>2026-04-12T13:01:51.998Z</time></trkpt><trkpt lat="42.362107998335865" lon="14.306935371869761"><ele>38.0</ele><time>2026-04-12T13:01:52.998Z</time></trkpt><trkpt lat="42.36196110863879" lon="14.30693111802072"><ele>38.0</ele><time>2026-04-12T13:01:53.998Z</time></trkpt><trkpt lat="42.361827921755086" lon="14.306913998202555"><ele>37.8</ele><time>2026-04-12T13:01:54.998Z</time></trkpt><trkpt lat="42.36172364332239" lon="14.306900183083357"><ele>37.599999999999994</ele><time>2026-04-12T13:01:55.998Z</time></trkpt><trkpt lat="42.361627430375314" lon="14.306875857527944"><ele>37.400000000000006</ele><time>2026-04-12T13:01:56.998Z</time></trkpt><trkpt lat="42.36154668553507" lon="14.306830788303069"><ele>37.2</ele><time>2026-04-12T13:01:57.998Z</time></trkpt><trkpt lat="42.361465664849284" lon="14.306760606152311"><ele>37.0</ele><time>2026-04-12T13:01:58.998Z</time></trkpt><trkpt lat="42.36136736586826" lon="14.30665308314791"><ele>37.0</ele><time>2026-04-12T13:01:59.998Z</time></trkpt><trkpt lat="42.36126985809623" lon="14.306563103077853"><ele>37.0</ele><time>2026-04-12T13:02:00.998Z</time></trkpt><trkpt lat="42.36117747973367" lon="14.306496141607507"><ele>37.0</ele><time>2026-04-12T13:02:01.998Z</time></trkpt><trkpt lat="42.36106165721117" lon="14.306455807011387"><ele>37.0</ele><time>2026-04-12T13:02:02.998Z</time></trkpt><trkpt lat="42.36093270568356" lon="14.306420024180333"><ele>35.25</ele><time>2026-04-12T13:02:03.998Z</time></trkpt><trkpt lat="42.36078605574907" lon="14.306385576344459"><ele>33.5</ele><time>2026-04-12T13:02:04.999Z</time></trkpt><trkpt lat="42.36066422029378" lon="14.306364420260348"><ele>31.75</ele><time>2026-04-12T13:02:05.999Z</time></trkpt><trkpt lat="42.36054301968493" lon="14.306310033002132"><ele>30.0</ele><time>2026-04-12T13:02:06.999Z</time></trkpt><trkpt lat="42.36041616390031" lon="14.306224642922826"><ele>29.25</ele><time>2026-04-12T13:02:07.999Z</time></trkpt><trkpt lat="42.360280813833455" lon="14.306151725669373"><ele>28.5</ele><time>2026-04-12T13:02:08.999Z</time></trkpt><trkpt lat="42.360145377892515" lon="14.306110310134144"><ele>27.75</ele><time>2026-04-12T13:02:09.999Z</time></trkpt><trkpt lat="42.360036319283324" lon="14.306099220643542"><ele>27.0</ele><time>2026-04-12T13:02:10.999Z</time></trkpt><trkpt lat="42.359938341327215" lon="14.30611230532113"><ele>27.0</ele><time>2026-04-12T13:02:11.999Z</time></trkpt><trkpt lat="42.359842371993864" lon="14.306153646458279"><ele>27.0</ele><time>2026-04-12T13:02:12.999Z</time></trkpt><trkpt lat="42.35974306074374" lon="14.306220564816892"><ele>27.0</ele><time>2026-04-12T13:02:13.999Z</time></trkpt><trkpt lat="42.359611880484856" lon="14.3062503741716"><ele>27.0</ele><time>2026-04-12T13:02:14.999Z</time></trkpt><trkpt lat="42.359483744788314" lon="14.306318330853411"><ele>28.0</ele><time>2026-04-12T13:02:15.999Z</time></trkpt><trkpt lat="42.35934356947744" lon="14.306355488392915"><ele>29.000000000000004</ele><time>2026-04-12T13:02:16.999Z</time></trkpt><trkpt lat="42.35922736167746" lon="14.306394659302912"><ele>30.000000000000004</ele><time>2026-04-12T13:02:17.999Z</time></trkpt><trkpt lat="42.35913465703787" lon="14.30642894320118"><ele>31.0</ele><time>2026-04-12T13:02:18.999Z</time></trkpt><trkpt lat="42.359073975568805" lon="14.30649530347773"><ele>32.0</ele><time>2026-04-12T13:02:19.999Z</time></trkpt><trkpt lat="42.359014028274096" lon="14.306612716108939"><ele>32.25</ele><time>2026-04-12T13:02:20.999Z</time></trkpt><trkpt lat="42.35892858978591" lon="14.30675277268397"><ele>32.5</ele><time>2026-04-12T13:02:21.999Z</time></trkpt><trkpt lat="42.358835336530746" lon="14.306902579763756"><ele>32.75</ele><time>2026-04-12T13:02:22.999Z</time></trkpt><trkpt lat="42.35875344280738" lon="14.30703954388241"><ele>33.0</ele><time>2026-04-12T13:02:23.999Z</time></trkpt><trkpt lat="42.35864218776382" lon="14.307086036812597"><ele>32.5</ele><time>2026-04-12T13:02:24.999Z</time></trkpt><trkpt lat="42.35854133279355" lon="14.307122233861437"><ele>32.0</ele><time>2026-04-12T13:02:25.999Z</time></trkpt><trkpt lat="42.358418199580726" lon="14.30713589980358"><ele>31.5</ele><time>2026-04-12T13:02:26.999Z</time></trkpt><trkpt lat="42.358313199810866" lon="14.307080224064325"><ele>31.0</ele><time>2026-04-12T13:02:27.999Z</time></trkpt><trkpt lat="42.35818960071094" lon="14.307038613409635"><ele>31.0</ele><time>2026-04-12T13:02:28.999Z</time></trkpt><trkpt lat="42.35806106253074" lon="14.30695917507768"><ele>31.0</ele><time>2026-04-12T13:02:29.999Z</time></trkpt><trkpt lat="42.35794233845874" lon="14.306897415007649"><ele>31.0</ele><time>2026-04-12T13:02:30.999Z</time></trkpt><trkpt lat="42.35781230845141" lon="14.306838243181621"><ele>31.0</ele><time>2026-04-12T13:02:31.999Z</time></trkpt><trkpt lat="42.35767374480936" lon="14.306770220347312"><ele>31.25</ele><time>2026-04-12T13:02:32.999Z</time></trkpt><trkpt lat="42.357536163556524" lon="14.306672861708678"><ele>31.5</ele><time>2026-04-12T13:02:33.999Z</time></trkpt><trkpt lat="42.35740249109013" lon="14.306605239954022"><ele>31.75</ele><time>2026-04-12T13:02:34.999Z</time></trkpt><trkpt lat="42.35727702808642" lon="14.3065431101622"><ele>32.0</ele><time>2026-04-12T13:02:35.999Z</time></trkpt><trkpt lat="42.35714294894288" lon="14.306480125604974"><ele>32.25</ele><time>2026-04-12T13:02:36.999Z</time></trkpt><trkpt lat="42.35699961495161" lon="14.306440698170588"><ele>32.5</ele><time>2026-04-12T13:02:37.999Z</time></trkpt><trkpt lat="42.35686292887161" lon="14.306389677283416"><ele>32.75</ele><time>2026-04-12T13:02:38.999Z</time></trkpt><trkpt lat="42.356732230833565" lon="14.306354696922668"><ele>33.0</ele><time>2026-04-12T13:02:39.999Z</time></trkpt><trkpt lat="42.356594145646966" lon="14.306338522248947"><ele>33.0</ele><time>2026-04-12T13:02:40.999Z</time></trkpt><trkpt lat="42.356449980819136" lon="14.306345337964956"><ele>33.0</ele><time>2026-04-12T13:02:41.999Z</time></trkpt><trkpt lat="42.35629980033476" lon="14.306372615449321"><ele>33.0</ele><time>2026-04-12T13:02:42.999Z</time></trkpt><trkpt lat="42.35614746876877" lon="14.306387266508525"><ele>33.0</ele><time>2026-04-12T13:02:43.999Z</time></trkpt><trkpt lat="42.356003547221874" lon="14.306426427018797"><ele>34.333333333333336</ele><time>2026-04-12T13:02:44.999Z</time></trkpt><trkpt lat="42.355859887945456" lon="14.30649117643615"><ele>35.66666666666667</ele><time>2026-04-12T13:02:45.999Z</time></trkpt><trkpt lat="42.355695597112955" lon="14.306522208163202"><ele>37.0</ele><time>2026-04-12T13:02:46.999Z</time></trkpt><trkpt lat="42.355546815773955" lon="14.306592207806698"><ele>36.333333333333336</ele><time>2026-04-12T13:02:47.999Z</time></trkpt><trkpt lat="42.35538801893848" lon="14.306660812190113"><ele>35.666666666666664</ele><time>2026-04-12T13:02:48.999Z</time></trkpt><trkpt lat="42.355236131944366" lon="14.306734903902683"><ele>35.0</ele><time>2026-04-12T13:02:49.999Z</time></trkpt><trkpt lat="42.35507195682167" lon="14.306808508977518"><ele>35.0</ele><time>2026-04-12T13:02:50.999Z</time></trkpt><trkpt lat="42.354904212293675" lon="14.306860891656543"><ele>35.0</ele><time>2026-04-12T13:02:51.999Z</time></trkpt><trkpt lat="42.3547397523965" lon="14.306924725379623"><ele>35.0</ele><time>2026-04-12T13:02:52.999Z</time></trkpt><trkpt lat="42.35457858183439" lon="14.306983125662939"><ele>35.0</ele><time>2026-04-12T13:02:53.999Z</time></trkpt><trkpt lat="42.354437807430585" lon="14.307035528228106"><ele>35.0</ele><time>2026-04-12T13:02:54.999Z</time></trkpt><trkpt lat="42.354298623193536" lon="14.307096630684002"><ele>35.0</ele><time>2026-04-12T13:02:55.999Z</time></trkpt><trkpt lat="42.3541499661793" lon="14.307190334585819"><ele>36.25</ele><time>2026-04-12T13:02:56.999Z</time></trkpt><trkpt lat="42.35400762052159" lon="14.30728616685322"><ele>37.5</ele><time>2026-04-12T13:02:57.999Z</time></trkpt><trkpt lat="42.35386220280134" lon="14.307341286897524"><ele>38.75</ele><time>2026-04-12T13:02:58.999Z</time></trkpt><trkpt lat="42.35372753510855" lon="14.307357277064007"><ele>40.0</ele><time>2026-04-12T13:02:59.999Z</time></trkpt><trkpt lat="42.353593546198084" lon="14.30736763002911"><ele>40.0</ele><time>2026-04-12T13:03:00.999Z</time></trkpt><trkpt lat="42.35347231498658" lon="14.307385285506795"><ele>40.0</ele><time>2026-04-12T13:03:01.999Z</time></trkpt><trkpt lat="42.35335539224198" lon="14.307431194118607"><ele>40.0</ele><time>2026-04-12T13:03:02.999Z</time></trkpt><trkpt lat="42.35327327356987" lon="14.307505529027061"><ele>40.0</ele><time>2026-04-12T13:03:03.999Z</time></trkpt><trkpt lat="42.353189361758155" lon="14.3076052688534"><ele>40.0</ele><time>2026-04-12T13:03:04.999Z</time></trkpt><trkpt lat="42.35308073577753" lon="14.307687539516673"><ele>40.0</ele><time>2026-04-12T13:03:05.999Z</time></trkpt><trkpt lat="42.352952016398184" lon="14.30774690882526"><ele>40.0</ele><time>2026-04-12T13:03:06.999Z</time></trkpt><trkpt lat="42.35284145821855" lon="14.307767586383154"><ele>40.0</ele><time>2026-04-12T13:03:07.999Z</time></trkpt><trkpt lat="42.35278162353258" lon="14.307729619797126"><ele>40.0</ele><time>2026-04-12T13:03:08.999Z</time></trkpt><trkpt lat="42.35263159028048" lon="14.307788025953759"><ele>39.75</ele><time>2026-04-12T13:03:09.999Z</time></trkpt><trkpt lat="42.3525437475516" lon="14.307667241877377"><ele>39.5</ele><time>2026-04-12T13:03:10.999Z</time></trkpt><trkpt lat="42.35245022482574" lon="14.307628591848683"><ele>39.25</ele><time>2026-04-12T13:03:11.999Z</time></trkpt><trkpt lat="42.352346789184224" lon="14.307623913147038"><ele>39.0</ele><time>2026-04-12T13:03:12.999Z</time></trkpt><trkpt lat="42.3521863014101" lon="14.307676371652828"><ele>39.0</ele><time>2026-04-12T13:03:13.999Z</time></trkpt><trkpt lat="42.352024753968124" lon="14.307716832743294"><ele>39.0</ele><time>2026-04-12T13:03:14.999Z</time></trkpt><trkpt lat="42.351855779237866" lon="14.307720532191619"><ele>39.0</ele><time>2026-04-12T13:03:15.999Z</time></trkpt><trkpt lat="42.351679464357275" lon="14.307739254715921"><ele>39.0</ele><time>2026-04-12T13:03:16.999Z</time></trkpt><trkpt lat="42.35149286299099" lon="14.307775253867195"><ele>39.0</ele><time>2026-04-12T13:03:17.999Z</time></trkpt><trkpt lat="42.35129963331438" lon="14.30781378071629"><ele>39.0</ele><time>2026-04-12T13:03:18.999Z</time></trkpt><trkpt lat="42.351115620496714" lon="14.307844060420754"><ele>40.0</ele><time>2026-04-12T13:03:19.999Z</time></trkpt><trkpt lat="42.35095816990625" lon="14.30785896554159"><ele>41.0</ele><time>2026-04-12T13:03:20.998Z</time></trkpt><trkpt lat="42.35082256324326" lon="14.307870044266961"><ele>42.0</ele><time>2026-04-12T13:03:21.998Z</time></trkpt><trkpt lat="42.350685562211446" lon="14.307876201289647"><ele>43.0</ele><time>2026-04-12T13:03:22.998Z</time></trkpt><trkpt lat="42.35053543781464" lon="14.307868452680783"><ele>43.333333333333336</ele><time>2026-04-12T13:03:23.998Z</time></trkpt><trkpt lat="42.35037631196278" lon="14.30789772613548"><ele>43.666666666666664</ele><time>2026-04-12T13:03:24.998Z</time></trkpt><trkpt lat="42.35020439232273" lon="14.307977692801764"><ele>44.0</ele><time>2026-04-12T13:03:25.998Z</time></trkpt><trkpt lat="42.35003008012589" lon="14.308081343348835"><ele>44.0</ele><time>2026-04-12T13:03:26.998Z</time></trkpt><trkpt lat="42.34984469170656" lon="14.308177365450113"><ele>44.0</ele><time>2026-04-12T13:03:27.998Z</time></trkpt><trkpt lat="42.34967586058478" lon="14.308261617449721"><ele>44.0</ele><time>2026-04-12T13:03:28.998Z</time></trkpt><trkpt lat="42.349540990509574" lon="14.308327262327037"><ele>43.800000000000004</ele><time>2026-04-12T13:03:29.998Z</time></trkpt><trkpt lat="42.349430780057126" lon="14.308374305313787"><ele>43.6</ele><time>2026-04-12T13:03:30.998Z</time></trkpt><trkpt lat="42.34934467893129" lon="14.30838892548837"><ele>43.4</ele><time>2026-04-12T13:03:31.998Z</time></trkpt><trkpt lat="42.34927375202298" lon="14.308352153454711"><ele>43.2</ele><time>2026-04-12T13:03:32.998Z</time></trkpt><trkpt lat="42.34923045569804" lon="14.308261666948408"><ele>43.0</ele><time>2026-04-12T13:03:33.998Z</time></trkpt><trkpt lat="42.349216732371644" lon="14.308137601069038"><ele>42.8</ele><time>2026-04-12T13:03:34.998Z</time></trkpt><trkpt lat="42.349228141180284" lon="14.307984225799485"><ele>42.599999999999994</ele><time>2026-04-12T13:03:35.998Z</time></trkpt><trkpt lat="42.349206025485046" lon="14.307879055425527"><ele>42.400000000000006</ele><time>2026-04-12T13:03:36.998Z</time></trkpt><trkpt lat="42.34912991517344" lon="14.307829646344006"><ele>42.2</ele><time>2026-04-12T13:03:37.998Z</time></trkpt><trkpt lat="42.349031966490706" lon="14.307842651193244"><ele>42.0</ele><time>2026-04-12T13:03:38.998Z</time></trkpt><trkpt lat="42.348943791561574" lon="14.307879764412762"><ele>42.0</ele><time>2026-04-12T13:03:39.998Z</time></trkpt><trkpt lat="42.348901066337326" lon="14.30779196150052"><ele>42.0</ele><time>2026-04-12T13:03:40.998Z</time></trkpt><trkpt lat="42.34888464527526" lon="14.307658493924933"><ele>42.0</ele><time>2026-04-12T13:03:41.998Z</time></trkpt><trkpt lat="42.34886716284699" lon="14.30749795858779"><ele>42.0</ele><time>2026-04-12T13:03:42.998Z</time></trkpt><trkpt lat="42.34883368175928" lon="14.307319945404846"><ele>42.0</ele><time>2026-04-12T13:03:43.998Z</time></trkpt><trkpt lat="42.34878926266151" lon="14.307126423348098"><ele>42.0</ele><time>2026-04-12T13:03:44.998Z</time></trkpt><trkpt lat="42.34875532719889" lon="14.306909950451608"><ele>42.0</ele><time>2026-04-12T13:03:45.998Z</time></trkpt><trkpt lat="42.348682564559866" lon="14.306732672152634"><ele>42.0</ele><time>2026-04-12T13:03:46.998Z</time></trkpt><trkpt lat="42.348622112042015" lon="14.30658791153164"><ele>42.0</ele><time>2026-04-12T13:03:47.998Z</time></trkpt><trkpt lat="42.34858752075403" lon="14.306474073132925"><ele>43.2</ele><time>2026-04-12T13:03:48.998Z</time></trkpt><trkpt lat="42.348586030085166" lon="14.306371464087809"><ele>44.400000000000006</ele><time>2026-04-12T13:03:49.998Z</time></trkpt><trkpt lat="42.348618799612524" lon="14.30626924146497"><ele>45.599999999999994</ele><time>2026-04-12T13:03:50.998Z</time></trkpt><trkpt lat="42.348684728583514" lon="14.306157299826998"><ele>46.8</ele><time>2026-04-12T13:03:51.998Z</time></trkpt><trkpt lat="42.34877098269286" lon="14.306050828667411"><ele>48.0</ele><time>2026-04-12T13:03:52.998Z</time></trkpt><trkpt lat="42.348854370398044" lon="14.305933758185674"><ele>48.599999999999994</ele><time>2026-04-12T13:03:53.998Z</time></trkpt><trkpt lat="42.34891293619796" lon="14.305796232823866"><ele>49.199999999999996</ele><time>2026-04-12T13:03:54.998Z</time></trkpt><trkpt lat="42.34892522305724" lon="14.305670752794406"><ele>49.8</ele><time>2026-04-12T13:03:55.998Z</time></trkpt><trkpt lat="42.34889055213958" lon="14.30557444471622"><ele>50.4</ele><time>2026-04-12T13:03:56.998Z</time></trkpt><trkpt lat="42.34883477702731" lon="14.305506803877163"><ele>51.0</ele><time>2026-04-12T13:03:57.998Z</time></trkpt><trkpt lat="42.34875985570184" lon="14.305443288264103"><ele>51.8</ele><time>2026-04-12T13:03:58.998Z</time></trkpt><trkpt lat="42.348665869265524" lon="14.305403543278253"><ele>52.599999999999994</ele><time>2026-04-12T13:03:59.998Z</time></trkpt><trkpt lat="42.34857798282427" lon="14.305396173153053"><ele>53.4</ele><time>2026-04-12T13:04:00.998Z</time></trkpt><trkpt lat="42.34847405262704" lon="14.305405494247129"><ele>54.2</ele><time>2026-04-12T13:04:02.998Z</time></trkpt><trkpt lat="42.348376628858546" lon="14.305456710200549"><ele>55.0</ele><time>2026-04-12T13:04:12.999Z</time></trkpt><trkpt lat="42.34830167946336" lon="14.305565564088896"><ele>55.0</ele><time>2026-04-12T13:04:13.999Z</time></trkpt><trkpt lat="42.348191307334865" lon="14.305694998959765"><ele>55.0</ele><time>2026-04-12T13:04:14.999Z</time></trkpt><trkpt lat="42.348082157495945" lon="14.305801538201646"><ele>55.0</ele><time>2026-04-12T13:04:15.999Z</time></trkpt><trkpt lat="42.34797674283326" lon="14.305914052091499"><ele>55.0</ele><time>2026-04-12T13:04:16.999Z</time></trkpt><trkpt lat="42.347840361661355" lon="14.306058352271448"><ele>55.0</ele><time>2026-04-12T13:04:17.999Z</time></trkpt><trkpt lat="42.34770203635352" lon="14.30620685167822"><ele>55.0</ele><time>2026-04-12T13:04:18.999Z</time></trkpt><trkpt lat="42.3475520812353" lon="14.306359934745378"><ele>55.0</ele><time>2026-04-12T13:04:19.999Z</time></trkpt><trkpt lat="42.3474037990375" lon="14.306498116552081"><ele>54.0</ele><time>2026-04-12T13:04:20.999Z</time></trkpt><trkpt lat="42.34729660739822" lon="14.30660228270813"><ele>53.0</ele><time>2026-04-12T13:04:21.999Z</time></trkpt><trkpt lat="42.34713311302824" lon="14.30668770035679"><ele>52.0</ele><time>2026-04-12T13:04:22.999Z</time></trkpt><trkpt lat="42.34696566162383" lon="14.306766798555726"><ele>52.0</ele><time>2026-04-12T13:04:23.999Z</time></trkpt><trkpt lat="42.34678708943088" lon="14.30684409438292"><ele>52.0</ele><time>2026-04-12T13:04:24.999Z</time></trkpt><trkpt lat="42.34659991049141" lon="14.306893551450498"><ele>52.0</ele><time>2026-04-12T13:04:25.999Z</time></trkpt><trkpt lat="42.34641520258598" lon="14.306986097134812"><ele>52.33333333333333</ele><time>2026-04-12T13:04:26.999Z</time></trkpt><trkpt lat="42.3462279419696" lon="14.307079923349518"><ele>52.66666666666667</ele><time>2026-04-12T13:04:27.999Z</time></trkpt><trkpt lat="42.346041029357814" lon="14.307173573665064"><ele>53.0</ele><time>2026-04-12T13:04:28.999Z</time></trkpt><trkpt lat="42.34585252662587" lon="14.307291538434061"><ele>51.333333333333336</ele><time>2026-04-12T13:04:29.999Z</time></trkpt><trkpt lat="42.345660761348796" lon="14.307385638092432"><ele>49.66666666666667</ele><time>2026-04-12T13:04:30.999Z</time></trkpt><trkpt lat="42.34547973501054" lon="14.307489749812252"><ele>48.0</ele><time>2026-04-12T13:04:31.999Z</time></trkpt><trkpt lat="42.3452888809927" lon="14.307610362961965"><ele>48.0</ele><time>2026-04-12T13:04:32.999Z</time></trkpt><trkpt lat="42.34509338190067" lon="14.307729362456552"><ele>48.0</ele><time>2026-04-12T13:04:33.999Z</time></trkpt><trkpt lat="42.34489642985919" lon="14.307852392115295"><ele>48.0</ele><time>2026-04-12T13:04:34.999Z</time></trkpt><trkpt lat="42.34470249381925" lon="14.307971731801333"><ele>48.33333333333333</ele><time>2026-04-12T13:04:35.999Z</time></trkpt><trkpt lat="42.344506520873225" lon="14.308067623393042"><ele>48.666666666666664</ele><time>2026-04-12T13:04:36.999Z</time></trkpt><trkpt lat="42.344337641151064" lon="14.308171014288742"><ele>49.0</ele><time>2026-04-12T13:04:37.999Z</time></trkpt><trkpt lat="42.344177920299714" lon="14.308269447388561"><ele>47.5</ele><time>2026-04-12T13:04:38.999Z</time></trkpt><trkpt lat="42.34402517283982" lon="14.308366965614017"><ele>46.0</ele><time>2026-04-12T13:04:39.999Z</time></trkpt><trkpt lat="42.343898903688505" lon="14.308456498759254"><ele>44.5</ele><time>2026-04-12T13:04:40.999Z</time></trkpt><trkpt lat="42.34379620147855" lon="14.308488322291257"><ele>43.0</ele><time>2026-04-12T13:04:41.999Z</time></trkpt><trkpt lat="42.34371667584865" lon="14.308506052691802"><ele>43.0</ele><time>2026-04-12T13:04:42.999Z</time></trkpt><trkpt lat="42.343615702821275" lon="14.308524113279706"><ele>43.0</ele><time>2026-04-12T13:04:43.999Z</time></trkpt><trkpt lat="42.34354053935138" lon="14.30854965011131"><ele>43.0</ele><time>2026-04-12T13:04:44.999Z</time></trkpt><trkpt lat="42.3434676999871" lon="14.308562595381238"><ele>43.0</ele><time>2026-04-12T13:04:45.999Z</time></trkpt><trkpt lat="42.34339111880374" lon="14.308575742813227"><ele>43.0</ele><time>2026-04-12T13:04:46.999Z</time></trkpt><trkpt lat="42.34332438727683" lon="14.308532793004218"><ele>43.0</ele><time>2026-04-12T13:04:47.999Z</time></trkpt><trkpt lat="42.343230150250236" lon="14.308472099250764"><ele>43.0</ele><time>2026-04-12T13:04:48.999Z</time></trkpt><trkpt lat="42.343117009586706" lon="14.308367110347348"><ele>43.0</ele><time>2026-04-12T13:04:49.999Z</time></trkpt><trkpt lat="42.342999957102464" lon="14.308254750209477"><ele>43.0</ele><time>2026-04-12T13:04:50.999Z</time></trkpt><trkpt lat="42.34286331304736" lon="14.308148258423612"><ele>43.0</ele><time>2026-04-12T13:04:51.999Z</time></trkpt><trkpt lat="42.34275563919902" lon="14.308036016135942"><ele>44.0</ele><time>2026-04-12T13:04:52.999Z</time></trkpt><trkpt lat="42.342670526968405" lon="14.307947036234433"><ele>45.0</ele><time>2026-04-12T13:04:53.999Z</time></trkpt><trkpt lat="42.34258358305019" lon="14.307876896582574"><ele>46.0</ele><time>2026-04-12T13:04:54.999Z</time></trkpt><trkpt lat="42.34249918806927" lon="14.307812339016577"><ele>47.0</ele><time>2026-04-12T13:04:55.999Z</time></trkpt><trkpt lat="42.342395340841655" lon="14.307790302057805"><ele>48.0</ele><time>2026-04-12T13:04:56.999Z</time></trkpt><trkpt lat="42.342270102561336" lon="14.307847312089958"><ele>47.666666666666664</ele><time>2026-04-12T13:04:57.999Z</time></trkpt><trkpt lat="42.342123813889785" lon="14.307910657677834"><ele>47.33333333333333</ele><time>2026-04-12T13:04:58.999Z</time></trkpt><trkpt lat="42.34196751995175" lon="14.30798530773444"><ele>47.0</ele><time>2026-04-12T13:04:59.999Z</time></trkpt><trkpt lat="42.34183989046809" lon="14.30805014261195"><ele>46.8</ele><time>2026-04-12T13:05:00.999Z</time></trkpt><trkpt lat="42.341765866415244" lon="14.308095266959585"><ele>46.6</ele><time>2026-04-12T13:05:01.999Z</time></trkpt><trkpt lat="42.34170551899223" lon="14.308128805224259"><ele>46.4</ele><time>2026-04-12T13:05:02.999Z</time></trkpt><trkpt lat="42.34157900901496" lon="14.308198588718215"><ele>46.199999999999996</ele><time>2026-04-12T13:05:03.999Z</time></trkpt><trkpt lat="42.34145895278744" lon="14.3082860835815"><ele>46.0</ele><time>2026-04-12T13:05:04.999Z</time></trkpt><trkpt lat="42.34131768301188" lon="14.308325891513936"><ele>45.5</ele><time>2026-04-12T13:05:05.999Z</time></trkpt><trkpt lat="42.341192283900426" lon="14.308373326330694"><ele>45.0</ele><time>2026-04-12T13:05:06.999Z</time></trkpt><trkpt lat="42.34108620111329" lon="14.308412437031658"><ele>44.5</ele><time>2026-04-12T13:05:07.999Z</time></trkpt><trkpt lat="42.34096777006689" lon="14.30845610017611"><ele>44.0</ele><time>2026-04-12T13:05:08.999Z</time></trkpt><trkpt lat="42.340875091505026" lon="14.308490806937725"><ele>44.0</ele><time>2026-04-12T13:05:09.999Z</time></trkpt><trkpt lat="42.34078430362157" lon="14.308526243180175"><ele>44.0</ele><time>2026-04-12T13:05:10.999Z</time></trkpt><trkpt lat="42.340684216731184" lon="14.308555386895543"><ele>44.0</ele><time>2026-04-12T13:05:11.999Z</time></trkpt><trkpt lat="42.340567094606484" lon="14.308568846509733"><ele>44.0</ele><time>2026-04-12T13:05:12.999Z</time></trkpt><trkpt lat="42.340430212995216" lon="14.308583908494565"><ele>44.5</ele><time>2026-04-12T13:05:13.999Z</time></trkpt><trkpt lat="42.34030020901376" lon="14.308631902784283"><ele>45.0</ele><time>2026-04-12T13:05:14.999Z</time></trkpt><trkpt lat="42.3401910912678" lon="14.308637238417543"><ele>45.5</ele><time>2026-04-12T13:05:15.999Z</time></trkpt><trkpt lat="42.34012883155822" lon="14.308860969252517"><ele>46.0</ele><time>2026-04-12T13:05:16.999Z</time></trkpt><trkpt lat="42.33998758366461" lon="14.308645539027047"><ele>46.0</ele><time>2026-04-12T13:05:17.999Z</time></trkpt><trkpt lat="42.33988608726321" lon="14.308640037928702"><ele>46.0</ele><time>2026-04-12T13:05:18.999Z</time></trkpt><trkpt lat="42.33977663085528" lon="14.308594718105434"><ele>46.0</ele><time>2026-04-12T13:05:19.999Z</time></trkpt><trkpt lat="42.33964106875244" lon="14.308527111685928"><ele>46.0</ele><time>2026-04-12T13:05:20.999Z</time></trkpt><trkpt lat="42.339485072567214" lon="14.308419831288257"><ele>45.75</ele><time>2026-04-12T13:05:21.999Z</time></trkpt><trkpt lat="42.33935136297851" lon="14.308330356785643"><ele>45.5</ele><time>2026-04-12T13:05:22.999Z</time></trkpt><trkpt lat="42.339270815810984" lon="14.308268172175927"><ele>45.25</ele><time>2026-04-12T13:05:23.999Z</time></trkpt><trkpt lat="42.33919075814496" lon="14.308170051348837"><ele>45.0</ele><time>2026-04-12T13:05:24.999Z</time></trkpt><trkpt lat="42.339096312797196" lon="14.308046440478083"><ele>46.0</ele><time>2026-04-12T13:05:25.999Z</time></trkpt><trkpt lat="42.33902930308026" lon="14.307933520300596"><ele>47.0</ele><time>2026-04-12T13:05:26.998Z</time></trkpt><trkpt lat="42.33890487660421" lon="14.307969596455495"><ele>48.0</ele><time>2026-04-12T13:05:27.998Z</time></trkpt><trkpt lat="42.3389173719419" lon="14.30767484918024"><ele>47.8</ele><time>2026-04-12T13:05:28.998Z</time></trkpt><trkpt lat="42.33883365685223" lon="14.307509742399853"><ele>47.599999999999994</ele><time>2026-04-12T13:05:29.998Z</time></trkpt><trkpt lat="42.338737877109565" lon="14.307396057434682"><ele>47.400000000000006</ele><time>2026-04-12T13:05:30.998Z</time></trkpt><trkpt lat="42.33867850939288" lon="14.30729885184181"><ele>47.2</ele><time>2026-04-12T13:05:31.998Z</time></trkpt><trkpt lat="42.33862255461048" lon="14.307228827876694"><ele>47.0</ele><time>2026-04-12T13:05:32.998Z</time></trkpt><trkpt lat="42.33855481547971" lon="14.30713068630352"><ele>48.25</ele><time>2026-04-12T13:05:33.998Z</time></trkpt><trkpt lat="42.33845204943963" lon="14.307056446835878"><ele>49.5</ele><time>2026-04-12T13:05:34.998Z</time></trkpt><trkpt lat="42.33833978009157" lon="14.30694992369193"><ele>50.75</ele><time>2026-04-12T13:05:35.998Z</time></trkpt><trkpt lat="42.33823297860584" lon="14.306853839684456"><ele>52.0</ele><time>2026-04-12T13:05:36.998Z</time></trkpt><trkpt lat="42.338138393489416" lon="14.306777977292999"><ele>51.99999999999999</ele><time>2026-04-12T13:05:37.998Z</time></trkpt><trkpt lat="42.338063411602434" lon="14.306719215340818"><ele>52.0</ele><time>2026-04-12T13:05:38.998Z</time></trkpt><trkpt lat="42.33799821504576" lon="14.30667738798707"><ele>52.0</ele><time>2026-04-12T13:05:39.998Z</time></trkpt><trkpt lat="42.337914098477576" lon="14.306653829663862"><ele>52.0</ele><time>2026-04-12T13:05:40.998Z</time></trkpt><trkpt lat="42.33783910155937" lon="14.306672193319063"><ele>51.99999999999999</ele><time>2026-04-12T13:05:41.998Z</time></trkpt><trkpt lat="42.33775469481535" lon="14.306689335584995"><ele>52.0</ele><time>2026-04-12T13:05:42.998Z</time></trkpt><trkpt lat="42.33768333058961" lon="14.306694155271302"><ele>51.400000000000006</ele><time>2026-04-12T13:05:43.998Z</time></trkpt><trkpt lat="42.33761855624046" lon="14.306682255290445"><ele>50.800000000000004</ele><time>2026-04-12T13:05:44.998Z</time></trkpt><trkpt lat="42.33750966076684" lon="14.306726875841843"><ele>50.2</ele><time>2026-04-12T13:05:46.998Z</time></trkpt><trkpt lat="42.33744082982258" lon="14.306714109914168"><ele>49.6</ele><time>2026-04-12T13:05:47.998Z</time></trkpt><trkpt lat="42.337347962529485" lon="14.306724850020963"><ele>49.0</ele><time>2026-04-12T13:05:48.999Z</time></trkpt><trkpt lat="42.337227977612066" lon="14.306733577478862"><ele>49.666666666666664</ele><time>2026-04-12T13:05:49.999Z</time></trkpt><trkpt lat="42.33707081367762" lon="14.306702553646911"><ele>50.33333333333333</ele><time>2026-04-12T13:05:50.999Z</time></trkpt><trkpt lat="42.336910343359044" lon="14.306656217109763"><ele>51.0</ele><time>2026-04-12T13:05:51.999Z</time></trkpt><trkpt lat="42.336758086824425" lon="14.30661006510357"><ele>51.0</ele><time>2026-04-12T13:05:52.999Z</time></trkpt><trkpt lat="42.33665609753959" lon="14.30660020944166"><ele>51.0</ele><time>2026-04-12T13:05:53.999Z</time></trkpt><trkpt lat="42.33658214229992" lon="14.306572277985367"><ele>51.0</ele><time>2026-04-12T13:05:54.999Z</time></trkpt><trkpt lat="42.336475439166676" lon="14.306549799761596"><ele>51.0</ele><time>2026-04-12T13:05:55.999Z</time></trkpt><trkpt lat="42.336375685726814" lon="14.3065300422702"><ele>51.0</ele><time>2026-04-12T13:05:56.999Z</time></trkpt><trkpt lat="42.33629877000669" lon="14.306505641032636"><ele>51.199999999999996</ele><time>2026-04-12T13:05:57.999Z</time></trkpt><trkpt lat="42.33622238104769" lon="14.306472394328331"><ele>51.4</ele><time>2026-04-12T13:05:58.999Z</time></trkpt><trkpt lat="42.336056077918116" lon="14.306430059867491"><ele>51.6</ele><time>2026-04-12T13:05:59.999Z</time></trkpt><trkpt lat="42.33597512414237" lon="14.306375342087088"><ele>51.8</ele><time>2026-04-12T13:06:00.999Z</time></trkpt><trkpt lat="42.33590195424913" lon="14.306300537835106"><ele>52.0</ele><time>2026-04-12T13:06:01.999Z</time></trkpt><trkpt lat="42.33583312248392" lon="14.306211721869426"><ele>52.8</ele><time>2026-04-12T13:06:02.999Z</time></trkpt><trkpt lat="42.335788435737705" lon="14.306071252332147"><ele>53.6</ele><time>2026-04-12T13:06:03.999Z</time></trkpt><trkpt lat="42.33573060978884" lon="14.305962710999706"><ele>54.39999999999999</ele><time>2026-04-12T13:06:04.999Z</time></trkpt><trkpt lat="42.33566608995433" lon="14.3058527575337"><ele>55.199999999999996</ele><time>2026-04-12T13:06:05.999Z</time></trkpt><trkpt lat="42.335597702332166" lon="14.305774763111005"><ele>56.0</ele><time>2026-04-12T13:06:06.999Z</time></trkpt><trkpt lat="42.33554594920938" lon="14.305719893904858"><ele>56.16666666666667</ele><time>2026-04-12T13:06:07.999Z</time></trkpt><trkpt lat="42.335468418764236" lon="14.305660705344907"><ele>56.333333333333336</ele><time>2026-04-12T13:06:09.999Z</time></trkpt><trkpt lat="42.33542561441424" lon="14.305588455034565"><ele>56.5</ele><time>2026-04-12T13:06:13.999Z</time></trkpt><trkpt lat="42.33550729698147" lon="14.305492752010414"><ele>56.66666666666667</ele><time>2026-04-12T13:06:16Z</time></trkpt><trkpt lat="42.33556582720257" lon="14.305405768350044"><ele>56.833333333333336</ele><time>2026-04-12T13:06:17Z</time></trkpt><trkpt lat="42.335618250705394" lon="14.30532223702464"><ele>57.0</ele><time>2026-04-12T13:06:18Z</time></trkpt><trkpt lat="42.335663659784366" lon="14.305242955576547"><ele>58.2</ele><time>2026-04-12T13:06:19Z</time></trkpt><trkpt lat="42.33571649768486" lon="14.305141296463885"><ele>59.400000000000006</ele><time>2026-04-12T13:06:20Z</time></trkpt><trkpt lat="42.33576800934687" lon="14.305020687367334"><ele>60.599999999999994</ele><time>2026-04-12T13:06:21Z</time></trkpt><trkpt lat="42.33581040271788" lon="14.304902856466395"><ele>61.8</ele><time>2026-04-12T13:06:22Z</time></trkpt><trkpt lat="42.335820576845805" lon="14.304789406989682"><ele>63.0</ele><time>2026-04-12T13:06:23Z</time></trkpt><trkpt lat="42.335812879037114" lon="14.30468148247629"><ele>64.4</ele><time>2026-04-12T13:06:24Z</time></trkpt><trkpt lat="42.33577501390663" lon="14.304572600681269"><ele>65.8</ele><time>2026-04-12T13:06:25Z</time></trkpt><trkpt lat="42.33571965803563" lon="14.304474074610534"><ele>67.2</ele><time>2026-04-12T13:06:26Z</time></trkpt><trkpt lat="42.33563669763758" lon="14.304383672562212"><ele>68.6</ele><time>2026-04-12T13:06:27Z</time></trkpt><trkpt lat="42.33557165569865" lon="14.30430843821131"><ele>70.0</ele><time>2026-04-12T13:06:28Z</time></trkpt><trkpt lat="42.33549321156856" lon="14.304250502628408"><ele>70.0</ele><time>2026-04-12T13:06:29Z</time></trkpt><trkpt lat="42.33542012869068" lon="14.304198117663407"><ele>70.0</ele><time>2026-04-12T13:06:30Z</time></trkpt><trkpt lat="42.33536917912682" lon="14.304052048289384"><ele>70.0</ele><time>2026-04-12T13:06:32Z</time></trkpt><trkpt lat="42.335358791885476" lon="14.303905325422065"><ele>70.0</ele><time>2026-04-12T13:06:33Z</time></trkpt><trkpt lat="42.335323604770295" lon="14.303794313770284"><ele>70.0</ele><time>2026-04-12T13:06:34Z</time></trkpt><trkpt lat="42.33522743845016" lon="14.303745930872543"><ele>72.8</ele><time>2026-04-12T13:06:36Z</time></trkpt><trkpt lat="42.33523928376479" lon="14.30361362597117"><ele>75.6</ele><time>2026-04-12T13:06:38Z</time></trkpt><trkpt lat="42.33515416832516" lon="14.303564155257943"><ele>78.4</ele><time>2026-04-12T13:06:41Z</time></trkpt><trkpt lat="42.3350714970646" lon="14.303558125357428"><ele>81.2</ele><time>2026-04-12T13:06:42Z</time></trkpt><trkpt lat="42.334996260401276" lon="14.30355043365449"><ele>84.0</ele><time>2026-04-12T13:06:43Z</time></trkpt><trkpt lat="42.33490112452412" lon="14.303497161798381"><ele>84.0</ele><time>2026-04-12T13:06:44Z</time></trkpt><trkpt lat="42.33479186543066" lon="14.303414783260273"><ele>84.0</ele><time>2026-04-12T13:06:45Z</time></trkpt><trkpt lat="42.334671301751705" lon="14.303310649186606"><ele>84.0</ele><time>2026-04-12T13:06:46Z</time></trkpt><trkpt lat="42.334556775949096" lon="14.303209358011932"><ele>84.0</ele><time>2026-04-12T13:06:47Z</time></trkpt><trkpt lat="42.33444761075179" lon="14.30309213683336"><ele>82.5</ele><time>2026-04-12T13:06:48Z</time></trkpt><trkpt lat="42.33436446502402" lon="14.302947653628825"><ele>81.0</ele><time>2026-04-12T13:06:49Z</time></trkpt><trkpt lat="42.33428672112908" lon="14.302780711238768"><ele>79.5</ele><time>2026-04-12T13:06:50Z</time></trkpt><trkpt lat="42.334217699015355" lon="14.302621704336527"><ele>78.0</ele><time>2026-04-12T13:06:51Z</time></trkpt><trkpt lat="42.3341349867606" lon="14.302474122630668"><ele>78.0</ele><time>2026-04-12T13:06:52Z</time></trkpt><trkpt lat="42.33402603351966" lon="14.302330876692492"><ele>78.0</ele><time>2026-04-12T13:06:53Z</time></trkpt><trkpt lat="42.333896803052006" lon="14.302177329763468"><ele>78.0</ele><time>2026-04-12T13:06:54Z</time></trkpt><trkpt lat="42.33378388857804" lon="14.30202242626572"><ele>76.25</ele><time>2026-04-12T13:06:55Z</time></trkpt><trkpt lat="42.33369981361302" lon="14.30186781025449"><ele>74.5</ele><time>2026-04-12T13:06:56Z</time></trkpt><trkpt lat="42.333623350576595" lon="14.30171866917344"><ele>72.75</ele><time>2026-04-12T13:06:57Z</time></trkpt><trkpt lat="42.33354338735628" lon="14.301603273810699"><ele>71.0</ele><time>2026-04-12T13:06:58Z</time></trkpt><trkpt lat="42.33344772862452" lon="14.301531608784746"><ele>71.0</ele><time>2026-04-12T13:06:59Z</time></trkpt><trkpt lat="42.33335694427665" lon="14.301504346184162"><ele>71.0</ele><time>2026-04-12T13:07:00Z</time></trkpt><trkpt lat="42.33327928704681" lon="14.301537582374385"><ele>71.0</ele><time>2026-04-12T13:07:01Z</time></trkpt><trkpt lat="42.33319273825616" lon="14.301615878483219"><ele>71.0</ele><time>2026-04-12T13:07:02Z</time></trkpt><trkpt lat="42.33308268562963" lon="14.301700704098383"><ele>71.0</ele><time>2026-04-12T13:07:03Z</time></trkpt><trkpt lat="42.33296553009397" lon="14.301786499290545"><ele>70.0</ele><time>2026-04-12T13:07:04Z</time></trkpt><trkpt lat="42.332835871706855" lon="14.301827793167194"><ele>69.0</ele><time>2026-04-12T13:07:05Z</time></trkpt><trkpt lat="42.332715058057204" lon="14.30181723074824"><ele>68.0</ele><time>2026-04-12T13:07:06Z</time></trkpt><trkpt lat="42.332575788900776" lon="14.301775260728101"><ele>67.0</ele><time>2026-04-12T13:07:07Z</time></trkpt><trkpt lat="42.3324154725984" lon="14.3017080415905"><ele>67.0</ele><time>2026-04-12T13:07:08Z</time></trkpt><trkpt lat="42.33224601408752" lon="14.301626365709646"><ele>67.0</ele><time>2026-04-12T13:07:09Z</time></trkpt><trkpt lat="42.33207076790084" lon="14.301553612548915"><ele>67.0</ele><time>2026-04-12T13:07:10Z</time></trkpt><trkpt lat="42.331904144060225" lon="14.301454860166562"><ele>66.33333333333333</ele><time>2026-04-12T13:07:11Z</time></trkpt><trkpt lat="42.33172834463033" lon="14.301353035785436"><ele>65.66666666666667</ele><time>2026-04-12T13:07:12Z</time></trkpt><trkpt lat="42.33154107111102" lon="14.301243347021538"><ele>65.0</ele><time>2026-04-12T13:07:13Z</time></trkpt><trkpt lat="42.33136082992065" lon="14.301106810613303"><ele>65.0</ele><time>2026-04-12T13:07:14Z</time></trkpt><trkpt lat="42.331178507427474" lon="14.300987030924452"><ele>65.0</ele><time>2026-04-12T13:07:15Z</time></trkpt><trkpt lat="42.33101141819126" lon="14.300869422969262"><ele>65.0</ele><time>2026-04-12T13:07:16Z</time></trkpt><trkpt lat="42.330853872797775" lon="14.300785457372022"><ele>65.0</ele><time>2026-04-12T13:07:17Z</time></trkpt><trkpt lat="42.33070431644765" lon="14.30067103078433"><ele>65.0</ele><time>2026-04-12T13:07:18Z</time></trkpt><trkpt lat="42.33053516988946" lon="14.300580407837902"><ele>65.0</ele><time>2026-04-12T13:07:19Z</time></trkpt><trkpt lat="42.33034891198622" lon="14.3005093729955"><ele>64.66666666666667</ele><time>2026-04-12T13:07:20Z</time></trkpt><trkpt lat="42.33015635179748" lon="14.300452413625935"><ele>64.33333333333333</ele><time>2026-04-12T13:07:21Z</time></trkpt><trkpt lat="42.329962107498694" lon="14.300394128769472"><ele>64.0</ele><time>2026-04-12T13:07:22Z</time></trkpt><trkpt lat="42.329762935909635" lon="14.30035938008543"><ele>64.0</ele><time>2026-04-12T13:07:23Z</time></trkpt><trkpt lat="42.32956555426198" lon="14.300289485899462"><ele>64.0</ele><time>2026-04-12T13:07:24Z</time></trkpt><trkpt lat="42.3293583944847" lon="14.300258344295765"><ele>64.0</ele><time>2026-04-12T13:07:25Z</time></trkpt><trkpt lat="42.32915412575966" lon="14.300181839508971"><ele>64.0</ele><time>2026-04-12T13:07:26Z</time></trkpt><trkpt lat="42.32894934921415" lon="14.300149669975074"><ele>64.0</ele><time>2026-04-12T13:07:27Z</time></trkpt><trkpt lat="42.328750519329944" lon="14.300091821934542"><ele>64.0</ele><time>2026-04-12T13:07:28Z</time></trkpt><trkpt lat="42.32857546746866" lon="14.30004211616638"><ele>63.33333333333333</ele><time>2026-04-12T13:07:29Z</time></trkpt><trkpt lat="42.32840711579538" lon="14.299960645768511"><ele>62.66666666666667</ele><time>2026-04-12T13:07:30Z</time></trkpt><trkpt lat="42.32822161889324" lon="14.299890728470707"><ele>62.0</ele><time>2026-04-12T13:07:31Z</time></trkpt><trkpt lat="42.32803072216297" lon="14.299789482363245"><ele>63.66666666666667</ele><time>2026-04-12T13:07:32Z</time></trkpt><trkpt lat="42.3278350478594" lon="14.299686177799922"><ele>65.33333333333333</ele><time>2026-04-12T13:07:32.999Z</time></trkpt><trkpt lat="42.327646673381594" lon="14.29955127240012"><ele>67.0</ele><time>2026-04-12T13:07:33.999Z</time></trkpt><trkpt lat="42.327456064071335" lon="14.299434670389337"><ele>67.0</ele><time>2026-04-12T13:07:34.999Z</time></trkpt><trkpt lat="42.32726664160654" lon="14.299318570310716"><ele>67.0</ele><time>2026-04-12T13:07:35.999Z</time></trkpt><trkpt lat="42.32707971317173" lon="14.299203682122704"><ele>67.0</ele><time>2026-04-12T13:07:36.999Z</time></trkpt><trkpt lat="42.326894955735554" lon="14.29908952156477"><ele>66.33333333333333</ele><time>2026-04-12T13:07:37.999Z</time></trkpt><trkpt lat="42.32671591912185" lon="14.298978895792876"><ele>65.66666666666667</ele><time>2026-04-12T13:07:38.999Z</time></trkpt><trkpt lat="42.326535188861115" lon="14.298867223554637"><ele>65.0</ele><time>2026-04-12T13:07:39.999Z</time></trkpt><trkpt lat="42.3263621159875" lon="14.298761962012648"><ele>66.5</ele><time>2026-04-12T13:07:40.999Z</time></trkpt><trkpt lat="42.32622010837333" lon="14.298690778115612"><ele>68.0</ele><time>2026-04-12T13:07:41.999Z</time></trkpt><trkpt lat="42.32611988737268" lon="14.298606631530086"><ele>69.5</ele><time>2026-04-12T13:07:42.999Z</time></trkpt><trkpt lat="42.32604576903507" lon="14.298501200026145"><ele>71.0</ele><time>2026-04-12T13:07:43.999Z</time></trkpt><trkpt lat="42.326005606068335" lon="14.298361940537273"><ele>71.0</ele><time>2026-04-12T13:07:44.999Z</time></trkpt><trkpt lat="42.32598360711947" lon="14.29821190323137"><ele>71.0</ele><time>2026-04-12T13:07:45.999Z</time></trkpt><trkpt lat="42.32594722195784" lon="14.298081577282161"><ele>71.0</ele><time>2026-04-12T13:07:46.999Z</time></trkpt><trkpt lat="42.32587254952245" lon="14.297997170461974"><ele>71.0</ele><time>2026-04-12T13:07:47.999Z</time></trkpt><trkpt lat="42.32575613195558" lon="14.297958286356627"><ele>71.0</ele><time>2026-04-12T13:07:48.999Z</time></trkpt><trkpt lat="42.32562743027019" lon="14.297977589147736"><ele>72.25</ele><time>2026-04-12T13:07:49.999Z</time></trkpt><trkpt lat="42.32549511044084" lon="14.298047211701702"><ele>73.5</ele><time>2026-04-12T13:07:50.999Z</time></trkpt><trkpt lat="42.32535722917605" lon="14.29810660240615"><ele>74.75</ele><time>2026-04-12T13:07:51.999Z</time></trkpt><trkpt lat="42.325211923163096" lon="14.298180336504558"><ele>76.0</ele><time>2026-04-12T13:07:52.999Z</time></trkpt><trkpt lat="42.325063663005935" lon="14.298259529300282"><ele>76.0</ele><time>2026-04-12T13:07:53.999Z</time></trkpt><trkpt lat="42.32491743742586" lon="14.298337155212145"><ele>76.0</ele><time>2026-04-12T13:07:54.999Z</time></trkpt><trkpt lat="42.32480412382688" lon="14.298379899278741"><ele>76.0</ele><time>2026-04-12T13:07:55.999Z</time></trkpt><trkpt lat="42.324702912129446" lon="14.298388884679353"><ele>76.0</ele><time>2026-04-12T13:07:56.999Z</time></trkpt><trkpt lat="42.32459743674342" lon="14.298335910569532"><ele>77.0</ele><time>2026-04-12T13:07:57.999Z</time></trkpt><trkpt lat="42.324475521835694" lon="14.298258617723759"><ele>78.0</ele><time>2026-04-12T13:07:58.999Z</time></trkpt><trkpt lat="42.324336933377275" lon="14.298175521840724"><ele>79.0</ele><time>2026-04-12T13:07:59.999Z</time></trkpt><trkpt lat="42.32419866026456" lon="14.298068469094058"><ele>80.0</ele><time>2026-04-12T13:08:00.999Z</time></trkpt><trkpt lat="42.3240582061614" lon="14.297948560825157"><ele>82.66666666666667</ele><time>2026-04-12T13:08:01.999Z</time></trkpt><trkpt lat="42.3239253715779" lon="14.297801744979216"><ele>85.33333333333333</ele><time>2026-04-12T13:08:02.999Z</time></trkpt><trkpt lat="42.3237881674551" lon="14.297653957437698"><ele>88.0</ele><time>2026-04-12T13:08:03.999Z</time></trkpt><trkpt lat="42.323639200478354" lon="14.297531946665588"><ele>88.0</ele><time>2026-04-12T13:08:04.999Z</time></trkpt><trkpt lat="42.32347817355619" lon="14.29744042111112"><ele>88.0</ele><time>2026-04-12T13:08:05.999Z</time></trkpt><trkpt lat="42.32330224024351" lon="14.297346840306835"><ele>88.0</ele><time>2026-04-12T13:08:06.999Z</time></trkpt><trkpt lat="42.32312119320438" lon="14.297246010812547"><ele>93.0</ele><time>2026-04-12T13:08:07.999Z</time></trkpt><trkpt lat="42.322939423545535" lon="14.297143243669536"><ele>98.0</ele><time>2026-04-12T13:08:08.999Z</time></trkpt><trkpt lat="42.322755449335" lon="14.297052541484359"><ele>103.0</ele><time>2026-04-12T13:08:09.999Z</time></trkpt><trkpt lat="42.32256645669564" lon="14.296979618145038"><ele>103.0</ele><time>2026-04-12T13:08:10.999Z</time></trkpt><trkpt lat="42.32237640254373" lon="14.29688683654705"><ele>103.0</ele><time>2026-04-12T13:08:11.999Z</time></trkpt><trkpt lat="42.32217895478984" lon="14.296818693703852"><ele>103.0</ele><time>2026-04-12T13:08:12.999Z</time></trkpt><trkpt lat="42.321978853488616" lon="14.29674697866501"><ele>102.0</ele><time>2026-04-12T13:08:13.999Z</time></trkpt><trkpt lat="42.321804549766696" lon="14.296682495114553"><ele>101.0</ele><time>2026-04-12T13:08:14.999Z</time></trkpt><trkpt lat="42.321650570931055" lon="14.296623968664033"><ele>100.0</ele><time>2026-04-12T13:08:15.999Z</time></trkpt><trkpt lat="42.32149514588442" lon="14.296566663651792"><ele>100.66666666666667</ele><time>2026-04-12T13:08:16.999Z</time></trkpt><trkpt lat="42.32137036198809" lon="14.296416744624251"><ele>101.33333333333334</ele><time>2026-04-12T13:08:17.999Z</time></trkpt><trkpt lat="42.32124997912643" lon="14.296272725549132"><ele>102.0</ele><time>2026-04-12T13:08:18.999Z</time></trkpt><trkpt lat="42.321130647834764" lon="14.296094244343326"><ele>102.0</ele><time>2026-04-12T13:08:19.999Z</time></trkpt><trkpt lat="42.32099088932594" lon="14.295934441116305"><ele>102.0</ele><time>2026-04-12T13:08:21.001Z</time></trkpt><trkpt lat="42.320833059958275" lon="14.295806763884777"><ele>102.0</ele><time>2026-04-12T13:08:22.001Z</time></trkpt><trkpt lat="42.32065958851251" lon="14.295725237895336"><ele>100.33333333333334</ele><time>2026-04-12T13:08:23.001Z</time></trkpt><trkpt lat="42.32047652484801" lon="14.29562154702178"><ele>98.66666666666667</ele><time>2026-04-12T13:08:24.001Z</time></trkpt><trkpt lat="42.32029036153438" lon="14.295550510679194"><ele>97.0</ele><time>2026-04-12T13:08:25.001Z</time></trkpt><trkpt lat="42.3201243184417" lon="14.295470568689012"><ele>100.25</ele><time>2026-04-12T13:08:26Z</time></trkpt><trkpt lat="42.31998554341533" lon="14.29538816373848"><ele>103.5</ele><time>2026-04-12T13:08:27.001Z</time></trkpt><trkpt lat="42.31987060597145" lon="14.29532131159384"><ele>106.75</ele><time>2026-04-12T13:08:28.001Z</time></trkpt><trkpt lat="42.31980569999797" lon="14.295257633995089"><ele>110.0</ele><time>2026-04-12T13:08:29Z</time></trkpt><trkpt lat="42.31978155175797" lon="14.295078535972578"><ele>110.0</ele><time>2026-04-12T13:08:31.001Z</time></trkpt><trkpt lat="42.319819883519735" lon="14.294934967413948"><ele>110.0</ele><time>2026-04-12T13:08:32Z</time></trkpt><trkpt lat="42.31981910598362" lon="14.29481826983042"><ele>110.0</ele><time>2026-04-12T13:08:33Z</time></trkpt><trkpt lat="42.31976949415979" lon="14.294727773271672"><ele>110.0</ele><time>2026-04-12T13:08:34.001Z</time></trkpt><trkpt lat="42.31970720704619" lon="14.294672132002933"><ele>110.0</ele><time>2026-04-12T13:08:35Z</time></trkpt><trkpt lat="42.319615697495635" lon="14.29471843675403"><ele>110.0</ele><time>2026-04-12T13:08:36Z</time></trkpt><trkpt lat="42.31954396758313" lon="14.294815279173"><ele>110.0</ele><time>2026-04-12T13:08:37Z</time></trkpt><trkpt lat="42.31945657084436" lon="14.294875329034616"><ele>110.0</ele><time>2026-04-12T13:08:38Z</time></trkpt><trkpt lat="42.31932955055115" lon="14.29480995460202"><ele>110.0</ele><time>2026-04-12T13:08:40Z</time></trkpt><trkpt lat="42.31929717609746" lon="14.294687617245112"><ele>110.0</ele><time>2026-04-12T13:08:41Z</time></trkpt><trkpt lat="42.31922076593108" lon="14.294552115308338"><ele>110.0</ele><time>2026-04-12T13:08:42Z</time></trkpt><trkpt lat="42.31911983656488" lon="14.294416164397338"><ele>110.0</ele><time>2026-04-12T13:08:43Z</time></trkpt><trkpt lat="42.31900187108236" lon="14.29429424581416"><ele>110.0</ele><time>2026-04-12T13:08:44Z</time></trkpt><trkpt lat="42.318884374517104" lon="14.294171719855282"><ele>110.0</ele><time>2026-04-12T13:08:45Z</time></trkpt><trkpt lat="42.31882117130685" lon="14.294005446836517"><ele>109.5</ele><time>2026-04-12T13:08:46Z</time></trkpt><trkpt lat="42.318749996485955" lon="14.293844483340298"><ele>109.0</ele><time>2026-04-12T13:08:47Z</time></trkpt><trkpt lat="42.31867563332654" lon="14.2936719852076"><ele>108.5</ele><time>2026-04-12T13:08:48Z</time></trkpt><trkpt lat="42.31861246122217" lon="14.293519665655104"><ele>108.0</ele><time>2026-04-12T13:08:49Z</time></trkpt><trkpt lat="42.31855502125165" lon="14.293362354764882"><ele>108.0</ele><time>2026-04-12T13:08:50Z</time></trkpt><trkpt lat="42.318443336132106" lon="14.293261331894977"><ele>108.0</ele><time>2026-04-12T13:08:51Z</time></trkpt><trkpt lat="42.31834523111877" lon="14.29316378214392"><ele>108.0</ele><time>2026-04-12T13:08:52Z</time></trkpt><trkpt lat="42.31820998187072" lon="14.293091106676105"><ele>108.0</ele><time>2026-04-12T13:08:53Z</time></trkpt><trkpt lat="42.31803276097304" lon="14.292988256537548"><ele>108.5</ele><time>2026-04-12T13:08:54Z</time></trkpt><trkpt lat="42.31786628444076" lon="14.292903969299951"><ele>109.0</ele><time>2026-04-12T13:08:55Z</time></trkpt><trkpt lat="42.31772167080545" lon="14.29283369704342"><ele>109.5</ele><time>2026-04-12T13:08:56Z</time></trkpt><trkpt lat="42.31762402326902" lon="14.292762818788916"><ele>110.0</ele><time>2026-04-12T13:08:57Z</time></trkpt><trkpt lat="42.31750201403226" lon="14.29269322761657"><ele>110.0</ele><time>2026-04-12T13:08:58Z</time></trkpt><trkpt lat="42.31741511762005" lon="14.292618908833262"><ele>110.0</ele><time>2026-04-12T13:08:59Z</time></trkpt><trkpt lat="42.31730358471228" lon="14.292582957420287"><ele>110.0</ele><time>2026-04-12T13:09:00Z</time></trkpt><trkpt lat="42.31717825367129" lon="14.292581563474826"><ele>110.0</ele><time>2026-04-12T13:09:01Z</time></trkpt><trkpt lat="42.31705439581964" lon="14.29259256513979"><ele>106.66666666666666</ele><time>2026-04-12T13:09:02Z</time></trkpt><trkpt lat="42.31690471824496" lon="14.292610520286397"><ele>103.33333333333334</ele><time>2026-04-12T13:09:03Z</time></trkpt><trkpt lat="42.31671726323406" lon="14.29263085779339"><ele>100.0</ele><time>2026-04-12T13:09:04Z</time></trkpt><trkpt lat="42.316562637919084" lon="14.292604738848715"><ele>100.0</ele><time>2026-04-12T13:09:05Z</time></trkpt><trkpt lat="42.316413179566155" lon="14.292567351312487"><ele>100.0</ele><time>2026-04-12T13:09:06Z</time></trkpt><trkpt lat="42.31629041606431" lon="14.292499383432919"><ele>100.0</ele><time>2026-04-12T13:09:07Z</time></trkpt><trkpt lat="42.31618532088794" lon="14.292395115856193"><ele>100.0</ele><time>2026-04-12T13:09:08Z</time></trkpt><trkpt lat="42.31604700490974" lon="14.292267228715271"><ele>100.66666666666667</ele><time>2026-04-12T13:09:09Z</time></trkpt><trkpt lat="42.31589372721654" lon="14.292170647176198"><ele>101.33333333333334</ele><time>2026-04-12T13:09:10Z</time></trkpt><trkpt lat="42.31574105475226" lon="14.292097014136395"><ele>102.0</ele><time>2026-04-12T13:09:11Z</time></trkpt><trkpt lat="42.315572837865176" lon="14.292017943854038"><ele>97.33333333333333</ele><time>2026-04-12T13:09:12Z</time></trkpt><trkpt lat="42.3153718282585" lon="14.291985389131975"><ele>92.66666666666666</ele><time>2026-04-12T13:09:13Z</time></trkpt><trkpt lat="42.315155158385224" lon="14.291938027555123"><ele>88.0</ele><time>2026-04-12T13:09:14Z</time></trkpt><trkpt lat="42.314963322826685" lon="14.29185072349668"><ele>88.0</ele><time>2026-04-12T13:09:15Z</time></trkpt><trkpt lat="42.314766047333926" lon="14.291806688544245"><ele>88.0</ele><time>2026-04-12T13:09:16Z</time></trkpt><trkpt lat="42.314565506174056" lon="14.291789380234603"><ele>88.0</ele><time>2026-04-12T13:09:17Z</time></trkpt><trkpt lat="42.31438109055926" lon="14.291734625494778"><ele>87.66666666666666</ele><time>2026-04-12T13:09:18Z</time></trkpt><trkpt lat="42.31417922036962" lon="14.291713148153063"><ele>87.33333333333333</ele><time>2026-04-12T13:09:19Z</time></trkpt><trkpt lat="42.314003493515386" lon="14.29169929280224"><ele>87.0</ele><time>2026-04-12T13:09:20Z</time></trkpt><trkpt lat="42.313853653141884" lon="14.291684679089883"><ele>87.0</ele><time>2026-04-12T13:09:21Z</time></trkpt><trkpt lat="42.31373307723405" lon="14.291691061068178"><ele>87.0</ele><time>2026-04-12T13:09:22Z</time></trkpt><trkpt lat="42.31365548899238" lon="14.29165163396349"><ele>87.0</ele><time>2026-04-12T13:09:23Z</time></trkpt><trkpt lat="42.313523373584566" lon="14.291587300552878"><ele>87.0</ele><time>2026-04-12T13:09:25Z</time></trkpt><trkpt lat="42.31342981291919" lon="14.291519981173591"><ele>87.5</ele><time>2026-04-12T13:09:26Z</time></trkpt><trkpt lat="42.31334316973434" lon="14.291410806597705"><ele>88.0</ele><time>2026-04-12T13:09:28Z</time></trkpt><trkpt lat="42.31298815807999" lon="14.291848699167428"><ele>88.0</ele><time>2026-04-12T13:09:29Z</time></trkpt><trkpt lat="42.31292611107105" lon="14.29180308217309"><ele>88.0</ele><time>2026-04-12T13:09:30Z</time></trkpt><trkpt lat="42.312862667356214" lon="14.291714058325944"><ele>88.0</ele><time>2026-04-12T13:09:31Z</time></trkpt><trkpt lat="42.31282288402869" lon="14.29163069330161"><ele>88.0</ele><time>2026-04-12T13:09:32Z</time></trkpt><trkpt lat="42.31273957645215" lon="14.291577839876302"><ele>88.0</ele><time>2026-04-12T13:09:33Z</time></trkpt><trkpt lat="42.31275915008868" lon="14.291492632268175"><ele>88.0</ele><time>2026-04-12T13:09:35Z</time></trkpt><trkpt lat="42.31277408046337" lon="14.29136856990281"><ele>89.2</ele><time>2026-04-12T13:09:36.999Z</time></trkpt><trkpt lat="42.31274783820313" lon="14.291234703082992"><ele>90.4</ele><time>2026-04-12T13:09:37.999Z</time></trkpt><trkpt lat="42.31269079717519" lon="14.291111509658954"><ele>91.60000000000001</ele><time>2026-04-12T13:09:38.999Z</time></trkpt><trkpt lat="42.31257941387948" lon="14.291051816779031"><ele>92.80000000000001</ele><time>2026-04-12T13:09:39.999Z</time></trkpt><trkpt lat="42.312496437676366" lon="14.290991799815377"><ele>94.0</ele><time>2026-04-12T13:09:40.999Z</time></trkpt><trkpt lat="42.31240534319725" lon="14.291003736975716"><ele>94.0</ele><time>2026-04-12T13:09:41.999Z</time></trkpt><trkpt lat="42.312315915453595" lon="14.291064528523851"><ele>94.0</ele><time>2026-04-12T13:09:42.999Z</time></trkpt><trkpt lat="42.312227735010076" lon="14.29109164288156"><ele>94.0</ele><time>2026-04-12T13:09:43.999Z</time></trkpt><trkpt lat="42.31213393292552" lon="14.291124268848895"><ele>94.0</ele><time>2026-04-12T13:09:44.999Z</time></trkpt><trkpt lat="42.312043405303825" lon="14.291163439783526"><ele>94.0</ele><time>2026-04-12T13:09:45.999Z</time></trkpt><trkpt lat="42.31195359340931" lon="14.291209080555896"><ele>94.16666666666666</ele><time>2026-04-12T13:09:46.999Z</time></trkpt><trkpt lat="42.311874125837036" lon="14.291248807104816"><ele>94.33333333333333</ele><time>2026-04-12T13:09:47.999Z</time></trkpt><trkpt lat="42.3118015997168" lon="14.291286770180154"><ele>94.5</ele><time>2026-04-12T13:09:48.999Z</time></trkpt><trkpt lat="42.311721460517354" lon="14.291306518011723"><ele>94.66666666666667</ele><time>2026-04-12T13:09:49.999Z</time></trkpt><trkpt lat="42.31165416680583" lon="14.29130507525973"><ele>94.83333333333334</ele><time>2026-04-12T13:09:50.999Z</time></trkpt><trkpt lat="42.311556358048385" lon="14.291325275300608"><ele>95.0</ele><time>2026-04-12T13:09:52.999Z</time></trkpt><trkpt lat="42.311453912244694" lon="14.291381767625767"><ele>95.5</ele><time>2026-04-12T13:09:54.999Z</time></trkpt><trkpt lat="42.31138796310586" lon="14.291420544793946"><ele>96.0</ele><time>2026-04-12T13:09:55.999Z</time></trkpt><trkpt lat="42.3113108299873" lon="14.291445441857979"><ele>96.5</ele><time>2026-04-12T13:09:56.999Z</time></trkpt><trkpt lat="42.31123455872682" lon="14.291460083033762"><ele>97.0</ele><time>2026-04-12T13:09:57.999Z</time></trkpt><trkpt lat="42.31116151307535" lon="14.291458351597294"><ele>97.49999999999999</ele><time>2026-04-12T13:09:58.999Z</time></trkpt><trkpt lat="42.31108839934176" lon="14.291437272962328"><ele>98.0</ele><time>2026-04-12T13:09:59.999Z</time></trkpt><trkpt lat="42.31102014860988" lon="14.291332411068872"><ele>98.0</ele><time>2026-04-12T13:10:00.999Z</time></trkpt><trkpt lat="42.31095313915315" lon="14.29123104583345"><ele>98.0</ele><time>2026-04-12T13:10:01.999Z</time></trkpt><trkpt lat="42.310877887498556" lon="14.291139811849797"><ele>98.0</ele><time>2026-04-12T13:10:02.999Z</time></trkpt><trkpt lat="42.31076787496601" lon="14.29106062058144"><ele>98.0</ele><time>2026-04-12T13:10:03.999Z</time></trkpt><trkpt lat="42.310651011235755" lon="14.290983350493152"><ele>101.33333333333333</ele><time>2026-04-12T13:10:04.999Z</time></trkpt><trkpt lat="42.310534603294485" lon="14.290919072280705"><ele>104.66666666666666</ele><time>2026-04-12T13:10:05.999Z</time></trkpt><trkpt lat="42.3104064982556" lon="14.290868264807873"><ele>108.0</ele><time>2026-04-12T13:10:06.999Z</time></trkpt><trkpt lat="42.31012034158756" lon="14.290713690663305"><ele>108.0</ele><time>2026-04-12T13:10:07.999Z</time></trkpt><trkpt lat="42.309988387968765" lon="14.29070953141116"><ele>108.00000000000001</ele><time>2026-04-12T13:10:08.999Z</time></trkpt><trkpt lat="42.309876898008355" lon="14.290674081679915"><ele>108.00000000000001</ele><time>2026-04-12T13:10:09.999Z</time></trkpt><trkpt lat="42.309771622552304" lon="14.290623098002346"><ele>108.0</ele><time>2026-04-12T13:10:10.999Z</time></trkpt><trkpt lat="42.30968780218893" lon="14.290601488828045"><ele>108.0</ele><time>2026-04-12T13:10:11.999Z</time></trkpt><trkpt lat="42.3095654288024" lon="14.290634123637401"><ele>109.75</ele><time>2026-04-12T13:10:13.999Z</time></trkpt><trkpt lat="42.30949852108688" lon="14.290711334827794"><ele>111.5</ele><time>2026-04-12T13:10:14.999Z</time></trkpt><trkpt lat="42.30944242403711" lon="14.290865499111632"><ele>113.25</ele><time>2026-04-12T13:10:15.999Z</time></trkpt><trkpt lat="42.309342035583185" lon="14.290976554891804"><ele>115.0</ele><time>2026-04-12T13:10:16.999Z</time></trkpt><trkpt lat="42.3092446465171" lon="14.291074233108635"><ele>115.0</ele><time>2026-04-12T13:10:17.999Z</time></trkpt><trkpt lat="42.30913130952442" lon="14.291165891219773"><ele>115.0</ele><time>2026-04-12T13:10:18.999Z</time></trkpt><trkpt lat="42.30897082939216" lon="14.291226115383465"><ele>115.0</ele><time>2026-04-12T13:10:19.999Z</time></trkpt><trkpt lat="42.308820517500656" lon="14.291295703156853"><ele>114.5</ele><time>2026-04-12T13:10:20.999Z</time></trkpt><trkpt lat="42.30867451534774" lon="14.291363618956973"><ele>114.0</ele><time>2026-04-12T13:10:21.999Z</time></trkpt><trkpt lat="42.30856766545599" lon="14.29143570320502"><ele>113.5</ele><time>2026-04-12T13:10:22.999Z</time></trkpt><trkpt lat="42.308462645806884" lon="14.291552060516056"><ele>113.0</ele><time>2026-04-12T13:10:23.999Z</time></trkpt><trkpt lat="42.30834780577963" lon="14.29170269095242"><ele>113.0</ele><time>2026-04-12T13:10:24.999Z</time></trkpt><trkpt lat="42.30823096120275" lon="14.291849925189737"><ele>113.0</ele><time>2026-04-12T13:10:25.999Z</time></trkpt><trkpt lat="42.30812478147913" lon="14.291951508126573"><ele>113.0</ele><time>2026-04-12T13:10:27Z</time></trkpt><trkpt lat="42.30799883330612" lon="14.292017612056588"><ele>113.0</ele><time>2026-04-12T13:10:28Z</time></trkpt><trkpt lat="42.30784952172445" lon="14.292064775790058"><ele>112.66666666666666</ele><time>2026-04-12T13:10:29Z</time></trkpt><trkpt lat="42.30768417201037" lon="14.292123528782353"><ele>112.33333333333334</ele><time>2026-04-12T13:10:30Z</time></trkpt><trkpt lat="42.30751009394256" lon="14.292207348215202"><ele>112.0</ele><time>2026-04-12T13:10:31Z</time></trkpt><trkpt lat="42.30734255795877" lon="14.292291647987193"><ele>112.75</ele><time>2026-04-12T13:10:32Z</time></trkpt><trkpt lat="42.30718544801306" lon="14.29233473811528"><ele>113.5</ele><time>2026-04-12T13:10:33Z</time></trkpt><trkpt lat="42.307041375800566" lon="14.292348715301934"><ele>114.25</ele><time>2026-04-12T13:10:34Z</time></trkpt><trkpt lat="42.30690486767719" lon="14.292361685845528"><ele>115.0</ele><time>2026-04-12T13:10:35Z</time></trkpt><trkpt lat="42.30676768585327" lon="14.292395067838372"><ele>115.0</ele><time>2026-04-12T13:10:36Z</time></trkpt><trkpt lat="42.306602509233166" lon="14.292466293374407"><ele>115.0</ele><time>2026-04-12T13:10:37Z</time></trkpt><trkpt lat="42.30646008531279" lon="14.292543855022915"><ele>115.0</ele><time>2026-04-12T13:10:38Z</time></trkpt><trkpt lat="42.30633744503192" lon="14.292598073603656"><ele>116.33333333333334</ele><time>2026-04-12T13:10:39Z</time></trkpt><trkpt lat="42.30620132830112" lon="14.292619650789513"><ele>117.66666666666666</ele><time>2026-04-12T13:10:40Z</time></trkpt><trkpt lat="42.30605119178168" lon="14.292614646174755"><ele>119.0</ele><time>2026-04-12T13:10:41Z</time></trkpt><trkpt lat="42.30588708237824" lon="14.292594679629797"><ele>119.0</ele><time>2026-04-12T13:10:42Z</time></trkpt><trkpt lat="42.305712273321404" lon="14.292570485756212"><ele>119.0</ele><time>2026-04-12T13:10:43Z</time></trkpt><trkpt lat="42.305538677907805" lon="14.292553266020064"><ele>119.0</ele><time>2026-04-12T13:10:44Z</time></trkpt><trkpt lat="42.305384911813725" lon="14.292522680501918"><ele>119.75</ele><time>2026-04-12T13:10:45Z</time></trkpt><trkpt lat="42.30526010979768" lon="14.292494916180543"><ele>120.5</ele><time>2026-04-12T13:10:46Z</time></trkpt><trkpt lat="42.30513524386684" lon="14.292482787742088"><ele>121.25</ele><time>2026-04-12T13:10:47Z</time></trkpt><trkpt lat="42.30501774761114" lon="14.29248919172676"><ele>122.0</ele><time>2026-04-12T13:10:48Z</time></trkpt><trkpt lat="42.30493365468595" lon="14.292509141813513"><ele>122.0</ele><time>2026-04-12T13:10:49Z</time></trkpt><trkpt lat="42.304865439059505" lon="14.292585479484824"><ele>121.99999999999999</ele><time>2026-04-12T13:10:51Z</time></trkpt><trkpt lat="42.3048030615472" lon="14.292653125155883"><ele>121.99999999999999</ele><time>2026-04-12T13:10:52Z</time></trkpt><trkpt lat="42.304722337316505" lon="14.292737744346953"><ele>122.0</ele><time>2026-04-12T13:10:53Z</time></trkpt><trkpt lat="42.304624994014404" lon="14.29280907523738"><ele>122.0</ele><time>2026-04-12T13:10:54Z</time></trkpt><trkpt lat="42.30450683001077" lon="14.29286197534922"><ele>121.66666666666666</ele><time>2026-04-12T13:10:55Z</time></trkpt><trkpt lat="42.30436299157174" lon="14.292945137483764"><ele>121.33333333333334</ele><time>2026-04-12T13:10:56Z</time></trkpt><trkpt lat="42.30420443635317" lon="14.29299135056903"><ele>121.0</ele><time>2026-04-12T13:10:57Z</time></trkpt><trkpt lat="42.30406309625815" lon="14.293003693461644"><ele>121.0</ele><time>2026-04-12T13:10:58Z</time></trkpt><trkpt lat="42.30393356454272" lon="14.29301794057793"><ele>121.0</ele><time>2026-04-12T13:10:59Z</time></trkpt><trkpt lat="42.3037949997082" lon="14.293026020561737"><ele>121.0</ele><time>2026-04-12T13:11:00Z</time></trkpt><trkpt lat="42.30365093394259" lon="14.293012308819188"><ele>121.0</ele><time>2026-04-12T13:11:01Z</time></trkpt><trkpt lat="42.303496828128985" lon="14.293000298529362"><ele>119.33333333333334</ele><time>2026-04-12T13:11:02Z</time></trkpt><trkpt lat="42.303334348695294" lon="14.29298326907513"><ele>117.66666666666666</ele><time>2026-04-12T13:11:03Z</time></trkpt><trkpt lat="42.30312599053501" lon="14.29295768008991"><ele>116.0</ele><time>2026-04-12T13:11:04Z</time></trkpt><trkpt lat="42.30290881135594" lon="14.292929329409322"><ele>116.0</ele><time>2026-04-12T13:11:05Z</time></trkpt><trkpt lat="42.302708028697225" lon="14.292899708705866"><ele>116.0</ele><time>2026-04-12T13:11:06Z</time></trkpt><trkpt lat="42.30251391264247" lon="14.292869351376705"><ele>116.0</ele><time>2026-04-12T13:11:07Z</time></trkpt><trkpt lat="42.302310234158405" lon="14.29283615216811"><ele>116.33333333333333</ele><time>2026-04-12T13:11:08Z</time></trkpt><trkpt lat="42.302077431654176" lon="14.29279705300219"><ele>116.66666666666666</ele><time>2026-04-12T13:11:09Z</time></trkpt><trkpt lat="42.30186634714432" lon="14.292766796747516"><ele>117.0</ele><time>2026-04-12T13:11:10Z</time></trkpt><trkpt lat="42.30167641775375" lon="14.292742240848852"><ele>117.0</ele><time>2026-04-12T13:11:11Z</time></trkpt><trkpt lat="42.30149710392388" lon="14.292706080610047"><ele>117.0</ele><time>2026-04-12T13:11:12Z</time></trkpt><trkpt lat="42.30131978165909" lon="14.292656757986654"><ele>117.0</ele><time>2026-04-12T13:11:13Z</time></trkpt><trkpt lat="42.301138561533506" lon="14.292610310057672"><ele>118.0</ele><time>2026-04-12T13:11:14Z</time></trkpt><trkpt lat="42.30095135234519" lon="14.292584849529987"><ele>119.0</ele><time>2026-04-12T13:11:15Z</time></trkpt><trkpt lat="42.300794561224585" lon="14.292556680759992"><ele>120.0</ele><time>2026-04-12T13:11:16Z</time></trkpt><trkpt lat="42.30063079842827" lon="14.292543848518308"><ele>120.25</ele><time>2026-04-12T13:11:17Z</time></trkpt><trkpt lat="42.3004878721978" lon="14.29256095559646"><ele>120.5</ele><time>2026-04-12T13:11:18Z</time></trkpt><trkpt lat="42.30037241333922" lon="14.292536052958798"><ele>120.75</ele><time>2026-04-12T13:11:19Z</time></trkpt><trkpt lat="42.30028330214423" lon="14.292499618539429"><ele>121.0</ele><time>2026-04-12T13:11:20Z</time></trkpt><trkpt lat="42.30017799848394" lon="14.292409723085022"><ele>121.0</ele><time>2026-04-12T13:11:21Z</time></trkpt><trkpt lat="42.30004767996166" lon="14.292298582303998"><ele>121.0</ele><time>2026-04-12T13:11:22Z</time></trkpt><trkpt lat="42.29993211726119" lon="14.292193958212845"><ele>121.0</ele><time>2026-04-12T13:11:23Z</time></trkpt><trkpt lat="42.29984664531063" lon="14.292108642811076"><ele>121.0</ele><time>2026-04-12T13:11:24Z</time></trkpt><trkpt lat="42.299752998449364" lon="14.292012326057806"><ele>123.4</ele><time>2026-04-12T13:11:25Z</time></trkpt><trkpt lat="42.29968074765591" lon="14.2921203672955"><ele>125.8</ele><time>2026-04-12T13:11:27Z</time></trkpt><trkpt lat="42.299603220886986" lon="14.292154127892504"><ele>128.20000000000002</ele><time>2026-04-12T13:11:28Z</time></trkpt><trkpt lat="42.29948011748334" lon="14.292170933071667"><ele>130.6</ele><time>2026-04-12T13:11:29Z</time></trkpt><trkpt lat="42.29934492181517" lon="14.292166648704315"><ele>133.0</ele><time>2026-04-12T13:11:30Z</time></trkpt><trkpt lat="42.29921176898868" lon="14.292142324056414"><ele>133.0</ele><time>2026-04-12T13:11:31Z</time></trkpt><trkpt lat="42.29905261694214" lon="14.29212151279758"><ele>133.0</ele><time>2026-04-12T13:11:32Z</time></trkpt><trkpt lat="42.29888624830171" lon="14.292113751181216"><ele>133.0</ele><time>2026-04-12T13:11:33Z</time></trkpt><trkpt lat="42.298710819040515" lon="14.292126119965529"><ele>133.33333333333334</ele><time>2026-04-12T13:11:34Z</time></trkpt><trkpt lat="42.29854109696217" lon="14.29213893313737"><ele>133.66666666666666</ele><time>2026-04-12T13:11:35Z</time></trkpt><trkpt lat="42.298369058441615" lon="14.292151921195934"><ele>134.0</ele><time>2026-04-12T13:11:36Z</time></trkpt><trkpt lat="42.29821903242395" lon="14.29216324741404"><ele>134.0</ele><time>2026-04-12T13:11:37Z</time></trkpt><trkpt lat="42.29810712936775" lon="14.29217503434927"><ele>134.0</ele><time>2026-04-12T13:11:38Z</time></trkpt><trkpt lat="42.29803402393914" lon="14.292194658916642"><ele>134.0</ele><time>2026-04-12T13:11:39Z</time></trkpt><trkpt lat="42.29797367559822" lon="14.292246593763673"><ele>134.0</ele><time>2026-04-12T13:11:40Z</time></trkpt><trkpt lat="42.29792919651345" lon="14.292350155901435"><ele>134.0</ele><time>2026-04-12T13:11:41Z</time></trkpt><trkpt lat="42.29792182444256" lon="14.292479839835673"><ele>134.0</ele><time>2026-04-12T13:11:41.999Z</time></trkpt><trkpt lat="42.29791315401958" lon="14.292620604361847"><ele>131.66666666666666</ele><time>2026-04-12T13:11:42.999Z</time></trkpt><trkpt lat="42.29790420839194" lon="14.292761022231248"><ele>129.33333333333331</ele><time>2026-04-12T13:11:43.999Z</time></trkpt><trkpt lat="42.2978988839953" lon="14.292876273412382"><ele>127.0</ele><time>2026-04-12T13:11:44.999Z</time></trkpt><trkpt lat="42.2978988525184" lon="14.292963172144361"><ele>124.66666666666666</ele><time>2026-04-12T13:11:45.999Z</time></trkpt><trkpt lat="42.297896817365334" lon="14.293058309224724"><ele>122.33333333333333</ele><time>2026-04-12T13:11:48.999Z</time></trkpt><trkpt lat="42.29782131678072" lon="14.293010171116428"><ele>120.0</ele><time>2026-04-12T13:11:50.999Z</time></trkpt><trkpt lat="42.297758671491344" lon="14.292926513503359"><ele>120.0</ele><time>2026-04-12T13:11:51.999Z</time></trkpt><trkpt lat="42.2976919778993" lon="14.29283864547905"><ele>120.0</ele><time>2026-04-12T13:11:52.999Z</time></trkpt><trkpt lat="42.297615994175246" lon="14.292780987723011"><ele>120.0</ele><time>2026-04-12T13:11:53.999Z</time></trkpt><trkpt lat="42.297546340027985" lon="14.292710215752198"><ele>120.0</ele><time>2026-04-12T13:11:54.999Z</time></trkpt><trkpt lat="42.29746198937675" lon="14.29262456466738"><ele>120.0</ele><time>2026-04-12T13:11:55.999Z</time></trkpt><trkpt lat="42.29737476956008" lon="14.292533877169099"><ele>120.0</ele><time>2026-04-12T13:11:56.999Z</time></trkpt><trkpt lat="42.29727832451209" lon="14.292444571727122"><ele>120.0</ele><time>2026-04-12T13:11:57.999Z</time></trkpt><trkpt lat="42.297195993562966" lon="14.29236840572555"><ele>117.0</ele><time>2026-04-12T13:11:58.999Z</time></trkpt><trkpt lat="42.297145463351306" lon="14.292298570109718"><ele>117.0</ele><time>2026-04-12T13:11:59.999Z</time></trkpt><trkpt lat="42.297080022276035" lon="14.292235655392526"><ele>135.0</ele><time>2026-04-12T13:12:01.999Z</time></trkpt></trkseg></trk></gpx>